Debug Messages:
$DeviceName=pironex_auto
$Software=0.1.3
$Hardware=1
$LastValidPosition=
$IMEI=359193030849087
$LocalIP=10.158.211.5
$CmdVersion=2
$SUCCESS
$<end>
$GPGGA,062823.000,5348.9676,N,01052.6074,E,1,10,1.00,20.9,M,45.5,M,,*59
$GPRMC,062821.632,V,,,,,15.27,286.18,090114,,,N*7C
$GPGGA,062851.000,5348.9123,N,01052.4479,E,1,13,0.98,13.1,M,45.5,M,,*5B
$GPRMC,062850.000,A,5348.9150,N,01052.4572,E,20.73,243.80,090114,,,A*54
$GPGGA,062902.000,5348.8900,N,01052.2635,E,1,13,0.98,12.4,M,45.5,M,,*5C
$GPRMC,062901.000,A,5348.8926,N,01052.2866,E,48.05,259.38,090114,,,A*50
$GPGGA,062909.000,5348.8697,N,01052.0779,E,1,13,0.97,12.0,M,45.5,M,,*56
$GPRMC,062908.000,A,5348.8730,N,01052.1069,E,61.40,259.08,090114,,,A*5D
$GPGGA,062915.000,5348.8466,N,01051.8934,E,1,13,0.97,14.7,M,45.5,M,,*5A
$GPRMC,062914.000,A,5348.8508,N,01051.9253,E,68.75,257.55,090114,,,A*50
$GPGGA,062921.000,5348.8190,N,01051.7004,E,1,13,0.97,19.8,M,45.5,M,,*56
$GPRMC,062920.000,A,5348.8238,N,01051.7327,E,70.61,255.49,090114,,,A*5C
$GPGGA,062927.000,5348.7898,N,01051.5011,E,1,13,0.97,25.3,M,45.5,M,,*5C
$GPRMC,062926.000,A,5348.7946,N,01051.5347,E,73.26,256.21,090114,,,A*5E
$GPGGA,062933.000,5348.7611,N,01051.2981,E,1,12,1.25,30.8,M,45.5,M,,*57
$GPRMC,062932.000,A,5348.7658,N,01051.3314,E,72.72,256.73,090114,,,A*5C
$GPGGA,062939.000,5348.7319,N,01051.0930,E,1,13,0.97,34.7,M,45.5,M,,*5A
$GPRMC,062938.000,A,5348.7370,N,01051.1280,E,76.09,256.44,090114,,,A*5B
$GPGGA,062944.000,5348.7065,N,01050.9155,E,1,13,0.97,35.6,M,45.5,M,,*5B
$GPRMC,062943.000,A,5348.7115,N,01050.9513,E,77.78,256.55,090114,,,A*55
$GPGGA,062949.000,5348.6799,N,01050.7330,E,1,11,1.15,34.6,M,45.5,M,,*54
$GPRMC,062948.000,A,5348.6852,N,01050.7697,E,80.03,256.40,090114,,,A*54
$GPGGA,062954.000,5348.6541,N,01050.5475,E,1,12,0.99,31.7,M,45.5,M,,*59
$GPRMC,062953.000,A,5348.6592,N,01050.5844,E,80.53,256.87,090114,,,A*53
$GPGGA,062959.000,5348.6307,N,01050.3574,E,1,12,0.99,26.8,M,45.5,M,,*5F
$GPRMC,062958.000,A,5348.6348,N,01050.3959,E,83.60,259.02,090114,,,A*53
$GPGGA,063004.000,5348.6154,N,01050.1650,E,1,13,0.97,21.0,M,45.5,M,,*5C
$GPRMC,063003.000,A,5348.6176,N,01050.2033,E,82.35,263.76,090114,,,A*55
$GPGGA,063009.000,5348.6098,N,01049.9748,E,1,13,0.97,19.6,M,45.5,M,,*55
$GPRMC,063008.000,A,5348.6102,N,01050.0130,E,81.24,268.68,090114,,,A*5A
$GPGGA,063014.000,5348.6132,N,01049.7825,E,1,13,0.97,18.4,M,45.5,M,,*51
$GPRMC,063013.000,A,5348.6118,N,01049.8209,E,81.93,272.68,090114,,,A*55
$GPGGA,063019.000,5348.6262,N,01049.5853,E,1,13,0.97,17.4,M,45.5,M,,*56
$GPRMC,063018.000,A,5348.6228,N,01049.6253,E,86.03,277.47,090114,,,A*59
$GPGGA,063024.000,5348.6489,N,01049.3920,E,1,13,0.97,16.4,M,45.5,M,,*59
$GPRMC,063023.000,A,5348.6439,N,01049.4293,E,82.28,282.21,090114,,,A*5E
$GPGGA,063029.000,5348.6799,N,01049.2114,E,1,13,0.97,15.4,M,45.5,M,,*5B
$GPRMC,063028.000,A,5348.6730,N,01049.2473,E,80.25,287.20,090114,,,A*5A
$GPGGA,063034.000,5348.7199,N,01049.0310,E,1,13,0.97,15.5,M,45.5,M,,*55
$GPRMC,063033.000,A,5348.7111,N,01049.0674,E,83.25,291.50,090114,,,A*50
$GPGGA,063039.000,5348.7699,N,01048.8522,E,1,13,0.97,16.0,M,45.5,M,,*57
$GPRMC,063038.000,A,5348.7591,N,01048.8873,E,84.14,296.47,090114,,,A*53
$GPGGA,063044.000,5348.8282,N,01048.6777,E,1,12,0.99,14.9,M,45.5,M,,*54
$GPRMC,063043.000,A,5348.8163,N,01048.7125,E,86.04,299.73,090114,,,A*57
$GPGGA,063049.000,5348.8842,N,01048.5094,E,1,12,0.99,13.3,M,45.5,M,,*5B
$GPRMC,063048.000,A,5348.8735,N,01048.5423,E,80.80,298.88,090114,,,A*57
$GPGGA,063054.000,5348.9332,N,01048.3440,E,1,11,1.14,12.1,M,45.5,M,,*55
$GPRMC,063053.000,A,5348.9240,N,01048.3777,E,79.32,295.24,090114,,,A*5B
$GPGGA,063059.000,5348.9717,N,01048.1717,E,1,12,0.99,10.9,M,45.5,M,,*55
$GPRMC,063058.000,A,5348.9651,N,01048.2062,E,77.89,288.66,090114,,,A*52
$GPGGA,063105.000,5348.9962,N,01047.9615,E,1,12,0.99,9.8,M,45.5,M,,*6C
$GPRMC,063104.000,A,5348.9938,N,01047.9971,E,76.59,277.56,090114,,,A*5A
$GPGGA,063111.000,5348.9976,N,01047.7440,E,1,11,1.04,8.6,M,45.5,M,,*69
$GPRMC,063110.000,A,5348.9989,N,01047.7804,E,77.46,267.56,090114,,,A*56
$GPGGA,063116.000,5348.9809,N,01047.5639,E,1,12,0.99,7.6,M,45.5,M,,*60
$GPRMC,063115.000,A,5348.9855,N,01047.5995,E,77.57,258.62,090114,,,A*53
$GPGGA,063121.000,5348.9474,N,01047.3887,E,1,11,1.04,6.7,M,45.5,M,,*69
$GPRMC,063120.000,A,5348.9556,N,01047.4230,E,78.63,249.49,090114,,,A*5F
$GPGGA,063126.000,5348.8988,N,01047.2237,E,1,9,1.24,6.9,M,45.5,M,,*54
$GPRMC,063125.000,A,5348.9096,N,01047.2559,E,78.88,241.39,090114,,,A*57
$GPGGA,063132.000,5348.8237,N,01047.0498,E,1,12,0.99,5.7,M,45.5,M,,*6F
$GPRMC,063131.000,A,5348.8378,N,01047.0766,E,75.44,230.12,090114,,,A*5E
$GPGGA,063138.000,5348.7305,N,01046.9022,E,1,9,1.26,4.8,M,45.5,M,,*56
$GPRMC,063137.000,A,5348.7470,N,01046.9246,E,76.20,220.74,090114,,,A*57
$GPGGA,063144.000,5348.6296,N,01046.7917,E,1,11,1.13,5.2,M,45.5,M,,*62
$GPRMC,063143.000,A,5348.6466,N,01046.8078,E,70.30,209.89,090114,,,A*52
$GPGGA,063150.000,5348.5266,N,01046.6963,E,1,11,1.13,6.1,M,45.5,M,,*69
$GPRMC,063149.000,A,5348.5436,N,01046.7125,E,69.69,209.72,090114,,,A*58
$GPGGA,063156.000,5348.4262,N,01046.5930,E,1,12,0.99,5.4,M,45.5,M,,*69
$GPRMC,063155.000,A,5348.4426,N,01046.6114,E,70.14,213.47,090114,,,A*59
$GPGGA,063202.000,5348.3272,N,01046.4713,E,1,12,0.99,2.8,M,45.6,M,,*6B
$GPRMC,063201.000,A,5348.3438,N,01046.4932,E,75.97,217.71,090114,,,A*52
$GPGGA,063208.000,5348.2348,N,01046.3386,E,1,5,1.27,3.5,M,45.6,M,,*59
$GPRMC,063207.000,A,5348.2495,N,01046.3607,E,71.45,221.39,090114,,,A*5E
$GPGGA,063214.000,5348.1533,N,01046.2023,E,1,12,0.99,5.4,M,45.6,M,,*65
$GPRMC,063213.000,A,5348.1664,N,01046.2249,E,68.11,225.72,090114,,,A*59
$GPGGA,063221.000,5348.0644,N,01046.0645,E,1,12,0.99,5.7,M,45.6,M,,*66
$GPRMC,063220.000,A,5348.0770,N,01046.0821,E,59.14,220.51,090114,,,A*59
$GPGGA,063228.000,5347.9753,N,01045.9492,E,1,12,0.99,6.1,M,45.6,M,,*69
$GPRMC,063227.000,A,5347.9879,N,01045.9644,E,56.36,216.02,090114,,,A*55
$GPGGA,063236.000,5347.8837,N,01045.8497,E,1,12,0.99,6.7,M,45.6,M,,*68
$GPRMC,063235.000,A,5347.8947,N,01045.8616,E,47.07,212.92,090114,,,A*52
$GPGGA,063244.000,5347.7847,N,01045.7419,E,1,12,0.99,7.8,M,45.6,M,,*62
$GPRMC,063243.000,A,5347.7981,N,01045.7567,E,57.45,213.21,090114,,,A*52
$GPGGA,063251.000,5347.6954,N,01045.6322,E,1,10,1.17,8.7,M,45.6,M,,*6F
$GPRMC,063250.000,A,5347.7073,N,01045.6482,E,55.20,218.24,090114,,,A*50
$GPGGA,063259.000,5347.6132,N,01045.4950,E,1,10,1.06,6.8,M,45.6,M,,*63
$GPRMC,063258.000,A,5347.6223,N,01045.5133,E,50.67,229.81,090114,,,A*59
$GPGGA,063310.000,5347.5567,N,01045.3341,E,1,11,1.04,4.6,M,45.6,M,,*6A
$GPRMC,063309.000,A,5347.5565,N,01045.3461,E,26.24,264.12,090114,,,A*5B
ping
ping
$GPGGA,063416.000,5347.4572,N,01045.4254,E,1,12,0.98,10.2,M,45.6,M,,*5A
$GPRMC,063415.000,A,5347.4662,N,01045.4267,E,31.13,184.51,090114,,,A*5B
$GPGGA,063427.000,5347.3467,N,01045.3992,E,1,12,0.98,10.0,M,45.6,M,,*5E
$GPRMC,063426.000,A,5347.3567,N,01045.4018,E,36.26,188.74,090114,,,A*5A
$GPGGA,063443.000,5347.2382,N,01045.3686,E,1,12,0.98,8.1,M,45.6,M,,*63
$GPRMC,063442.000,A,5347.2441,N,01045.3696,E,21.30,186.45,090114,,,A*56
$GPGGA,063458.000,5347.1280,N,01045.3215,E,1,11,1.10,8.6,M,45.6,M,,*62
$GPRMC,063457.000,A,5347.1355,N,01045.3261,E,28.81,199.19,090114,,,A*5B
$GPGGA,063510.000,5347.0194,N,01045.2363,E,1,11,0.94,9.2,M,45.6,M,,*61
$GPRMC,063509.000,A,5347.0306,N,01045.2463,E,43.47,207.33,090114,,,A*58
$GPGGA,063518.000,5346.9260,N,01045.1431,E,1,12,0.98,10.3,M,45.6,M,,*5C
$GPRMC,063517.000,A,5346.9379,N,01045.1561,E,50.51,212.59,090114,,,A*5A
$GPGGA,063526.000,5346.8260,N,01045.0253,E,1,12,0.98,10.3,M,45.6,M,,*53
$GPRMC,063525.000,A,5346.8388,N,01045.0408,E,56.47,215.82,090114,,,A*5B
$GPGGA,063533.000,5346.7388,N,01044.9137,E,1,11,1.08,8.4,M,45.6,M,,*63
$GPRMC,063532.000,A,5346.7508,N,01044.9302,E,55.82,218.91,090114,,,A*5C
$GPGGA,063540.000,5346.6604,N,01044.7876,E,1,12,0.98,4.9,M,45.6,M,,*6F
$GPRMC,063539.000,A,5346.6712,N,01044.8070,E,56.70,226.37,090114,,,A*57
$GPGGA,063547.000,5346.5870,N,01044.6441,E,1,12,0.98,6.6,M,45.6,M,,*62
$GPRMC,063546.000,A,5346.5969,N,01044.6640,E,55.84,229.46,090114,,,A*54
$GPGGA,063556.000,5346.5177,N,01044.5043,E,1,12,0.98,11.3,M,45.6,M,,*5A
$GPRMC,063555.000,A,5346.5237,N,01044.5162,E,33.43,229.28,090114,,,A*51
$GPGGA,063608.000,5346.4393,N,01044.3625,E,1,12,0.98,11.3,M,45.6,M,,*5B
$GPRMC,063607.000,A,5346.4469,N,01044.3735,E,36.25,222.04,090114,,,A*5B
$GPGGA,063619.000,5346.3457,N,01044.2671,E,1,11,1.03,10.0,M,45.6,M,,*51
$GPRMC,063618.000,A,5346.3549,N,01044.2743,E,36.77,204.86,090114,,,A*58
$GPGGA,063630.000,5346.2468,N,01044.1952,E,1,12,0.98,11.8,M,45.6,M,,*53
$GPRMC,063629.000,A,5346.2555,N,01044.2025,E,34.84,205.26,090114,,,A*54
$GPGGA,063643.000,5346.1474,N,01044.1014,E,1,11,1.03,12.7,M,45.6,M,,*5E
$GPRMC,063642.000,A,5346.1546,N,01044.1061,E,28.25,202.07,090114,,,A*59
$GPGGA,063657.000,5346.0428,N,01044.0292,E,1,12,0.98,13.3,M,45.6,M,,*5B
$GPRMC,063656.000,A,5346.0513,N,01044.0359,E,33.69,205.17,090114,,,A*50
$GPGGA,063708.000,5345.9322,N,01043.9575,E,1,11,1.03,12.1,M,45.6,M,,*54
$GPRMC,063707.000,A,5345.9433,N,01043.9637,E,41.66,198.83,090114,,,A*5F
$GPGGA,063717.000,5345.8292,N,01043.8991,E,1,12,0.97,10.7,M,45.6,M,,*5D
$GPRMC,063716.000,A,5345.8404,N,01043.9055,E,42.44,198.81,090114,,,A*59
$GPGGA,063727.000,5345.7186,N,01043.8370,E,1,10,1.26,9.5,M,45.6,M,,*61
$GPRMC,063726.000,A,5345.7292,N,01043.8430,E,40.49,198.90,090114,,,A*55
$GPGGA,063738.000,5345.6046,N,01043.7882,E,1,10,1.26,7.1,M,45.6,M,,*60
$GPRMC,063737.000,A,5345.6153,N,01043.7896,E,37.90,185.99,090114,,,A*54
$GPGGA,063748.000,5345.4893,N,01043.8104,E,1,10,1.26,4.0,M,45.6,M,,*6F
$GPRMC,063747.000,A,5345.5009,N,01043.8077,E,42.12,171.13,090114,,,A*57
$GPGGA,063758.000,5345.3809,N,01043.7947,E,1,11,1.02,6.4,M,45.6,M,,*6B
$GPRMC,063757.000,A,5345.3906,N,01043.7994,E,37.01,195.69,090114,,,A*5A
$GPGGA,063809.000,5345.2741,N,01043.7355,E,1,11,1.02,11.5,M,45.6,M,,*5C
$GPRMC,063808.000,A,5345.2821,N,01043.7401,E,31.15,198.31,090114,,,A*58
$GPGGA,063823.000,5345.1687,N,01043.6955,E,1,12,0.97,11.6,M,45.6,M,,*5A
$GPRMC,063822.000,A,5345.1760,N,01043.6964,E,27.21,185.63,090114,,,A*5D
$GPGGA,063838.000,5345.0596,N,01043.6999,E,1,11,0.99,9.8,M,45.6,M,,*68
$GPRMC,063837.000,A,5345.0674,N,01043.6979,E,28.12,172.73,090114,,,A*56
$GPGGA,063851.000,5344.9521,N,01043.7636,E,1,12,0.97,9.2,M,45.6,M,,*6F
$GPRMC,063850.000,A,5344.9598,N,01043.7588,E,29.45,159.81,090114,,,A*5A
$GPGGA,063904.000,5344.8434,N,01043.7863,E,1,12,0.97,1.7,M,45.6,M,,*69
$GPRMC,063903.000,A,5344.8522,N,01043.7877,E,30.97,183.92,090114,,,A*52
$GPGGA,063916.000,5344.7319,N,01043.7572,E,1,10,1.11,2.4,M,45.6,M,,*6D
$GPRMC,063915.000,A,5344.7413,N,01043.7588,E,34.34,186.55,090114,,,A*57
$GPGGA,063929.000,5344.6182,N,01043.7819,E,1,11,1.07,4.3,M,45.6,M,,*67
$GPRMC,063928.000,A,5344.6261,N,01043.7780,E,29.93,163.72,090114,,,A*5E
$GPGGA,063950.000,5344.5138,N,01043.8380,E,1,12,0.97,0.8,M,45.6,M,,*6B
$GPRMC,063949.000,A,5344.5211,N,01043.8282,E,32.58,140.37,090114,,,A*58
$GPGGA,064011.000,5344.4137,N,01043.9215,E,1,11,1.03,-0.9,M,45.6,M,,*41
$GPRMC,064010.000,A,5344.4181,N,01043.9185,E,15.89,156.24,090114,,,A*58
$GPGGA,064025.000,5344.3085,N,01043.9919,E,1,12,0.97,-0.3,M,45.6,M,,*4B
$GPRMC,064024.000,A,5344.3172,N,01043.9860,E,33.24,157.93,090114,,,A*58
$GPGGA,064035.000,5344.2021,N,01044.0645,E,1,10,1.07,4.3,M,45.6,M,,*6E
$GPRMC,064034.000,A,5344.2132,N,01044.0568,E,43.60,157.81,090114,,,A*53
$GPGGA,064045.000,5344.0993,N,01044.1343,E,1,12,0.96,10.1,M,45.6,M,,*55
$GPRMC,064044.000,A,5344.1088,N,01044.1276,E,37.53,158.53,090114,,,A*5D
$GPGGA,064056.000,5343.9932,N,01044.2060,E,1,12,0.96,14.6,M,45.6,M,,*50
$GPRMC,064055.000,A,5344.0033,N,01044.1993,E,39.54,158.24,090114,,,A*55
$GPGGA,064106.000,5343.8896,N,01044.2666,E,1,12,0.96,15.6,M,45.6,M,,*5B
$GPRMC,064105.000,A,5343.9004,N,01044.2612,E,40.17,163.75,090114,,,A*5B
$GPGGA,064116.000,5343.7804,N,01044.2962,E,1,12,0.96,15.4,M,45.6,M,,*57
$GPRMC,064115.000,A,5343.7917,N,01044.2951,E,40.39,176.24,090114,,,A*5B
$GPGGA,064126.000,5343.6631,N,01044.2733,E,1,12,0.96,14.8,M,45.6,M,,*5A
$GPRMC,064125.000,A,5343.6745,N,01044.2784,E,42.15,193.04,090114,,,A*53
$GPGGA,064136.000,5343.5602,N,01044.1999,E,1,9,1.19,13.5,M,45.6,M,,*63
$GPRMC,064135.000,A,5343.5696,N,01044.2089,E,38.85,208.48,090114,,,A*59
$GPGGA,064146.000,5343.4641,N,01044.1059,E,1,9,1.19,12.9,M,45.7,M,,*6B
$GPRMC,064145.000,A,5343.4745,N,01044.1150,E,42.01,207.93,090114,,,A*5E
$GPGGA,064156.000,5343.3599,N,01044.0444,E,1,10,1.03,11.6,M,45.7,M,,*5D
$GPRMC,064155.000,A,5343.3702,N,01044.0479,E,38.49,192.64,090114,,,A*52
$GPGGA,064207.000,5343.2427,N,01044.0311,E,1,12,0.96,12.0,M,45.7,M,,*52
$GPRMC,064206.000,A,5343.2535,N,01044.0309,E,39.53,179.52,090114,,,A*5A
$GPGGA,064217.000,5343.1331,N,01044.0355,E,1,11,1.01,14.3,M,45.7,M,,*59
$GPRMC,064216.000,A,5343.1441,N,01044.0355,E,39.19,179.73,090114,,,A*5E
$GPGGA,064227.000,5343.0189,N,01044.0375,E,1,12,0.96,16.2,M,45.7,M,,*57
$GPRMC,064226.000,A,5343.0304,N,01044.0373,E,41.52,179.06,090114,,,A*5C
$GPGGA,064237.000,5342.9082,N,01044.0393,E,1,11,1.01,16.3,M,45.7,M,,*51
$GPRMC,064236.000,A,5342.9191,N,01044.0393,E,39.08,179.73,090114,,,A*57
$GPGGA,064248.000,5342.7956,N,01044.0402,E,1,11,1.01,16.9,M,45.7,M,,*52
$GPRMC,064247.000,A,5342.8051,N,01044.0401,E,34.63,179.10,090114,,,A*54
$GPGGA,064259.000,5342.6818,N,01044.0508,E,1,12,0.96,16.8,M,45.7,M,,*5E
$GPRMC,064258.000,A,5342.6928,N,01044.0496,E,39.61,176.05,090114,,,A*59
$GPGGA,064308.000,5342.5722,N,01044.0604,E,1,12,0.96,17.2,M,45.7,M,,*5A
$GPRMC,064307.000,A,5342.5849,N,01044.0602,E,45.37,179.10,090114,,,A*5B
$GPGGA,064318.000,5342.4541,N,01044.0510,E,1,12,0.96,19.4,M,45.7,M,,*53
$GPRMC,064317.000,A,5342.4648,N,01044.0532,E,39.48,186.24,090114,,,A*50
$GPGGA,064328.000,5342.3424,N,01044.0136,E,1,11,0.98,21.4,M,45.7,M,,*53
$GPRMC,064327.000,A,5342.3542,N,01044.0189,E,43.79,194.09,090114,,,A*5A
$GPGGA,064337.000,5342.2383,N,01043.9595,E,1,12,0.95,23.4,M,45.7,M,,*59
$GPRMC,064336.000,A,5342.2500,N,01043.9654,E,43.76,197.02,090114,,,A*53
$GPGGA,064347.000,5342.1298,N,01043.9154,E,1,12,0.95,25.9,M,45.7,M,,*54
$GPRMC,064346.000,A,5342.1401,N,01043.9185,E,38.15,191.14,090114,,,A*54
$GPGGA,064357.000,5342.0151,N,01043.8957,E,1,11,1.06,23.2,M,45.7,M,,*5D
$GPRMC,064356.000,A,5342.0276,N,01043.8965,E,44.58,183.25,090114,,,A*56
$GPGGA,064405.000,5341.9043,N,01043.8980,E,1,12,0.95,20.0,M,45.7,M,,*56
$GPRMC,064404.000,A,5341.9187,N,01043.8973,E,51.16,178.18,090114,,,A*52
$GPGGA,064413.000,5341.7877,N,01043.8886,E,1,12,0.95,18.8,M,45.7,M,,*54
$GPRMC,064412.000,A,5341.8020,N,01043.8921,E,51.44,187.15,090114,,,A*55
$GPGGA,064421.000,5341.6710,N,01043.8410,E,1,11,1.00,18.0,M,45.7,M,,*5F
$GPRMC,064420.000,A,5341.6861,N,01043.8477,E,55.32,195.06,090114,,,A*5D
$GPGGA,064428.000,5341.5619,N,01043.8050,E,1,12,0.95,17.9,M,45.7,M,,*55
$GPRMC,064427.000,A,5341.5772,N,01043.8082,E,56.41,188.10,090114,,,A*56
$GPGGA,064436.000,5341.4449,N,01043.7848,E,1,12,0.95,18.6,M,45.7,M,,*52
$GPRMC,064435.000,A,5341.4593,N,01043.7871,E,51.78,185.55,090114,,,A*53
$GPGGA,064444.000,5341.3288,N,01043.7647,E,1,12,0.95,19.5,M,45.7,M,,*58
$GPRMC,064443.000,A,5341.3429,N,01043.7669,E,51.27,185.93,090114,,,A*52
$GPGGA,064452.000,5341.2123,N,01043.7450,E,1,11,1.00,19.5,M,45.7,M,,*56
$GPRMC,064451.000,A,5341.2275,N,01043.7471,E,55.01,184.61,090114,,,A*58
$GPGGA,064459.000,5341.1023,N,01043.7311,E,1,11,1.00,19.0,M,45.7,M,,*58
$GPRMC,064458.000,A,5341.1182,N,01043.7325,E,57.25,183.03,090114,,,A*58
$GPGGA,064506.000,5340.9920,N,01043.7343,E,1,12,0.95,17.7,M,45.7,M,,*50
$GPRMC,064505.000,A,5341.0079,N,01043.7327,E,57.52,177.14,090114,,,A*5A
$GPGGA,064513.000,5340.8817,N,01043.7565,E,1,12,0.95,16.1,M,45.7,M,,*55
$GPRMC,064512.000,A,5340.8970,N,01043.7528,E,56.02,172.02,090114,,,A*5A
$GPGGA,064521.000,5340.7661,N,01043.7893,E,1,11,0.96,14.6,M,45.7,M,,*55
$GPRMC,064520.000,A,5340.7800,N,01043.7859,E,50.92,171.51,090114,,,A*53
$GPGGA,064530.000,5340.6460,N,01043.7883,E,1,12,0.95,13.7,M,45.7,M,,*50
$GPRMC,064529.000,A,5340.6587,N,01043.7919,E,46.66,187.40,090114,,,A*59
$GPGGA,064539.000,5340.5309,N,01043.7251,E,1,12,0.86,15.6,M,45.7,M,,*52
$GPRMC,064538.000,A,5340.5434,N,01043.7344,E,48.70,202.38,090114,,,A*59
$GPGGA,064548.000,5340.4366,N,01043.6089,E,1,11,0.96,17.5,M,45.7,M,,*59
$GPRMC,064547.000,A,5340.4458,N,01043.6240,E,46.90,222.47,090114,,,A*54
$GPGGA,064558.000,5340.3515,N,01043.4711,E,1,12,0.94,18.8,M,45.7,M,,*5A
$GPRMC,064557.000,A,5340.3598,N,01043.4832,E,39.94,221.38,090114,,,A*55
$GPGGA,064609.000,5340.2540,N,01043.3597,E,1,11,0.96,18.0,M,45.7,M,,*5E
$GPRMC,064608.000,A,5340.2627,N,01043.3688,E,37.35,210.86,090114,,,A*50
$GPGGA,064620.000,5340.1602,N,01043.2645,E,1,12,0.94,14.9,M,45.7,M,,*5A
$GPRMC,064619.000,A,5340.1690,N,01043.2732,E,36.66,210.34,090114,,,A*50
$GPGGA,064630.000,5340.0626,N,01043.1667,E,1,11,1.00,13.4,M,45.7,M,,*5A
$GPRMC,064629.000,A,5340.0725,N,01043.1770,E,42.00,210.77,090114,,,A*5C
$GPGGA,064640.000,5339.9655,N,01043.0813,E,1,12,0.94,12.3,M,45.7,M,,*5B
$GPRMC,064639.000,A,5339.9756,N,01043.0869,E,37.58,200.10,090114,,,A*57
$GPGGA,064650.000,5339.8524,N,01043.0376,E,1,12,0.94,16.7,M,45.7,M,,*56
$GPRMC,064649.000,A,5339.8638,N,01043.0419,E,40.08,190.90,090114,,,A*54
$GPGGA,064700.000,5339.7410,N,01042.9937,E,1,12,0.86,20.3,M,45.7,M,,*5E
$GPRMC,064659.000,A,5339.7516,N,01042.9976,E,39.18,192.73,090114,,,A*59
$GPGGA,064711.000,5339.6258,N,01042.9499,E,1,10,1.01,21.0,M,45.7,M,,*52
$GPRMC,064710.000,A,5339.6369,N,01042.9539,E,40.98,192.97,090114,,,A*51
$GPGGA,064721.000,5339.5115,N,01042.9069,E,1,12,0.94,23.3,M,45.7,M,,*5D
$GPRMC,064720.000,A,5339.5231,N,01042.9115,E,42.96,192.87,090114,,,A*5A
$GPGGA,064730.000,5339.4063,N,01042.8311,E,1,11,0.99,22.2,M,45.7,M,,*5F
$GPRMC,064729.000,A,5339.4181,N,01042.8406,E,47.12,205.78,090114,,,A*58
$GPGGA,064739.000,5339.2996,N,01042.7423,E,1,11,0.96,16.5,M,45.7,M,,*55
$GPRMC,064738.000,A,5339.3116,N,01042.7524,E,48.39,206.15,090114,,,A*51
$GPGGA,064748.000,5339.2014,N,01042.6505,E,1,12,0.94,11.7,M,45.7,M,,*50
$GPRMC,064747.000,A,5339.2110,N,01042.6616,E,43.20,213.39,090114,,,A*54
$GPGGA,064759.000,5339.1077,N,01042.5448,E,1,12,0.86,9.8,M,45.7,M,,*68
$GPRMC,064758.000,A,5339.1159,N,01042.5540,E,34.63,213.52,090114,,,A*5D
$GPGGA,064809.000,5339.0179,N,01042.4440,E,1,12,0.94,6.6,M,45.7,M,,*67
$GPRMC,064808.000,A,5339.0274,N,01042.4545,E,41.18,213.97,090114,,,A*59
$GPGGA,064819.000,5338.9204,N,01042.3352,E,1,12,0.94,6.2,M,45.7,M,,*60
$GPRMC,064818.000,A,5338.9304,N,01042.3464,E,43.40,213.56,090114,,,A*51
$GPGGA,064828.000,5338.8287,N,01042.2333,E,1,12,0.94,7.0,M,45.7,M,,*6D
$GPRMC,064827.000,A,5338.8387,N,01042.2443,E,43.64,213.82,090114,,,A*5C
$GPGGA,064838.000,5338.7325,N,01042.1254,E,1,12,0.93,7.2,M,45.7,M,,*6C
$GPRMC,064837.000,A,5338.7428,N,01042.1370,E,43.55,213.98,090114,,,A*5D
$GPGGA,064847.000,5338.6369,N,01042.0118,E,1,11,0.96,8.7,M,45.7,M,,*6B
$GPRMC,064846.000,A,5338.6472,N,01042.0249,E,46.59,216.35,090114,,,A*54
$GPGGA,064856.000,5338.5521,N,01041.8908,E,1,12,0.93,10.2,M,45.7,M,,*5A
$GPRMC,064855.000,A,5338.5610,N,01041.9048,E,43.92,222.76,090114,,,A*58
$GPGGA,064905.000,5338.4758,N,01041.7466,E,1,12,0.93,11.2,M,45.8,M,,*54
$GPRMC,064904.000,A,5338.4840,N,01041.7641,E,47.24,230.94,090114,,,A*50
$GPGGA,064914.000,5338.4113,N,01041.5875,E,1,12,0.93,11.4,M,45.8,M,,*57
$GPRMC,064913.000,A,5338.4175,N,01041.6046,E,43.66,238.33,090114,,,A*5E
$GPGGA,064924.000,5338.3546,N,01041.4160,E,1,12,0.93,10.8,M,45.8,M,,*56
$GPRMC,064923.000,A,5338.3601,N,01041.4337,E,42.38,242.36,090114,,,A*5B
$GPGGA,064933.000,5338.3024,N,01041.2398,E,1,12,0.93,10.2,M,45.8,M,,*58
$GPRMC,064932.000,A,5338.3083,N,01041.2605,E,49.35,244.05,090114,,,A*55
$GPGGA,064942.000,5338.2513,N,01041.0633,E,1,12,0.93,10.8,M,45.8,M,,*52
$GPRMC,064941.000,A,5338.2569,N,01041.0820,E,44.80,242.66,090114,,,A*5A
$GPGGA,064951.000,5338.1958,N,01040.8974,E,1,12,0.93,13.2,M,45.8,M,,*5C
$GPRMC,064950.000,A,5338.2025,N,01040.9158,E,46.12,239.02,090114,,,A*5E
$GPGGA,064959.000,5338.1338,N,01040.7471,E,1,10,1.06,14.3,M,45.8,M,,*56
$GPRMC,064958.000,A,5338.1425,N,01040.7657,E,50.40,232.52,090114,,,A*59
$GPGGA,065007.000,5338.0581,N,01040.6071,E,1,9,1.13,15.1,M,45.8,M,,*6A
$GPRMC,065006.000,A,5338.0682,N,01040.6236,E,51.26,224.82,090114,,,A*5D
$GPGGA,065016.000,5337.9658,N,01040.4792,E,1,8,1.19,13.9,M,45.8,M,,*66
$GPRMC,065015.000,A,5337.9757,N,01040.4914,E,45.03,216.88,090114,,,A*50
$GPGGA,065026.000,5337.8666,N,01040.3729,E,1,11,0.95,11.6,M,45.8,M,,*5E
$GPRMC,065025.000,A,5337.8776,N,01040.3830,E,44.06,211.99,090114,,,A*52
$GPGGA,065035.000,5337.7709,N,01040.2788,E,1,11,0.95,10.6,M,45.8,M,,*50
$GPRMC,065034.000,A,5337.7814,N,01040.2888,E,43.66,210.03,090114,,,A*57
$GPGGA,065045.000,5337.6691,N,01040.1859,E,1,12,0.93,11.8,M,45.8,M,,*5C
$GPRMC,065044.000,A,5337.6792,N,01040.1948,E,41.09,207.79,090114,,,A*5E
$GPGGA,065055.000,5337.5635,N,01040.0979,E,1,8,1.18,14.8,M,45.8,M,,*6E
$GPRMC,065054.000,A,5337.5742,N,01040.1065,E,42.60,205.18,090114,,,A*5E
$GPGGA,065105.000,5337.4633,N,01040.0200,E,1,11,0.94,16.4,M,45.8,M,,*5B
$GPRMC,065104.000,A,5337.4735,N,01040.0280,E,40.00,205.44,090114,,,A*5E
$GPGGA,065114.000,5337.3662,N,01039.9366,E,1,12,0.92,17.1,M,45.8,M,,*5F
$GPRMC,065113.000,A,5337.3756,N,01039.9456,E,40.26,208.72,090114,,,A*5C
$GPGGA,065125.000,5337.2725,N,01039.8327,E,1,12,0.92,16.2,M,45.8,M,,*58
$GPRMC,065124.000,A,5337.2814,N,01039.8441,E,40.87,217.11,090114,,,A*57
$GPGGA,065135.000,5337.1880,N,01039.7056,E,1,12,0.92,13.2,M,45.8,M,,*55
$GPRMC,065134.000,A,5337.1959,N,01039.7195,E,41.41,225.19,090114,,,A*5C
$GPGGA,065145.000,5337.1155,N,01039.5609,E,1,12,0.92,11.0,M,45.8,M,,*5D
$GPRMC,065144.000,A,5337.1220,N,01039.5755,E,39.03,231.86,090114,,,A*5C
$GPGGA,065157.000,5337.0501,N,01039.4032,E,1,12,0.92,12.1,M,45.8,M,,*57
$GPRMC,065156.000,A,5337.0554,N,01039.4164,E,33.72,235.72,090114,,,A*5C
$GPGGA,065208.000,5336.9859,N,01039.2440,E,1,11,0.98,15.6,M,45.8,M,,*58
$GPRMC,065207.000,A,5336.9919,N,01039.2584,E,37.67,235.38,090114,,,A*54
$GPGGA,065218.000,5336.9245,N,01039.0917,E,1,9,1.04,18.5,M,45.8,M,,*60
$GPRMC,065217.000,A,5336.9309,N,01039.1076,E,41.36,235.72,090114,,,A*5E
$GPGGA,065229.000,5336.8592,N,01038.9306,E,1,11,0.94,20.2,M,45.8,M,,*51
$GPRMC,065228.000,A,5336.8650,N,01038.9450,E,37.28,235.40,090114,,,A*5C
$GPGGA,065240.000,5336.7962,N,01038.7747,E,1,11,0.94,21.4,M,45.8,M,,*5A
$GPRMC,065239.000,A,5336.8017,N,01038.7882,E,35.33,235.91,090114,,,A*50
$GPGGA,065252.000,5336.7351,N,01038.6239,E,1,11,0.94,21.0,M,45.8,M,,*5A
$GPRMC,065251.000,A,5336.7402,N,01038.6365,E,32.26,235.46,090114,,,A*5B
$GPGGA,065304.000,5336.6719,N,01038.4674,E,1,12,0.92,23.4,M,45.8,M,,*5D
$GPRMC,065303.000,A,5336.6770,N,01038.4802,E,33.41,235.57,090114,,,A*52
$GPGGA,065318.000,5336.6074,N,01038.3107,E,1,12,0.92,25.8,M,45.8,M,,*52
$GPRMC,065317.000,A,5336.6120,N,01038.3214,E,28.44,235.22,090114,,,A*53
$GPGGA,065343.000,5336.5450,N,01038.1570,E,1,10,0.98,26.8,M,45.8,M,,*50
$GPRMC,065342.000,A,5336.5476,N,01038.1638,E,16.87,235.40,090114,,,A*58
ping
$GPGGA,065428.000,5336.4831,N,01038.0049,E,1,12,0.91,22.6,M,45.8,M,,*5F
$GPRMC,065427.000,A,5336.4869,N,01038.0137,E,22.09,233.94,090114,,,A*58
$GPGGA,065444.000,5336.4194,N,01037.8480,E,1,12,0.91,17.7,M,45.8,M,,*52
$GPRMC,065443.000,A,5336.4224,N,01037.8554,E,19.84,235.69,090114,,,A*56
$GPGGA,065502.000,5336.3286,N,01037.7509,E,1,12,0.91,20.1,M,45.8,M,,*5B
$GPRMC,065501.000,A,5336.3348,N,01037.7556,E,24.85,203.16,090114,,,A*52
$GPGGA,065518.000,5336.2379,N,01037.6530,E,1,10,0.97,24.4,M,45.8,M,,*5E
$GPRMC,065517.000,A,5336.2434,N,01037.6653,E,32.81,230.36,090114,,,A*5E
$GPGGA,065530.000,5336.1713,N,01037.4900,E,1,12,0.91,23.6,M,45.8,M,,*53
$GPRMC,065529.000,A,5336.1775,N,01037.5051,E,38.33,235.03,090114,,,A*51
$GPGGA,065541.000,5336.1089,N,01037.3331,E,1,11,0.93,25.2,M,45.8,M,,*5D
$GPRMC,065540.000,A,5336.1149,N,01037.3470,E,36.18,234.78,090114,,,A*5C
$GPGGA,065551.000,5336.0434,N,01037.1776,E,1,12,0.91,29.7,M,45.8,M,,*52
$GPRMC,065550.000,A,5336.0503,N,01037.1945,E,43.32,235.42,090114,,,A*5D
$GPGGA,065601.000,5335.9830,N,01037.0098,E,1,12,0.91,33.5,M,45.8,M,,*59
$GPRMC,065600.000,A,5335.9884,N,01037.0260,E,39.97,241.15,090114,,,A*5D
$GPGGA,065612.000,5335.9292,N,01036.8458,E,1,12,0.90,33.0,M,45.8,M,,*5C
$GPRMC,065611.000,A,5335.9338,N,01036.8597,E,34.85,240.90,090114,,,A*55
$GPGGA,065624.000,5335.8735,N,01036.6775,E,1,12,0.90,32.0,M,45.8,M,,*53
$GPRMC,065623.000,A,5335.8783,N,01036.6915,E,35.03,240.67,090114,,,A*5E
$GPGGA,065635.000,5335.8182,N,01036.5105,E,1,12,0.90,33.7,M,45.8,M,,*5D
$GPRMC,065634.000,A,5335.8231,N,01036.5256,E,37.49,240.73,090114,,,A*52
$GPGGA,065646.000,5335.7615,N,01036.3395,E,1,12,0.90,37.1,M,45.8,M,,*50
$GPRMC,065645.000,A,5335.7665,N,01036.3546,E,36.98,241.15,090114,,,A*52
$GPGGA,065657.000,5335.7055,N,01036.1706,E,1,12,0.90,43.3,M,45.8,M,,*5F
$GPRMC,065656.000,A,5335.7104,N,01036.1853,E,36.32,240.94,090114,,,A*53
$GPGGA,065709.000,5335.6526,N,01036.0043,E,1,12,0.90,48.5,M,45.8,M,,*5F
$GPRMC,065708.000,A,5335.6567,N,01036.0173,E,31.80,242.30,090114,,,A*51
$GPGGA,065722.000,5335.5992,N,01035.8336,E,1,12,0.90,53.1,M,45.8,M,,*52
$GPRMC,065721.000,A,5335.6032,N,01035.8463,E,30.86,242.38,090114,,,A*5F
$GPGGA,065734.000,5335.5475,N,01035.6678,E,1,12,0.90,53.4,M,45.8,M,,*55
$GPRMC,065733.000,A,5335.5523,N,01035.6832,E,36.35,241.89,090114,,,A*5B
$GPGGA,065744.000,5335.4956,N,01035.5010,E,1,12,0.90,53.2,M,45.8,M,,*52
$GPRMC,065743.000,A,5335.5006,N,01035.5173,E,39.36,242.31,090114,,,A*5D
$GPGGA,065754.000,5335.4454,N,01035.3384,E,1,12,0.90,52.9,M,45.8,M,,*5E
$GPRMC,065753.000,A,5335.4505,N,01035.3546,E,39.34,242.15,090114,,,A*5B
$GPGGA,065805.000,5335.3722,N,01035.1947,E,1,12,0.90,46.5,M,45.8,M,,*5E
$GPRMC,065804.000,A,5335.3806,N,01035.2069,E,39.12,221.66,090114,,,A*53
$GPGGA,065814.000,5335.2895,N,01035.0748,E,1,12,0.90,45.8,M,45.8,M,,*52
$GPRMC,065813.000,A,5335.2991,N,01035.0885,E,45.27,220.62,090114,,,A*5B
$GPGGA,065823.000,5335.2040,N,01034.9503,E,1,12,0.90,43.1,M,45.8,M,,*5C
$GPRMC,065822.000,A,5335.2131,N,01034.9639,E,44.43,221.43,090114,,,A*5B
$GPGGA,065832.000,5335.1225,N,01034.8321,E,1,12,0.83,41.0,M,45.8,M,,*58
$GPRMC,065831.000,A,5335.1315,N,01034.8450,E,42.80,220.83,090114,,,A*56
$GPGGA,065842.000,5335.0338,N,01034.7031,E,1,12,0.89,41.4,M,45.8,M,,*50
$GPRMC,065841.000,A,5335.0428,N,01034.7163,E,43.05,221.08,090114,,,A*5D
$GPGGA,065852.000,5334.9466,N,01034.5751,E,1,11,1.01,40.9,M,45.9,M,,*59
$GPRMC,065851.000,A,5334.9549,N,01034.5872,E,39.96,221.11,090114,,,A*56
$GPGGA,065903.000,5334.8628,N,01034.4531,E,1,12,0.89,41.0,M,45.9,M,,*5A
$GPRMC,065902.000,A,5334.8704,N,01034.4641,E,36.47,221.05,090114,,,A*52
$GPGGA,065915.000,5334.7760,N,01034.3267,E,1,12,0.89,40.0,M,45.9,M,,*5D
$GPRMC,065914.000,A,5334.7824,N,01034.3361,E,30.92,221.04,090114,,,A*58
$GPGGA,065929.000,5334.6915,N,01034.2033,E,1,12,0.89,44.7,M,45.9,M,,*5E
$GPRMC,065928.000,A,5334.6973,N,01034.2121,E,28.73,220.91,090114,,,A*59
$GPGGA,065944.000,5334.5924,N,01034.1112,E,1,12,0.89,46.6,M,45.9,M,,*56
$GPRMC,065943.000,A,5334.5999,N,01034.1130,E,27.56,188.86,090114,,,A*5F
$GPGGA,065958.000,5334.4812,N,01034.0746,E,1,12,0.89,47.5,M,45.9,M,,*5A
$GPRMC,065957.000,A,5334.4903,N,01034.0782,E,33.97,193.29,090114,,,A*51
$GPGGA,070010.000,5334.3763,N,01034.0182,E,1,12,0.89,45.2,M,45.9,M,,*5E
$GPRMC,070009.000,A,5334.3852,N,01034.0233,E,33.31,199.12,090114,,,A*54
$GPGGA,070021.000,5334.2647,N,01033.9529,E,1,12,0.89,41.5,M,45.9,M,,*52
$GPRMC,070020.000,A,5334.2748,N,01033.9589,E,39.04,199.16,090114,,,A*5A
$GPGGA,070033.000,5334.1552,N,01033.8893,E,1,12,0.89,41.9,M,45.9,M,,*54
$GPRMC,070032.000,A,5334.1642,N,01033.8945,E,34.00,199.31,090114,,,A*50
$GPGGA,070044.000,5334.0476,N,01033.8265,E,1,12,0.89,41.0,M,45.9,M,,*58
$GPRMC,070043.000,A,5334.0575,N,01033.8323,E,37.53,199.05,090114,,,A*58
$GPGGA,070055.000,5333.9407,N,01033.7645,E,1,11,0.91,41.3,M,45.9,M,,*50
$GPRMC,070054.000,A,5333.9501,N,01033.7699,E,36.05,198.39,090114,,,A*54
$GPGGA,070106.000,5333.8327,N,01033.6821,E,1,12,0.88,42.9,M,45.9,M,,*5C
$GPRMC,070105.000,A,5333.8425,N,01033.6924,E,40.68,210.19,090114,,,A*54
$GPGGA,070116.000,5333.7418,N,01033.5649,E,1,12,0.88,46.9,M,45.9,M,,*5E
$GPRMC,070115.000,A,5333.7512,N,01033.5773,E,42.19,218.08,090114,,,A*5C
$GPGGA,070125.000,5333.6526,N,01033.4591,E,1,12,0.88,44.8,M,45.9,M,,*57
$GPRMC,070124.000,A,5333.6627,N,01033.4703,E,42.90,213.94,090114,,,A*53
$GPGGA,070134.000,5333.5607,N,01033.3551,E,1,12,0.88,39.7,M,45.9,M,,*5A
$GPRMC,070133.000,A,5333.5709,N,01033.3671,E,45.07,214.70,090114,,,A*5C
$GPGGA,070144.000,5333.4657,N,01033.2341,E,1,12,0.77,37.4,M,45.9,M,,*52
$GPRMC,070143.000,A,5333.4751,N,01033.2464,E,43.13,218.18,090114,,,A*51
$GPGGA,070153.000,5333.3771,N,01033.1165,E,1,12,0.75,35.7,M,45.9,M,,*52
$GPRMC,070152.000,A,5333.3875,N,01033.1302,E,47.53,218.14,090114,,,A*57
$GPGGA,070202.000,5333.2833,N,01032.9936,E,1,12,0.88,34.7,M,45.9,M,,*59
$GPRMC,070201.000,A,5333.2939,N,01033.0075,E,48.33,218.11,090114,,,A*54
$GPGGA,070211.000,5333.1895,N,01032.8700,E,1,13,0.74,35.2,M,45.9,M,,*58
$GPRMC,070210.000,A,5333.1995,N,01032.8831,E,46.32,218.04,090114,,,A*5B
$GPGGA,070221.000,5333.0974,N,01032.7477,E,1,13,0.74,34.8,M,45.9,M,,*53
$GPRMC,070220.000,A,5333.1061,N,01032.7593,E,40.41,218.02,090114,,,A*54
$GPGGA,070232.000,5333.0119,N,01032.6355,E,1,13,0.74,34.5,M,45.9,M,,*59
$GPRMC,070231.000,A,5333.0191,N,01032.6448,E,32.96,217.81,090114,,,A*56
$GPGGA,070245.000,5332.9244,N,01032.5182,E,1,13,0.74,34.7,M,45.9,M,,*53
$GPRMC,070244.000,A,5332.9311,N,01032.5272,E,30.81,218.28,090114,,,A*52
$GPGGA,070259.000,5332.8370,N,01032.4025,E,1,12,0.77,33.8,M,45.9,M,,*5E
$GPRMC,070258.000,A,5332.8435,N,01032.4105,E,29.36,216.92,090114,,,A*56
$GPGGA,070314.000,5332.7426,N,01032.2968,E,1,12,0.80,32.9,M,45.9,M,,*53
$GPRMC,070313.000,A,5332.7494,N,01032.3041,E,28.41,213.01,090114,,,A*54
$GPGGA,070327.000,5332.6516,N,01032.1972,E,1,12,0.88,32.0,M,45.9,M,,*59
$GPRMC,070326.000,A,5332.6586,N,01032.2049,E,30.51,213.46,090114,,,A*53
$GPGGA,070344.000,5332.5563,N,01032.0958,E,1,13,0.74,31.7,M,45.9,M,,*52
$GPRMC,070343.000,A,5332.5623,N,01032.1022,E,24.30,213.12,090114,,,A*52
$GPGGA,070356.000,5332.4603,N,01031.9891,E,1,11,0.82,31.4,M,45.9,M,,*53
$GPRMC,070355.000,A,5332.4692,N,01031.9993,E,38.50,214.21,090114,,,A*5A
$GPGGA,070407.000,5332.3683,N,01031.8684,E,1,9,1.81,32.7,M,45.9,M,,*6F
$GPRMC,070406.000,A,5332.3759,N,01031.8795,E,36.76,221.21,090114,,,A*5F
$GPGGA,070417.000,5332.2868,N,01031.7469,E,1,11,0.90,32.7,M,45.9,M,,*52
$GPRMC,070416.000,A,5332.2957,N,01031.7605,E,42.68,221.94,090114,,,A*5A
$GPGGA,070426.000,5332.2052,N,01031.6249,E,1,11,0.84,33.5,M,45.9,M,,*52
$GPRMC,070425.000,A,5332.2141,N,01031.6382,E,43.31,221.51,090114,,,A*5A
$GPGGA,070436.000,5332.1210,N,01031.4992,E,1,9,1.00,31.7,M,45.9,M,,*6F
$GPRMC,070435.000,A,5332.1290,N,01031.5111,E,38.80,221.34,090114,,,A*59
$GPGGA,070447.000,5332.0339,N,01031.3699,E,1,9,1.15,33.7,M,45.9,M,,*67
$GPRMC,070446.000,A,5332.0414,N,01031.3810,E,36.86,221.58,090114,,,A*5A
$GPGGA,070459.000,5331.9514,N,01031.2478,E,1,13,0.74,27.4,M,45.9,M,,*5C
$GPRMC,070458.000,A,5331.9581,N,01031.2575,E,32.42,221.36,090114,,,A*59
$GPGGA,070513.000,5331.8683,N,01031.1216,E,1,12,0.77,23.4,M,45.9,M,,*54
$GPRMC,070512.000,A,5331.8749,N,01031.1317,E,32.53,222.12,090114,,,A*55
$GPGGA,070525.000,5331.7849,N,01031.0009,E,1,9,1.04,21.3,M,45.9,M,,*61
$GPRMC,070524.000,A,5331.7920,N,01031.0112,E,33.20,220.46,090114,,,A*5E
$GPGGA,070537.000,5331.7005,N,01030.8758,E,1,12,0.83,23.1,M,45.9,M,,*5C
$GPRMC,070536.000,A,5331.7077,N,01030.8867,E,34.10,221.67,090114,,,A*52
$GPGGA,070548.000,5331.6170,N,01030.7509,E,1,12,0.83,24.1,M,45.9,M,,*58
$GPRMC,070547.000,A,5331.6248,N,01030.7625,E,37.20,221.59,090114,,,A*51
$GPGGA,070559.000,5331.5359,N,01030.6301,E,1,11,1.06,22.0,M,45.9,M,,*55
$GPRMC,070558.000,A,5331.5432,N,01030.6414,E,36.07,221.82,090114,,,A*54
$GPGGA,070611.000,5331.4538,N,01030.5087,E,1,12,0.81,23.5,M,45.9,M,,*5D
$GPRMC,070610.000,A,5331.4603,N,01030.5183,E,31.60,221.43,090114,,,A*59
$GPGGA,070624.000,5331.3708,N,01030.3859,E,1,11,0.85,26.5,M,45.9,M,,*52
$GPRMC,070623.000,A,5331.3770,N,01030.3953,E,30.63,221.63,090114,,,A*58
$GPGGA,070639.000,5331.2884,N,01030.2634,E,1,11,1.06,29.9,M,45.9,M,,*59
$GPRMC,070638.000,A,5331.2934,N,01030.2708,E,24.10,221.55,090114,,,A*58
$GPGGA,070654.000,5331.2076,N,01030.1428,E,1,12,0.81,32.6,M,45.9,M,,*53
$GPRMC,070653.000,A,5331.2138,N,01030.1524,E,29.71,221.33,090114,,,A*54
$GPGGA,070708.000,5331.1238,N,01030.0180,E,1,13,0.71,33.6,M,45.9,M,,*59
$GPRMC,070707.000,A,5331.1297,N,01030.0268,E,28.42,221.55,090114,,,A*5E
$GPGGA,070721.000,5331.0388,N,01029.8918,E,1,11,0.92,33.9,M,45.9,M,,*50
$GPRMC,070720.000,A,5331.0455,N,01029.9017,E,32.33,221.36,090114,,,A*51
$GPGGA,070736.000,5330.9555,N,01029.7685,E,1,12,0.81,35.2,M,45.9,M,,*50
$GPRMC,070735.000,A,5330.9600,N,01029.7754,E,23.35,221.36,090114,,,A*57
$GPGGA,070802.000,5330.8720,N,01029.6429,E,1,12,0.81,36.7,M,45.9,M,,*5A
$GPRMC,070801.000,A,5330.8756,N,01029.6484,E,18.58,222.39,090114,,,A*5C
$GPGGA,070829.000,5330.7907,N,01029.5227,E,1,12,0.81,38.0,M,45.9,M,,*55
$GPRMC,070828.000,A,5330.7932,N,01029.5264,E,12.71,221.44,090114,,,A*57
ping
ping
$GPGGA,070937.000,5330.7095,N,01029.4040,E,1,13,0.71,37.7,M,45.9,M,,*5D
$GPRMC,070936.000,A,5330.7137,N,01029.4073,E,14.65,188.73,090114,,,A*56
$GPGGA,070954.000,5330.6283,N,01029.2712,E,1,12,0.75,36.4,M,45.9,M,,*5D
$GPRMC,070953.000,A,5330.6334,N,01029.2804,E,26.28,227.46,090114,,,A*53
$GPGGA,071010.000,5330.5510,N,01029.1305,E,1,12,0.82,36.8,M,46.0,M,,*54
$GPRMC,071009.000,A,5330.5558,N,01029.1395,E,25.34,228.05,090114,,,A*5D
$GPGGA,071025.000,5330.4779,N,01028.9946,E,1,13,0.71,35.9,M,46.0,M,,*55
$GPRMC,071024.000,A,5330.4816,N,01029.0024,E,21.34,230.38,090114,,,A*5F
$GPGGA,071043.000,5330.4045,N,01028.8569,E,1,13,0.72,30.2,M,46.0,M,,*50
$GPRMC,071042.000,A,5330.4079,N,01028.8636,E,20.04,229.58,090114,,,A*5E
ping
$GPGGA,071120.000,5330.3250,N,01028.7179,E,1,12,0.77,31.9,M,46.0,M,,*51
$GPRMC,071119.000,A,5330.3303,N,01028.7264,E,25.43,223.45,090114,,,A*54
$GPGGA,071137.000,5330.2420,N,01028.6009,E,1,14,0.69,32.7,M,46.0,M,,*54
$GPRMC,071136.000,A,5330.2453,N,01028.6049,E,15.91,216.56,090114,,,A*5E
$GPGGA,071200.000,5330.1510,N,01028.5035,E,1,13,0.79,28.7,M,46.0,M,,*53
$GPRMC,071159.000,A,5330.1554,N,01028.5080,E,18.44,212.43,090114,,,A*51
ping
$GPGGA,071232.000,5330.0995,N,01028.3412,E,1,14,0.69,28.0,M,46.0,M,,*54
$GPRMC,071231.000,A,5330.0999,N,01028.3486,E,17.92,264.14,090114,,,A*53
ping
$GPGGA,071322.000,5330.0726,N,01028.1602,E,1,12,1.02,31.3,M,46.0,M,,*52
$GPRMC,071321.000,A,5330.0744,N,01028.1714,E,26.56,254.72,090114,,,A*5E
$GPGGA,071340.000,5330.0438,N,01027.9759,E,1,13,0.71,34.5,M,46.0,M,,*55
$GPRMC,071339.000,A,5330.0461,N,01027.9907,E,32.12,255.26,090114,,,A*5D
$GPGGA,071353.000,5330.0155,N,01027.7932,E,1,12,0.80,35.7,M,46.0,M,,*58
$GPRMC,071352.000,A,5330.0177,N,01027.8078,E,31.78,256.12,090114,,,A*59
$GPGGA,071405.000,5329.9866,N,01027.6113,E,1,13,0.71,35.8,M,46.0,M,,*5E
$GPRMC,071404.000,A,5329.9889,N,01027.6265,E,33.17,255.57,090114,,,A*5D
$GPGGA,071417.000,5329.9597,N,01027.4293,E,1,13,0.79,34.1,M,46.0,M,,*57
$GPRMC,071416.000,A,5329.9622,N,01027.4447,E,34.35,255.11,090114,,,A*50
$GPGGA,071428.000,5329.9288,N,01027.2449,E,1,14,0.69,37.2,M,46.0,M,,*53
$GPRMC,071427.000,A,5329.9315,N,01027.2622,E,38.98,255.23,090114,,,A*5E
$GPGGA,071439.000,5329.9000,N,01027.0637,E,1,14,0.69,41.0,M,46.0,M,,*5B
$GPRMC,071438.000,A,5329.9026,N,01027.0794,E,35.16,255.00,090114,,,A*57
$GPGGA,071450.000,5329.8711,N,01026.8848,E,1,14,0.69,44.1,M,46.0,M,,*59
$GPRMC,071449.000,A,5329.8739,N,01026.9027,E,39.12,255.45,090114,,,A*57
$GPGGA,071500.000,5329.8410,N,01026.6936,E,1,14,0.69,44.9,M,46.0,M,,*51
$GPRMC,071459.000,A,5329.8441,N,01026.7135,E,44.16,254.98,090114,,,A*59
$GPGGA,071509.000,5329.8123,N,01026.5118,E,1,14,0.69,46.7,M,46.0,M,,*56
$GPRMC,071508.000,A,5329.8155,N,01026.5323,E,45.05,254.98,090114,,,A*58
$GPGGA,071518.000,5329.7825,N,01026.3251,E,1,14,0.69,49.8,M,46.0,M,,*5E
$GPRMC,071517.000,A,5329.7856,N,01026.3453,E,45.00,255.20,090114,,,A*52
$GPGGA,071528.000,5329.7545,N,01026.1477,E,1,13,0.71,48.9,M,46.0,M,,*58
$GPRMC,071527.000,A,5329.7571,N,01026.1642,E,36.78,254.92,090114,,,A*5A
$GPGGA,071542.000,5329.7256,N,01025.9702,E,1,14,0.69,44.1,M,46.0,M,,*51
$GPRMC,071541.000,A,5329.7275,N,01025.9812,E,24.61,254.48,090114,,,A*55
$GPGGA,071556.000,5329.6969,N,01025.7926,E,1,12,0.81,40.2,M,46.0,M,,*53
$GPRMC,071555.000,A,5329.6990,N,01025.8053,E,28.47,254.38,090114,,,A*52
$GPGGA,071624.000,5329.6686,N,01025.6129,E,1,13,0.71,36.0,M,46.0,M,,*50
$GPRMC,071623.000,A,5329.6694,N,01025.6187,E,12.82,255.42,090114,,,A*51
ping
$GPGGA,071702.000,5329.6384,N,01025.4350,E,1,13,0.71,34.4,M,46.0,M,,*5A
$GPRMC,071701.000,A,5329.6402,N,01025.4466,E,24.18,254.48,090114,,,A*58
$GPGGA,071715.000,5329.6151,N,01025.2470,E,1,14,0.68,34.9,M,46.0,M,,*57
$GPRMC,071714.000,A,5329.6179,N,01025.2618,E,32.40,253.98,090114,,,A*58
$GPGGA,071729.000,5329.5733,N,01025.0707,E,1,14,0.69,35.1,M,46.0,M,,*50
$GPRMC,071728.000,A,5329.5763,N,01025.0832,E,27.76,248.94,090114,,,A*5A
$GPGGA,071740.000,5329.5323,N,01024.8987,E,1,13,0.74,36.3,M,46.0,M,,*5F
$GPRMC,071739.000,A,5329.5365,N,01024.9161,E,39.34,248.25,090114,,,A*5C
$GPGGA,071750.000,5329.4896,N,01024.7199,E,1,14,0.69,36.8,M,46.0,M,,*52
$GPRMC,071749.000,A,5329.4938,N,01024.7375,E,41.06,248.41,090114,,,A*5D
$GPGGA,071800.000,5329.4495,N,01024.5497,E,1,14,0.69,34.6,M,46.0,M,,*52
$GPRMC,071759.000,A,5329.4535,N,01024.5672,E,39.58,248.78,090114,,,A*53
$GPGGA,071810.000,5329.4066,N,01024.3670,E,1,12,1.02,33.9,M,46.0,M,,*54
$GPRMC,071809.000,A,5329.4109,N,01024.3852,E,42.51,248.46,090114,,,A*50
$GPGGA,071820.000,5329.3639,N,01024.1880,E,1,14,0.69,35.3,M,46.0,M,,*59
$GPRMC,071819.000,A,5329.3681,N,01024.2055,E,40.49,248.23,090114,,,A*57
$GPGGA,071830.000,5329.3366,N,01024.0012,E,1,14,0.69,35.6,M,46.0,M,,*50
$GPRMC,071829.000,A,5329.3385,N,01024.0216,E,44.51,261.19,090114,,,A*5D
$GPGGA,071840.000,5329.3191,N,01023.8078,E,1,14,0.69,36.2,M,46.0,M,,*59
$GPRMC,071839.000,A,5329.3208,N,01023.8260,E,39.90,261.63,090114,,,A*5C
$GPGGA,071851.000,5329.3014,N,01023.6127,E,1,14,0.69,38.6,M,46.0,M,,*5A
$GPRMC,071850.000,A,5329.3029,N,01023.6294,E,36.74,261.58,090114,,,A*5A
$GPGGA,071901.000,5329.2838,N,01023.4244,E,1,13,0.81,40.9,M,46.0,M,,*5C
$GPRMC,071900.000,A,5329.2856,N,01023.4452,E,44.67,261.36,090114,,,A*5E
$GPGGA,071910.000,5329.2818,N,01023.2226,E,1,14,0.69,43.1,M,46.0,M,,*56
$GPRMC,071909.000,A,5329.2815,N,01023.2451,E,47.92,271.42,090114,,,A*5E
$GPGGA,071919.000,5329.2853,N,01023.0295,E,1,13,0.74,48.2,M,46.0,M,,*59
$GPRMC,071918.000,A,5329.2850,N,01023.0494,E,43.44,271.54,090114,,,A*5C
$GPGGA,071931.000,5329.2923,N,01022.8454,E,1,14,0.69,50.4,M,46.0,M,,*53
$GPRMC,071930.000,A,5329.2915,N,01022.8590,E,29.01,275.95,090114,,,A*5E
$GPGGA,071944.000,5329.3027,N,01022.6561,E,1,12,0.75,49.0,M,46.0,M,,*53
$GPRMC,071943.000,A,5329.3019,N,01022.6698,E,29.99,275.92,090114,,,A*5D
$GPGGA,071958.000,5329.3125,N,01022.4755,E,1,13,0.74,46.5,M,46.0,M,,*50
$GPRMC,071957.000,A,5329.3118,N,01022.4893,E,29.50,275.77,090114,,,A*51
$GPGGA,072011.000,5329.3231,N,01022.2854,E,1,13,0.74,41.7,M,46.0,M,,*5C
$GPRMC,072010.000,A,5329.3222,N,01022.3001,E,31.87,276.00,090114,,,A*56
$GPGGA,072025.000,5329.3339,N,01022.0956,E,1,15,0.63,41.4,M,46.0,M,,*50
$GPRMC,072024.000,A,5329.3332,N,01022.1098,E,31.12,275.61,090114,,,A*5B
$GPGGA,072040.000,5329.3436,N,01021.9137,E,1,14,0.68,44.7,M,46.0,M,,*52
$GPRMC,072039.000,A,5329.3431,N,01021.9215,E,18.81,275.82,090114,,,A*53
$GPGGA,072108.000,5329.2608,N,01021.7827,E,1,15,0.63,52.3,M,46.0,M,,*5E
$GPRMC,072107.000,A,5329.2716,N,01021.7824,E,37.76,179.12,090114,,,A*5D
$GPGGA,072119.000,5329.1440,N,01021.7959,E,1,14,0.65,57.0,M,46.0,M,,*5A
$GPRMC,072118.000,A,5329.1549,N,01021.7927,E,39.05,170.94,090114,,,A*57
$GPGGA,072128.000,5329.0306,N,01021.8383,E,1,15,0.63,56.2,M,46.0,M,,*5A
$GPRMC,072127.000,A,5329.0438,N,01021.8334,E,48.74,167.60,090114,,,A*57
$GPGGA,072137.000,5328.9195,N,01021.8797,E,1,15,0.63,56.3,M,46.0,M,,*54
$GPRMC,072136.000,A,5328.9311,N,01021.8754,E,42.95,167.57,090114,,,A*50
$GPGGA,072149.000,5328.8114,N,01021.9201,E,1,14,0.65,60.0,M,46.0,M,,*5F
$GPRMC,072148.000,A,5328.8187,N,01021.9172,E,27.52,166.63,090114,,,A*58
$GPGGA,072204.000,5328.7009,N,01021.9587,E,1,14,0.68,61.8,M,46.0,M,,*5A
$GPRMC,072203.000,A,5328.7084,N,01021.9564,E,27.10,169.54,090114,,,A*57
$GPGGA,072219.000,5328.5949,N,01022.0190,E,1,11,0.80,57.3,M,46.0,M,,*5C
$GPRMC,072218.000,A,5328.6021,N,01022.0133,E,28.32,154.12,090114,,,A*5C
$GPGGA,072232.000,5328.4884,N,01022.0544,E,1,13,0.69,53.1,M,46.0,M,,*5A
$GPRMC,072231.000,A,5328.4973,N,01022.0544,E,31.73,177.83,090114,,,A*5B
$GPGGA,072245.000,5328.3798,N,01022.0191,E,1,13,0.68,49.4,M,46.0,M,,*5C
$GPRMC,072244.000,A,5328.3890,N,01022.0215,E,32.62,189.93,090114,,,A*52
$GPGGA,072256.000,5328.2685,N,01022.0307,E,1,14,0.65,45.5,M,46.0,M,,*58
$GPRMC,072255.000,A,5328.2796,N,01022.0287,E,39.94,173.81,090114,,,A*55
$GPGGA,072306.000,5328.1592,N,01022.0494,E,1,13,0.70,43.2,M,46.0,M,,*55
$GPRMC,072305.000,A,5328.1704,N,01022.0475,E,39.93,174.12,090114,,,A*58
$GPGGA,072317.000,5328.0422,N,01022.0687,E,1,14,0.65,43.1,M,46.0,M,,*5E
$GPRMC,072316.000,A,5328.0523,N,01022.0671,E,37.11,174.23,090114,,,A*5C
$GPGGA,072340.000,5327.9602,N,01021.9514,E,1,15,0.63,41.2,M,46.0,M,,*5F
$GPRMC,072339.000,A,5327.9614,N,01021.9652,E,28.65,261.95,090114,,,A*5C
$GPGGA,072352.000,5327.9439,N,01021.7639,E,1,15,0.63,42.1,M,46.0,M,,*54
$GPRMC,072351.000,A,5327.9451,N,01021.7775,E,30.05,261.77,090114,,,A*58
$GPGGA,072406.000,5327.9268,N,01021.5761,E,1,15,0.63,43.5,M,46.0,M,,*5B
$GPRMC,072405.000,A,5327.9277,N,01021.5881,E,26.76,261.82,090114,,,A*53
$GPGGA,072422.000,5327.9787,N,01021.4077,E,1,15,0.63,45.5,M,46.0,M,,*5E
$GPRMC,072421.000,A,5327.9734,N,01021.4173,E,28.22,315.17,090114,,,A*53
$GPGGA,072438.000,5328.0036,N,01021.2293,E,1,13,0.68,46.3,M,46.0,M,,*58
$GPRMC,072437.000,A,5328.0031,N,01021.2430,E,28.42,272.86,090114,,,A*5A
$GPGGA,072452.000,5328.0106,N,01021.0386,E,1,13,0.74,47.2,M,46.0,M,,*5C
$GPRMC,072451.000,A,5328.0104,N,01021.0499,E,24.90,273.99,090114,,,A*50
$GPGGA,072508.000,5328.0193,N,01020.8527,E,1,15,0.63,44.2,M,46.0,M,,*59
$GPRMC,072507.000,A,5328.0186,N,01020.8657,E,27.12,275.23,090114,,,A*5F
$GPGGA,072523.000,5328.0224,N,01020.6696,E,1,14,0.68,42.5,M,46.0,M,,*53
$GPRMC,072522.000,A,5328.0237,N,01020.6818,E,26.00,260.36,090114,,,A*58
$GPGGA,072535.000,5328.0021,N,01020.4884,E,1,14,0.65,40.5,M,46.0,M,,*53
$GPRMC,072534.000,A,5328.0038,N,01020.5040,E,34.44,259.55,090114,,,A*58
$GPGGA,072548.000,5327.9861,N,01020.2993,E,1,12,0.74,30.7,M,46.0,M,,*51
$GPRMC,072547.000,A,5327.9876,N,01020.3143,E,32.88,260.43,090114,,,A*57
$GPGGA,072601.000,5327.9266,N,01020.1437,E,1,9,1.07,19.0,M,46.0,M,,*61
$GPRMC,072600.000,A,5327.9336,N,01020.1519,E,30.82,218.30,090114,,,A*52
$GPGGA,072613.000,5327.8374,N,01020.0286,E,1,10,0.88,11.7,M,46.0,M,,*5D
$GPRMC,072612.000,A,5327.8445,N,01020.0393,E,32.92,222.34,090114,,,A*58
$GPGGA,072626.000,5327.7690,N,01019.8738,E,1,9,1.04,8.7,M,46.0,M,,*5C
$GPRMC,072625.000,A,5327.7740,N,01019.8858,E,30.40,234.89,090114,,,A*57
$GPGGA,072638.000,5327.6996,N,01019.7338,E,1,9,1.08,2.6,M,46.0,M,,*57
$GPRMC,072637.000,A,5327.7056,N,01019.7448,E,30.98,229.63,090114,,,A*5B
ping
$GPGGA,072710.000,5327.6107,N,01019.8420,E,1,10,0.99,1.2,M,46.0,M,,*6B
$GPRMC,072709.000,A,5327.6148,N,01019.8297,E,30.79,116.82,090114,,,A*5C
$GPGGA,072722.000,5327.5618,N,01020.0046,E,1,10,0.98,0.9,M,46.0,M,,*6D
$GPRMC,072721.000,A,5327.5657,N,01019.9894,E,35.56,114.33,090114,,,A*54
$GPGGA,072734.000,5327.5274,N,01020.1758,E,1,10,0.98,3.3,M,46.0,M,,*64
$GPRMC,072733.000,A,5327.5295,N,01020.1633,E,28.59,105.55,090114,,,A*5F
ping
$GPGGA,072819.000,5327.4486,N,01020.0346,E,1,12,0.77,4.1,M,46.0,M,,*62
$GPRMC,072818.000,A,5327.4531,N,01020.0491,E,34.85,241.65,090114,,,A*56
$GPGGA,072835.000,5327.4198,N,01019.8601,E,1,13,0.69,-1.0,M,46.0,M,,*45
$GPRMC,072834.000,A,5327.4198,N,01019.8630,E,8.28,264.14,090114,,,A*6D
$GPGGA,072902.000,5327.3187,N,01019.9274,E,1,13,0.70,0.1,M,46.0,M,,*6B
$GPRMC,072901.000,A,5327.3262,N,01019.9196,E,31.56,146.08,090114,,,A*5C
$GPGGA,072913.000,5327.2118,N,01019.9827,E,1,13,0.70,-2.9,M,46.0,M,,*47
$GPRMC,072912.000,A,5327.2227,N,01019.9776,E,40.03,164.10,090114,,,A*59
$GPGGA,072922.000,5327.1023,N,01020.0367,E,1,12,0.73,-4.7,M,46.0,M,,*49
$GPRMC,072921.000,A,5327.1149,N,01020.0299,E,47.29,162.61,090114,,,A*59
$GPGGA,072930.000,5326.9972,N,01020.0932,E,1,13,0.70,-5.6,M,46.0,M,,*46
$GPRMC,072929.000,A,5327.0107,N,01020.0861,E,50.61,162.90,090114,,,A*53
$GPGGA,072939.000,5326.8827,N,01020.1495,E,1,13,0.70,-5.2,M,46.0,M,,*4A
$GPRMC,072938.000,A,5326.8950,N,01020.1440,E,45.98,164.77,090114,,,A*53
$GPGGA,072948.000,5326.7685,N,01020.1938,E,1,9,0.95,-5.2,M,46.0,M,,*7F
$GPRMC,072947.000,A,5326.7815,N,01020.1894,E,47.25,167.54,090114,,,A*57
$GPGGA,072956.000,5326.6596,N,01020.2244,E,1,8,1.12,-4.7,M,46.0,M,,*78
$GPRMC,072955.000,A,5326.6737,N,01020.2209,E,50.69,171.19,090114,,,A*57
$GPGGA,073004.000,5326.5492,N,01020.2448,E,1,9,0.98,-3.7,M,46.0,M,,*7E
$GPRMC,073003.000,A,5326.5632,N,01020.2431,E,50.38,175.14,090114,,,A*5B
$GPGGA,073012.000,5326.4397,N,01020.2560,E,1,10,0.95,-2.7,M,46.1,M,,*44
$GPRMC,073011.000,A,5326.4531,N,01020.2550,E,48.56,177.39,090114,,,A*53
$GPGGA,073021.000,5326.3279,N,01020.2599,E,1,10,0.86,-2.0,M,46.1,M,,*41
$GPRMC,073020.000,A,5326.3399,N,01020.2597,E,43.25,179.49,090114,,,A*5F
$GPGGA,073031.000,5326.2101,N,01020.2564,E,1,12,0.77,-1.2,M,46.1,M,,*42
$GPRMC,073030.000,A,5326.2215,N,01020.2571,E,41.20,182.00,090114,,,A*5C
$GPGGA,073041.000,5326.0973,N,01020.2357,E,1,12,0.77,0.0,M,46.1,M,,*62
$GPRMC,073040.000,A,5326.1086,N,01020.2392,E,41.30,189.16,090114,,,A*56
$GPGGA,073053.000,5325.9842,N,01020.1887,E,1,13,0.70,0.5,M,46.1,M,,*6E
$GPRMC,073052.000,A,5325.9932,N,01020.1928,E,34.15,194.75,090114,,,A*5C
$GPGGA,073105.000,5325.8782,N,01020.1404,E,1,13,0.70,0.7,M,46.1,M,,*6B
$GPRMC,073104.000,A,5325.8880,N,01020.1452,E,36.42,195.43,090114,,,A*53
$GPGGA,073117.000,5325.7659,N,01020.1056,E,1,13,0.70,0.4,M,46.1,M,,*60
$GPRMC,073116.000,A,5325.7752,N,01020.1067,E,33.11,185.37,090114,,,A*5C
$GPGGA,073129.000,5325.6567,N,01020.1197,E,1,13,0.70,0.1,M,46.1,M,,*6B
$GPRMC,073128.000,A,5325.6654,N,01020.1168,E,31.64,170.28,090114,,,A*5D
$GPGGA,073142.000,5325.5448,N,01020.1606,E,1,13,0.70,-0.7,M,46.1,M,,*4D
$GPRMC,073141.000,A,5325.5529,N,01020.1576,E,29.97,167.60,090114,,,A*5C
$GPGGA,073155.000,5325.4350,N,01020.2010,E,1,13,0.70,-1.1,M,46.1,M,,*41
$GPRMC,073154.000,A,5325.4433,N,01020.1977,E,31.38,167.60,090114,,,A*52
$GPGGA,073207.000,5325.3290,N,01020.2407,E,1,13,0.70,-0.7,M,46.1,M,,*4A
$GPRMC,073206.000,A,5325.3381,N,01020.2373,E,33.15,167.80,090114,,,A*51
$GPGGA,073219.000,5325.2203,N,01020.2810,E,1,13,0.70,-1.3,M,46.1,M,,*41
$GPRMC,073218.000,A,5325.2291,N,01020.2784,E,32.46,169.12,090114,,,A*51
$GPGGA,073232.000,5325.1052,N,01020.2589,E,1,13,0.70,-2.7,M,46.1,M,,*47
$GPRMC,073231.000,A,5325.1133,N,01020.2641,E,31.44,198.47,090114,,,A*55
$GPGGA,073243.000,5325.0045,N,01020.1632,E,1,13,0.70,-5.3,M,46.1,M,,*45
$GPRMC,073242.000,A,5325.0148,N,01020.1732,E,42.38,210.05,090114,,,A*50
$GPGGA,073252.000,5324.9016,N,01020.0630,E,1,12,0.77,-7.9,M,46.1,M,,*46
$GPRMC,073251.000,A,5324.9141,N,01020.0746,E,50.46,209.26,090114,,,A*52
$GPGGA,073300.000,5324.7992,N,01019.9863,E,1,13,0.70,-8.2,M,46.1,M,,*42
$GPRMC,073259.000,A,5324.8120,N,01019.9937,E,49.34,200.20,090114,,,A*55
$GPGGA,073309.000,5324.6823,N,01019.9408,E,1,12,0.74,-8.7,M,46.1,M,,*40
$GPRMC,073308.000,A,5324.6953,N,01019.9440,E,47.62,189.10,090114,,,A*53
$GPGGA,073317.000,5324.5687,N,01019.9213,E,1,13,0.70,-8.6,M,46.1,M,,*44
$GPRMC,073316.000,A,5324.5836,N,01019.9231,E,52.77,184.35,090114,,,A*57
$GPGGA,073325.000,5324.4512,N,01019.9129,E,1,13,0.70,-8.1,M,46.1,M,,*46
$GPRMC,073324.000,A,5324.4659,N,01019.9136,E,52.56,181.88,090114,,,A*54
$GPGGA,073333.000,5324.3303,N,01019.9081,E,1,12,0.77,-7.2,M,46.1,M,,*49
$GPRMC,073332.000,A,5324.3455,N,01019.9084,E,54.82,180.90,090114,,,A*55
$GPGGA,073341.000,5324.2095,N,01019.9098,E,1,12,0.77,-6.5,M,46.1,M,,*4F
$GPRMC,073340.000,A,5324.2241,N,01019.9095,E,53.32,179.41,090114,,,A*54
$GPGGA,073349.000,5324.0919,N,01019.9150,E,1,13,0.70,-6.1,M,46.1,M,,*4F
$GPRMC,073348.000,A,5324.1068,N,01019.9140,E,53.33,178.11,090114,,,A*5A
$GPGGA,073357.000,5323.9698,N,01019.9241,E,1,12,0.77,-6.2,M,46.1,M,,*4E
$GPRMC,073356.000,A,5323.9850,N,01019.9227,E,54.82,176.73,090114,,,A*5C
$GPGGA,073405.000,5323.8476,N,01019.9402,E,1,12,0.77,-6.2,M,46.1,M,,*4C
$GPRMC,073404.000,A,5323.8632,N,01019.9374,E,56.14,174.00,090114,,,A*5B
$GPGGA,073412.000,5323.7397,N,01019.9690,E,1,12,0.78,-6.2,M,46.1,M,,*4B
$GPRMC,073411.000,A,5323.7546,N,01019.9639,E,55.30,169.35,090114,,,A*53
$GPGGA,073420.000,5323.6286,N,01020.0220,E,1,12,0.77,-7.6,M,46.1,M,,*4C
$GPRMC,073419.000,A,5323.6417,N,01020.0143,E,50.62,161.29,090114,,,A*51
$GPGGA,073428.000,5323.5191,N,01020.1045,E,1,12,0.77,-7.7,M,46.1,M,,*43
$GPRMC,073427.000,A,5323.5330,N,01020.0923,E,56.13,153.28,090114,,,A*53
$GPGGA,073436.000,5323.4167,N,01020.2146,E,1,12,0.77,-7.9,M,46.1,M,,*4B
$GPRMC,073435.000,A,5323.4286,N,01020.2002,E,52.62,144.35,090114,,,A*5D
$GPGGA,073444.000,5323.3316,N,01020.3317,E,1,11,0.88,-6.5,M,46.1,M,,*44
$GPRMC,073443.000,A,5323.3417,N,01020.3169,E,49.04,139.09,090114,,,A*57
$GPGGA,073453.000,5323.2462,N,01020.4610,E,1,11,0.80,-3.0,M,46.1,M,,*4A
$GPRMC,073452.000,A,5323.2554,N,01020.4469,E,44.92,137.91,090114,,,A*5F
$GPGGA,073502.000,5323.1566,N,01020.5886,E,1,12,0.77,-0.1,M,46.1,M,,*40
$GPRMC,073501.000,A,5323.1666,N,01020.5755,E,45.87,141.25,090114,,,A*5F
$GPGGA,073511.000,5323.0652,N,01020.6955,E,1,12,0.77,0.9,M,46.1,M,,*6E
$GPRMC,073510.000,A,5323.0755,N,01020.6849,E,43.87,147.42,090114,,,A*5F
$GPGGA,073520.000,5322.9651,N,01020.7817,E,1,12,0.77,-1.2,M,46.1,M,,*46
$GPRMC,073519.000,A,5322.9767,N,01020.7733,E,46.04,155.67,090114,,,A*56
$GPGGA,073529.000,5322.8602,N,01020.8425,E,1,12,0.77,-4.7,M,46.1,M,,*4A
$GPRMC,073528.000,A,5322.8720,N,01020.8369,E,43.51,163.52,090114,,,A*54
$GPGGA,073538.000,5322.7497,N,01020.8802,E,1,12,0.77,-6.5,M,46.1,M,,*42
$GPRMC,073537.000,A,5322.7626,N,01020.8771,E,46.08,171.08,090114,,,A*5A
$GPGGA,073547.000,5322.6379,N,01020.8912,E,1,11,0.77,-6.7,M,46.1,M,,*4D
$GPRMC,073546.000,A,5322.6496,N,01020.8913,E,42.73,179.66,090114,,,A*56
$GPGGA,073557.000,5322.5220,N,01020.8776,E,1,11,0.78,-6.3,M,46.1,M,,*45
$GPRMC,073556.000,A,5322.5345,N,01020.8799,E,44.44,185.66,090114,,,A*50
$GPGGA,073606.000,5322.4062,N,01020.8521,E,1,11,0.84,-6.0,M,46.1,M,,*47
$GPRMC,073605.000,A,5322.4188,N,01020.8551,E,46.17,187.38,090114,,,A*5C
$GPGGA,073615.000,5322.2995,N,01020.8273,E,1,11,0.80,-5.9,M,46.1,M,,*4C
$GPRMC,073614.000,A,5322.3112,N,01020.8299,E,42.20,188.19,090114,,,A*57
$GPGGA,073624.000,5322.1887,N,01020.8001,E,1,12,0.77,-5.4,M,46.1,M,,*4E
$GPRMC,073623.000,A,5322.2016,N,01020.8032,E,46.41,188.44,090114,,,A*5F
$GPGGA,073633.000,5322.0757,N,01020.7707,E,1,11,0.83,-4.6,M,46.1,M,,*4E
$GPRMC,073632.000,A,5322.0885,N,01020.7739,E,46.39,188.72,090114,,,A*56
$GPGGA,073642.000,5321.9640,N,01020.7411,E,1,10,0.90,-3.5,M,46.1,M,,*46
$GPRMC,073641.000,A,5321.9764,N,01020.7446,E,45.02,189.04,090114,,,A*58
$GPGGA,073651.000,5321.8500,N,01020.7092,E,1,12,0.77,-2.8,M,46.1,M,,*4A
$GPRMC,073650.000,A,5321.8627,N,01020.7130,E,46.52,189.88,090114,,,A*59
$GPGGA,073700.000,5321.7352,N,01020.6740,E,1,12,0.77,-1.9,M,46.1,M,,*4A
$GPRMC,073659.000,A,5321.7477,N,01020.6780,E,45.67,190.23,090114,,,A*58
$GPGGA,073709.000,5321.6224,N,01020.6386,E,1,12,0.77,-1.0,M,46.1,M,,*45
$GPRMC,073708.000,A,5321.6349,N,01020.6426,E,45.93,190.71,090114,,,A*55
$GPGGA,073719.000,5321.5151,N,01020.6018,E,1,12,0.77,0.1,M,46.1,M,,*6F
$GPRMC,073718.000,A,5321.5247,N,01020.6053,E,35.84,192.21,090114,,,A*58
$GPGGA,073730.000,5321.4056,N,01020.5494,E,1,12,0.77,1.7,M,46.1,M,,*67
$GPRMC,073729.000,A,5321.4171,N,01020.5559,E,42.88,198.21,090114,,,A*57
$GPGGA,073738.000,5321.3049,N,01020.4842,E,1,12,0.77,1.5,M,46.1,M,,*62
$GPRMC,073737.000,A,5321.3178,N,01020.4932,E,50.19,202.43,090114,,,A*59
$GPGGA,073746.000,5321.2045,N,01020.4133,E,1,12,0.77,-1.0,M,46.1,M,,*41
$GPRMC,073745.000,A,5321.2168,N,01020.4217,E,48.08,202.53,090114,,,A*58
$GPGGA,073755.000,5321.0980,N,01020.3447,E,1,11,0.84,-3.3,M,46.1,M,,*4E
$GPRMC,073754.000,A,5321.1094,N,01020.3517,E,43.70,200.38,090114,,,A*52
$GPGGA,073804.000,5320.9902,N,01020.2838,E,1,11,0.81,-5.2,M,46.1,M,,*40
$GPRMC,073803.000,A,5321.0029,N,01020.2906,E,47.84,197.98,090114,,,A*5D
$GPGGA,073813.000,5320.8756,N,01020.2256,E,1,11,0.97,-6.4,M,46.1,M,,*48
$GPRMC,073812.000,A,5320.8885,N,01020.2316,E,48.06,195.54,090114,,,A*56
$GPGGA,073821.000,5320.7689,N,01020.1813,E,1,12,0.77,-5.4,M,46.1,M,,*43
$GPRMC,073820.000,A,5320.7825,N,01020.1865,E,50.42,193.29,090114,,,A*5B
$GPGGA,073830.000,5320.6531,N,01020.1431,E,1,11,0.84,-5.5,M,46.1,M,,*40
$GPRMC,073829.000,A,5320.6654,N,01020.1466,E,45.49,190.20,090114,,,A*51
$GPGGA,073839.000,5320.5424,N,01020.1128,E,1,12,0.77,-4.4,M,46.1,M,,*4D
$GPRMC,073838.000,A,5320.5548,N,01020.1160,E,45.13,188.28,090114,,,A*51
$GPGGA,073848.000,5320.4265,N,01020.0906,E,1,12,0.77,-1.4,M,46.1,M,,*49
$GPRMC,073847.000,A,5320.4395,N,01020.0926,E,47.27,185.65,090114,,,A*54
$GPGGA,073857.000,5320.3151,N,01020.0768,E,1,12,0.77,0.3,M,46.1,M,,*69
$GPRMC,073856.000,A,5320.3276,N,01020.0780,E,44.96,183.38,090114,,,A*5A
$GPGGA,073906.000,5320.1999,N,01020.0716,E,1,12,0.77,2.4,M,46.2,M,,*6D
$GPRMC,073905.000,A,5320.2121,N,01020.0716,E,44.31,181.02,090114,,,A*54
$GPGGA,073916.000,5320.0848,N,01020.0749,E,1,12,0.77,1.1,M,46.2,M,,*6C
$GPRMC,073915.000,A,5320.0965,N,01020.0743,E,41.37,178.64,090114,,,A*5A
$GPGGA,073925.000,5319.9674,N,01020.0850,E,1,12,0.77,-2.2,M,46.2,M,,*44
$GPRMC,073924.000,A,5319.9809,N,01020.0836,E,48.57,176.52,090114,,,A*59
$GPGGA,073933.000,5319.8578,N,01020.1017,E,1,12,0.77,-4.1,M,46.2,M,,*42
$GPRMC,073932.000,A,5319.8714,N,01020.0982,E,49.04,172.61,090114,,,A*51
$GPGGA,073941.000,5319.7510,N,01020.1532,E,1,10,1.04,-4.3,M,46.2,M,,*41
$GPRMC,073940.000,A,5319.7640,N,01020.1447,E,50.24,159.78,090114,,,A*55
$GPGGA,073949.000,5319.6453,N,01020.2440,E,1,12,0.77,-3.9,M,46.2,M,,*43
$GPRMC,073948.000,A,5319.6586,N,01020.2317,E,54.66,151.29,090114,,,A*5A
$GPGGA,073957.000,5319.5403,N,01020.3378,E,1,12,0.77,-3.6,M,46.2,M,,*48
$GPRMC,073956.000,A,5319.5531,N,01020.3273,E,52.23,153.49,090114,,,A*5B
$GPGGA,074005.000,5319.4343,N,01020.4053,E,1,12,0.77,-4.0,M,46.2,M,,*4F
$GPRMC,074004.000,A,5319.4479,N,01020.3987,E,51.64,162.86,090114,,,A*5F
$GPGGA,074013.000,5319.3195,N,01020.4411,E,1,11,0.78,-5.2,M,46.2,M,,*4B
$GPRMC,074012.000,A,5319.3344,N,01020.4385,E,53.64,173.07,090114,,,A*52
$GPGGA,074020.000,5319.2119,N,01020.4420,E,1,11,0.78,-4.8,M,46.2,M,,*47
$GPRMC,074019.000,A,5319.2274,N,01020.4440,E,55.43,182.58,090114,,,A*53
$GPGGA,074027.000,5319.1012,N,01020.4111,E,1,12,0.77,-4.5,M,46.2,M,,*4F
$GPRMC,074026.000,A,5319.1169,N,01020.4175,E,57.93,192.39,090114,,,A*59
$GPGGA,074034.000,5318.9937,N,01020.3524,E,1,11,0.98,-4.2,M,46.2,M,,*4A
$GPRMC,074033.000,A,5319.0087,N,01020.3614,E,57.67,199.36,090114,,,A*55
$GPGGA,074042.000,5318.8811,N,01020.2805,E,1,12,0.77,-4.0,M,46.2,M,,*40
$GPRMC,074041.000,A,5318.8945,N,01020.2896,E,52.30,201.65,090114,,,A*58
$GPGGA,074050.000,5318.7762,N,01020.2086,E,1,12,0.77,-3.6,M,46.2,M,,*45
$GPRMC,074049.000,A,5318.7891,N,01020.2177,E,50.38,202.31,090114,,,A*59
$GPGGA,074058.000,5318.6772,N,01020.1357,E,1,12,0.77,-2.6,M,46.2,M,,*40
$GPRMC,074057.000,A,5318.6888,N,01020.1443,E,46.53,203.94,090114,,,A*5A
$GPGGA,074108.000,5318.5717,N,01020.0540,E,1,12,0.77,-1.0,M,46.2,M,,*40
$GPRMC,074107.000,A,5318.5820,N,01020.0622,E,41.24,204.93,090114,,,A*5C
$GPGGA,074118.000,5318.4658,N,01019.9682,E,1,12,0.77,0.8,M,46.2,M,,*60
$GPRMC,074117.000,A,5318.4753,N,01019.9759,E,39.48,206.56,090114,,,A*57
$GPGGA,074131.000,5318.3872,N,01019.8362,E,1,12,0.77,1.1,M,46.2,M,,*68
$GPRMC,074130.000,A,5318.3886,N,01019.8504,E,30.82,255.69,090114,,,A*5C
$GPGGA,074145.000,5318.4689,N,01019.7105,E,1,12,0.77,-1.8,M,46.2,M,,*4E
$GPRMC,074144.000,A,5318.4597,N,01019.7086,E,32.70,1.44,090114,,,A*56
$GPGGA,074203.000,5318.4567,N,01019.8932,E,1,11,0.86,-2.9,M,46.2,M,,*40
$GPRMC,074202.000,A,5318.4658,N,01019.8787,E,42.73,136.15,090114,,,A*5B
$GPGGA,074211.000,5318.3693,N,01020.0291,E,1,12,0.77,-2.4,M,46.2,M,,*4C
$GPRMC,074210.000,A,5318.3816,N,01020.0109,E,57.68,138.02,090114,,,A*5F
$GPGGA,074218.000,5318.2805,N,01020.1618,E,1,11,0.83,-1.7,M,46.2,M,,*49
$GPRMC,074217.000,A,5318.2932,N,01020.1426,E,60.84,138.31,090114,,,A*51
$GPGGA,074225.000,5318.1909,N,01020.3030,E,1,11,0.84,-1.9,M,46.2,M,,*4E
$GPRMC,074224.000,A,5318.2035,N,01020.2821,E,64.09,135.61,090114,,,A*5E
$GPGGA,074232.000,5318.1063,N,01020.4555,E,1,11,0.80,-1.7,M,46.2,M,,*46
$GPRMC,074231.000,A,5318.1178,N,01020.4333,E,63.35,131.30,090114,,,A*57
$GPGGA,074239.000,5318.0331,N,01020.6120,E,1,11,0.83,-1.3,M,46.2,M,,*4B
$GPRMC,074238.000,A,5318.0429,N,01020.5892,E,60.59,126.21,090114,,,A*50
$GPGGA,074246.000,5317.9722,N,01020.7645,E,1,12,0.77,-1.0,M,46.2,M,,*4D
$GPRMC,074245.000,A,5317.9797,N,01020.7444,E,52.55,122.27,090114,,,A*50
$GPGGA,074254.000,5317.9169,N,01020.9209,E,1,12,0.77,-0.9,M,46.2,M,,*4D
$GPRMC,074253.000,A,5317.9236,N,01020.9013,E,48.46,120.04,090114,,,A*5B
$GPGGA,074301.000,5317.8654,N,01021.0795,E,1,12,0.77,-0.8,M,46.2,M,,*4D
$GPRMC,074300.000,A,5317.8737,N,01021.0550,E,60.36,119.53,090114,,,A*56
$GPGGA,074308.000,5317.8055,N,01021.2590,E,1,12,0.77,-0.5,M,46.2,M,,*4B
$GPRMC,074307.000,A,5317.8142,N,01021.2325,E,65.04,119.59,090114,,,A*5D
$GPGGA,074314.000,5317.7515,N,01021.4201,E,1,11,0.84,0.0,M,46.2,M,,*66
$GPRMC,074313.000,A,5317.7607,N,01021.3927,E,67.21,119.36,090114,,,A*54
$GPGGA,074320.000,5317.6941,N,01021.5914,E,1,12,0.77,0.7,M,46.2,M,,*6B
$GPRMC,074319.000,A,5317.7037,N,01021.5622,E,71.52,119.06,090114,,,A*57
$GPGGA,074326.000,5317.6346,N,01021.7674,E,1,11,0.84,1.4,M,46.2,M,,*66
$GPRMC,074325.000,A,5317.6448,N,01021.7383,E,73.06,119.51,090114,,,A*58
$GPGGA,074332.000,5317.5772,N,01021.9369,E,1,10,1.04,2.2,M,46.2,M,,*69
$GPRMC,074331.000,A,5317.5867,N,01021.9090,E,69.36,119.37,090114,,,A*58
$GPGGA,074338.000,5317.5222,N,01022.1020,E,1,10,1.04,2.9,M,46.2,M,,*6D
$GPRMC,074337.000,A,5317.5311,N,01022.0754,E,66.23,119.28,090114,,,A*54
$GPGGA,074345.000,5317.4605,N,01022.2853,E,1,12,0.77,4.0,M,46.2,M,,*60
$GPRMC,074344.000,A,5317.4694,N,01022.2586,E,65.37,119.92,090114,,,A*51
$GPGGA,074351.000,5317.4032,N,01022.4471,E,1,12,0.77,5.4,M,46.2,M,,*68
$GPRMC,074350.000,A,5317.4128,N,01022.4200,E,68.09,120.88,090114,,,A*5A
$GPGGA,074357.000,5317.3434,N,01022.5998,E,1,11,0.83,6.9,M,46.2,M,,*66
$GPRMC,074356.000,A,5317.3535,N,01022.5757,E,63.72,123.98,090114,,,A*50
$GPGGA,074404.000,5317.2703,N,01022.7685,E,1,12,0.77,7.2,M,46.2,M,,*62
$GPRMC,074403.000,A,5317.2812,N,01022.7451,E,64.34,126.67,090114,,,A*59
$GPGGA,074411.000,5317.1946,N,01022.9221,E,1,11,0.84,7.8,M,46.2,M,,*6B
$GPRMC,074410.000,A,5317.2054,N,01022.9014,E,59.48,130.31,090114,,,A*5B
$GPGGA,074418.000,5317.1158,N,01023.0665,E,1,10,0.86,7.6,M,46.2,M,,*64
$GPRMC,074417.000,A,5317.1275,N,01023.0455,E,60.88,131.80,090114,,,A*5A
$GPGGA,074425.000,5317.0339,N,01023.2154,E,1,10,0.91,7.0,M,46.2,M,,*69
$GPRMC,074424.000,A,5317.0454,N,01023.1945,E,61.69,132.45,090114,,,A*57
$GPGGA,074432.000,5316.9547,N,01023.3651,E,1,9,1.00,7.9,M,46.2,M,,*53
$GPRMC,074431.000,A,5316.9661,N,01023.3428,E,63.13,130.52,090114,,,A*50
$GPGGA,074438.000,5316.8864,N,01023.5060,E,1,11,0.84,7.3,M,46.2,M,,*68
$GPRMC,074437.000,A,5316.8978,N,01023.4815,E,66.31,128.01,090114,,,A*5F
$GPGGA,074444.000,5316.8199,N,01023.6583,E,1,11,0.84,8.2,M,46.2,M,,*6D
$GPRMC,074443.000,A,5316.8305,N,01023.6330,E,67.45,125.08,090114,,,A*54
$GPGGA,074450.000,5316.7594,N,01023.8090,E,1,11,0.84,9.8,M,46.2,M,,*6C
$GPRMC,074449.000,A,5316.7693,N,01023.7836,E,65.19,123.33,090114,,,A*52
$GPGGA,074457.000,5316.6929,N,01023.9820,E,1,12,0.77,9.6,M,46.2,M,,*63
$GPRMC,074456.000,A,5316.7019,N,01023.9581,E,61.48,122.17,090114,,,A*50
$GPGGA,074504.000,5316.6353,N,01024.1411,E,1,11,0.84,7.4,M,46.2,M,,*61
$GPRMC,074503.000,A,5316.6428,N,01024.1199,E,54.14,120.65,090114,,,A*5C
$GPGGA,074512.000,5316.5793,N,01024.3049,E,1,10,0.92,5.3,M,46.2,M,,*65
$GPRMC,074511.000,A,5316.5861,N,01024.2845,E,50.48,119.41,090114,,,A*57
$GPGGA,074520.000,5316.5290,N,01024.4645,E,1,11,0.84,2.7,M,46.2,M,,*6A
$GPRMC,074519.000,A,5316.5349,N,01024.4449,E,47.60,116.90,090114,,,A*57
$GPGGA,074529.000,5316.4808,N,01024.6429,E,1,10,1.04,1.3,M,46.2,M,,*6C
$GPRMC,074528.000,A,5316.4857,N,01024.6231,E,46.60,112.71,090114,,,A*51
$GPGGA,074538.000,5316.4412,N,01024.8140,E,1,12,0.77,3.1,M,46.2,M,,*68
$GPRMC,074537.000,A,5316.4455,N,01024.7951,E,43.55,111.08,090114,,,A*53
$GPGGA,074547.000,5316.4013,N,01025.0026,E,1,12,0.77,5.3,M,46.2,M,,*69
$GPRMC,074546.000,A,5316.4058,N,01024.9806,E,50.26,109.50,090114,,,A*53
$GPGGA,074556.000,5316.3620,N,01025.1863,E,1,11,0.80,5.1,M,46.2,M,,*69
$GPRMC,074555.000,A,5316.3668,N,01025.1663,E,46.16,110.33,090114,,,A*5E
$GPGGA,074605.000,5316.3007,N,01025.3486,E,1,9,1.10,3.8,M,46.2,M,,*54
$GPRMC,074604.000,A,5316.3091,N,01025.3326,E,45.52,130.20,090114,,,A*5C
$GPGGA,074614.000,5316.2126,N,01025.4655,E,1,10,0.92,4.1,M,46.2,M,,*61
$GPRMC,074613.000,A,5316.2223,N,01025.4538,E,43.26,144.83,090114,,,A*51
$GPGGA,074624.000,5316.1315,N,01025.6064,E,1,12,0.77,5.2,M,46.2,M,,*6E
$GPRMC,074623.000,A,5316.1385,N,01025.5899,E,43.41,125.81,090114,,,A*5F
$GPGGA,074634.000,5316.0876,N,01025.7932,E,1,10,0.86,4.1,M,46.2,M,,*65
$GPRMC,074633.000,A,5316.0912,N,01025.7721,E,47.03,103.75,090114,,,A*58
$GPGGA,074643.000,5316.0804,N,01025.9858,E,1,9,0.95,3.2,M,46.2,M,,*5D
$GPRMC,074642.000,A,5316.0797,N,01025.9644,E,45.91,87.81,090114,,,A*6E
$GPGGA,074651.000,5316.0760,N,01026.1655,E,1,9,1.07,2.9,M,46.2,M,,*5B
$GPRMC,074650.000,A,5316.0784,N,01026.1428,E,49.91,99.38,090114,,,A*6D
$GPGGA,074700.000,5316.0265,N,01026.3487,E,1,8,1.19,4.3,M,46.2,M,,*53
$GPRMC,074659.000,A,5316.0344,N,01026.3297,E,49.37,122.60,090114,,,A*5C
$GPGGA,074708.000,5315.9482,N,01026.4733,E,1,10,0.86,8.0,M,46.2,M,,*64
$GPRMC,074707.000,A,5315.9589,N,01026.4611,E,47.56,144.09,090114,,,A*50
$GPGGA,074717.000,5315.8367,N,01026.5436,E,1,10,0.86,12.6,M,46.2,M,,*5D
$GPRMC,074716.000,A,5315.8495,N,01026.5398,E,46.25,165.82,090114,,,A*5D
$GPGGA,074726.000,5315.7213,N,01026.5462,E,1,11,0.85,17.6,M,46.2,M,,*54
$GPRMC,074725.000,A,5315.7338,N,01026.5471,E,45.32,182.37,090114,,,A*50
$GPGGA,074735.000,5315.6030,N,01026.5396,E,1,10,0.85,26.7,M,46.2,M,,*5A
$GPRMC,074734.000,A,5315.6175,N,01026.5400,E,50.29,180.62,090114,,,A*50
$GPGGA,074743.000,5315.4869,N,01026.5475,E,1,9,0.91,26.6,M,46.2,M,,*6B
$GPRMC,074742.000,A,5315.5015,N,01026.5456,E,52.48,175.74,090114,,,A*5E
$GPGGA,074751.000,5315.3729,N,01026.5711,E,1,11,0.84,26.5,M,46.2,M,,*5B
$GPRMC,074750.000,A,5315.3865,N,01026.5670,E,49.85,171.29,090114,,,A*55
$GPGGA,074759.000,5315.2598,N,01026.6085,E,1,10,0.81,24.3,M,46.2,M,,*53
$GPRMC,074758.000,A,5315.2747,N,01026.6028,E,53.45,167.87,090114,,,A*5F
$GPGGA,074806.000,5315.1527,N,01026.6568,E,1,11,0.80,22.9,M,46.2,M,,*5B
$GPRMC,074805.000,A,5315.1679,N,01026.6491,E,57.25,163.74,090114,,,A*5B
$GPGGA,074813.000,5315.0483,N,01026.7228,E,1,9,0.92,23.2,M,46.2,M,,*63
$GPRMC,074812.000,A,5315.0629,N,01026.7117,E,58.38,156.63,090114,,,A*50
$GPGGA,074820.000,5314.9513,N,01026.8178,E,1,8,1.36,23.7,M,46.2,M,,*61
$GPRMC,074819.000,A,5314.9641,N,01026.8025,E,57.17,145.28,090114,,,A*5D
$GPGGA,074828.000,5314.8630,N,01026.9548,E,1,9,1.08,28.2,M,46.2,M,,*6E
$GPRMC,074827.000,A,5314.8731,N,01026.9359,E,54.90,132.90,090114,,,A*51
$GPGGA,074836.000,5314.7839,N,01027.1072,E,1,7,1.53,29.7,M,46.2,M,,*68
$GPRMC,074835.000,A,5314.7944,N,01027.0889,E,54.28,133.41,090114,,,A*51
$GPGGA,074844.000,5314.6901,N,01027.2362,E,1,8,1.37,29.7,M,46.2,M,,*6A
$GPRMC,074843.000,A,5314.7022,N,01027.2226,E,53.69,145.87,090114,,,A*5D
$GPGGA,074853.000,5314.5836,N,01027.3194,E,1,8,1.37,27.5,M,46.2,M,,*6C
$GPRMC,074852.000,A,5314.5947,N,01027.3137,E,43.19,161.99,090114,,,A*58
$GPGGA,074906.000,5314.4776,N,01027.3576,E,1,10,0.85,24.2,M,46.2,M,,*5A
$GPRMC,074905.000,A,5314.4834,N,01027.3567,E,22.32,171.64,090114,,,A*53
ping
$GPGGA,075003.000,5314.4818,N,01027.5502,E,1,11,0.80,40.7,M,46.2,M,,*56
$GPRMC,075002.000,A,5314.4849,N,01027.5342,E,35.69,107.71,090114,,,A*5C
$GPGGA,075014.000,5314.4485,N,01027.7285,E,1,11,0.80,41.8,M,46.2,M,,*5C
$GPRMC,075013.000,A,5314.4513,N,01027.7131,E,34.61,107.08,090114,,,A*5D
$GPGGA,075025.000,5314.4113,N,01027.9157,E,1,10,0.87,41.8,M,46.2,M,,*50
$GPRMC,075024.000,A,5314.4151,N,01027.8983,E,40.24,109.25,090114,,,A*56
$GPGGA,075035.000,5314.3683,N,01028.1023,E,1,10,0.85,42.9,M,46.2,M,,*5D
$GPRMC,075034.000,A,5314.3727,N,01028.0827,E,44.97,110.53,090114,,,A*5A
$GPGGA,075044.000,5314.3256,N,01028.2864,E,1,11,0.79,46.6,M,46.2,M,,*56
$GPRMC,075043.000,A,5314.3307,N,01028.2647,E,50.23,111.36,090114,,,A*5E
$GPGGA,075052.000,5314.2854,N,01028.4574,E,1,10,0.92,48.9,M,46.2,M,,*57
$GPRMC,075051.000,A,5314.2902,N,01028.4358,E,49.89,111.14,090114,,,A*56
$GPGGA,075101.000,5314.2425,N,01028.6400,E,1,11,0.80,46.9,M,46.2,M,,*56
$GPRMC,075100.000,A,5314.2473,N,01028.6198,E,46.59,111.28,090114,,,A*59
$GPGGA,075109.000,5314.2035,N,01028.8118,E,1,10,0.85,44.5,M,46.2,M,,*53
$GPRMC,075108.000,A,5314.2088,N,01028.7893,E,52.08,112.27,090114,,,A*5F
$GPGGA,075117.000,5314.1615,N,01028.9940,E,1,10,0.85,41.3,M,46.2,M,,*5C
$GPRMC,075116.000,A,5314.1667,N,01028.9719,E,51.79,111.57,090114,,,A*56
$GPGGA,075126.000,5314.1178,N,01029.1811,E,1,10,0.87,40.5,M,46.2,M,,*5B
$GPRMC,075125.000,A,5314.1227,N,01029.1598,E,49.78,111.12,090114,,,A*5D
$GPGGA,075135.000,5314.0735,N,01029.3687,E,1,11,0.80,41.6,M,46.2,M,,*50
$GPRMC,075134.000,A,5314.0786,N,01029.3470,E,50.25,110.65,090114,,,A*56
$GPGGA,075143.000,5314.0387,N,01029.5425,E,1,10,0.87,41.6,M,46.2,M,,*56
$GPRMC,075142.000,A,5314.0425,N,01029.5217,E,47.50,107.15,090114,,,A*59
$GPGGA,075153.000,5314.0074,N,01029.7235,E,1,10,0.87,44.1,M,46.2,M,,*5F
$GPRMC,075152.000,A,5314.0106,N,01029.7051,E,40.48,105.74,090114,,,A*55
$GPGGA,075202.000,5313.9772,N,01029.8991,E,1,10,0.87,48.1,M,46.2,M,,*51
$GPRMC,075201.000,A,5313.9799,N,01029.8829,E,39.84,105.51,090114,,,A*5F
$DeviceName=pironex_auto
$Software=0.1.3
$Hardware=1
$LastValidPosition=
$IMEI=359193030849087
$LocalIP=10.70.85.59
$CmdVersion=2
$SUCCESS
$<end>
$GPGGA,075638.000,5313.9683,N,01029.9429,E,1,4,1.22,104.5,M,46.2,M,,*5A
$GPRMC,075637.000,V,,,,,0.03,0.00,090114,,,N*43
$GPGGA,075639.000,,,,,0,12,,,M,,M,,*75
$GPRMC,075638.000,A,5313.9683,N,01029.9429,E,0.12,0.00,090114,,,A*63
$GPGGA,075640.000,5314.0164,N,01029.9670,E,1,11,0.82,116.5,M,46.2,M,,*67
$GPRMC,075639.000,V,,,,,50.82,22.53,090114,,,N*47
ping
$GPGGA,075720.000,5313.9373,N,01030.0999,E,1,10,0.88,141.6,M,46.2,M,,*69
$GPRMC,075719.000,A,5313.9405,N,01030.0835,E,36.12,106.32,090114,,,A*5E
$GPGGA,075729.000,5313.9066,N,01030.2742,E,1,10,0.88,115.3,M,46.2,M,,*69
$GPRMC,075728.000,A,5313.9100,N,01030.2537,E,45.11,106.23,090114,,,A*56
$GPGGA,075738.000,5313.8746,N,01030.4643,E,1,10,0.86,100.9,M,46.2,M,,*6B
$GPRMC,075737.000,A,5313.8784,N,01030.4421,E,49.10,106.17,090114,,,A*59
$GPGGA,075746.000,5313.8463,N,01030.6393,E,1,10,0.88,91.5,M,46.2,M,,*57
$GPRMC,075745.000,A,5313.8497,N,01030.6187,E,46.86,106.05,090114,,,A*55
$GPGGA,075758.000,5313.8170,N,01030.8125,E,1,9,1.13,83.9,M,46.2,M,,*6A
$GPRMC,075757.000,A,5313.8184,N,01030.8050,E,19.58,105.98,090114,,,A*5A
$GPGGA,075823.000,5313.7870,N,01030.9901,E,1,10,0.88,79.3,M,46.2,M,,*54
$GPRMC,075822.000,A,5313.7890,N,01030.9773,E,29.02,105.14,090114,,,A*5B
ping
ping
$GPGGA,075941.000,5313.7591,N,01031.1652,E,1,10,0.86,80.6,M,46.2,M,,*5E
$GPRMC,075940.000,A,5313.7594,N,01031.1635,E,2.62,107.26,090114,,,A*61
ping
ping
$DeviceName=pironex_auto
$Software=0.1.3
$Hardware=1
$LastValidPosition=
$IMEI=359193030849087
$LocalIP=10.39.75.215
$CmdVersion=2
$SUCCESS
$<end>
$DeviceName=pironex_auto
$Software=0.1.3
$Hardware=1
$LastValidPosition=
$IMEI=359193030849087
$LocalIP=10.48.198.28
$CmdVersion=2
$SUCCESS
$<end>
ping
$GPGGA,112558.000,5313.7765,N,01031.1890,E,1,4,6.64,73.5,M,46.2,M,,*63
$GPRMC,112557.000,V,,,,,0.12,339.67,090114,,,N*4E
ping
$GPGGA,112631.000,5313.7865,N,01031.0088,E,1,10,0.92,49.9,M,46.2,M,,*5F
$GPRMC,112630.000,A,5313.7842,N,01031.0221,E,29.38,285.59,090114,,,A*58
$GPGGA,112659.000,5313.8191,N,01030.8370,E,1,10,0.83,47.6,M,46.2,M,,*50
$GPRMC,112658.000,A,5313.8198,N,01030.8436,E,13.75,257.99,090114,,,A*5D
$GPGGA,112712.000,5313.8461,N,01030.6531,E,1,10,0.83,44.4,M,46.2,M,,*58
$GPRMC,112711.000,A,5313.8428,N,01030.6722,E,41.79,285.68,090114,,,A*5D
$GPGGA,112721.000,5313.8791,N,01030.4655,E,1,11,0.78,42.5,M,46.2,M,,*55
$GPRMC,112720.000,A,5313.8753,N,01030.4859,E,46.03,286.46,090114,,,A*54
$GPGGA,112730.000,5313.9096,N,01030.2904,E,1,10,0.84,42.2,M,46.2,M,,*5C
$GPRMC,112729.000,A,5313.9062,N,01030.3096,E,42.78,286.46,090114,,,A*5D
$GPGGA,112740.000,5313.9422,N,01030.0993,E,1,9,0.97,40.5,M,46.2,M,,*63
$GPRMC,112739.000,A,5313.9388,N,01030.1196,E,44.77,286.03,090114,,,A*50
$GPGGA,112749.000,5313.9755,N,01029.9063,E,1,10,0.83,37.1,M,46.2,M,,*57
$GPRMC,112748.000,A,5313.9719,N,01029.9271,E,47.25,285.97,090114,,,A*5A
$GPGGA,112758.000,5314.0069,N,01029.7233,E,1,9,0.97,32.7,M,46.2,M,,*66
$GPRMC,112757.000,A,5314.0037,N,01029.7430,E,44.66,285.59,090114,,,A*5A
$GPGGA,112807.000,5314.0391,N,01029.5415,E,1,9,0.97,30.5,M,46.2,M,,*67
$GPRMC,112806.000,A,5314.0354,N,01029.5624,E,47.13,286.18,090114,,,A*55
$GPGGA,112816.000,5314.0744,N,01029.3655,E,1,9,0.95,31.0,M,46.2,M,,*6D
$GPRMC,112815.000,A,5314.0704,N,01029.3837,E,42.23,289.27,090114,,,A*59
$GPGGA,112825.000,5314.1169,N,01029.1819,E,1,10,0.85,30.1,M,46.2,M,,*58
$GPRMC,112824.000,A,5314.1117,N,01029.2037,E,51.03,291.41,090114,,,A*5E
$GPGGA,112833.000,5314.1571,N,01029.0098,E,1,10,0.92,29.5,M,46.2,M,,*58
$GPRMC,112832.000,A,5314.1521,N,01029.0308,E,48.69,291.29,090114,,,A*5F
$GPGGA,112842.000,5314.1995,N,01028.8305,E,1,10,0.92,31.9,M,46.2,M,,*53
$GPRMC,112841.000,A,5314.1953,N,01028.8479,E,41.72,291.58,090114,,,A*5F
$GPGGA,112853.000,5314.2432,N,01028.6463,E,1,9,0.97,34.9,M,46.2,M,,*61
$GPRMC,112852.000,A,5314.2392,N,01028.6641,E,40.44,290.76,090114,,,A*57
$GPGGA,112902.000,5314.2838,N,01028.4694,E,1,10,0.84,36.6,M,46.2,M,,*5D
$GPRMC,112901.000,A,5314.2793,N,01028.4893,E,45.65,291.72,090114,,,A*55
$GPGGA,112912.000,5314.3241,N,01028.3013,E,1,9,0.92,35.0,M,46.2,M,,*6D
$GPRMC,112911.000,A,5314.3205,N,01028.3160,E,34.72,293.53,090114,,,A*5C
$GPGGA,112923.000,5314.3657,N,01028.1204,E,1,9,0.92,31.2,M,46.2,M,,*6C
$GPRMC,112922.000,A,5314.3620,N,01028.1369,E,38.21,290.79,090114,,,A*57
$GPGGA,112934.000,5314.4059,N,01027.9483,E,1,10,0.84,28.2,M,46.2,M,,*5C
$GPRMC,112933.000,A,5314.4023,N,01027.9638,E,35.95,291.09,090114,,,A*57
$GPGGA,112951.000,5314.4416,N,01027.7782,E,1,10,0.84,28.3,M,46.2,M,,*5D
$GPRMC,112950.000,A,5314.4410,N,01027.7814,E,8.04,287.56,090114,,,A*63
ping
$GPGGA,113027.000,5314.4758,N,01027.6007,E,1,9,0.97,27.1,M,46.2,M,,*61
$GPRMC,113026.000,A,5314.4734,N,01027.6116,E,25.16,290.09,090114,,,A*55
$GPGGA,113046.000,5314.5302,N,01027.4417,E,1,10,0.84,24.4,M,46.2,M,,*57
$GPRMC,113045.000,A,5314.5236,N,01027.4404,E,22.06,5.43,090114,,,A*54
$GPGGA,113107.000,5314.6152,N,01027.3288,E,1,9,0.94,22.2,M,46.2,M,,*69
$GPRMC,113106.000,A,5314.6121,N,01027.3371,E,21.30,299.30,090114,,,A*53
$GPGGA,113121.000,5314.7061,N,01027.2317,E,1,8,1.05,23.9,M,46.2,M,,*69
$GPRMC,113120.000,A,5314.6969,N,01027.2431,E,40.22,325.07,090114,,,A*57
$GPGGA,113130.000,5314.7924,N,01027.1118,E,1,10,0.84,24.8,M,46.2,M,,*58
$GPRMC,113129.000,A,5314.7834,N,01027.1266,E,45.25,315.04,090114,,,A*53
$GPGGA,113139.000,5314.8631,N,01026.9754,E,1,9,0.97,22.8,M,46.2,M,,*6E
$GPRMC,113138.000,A,5314.8557,N,01026.9903,E,42.11,309.96,090114,,,A*53
$GPGGA,113149.000,5314.9468,N,01026.8383,E,1,9,0.97,19.6,M,46.2,M,,*6F
$GPRMC,113148.000,A,5314.9374,N,01026.8509,E,43.74,320.63,090114,,,A*56
$GPGGA,113158.000,5315.0408,N,01026.7374,E,1,9,0.97,14.8,M,46.2,M,,*65
$GPRMC,113157.000,A,5315.0292,N,01026.7475,E,46.53,331.57,090114,,,A*5B
$GPGGA,113206.000,5315.1436,N,01026.6694,E,1,10,0.84,12.4,M,46.2,M,,*5B
$GPRMC,113205.000,A,5315.1302,N,01026.6764,E,50.00,341.64,090114,,,A*52
$GPGGA,113216.000,5315.2555,N,01026.6174,E,1,9,0.94,12.2,M,46.2,M,,*6B
$GPRMC,113215.000,A,5315.2457,N,01026.6216,E,36.87,345.57,090114,,,A*5C
$GPGGA,113227.000,5315.3692,N,01026.5808,E,1,10,0.84,13.9,M,46.2,M,,*52
$GPRMC,113226.000,A,5315.3579,N,01026.5840,E,40.91,349.80,090114,,,A*5A
$GPGGA,113236.000,5315.4894,N,01026.5560,E,1,9,0.92,11.1,M,46.2,M,,*6B
$GPRMC,113235.000,A,5315.4749,N,01026.5583,E,51.99,354.10,090114,,,A*51
$GPGGA,113244.000,5315.6091,N,01026.5457,E,1,9,0.92,7.5,M,46.2,M,,*57
$GPRMC,113243.000,A,5315.5940,N,01026.5462,E,54.31,358.97,090114,,,A*5C
$GPGGA,113252.000,5315.7273,N,01026.5473,E,1,10,0.83,1.8,M,46.2,M,,*6A
$GPRMC,113251.000,A,5315.7126,N,01026.5463,E,52.48,1.69,090114,,,A*52
$GPGGA,113301.000,5315.8408,N,01026.5454,E,1,9,0.97,1.6,M,46.2,M,,*5E
$GPRMC,113300.000,A,5315.8302,N,01026.5481,E,38.25,351.81,090114,,,A*57
$GPGGA,113311.000,5315.9514,N,01026.4752,E,1,10,0.83,-1.3,M,46.2,M,,*43
$GPRMC,113310.000,A,5315.9402,N,01026.4865,E,46.00,330.75,090114,,,A*55
$GPGGA,113319.000,5316.0340,N,01026.3453,E,1,9,0.92,-4.1,M,46.2,M,,*7C
$GPRMC,113318.000,A,5316.0250,N,01026.3651,E,53.36,309.11,090114,,,A*51
$GPGGA,113327.000,5316.0825,N,01026.1739,E,1,8,1.19,-6.1,M,46.2,M,,*75
$GPRMC,113326.000,A,5316.0790,N,01026.1958,E,49.64,286.43,090114,,,A*5C
$GPGGA,113335.000,5316.0896,N,01025.9903,E,1,8,1.01,-6.3,M,46.2,M,,*79
$GPRMC,113334.000,A,5316.0910,N,01026.0161,E,53.83,266.17,090114,,,A*57
$GPGGA,113342.000,5316.0896,N,01025.8091,E,1,8,1.04,-6.1,M,46.2,M,,*7D
$GPRMC,113341.000,A,5316.0876,N,01025.8356,E,57.06,275.79,090114,,,A*5A
$GPGGA,113349.000,5316.1263,N,01025.6306,E,1,9,0.92,-4.0,M,46.2,M,,*78
$GPRMC,113348.000,A,5316.1187,N,01025.6538,E,57.77,296.51,090114,,,A*54
$GPGGA,113357.000,5316.2040,N,01025.4772,E,1,9,0.92,-6.1,M,46.2,M,,*71
$GPRMC,113356.000,A,5316.1925,N,01025.4931,E,53.58,317.71,090114,,,A*5F
$GPGGA,113405.000,5316.3016,N,01025.3521,E,1,10,0.84,-6.7,M,46.2,M,,*49
$GPRMC,113404.000,A,5316.2900,N,01025.3707,E,57.19,316.83,090114,,,A*5A
$GPGGA,113412.000,5316.3693,N,01025.1875,E,1,10,0.83,-4.7,M,46.2,M,,*4F
$GPRMC,113411.000,A,5316.3616,N,01025.2137,E,62.23,297.11,090114,,,A*5F
$GPGGA,113419.000,5316.4078,N,01025.0075,E,1,10,0.84,-5.2,M,46.2,M,,*4A
$GPRMC,113418.000,A,5316.4024,N,01025.0333,E,58.69,289.45,090114,,,A*5B
$GPGGA,113426.000,5316.4453,N,01024.8321,E,1,10,0.84,-7.5,M,46.2,M,,*45
$GPRMC,113425.000,A,5316.4401,N,01024.8563,E,55.97,289.84,090114,,,A*5D
$GPGGA,113434.000,5316.4872,N,01024.6492,E,1,9,0.94,-9.4,M,46.2,M,,*7E
$GPRMC,113433.000,A,5316.4818,N,01024.6709,E,51.28,292.04,090114,,,A*5C
$GPGGA,113442.000,5316.5341,N,01024.4738,E,1,10,0.84,-8.8,M,46.2,M,,*40
$GPRMC,113441.000,A,5316.5275,N,01024.4965,E,54.27,295.42,090114,,,A*50
$GPGGA,113449.000,5316.5869,N,01024.3030,E,1,10,0.84,-6.5,M,46.2,M,,*41
$GPRMC,113448.000,A,5316.5786,N,01024.3281,E,61.12,298.32,090114,,,A*5C
$GPGGA,113456.000,5316.6490,N,01024.1245,E,1,10,0.84,-4.3,M,46.2,M,,*40
$GPRMC,113455.000,A,5316.6399,N,01024.1506,E,64.34,300.19,090114,,,A*5B
$GPGGA,113502.000,5316.7063,N,01023.9611,E,1,10,0.83,-4.3,M,46.2,M,,*44
$GPRMC,113501.000,A,5316.6964,N,01023.9883,E,68.43,301.40,090114,,,A*5D
$GPGGA,113508.000,5316.7698,N,01023.7951,E,1,10,0.84,-4.5,M,46.2,M,,*48
$GPRMC,113507.000,A,5316.7585,N,01023.8236,E,72.80,303.07,090114,,,A*59
$GPGGA,113514.000,5316.8404,N,01023.6247,E,1,10,0.84,-5.7,M,46.2,M,,*43
$GPRMC,113513.000,A,5316.8282,N,01023.6526,E,74.80,305.78,090114,,,A*53
$GPGGA,113520.000,5316.9114,N,01023.4659,E,1,10,0.84,-5.3,M,46.2,M,,*4C
$GPRMC,113519.000,A,5316.8998,N,01023.4919,E,69.41,306.50,090114,,,A*53
$GPGGA,113526.000,5316.9865,N,01023.3111,E,1,9,0.85,-5.5,M,46.2,M,,*76
$GPRMC,113525.000,A,5316.9732,N,01023.3365,E,72.34,310.68,090114,,,A*51
$GPGGA,113532.000,5317.0673,N,01023.1607,E,1,10,0.84,-5.6,M,46.2,M,,*4A
$GPRMC,113531.000,A,5317.0535,N,01023.1854,E,72.91,312.53,090114,,,A*57
$GPGGA,113538.000,5317.1532,N,01023.0088,E,1,10,0.84,-4.0,M,46.2,M,,*40
$GPRMC,113537.000,A,5317.1388,N,01023.0345,E,75.74,313.10,090114,,,A*50
$GPGGA,113543.000,5317.2249,N,01022.8739,E,1,10,0.84,-4.1,M,46.2,M,,*41
$GPRMC,113542.000,A,5317.2108,N,01022.9016,E,78.47,310.88,090114,,,A*59
$GPGGA,113549.000,5317.3037,N,01022.7083,E,1,10,0.84,-4.6,M,46.2,M,,*4F
$GPRMC,113548.000,A,5317.2913,N,01022.7361,E,74.91,307.44,090114,,,A*5D
$GPGGA,113555.000,5317.3706,N,01022.5446,E,1,10,0.84,-5.8,M,46.2,M,,*47
$GPRMC,113554.000,A,5317.3600,N,01022.5712,E,68.64,303.12,090114,,,A*5E
$GPGGA,113601.000,5317.4294,N,01022.3887,E,1,10,0.84,-5.9,M,46.2,M,,*4A
$GPRMC,113600.000,A,5317.4203,N,01022.4142,E,64.76,301.14,090114,,,A*55
$GPGGA,113608.000,5317.4913,N,01022.2130,E,1,10,0.84,-5.4,M,46.2,M,,*4E
$GPRMC,113607.000,A,5317.4825,N,01022.2387,E,63.70,299.79,090114,,,A*5B
$GPGGA,113614.000,5317.5464,N,01022.0499,E,1,10,0.84,-5.3,M,46.2,M,,*4C
$GPRMC,113613.000,A,5317.5373,N,01022.0780,E,68.27,298.70,090114,,,A*57
$GPGGA,113620.000,5317.6032,N,01021.8752,E,1,10,0.84,-5.3,M,46.2,M,,*40
$GPRMC,113619.000,A,5317.5938,N,01021.9039,E,70.42,298.96,090114,,,A*55
$GPGGA,113626.000,5317.6625,N,01021.6974,E,1,10,0.82,-5.6,M,46.2,M,,*41
$GPRMC,113625.000,A,5317.6524,N,01021.7281,E,74.86,299.19,090114,,,A*5D
$GPGGA,113632.000,5317.7254,N,01021.5141,E,1,10,0.84,-6.4,M,46.2,M,,*4D
$GPRMC,113631.000,A,5317.7149,N,01021.5440,E,74.81,300.49,090114,,,A*5C
$GPGGA,113638.000,5317.7861,N,01021.3356,E,1,10,0.84,-6.7,M,46.2,M,,*4A
$GPRMC,113637.000,A,5317.7761,N,01021.3654,E,73.77,299.47,090114,,,A*56
$GPGGA,113644.000,5317.8470,N,01021.1478,E,1,10,0.84,-7.2,M,46.2,M,,*4F
$GPRMC,113643.000,A,5317.8366,N,01021.1795,E,78.14,298.67,090114,,,A*5A
$GPGGA,113649.000,5317.9002,N,01020.9896,E,1,10,0.84,-7.5,M,46.2,M,,*40
$GPRMC,113648.000,A,5317.8893,N,01021.0215,E,79.05,299.71,090114,,,A*5B
$GPGGA,113654.000,5317.9557,N,01020.8301,E,1,9,0.88,-8.0,M,46.2,M,,*73
$GPRMC,113653.000,A,5317.9439,N,01020.8622,E,80.60,301.22,090114,,,A*56
$GPGGA,113659.000,5318.0163,N,01020.6707,E,1,10,0.84,-8.5,M,46.2,M,,*46
$GPRMC,113658.000,A,5318.0043,N,01020.7016,E,80.25,303.01,090114,,,A*5E
$GPGGA,113704.000,5318.0821,N,01020.5177,E,1,10,0.84,-9.1,M,46.2,M,,*47
$GPRMC,113703.000,A,5318.0679,N,01020.5480,E,82.70,307.33,090114,,,A*50
$GPGGA,113709.000,5318.1545,N,01020.3775,E,1,10,0.84,-9.3,M,46.2,M,,*44
$GPRMC,113708.000,A,5318.1398,N,01020.4041,E,78.06,311.74,090114,,,A*58
$GPGGA,113715.000,5318.2424,N,01020.2311,E,1,10,0.84,-9.7,M,46.2,M,,*4F
$GPRMC,113714.000,A,5318.2280,N,01020.2543,E,72.42,315.71,090114,,,A*54
$GPGGA,113721.000,5318.3324,N,01020.0945,E,1,9,0.85,-9.6,M,46.2,M,,*7F
$GPRMC,113720.000,A,5318.3169,N,01020.1177,E,74.00,317.45,090114,,,A*53
$GPGGA,113727.000,5318.4294,N,01019.9520,E,1,9,0.85,-9.6,M,46.2,M,,*78
$GPRMC,113726.000,A,5318.4131,N,01019.9763,E,78.82,317.87,090114,,,A*56
$GPGGA,113732.000,5318.5102,N,01019.8283,E,1,10,0.84,-9.3,M,46.2,M,,*42
$GPRMC,113731.000,A,5318.4940,N,01019.8537,E,79.64,317.00,090114,,,A*5A
$GPGGA,113737.000,5318.5905,N,01019.6934,E,1,10,0.84,-10.0,M,46.2,M,,*7A
$GPRMC,113736.000,A,5318.5744,N,01019.7212,E,83.30,314.21,090114,,,A*5D
$GPGGA,113742.000,5318.6692,N,01019.5501,E,1,10,0.84,-10.4,M,46.2,M,,*77
$GPRMC,113741.000,A,5318.6537,N,01019.5797,E,84.22,311.75,090114,,,A*52
$GPGGA,113747.000,5318.7440,N,01019.4008,E,1,10,0.84,-11.0,M,46.2,M,,*76
$GPRMC,113746.000,A,5318.7296,N,01019.4304,E,82.80,309.43,090114,,,A*55
$GPGGA,113752.000,5318.8148,N,01019.2529,E,1,9,0.93,-11.6,M,46.2,M,,*48
$GPRMC,113751.000,A,5318.8008,N,01019.2826,E,81.96,308.34,090114,,,A*51
$GPGGA,113757.000,5318.8843,N,01019.0983,E,1,10,0.84,-12.0,M,46.2,M,,*7A
$GPRMC,113756.000,A,5318.8702,N,01019.1299,E,84.82,306.75,090114,,,A*5D
$GPGGA,113802.000,5318.9546,N,01018.9462,E,1,9,0.92,-12.3,M,46.2,M,,*4A
$GPRMC,113801.000,A,5318.9409,N,01018.9756,E,81.36,307.89,090114,,,A*5E
$GPGGA,113808.000,5319.0291,N,01018.7823,E,1,9,0.93,-12.3,M,46.2,M,,*43
$GPRMC,113807.000,A,5319.0178,N,01018.8074,E,69.10,306.83,090114,,,A*5C
$GPGGA,113815.000,5319.1012,N,01018.6259,E,1,9,0.93,-12.7,M,46.2,M,,*45
$GPRMC,113814.000,A,5319.0920,N,01018.6469,E,57.59,306.39,090114,,,A*5C
$GPGGA,113823.000,5319.1731,N,01018.4614,E,1,10,0.84,-12.4,M,46.2,M,,*74
$GPRMC,113822.000,A,5319.1643,N,01018.4817,E,55.04,306.41,090114,,,A*50
$GPGGA,113831.000,5319.2446,N,01018.2931,E,1,9,0.93,-12.7,M,46.2,M,,*44
$GPRMC,113830.000,A,5319.2352,N,01018.3164,E,59.59,303.60,090114,,,A*5D
$GPGGA,113837.000,5319.3069,N,01018.1460,E,1,9,0.93,-12.8,M,46.2,M,,*4F
$GPRMC,113836.000,A,5319.2961,N,01018.1709,E,65.76,305.55,090114,,,A*5C
$GPGGA,113843.000,5319.3742,N,01017.9864,E,1,9,0.93,-12.9,M,46.2,M,,*4C
$GPRMC,113842.000,A,5319.3626,N,01018.0139,E,72.34,305.05,090114,,,A*53
$GPGGA,113849.000,5319.4417,N,01017.8215,E,1,8,1.03,-12.7,M,46.2,M,,*48
$GPRMC,113848.000,A,5319.4313,N,01017.8474,E,68.89,303.98,090114,,,A*59
$GPGGA,113856.000,5319.5077,N,01017.6460,E,1,9,0.93,-12.5,M,46.2,M,,*44
$GPRMC,113855.000,A,5319.4982,N,01017.6720,E,65.43,301.18,090114,,,A*5A
$GPGGA,113902.000,5319.5638,N,01017.4877,E,1,9,0.93,-12.5,M,46.2,M,,*41
$GPRMC,113901.000,A,5319.5548,N,01017.5146,E,67.09,299.94,090114,,,A*5C
$GPGGA,113909.000,5319.6211,N,01017.3019,E,1,8,1.01,-11.6,M,46.2,M,,*4A
$GPRMC,113908.000,A,5319.6133,N,01017.3288,E,64.40,296.34,090114,,,A*52
$GPGGA,113915.000,5319.6679,N,01017.1319,E,1,9,0.93,-11.2,M,46.2,M,,*43
$GPRMC,113914.000,A,5319.6604,N,01017.1598,E,66.73,293.95,090114,,,A*54
$GPGGA,113922.000,5319.7151,N,01016.9399,E,1,9,0.93,-11.1,M,46.2,M,,*49
$GPRMC,113921.000,A,5319.7088,N,01016.9674,E,63.37,291.29,090114,,,A*59
$GPGGA,113929.000,5319.7577,N,01016.7478,E,1,8,0.98,-11.3,M,46.2,M,,*4C
$GPRMC,113928.000,A,5319.7517,N,01016.7741,E,61.27,290.45,090114,,,A*52
$GPGGA,113936.000,5319.7959,N,01016.5717,E,1,10,0.84,-11.3,M,46.2,M,,*7E
$GPRMC,113935.000,A,5319.7907,N,01016.5957,E,55.69,290.06,090114,,,A*52
$GPGGA,113944.000,5319.8346,N,01016.4001,E,1,9,0.93,-11.0,M,46.2,M,,*4C
$GPRMC,113943.000,A,5319.8304,N,01016.4183,E,44.46,290.49,090114,,,A*53
$GPGGA,113958.000,5319.8797,N,01016.2366,E,1,10,0.84,-11.8,M,46.2,M,,*7B
$GPRMC,113957.000,A,5319.8761,N,01016.2416,E,16.96,316.43,090114,,,A*51
$<MSG.Info.ServerLogin>
$DeviceName=pironex_auto
$Software=0.1.3
$Hardware=1
$LastValidPosition=
$IMEI=359193030849087
$LocalIP=10.32.149.102
$CmdVersion=2
$SUCCESS
$<end>
ping
$GPGGA,114745.000,5319.9254,N,01015.9631,E,1,10,0.83,5.4,M,46.2,M,,*69
$GPRMC,114744.000,A,5319.9226,N,01015.9786,E,32.66,284.98,090114,,,A*5A
$GPGGA,114753.000,5319.9591,N,01015.7836,E,1,8,1.01,6.0,M,46.2,M,,*52
$GPRMC,114752.000,A,5319.9540,N,01015.8109,E,59.71,287.08,090114,,,A*5B
$GPGGA,114800.000,5319.9969,N,01015.5847,E,1,9,0.92,6.9,M,46.2,M,,*57
$GPRMC,114759.000,A,5319.9915,N,01015.6126,E,62.93,288.04,090114,,,A*58
$GPGGA,114807.000,5320.0336,N,01015.3890,E,1,9,0.92,8.3,M,46.2,M,,*5B
$GPRMC,114806.000,A,5320.0282,N,01015.4179,E,64.29,287.40,090114,,,A*5B
$GPGGA,114813.000,5320.0653,N,01015.2096,E,1,9,0.92,10.0,M,46.2,M,,*6D
$GPRMC,114812.000,A,5320.0601,N,01015.2399,E,67.59,286.23,090114,,,A*5B
$GPGGA,114819.000,5320.0958,N,01015.0233,E,1,10,0.83,11.8,M,46.2,M,,*5D
$GPRMC,114818.000,A,5320.0908,N,01015.0550,E,70.02,284.94,090114,,,A*50
$GPGGA,114825.000,5320.1241,N,01014.8345,E,1,10,0.83,13.4,M,46.2,M,,*57
$GPRMC,114824.000,A,5320.1196,N,01014.8656,E,68.55,283.64,090114,,,A*5E
$GPGGA,114831.000,5320.1489,N,01014.6447,E,1,10,0.83,13.9,M,46.2,M,,*56
$GPRMC,114830.000,A,5320.1451,N,01014.6774,E,70.90,280.98,090114,,,A*5A
$GPGGA,114837.000,5320.1716,N,01014.4459,E,1,10,0.83,13.5,M,46.2,M,,*54
$GPRMC,114836.000,A,5320.1678,N,01014.4793,E,73.27,280.66,090114,,,A*50
$GPGGA,114843.000,5320.1930,N,01014.2403,E,1,10,0.83,12.1,M,46.2,M,,*51
$GPRMC,114842.000,A,5320.1896,N,01014.2756,E,76.42,279.49,090114,,,A*5F
$GPGGA,114849.000,5320.2112,N,01014.0317,E,1,10,0.83,11.1,M,46.2,M,,*53
$GPRMC,114848.000,A,5320.2085,N,01014.0662,E,75.26,277.74,090114,,,A*59
$GPGGA,114855.000,5320.2259,N,01013.8242,E,1,10,0.83,10.0,M,46.2,M,,*5C
$GPRMC,114854.000,A,5320.2236,N,01013.8583,E,74.41,276.72,090114,,,A*5A
$GPGGA,114901.000,5320.2379,N,01013.6209,E,1,10,0.83,9.2,M,46.2,M,,*64
$GPRMC,114900.000,A,5320.2360,N,01013.6557,E,74.82,275.35,090114,,,A*50
$GPGGA,114906.000,5320.2472,N,01013.4405,E,1,10,0.83,9.2,M,46.2,M,,*67
$GPRMC,114905.000,A,5320.2453,N,01013.4772,E,79.33,274.91,090114,,,A*5D
$GPGGA,114912.000,5320.2591,N,01013.2312,E,1,10,0.83,10.3,M,46.2,M,,*50
$GPRMC,114911.000,A,5320.2575,N,01013.2648,E,73.08,274.69,090114,,,A*56
$GPGGA,114918.000,5320.2678,N,01013.0408,E,1,10,0.83,11.6,M,46.2,M,,*54
$GPRMC,114917.000,A,5320.2663,N,01013.0712,E,66.58,274.54,090114,,,A*57
$GPGGA,114924.000,5320.2763,N,01012.8585,E,1,10,0.83,13.0,M,46.2,M,,*59
$GPRMC,114923.000,A,5320.2749,N,01012.8894,E,67.16,274.16,090114,,,A*5C
$GPGGA,114930.000,5320.2854,N,01012.6760,E,1,9,0.92,14.1,M,46.2,M,,*6E
$GPRMC,114929.000,A,5320.2837,N,01012.7058,E,64.71,275.00,090114,,,A*53
$GPGGA,114937.000,5320.2979,N,01012.4682,E,1,9,0.92,14.8,M,46.2,M,,*61
$GPRMC,114936.000,A,5320.2960,N,01012.4972,E,63.72,276.36,090114,,,A*5E
$GPGGA,114944.000,5320.3118,N,01012.2687,E,1,8,0.95,14.4,M,46.2,M,,*62
$GPRMC,114943.000,A,5320.3097,N,01012.2981,E,63.00,276.76,090114,,,A*57
$GPGGA,114951.000,5320.3295,N,01012.0625,E,1,9,0.92,13.5,M,46.2,M,,*6A
$GPRMC,114950.000,A,5320.3268,N,01012.0911,E,62.67,278.60,090114,,,A*55
$GPGGA,114958.000,5320.3502,N,01011.8654,E,1,9,0.92,12.4,M,46.2,M,,*67
$GPRMC,114957.000,A,5320.3468,N,01011.8938,E,61.72,280.38,090114,,,A*59
$GPGGA,115004.000,5320.3736,N,01011.6821,E,1,9,0.92,11.5,M,46.2,M,,*63
$GPRMC,115003.000,A,5320.3693,N,01011.7145,E,70.48,282.26,090114,,,A*5F
$GPGGA,115010.000,5320.4030,N,01011.4877,E,1,9,0.92,11.3,M,46.2,M,,*67
$GPRMC,115009.000,A,5320.3980,N,01011.5193,E,71.06,284.72,090114,,,A*5D
$GPGGA,115016.000,5320.4354,N,01011.3052,E,1,9,0.92,11.0,M,46.2,M,,*6B
$GPRMC,115015.000,A,5320.4298,N,01011.3349,E,67.54,287.22,090114,,,A*50
$GPGGA,115022.000,5320.4701,N,01011.1272,E,1,9,0.92,10.6,M,46.2,M,,*6D
$GPRMC,115021.000,A,5320.4634,N,01011.1575,E,69.32,289.66,090114,,,A*5E
$GPGGA,115028.000,5320.5145,N,01010.9459,E,1,10,0.83,10.3,M,46.2,M,,*5B
$GPRMC,115027.000,A,5320.5070,N,01010.9752,E,69.07,292.87,090114,,,A*52
$GPGGA,115034.000,5320.5588,N,01010.7793,E,1,10,0.83,11.1,M,46.2,M,,*5B
$GPRMC,115033.000,A,5320.5515,N,01010.8059,E,63.58,294.47,090114,,,A*56
$GPGGA,115041.000,5320.6110,N,01010.5999,E,1,10,0.83,10.1,M,46.2,M,,*58
$GPRMC,115040.000,A,5320.6032,N,01010.6252,E,61.60,297.05,090114,,,A*5A
$GPGGA,115048.000,5320.6641,N,01010.4284,E,1,10,0.83,9.7,M,46.2,M,,*6A
$GPRMC,115047.000,A,5320.6566,N,01010.4518,E,57.95,297.92,090114,,,A*53
$GPGGA,115056.000,5320.7171,N,01010.2607,E,1,10,0.83,10.5,M,46.2,M,,*53
$GPRMC,115055.000,A,5320.7105,N,01010.2826,E,51.73,297.41,090114,,,A*56
$GPGGA,115103.000,5320.7755,N,01010.0756,E,1,9,0.92,10.7,M,46.2,M,,*6F
$GPRMC,115102.000,A,5320.7662,N,01010.1047,E,70.12,297.98,090114,,,A*5F
$GPGGA,115109.000,5320.8356,N,01009.8872,E,1,10,0.83,11.0,M,46.2,M,,*5A
$GPRMC,115108.000,A,5320.8251,N,01009.9200,E,79.44,298.23,090114,,,A*5A
$GPGGA,115113.000,5320.8864,N,01009.7183,E,1,9,0.92,10.0,M,46.2,M,,*6A
$GPRMC,115112.000,A,5320.8766,N,01009.7529,E,80.80,296.13,090114,,,A*51
$GPGGA,115118.000,5320.9332,N,01009.5467,E,1,10,0.82,9.2,M,46.2,M,,*66
$GPRMC,115117.000,A,5320.9244,N,01009.5804,E,79.50,293.66,090114,,,A*5C
$GPGGA,115124.000,5320.9808,N,01009.3472,E,1,10,0.83,8.7,M,46.2,M,,*6C
$GPRMC,115123.000,A,5320.9736,N,01009.3806,E,76.57,290.55,090114,,,A*54
$GPGGA,115130.000,5321.0207,N,01009.1435,E,1,10,0.83,7.2,M,46.2,M,,*6F
$GPRMC,115129.000,A,5321.0148,N,01009.1772,E,76.09,287.05,090114,,,A*5F
$GPGGA,115135.000,5321.0467,N,01008.9674,E,1,10,0.83,7.6,M,46.2,M,,*60
$GPRMC,115134.000,A,5321.0420,N,01009.0030,E,79.18,282.41,090114,,,A*52
$GPGGA,115141.000,5321.0713,N,01008.7642,E,1,10,0.83,10.0,M,46.2,M,,*58
$GPRMC,115140.000,A,5321.0678,N,01008.7970,E,72.74,280.46,090114,,,A*51
$GPGGA,115147.000,5321.0896,N,01008.5797,E,1,10,0.83,13.2,M,46.2,M,,*56
$GPRMC,115146.000,A,5321.0868,N,01008.6087,E,65.28,279.09,090114,,,A*5A
$GPGGA,115154.000,5321.1071,N,01008.3977,E,1,10,0.83,16.2,M,46.2,M,,*57
$GPRMC,115153.000,A,5321.1046,N,01008.4233,E,56.29,279.24,090114,,,A*5A
$GPGGA,115202.000,5321.1279,N,01008.1978,E,1,9,0.92,18.4,M,46.2,M,,*60
$GPRMC,115201.000,A,5321.1251,N,01008.2230,E,55.56,280.73,090114,,,A*50
$GPGGA,115209.000,5321.1519,N,01008.0090,E,1,10,0.83,19.3,M,46.2,M,,*5A
$GPRMC,115208.000,A,5321.1479,N,01008.0370,E,61.81,283.13,090114,,,A*5A
$GPGGA,115215.000,5321.1821,N,01007.8278,E,1,10,0.83,18.4,M,46.2,M,,*54
$GPRMC,115214.000,A,5321.1761,N,01007.8597,E,71.11,286.87,090114,,,A*55
$GPGGA,115221.000,5321.2252,N,01007.6357,E,1,10,0.83,15.2,M,46.2,M,,*57
$GPRMC,115220.000,A,5321.2173,N,01007.6667,E,72.30,292.58,090114,,,A*51
$GPGGA,115227.000,5321.2832,N,01007.4458,E,1,10,0.82,10.7,M,46.2,M,,*56
$GPRMC,115226.000,A,5321.2722,N,01007.4775,E,78.74,299.10,090114,,,A*58
$GPGGA,115232.000,5321.3433,N,01007.2928,E,1,9,0.92,6.4,M,46.2,M,,*5F
$GPRMC,115231.000,A,5321.3305,N,01007.3225,E,78.72,305.36,090114,,,A*5F
$GPGGA,115237.000,5321.4144,N,01007.1496,E,1,8,0.99,3.4,M,46.2,M,,*5C
$GPRMC,115236.000,A,5321.3990,N,01007.1776,E,81.38,311.59,090114,,,A*5B
$GPGGA,115242.000,5321.4959,N,01007.0181,E,1,8,0.99,3.2,M,46.2,M,,*5E
$GPRMC,115241.000,A,5321.4793,N,01007.0431,E,80.51,316.92,090114,,,A*5E
$GPGGA,115248.000,5321.5949,N,01006.8825,E,1,8,0.99,5.2,M,46.2,M,,*5C
$GPRMC,115247.000,A,5321.5780,N,01006.9040,E,76.31,321.65,090114,,,A*52
$GPGGA,115253.000,5321.6846,N,01006.7742,E,1,8,0.99,9.0,M,46.2,M,,*54
$GPRMC,115252.000,A,5321.6661,N,01006.7954,E,81.69,325.26,090114,,,A*5F
$GPGGA,115259.000,5321.7907,N,01006.6552,E,1,8,0.99,12.8,M,46.2,M,,*6B
$GPRMC,115258.000,A,5321.7734,N,01006.6746,E,75.24,325.42,090114,,,A*59
$GPGGA,115305.000,5321.8996,N,01006.5394,E,1,9,0.92,15.3,M,46.2,M,,*6D
$GPRMC,115304.000,A,5321.8812,N,01006.5591,E,78.91,327.17,090114,,,A*5F
$GPGGA,115310.000,5321.9923,N,01006.4392,E,1,9,0.92,15.9,M,46.2,M,,*6B
$GPRMC,115309.000,A,5321.9738,N,01006.4598,E,79.87,326.59,090114,,,A*51
$GPGGA,115315.000,5322.0842,N,01006.3331,E,1,10,0.83,15.3,M,46.1,M,,*5D
$GPRMC,115314.000,A,5322.0660,N,01006.3548,E,80.89,324.63,090114,,,A*52
$GPGGA,115320.000,5322.1709,N,01006.2192,E,1,9,0.92,16.6,M,46.1,M,,*6E
$GPRMC,115319.000,A,5322.1537,N,01006.2427,E,79.61,321.19,090114,,,A*5E
$GPGGA,115325.000,5322.2553,N,01006.0954,E,1,10,0.83,18.7,M,46.1,M,,*52
$GPRMC,115324.000,A,5322.2389,N,01006.1207,E,79.95,317.58,090114,,,A*5C
$GPGGA,115330.000,5322.3325,N,01005.9689,E,1,8,0.95,21.6,M,46.1,M,,*60
$GPRMC,115329.000,A,5322.3179,N,01005.9943,E,76.09,314.55,090114,,,A*59
$GPGGA,115336.000,5322.4147,N,01005.8156,E,1,9,0.92,24.8,M,46.1,M,,*6E
$GPRMC,115335.000,A,5322.4011,N,01005.8424,E,75.25,310.62,090114,,,A*5C
$GPGGA,115342.000,5322.4937,N,01005.6486,E,1,10,0.81,25.4,M,46.1,M,,*53
$GPRMC,115341.000,A,5322.4810,N,01005.6769,E,76.23,307.82,090114,,,A*5F
$GPGGA,115348.000,5322.5715,N,01005.4758,E,1,9,0.92,22.9,M,46.1,M,,*64
$GPRMC,115347.000,A,5322.5584,N,01005.5047,E,78.26,307.65,090114,,,A*52
$GPGGA,115353.000,5322.6421,N,01005.3299,E,1,10,0.82,19.3,M,46.1,M,,*5D
$GPRMC,115352.000,A,5322.6273,N,01005.3588,E,81.46,310.12,090114,,,A*5C
$GPGGA,115358.000,5322.7191,N,01005.1908,E,1,9,0.91,15.7,M,46.1,M,,*6A
$GPRMC,115357.000,A,5322.7033,N,01005.2180,E,81.82,313.65,090114,,,A*58
$GPGGA,115403.000,5322.7989,N,01005.0651,E,1,9,0.91,12.6,M,46.1,M,,*66
$GPRMC,115402.000,A,5322.7826,N,01005.0891,E,77.95,317.34,090114,,,A*57
$GPGGA,115408.000,5322.8847,N,01004.9415,E,1,8,0.99,9.5,M,46.1,M,,*5B
$GPRMC,115407.000,A,5322.8670,N,01004.9669,E,83.30,318.66,090114,,,A*5D
$GPGGA,115413.000,5322.9727,N,01004.8056,E,1,9,0.89,5.7,M,46.1,M,,*55
$GPRMC,115412.000,A,5322.9554,N,01004.8336,E,86.02,316.05,090114,,,A*5C
$GPGGA,115418.000,5323.0482,N,01004.6588,E,1,8,0.99,2.2,M,46.1,M,,*50
$GPRMC,115417.000,A,5323.0342,N,01004.6891,E,82.51,308.49,090114,,,A*5D
$GPGGA,115423.000,5323.1101,N,01004.4962,E,1,9,0.92,0.3,M,46.1,M,,*54
$GPRMC,115422.000,A,5323.0985,N,01004.5306,E,84.53,300.47,090114,,,A*5E
$GPGGA,115428.000,5323.1611,N,01004.3155,E,1,9,0.91,0.9,M,46.1,M,,*5B
$GPRMC,115427.000,A,5323.1523,N,01004.3531,E,86.36,293.49,090114,,,A*5A
$GPGGA,115433.000,5323.1963,N,01004.1313,E,1,9,0.92,3.6,M,46.1,M,,*56
$GPRMC,115432.000,A,5323.1905,N,01004.1668,E,81.08,286.11,090114,,,A*58
$GPGGA,115439.000,5323.2179,N,01003.9335,E,1,9,0.91,6.8,M,46.1,M,,*5F
$GPRMC,115438.000,A,5323.2153,N,01003.9654,E,69.76,278.36,090114,,,A*51
$GPGGA,115445.000,5323.2297,N,01003.7368,E,1,10,0.82,9.2,M,46.1,M,,*6E
$GPRMC,115444.000,A,5323.2280,N,01003.7700,E,71.83,275.65,090114,,,A*51
$GPGGA,115451.000,5323.2403,N,01003.5364,E,1,10,0.82,11.2,M,46.1,M,,*57
$GPRMC,115450.000,A,5323.2385,N,01003.5699,E,73.43,275.08,090114,,,A*56
$GPGGA,115457.000,5323.2520,N,01003.3522,E,1,10,0.82,12.3,M,46.1,M,,*51
$GPRMC,115456.000,A,5323.2501,N,01003.3800,E,61.27,276.57,090114,,,A*5A
$GPGGA,115504.000,5323.2651,N,01003.1665,E,1,10,0.82,11.8,M,46.1,M,,*59
$GPRMC,115503.000,A,5323.2632,N,01003.1930,E,57.67,277.18,090114,,,A*53
$GPGGA,115511.000,5323.2811,N,01002.9685,E,1,8,0.99,11.3,M,46.1,M,,*68
$GPRMC,115510.000,A,5323.2788,N,01002.9984,E,63.83,277.97,090114,,,A*5D
$GPGGA,115518.000,5323.2985,N,01002.7696,E,1,8,1.01,8.8,M,46.1,M,,*52
$GPRMC,115517.000,A,5323.2959,N,01002.7966,E,58.84,279.16,090114,,,A*52
$GPGGA,115525.000,5323.3198,N,01002.5613,E,1,8,1.02,4.9,M,46.1,M,,*58
$GPRMC,115524.000,A,5323.3165,N,01002.5927,E,68.43,279.93,090114,,,A*56
$GPGGA,115531.000,5323.3407,N,01002.3744,E,1,9,0.91,2.5,M,46.1,M,,*5B
$GPRMC,115530.000,A,5323.3373,N,01002.4045,E,67.28,280.74,090114,,,A*57
$GPGGA,115538.000,5323.3649,N,01002.1842,E,1,9,0.91,1.3,M,46.1,M,,*54
$GPRMC,115537.000,A,5323.3614,N,01002.2101,E,57.46,282.72,090114,,,A*5C
$GPGGA,115546.000,5323.3897,N,01001.9869,E,1,9,0.91,0.0,M,46.1,M,,*50
$GPRMC,115545.000,A,5323.3869,N,01002.0090,E,49.54,282.13,090114,,,A*5D
$GPGGA,115555.000,5323.4160,N,01001.7887,E,1,9,0.91,-0.3,M,46.1,M,,*74
$GPRMC,115554.000,A,5323.4128,N,01001.8115,E,50.69,283.23,090114,,,A*55
$GPGGA,115605.000,5323.4415,N,01001.6068,E,1,10,0.82,0.5,M,46.1,M,,*6C
$GPRMC,115604.000,A,5323.4392,N,01001.6199,E,31.60,284.62,090114,,,A*56
$GPGGA,115617.000,5323.5324,N,01001.5006,E,1,9,0.91,-2.9,M,46.1,M,,*79
$GPRMC,115616.000,A,5323.5225,N,01001.5091,E,39.60,332.06,090114,,,A*55
$GPGGA,115627.000,5323.6414,N,01001.4647,E,1,10,0.82,-8.4,M,46.1,M,,*42
$GPRMC,115626.000,A,5323.6305,N,01001.4623,E,39.45,5.28,090114,,,A*54
$GPGGA,115637.000,5323.7601,N,01001.5035,E,1,10,0.81,-7.6,M,46.1,M,,*48
$GPRMC,115636.000,A,5323.7469,N,01001.4992,E,47.71,10.54,090114,,,A*6D
$GPGGA,115645.000,5323.8752,N,01001.5485,E,1,10,0.82,-6.4,M,46.1,M,,*4A
$GPRMC,115644.000,A,5323.8608,N,01001.5433,E,52.98,12.50,090114,,,A*60
$GPGGA,115652.000,5323.9836,N,01001.5870,E,1,10,0.82,-8.0,M,46.1,M,,*4C
$GPRMC,115651.000,A,5323.9664,N,01001.5812,E,61.37,11.42,090114,,,A*65
$GPGGA,115658.000,5324.0982,N,01001.6203,E,1,10,0.82,-9.1,M,46.1,M,,*4B
$GPRMC,115657.000,A,5324.0779,N,01001.6151,E,73.13,9.04,090114,,,A*53
$GPGGA,115704.000,5324.2240,N,01001.6497,E,1,10,0.82,-9.6,M,46.1,M,,*48
$GPRMC,115703.000,A,5324.2025,N,01001.6448,E,77.48,7.83,090114,,,A*59
$GPGGA,115710.000,5324.3494,N,01001.6808,E,1,10,0.82,-10.0,M,46.1,M,,*77
$GPRMC,115709.000,A,5324.3292,N,01001.6758,E,74.08,8.03,090114,,,A*5E
$GPGGA,115716.000,5324.4671,N,01001.7096,E,1,9,0.91,-10.2,M,46.1,M,,*49
$GPRMC,115715.000,A,5324.4478,N,01001.7050,E,70.47,8.03,090114,,,A*57
$GPGGA,115722.000,5324.5855,N,01001.7387,E,1,9,0.91,-10.7,M,46.1,M,,*41
$GPRMC,115721.000,A,5324.5654,N,01001.7336,E,72.90,8.26,090114,,,A*51
$GPGGA,115728.000,5324.7041,N,01001.7670,E,1,10,0.82,-10.3,M,46.1,M,,*77
$GPRMC,115727.000,A,5324.6841,N,01001.7619,E,72.33,8.39,090114,,,A*51
$GPGGA,115734.000,5324.8256,N,01001.7937,E,1,9,0.91,-10.3,M,46.1,M,,*47
$GPRMC,115733.000,A,5324.8047,N,01001.7897,E,74.89,6.54,090114,,,A*5E
$GPGGA,115739.000,5324.9339,N,01001.8190,E,1,10,0.82,-9.6,M,46.1,M,,*4E
$GPRMC,115738.000,A,5324.9122,N,01001.8135,E,79.45,8.34,090114,,,A*5D
$GPGGA,115745.000,5325.0566,N,01001.8538,E,1,10,0.82,-7.2,M,46.1,M,,*4D
$GPRMC,115744.000,A,5325.0368,N,01001.8472,E,72.84,10.71,090114,,,A*6A
$GPGGA,115751.000,5325.1809,N,01001.9026,E,1,10,0.82,-4.3,M,46.1,M,,*44
$GPRMC,115750.000,A,5325.1595,N,01001.8930,E,78.69,14.56,090114,,,A*69
$GPGGA,115756.000,5325.2926,N,01001.9573,E,1,10,0.82,-3.0,M,46.1,M,,*4D
$GPRMC,115755.000,A,5325.2697,N,01001.9460,E,85.10,16.19,090114,,,A*62
$GPGGA,115801.000,5325.4075,N,01002.0149,E,1,10,0.82,-4.6,M,46.1,M,,*4F
$GPRMC,115800.000,A,5325.3845,N,01002.0033,E,86.60,16.80,090114,,,A*61
$GPGGA,115806.000,5325.5192,N,01002.0710,E,1,10,0.82,-9.5,M,46.1,M,,*45
$GPRMC,115805.000,A,5325.4972,N,01002.0604,E,82.82,16.45,090114,,,A*65
$GPGGA,115811.000,5325.6291,N,01002.0995,E,1,10,0.82,-12.9,M,46.1,M,,*75
$GPRMC,115810.000,A,5325.6073,N,01002.0975,E,79.01,4.81,090114,,,A*56
$GPGGA,115817.000,5325.7530,N,01002.0836,E,1,10,0.82,-14.3,M,46.1,M,,*7A
$GPRMC,115816.000,A,5325.7333,N,01002.0892,E,72.91,352.28,090114,,,A*5F
$GPGGA,115823.000,5325.8744,N,01002.0384,E,1,10,0.82,-14.4,M,46.1,M,,*76
$GPRMC,115822.000,A,5325.8537,N,01002.0463,E,76.02,347.84,090114,,,A*5B
$GPGGA,115829.000,5325.9996,N,01001.9920,E,1,10,0.82,-14.4,M,46.1,M,,*72
$GPRMC,115828.000,A,5325.9793,N,01001.9996,E,75.50,347.93,090114,,,A*53
$GPGGA,115835.000,5326.1153,N,01001.9490,E,1,10,0.82,-14.2,M,46.1,M,,*75
$GPRMC,115834.000,A,5326.0966,N,01001.9557,E,69.32,347.78,090114,,,A*5D
$GPGGA,115841.000,5326.2278,N,01001.9087,E,1,10,0.82,-14.4,M,46.1,M,,*7B
$GPRMC,115840.000,A,5326.2093,N,01001.9155,E,69.14,347.90,090114,,,A*5B
$GPGGA,115847.000,5326.3385,N,01001.8674,E,1,10,0.82,-14.4,M,46.1,M,,*74
$GPRMC,115846.000,A,5326.3203,N,01001.8744,E,68.28,347.52,090114,,,A*50
$GPGGA,115853.000,5326.4492,N,01001.8281,E,1,10,0.82,-14.9,M,46.1,M,,*74
$GPRMC,115852.000,A,5326.4309,N,01001.8346,E,67.28,348.20,090114,,,A*5A
$GPGGA,115859.000,5326.5632,N,01001.7997,E,1,10,0.82,-15.4,M,46.1,M,,*78
$GPRMC,115858.000,A,5326.5439,N,01001.8029,E,69.46,353.46,090114,,,A*53
$GPGGA,115905.000,5326.6848,N,01001.7856,E,1,10,0.82,-14.0,M,46.1,M,,*79
$GPRMC,115904.000,A,5326.6643,N,01001.7873,E,74.25,357.06,090114,,,A*56
$GPGGA,115911.000,5326.8100,N,01001.7755,E,1,10,0.82,-11.0,M,46.1,M,,*7E
$GPRMC,115910.000,A,5326.7885,N,01001.7770,E,77.11,357.28,090114,,,A*52
$GPGGA,115916.000,5326.9231,N,01001.7672,E,1,10,0.82,-13.2,M,46.1,M,,*7D
$GPRMC,115915.000,A,5326.9000,N,01001.7687,E,83.21,357.69,090114,,,A*58
$GPGGA,115921.000,5327.0344,N,01001.7558,E,1,10,0.82,-16.0,M,46.1,M,,*7E
$GPRMC,115920.000,A,5327.0128,N,01001.7590,E,78.82,355.73,090114,,,A*5C
$GPGGA,115927.000,5327.1563,N,01001.7273,E,1,10,0.82,-18.1,M,46.1,M,,*7B
$GPRMC,115926.000,A,5327.1375,N,01001.7325,E,70.21,350.83,090114,,,A*52
$GPGGA,115934.000,5327.2743,N,01001.6933,E,1,10,0.82,-17.9,M,46.1,M,,*73
$GPRMC,115933.000,A,5327.2584,N,01001.6980,E,58.91,350.00,090114,,,A*53
$GPGGA,115942.000,5327.3942,N,01001.6588,E,1,10,0.82,-17.6,M,46.1,M,,*7F
$GPRMC,115941.000,A,5327.3790,N,01001.6630,E,54.80,350.52,090114,,,A*5F
$GPGGA,115949.000,5327.5098,N,01001.6251,E,1,10,0.82,-17.4,M,46.1,M,,*7D
$GPRMC,115948.000,A,5327.4924,N,01001.6304,E,63.84,349.76,090114,,,A*5C
$GPGGA,115956.000,5327.6243,N,01001.5923,E,1,10,0.82,-14.5,M,46.1,M,,*7B
$GPRMC,115955.000,A,5327.6093,N,01001.5969,E,56.01,350.00,090114,,,A*57
$GPGGA,120004.000,5327.7350,N,01001.5637,E,1,10,0.82,-11.8,M,46.1,M,,*73
$GPRMC,120003.000,A,5327.7216,N,01001.5669,E,49.25,351.98,090114,,,A*52
$GPGGA,120016.000,5327.8440,N,01001.5651,E,1,10,0.82,-13.7,M,46.1,M,,*74
$GPRMC,120015.000,A,5327.8403,N,01001.5570,E,22.54,41.80,090114,,,A*63
$GPGGA,120046.000,5327.7690,N,01001.4340,E,1,9,0.91,-17.7,M,46.1,M,,*4B
$GPRMC,120045.000,A,5327.7668,N,01001.4473,E,30.29,283.62,090114,,,A*5C
$GPGGA,120112.000,5327.7906,N,01001.2425,E,1,10,0.82,-16.6,M,46.1,M,,*73
$GPRMC,120111.000,A,5327.7886,N,01001.2595,E,36.49,278.78,090114,,,A*52
$GPGGA,120123.000,5327.8084,N,01001.0602,E,1,10,0.91,-16.8,M,46.1,M,,*74
$GPRMC,120122.000,A,5327.8070,N,01001.0758,E,34.19,278.90,090114,,,A*5C
$GPGGA,120134.000,5327.8107,N,01000.8784,E,1,10,0.82,-16.6,M,46.1,M,,*72
$GPRMC,120133.000,A,5327.8115,N,01000.8938,E,34.24,266.19,090114,,,A*5F
$GPGGA,120147.000,5327.7968,N,01000.6960,E,1,10,0.82,-15.1,M,46.1,M,,*76
$GPRMC,120146.000,A,5327.7980,N,01000.7113,E,33.28,262.38,090114,,,A*54
$GPGGA,120159.000,5327.7816,N,01000.5082,E,1,10,0.81,-14.6,M,46.1,M,,*72
$GPRMC,120158.000,A,5327.7829,N,01000.5240,E,33.62,262.28,090114,,,A*51
$GPGGA,120211.000,5327.7747,N,01000.3238,E,1,10,0.82,-14.7,M,46.1,M,,*71
$GPRMC,120210.000,A,5327.7745,N,01000.3387,E,32.04,270.51,090114,,,A*5B
$GPGGA,120224.000,5327.7895,N,01000.1393,E,1,10,0.81,-14.6,M,46.1,M,,*77
$GPRMC,120223.000,A,5327.7877,N,01000.1540,E,32.31,282.17,090114,,,A*53
$GPGGA,120239.000,5327.8128,N,00959.9599,E,1,10,0.81,-10.1,M,46.1,M,,*78
$GPRMC,120238.000,A,5327.8120,N,00959.9685,E,20.96,278.68,090114,,,A*58
ping
$GPGGA,120334.000,5327.8606,N,00959.7962,E,1,10,0.82,-12.0,M,46.1,M,,*79
$GPRMC,120333.000,A,5327.8579,N,00959.8021,E,17.74,306.88,090114,,,A*5D
$GPGGA,120355.000,5327.9210,N,00959.6411,E,1,9,0.93,-15.5,M,46.1,M,,*4E
$GPRMC,120354.000,A,5327.9211,N,00959.6478,E,15.41,274.76,090114,,,A*53
$GPGGA,120410.000,5327.8152,N,00959.5886,E,1,10,0.81,-12.4,M,46.1,M,,*70
$GPRMC,120409.000,A,5327.8236,N,00959.5935,E,31.22,199.57,090114,,,A*5F
$GPGGA,120423.000,5327.7062,N,00959.5332,E,1,11,0.78,-11.4,M,46.1,M,,*7D
$GPRMC,120422.000,A,5327.7146,N,00959.5377,E,32.03,197.63,090114,,,A*58
$GPGGA,120437.000,5327.6004,N,00959.4705,E,1,11,0.78,-9.5,M,46.1,M,,*40
$GPRMC,120436.000,A,5327.6073,N,00959.4753,E,27.61,202.96,090114,,,A*5D
ping
$GPGGA,120534.000,5327.6495,N,00959.3060,E,1,10,0.81,-13.0,M,46.1,M,,*74
$GPRMC,120533.000,A,5327.6433,N,00959.3117,E,25.11,329.09,090114,,,A*53
$GPGGA,120551.000,5327.7279,N,00959.1734,E,1,9,0.91,-10.0,M,46.1,M,,*4C
$GPRMC,120550.000,A,5327.7227,N,00959.1807,E,24.23,316.84,090114,,,A*57
ping
$GPGGA,120624.000,5327.8364,N,00959.1633,E,1,8,1.27,-9.4,M,46.1,M,,*78
$GPRMC,120623.000,A,5327.8337,N,00959.1627,E,10.13,12.63,090114,,,A*69
ping
$GPGGA,120711.000,5327.9443,N,00959.2029,E,1,9,0.91,-8.5,M,46.1,M,,*7F
$GPRMC,120710.000,A,5327.9403,N,00959.2015,E,14.28,11.92,090114,,,A*6C
ping
ping
ping
ping
$DeviceName=pironex_auto
$Software=0.1.3
$Hardware=1
$LastValidPosition=
$IMEI=359193030849087
$LocalIP=10.48.148.1
$CmdVersion=2
$SUCCESS
$<end>
ping
ping
ping
ping
$GPGGA,152134.000,5327.9241,N,00959.5781,E,1,11,0.82,5.1,M,46.1,M,,*62
$GPRMC,152133.000,V,,,,,0.00,100.34,090114,,,N*41
ping
$GPGGA,152215.000,5327.8769,N,00959.7461,E,1,11,0.91,2.4,M,46.1,M,,*63
$GPRMC,152214.000,A,5327.8819,N,00959.7376,E,24.56,135.06,090114,,,A*5D
$GPGGA,152236.000,5327.8142,N,00959.9062,E,1,11,0.83,6.8,M,46.1,M,,*6F
$GPRMC,152235.000,A,5327.8170,N,00959.8944,E,27.18,113.02,090114,,,A*55
$GPGGA,152249.000,5327.7931,N,01000.0883,E,1,11,0.82,-0.5,M,46.1,M,,*49
$GPRMC,152248.000,A,5327.7949,N,01000.0748,E,30.28,102.16,090114,,,A*5C
$GPGGA,152303.000,5327.7732,N,01000.2729,E,1,11,0.83,-0.5,M,46.1,M,,*47
$GPRMC,152302.000,A,5327.7743,N,01000.2593,E,29.53,98.14,090114,,,A*65
$GPGGA,152317.000,5327.7745,N,01000.4552,E,1,11,0.83,1.3,M,46.1,M,,*60
$GPRMC,152316.000,A,5327.7740,N,01000.4458,E,20.85,84.72,090114,,,A*6C
$GPGGA,152344.000,5327.7838,N,01000.6397,E,1,11,0.83,2.7,M,46.1,M,,*69
$GPRMC,152343.000,A,5327.7833,N,01000.6286,E,24.05,82.67,090114,,,A*6E
$GPGGA,152400.000,5327.8021,N,01000.8267,E,1,11,0.83,0.2,M,46.1,M,,*66
$GPRMC,152359.000,A,5327.8008,N,01000.8133,E,26.80,82.32,090114,,,A*66
$GPGGA,152414.000,5327.8076,N,01001.0186,E,1,11,0.83,-3.5,M,46.1,M,,*4D
$GPRMC,152413.000,A,5327.8083,N,01001.0047,E,30.43,93.85,090114,,,A*63
$GPGGA,152428.000,5327.7908,N,01001.2105,E,1,11,0.83,-6.6,M,46.1,M,,*42
$GPRMC,152427.000,A,5327.7925,N,01001.1939,E,35.63,99.95,090114,,,A*63
$GPGGA,152438.000,5327.7706,N,01001.3930,E,1,11,0.83,-7.9,M,46.1,M,,*42
$GPRMC,152437.000,A,5327.7732,N,01001.3730,E,43.92,101.27,090114,,,A*59
$GPGGA,152448.000,5327.7524,N,01001.5816,E,1,8,1.04,-14.0,M,46.1,M,,*49
$GPRMC,152447.000,A,5327.7533,N,01001.5674,E,33.87,86.19,090114,,,A*6A
$GPGGA,152508.000,5327.8597,N,01001.5636,E,1,11,0.83,-10.8,M,46.1,M,,*7D
$GPRMC,152507.000,A,5327.8560,N,01001.5757,E,28.66,295.18,090114,,,A*52
$GPGGA,152519.000,5327.9667,N,01001.5013,E,1,11,0.83,-14.6,M,46.1,M,,*7B
$GPRMC,152518.000,A,5327.9523,N,01001.5050,E,50.61,351.57,090114,,,A*50
$GPGGA,152526.000,5328.0832,N,01001.4740,E,1,11,0.83,-13.6,M,46.1,M,,*78
$GPRMC,152525.000,A,5328.0651,N,01001.4779,E,64.15,352.17,090114,,,A*50
$GPGGA,152532.000,5328.1938,N,01001.4506,E,1,11,0.80,-10.6,M,46.1,M,,*77
$GPRMC,152531.000,A,5328.1758,N,01001.4544,E,65.20,352.80,090114,,,A*59
$GPGGA,152539.000,5328.3166,N,01001.4244,E,1,11,0.83,-7.4,M,46.1,M,,*4B
$GPRMC,152538.000,A,5328.2999,N,01001.4280,E,61.18,352.58,090114,,,A*55
$GPGGA,152546.000,5328.4312,N,01001.4001,E,1,11,0.83,-5.3,M,46.1,M,,*43
$GPRMC,152545.000,A,5328.4155,N,01001.4033,E,57.68,352.63,090114,,,A*51
$GPGGA,152554.000,5328.5492,N,01001.3748,E,1,11,0.83,-5.7,M,46.1,M,,*47
$GPRMC,152553.000,A,5328.5349,N,01001.3780,E,51.64,352.68,090114,,,A*51
$GPGGA,152602.000,5328.6699,N,01001.3571,E,1,11,0.83,-7.4,M,46.0,M,,*45
$GPRMC,152601.000,A,5328.6539,N,01001.3574,E,57.52,358.07,090114,,,A*5E
$GPGGA,152609.000,5328.7784,N,01001.3733,E,1,11,0.83,-9.8,M,46.0,M,,*44
$GPRMC,152608.000,A,5328.7634,N,01001.3690,E,55.08,8.30,090114,,,A*5E
$GPGGA,152617.000,5328.8874,N,01001.4265,E,1,11,0.83,-13.9,M,46.0,M,,*7F
$GPRMC,152616.000,A,5328.8751,N,01001.4184,E,48.17,20.09,090114,,,A*6B
$GPGGA,152626.000,5328.9927,N,01001.5106,E,1,11,0.83,-16.1,M,46.0,M,,*71
$GPRMC,152625.000,A,5328.9814,N,01001.5010,E,46.13,26.47,090114,,,A*6F
$GPGGA,152635.000,5329.0922,N,01001.5958,E,1,11,0.83,-16.9,M,46.0,M,,*75
$GPRMC,152634.000,A,5329.0809,N,01001.5861,E,45.36,26.54,090114,,,A*63
$GPGGA,152644.000,5329.1946,N,01001.6798,E,1,11,0.83,-17.1,M,46.0,M,,*78
$GPRMC,152643.000,A,5329.1831,N,01001.6704,E,45.35,25.75,090114,,,A*65
$GPGGA,152652.000,5329.2921,N,01001.7606,E,1,10,0.92,-16.8,M,46.0,M,,*73
$GPRMC,152651.000,A,5329.2801,N,01001.7509,E,47.62,25.88,090114,,,A*6A
$GPGGA,152701.000,5329.4003,N,01001.8526,E,1,11,0.83,-17.3,M,46.0,M,,*7E
$GPRMC,152700.000,A,5329.3877,N,01001.8422,E,49.07,26.36,090114,,,A*63
$GPGGA,152708.000,5329.4968,N,01001.9326,E,1,11,0.83,-17.7,M,46.0,M,,*70
$GPRMC,152707.000,A,5329.4824,N,01001.9208,E,56.83,26.20,090114,,,A*6F
$GPGGA,152715.000,5329.6014,N,01002.0210,E,1,11,0.83,-18.0,M,46.0,M,,*7A
$GPRMC,152714.000,A,5329.5861,N,01002.0083,E,61.71,26.65,090114,,,A*6E
$GPGGA,152722.000,5329.7007,N,01002.1037,E,1,11,0.83,-18.3,M,46.0,M,,*78
$GPRMC,152721.000,A,5329.6873,N,01002.0924,E,54.04,26.22,090114,,,A*6B
$GPGGA,152729.000,5329.7987,N,01002.1852,E,1,11,0.83,-16.8,M,46.0,M,,*7C
$GPRMC,152728.000,A,5329.7849,N,01002.1736,E,56.41,26.67,090114,,,A*64
$GPGGA,152737.000,5329.9017,N,01002.2696,E,1,11,0.83,-12.2,M,46.0,M,,*76
$GPRMC,152736.000,A,5329.8892,N,01002.2598,E,50.07,25.49,090114,,,A*6C
$GPGGA,152746.000,5330.0139,N,01002.3375,E,1,11,0.83,-10.2,M,46.0,M,,*77
$GPRMC,152745.000,A,5330.0006,N,01002.3315,E,49.18,16.01,090114,,,A*65
$GPGGA,152754.000,5330.1227,N,01002.3614,E,1,11,0.83,-9.7,M,46.0,M,,*46
$GPRMC,152753.000,A,5330.1087,N,01002.3603,E,50.42,3.98,090114,,,A*5B
$GPGGA,152802.000,5330.2310,N,01002.3545,E,1,11,0.83,-11.4,M,46.0,M,,*71
$GPRMC,152801.000,A,5330.2172,N,01002.3561,E,49.27,355.92,090114,,,A*5D
$GPGGA,152810.000,5330.3400,N,01002.3571,E,1,9,0.99,-13.6,M,46.0,M,,*40
$GPRMC,152809.000,A,5330.3261,N,01002.3539,E,49.88,6.44,090114,,,A*53
$GPGGA,152818.000,5330.4500,N,01002.4279,E,1,11,0.83,-13.7,M,46.0,M,,*75
$GPRMC,152817.000,A,5330.4369,N,01002.4143,E,55.13,29.74,090114,,,A*6D
$GPGGA,152826.000,5330.5325,N,01002.5752,E,1,11,0.83,-13.6,M,46.0,M,,*74
$GPRMC,152825.000,A,5330.5247,N,01002.5540,E,53.34,55.73,090114,,,A*69
$GPGGA,152834.000,5330.5701,N,01002.7622,E,1,11,0.83,-13.4,M,46.0,M,,*73
$GPRMC,152833.000,A,5330.5677,N,01002.7375,E,53.69,78.88,090114,,,A*68
$GPGGA,152842.000,5330.5720,N,01002.9527,E,1,11,0.83,-11.4,M,46.0,M,,*7B
$GPRMC,152841.000,A,5330.5726,N,01002.9301,E,48.83,92.04,090114,,,A*6B
$GPGGA,152851.000,5330.5684,N,01003.1443,E,1,11,0.83,-9.3,M,46.0,M,,*42
$GPRMC,152850.000,A,5330.5688,N,01003.1241,E,43.91,91.76,090114,,,A*6C
$GPGGA,152901.000,5330.5635,N,01003.3391,E,1,10,0.90,-7.6,M,46.0,M,,*4E
$GPRMC,152900.000,A,5330.5640,N,01003.3201,E,40.92,92.12,090114,,,A*6B
$GPGGA,152911.000,5330.5586,N,01003.5339,E,1,11,0.83,-6.4,M,46.0,M,,*40
$GPRMC,152910.000,A,5330.5591,N,01003.5136,E,43.86,92.22,090114,,,A*61
$GPGGA,152921.000,5330.5538,N,01003.7298,E,1,11,0.83,-6.1,M,46.0,M,,*4B
$GPRMC,152920.000,A,5330.5543,N,01003.7098,E,42.68,92.45,090114,,,A*6A
$GPGGA,152930.000,5330.5485,N,01003.9232,E,1,11,0.83,-6.3,M,46.0,M,,*40
$GPRMC,152929.000,A,5330.5492,N,01003.9036,E,42.95,93.24,090114,,,A*60
$GPGGA,152940.000,5330.5350,N,01004.1063,E,1,11,0.83,-7.7,M,46.0,M,,*44
$GPRMC,152939.000,A,5330.5371,N,01004.0883,E,39.60,100.55,090114,,,A*58
$GPGGA,152952.000,5330.5049,N,01004.2967,E,1,11,0.83,-9.5,M,46.0,M,,*4E
$GPRMC,152951.000,A,5330.5079,N,01004.2808,E,36.13,107.04,090114,,,A*54
$GPGGA,153003.000,5330.4721,N,01004.4704,E,1,11,0.83,-11.7,M,46.0,M,,*7C
$GPRMC,153002.000,A,5330.4751,N,01004.4542,E,36.81,106.94,090114,,,A*50
$GPGGA,153013.000,5330.4440,N,01004.6530,E,1,11,0.83,-13.5,M,46.0,M,,*7E
$GPRMC,153012.000,A,5330.4465,N,01004.6331,E,43.44,102.28,090114,,,A*5D
$GPGGA,153022.000,5330.4292,N,01004.8330,E,1,11,0.83,-15.3,M,46.0,M,,*7D
$GPRMC,153021.000,A,5330.4300,N,01004.8125,E,43.98,94.36,090114,,,A*60
$GPGGA,153031.000,5330.4302,N,01005.0301,E,1,10,0.93,-16.8,M,46.0,M,,*74
$GPRMC,153030.000,A,5330.4292,N,01005.0071,E,48.88,86.68,090114,,,A*61
$GPGGA,153040.000,5330.4464,N,01005.2203,E,1,11,0.83,-16.2,M,46.0,M,,*7E
$GPRMC,153039.000,A,5330.4438,N,01005.2001,E,44.32,78.44,090114,,,A*69
$GPGGA,153049.000,5330.4788,N,01005.4103,E,1,11,0.83,-15.6,M,46.0,M,,*74
$GPRMC,153048.000,A,5330.4745,N,01005.3890,E,48.41,71.90,090114,,,A*6F
$GPGGA,153058.000,5330.5198,N,01005.5896,E,1,11,0.84,-16.7,M,46.0,M,,*73
$GPRMC,153057.000,A,5330.5153,N,01005.5706,E,44.55,68.27,090114,,,A*6A
$GPGGA,153107.000,5330.5655,N,01005.7668,E,1,11,0.84,-17.1,M,46.0,M,,*74
$GPRMC,153106.000,A,5330.5599,N,01005.7460,E,48.85,66.00,090114,,,A*66
$GPGGA,153116.000,5330.6157,N,01005.9460,E,1,11,0.84,-19.6,M,46.0,M,,*7F
$GPRMC,153115.000,A,5330.6103,N,01005.9269,E,45.41,64.59,090114,,,A*6A
$GPGGA,153125.000,5330.6668,N,01006.1171,E,1,7,1.01,-22.1,M,46.0,M,,*4E
$GPRMC,153124.000,A,5330.6610,N,01006.0979,E,46.11,63.62,090114,,,A*64
$GPGGA,153132.000,,,,,0,0,,,M,,M,,*4F
$GPRMC,153131.000,V,,,,,42.63,77.12,090114,,,E*4F
$GPGGA,153135.000,5330.7242,N,01006.2903,E,1,7,1.16,-24.3,M,46.0,M,,*4E
$GPRMC,153134.000,V,,,,,42.00,72.04,090114,,,N*46
$GPGGA,153147.000,5330.7818,N,01006.4562,E,1,11,0.84,-19.1,M,46.0,M,,*72
$GPRMC,153146.000,A,5330.7776,N,01006.4450,E,29.60,58.90,090114,,,A*68
$GPGGA,153202.000,5330.8395,N,01006.6113,E,1,11,0.84,-17.4,M,46.0,M,,*7A
$GPRMC,153201.000,A,5330.8359,N,01006.6020,E,24.28,57.43,090114,,,A*6F
ping
$GPGGA,153239.000,5330.9006,N,01006.7643,E,1,11,0.84,-17.9,M,46.0,M,,*74
$GPRMC,153238.000,A,5330.8992,N,01006.7611,E,8.99,54.56,090114,,,A*5E
ping
$GPGGA,153311.000,5330.9651,N,01006.9113,E,1,11,0.84,-18.7,M,46.0,M,,*76
$GPRMC,153310.000,A,5330.9624,N,01006.9055,E,15.13,52.53,090114,,,A*63
ping
$GPGGA,153348.000,5331.0327,N,01007.0559,E,1,11,0.84,-19.2,M,46.0,M,,*70
$GPRMC,153347.000,A,5331.0305,N,01007.0514,E,12.61,51.24,090114,,,A*66
$GPGGA,153406.000,5331.1058,N,01007.1950,E,1,11,0.84,-18.4,M,46.0,M,,*74
$GPRMC,153405.000,A,5331.1026,N,01007.1889,E,18.93,49.29,090114,,,A*6F
$GPGGA,153430.000,5331.1789,N,01007.3300,E,1,11,0.84,-15.8,M,46.0,M,,*76
$GPRMC,153429.000,A,5331.1760,N,01007.3250,E,15.47,46.71,090114,,,A*6E
$GPGGA,153458.000,5331.2547,N,01007.4587,E,1,11,0.84,-14.9,M,46.0,M,,*75
$GPRMC,153457.000,A,5331.2519,N,01007.4539,E,16.02,45.08,090114,,,A*68
ping
$GPGGA,153553.000,5331.3332,N,01007.5852,E,1,12,0.82,-14.5,M,46.0,M,,*77
$GPRMC,153552.000,A,5331.3298,N,01007.5797,E,16.44,42.05,090114,,,A*6C
ping
$GPGGA,153636.000,5331.4135,N,01007.7079,E,1,12,0.82,-13.2,M,46.0,M,,*76
$GPRMC,153635.000,A,5331.4119,N,01007.7054,E,8.40,40.19,090114,,,A*5D
ping
ping
$GPGGA,153755.000,5331.4984,N,01007.8264,E,1,12,0.82,-12.7,M,46.0,M,,*75
$GPRMC,153754.000,A,5331.4960,N,01007.8228,E,10.71,43.57,090114,,,A*69
$GPGGA,153824.000,5331.5844,N,01007.9398,E,1,11,0.84,-11.0,M,46.0,M,,*72
$GPRMC,153823.000,A,5331.5811,N,01007.9357,E,15.07,36.98,090114,,,A*6D
$GPGGA,153854.000,5331.6749,N,01008.0448,E,1,11,0.81,-9.6,M,46.0,M,,*42
$GPRMC,153853.000,A,5331.6715,N,01008.0406,E,16.06,33.33,090114,,,A*61
$GPGGA,153920.000,5331.7692,N,01008.1466,E,1,10,0.97,-7.7,M,46.0,M,,*42
$GPRMC,153919.000,A,5331.7648,N,01008.1419,E,19.12,31.74,090114,,,A*62
$GPGGA,153938.000,5331.8638,N,01008.2461,E,1,11,0.84,-4.6,M,46.0,M,,*41
$GPRMC,153937.000,A,5331.8573,N,01008.2398,E,26.15,30.49,090114,,,A*63
$GPGGA,153951.000,5331.9612,N,01008.3398,E,1,11,0.90,-2.5,M,46.0,M,,*47
$GPRMC,153950.000,A,5331.9540,N,01008.3332,E,29.52,29.35,090114,,,A*6D
$GPGGA,154004.000,5332.0620,N,01008.4321,E,1,11,0.90,-2.1,M,46.0,M,,*43
$GPRMC,154003.000,A,5332.0541,N,01008.4252,E,31.95,28.28,090114,,,A*61
$GPGGA,154016.000,5332.1637,N,01008.5197,E,1,9,1.05,-1.3,M,46.0,M,,*7C
$GPRMC,154015.000,A,5332.1552,N,01008.5125,E,34.05,26.63,090114,,,A*6A
$GPGGA,154027.000,5332.2725,N,01008.6038,E,1,9,1.05,-1.2,M,46.0,M,,*79
$GPRMC,154026.000,A,5332.2600,N,01008.5948,E,47.29,23.41,090114,,,A*61
$GPGGA,154035.000,5332.3749,N,01008.6816,E,1,9,1.05,-0.3,M,46.0,M,,*75
$GPRMC,154034.000,A,5332.3621,N,01008.6721,E,49.53,24.40,090114,,,A*67
$GPGGA,154043.000,5332.4852,N,01008.7559,E,1,10,0.95,-0.5,M,46.0,M,,*47
$GPRMC,154042.000,A,5332.4703,N,01008.7467,E,56.63,20.55,090114,,,A*6D
$GPGGA,154050.000,5332.5958,N,01008.8172,E,1,10,0.95,-0.5,M,46.0,M,,*4D
$GPRMC,154049.000,A,5332.5795,N,01008.8087,E,61.36,17.66,090114,,,A*6D
$GPGGA,154057.000,5332.7101,N,01008.8713,E,1,11,0.95,-0.2,M,46.0,M,,*4B
$GPRMC,154056.000,A,5332.6936,N,01008.8642,E,61.02,14.10,090114,,,A*6D
$GPGGA,154104.000,5332.8224,N,01008.9158,E,1,10,0.97,-0.2,M,46.0,M,,*4C
$GPRMC,154103.000,A,5332.8064,N,01008.9097,E,58.87,12.55,090114,,,A*63
$GPGGA,154111.000,5332.9362,N,01008.9572,E,1,9,1.03,0.6,M,46.0,M,,*5B
$GPRMC,154110.000,A,5332.9200,N,01008.9514,E,60.56,12.04,090114,,,A*6D
$GPGGA,154118.000,5333.0499,N,01009.0010,E,1,11,0.84,1.6,M,46.0,M,,*66
$GPRMC,154117.000,A,5333.0339,N,01008.9943,E,59.51,13.62,090114,,,A*6B
$GPGGA,154125.000,5333.1593,N,01009.0483,E,1,12,0.82,2.2,M,46.0,M,,*6E
$GPRMC,154124.000,A,5333.1438,N,01009.0412,E,57.63,14.49,090114,,,A*6C
$GPGGA,154132.000,5333.2731,N,01009.1140,E,1,12,0.82,2.6,M,46.0,M,,*6E
$GPRMC,154131.000,A,5333.2563,N,01009.1032,E,64.60,20.40,090114,,,A*6E
$GPGGA,154138.000,5333.3764,N,01009.1951,E,1,12,0.82,3.0,M,46.0,M,,*6A
$GPRMC,154137.000,A,5333.3587,N,01009.1792,E,71.24,27.25,090114,,,A*6E
$GPGGA,154144.000,5333.4762,N,01009.3040,E,1,12,0.82,2.5,M,46.0,M,,*6F
$GPRMC,154143.000,A,5333.4608,N,01009.2848,E,69.49,34.90,090114,,,A*6B
$GPGGA,154150.000,5333.5610,N,01009.4295,E,1,12,0.82,1.5,M,46.0,M,,*61
$GPRMC,154149.000,A,5333.5477,N,01009.4075,E,68.01,42.43,090114,,,A*68
$GPGGA,154157.000,5333.6277,N,01009.5771,E,1,11,0.84,0.9,M,46.0,M,,*66
$GPRMC,154156.000,A,5333.6205,N,01009.5574,E,50.33,56.68,090114,,,A*65
$GPGGA,154206.000,5333.6783,N,01009.7636,E,1,10,1.00,1.0,M,46.0,M,,*6B
$GPRMC,154205.000,A,5333.6743,N,01009.7401,E,52.30,72.85,090114,,,A*62
$GPGGA,154214.000,5333.6913,N,01009.9495,E,1,11,0.90,2.7,M,46.0,M,,*67
$GPRMC,154213.000,A,5333.6914,N,01009.9278,E,47.22,90.02,090114,,,A*6B
$GPGGA,154223.000,5333.6910,N,01010.1427,E,1,12,0.82,5.1,M,46.0,M,,*68
$GPRMC,154222.000,A,5333.6909,N,01010.1218,E,45.56,89.75,090114,,,A*6A
$GPGGA,154232.000,5333.6955,N,01010.3338,E,1,10,0.95,7.2,M,46.0,M,,*67
$GPRMC,154231.000,A,5333.6945,N,01010.3126,E,46.21,85.75,090114,,,A*63
$GPGGA,154241.000,5333.7183,N,01010.5269,E,1,11,0.90,8.6,M,46.0,M,,*6D
$GPRMC,154240.000,A,5333.7147,N,01010.5051,E,48.56,75.47,090114,,,A*69
$GPGGA,154250.000,5333.7593,N,01010.7179,E,1,10,1.00,9.7,M,46.0,M,,*61
$GPRMC,154249.000,A,5333.7539,N,01010.6966,E,49.12,67.34,090114,,,A*65
$GPGGA,154258.000,5333.8103,N,01010.8890,E,1,11,0.90,12.2,M,46.0,M,,*5C
$GPRMC,154257.000,A,5333.8033,N,01010.8681,E,51.49,61.53,090114,,,A*62
$GPGGA,154305.000,5333.8700,N,01011.0462,E,1,12,0.82,14.5,M,46.0,M,,*59
$GPRMC,154304.000,A,5333.8603,N,01011.0228,E,60.25,55.75,090114,,,A*65
$GPGGA,154312.000,5333.9418,N,01011.1989,E,1,11,0.90,14.7,M,46.0,M,,*5F
$GPRMC,154311.000,A,5333.9314,N,01011.1785,E,58.27,49.72,090114,,,A*63
$GPGGA,154320.000,5334.0258,N,01011.3406,E,1,12,0.82,12.9,M,46.0,M,,*52
$GPRMC,154319.000,A,5334.0145,N,01011.3237,E,53.59,42.70,090114,,,A*66
$GPGGA,154327.000,5334.1209,N,01011.4659,E,1,10,0.95,11.3,M,46.0,M,,*52
$GPRMC,154326.000,A,5334.1059,N,01011.4470,E,66.48,37.30,090114,,,A*65
$GPGGA,154333.000,5334.2160,N,01011.5768,E,1,12,0.82,12.9,M,45.9,M,,*5D
$GPRMC,154332.000,A,5334.1996,N,01011.5579,E,70.67,33.96,090114,,,A*61
$GPGGA,154339.000,5334.3180,N,01011.6959,E,1,10,0.95,14.3,M,45.9,M,,*5F
$GPRMC,154338.000,A,5334.3008,N,01011.6761,E,75.07,34.53,090114,,,A*62
$GPGGA,154345.000,5334.4210,N,01011.8145,E,1,12,0.82,15.7,M,45.9,M,,*53
$GPRMC,154344.000,A,5334.4040,N,01011.7947,E,74.28,34.47,090114,,,A*60
$GPGGA,154351.000,5334.5205,N,01011.9289,E,1,11,0.85,19.3,M,45.9,M,,*5D
$GPRMC,154350.000,A,5334.5046,N,01011.9108,E,70.37,34.44,090114,,,A*66
$GPGGA,154357.000,5334.6136,N,01012.0365,E,1,12,0.82,23.8,M,45.9,M,,*54
$GPRMC,154356.000,A,5334.5980,N,01012.0187,E,68.08,34.37,090114,,,A*6F
$GPGGA,154403.000,5334.7045,N,01012.1413,E,1,11,0.90,28.1,M,45.9,M,,*53
$GPRMC,154402.000,A,5334.6898,N,01012.1244,E,64.55,34.50,090114,,,A*6A
$GPGGA,154410.000,5334.8083,N,01012.2609,E,1,11,0.84,31.2,M,45.9,M,,*50
$GPRMC,154409.000,A,5334.7928,N,01012.2430,E,66.81,34.41,090114,,,A*67
$GPGGA,154416.000,5334.9093,N,01012.3780,E,1,12,0.82,32.4,M,45.9,M,,*57
$GPRMC,154415.000,A,5334.8915,N,01012.3576,E,76.46,34.64,090114,,,A*64
$GPGGA,154421.000,5335.0021,N,01012.4845,E,1,12,0.82,31.0,M,45.9,M,,*54
$GPRMC,154420.000,A,5334.9832,N,01012.4627,E,81.58,34.57,090114,,,A*60
$GPGGA,154426.000,5335.0965,N,01012.5936,E,1,12,0.82,27.9,M,45.9,M,,*50
$GPRMC,154425.000,A,5335.0779,N,01012.5722,E,81.36,34.57,090114,,,A*60
$GPGGA,154431.000,5335.1874,N,01012.6979,E,1,12,0.82,24.8,M,45.9,M,,*5C
$GPRMC,154430.000,A,5335.1693,N,01012.6771,E,78.58,34.41,090114,,,A*6C
$GPGGA,154436.000,5335.2769,N,01012.8021,E,1,11,0.90,22.0,M,45.9,M,,*5F
$GPRMC,154435.000,A,5335.2590,N,01012.7814,E,78.73,34.73,090114,,,A*6F
$GPGGA,154442.000,5335.3828,N,01012.9236,E,1,12,0.82,22.7,M,45.9,M,,*55
$GPRMC,154441.000,A,5335.3656,N,01012.9038,E,75.84,34.24,090114,,,A*6B
$GPGGA,154448.000,5335.4812,N,01013.0372,E,1,12,0.82,23.5,M,45.9,M,,*5B
$GPRMC,154447.000,A,5335.4656,N,01013.0193,E,69.54,34.56,090114,,,A*67
$GPGGA,154455.000,5335.5836,N,01013.1555,E,1,12,0.82,24.3,M,45.9,M,,*53
$GPRMC,154454.000,A,5335.5691,N,01013.1387,E,63.68,34.52,090114,,,A*68
$GPGGA,154501.000,5335.6733,N,01013.2593,E,1,12,0.82,27.3,M,45.9,M,,*50
$GPRMC,154500.000,A,5335.6585,N,01013.2422,E,64.74,34.76,090114,,,A*6A
$GPGGA,154507.000,5335.7651,N,01013.3656,E,1,12,0.82,31.2,M,45.9,M,,*5F
$GPRMC,154506.000,A,5335.7494,N,01013.3476,E,68.38,34.25,090114,,,A*6E
$GPGGA,154513.000,5335.8582,N,01013.4738,E,1,12,0.82,30.6,M,45.9,M,,*53
$GPRMC,154512.000,A,5335.8428,N,01013.4556,E,67.73,34.68,090114,,,A*6E
$GPGGA,154519.000,5335.9574,N,01013.5852,E,1,12,0.82,28.0,M,45.9,M,,*5C
$GPRMC,154518.000,A,5335.9400,N,01013.5671,E,72.89,32.37,090114,,,A*65
$GPGGA,154525.000,5336.0684,N,01013.6847,E,1,12,0.82,28.5,M,45.9,M,,*57
$GPRMC,154524.000,A,5336.0494,N,01013.6696,E,75.69,25.97,090114,,,A*62
$GPGGA,154531.000,5336.1857,N,01013.7618,E,1,12,0.82,30.2,M,45.9,M,,*58
$GPRMC,154530.000,A,5336.1654,N,01013.7503,E,76.38,19.66,090114,,,A*60
$GPGGA,154537.000,5336.3091,N,01013.8164,E,1,12,0.82,32.0,M,45.9,M,,*5D
$GPRMC,154536.000,A,5336.2885,N,01013.8090,E,75.93,12.44,090114,,,A*6E
$GPGGA,154543.000,5336.4348,N,01013.8527,E,1,12,0.82,33.7,M,45.9,M,,*5B
$GPRMC,154542.000,A,5336.4136,N,01013.8470,E,77.44,9.12,090114,,,A*51
$GPGGA,154549.000,5336.5562,N,01013.8862,E,1,10,0.84,37.4,M,45.9,M,,*51
$GPRMC,154548.000,A,5336.5369,N,01013.8808,E,71.12,9.90,090114,,,A*5E
$GPGGA,154555.000,5336.6652,N,01013.9161,E,1,11,0.84,41.2,M,45.9,M,,*52
$GPRMC,154554.000,A,5336.6477,N,01013.9114,E,63.88,9.66,090114,,,A*54
$GPGGA,154602.000,5336.7873,N,01013.9505,E,1,11,0.84,41.5,M,45.9,M,,*5E
$GPRMC,154601.000,A,5336.7699,N,01013.9455,E,64.08,10.05,090114,,,A*66
$GPGGA,154608.000,5336.8983,N,01013.9852,E,1,10,0.96,36.9,M,45.9,M,,*54
$GPRMC,154607.000,A,5336.8790,N,01013.9791,E,69.92,11.19,090114,,,A*6E
$GPGGA,154614.000,5337.0199,N,01014.0253,E,1,11,0.90,31.9,M,45.9,M,,*56
$GPRMC,154613.000,A,5336.9996,N,01014.0171,E,75.06,12.77,090114,,,A*6F
$GPGGA,154620.000,5337.1355,N,01014.0948,E,1,11,0.90,29.1,M,45.9,M,,*52
$GPRMC,154619.000,A,5337.1172,N,01014.0811,E,72.85,22.49,090114,,,A*63
$GPGGA,154626.000,5337.2428,N,01014.1925,E,1,11,0.90,27.0,M,45.9,M,,*5F
$GPRMC,154625.000,A,5337.2252,N,01014.1743,E,74.42,30.61,090114,,,A*63
$GPGGA,154632.000,5337.3434,N,01014.3188,E,1,11,0.90,26.0,M,45.9,M,,*5A
$GPRMC,154631.000,A,5337.3270,N,01014.2955,E,77.04,39.53,090114,,,A*64
$GPGGA,154637.000,5337.4256,N,01014.4415,E,1,10,0.96,25.8,M,45.9,M,,*50
$GPRMC,154636.000,A,5337.4090,N,01014.4169,E,79.94,41.27,090114,,,A*62
$GPGGA,154643.000,5337.5209,N,01014.5831,E,1,11,0.90,26.0,M,45.9,M,,*5F
$GPRMC,154642.000,A,5337.5054,N,01014.5602,E,74.60,41.03,090114,,,A*63
$GPGGA,154649.000,5337.6149,N,01014.7229,E,1,11,0.90,26.1,M,45.9,M,,*51
$GPRMC,154648.000,A,5337.5990,N,01014.6994,E,76.34,41.27,090114,,,A*6E
$GPGGA,154655.000,5337.7058,N,01014.8582,E,1,10,0.96,26.8,M,45.9,M,,*5B
$GPRMC,154654.000,A,5337.6910,N,01014.8363,E,71.42,41.49,090114,,,A*6A
$GPGGA,154701.000,5337.7920,N,01014.9852,E,1,10,0.96,27.4,M,45.9,M,,*51
$GPRMC,154700.000,A,5337.7776,N,01014.9639,E,68.49,41.12,090114,,,A*63
$GPGGA,154707.000,5337.8808,N,01015.1169,E,1,10,0.96,28.6,M,45.9,M,,*56
$GPRMC,154706.000,A,5337.8658,N,01015.0948,E,72.21,41.35,090114,,,A*66
$GPGGA,154713.000,5337.9665,N,01015.2436,E,1,10,0.96,31.4,M,45.9,M,,*51
$GPRMC,154712.000,A,5337.9526,N,01015.2232,E,66.81,41.13,090114,,,A*67
$GPGGA,154720.000,5338.0605,N,01015.3835,E,1,10,0.96,31.5,M,45.9,M,,*5E
$GPRMC,154719.000,A,5338.0466,N,01015.3629,E,66.13,41.44,090114,,,A*69
$GPGGA,154726.000,5338.1460,N,01015.5105,E,1,10,0.96,30.7,M,45.9,M,,*57
$GPRMC,154725.000,A,5338.1316,N,01015.4890,E,69.22,41.48,090114,,,A*6D
$GPGGA,154732.000,5338.2287,N,01015.6532,E,1,11,0.90,30.4,M,45.9,M,,*59
$GPRMC,154731.000,A,5338.2158,N,01015.6276,E,71.79,48.65,090114,,,A*62
$GPGGA,154738.000,5338.2997,N,01015.8215,E,1,9,1.10,32.0,M,45.9,M,,*63
$GPRMC,154737.000,A,5338.2890,N,01015.7919,E,73.57,57.20,090114,,,A*6B
$GPGGA,154744.000,5338.3547,N,01016.0033,E,1,11,0.90,33.9,M,45.9,M,,*5D
$GPRMC,154743.000,A,5338.3465,N,01015.9728,E,72.12,64.91,090114,,,A*67
$GPGGA,154750.000,5338.4037,N,01016.1843,E,1,11,0.90,35.7,M,45.9,M,,*5B
$GPRMC,154749.000,A,5338.3954,N,01016.1543,E,70.91,65.00,090114,,,A*66
$GPGGA,154756.000,5338.4559,N,01016.3686,E,1,11,0.90,37.0,M,45.9,M,,*50
$GPRMC,154755.000,A,5338.4472,N,01016.3377,E,73.52,64.12,090114,,,A*68
$GPGGA,154802.000,5338.5070,N,01016.5494,E,1,10,1.12,36.1,M,45.9,M,,*5C
$GPRMC,154801.000,A,5338.4982,N,01016.5201,E,70.94,63.83,090114,,,A*64
$GPGGA,154808.000,5338.5701,N,01016.7248,E,1,11,0.90,32.0,M,45.9,M,,*5D
$GPRMC,154807.000,A,5338.5580,N,01016.6963,E,74.73,55.37,090114,,,A*66
$GPGGA,154814.000,5338.6529,N,01016.8854,E,1,10,0.96,33.4,M,45.9,M,,*51
$GPRMC,154813.000,A,5338.6379,N,01016.8601,E,76.61,46.06,090114,,,A*64
$GPGGA,154820.000,5338.7516,N,01017.0256,E,1,10,0.96,34.8,M,45.9,M,,*51
$GPRMC,154819.000,A,5338.7342,N,01017.0029,E,78.77,38.56,090114,,,A*67
$GPGGA,154825.000,5338.8393,N,01017.1432,E,1,10,0.96,32.8,M,45.9,M,,*53
$GPRMC,154824.000,A,5338.8216,N,01017.1190,E,81.79,39.30,090114,,,A*6D
$GPGGA,154830.000,5338.9271,N,01017.2604,E,1,10,0.96,29.1,M,45.9,M,,*5C
$GPRMC,154829.000,A,5338.9095,N,01017.2373,E,80.23,38.15,090114,,,A*6C
$GPGGA,154835.000,5339.0141,N,01017.3760,E,1,10,0.96,26.3,M,45.9,M,,*5E
$GPRMC,154834.000,A,5338.9971,N,01017.3535,E,78.75,38.53,090114,,,A*60
$GPGGA,154840.000,5339.0999,N,01017.4876,E,1,10,0.96,25.7,M,45.9,M,,*59
$GPRMC,154839.000,A,5339.0824,N,01017.4651,E,79.02,37.64,090114,,,A*68
$GPGGA,154845.000,5339.1888,N,01017.6011,E,1,10,0.96,25.1,M,45.9,M,,*51
$GPRMC,154844.000,A,5339.1712,N,01017.5790,E,79.64,37.52,090114,,,A*61
$GPGGA,154851.000,5339.2959,N,01017.7159,E,1,10,0.96,26.3,M,45.9,M,,*57
$GPRMC,154850.000,A,5339.2780,N,01017.6986,E,74.67,30.63,090114,,,A*6D
$GPGGA,154857.000,5339.4079,N,01017.8067,E,1,11,0.90,28.6,M,45.8,M,,*52
$GPRMC,154856.000,A,5339.3891,N,01017.7933,E,73.58,23.39,090114,,,A*6C
$GPGGA,154903.000,5339.5230,N,01017.8876,E,1,10,0.96,30.0,M,45.8,M,,*5C
$GPRMC,154902.000,A,5339.5038,N,01017.8739,E,75.55,22.69,090114,,,A*65
$GPGGA,154909.000,5339.6376,N,01017.9677,E,1,10,0.96,31.8,M,45.8,M,,*51
$GPRMC,154908.000,A,5339.6188,N,01017.9545,E,74.07,22.76,090114,,,A*66
$GPGGA,154915.000,5339.7497,N,01018.0454,E,1,10,0.96,33.4,M,45.8,M,,*5E
$GPRMC,154914.000,A,5339.7310,N,01018.0324,E,73.03,22.55,090114,,,A*6C
$GPGGA,154921.000,5339.8589,N,01018.1217,E,1,10,0.96,32.5,M,45.8,M,,*58
$GPRMC,154920.000,A,5339.8411,N,01018.1095,E,69.41,22.31,090114,,,A*65
$GPGGA,154927.000,5339.9641,N,01018.1961,E,1,11,0.90,31.5,M,45.8,M,,*56
$GPRMC,154926.000,A,5339.9465,N,01018.1836,E,68.92,22.64,090114,,,A*6F
$GPGGA,154933.000,5340.0715,N,01018.2709,E,1,10,0.96,30.6,M,45.8,M,,*52
$GPRMC,154932.000,A,5340.0535,N,01018.2584,E,70.35,22.72,090114,,,A*6D
$GPGGA,154939.000,5340.1766,N,01018.3462,E,1,11,0.90,29.1,M,45.8,M,,*5A
$GPRMC,154938.000,A,5340.1597,N,01018.3337,E,67.16,23.91,090114,,,A*6A
$GPGGA,154945.000,5340.2818,N,01018.4208,E,1,10,0.96,26.2,M,45.8,M,,*52
$GPRMC,154944.000,A,5340.2638,N,01018.4083,E,69.93,22.61,090114,,,A*62
$GPGGA,154951.000,5340.3884,N,01018.4954,E,1,11,0.90,23.1,M,45.8,M,,*50
$GPRMC,154950.000,A,5340.3708,N,01018.4829,E,68.60,22.64,090114,,,A*64
$GPGGA,154957.000,5340.4920,N,01018.5686,E,1,11,0.90,19.8,M,45.8,M,,*5F
$GPRMC,154956.000,A,5340.4749,N,01018.5568,E,66.56,22.75,090114,,,A*62
$GPGGA,155004.000,5340.6075,N,01018.6485,E,1,10,0.96,18.1,M,45.8,M,,*57
$GPRMC,155003.000,A,5340.5915,N,01018.6373,E,63.34,22.51,090114,,,A*64
$GPGGA,155011.000,5340.7183,N,01018.7269,E,1,10,0.96,17.9,M,45.8,M,,*58
$GPRMC,155010.000,A,5340.7020,N,01018.7154,E,63.25,22.67,090114,,,A*68
$GPGGA,155017.000,5340.8216,N,01018.7997,E,1,11,0.90,17.6,M,45.8,M,,*5C
$GPRMC,155016.000,A,5340.8044,N,01018.7876,E,67.50,22.73,090114,,,A*69
$GPGGA,155023.000,5340.9264,N,01018.8721,E,1,11,0.90,17.6,M,45.8,M,,*53
$GPRMC,155022.000,A,5340.9085,N,01018.8602,E,68.38,22.04,090114,,,A*61
$GPGGA,155029.000,5341.0356,N,01018.9464,E,1,11,0.90,18.3,M,45.8,M,,*58
$GPRMC,155028.000,A,5341.0174,N,01018.9334,E,70.78,22.75,090114,,,A*66
$GPGGA,155035.000,5341.1485,N,01019.0249,E,1,10,0.96,18.6,M,45.8,M,,*5E
$GPRMC,155034.000,A,5341.1292,N,01019.0116,E,74.38,22.31,090114,,,A*6B
$GPGGA,155041.000,5341.2654,N,01019.1075,E,1,9,1.00,19.3,M,45.8,M,,*6E
$GPRMC,155040.000,A,5341.2464,N,01019.0941,E,74.87,22.61,090114,,,A*6F
$GPGGA,155046.000,5341.3648,N,01019.1772,E,1,9,1.00,20.3,M,45.8,M,,*6F
$GPRMC,155045.000,A,5341.3443,N,01019.1627,E,79.40,22.63,090114,,,A*64
$GPGGA,155051.000,5341.4668,N,01019.2495,E,1,10,0.96,23.2,M,45.8,M,,*51
$GPRMC,155050.000,A,5341.4466,N,01019.2352,E,79.00,22.71,090114,,,A*63
$GPGGA,155056.000,5341.5665,N,01019.3193,E,1,11,0.90,24.2,M,45.8,M,,*58
$GPRMC,155055.000,A,5341.5467,N,01019.3055,E,76.98,22.35,090114,,,A*6D
$GPGGA,155101.000,5341.6669,N,01019.3897,E,1,11,0.90,24.9,M,45.8,M,,*52
$GPRMC,155100.000,A,5341.6465,N,01019.3754,E,79.11,22.59,090114,,,A*6F
$GPGGA,155106.000,5341.7718,N,01019.4576,E,1,11,0.90,25.3,M,45.8,M,,*5D
$GPRMC,155105.000,A,5341.7505,N,01019.4447,E,81.07,19.92,090114,,,A*65
$GPGGA,155111.000,5341.8792,N,01019.5198,E,1,10,1.01,24.8,M,45.8,M,,*51
$GPRMC,155110.000,A,5341.8575,N,01019.5075,E,81.30,18.67,090114,,,A*62
$GPGGA,155116.000,5341.9880,N,01019.5835,E,1,10,1.01,23.7,M,45.8,M,,*5D
$GPRMC,155115.000,A,5341.9664,N,01019.5709,E,82.07,19.10,090114,,,A*6F
$GPGGA,155121.000,5342.0989,N,01019.6471,E,1,10,1.01,23.4,M,45.8,M,,*57
$GPRMC,155120.000,A,5342.0767,N,01019.6342,E,85.01,19.06,090114,,,A*6F
$GPGGA,155126.000,5342.2057,N,01019.7086,E,1,11,0.90,23.5,M,45.8,M,,*5C
$GPRMC,155125.000,A,5342.1845,N,01019.6963,E,80.25,18.97,090114,,,A*67
$GPGGA,155131.000,5342.3143,N,01019.7710,E,1,10,0.96,23.6,M,45.8,M,,*53
$GPRMC,155130.000,A,5342.2924,N,01019.7586,E,82.80,18.79,090114,,,A*6D
$GPGGA,155136.000,5342.4258,N,01019.8362,E,1,11,0.90,23.6,M,45.8,M,,*53
$GPRMC,155135.000,A,5342.4032,N,01019.8227,E,86.02,19.50,090114,,,A*67
$GPGGA,155141.000,5342.5379,N,01019.9039,E,1,11,0.90,23.9,M,45.8,M,,*53
$GPRMC,155140.000,A,5342.5158,N,01019.8904,E,84.47,19.97,090114,,,A*6B
$GPGGA,155146.000,5342.6470,N,01019.9680,E,1,11,0.90,24.5,M,45.8,M,,*56
$GPRMC,155145.000,A,5342.6250,N,01019.9552,E,83.59,19.18,090114,,,A*67
$GPGGA,155151.000,5342.7556,N,01020.0315,E,1,10,1.01,25.0,M,45.8,M,,*52
$GPRMC,155150.000,A,5342.7341,N,01020.0187,E,82.05,19.27,090114,,,A*68
$GPGGA,155156.000,5342.8572,N,01020.1026,E,1,11,0.90,25.2,M,45.8,M,,*54
$GPRMC,155155.000,A,5342.8376,N,01020.0870,E,79.00,24.30,090114,,,A*6E
$GPGGA,155202.000,5342.9712,N,01020.2021,E,1,10,0.97,26.8,M,45.8,M,,*58
$GPRMC,155201.000,A,5342.9522,N,01020.1851,E,77.47,26.79,090114,,,A*6A
$GPGGA,155207.000,5343.0669,N,01020.2875,E,1,11,0.90,26.8,M,45.8,M,,*57
$GPRMC,155206.000,A,5343.0476,N,01020.2705,E,78.66,27.62,090114,,,A*6F
$GPGGA,155212.000,5343.1634,N,01020.3709,E,1,11,0.90,26.2,M,45.8,M,,*55
$GPRMC,155211.000,A,5343.1437,N,01020.3541,E,79.28,26.11,090114,,,A*60
$GPGGA,155217.000,5343.2628,N,01020.4582,E,1,11,0.90,24.7,M,45.8,M,,*5F
$GPRMC,155216.000,A,5343.2430,N,01020.4407,E,80.89,27.55,090114,,,A*6B
$GPGGA,155222.000,5343.3616,N,01020.5458,E,1,11,0.90,22.7,M,45.8,M,,*54
$GPRMC,155221.000,A,5343.3416,N,01020.5281,E,80.95,27.46,090114,,,A*6C
$GPGGA,155227.000,5343.4609,N,01020.6352,E,1,11,0.90,22.0,M,45.8,M,,*51
$GPRMC,155226.000,A,5343.4412,N,01020.6172,E,81.37,28.12,090114,,,A*63
$GPGGA,155232.000,5343.5570,N,01020.7227,E,1,11,0.90,24.1,M,45.8,M,,*5C
$GPRMC,155231.000,A,5343.5381,N,01020.7056,E,77.91,28.32,090114,,,A*68
$GPGGA,155238.000,5343.6694,N,01020.8214,E,1,11,0.90,23.6,M,45.8,M,,*53
$GPRMC,155237.000,A,5343.6504,N,01020.8046,E,77.12,27.54,090114,,,A*6C
$GPGGA,155243.000,5343.7666,N,01020.9078,E,1,11,0.90,21.3,M,45.8,M,,*5D
$GPRMC,155242.000,A,5343.7470,N,01020.8902,E,80.08,27.75,090114,,,A*64
$GPGGA,155248.000,5343.8643,N,01020.9941,E,1,11,0.90,19.7,M,45.8,M,,*52
$GPRMC,155247.000,A,5343.8448,N,01020.9769,E,78.97,27.54,090114,,,A*65
$GPGGA,155253.000,5343.9634,N,01021.0815,E,1,11,0.90,21.9,M,45.8,M,,*54
$GPRMC,155252.000,A,5343.9434,N,01021.0641,E,80.94,27.50,090114,,,A*68
$GPGGA,155258.000,5344.0616,N,01021.1680,E,1,11,0.90,23.7,M,45.8,M,,*5E
$GPRMC,155257.000,A,5344.0422,N,01021.1510,E,78.82,27.46,090114,,,A*65
$GPGGA,155303.000,5344.1583,N,01021.2540,E,1,11,0.90,22.9,M,45.8,M,,*5C
$GPRMC,155302.000,A,5344.1387,N,01021.2366,E,79.71,27.94,090114,,,A*6B
$GPGGA,155309.000,5344.2718,N,01021.3538,E,1,11,0.90,21.5,M,45.8,M,,*54
$GPRMC,155308.000,A,5344.2535,N,01021.3375,E,75.38,27.71,090114,,,A*64
$GPGGA,155315.000,5344.3785,N,01021.4472,E,1,11,0.90,20.3,M,45.8,M,,*53
$GPRMC,155314.000,A,5344.3612,N,01021.4327,E,69.95,26.87,090114,,,A*6C
$GPGGA,155321.000,5344.4882,N,01021.5416,E,1,11,0.90,19.6,M,45.8,M,,*57
$GPRMC,155320.000,A,5344.4690,N,01021.5248,E,77.32,27.36,090114,,,A*66
$GPGGA,155326.000,5344.5849,N,01021.6272,E,1,11,0.90,20.6,M,45.8,M,,*5B
$GPRMC,155325.000,A,5344.5657,N,01021.6099,E,78.52,27.82,090114,,,A*62
$GPGGA,155331.000,5344.6814,N,01021.7144,E,1,11,0.90,21.5,M,45.8,M,,*53
$GPRMC,155330.000,A,5344.6622,N,01021.6967,E,78.69,28.51,090114,,,A*66
$GPGGA,155337.000,5344.7930,N,01021.8154,E,1,11,0.90,21.7,M,45.7,M,,*50
$GPRMC,155336.000,A,5344.7749,N,01021.7994,E,74.28,27.82,090114,,,A*68
$GPGGA,155343.000,5344.8970,N,01021.9134,E,1,11,0.90,24.1,M,45.7,M,,*5C
$GPRMC,155342.000,A,5344.8806,N,01021.8966,E,69.99,30.74,090114,,,A*6B
$GPGGA,155349.000,5344.9942,N,01022.0221,E,1,11,0.90,25.8,M,45.7,M,,*53
$GPRMC,155348.000,A,5344.9781,N,01022.0034,E,70.29,34.10,090114,,,A*60
$GPGGA,155355.000,5345.0900,N,01022.1364,E,1,10,0.93,23.7,M,45.7,M,,*5A
$GPRMC,155354.000,A,5345.0736,N,01022.1165,E,71.54,35.66,090114,,,A*66
$GPGGA,155400.000,5345.1786,N,01022.2455,E,1,10,0.97,18.8,M,45.7,M,,*59
$GPRMC,155359.000,A,5345.1601,N,01022.2228,E,81.71,35.94,090114,,,A*63
$GPGGA,155405.000,5345.2706,N,01022.3579,E,1,10,0.93,15.2,M,45.7,M,,*5A
$GPRMC,155404.000,A,5345.2523,N,01022.3356,E,81.10,35.99,090114,,,A*6F
$GPGGA,155410.000,5345.3641,N,01022.4728,E,1,11,0.90,15.2,M,45.7,M,,*5E
$GPRMC,155409.000,A,5345.3452,N,01022.4493,E,84.54,36.22,090114,,,A*6B
$GPGGA,155415.000,5345.4622,N,01022.5931,E,1,10,0.97,18.2,M,45.7,M,,*55
$GPRMC,155414.000,A,5345.4422,N,01022.5689,E,88.25,35.43,090114,,,A*61
$GPGGA,155420.000,5345.5619,N,01022.7159,E,1,11,0.90,21.4,M,45.7,M,,*54
$GPRMC,155419.000,A,5345.5420,N,01022.6912,E,88.68,36.40,090114,,,A*68
$GPGGA,155425.000,5345.6616,N,01022.8403,E,1,11,0.90,24.2,M,45.7,M,,*5B
$GPRMC,155424.000,A,5345.6420,N,01022.8154,E,88.46,36.83,090114,,,A*62
$GPGGA,155430.000,5345.7606,N,01022.9650,E,1,11,0.90,24.6,M,45.7,M,,*5E
$GPRMC,155429.000,A,5345.7409,N,01022.9402,E,89.36,36.60,090114,,,A*69
$GPGGA,155435.000,5345.8514,N,01023.0947,E,1,11,0.90,23.7,M,45.7,M,,*53
$GPRMC,155434.000,A,5345.8344,N,01023.0680,E,83.71,42.52,090114,,,A*6F
$GPGGA,155440.000,5345.9311,N,01023.2369,E,1,11,0.90,19.2,M,45.7,M,,*5B
$GPRMC,155439.000,A,5345.9153,N,01023.2072,E,85.13,47.62,090114,,,A*6A
$GPGGA,155445.000,5346.0135,N,01023.3884,E,1,11,0.90,17.2,M,45.7,M,,*57
$GPRMC,155444.000,A,5345.9968,N,01023.3579,E,88.66,47.17,090114,,,A*62
$GPGGA,155450.000,5346.0955,N,01023.5399,E,1,11,0.90,15.4,M,45.7,M,,*58
$GPRMC,155449.000,A,5346.0794,N,01023.5102,E,86.52,47.47,090114,,,A*6A
$GPGGA,155455.000,5346.1734,N,01023.6847,E,1,10,0.96,9.7,M,45.7,M,,*67
$GPRMC,155454.000,A,5346.1579,N,01023.6562,E,83.11,47.46,090114,,,A*64
$GPGGA,155500.000,5346.2540,N,01023.8313,E,1,10,0.97,5.3,M,45.7,M,,*69
$GPRMC,155459.000,A,5346.2373,N,01023.8016,E,86.84,46.69,090114,,,A*6B
$GPGGA,155505.000,5346.3387,N,01023.9835,E,1,10,0.97,5.4,M,45.7,M,,*69
$GPRMC,155504.000,A,5346.3218,N,01023.9526,E,89.52,47.25,090114,,,A*65
$GPGGA,155510.000,5346.4234,N,01024.1391,E,1,11,0.90,6.1,M,45.7,M,,*69
$GPRMC,155509.000,A,5346.4066,N,01024.1081,E,90.14,47.50,090114,,,A*6B
$GPGGA,155515.000,5346.5080,N,01024.2937,E,1,10,0.97,6.7,M,45.7,M,,*65
$GPRMC,155514.000,A,5346.4909,N,01024.2625,E,90.34,47.36,090114,,,A*6E
$GPGGA,155520.000,5346.5944,N,01024.4452,E,1,10,0.97,7.7,M,45.7,M,,*6B
$GPRMC,155519.000,A,5346.5764,N,01024.4165,E,89.07,44.22,090114,,,A*6C
$GPGGA,155525.000,5346.6893,N,01024.5789,E,1,11,0.90,11.5,M,45.7,M,,*51
$GPRMC,155524.000,A,5346.6698,N,01024.5530,E,89.70,38.55,090114,,,A*6D
$GPGGA,155530.000,5346.7851,N,01024.7026,E,1,11,0.90,11.5,M,45.7,M,,*5A
$GPRMC,155529.000,A,5346.7663,N,01024.6784,E,85.85,37.74,090114,,,A*61
$GPGGA,155535.000,5346.8759,N,01024.8202,E,1,10,0.97,6.9,M,45.7,M,,*60
$GPRMC,155534.000,A,5346.8581,N,01024.7971,E,81.82,37.63,090114,,,A*6D
$GPGGA,155540.000,5346.9622,N,01024.9325,E,1,11,0.90,5.5,M,45.7,M,,*62
$GPRMC,155539.000,A,5346.9454,N,01024.9108,E,77.32,37.60,090114,,,A*61
$GPGGA,155545.000,5347.0493,N,01025.0454,E,1,11,0.90,5.7,M,45.7,M,,*6C
$GPRMC,155544.000,A,5347.0312,N,01025.0219,E,81.53,37.76,090114,,,A*64
$GPGGA,155550.000,5347.1438,N,01025.1680,E,1,11,0.89,6.2,M,45.7,M,,*6C
$GPRMC,155549.000,A,5347.1245,N,01025.1428,E,87.56,37.47,090114,,,A*6F
$GPGGA,155555.000,5347.2405,N,01025.2934,E,1,11,0.90,4.4,M,45.7,M,,*6B
$GPRMC,155554.000,A,5347.2209,N,01025.2680,E,88.63,37.42,090114,,,A*67
$GPGGA,155600.000,5347.3374,N,01025.4227,E,1,11,0.89,4.8,M,45.7,M,,*63
$GPRMC,155559.000,A,5347.3183,N,01025.3961,E,88.35,39.08,090114,,,A*68
$GPGGA,155605.000,5347.4272,N,01025.5684,E,1,10,0.97,9.1,M,45.7,M,,*60
$GPRMC,155604.000,A,5347.4102,N,01025.5376,E,89.24,46.04,090114,,,A*62
$GPGGA,155610.000,5347.5097,N,01025.7295,E,1,10,1.08,11.1,M,45.7,M,,*54
$GPRMC,155609.000,A,5347.4931,N,01025.6969,E,90.92,49.48,090114,,,A*62
$GPGGA,155615.000,5347.5922,N,01025.8920,E,1,11,0.89,8.5,M,45.7,M,,*69
$GPRMC,155614.000,A,5347.5759,N,01025.8599,E,90.43,49.38,090114,,,A*69
$GPGGA,155620.000,5347.6728,N,01026.0514,E,1,11,0.89,10.9,M,45.7,M,,*5D
$GPRMC,155619.000,A,5347.6567,N,01026.0196,E,88.97,49.45,090114,,,A*62
$GPGGA,155625.000,5347.7557,N,01026.2148,E,1,11,0.89,16.7,M,45.7,M,,*54
$GPRMC,155624.000,A,5347.7388,N,01026.1816,E,92.70,49.34,090114,,,A*6E
$GPGGA,155630.000,5347.8406,N,01026.3823,E,1,11,0.89,22.0,M,45.7,M,,*5F
$GPRMC,155629.000,A,5347.8239,N,01026.3492,E,93.93,49.40,090114,,,A*6A
$GPGGA,155635.000,5347.9187,N,01026.5358,E,1,10,1.08,23.6,M,45.7,M,,*58
$GPRMC,155634.000,A,5347.9041,N,01026.5070,E,82.33,49.25,090114,,,A*6D
$GPGGA,155641.000,5348.0020,N,01026.6997,E,1,11,0.89,24.4,M,45.7,M,,*57
$GPRMC,155640.000,A,5347.9885,N,01026.6732,E,75.41,49.47,090114,,,A*65
$GPGGA,155647.000,5348.0806,N,01026.8539,E,1,10,1.08,25.3,M,45.7,M,,*54
$GPRMC,155646.000,A,5348.0677,N,01026.8284,E,72.10,49.36,090114,,,A*65
$GPGGA,155653.000,5348.1593,N,01027.0089,E,1,11,0.89,26.0,M,45.7,M,,*5F
$GPRMC,155652.000,A,5348.1458,N,01026.9825,E,74.54,48.99,090114,,,A*6C
$GPGGA,155659.000,5348.2418,N,01027.1705,E,1,11,0.89,26.8,M,45.7,M,,*5E
$GPRMC,155658.000,A,5348.2280,N,01027.1434,E,76.23,49.18,090114,,,A*69
$GPGGA,155705.000,5348.3276,N,01027.3281,E,1,11,0.89,23.3,M,45.7,M,,*5C
$GPRMC,155704.000,A,5348.3128,N,01027.3028,E,75.42,45.48,090114,,,A*67
$GPGGA,155711.000,5348.4227,N,01027.4684,E,1,11,0.89,18.6,M,45.7,M,,*51
$GPRMC,155710.000,A,5348.4065,N,01027.4462,E,75.47,39.89,090114,,,A*63
$GPGGA,155717.000,5348.5158,N,01027.5923,E,1,11,0.89,13.7,M,45.7,M,,*54
$GPRMC,155716.000,A,5348.5008,N,01027.5727,E,69.19,37.89,090114,,,A*64
$GPGGA,155723.000,5348.6135,N,01027.7198,E,1,11,0.89,9.1,M,45.7,M,,*6C
$GPRMC,155722.000,A,5348.5961,N,01027.6970,E,78.73,37.49,090114,,,A*6A
$GPGGA,155728.000,5348.7032,N,01027.8448,E,1,11,0.89,5.3,M,45.7,M,,*69
$GPRMC,155727.000,A,5348.6849,N,01027.8182,E,85.60,40.61,090114,,,A*66
$GPGGA,155733.000,5348.7912,N,01027.9831,E,1,10,0.97,1.1,M,45.7,M,,*63
$GPRMC,155732.000,A,5348.7744,N,01027.9549,E,85.42,44.40,090114,,,A*64
$GPGGA,155738.000,5348.8669,N,01028.1224,E,1,11,0.89,-2.7,M,45.7,M,,*4B
$GPRMC,155737.000,A,5348.8529,N,01028.0946,E,78.15,48.94,090114,,,A*67
$GPGGA,155743.000,5348.9337,N,01028.2668,E,1,11,0.89,-6.2,M,45.7,M,,*46
$GPRMC,155742.000,A,5348.9210,N,01028.2373,E,77.94,53.10,090114,,,A*67
$GPGGA,155749.000,5349.0030,N,01028.4459,E,1,10,1.03,-8.6,M,45.7,M,,*4E
$GPRMC,155748.000,A,5348.9923,N,01028.4156,E,74.85,58.47,090114,,,A*6F
$GPGGA,155755.000,5349.0630,N,01028.6394,E,1,11,0.89,-9.0,M,45.6,M,,*45
$GPRMC,155754.000,A,5349.0535,N,01028.6057,E,78.46,63.61,090114,,,A*6C
$GPGGA,155800.000,5349.1088,N,01028.8203,E,1,11,0.89,-8.1,M,45.6,M,,*4F
$GPRMC,155759.000,A,5349.1000,N,01028.7821,E,85.95,68.20,090114,,,A*69
$GPGGA,155805.000,5349.1470,N,01029.0166,E,1,11,0.89,-5.0,M,45.6,M,,*4C
$GPRMC,155804.000,A,5349.1402,N,01028.9769,E,87.27,73.07,090114,,,A*61
$GPGGA,155810.000,5349.1758,N,01029.2206,E,1,10,0.97,0.3,M,45.6,M,,*63
$GPRMC,155809.000,A,5349.1708,N,01029.1789,E,90.13,78.05,090114,,,A*6A
$GPGGA,155815.000,5349.1942,N,01029.4294,E,1,10,1.07,7.0,M,45.6,M,,*62
$GPRMC,155814.000,A,5349.1914,N,01029.3878,E,90.29,82.94,090114,,,A*62
$GPGGA,155820.000,5349.2015,N,01029.6357,E,1,11,0.89,12.3,M,45.6,M,,*51
$GPRMC,155819.000,A,5349.2004,N,01029.5949,E,87.31,86.32,090114,,,A*66
$GPGGA,155825.000,5349.2042,N,01029.8430,E,1,10,1.00,14.3,M,45.6,M,,*59
$GPRMC,155824.000,A,5349.2037,N,01029.8008,E,89.46,88.32,090114,,,A*69
$GPGGA,155830.000,5349.2067,N,01030.0528,E,1,11,0.89,14.9,M,45.6,M,,*59
$GPRMC,155829.000,A,5349.2063,N,01030.0115,E,88.95,88.88,090114,,,A*66
$GPGGA,155835.000,5349.2093,N,01030.2585,E,1,11,0.89,10.9,M,45.6,M,,*56
$GPRMC,155834.000,A,5349.2088,N,01030.2165,E,89.17,88.83,090114,,,A*6A
$GPGGA,155840.000,5349.2110,N,01030.4701,E,1,11,0.89,8.2,M,45.6,M,,*64
$GPRMC,155839.000,A,5349.2108,N,01030.4272,E,90.93,89.04,090114,,,A*67
$GPGGA,155845.000,5349.2124,N,01030.6795,E,1,11,0.89,6.5,M,45.6,M,,*60
$GPRMC,155844.000,A,5349.2121,N,01030.6386,E,87.56,89.04,090114,,,A*61
$GPGGA,155850.000,5349.2153,N,01030.8792,E,1,11,0.89,1.8,M,45.6,M,,*67
$GPRMC,155849.000,A,5349.2144,N,01030.8390,E,84.97,88.02,090114,,,A*6F
$GPGGA,155855.000,5349.2199,N,01031.0868,E,1,11,0.89,-1.6,M,45.6,M,,*44
$GPRMC,155854.000,A,5349.2190,N,01031.0454,E,88.46,87.95,090114,,,A*6D
$GPGGA,155900.000,5349.2315,N,01031.2861,E,1,10,1.04,2.8,M,45.6,M,,*6D
$GPRMC,155859.000,A,5349.2281,N,01031.2470,E,84.46,82.75,090114,,,A*60
$GPGGA,155905.000,5349.2565,N,01031.4865,E,1,11,0.89,4.2,M,45.6,M,,*62
$GPRMC,155904.000,A,5349.2504,N,01031.4457,E,88.52,76.37,090114,,,A*64
$GPGGA,155910.000,5349.2957,N,01031.6893,E,1,11,0.89,0.2,M,45.6,M,,*64
$GPRMC,155909.000,A,5349.2869,N,01031.6494,E,89.97,70.01,090114,,,A*69
$GPGGA,155915.000,5349.3474,N,01031.8803,E,1,11,0.89,-2.9,M,45.6,M,,*4F
$GPRMC,155914.000,A,5349.3360,N,01031.8438,E,88.46,63.39,090114,,,A*6A
$GPGGA,155920.000,5349.4055,N,01032.0537,E,1,11,0.89,-1.8,M,45.6,M,,*4A
$GPRMC,155919.000,A,5349.3940,N,01032.0197,E,83.57,60.10,090114,,,A*67
$GPGGA,155925.000,5349.4622,N,01032.2235,E,1,11,0.89,-3.5,M,45.6,M,,*41
$GPRMC,155924.000,A,5349.4508,N,01032.1899,E,82.76,60.35,090114,,,A*6D
$GPGGA,155930.000,5349.5197,N,01032.3942,E,1,11,0.89,-5.7,M,45.6,M,,*43
$GPRMC,155929.000,A,5349.5080,N,01032.3593,E,84.77,60.44,090114,,,A*60
$GPGGA,155935.000,5349.5817,N,01032.5740,E,1,11,0.89,-6.5,M,45.6,M,,*4C
$GPRMC,155934.000,A,5349.5689,N,01032.5374,E,89.54,59.52,090114,,,A*6B
$GPGGA,155940.000,5349.6482,N,01032.7566,E,1,10,1.04,-5.6,M,45.6,M,,*4C
$GPRMC,155939.000,A,5349.6347,N,01032.7210,E,90.36,57.83,090114,,,A*6D
$GPGGA,155945.000,5349.7183,N,01032.9320,E,1,11,0.89,-6.9,M,45.6,M,,*4F
$GPRMC,155944.000,A,5349.7038,N,01032.8970,E,91.03,55.41,090114,,,A*64
$GPGGA,155950.000,5349.7940,N,01033.1033,E,1,11,0.89,-11.7,M,45.6,M,,*7C
$GPRMC,155949.000,A,5349.7787,N,01033.0700,E,90.45,52.82,090114,,,A*61
$GPGGA,155955.000,5349.8652,N,01033.2521,E,1,11,0.89,-15.0,M,45.6,M,,*7C
$GPRMC,155954.000,A,5349.8516,N,01033.2241,E,78.31,51.16,090114,,,A*61
$GPGGA,160001.000,5349.9418,N,01033.4071,E,1,10,1.07,-15.2,M,45.6,M,,*7D
$GPRMC,160000.000,A,5349.9298,N,01033.3847,E,67.71,48.34,090114,,,A*60
$GPGGA,160008.000,5350.0173,N,01033.5495,E,1,10,1.07,-14.5,M,45.6,M,,*74
$GPRMC,160007.000,A,5350.0066,N,01033.5293,E,57.58,48.93,090114,,,A*65
$GPGGA,160015.000,5350.0981,N,01033.7039,E,1,11,0.89,-15.8,M,45.6,M,,*77
$GPRMC,160014.000,A,5350.0865,N,01033.6814,E,64.22,49.19,090114,,,A*64
$GPGGA,160022.000,5350.1784,N,01033.8582,E,1,10,1.07,-13.1,M,45.6,M,,*7A
$GPRMC,160021.000,A,5350.1668,N,01033.8357,E,63.33,48.89,090114,,,A*6D
$GPGGA,160029.000,5350.2550,N,01034.0093,E,1,9,1.28,-10.3,M,45.6,M,,*47
$GPRMC,160028.000,A,5350.2444,N,01033.9882,E,59.17,50.01,090114,,,A*6F
$GPGGA,160036.000,5350.3307,N,01034.1601,E,1,9,1.28,-7.5,M,45.6,M,,*70
$GPRMC,160035.000,A,5350.3201,N,01034.1384,E,60.30,50.50,090114,,,A*6C
$GPGGA,160043.000,5350.4051,N,01034.3195,E,1,11,0.89,-6.3,M,45.6,M,,*49
$GPRMC,160042.000,A,5350.3937,N,01034.2948,E,65.24,52.47,090114,,,A*6F
$GPGGA,160049.000,5350.4772,N,01034.4768,E,1,10,1.07,-5.1,M,45.6,M,,*41
$GPRMC,160048.000,A,5350.4654,N,01034.4508,E,70.43,52.08,090114,,,A*68
$GPGGA,160055.000,5350.5465,N,01034.6307,E,1,10,1.07,-3.2,M,45.6,M,,*42
$GPRMC,160054.000,A,5350.5352,N,01034.6055,E,67.62,53.23,090114,,,A*65
$GPGGA,160102.000,5350.6148,N,01034.7827,E,1,10,1.07,-3.7,M,45.6,M,,*45
$GPRMC,160101.000,A,5350.6061,N,01034.7636,E,52.38,52.55,090114,,,A*6F
$GPGGA,160110.000,5350.6822,N,01034.9300,E,1,11,0.89,-4.5,M,45.6,M,,*40
$GPRMC,160109.000,A,5350.6738,N,01034.9118,E,48.71,52.14,090114,,,A*6A
$GPGGA,160118.000,5350.7506,N,01035.0791,E,1,11,0.89,-4.3,M,45.6,M,,*40
$GPRMC,160117.000,A,5350.7422,N,01035.0608,E,49.64,51.92,090114,,,A*6A
$GPGGA,160127.000,5350.8147,N,01035.2262,E,1,10,1.07,-4.4,M,45.6,M,,*48
$GPRMC,160126.000,A,5350.8086,N,01035.2113,E,38.58,54.81,090114,,,A*6C
$GPGGA,160137.000,5350.8763,N,01035.3793,E,1,10,1.07,-7.4,M,45.6,M,,*40
$GPRMC,160136.000,A,5350.8704,N,01035.3641,E,38.04,54.82,090114,,,A*6B
$GPGGA,160147.000,5350.8923,N,01035.5645,E,1,9,1.36,-8.0,M,45.6,M,,*70
$GPRMC,160146.000,A,5350.8941,N,01035.5453,E,41.72,98.70,090114,,,A*66
$GPGGA,160158.000,5350.9110,N,01035.7570,E,1,10,1.07,-7.6,M,45.6,M,,*43
$GPRMC,160157.000,A,5350.9091,N,01035.7397,E,37.08,77.97,090114,,,A*6A
$GPGGA,160208.000,5350.8821,N,01035.9330,E,1,10,1.07,-6.4,M,45.6,M,,*40
$GPRMC,160207.000,A,5350.8885,N,01035.9170,E,40.72,122.95,090114,,,A*5B
$GPGGA,160218.000,5350.8063,N,01036.0878,E,1,10,1.07,-6.0,M,45.6,M,,*46
$GPRMC,160217.000,A,5350.8147,N,01036.0730,E,43.58,132.17,090114,,,A*55
$GPGGA,160227.000,5350.7265,N,01036.2234,E,1,10,1.07,-8.9,M,45.6,M,,*46
$GPRMC,160226.000,A,5350.7363,N,01036.2087,E,46.29,137.62,090114,,,A*51
$GPGGA,160235.000,5350.6399,N,01036.3406,E,1,10,1.07,-12.4,M,45.6,M,,*76
$GPRMC,160234.000,A,5350.6514,N,01036.3268,E,50.51,144.51,090114,,,A*5B
$GPGGA,160244.000,5350.5413,N,01036.4444,E,1,11,0.89,-13.2,M,45.6,M,,*76
$GPRMC,160243.000,A,5350.5517,N,01036.4348,E,43.08,150.58,090114,,,A*5D
$GPGGA,160254.000,5350.4383,N,01036.5238,E,1,11,0.89,-12.1,M,45.6,M,,*76
$GPRMC,160253.000,A,5350.4493,N,01036.5162,E,42.41,156.38,090114,,,A*57
$GPGGA,160303.000,5350.3341,N,01036.5964,E,1,11,0.89,-10.3,M,45.6,M,,*7E
$GPRMC,160302.000,A,5350.3457,N,01036.5879,E,45.31,157.07,090114,,,A*53
$GPGGA,160312.000,5350.2319,N,01036.6834,E,1,11,0.89,-11.8,M,45.6,M,,*7F
$GPRMC,160311.000,A,5350.2429,N,01036.6719,E,45.75,149.15,090114,,,A*5F
$GPGGA,160321.000,5350.1410,N,01036.7971,E,1,9,1.25,-16.7,M,45.6,M,,*45
$GPRMC,160320.000,A,5350.1505,N,01036.7836,E,45.56,140.34,090114,,,A*59
$GPGGA,160330.000,5350.0586,N,01036.9475,E,1,8,1.37,-22.5,M,45.6,M,,*4A
$GPRMC,160329.000,A,5350.0667,N,01036.9257,E,49.28,127.60,090114,,,A*50
$GPGGA,160338.000,5349.9986,N,01037.1251,E,1,9,1.13,-15.0,M,45.6,M,,*40
$GPRMC,160337.000,A,5350.0054,N,01037.1003,E,57.40,116.71,090114,,,A*50
$GPGGA,160344.000,5349.9627,N,01037.2978,E,1,11,0.89,-11.9,M,45.6,M,,*7A
$GPRMC,160343.000,A,5349.9678,N,01037.2667,E,67.76,106.79,090114,,,A*52
$GPGGA,160350.000,5349.9446,N,01037.4825,E,1,9,1.33,-12.3,M,45.6,M,,*45
$GPRMC,160349.000,A,5349.9461,N,01037.4522,E,65.10,95.95,090114,,,A*6D
$GPGGA,160356.000,5349.9419,N,01037.6647,E,1,11,0.89,-13.9,M,45.6,M,,*73
$GPRMC,160355.000,A,5349.9418,N,01037.6341,E,65.83,90.33,090114,,,A*6C
$GPGGA,160402.000,5349.9419,N,01037.8498,E,1,11,0.89,-14.0,M,45.6,M,,*75
$GPRMC,160401.000,A,5349.9418,N,01037.8191,E,66.03,90.44,090114,,,A*60
$GPGGA,160408.000,5349.9407,N,01038.0382,E,1,11,0.89,-14.5,M,45.6,M,,*7E
$GPRMC,160407.000,A,5349.9415,N,01038.0060,E,68.64,91.29,090114,,,A*66
$GPGGA,160414.000,5349.9242,N,01038.2246,E,1,11,0.89,-15.7,M,45.6,M,,*7C
$GPRMC,160413.000,A,5349.9284,N,01038.1948,E,65.77,101.86,090114,,,A*5D
$GPGGA,160421.000,5349.8873,N,01038.4256,E,1,11,0.89,-15.0,M,45.6,M,,*73
$GPRMC,160420.000,A,5349.8931,N,01038.3972,E,63.80,108.95,090114,,,A*57
$GPGGA,160428.000,5349.8449,N,01038.6177,E,1,11,0.88,-12.3,M,45.6,M,,*78
$GPRMC,160427.000,A,5349.8501,N,01038.5912,E,60.76,112.19,090114,,,A*5A
$GPGGA,160434.000,5349.7974,N,01038.7818,E,1,10,0.99,-12.9,M,45.6,M,,*73
$GPRMC,160433.000,A,5349.8066,N,01038.7531,E,68.47,117.54,090114,,,A*52
$GPGGA,160440.000,5349.7320,N,01038.9607,E,1,11,0.89,-14.1,M,45.6,M,,*7B
$GPRMC,160439.000,A,5349.7435,N,01038.9313,E,75.54,123.01,090114,,,A*54
$GPGGA,160446.000,5349.6579,N,01039.1278,E,1,11,0.89,-12.7,M,45.6,M,,*73
$GPRMC,160445.000,A,5349.6710,N,01039.1007,E,73.70,128.13,090114,,,A*5D
$GPGGA,160452.000,5349.5728,N,01039.2851,E,1,11,0.89,-11.1,M,45.6,M,,*74
$GPRMC,160451.000,A,5349.5878,N,01039.2595,E,76.39,133.78,090114,,,A*58
$GPGGA,160457.000,5349.4911,N,01039.4123,E,1,11,0.89,-9.5,M,45.6,M,,*43
$GPRMC,160456.000,A,5349.5082,N,01039.3874,E,80.78,138.29,090114,,,A*52
$GPGGA,160502.000,5349.4025,N,01039.5289,E,1,11,0.89,-8.4,M,45.6,M,,*4E
$GPRMC,160501.000,A,5349.4203,N,01039.5068,E,80.13,142.94,090114,,,A*5E
$GPGGA,160508.000,5349.2951,N,01039.6398,E,1,11,0.89,-6.7,M,45.6,M,,*47
$GPRMC,160507.000,A,5349.3135,N,01039.6238,E,73.54,151.26,090114,,,A*59
$GPGGA,160513.000,5349.1954,N,01039.7120,E,1,11,0.89,-5.9,M,45.6,M,,*46
$GPRMC,160512.000,A,5349.2164,N,01039.6991,E,79.34,158.49,090114,,,A*5C
$GPGGA,160518.000,5349.0899,N,01039.7610,E,1,11,0.88,-7.3,M,45.6,M,,*41
$GPRMC,160517.000,A,5349.1106,N,01039.7529,E,76.89,166.04,090114,,,A*5D
$GPGGA,160523.000,5348.9829,N,01039.7856,E,1,11,0.89,-9.0,M,45.6,M,,*4A
$GPRMC,160522.000,A,5349.0047,N,01039.7827,E,78.30,173.98,090114,,,A*50
$GPGGA,160528.000,5348.8721,N,01039.7875,E,1,11,0.89,-11.1,M,45.6,M,,*7E
$GPRMC,160527.000,A,5348.8943,N,01039.7885,E,79.41,181.08,090114,,,A*5A
$GPGGA,160533.000,5348.7616,N,01039.7843,E,1,11,0.88,-11.7,M,45.6,M,,*7C
$GPRMC,160532.000,A,5348.7834,N,01039.7842,E,78.76,179.92,090114,,,A*5A
$GPGGA,160539.000,5348.6372,N,01039.8055,E,1,11,0.88,-11.3,M,45.6,M,,*74
$GPRMC,160538.000,A,5348.6578,N,01039.7996,E,75.32,171.39,090114,,,A*58
$GPGGA,160545.000,5348.5179,N,01039.8554,E,1,11,0.88,-11.2,M,45.6,M,,*70
$GPRMC,160544.000,A,5348.5367,N,01039.8452,E,72.15,163.16,090114,,,A*5E
$GPGGA,160551.000,5348.4147,N,01039.9293,E,1,11,0.88,-12.4,M,45.6,M,,*71
$GPRMC,160550.000,A,5348.4308,N,01039.9155,E,65.89,154.28,090114,,,A*5A
$GPGGA,160558.000,5348.3114,N,01040.0362,E,1,11,0.88,-12.9,M,45.6,M,,*7C
$GPRMC,160557.000,A,5348.3252,N,01040.0199,E,60.94,145.89,090114,,,A*51
$GPGGA,160605.000,5348.2255,N,01040.1567,E,1,10,1.06,-12.5,M,45.6,M,,*78
$GPRMC,160604.000,A,5348.2367,N,01040.1387,E,56.19,137.89,090114,,,A*5B
$GPGGA,160613.000,5348.1433,N,01040.3017,E,1,8,1.45,-10.3,M,45.6,M,,*40
$GPRMC,160612.000,A,5348.1531,N,01040.2836,E,53.08,132.10,090114,,,A*58
$GPGGA,160621.000,5348.0633,N,01040.4523,E,1,11,0.88,-8.9,M,45.6,M,,*4C
$GPRMC,160620.000,A,5348.0731,N,01040.4340,E,52.71,132.12,090114,,,A*5B
$GPGGA,160629.000,5347.9837,N,01040.5920,E,1,10,0.91,-7.9,M,45.6,M,,*40
$GPRMC,160628.000,A,5347.9944,N,01040.5744,E,53.69,135.61,090114,,,A*53
$GPGGA,160637.000,5347.8973,N,01040.7199,E,1,11,0.88,-6.7,M,45.6,M,,*41
$GPRMC,160636.000,A,5347.9082,N,01040.7052,E,49.93,140.93,090114,,,A*5C
$GPGGA,160645.000,5347.8047,N,01040.8347,E,1,11,0.88,-6.9,M,45.6,M,,*4A
$GPRMC,160644.000,A,5347.8173,N,01040.8201,E,54.10,145.56,090114,,,A*57
$GPGGA,160652.000,5347.7034,N,01040.9428,E,1,11,0.88,-7.7,M,45.6,M,,*47
$GPRMC,160651.000,A,5347.7190,N,01040.9285,E,63.78,150.51,090114,,,A*55
$GPGGA,160658.000,5347.6053,N,01041.0274,E,1,11,0.88,-7.5,M,45.6,M,,*48
$GPRMC,160657.000,A,5347.6226,N,01041.0135,E,67.80,153.93,090114,,,A*52
$GPGGA,160704.000,5347.4970,N,01041.1109,E,1,10,1.06,-6.2,M,45.6,M,,*42
$GPRMC,160703.000,A,5347.5156,N,01041.0969,E,72.78,155.89,090114,,,A*5A
$GPGGA,160710.000,5347.3906,N,01041.1955,E,1,10,1.06,-5.6,M,45.6,M,,*47
$GPRMC,160709.000,A,5347.4076,N,01041.1805,E,69.34,153.28,090114,,,A*57
$GPGGA,160716.000,5347.2990,N,01041.2981,E,1,10,1.06,-6.5,M,45.6,M,,*45
$GPRMC,160715.000,A,5347.3131,N,01041.2801,E,64.24,143.67,090114,,,A*5E
$GPGGA,160722.000,5347.2187,N,01041.4259,E,1,11,0.88,-7.5,M,45.6,M,,*43
$GPRMC,160721.000,A,5347.2317,N,01041.4024,E,68.17,133.90,090114,,,A*54
$GPGGA,160728.000,5347.1480,N,01041.5876,E,1,11,0.88,-8.7,M,45.6,M,,*43
$GPRMC,160727.000,A,5347.1590,N,01041.5586,E,72.89,124.15,090114,,,A*53
$GPGGA,160734.000,5347.0955,N,01041.7733,E,1,10,1.06,-10.8,M,45.6,M,,*76
$GPRMC,160733.000,A,5347.1029,N,01041.7414,E,72.74,112.90,090114,,,A*53
$GPGGA,160740.000,5347.0632,N,01041.9739,E,1,10,1.06,-12.2,M,45.6,M,,*77
$GPRMC,160739.000,A,5347.0670,N,01041.9395,E,74.14,101.91,090114,,,A*51
$GPGGA,160746.000,5347.0540,N,01042.1816,E,1,10,1.06,-14.0,M,45.6,M,,*7A
$GPRMC,160745.000,A,5347.0539,N,01042.1475,E,72.84,91.06,090114,,,A*6F
$GPGGA,160752.000,5347.0681,N,01042.3753,E,1,10,1.06,-12.6,M,45.6,M,,*7D
$GPRMC,160751.000,A,5347.0648,N,01042.3438,E,67.99,80.81,090114,,,A*63
$GPGGA,160758.000,5347.1017,N,01042.5692,E,1,11,0.88,-11.7,M,45.6,M,,*71
$GPRMC,160757.000,A,5347.0945,N,01042.5371,E,72.22,70.39,090114,,,A*63
$GPGGA,160804.000,5347.1578,N,01042.7552,E,1,10,1.06,-12.6,M,45.6,M,,*72
$GPRMC,160803.000,A,5347.1472,N,01042.7264,E,72.98,59.66,090114,,,A*62
$GPGGA,160810.000,5347.2306,N,01042.9129,E,1,11,0.88,-13.1,M,45.6,M,,*7D
$GPRMC,160809.000,A,5347.2172,N,01042.8885,E,70.78,48.54,090114,,,A*69
$GPGGA,160816.000,5347.3151,N,01043.0501,E,1,11,0.88,-9.0,M,45.6,M,,*46
$GPRMC,160815.000,A,5347.3011,N,01043.0278,E,69.70,43.52,090114,,,A*6D
$GPGGA,160823.000,5347.3978,N,01043.2047,E,1,9,1.13,-3.9,M,45.6,M,,*7F
$GPRMC,160822.000,A,5347.3875,N,01043.1820,E,60.89,51.84,090114,,,A*62
$GPGGA,160830.000,5347.4648,N,01043.3845,E,1,10,1.06,-1.0,M,45.6,M,,*4A
$GPRMC,160829.000,A,5347.4563,N,01043.3568,E,66.69,61.47,090114,,,A*63
$GPGGA,160836.000,5347.5070,N,01043.5596,E,1,11,0.88,-0.8,M,45.6,M,,*4A
$GPRMC,160835.000,A,5347.5014,N,01043.5302,E,66.43,71.11,090114,,,A*6C
$GPGGA,160843.000,5347.5333,N,01043.7670,E,1,11,0.88,-3.1,M,45.6,M,,*4F
$GPRMC,160842.000,A,5347.5310,N,01043.7370,E,64.81,81.39,090114,,,A*65
$GPGGA,160850.000,5347.5371,N,01043.9728,E,1,9,1.32,-4.7,M,45.6,M,,*71
$GPRMC,160849.000,A,5347.5378,N,01043.9439,E,61.91,91.38,090114,,,A*60
$GPGGA,160857.000,5347.5208,N,01044.1731,E,1,10,1.06,-6.4,M,45.6,M,,*40
$GPRMC,160856.000,A,5347.5241,N,01044.1440,E,62.47,100.40,090114,,,A*5A
$GPGGA,160904.000,5347.4921,N,01044.3769,E,1,10,1.06,-7.9,M,45.6,M,,*45
$GPRMC,160903.000,A,5347.4964,N,01044.3484,E,62.77,103.29,090114,,,A*53
$GPGGA,160911.000,5347.4659,N,01044.5709,E,1,11,0.88,-10.0,M,45.6,M,,*78
$GPRMC,160910.000,A,5347.4691,N,01044.5437,E,59.27,101.09,090114,,,A*57
$GPGGA,160918.000,5347.4524,N,01044.7727,E,1,10,1.06,-12.0,M,45.6,M,,*72
$GPRMC,160917.000,A,5347.4532,N,01044.7424,E,64.36,93.11,090114,,,A*67
$GPGGA,160924.000,5347.4595,N,01044.9611,E,1,10,1.06,-12.5,M,45.6,M,,*78
$GPRMC,160923.000,A,5347.4569,N,01044.9299,E,66.97,83.50,090114,,,A*6D
$GPGGA,160931.000,5347.4888,N,01045.1651,E,1,10,1.06,-11.7,M,45.6,M,,*71
$GPRMC,160930.000,A,5347.4834,N,01045.1372,E,62.54,72.83,090114,,,A*6C
$GPGGA,160938.000,5347.5385,N,01045.3509,E,1,10,1.06,-10.1,M,45.6,M,,*74
$GPRMC,160937.000,A,5347.5302,N,01045.3256,E,61.85,61.82,090114,,,A*6D
$GPGGA,160945.000,5347.6099,N,01045.5184,E,1,11,0.88,-8.6,M,45.6,M,,*4C
$GPRMC,160944.000,A,5347.5987,N,01045.4955,E,63.27,50.99,090114,,,A*63
$GPGGA,160952.000,5347.6958,N,01045.6579,E,1,11,0.88,-7.2,M,45.6,M,,*40
$GPRMC,160951.000,A,5347.6831,N,01045.6399,E,59.95,41.03,090114,,,A*63
$GPGGA,160959.000,5347.7901,N,01045.7712,E,1,10,0.97,-7.5,M,45.6,M,,*40
$GPRMC,160958.000,A,5347.7753,N,01045.7557,E,61.46,33.16,090114,,,A*61
$GPGGA,161006.000,5347.8965,N,01045.8841,E,1,10,1.06,-8.9,M,45.6,M,,*43
$GPRMC,161005.000,A,5347.8812,N,01045.8675,E,65.27,32.92,090114,,,A*66
$GPGGA,161012.000,5347.9884,N,01045.9895,E,1,11,0.88,-10.1,M,45.6,M,,*76
$GPRMC,161011.000,A,5347.9733,N,01045.9712,E,66.82,35.44,090114,,,A*6F
$GPGGA,161019.000,5348.0844,N,01046.1163,E,1,11,0.88,-10.7,M,45.6,M,,*7A
$GPRMC,161018.000,A,5348.0721,N,01046.0992,E,58.30,39.57,090114,,,A*65
$GPGGA,161026.000,5348.1660,N,01046.2414,E,1,11,0.88,-11.2,M,45.6,M,,*7D
$GPRMC,161025.000,A,5348.1549,N,01046.2232,E,55.79,43.67,090114,,,A*6B
$GPGGA,161033.000,5348.2453,N,01046.3724,E,1,8,0.96,-12.7,M,45.6,M,,*48
$GPRMC,161032.000,A,5348.2333,N,01046.3530,E,59.58,43.16,090114,,,A*68
$GPGGA,161039.000,5348.3276,N,01046.4922,E,1,10,0.97,-12.9,M,45.6,M,,*7B
$GPRMC,161038.000,A,5348.3131,N,01046.4723,E,67.16,39.38,090114,,,A*62
$GPGGA,161045.000,5348.4221,N,01046.6103,E,1,10,0.97,-9.8,M,45.5,M,,*44
$GPRMC,161044.000,A,5348.4058,N,01046.5915,E,70.63,35.61,090114,,,A*6E
$GPGGA,161051.000,5348.5246,N,01046.7190,E,1,11,0.88,-8.0,M,45.5,M,,*4C
$GPRMC,161050.000,A,5348.5075,N,01046.7019,E,71.98,31.51,090114,,,A*60
$GPGGA,161057.000,5348.6304,N,01046.8183,E,1,10,0.97,-8.8,M,45.5,M,,*44
$GPRMC,161056.000,A,5348.6125,N,01046.8015,E,73.33,29.07,090114,,,A*6B
$GPGGA,161103.000,5348.7321,N,01046.9340,E,1,10,1.06,-10.3,M,45.5,M,,*75
$GPRMC,161102.000,A,5348.7162,N,01046.9130,E,72.92,37.10,090114,,,A*6D
$GPGGA,161109.000,5348.8172,N,01047.0689,E,1,11,0.88,-9.7,M,45.5,M,,*46
$GPRMC,161108.000,A,5348.8043,N,01047.0455,E,68.35,46.02,090114,,,A*67
$GPGGA,161115.000,5348.8873,N,01047.2243,E,1,10,0.97,-8.2,M,45.5,M,,*48
$GPRMC,161114.000,A,5348.8765,N,01047.1967,E,69.95,55.90,090114,,,A*66
$GPGGA,161121.000,5348.9411,N,01047.4027,E,1,9,1.09,-6.5,M,45.5,M,,*77
$GPRMC,161120.000,A,5348.9330,N,01047.3716,E,72.10,64.17,090114,,,A*64
$GPGGA,161127.000,5348.9777,N,01047.5939,E,1,9,1.33,-5.5,M,45.5,M,,*7F
$GPRMC,161126.000,A,5348.9730,N,01047.5613,E,70.95,75.25,090114,,,A*6A
$GPGGA,161133.000,5348.9948,N,01047.7933,E,1,10,1.07,-4.4,M,45.5,M,,*4F
$GPRMC,161132.000,A,5348.9935,N,01047.7598,E,71.42,84.88,090114,,,A*64
$GPGGA,161139.000,5348.9906,N,01047.9925,E,1,11,0.88,-3.5,M,45.5,M,,*47
$GPRMC,161138.000,A,5348.9928,N,01047.9594,E,69.94,95.16,090114,,,A*65
$GPGGA,161145.000,5348.9671,N,01048.1922,E,1,11,0.88,-2.4,M,45.5,M,,*43
$GPRMC,161144.000,A,5348.9728,N,01048.1596,E,72.26,104.61,090114,,,A*5F
$GPGGA,161151.000,5348.9252,N,01048.3759,E,1,11,0.88,-1.3,M,45.5,M,,*47
$GPRMC,161150.000,A,5348.9328,N,01048.3470,E,67.95,113.13,090114,,,A*5A
$GPGGA,161157.000,5348.8737,N,01048.5463,E,1,11,0.88,0.0,M,45.5,M,,*65
$GPRMC,161156.000,A,5348.8832,N,01048.5173,E,69.82,118.28,090114,,,A*56
$GPGGA,161203.000,5348.8123,N,01048.7254,E,1,11,0.88,1.8,M,45.5,M,,*6D
$GPRMC,161202.000,A,5348.8227,N,01048.6956,E,73.82,120.16,090114,,,A*5B
$GPGGA,161209.000,5348.7540,N,01048.9009,E,1,11,0.88,1.9,M,45.5,M,,*6C
$GPRMC,161208.000,A,5348.7633,N,01048.8714,E,70.62,118.21,090114,,,A*5B
$GPGGA,161215.000,5348.7047,N,01049.0839,E,1,11,0.88,0.1,M,45.5,M,,*69
$GPRMC,161214.000,A,5348.7123,N,01049.0530,E,71.02,113.17,090114,,,A*54
$GPGGA,161221.000,5348.6649,N,01049.2738,E,1,10,1.00,0.1,M,45.5,M,,*6B
$GPRMC,161220.000,A,5348.6709,N,01049.2412,E,72.70,107.89,090114,,,A*5B
$GPGGA,161227.000,5348.6349,N,01049.4682,E,1,11,0.88,0.5,M,45.5,M,,*6A
$GPRMC,161226.000,A,5348.6393,N,01049.4359,E,70.35,103.23,090114,,,A*53
$GPGGA,161233.000,5348.6155,N,01049.6604,E,1,11,0.88,1.4,M,45.5,M,,*6C
$GPRMC,161232.000,A,5348.6179,N,01049.6293,E,67.42,98.01,090114,,,A*60
$GPGGA,161239.000,5348.6070,N,01049.8531,E,1,11,0.88,2.5,M,45.5,M,,*69
$GPRMC,161238.000,A,5348.6078,N,01049.8198,E,70.87,93.07,090114,,,A*6E
$GPGGA,161245.000,5348.6077,N,01050.0629,E,1,11,0.88,3.9,M,45.5,M,,*62
$GPRMC,161244.000,A,5348.6068,N,01050.0271,E,75.96,88.38,090114,,,A*63
$GPGGA,161251.000,5348.6191,N,01050.2764,E,1,10,1.07,6.8,M,45.5,M,,*67
$GPRMC,161250.000,A,5348.6165,N,01050.2419,E,74.71,83.18,090114,,,A*61
$GPGGA,161257.000,5348.6405,N,01050.4771,E,1,9,1.34,12.9,M,45.5,M,,*67
$GPRMC,161256.000,A,5348.6362,N,01050.4432,E,73.68,78.41,090114,,,A*6A
$GPGGA,161303.000,5348.6687,N,01050.6809,E,1,10,1.05,17.1,M,45.5,M,,*5A
$GPRMC,161302.000,A,5348.6640,N,01050.6480,E,72.58,76.49,090114,,,A*60
$GPGGA,161309.000,5348.6972,N,01050.8809,E,1,10,0.95,18.9,M,45.5,M,,*54
$GPRMC,161308.000,A,5348.6923,N,01050.8468,E,74.45,76.66,090114,,,A*6F
$GPGGA,161315.000,5348.7272,N,01051.0913,E,1,11,0.88,17.6,M,45.5,M,,*5D
$GPRMC,161314.000,A,5348.7221,N,01051.0560,E,77.22,76.48,090114,,,A*64
$GPGGA,161321.000,5348.7558,N,01051.2967,E,1,11,0.88,14.0,M,45.5,M,,*51
$GPRMC,161320.000,A,5348.7511,N,01051.2626,E,74.48,76.84,090114,,,A*6B
$GPGGA,161327.000,5348.7831,N,01051.4963,E,1,10,1.05,8.2,M,45.5,M,,*6D
$GPRMC,161326.000,A,5348.7788,N,01051.4639,E,71.74,77.06,090114,,,A*66
$GPGGA,161333.000,5348.8077,N,01051.6777,E,1,10,1.07,3.2,M,45.5,M,,*6D
$GPRMC,161332.000,A,5348.8036,N,01051.6484,E,64.63,76.60,090114,,,A*6B
$GPGGA,161340.000,5348.8341,N,01051.8731,E,1,10,1.07,-2.0,M,45.5,M,,*4D
$GPRMC,161339.000,A,5348.8306,N,01051.8467,E,58.63,77.07,090114,,,A*6C
$GPGGA,161348.000,5348.8593,N,01052.0696,E,1,11,0.88,-4.6,M,45.5,M,,*4C
$GPRMC,161347.000,A,5348.8563,N,01052.0457,E,53.29,78.43,090114,,,A*62
$GPGGA,161356.000,5348.8804,N,01052.2538,E,1,10,1.05,-3.0,M,45.5,M,,*41
$GPRMC,161355.000,A,5348.8781,N,01052.2314,E,49.12,80.11,090114,,,A*6E
$GPGGA,161406.000,5348.8962,N,01052.4459,E,1,10,1.05,-0.6,M,45.5,M,,*47
$GPRMC,161405.000,A,5348.8949,N,01052.4295,E,35.74,82.08,090114,,,A*69
$GPGGA,161424.000,5348.8862,N,01052.6292,E,1,10,1.05,1.5,M,45.5,M,,*6A
$GPRMC,161423.000,A,5348.8879,N,01052.6259,E,9.80,124.99,090114,,,A*6C
$DeviceName=pironex_auto
$Software=0.1.3
$Hardware=1
$LastValidPosition=
$IMEI=359193030849087
$LocalIP=10.59.166.157
$CmdVersion=2
$SUCCESS
$<end>
$GPGGA,162523.000,5348.9022,N,01052.8738,E,1,9,1.20,27.6,M,45.5,M,,*61
$GPRMC,162522.000,A,5348.9016,N,01052.8605,E,28.56,85.58,090114,,,A*63
$GPGGA,162537.000,5348.9268,N,01053.0515,E,1,10,0.88,27.6,M,45.5,M,,*57
$GPRMC,162536.000,A,5348.9262,N,01053.0354,E,33.29,85.91,090114,,,A*68
$GPGGA,162546.000,5348.9350,N,01053.2449,E,1,11,0.84,29.0,M,45.5,M,,*54
$GPRMC,162545.000,A,5348.9341,N,01053.2206,E,50.78,86.02,090114,,,A*60
$GPGGA,162554.000,5348.9435,N,01053.4459,E,1,10,0.90,30.7,M,45.5,M,,*5F
$GPRMC,162553.000,A,5348.9422,N,01053.4205,E,53.98,85.23,090114,,,A*6D
$GPGGA,162602.000,5348.9596,N,01053.6498,E,1,11,0.84,31.7,M,45.5,M,,*5D
$GPRMC,162601.000,A,5348.9571,N,01053.6243,E,54.84,80.92,090114,,,A*6B
$GPGGA,162609.000,5348.9849,N,01053.8516,E,1,10,0.90,30.3,M,45.5,M,,*51
$GPRMC,162609.000,A,5348.9813,N,01053.8257,E,55.15,76.37,090114,,,A*6E
$GPGGA,162616.000,5349.0173,N,01054.0403,E,1,11,0.84,24.8,M,45.5,M,,*57
$GPRMC,162615.000,A,5349.0123,N,01054.0129,E,60.53,72.66,090114,,,A*60
$GPGGA,162623.000,5349.0596,N,01054.2372,E,1,11,0.84,20.5,M,45.5,M,,*54
$GPRMC,162622.000,A,5349.0529,N,01054.2090,E,64.67,68.38,090114,,,A*68
$GPGGA,162630.000,5349.1091,N,01054.4236,E,1,10,1.15,16.0,M,45.5,M,,*5A
$GPRMC,162629.000,A,5349.1025,N,01054.3994,E,58.52,65.69,090114,,,A*67
$GPGGA,162638.000,5349.1580,N,01054.5999,E,1,11,0.84,10.9,M,45.5,M,,*5F
$GPRMC,162637.000,A,5349.1524,N,01054.5794,E,48.94,65.16,090114,,,A*67
$GPGGA,162647.000,5349.2028,N,01054.7822,E,1,11,0.84,6.5,M,45.5,M,,*6B
$GPRMC,162646.000,A,5349.1982,N,01054.7615,E,46.74,68.53,090114,,,A*67
$GPGGA,162656.000,5349.2393,N,01054.9740,E,1,11,0.84,2.7,M,45.5,M,,*6B
$GPRMC,162655.000,A,5349.2358,N,01054.9518,E,48.58,74.17,090114,,,A*66
$GPGGA,162704.000,5349.2628,N,01055.1578,E,1,11,0.84,-0.6,M,45.5,M,,*46
$GPRMC,162703.000,A,5349.2606,N,01055.1350,E,49.93,80.18,090114,,,A*6B
$GPGGA,162712.000,5349.2744,N,01055.3435,E,1,8,1.41,-3.9,M,45.5,M,,*7C
$GPRMC,162711.000,A,5349.2735,N,01055.3195,E,51.42,86.26,090114,,,A*6E
$GPGGA,162720.000,5349.2749,N,01055.5350,E,1,9,1.06,-8.4,M,45.5,M,,*76
$GPRMC,162719.000,A,5349.2755,N,01055.5110,E,50.49,92.27,090114,,,A*65
$GPGGA,162727.000,5349.2658,N,01055.7249,E,1,10,0.88,-8.2,M,45.5,M,,*42
$GPRMC,162726.000,A,5349.2680,N,01055.6959,E,61.72,96.93,090114,,,A*67
$GPGGA,162733.000,5349.2503,N,01055.9112,E,1,10,0.88,-6.2,M,45.5,M,,*47
$GPRMC,162732.000,A,5349.2529,N,01055.8784,E,69.37,97.53,090114,,,A*66
$GPGGA,162739.000,5349.2325,N,01056.1192,E,1,11,0.84,-4.4,M,45.5,M,,*45
$GPRMC,162738.000,A,5349.2355,N,01056.0836,E,75.22,97.69,090114,,,A*6C
$GPGGA,162744.000,5349.2203,N,01056.3006,E,1,11,0.84,-2.6,M,45.5,M,,*40
$GPRMC,162743.000,A,5349.2225,N,01056.2637,E,77.87,95.84,090114,,,A*67
$GPGGA,162749.000,5349.2132,N,01056.4858,E,1,11,0.84,-0.7,M,45.5,M,,*4B
$GPRMC,162748.000,A,5349.2138,N,01056.4487,E,78.83,92.31,090114,,,A*6E
$GPGGA,162754.000,5349.2174,N,01056.6694,E,1,11,0.84,-0.6,M,45.5,M,,*48
$GPRMC,162753.000,A,5349.2156,N,01056.6332,E,77.80,85.96,090114,,,A*60
$GPGGA,162759.000,5349.2333,N,01056.8498,E,1,11,0.84,-2.0,M,45.4,M,,*41
$GPRMC,162758.000,A,5349.2291,N,01056.8136,E,78.04,80.51,090114,,,A*66
$GPGGA,162804.000,5349.2604,N,01057.0279,E,1,11,0.84,-5.4,M,45.4,M,,*44
$GPRMC,162803.000,A,5349.2542,N,01056.9931,E,77.62,74.46,090114,,,A*62
$GPGGA,162810.000,5349.3045,N,01057.2258,E,1,11,0.84,-7.3,M,45.4,M,,*47
$GPRMC,162809.000,A,5349.2961,N,01057.1939,E,73.81,66.87,090114,,,A*63
$GPGGA,162816.000,5349.3634,N,01057.4165,E,1,11,0.84,-5.4,M,45.4,M,,*4F
$GPRMC,162815.000,A,5349.3527,N,01057.3849,E,77.20,60.89,090114,,,A*62
$GPGGA,162821.000,5349.4211,N,01057.5735,E,1,11,0.84,-2.2,M,45.4,M,,*4C
$GPRMC,162820.000,A,5349.4093,N,01057.5421,E,79.06,57.98,090114,,,A*63
$GPGGA,162826.000,5349.4806,N,01057.7343,E,1,11,0.84,0.1,M,45.4,M,,*6C
$GPRMC,162825.000,A,5349.4686,N,01057.7014,E,81.93,58.42,090114,,,A*67
$GPGGA,162831.000,5349.5390,N,01057.9067,E,1,10,0.88,1.4,M,45.4,M,,*6D
$GPRMC,162830.000,A,5349.5277,N,01057.8713,E,85.13,60.92,090114,,,A*6D
$GPGGA,162836.000,5349.5905,N,01058.0864,E,1,11,0.82,1.7,M,45.4,M,,*69
$GPRMC,162835.000,A,5349.5807,N,01058.0505,E,84.81,65.29,090114,,,A*68
$GPGGA,162841.000,5349.6354,N,01058.2653,E,1,12,0.82,3.4,M,45.4,M,,*6E
$GPRMC,162840.000,A,5349.6272,N,01058.2299,E,81.93,68.17,090114,,,A*67
$GPGGA,162846.000,5349.6716,N,01058.4413,E,1,10,0.95,4.9,M,45.4,M,,*65
$GPRMC,162845.000,A,5349.6649,N,01058.4058,E,79.50,71.64,090114,,,A*63
$GPGGA,162851.000,5349.7015,N,01058.6184,E,1,10,0.95,6.5,M,45.4,M,,*61
$GPRMC,162850.000,A,5349.6961,N,01058.5829,E,78.17,74.94,090114,,,A*65
$GPGGA,162857.000,5349.7284,N,01058.8257,E,1,12,0.80,8.4,M,45.4,M,,*67
$GPRMC,162856.000,A,5349.7244,N,01058.7921,E,73.36,78.52,090114,,,A*6B
$GPGGA,162903.000,5349.7481,N,01059.0325,E,1,11,0.85,10.1,M,45.4,M,,*53
$GPRMC,162902.000,A,5349.7454,N,01058.9977,E,75.22,82.18,090114,,,A*69
$GPGGA,162909.000,5349.7583,N,01059.2459,E,1,11,0.87,12.1,M,45.4,M,,*54
$GPRMC,162908.000,A,5349.7572,N,01059.2097,E,76.31,86.18,090114,,,A*6E
$GPGGA,162915.000,5349.7610,N,01059.4513,E,1,10,0.88,13.7,M,45.4,M,,*50
$GPRMC,162914.000,A,5349.7607,N,01059.4198,E,68.73,89.05,090114,,,A*60
$GPGGA,162921.000,5349.7624,N,01059.6346,E,1,12,0.82,14.9,M,45.4,M,,*55
$GPRMC,162920.000,A,5349.7623,N,01059.6036,E,65.79,89.00,090114,,,A*64
$GPGGA,162927.000,5349.7641,N,01059.8355,E,1,12,0.82,14.4,M,45.4,M,,*51
$GPRMC,162926.000,A,5349.7637,N,01059.8002,E,74.35,88.46,090114,,,A*65
$GPGGA,162932.000,5349.7695,N,01100.0197,E,1,12,0.82,12.7,M,45.4,M,,*50
$GPRMC,162931.000,A,5349.7681,N,01059.9817,E,80.16,86.36,090114,,,A*60
$GPGGA,162937.000,5349.7813,N,01100.2160,E,1,12,0.82,11.2,M,45.4,M,,*59
$GPRMC,162936.000,A,5349.7785,N,01100.1760,E,84.92,83.25,090114,,,A*67
$GPGGA,162942.000,5349.7979,N,01100.4193,E,1,12,0.82,11.3,M,45.4,M,,*5D
$GPRMC,162941.000,A,5349.7945,N,01100.3785,E,87.72,81.95,090114,,,A*68
$GPGGA,162947.000,5349.8154,N,01100.6208,E,1,12,0.82,12.6,M,45.4,M,,*55
$GPRMC,162946.000,A,5349.8119,N,01100.5808,E,86.03,81.73,090114,,,A*62
$GPGGA,162952.000,5349.8325,N,01100.8220,E,1,12,0.82,12.4,M,45.4,M,,*53
$GPRMC,162951.000,A,5349.8293,N,01100.7819,E,86.68,82.20,090114,,,A*6F
$GPGGA,162957.000,5349.8466,N,01101.0190,E,1,10,0.88,12.1,M,45.4,M,,*5A
$GPRMC,162956.000,A,5349.8440,N,01100.9794,E,84.52,83.40,090114,,,A*68
$GPGGA,163002.000,5349.8574,N,01101.2186,E,1,11,0.87,11.4,M,45.4,M,,*5D
$GPRMC,163001.000,A,5349.8554,N,01101.1789,E,84.85,85.06,090114,,,A*6D
$GPGGA,163007.000,5349.8644,N,01101.4171,E,1,9,1.05,10.8,M,45.4,M,,*69
$GPRMC,163006.000,A,5349.8632,N,01101.3772,E,85.09,86.97,090114,,,A*61
$GPGGA,163012.000,5349.8677,N,01101.6134,E,1,12,0.82,10.9,M,45.4,M,,*5B
$GPRMC,163011.000,A,5349.8674,N,01101.5750,E,82.75,88.22,090114,,,A*6F
$GPGGA,163017.000,5349.8676,N,01101.7967,E,1,11,0.84,10.2,M,45.4,M,,*5E
$GPRMC,163016.000,A,5349.8679,N,01101.7611,E,76.72,90.42,090114,,,A*60
$GPGGA,163023.000,5349.8634,N,01101.9980,E,1,12,0.82,9.5,M,45.4,M,,*62
$GPRMC,163022.000,A,5349.8643,N,01101.9659,E,69.21,92.19,090114,,,A*68
$GPGGA,163029.000,5349.8561,N,01102.1909,E,1,11,0.85,8.3,M,45.4,M,,*62
$GPRMC,163028.000,A,5349.8577,N,01102.1585,E,68.47,94.26,090114,,,A*64
$GPGGA,163035.000,5349.8432,N,01102.3945,E,1,12,0.82,4.8,M,45.4,M,,*61
$GPRMC,163034.000,A,5349.8456,N,01102.3601,E,73.54,96.45,090114,,,A*69
$GPGGA,163041.000,5349.8256,N,01102.6092,E,1,12,0.82,2.0,M,45.4,M,,*6E
$GPRMC,163040.000,A,5349.8288,N,01102.5730,E,77.63,98.41,090114,,,A*60
$GPGGA,163046.000,5349.8063,N,01102.7948,E,1,12,0.82,0.1,M,45.4,M,,*61
$GPRMC,163045.000,A,5349.8106,N,01102.7571,E,81.02,100.30,090114,,,A*5D
$GPGGA,163051.000,5349.7820,N,01102.9840,E,1,12,0.82,-1.3,M,45.4,M,,*4E
$GPRMC,163050.000,A,5349.7870,N,01102.9459,E,82.24,102.22,090114,,,A*5D
$GPGGA,163056.000,5349.7539,N,01103.1759,E,1,12,0.82,-1.6,M,45.4,M,,*47
$GPRMC,163055.000,A,5349.7597,N,01103.1382,E,83.52,104.27,090114,,,A*57
$GPGGA,163102.000,5349.7189,N,01103.3816,E,1,10,0.88,-2.0,M,45.4,M,,*43
$GPRMC,163101.000,A,5349.7248,N,01103.3490,E,73.57,106.90,090114,,,A*50
$GPGGA,163108.000,5349.6811,N,01103.5743,E,1,12,0.82,-2.6,M,45.4,M,,*47
$GPRMC,163107.000,A,5349.6877,N,01103.5425,E,71.85,108.81,090114,,,A*5A
$GPGGA,163114.000,5349.6388,N,01103.7663,E,1,12,0.82,-3.3,M,45.4,M,,*44
$GPRMC,163113.000,A,5349.6461,N,01103.7343,E,73.01,110.69,090114,,,A*50
$GPGGA,163120.000,5349.5926,N,01103.9581,E,1,12,0.82,-3.3,M,45.4,M,,*4F
$GPRMC,163119.000,A,5349.6006,N,01103.9265,E,72.98,112.64,090114,,,A*5A
$GPGGA,163126.000,5349.5451,N,01104.1467,E,1,12,0.82,-2.0,M,45.4,M,,*40
$GPRMC,163125.000,A,5349.5530,N,01104.1158,E,71.83,113.22,090114,,,A*5E
$GPGGA,163132.000,5349.4958,N,01104.3316,E,1,11,0.85,-0.7,M,45.4,M,,*42
$GPRMC,163131.000,A,5349.5041,N,01104.3008,E,72.75,114.46,090114,,,A*51
$GPGGA,163138.000,5349.4444,N,01104.5203,E,1,12,0.82,0.7,M,45.4,M,,*62
$GPRMC,163137.000,A,5349.4534,N,01104.4877,E,76.13,114.83,090114,,,A*5B
$GPGGA,163143.000,5349.3971,N,01104.6897,E,1,12,0.82,2.3,M,45.4,M,,*60
$GPRMC,163142.000,A,5349.4068,N,01104.6552,E,80.89,115.25,090114,,,A*5A
$GPGGA,163148.000,5349.3479,N,01104.8652,E,1,12,0.82,3.4,M,45.4,M,,*61
$GPRMC,163147.000,A,5349.3576,N,01104.8298,E,83.31,115.28,090114,,,A*50
$GPGGA,163153.000,5349.3002,N,01105.0390,E,1,12,0.82,3.8,M,45.4,M,,*6D
$GPRMC,163152.000,A,5349.3094,N,01105.0051,E,80.21,114.49,090114,,,A*57
$GPGGA,163158.000,5349.2563,N,01105.2061,E,1,12,0.82,4.1,M,45.4,M,,*64
$GPRMC,163157.000,A,5349.2650,N,01105.1720,E,78.33,113.38,090114,,,A*58
$GPGGA,163203.000,5349.2133,N,01105.3867,E,1,12,0.82,4.5,M,45.4,M,,*63
$GPRMC,163202.000,A,5349.2218,N,01105.3496,E,84.30,111.70,090114,,,A*51
$GPGGA,163208.000,5349.1733,N,01105.5791,E,1,11,0.84,5.6,M,45.4,M,,*6A
$GPRMC,163207.000,A,5349.1808,N,01105.5400,E,87.59,108.36,090114,,,A*53
$GPGGA,163213.000,5349.1390,N,01105.7787,E,1,12,0.82,7.6,M,45.4,M,,*6F
$GPRMC,163212.000,A,5349.1453,N,01105.7379,E,89.00,105.32,090114,,,A*55
$GPGGA,163218.000,5349.1127,N,01105.9782,E,1,11,0.84,10.1,M,45.4,M,,*55
$GPRMC,163217.000,A,5349.1172,N,01105.9397,E,85.21,101.91,090114,,,A*5A
$GPGGA,163223.000,5349.0988,N,01106.1604,E,1,9,1.20,12.6,M,45.4,M,,*66
$GPRMC,163222.000,A,5349.1006,N,01106.1239,E,77.35,95.33,090114,,,A*6C
$GPGGA,163228.000,5349.0918,N,01106.3520,E,1,9,1.20,15.7,M,45.4,M,,*65
$GPRMC,163227.000,A,5349.0928,N,01106.3125,E,83.74,93.06,090114,,,A*6F
$GPGGA,163233.000,5349.0922,N,01106.5575,E,1,12,0.82,18.4,M,45.4,M,,*5D
$GPRMC,163232.000,A,5349.0915,N,01106.5156,E,88.79,89.24,090114,,,A*6A
$GPGGA,163238.000,5349.1017,N,01106.7638,E,1,12,0.82,18.7,M,45.4,M,,*53
$GPRMC,163237.000,A,5349.0990,N,01106.7227,E,88.36,84.57,090114,,,A*67
$GPGGA,163243.000,5349.1205,N,01106.9685,E,1,11,0.87,16.4,M,45.4,M,,*5D
$GPRMC,163242.000,A,5349.1164,N,01106.9277,E,87.92,80.62,090114,,,A*6F
$GPGGA,163248.000,5349.1427,N,01107.1758,E,1,12,0.82,14.4,M,45.3,M,,*5B
$GPRMC,163247.000,A,5349.1382,N,01107.1345,E,89.38,79.79,090114,,,A*6B
$GPGGA,163253.000,5349.1633,N,01107.3797,E,1,9,1.12,15.2,M,45.3,M,,*62
$GPRMC,163252.000,A,5349.1595,N,01107.3391,E,87.78,80.70,090114,,,A*61
$GPGGA,163258.000,5349.1755,N,01107.5802,E,1,9,1.04,16.8,M,45.3,M,,*63
$GPRMC,163257.000,A,5349.1739,N,01107.5402,E,85.70,85.27,090114,,,A*66
$GPGGA,163303.000,5349.1783,N,01107.7849,E,1,12,0.82,16.5,M,45.3,M,,*52
$GPRMC,163302.000,A,5349.1781,N,01107.7431,E,88.93,89.05,090114,,,A*6A
$GPGGA,163308.000,5349.1797,N,01107.9929,E,1,12,0.82,14.3,M,45.3,M,,*51
$GPRMC,163307.000,A,5349.1792,N,01107.9522,E,87.21,88.98,090114,,,A*63
$GPGGA,163313.000,5349.1846,N,01108.1925,E,1,12,0.82,11.0,M,45.3,M,,*55
$GPRMC,163312.000,A,5349.1830,N,01108.1526,E,84.74,86.62,090114,,,A*6B
$GPGGA,163318.000,5349.1976,N,01108.3959,E,1,12,0.82,7.7,M,45.3,M,,*65
$GPRMC,163317.000,A,5349.1943,N,01108.3548,E,88.31,82.86,090114,,,A*62
$GPGGA,163323.000,5349.2157,N,01108.6027,E,1,12,0.82,6.2,M,45.3,M,,*64
$GPRMC,163322.000,A,5349.2119,N,01108.5617,E,88.98,81.50,090114,,,A*64
$GPGGA,163328.000,5349.2356,N,01108.7984,E,1,11,0.92,6.2,M,45.3,M,,*6F
$GPRMC,163327.000,A,5349.2315,N,01108.7605,E,82.96,79.77,090114,,,A*68
$GPGGA,163334.000,5349.2609,N,01109.0125,E,1,12,0.82,7.7,M,45.3,M,,*6E
$GPRMC,163333.000,A,5349.2566,N,01108.9770,E,76.64,78.69,090114,,,A*6A
$GPGGA,163340.000,5349.2929,N,01109.2217,E,1,11,0.87,9.1,M,45.3,M,,*6E
$GPRMC,163339.000,A,5349.2870,N,01109.1881,E,75.17,74.03,090114,,,A*65
$GPGGA,163346.000,5349.3308,N,01109.4105,E,1,12,0.82,10.5,M,45.3,M,,*5C
$GPRMC,163345.000,A,5349.3241,N,01109.3806,E,69.12,70.00,090114,,,A*65
$GPGGA,163353.000,5349.3767,N,01109.5986,E,1,11,0.85,11.6,M,45.3,M,,*51
$GPRMC,163352.000,A,5349.3703,N,01109.5740,E,58.15,66.55,090114,,,A*69
$GPGGA,163400.000,5349.4213,N,01109.7656,E,1,12,0.82,10.9,M,45.3,M,,*5B
$GPRMC,163359.000,A,5349.4149,N,01109.7411,E,57.25,65.86,090114,,,A*69
$GPGGA,163407.000,5349.4693,N,01109.9535,E,1,11,0.84,9.7,M,45.3,M,,*6B
$GPRMC,163406.000,A,5349.4624,N,01109.9243,E,66.09,67.67,090114,,,A*66
$GPGGA,163413.000,5349.5092,N,01110.1420,E,1,11,0.87,8.2,M,45.3,M,,*6A
$GPRMC,163412.000,A,5349.5029,N,01110.1095,E,72.26,71.47,090114,,,A*6D
$GPGGA,163419.000,5349.5426,N,01110.3442,E,1,11,0.87,6.8,M,45.3,M,,*69
$GPRMC,163418.000,A,5349.5377,N,01110.3095,E,75.88,76.28,090114,,,A*60
$GPGGA,163425.000,5349.5666,N,01110.5499,E,1,12,0.82,7.0,M,45.3,M,,*6F
$GPRMC,163424.000,A,5349.5633,N,01110.5165,E,72.44,80.14,090114,,,A*63
$GPGGA,163431.000,5349.5832,N,01110.7507,E,1,12,0.82,8.0,M,45.3,M,,*6E
$GPRMC,163430.000,A,5349.5805,N,01110.7159,E,74.22,82.22,090114,,,A*61
$GPGGA,163437.000,5349.6016,N,01110.9633,E,1,11,0.85,9.1,M,45.3,M,,*6B
$GPRMC,163436.000,A,5349.5982,N,01110.9288,E,75.12,80.71,090114,,,A*6E
$GPGGA,163443.000,5349.6235,N,01111.1507,E,1,11,0.84,10.3,M,45.3,M,,*5D
$GPRMC,163442.000,A,5349.6195,N,01111.1217,E,64.06,77.72,090114,,,A*61
$GPGGA,163449.000,5349.6533,N,01111.3351,E,1,9,1.31,11.6,M,45.3,M,,*63
$GPRMC,163448.000,A,5349.6474,N,01111.3027,E,71.07,73.82,090114,,,A*6C
$GPGGA,163455.000,5349.6959,N,01111.5414,E,1,11,0.87,13.9,M,45.3,M,,*56
$GPRMC,163454.000,A,5349.6879,N,01111.5058,E,80.33,69.32,090114,,,A*67
$GPGGA,163500.000,5349.7386,N,01111.7226,E,1,12,0.82,16.2,M,45.3,M,,*53
$GPRMC,163459.000,A,5349.7299,N,01111.6863,E,83.18,67.80,090114,,,A*61
$GPGGA,163505.000,5349.7816,N,01111.9092,E,1,12,0.82,17.9,M,45.3,M,,*5D
$GPRMC,163504.000,A,5349.7732,N,01111.8719,E,85.56,68.82,090114,,,A*61
$GPGGA,163510.000,5349.8161,N,01112.0829,E,1,10,0.93,19.2,M,45.3,M,,*5A
$GPRMC,163509.000,A,5349.8103,N,01112.0513,E,72.55,72.76,090114,,,A*6F
$GPGGA,163516.000,5349.8431,N,01112.2594,E,1,11,0.87,20.5,M,45.3,M,,*5C
$GPRMC,163515.000,A,5349.8391,N,01112.2293,E,65.21,76.79,090114,,,A*68
$GPGGA,163522.000,5349.8653,N,01112.4572,E,1,12,0.82,22.7,M,45.3,M,,*55
$GPRMC,163521.000,A,5349.8620,N,01112.4225,E,74.45,80.48,090114,,,A*62
$GPGGA,163528.000,5349.8802,N,01112.6721,E,1,8,1.28,23.8,M,45.3,M,,*67
$GPRMC,163527.000,A,5349.8787,N,01112.6366,E,76.25,84.97,090114,,,A*6E
$GPGGA,163534.000,5349.8832,N,01112.8888,E,1,12,0.82,25.0,M,45.3,M,,*5F
$GPRMC,163533.000,A,5349.8834,N,01112.8524,E,78.12,89.48,090114,,,A*67
$GPGGA,163539.000,5349.8775,N,01113.0755,E,1,12,0.82,25.4,M,45.3,M,,*5C
$GPRMC,163538.000,A,5349.8793,N,01113.0372,E,80.95,93.53,090114,,,A*6B
$GPGGA,163544.000,5349.8632,N,01113.2739,E,1,12,0.82,25.6,M,45.3,M,,*5E
$GPRMC,163543.000,A,5349.8668,N,01113.2336,E,86.11,97.64,090114,,,A*6A
$GPGGA,163549.000,5349.8406,N,01113.4711,E,1,12,0.82,25.1,M,45.3,M,,*5D
$GPRMC,163548.000,A,5349.8457,N,01113.4323,E,84.71,101.66,090114,,,A*55
$GPGGA,163554.000,5349.8087,N,01113.6696,E,1,12,0.82,24.0,M,45.3,M,,*50
$GPRMC,163553.000,A,5349.8159,N,01113.6294,E,88.77,106.11,090114,,,A*56
$GPGGA,163559.000,5349.7692,N,01113.8637,E,1,12,0.82,22.4,M,45.3,M,,*57
$GPRMC,163558.000,A,5349.7772,N,01113.8261,E,85.82,109.60,090114,,,A*57
$GPGGA,163604.000,5349.7294,N,01114.0480,E,1,12,0.82,21.1,M,45.3,M,,*59
$GPRMC,163603.000,A,5349.7372,N,01114.0116,E,82.73,109.74,090114,,,A*5E
$GPGGA,163609.000,5349.6924,N,01114.2340,E,1,11,0.83,21.0,M,45.3,M,,*5F
$GPRMC,163608.000,A,5349.6994,N,01114.1961,E,84.35,107.83,090114,,,A*5D
$GPGGA,163614.000,5349.6617,N,01114.4252,E,1,11,0.84,21.8,M,45.3,M,,*57
$GPRMC,163613.000,A,5349.6670,N,01114.3869,E,84.18,103.89,090114,,,A*58
$GPGGA,163619.000,5349.6403,N,01114.6188,E,1,11,0.85,22.8,M,45.3,M,,*59
$GPRMC,163618.000,A,5349.6439,N,01114.5797,E,84.53,99.50,090114,,,A*6D
$GPGGA,163624.000,5349.6270,N,01114.8134,E,1,12,0.82,23.8,M,45.3,M,,*59
$GPRMC,163623.000,A,5349.6289,N,01114.7751,E,82.75,95.48,090114,,,A*67
$GPGGA,163629.000,5349.6221,N,01114.9998,E,1,12,0.82,24.7,M,45.3,M,,*57
$GPRMC,163628.000,A,5349.6224,N,01114.9632,E,78.84,91.75,090114,,,A*60
$GPGGA,163634.000,5349.6238,N,01115.1824,E,1,11,0.87,25.5,M,45.3,M,,*59
$GPRMC,163633.000,A,5349.6230,N,01115.1451,E,79.06,88.53,090114,,,A*66
$GPGGA,163639.000,5349.6304,N,01115.3734,E,1,12,0.85,26.1,M,45.2,M,,*51
$GPRMC,163638.000,A,5349.6288,N,01115.3352,E,81.66,86.19,090114,,,A*69
$GPGGA,163644.000,5349.6409,N,01115.5704,E,1,13,0.81,26.5,M,45.2,M,,*55
$GPRMC,163643.000,A,5349.6384,N,01115.5304,E,85.65,84.30,090114,,,A*63
$GPGGA,163649.000,5349.6542,N,01115.7667,E,1,13,0.81,25.9,M,45.2,M,,*5F
$GPRMC,163648.000,A,5349.6515,N,01115.7277,E,83.90,83.40,090114,,,A*6D
$GPGGA,163654.000,5349.6678,N,01115.9649,E,1,11,0.90,24.5,M,45.2,M,,*54
$GPRMC,163653.000,A,5349.6652,N,01115.9244,E,86.33,83.72,090114,,,A*64
$GPGGA,163659.000,5349.6804,N,01116.1654,E,1,10,0.91,23.8,M,45.2,M,,*51
$GPRMC,163658.000,A,5349.6780,N,01116.1261,E,84.34,84.08,090114,,,A*62
$GPGGA,163704.000,5349.6899,N,01116.3677,E,1,12,0.82,24.0,M,45.2,M,,*50
$GPRMC,163703.000,A,5349.6883,N,01116.3266,E,87.65,85.76,090114,,,A*6B
$GPGGA,163709.000,5349.6939,N,01116.5738,E,1,12,0.82,23.2,M,45.2,M,,*5F
$GPRMC,163708.000,A,5349.6936,N,01116.5322,E,88.63,88.77,090114,,,A*6D
$GPGGA,163714.000,5349.6914,N,01116.7830,E,1,13,0.81,21.7,M,45.2,M,,*5C
$GPRMC,163713.000,A,5349.6925,N,01116.7410,E,89.44,92.08,090114,,,A*66
$GPGGA,163719.000,5349.6797,N,01116.9888,E,1,12,0.83,20.7,M,45.2,M,,*5B
$GPRMC,163718.000,A,5349.6826,N,01116.9488,E,86.26,96.63,090114,,,A*62
$GPGGA,163724.000,5349.6603,N,01117.1867,E,1,9,1.21,21.0,M,45.2,M,,*64
$GPRMC,163723.000,A,5349.6649,N,01117.1467,E,86.56,100.55,090114,,,A*59
$GPGGA,163729.000,5349.6339,N,01117.3848,E,1,11,0.85,24.5,M,45.2,M,,*5C
$GPRMC,163728.000,A,5349.6397,N,01117.3456,E,86.74,103.77,090114,,,A*57
$GPGGA,163734.000,5349.6017,N,01117.5750,E,1,13,0.81,28.3,M,45.2,M,,*53
$GPRMC,163733.000,A,5349.6086,N,01117.5366,E,84.79,106.47,090114,,,A*55
$GPGGA,163739.000,5349.5631,N,01117.7711,E,1,13,0.81,32.1,M,45.2,M,,*51
$GPRMC,163738.000,A,5349.5712,N,01117.7316,E,89.03,108.43,090114,,,A*58
$GPGGA,163744.000,5349.5205,N,01117.9648,E,1,13,0.81,34.6,M,45.2,M,,*5A
$GPRMC,163743.000,A,5349.5293,N,01117.9273,E,86.77,110.95,090114,,,A*5A
$GPGGA,163749.000,5349.4780,N,01118.1478,E,1,11,0.89,34.7,M,45.2,M,,*53
$GPRMC,163748.000,A,5349.4864,N,01118.1110,E,83.78,110.89,090114,,,A*54
$GPGGA,163754.000,5349.4354,N,01118.3359,E,1,13,0.81,33.1,M,45.2,M,,*5F
$GPRMC,163753.000,A,5349.4440,N,01118.2981,E,86.63,110.50,090114,,,A*5C
$GPGGA,163759.000,5349.3931,N,01118.5226,E,1,13,0.81,31.9,M,45.2,M,,*59
$GPRMC,163758.000,A,5349.4013,N,01118.4854,E,84.26,110.45,090114,,,A*5D
$GPGGA,163804.000,5349.3534,N,01118.7097,E,1,11,0.84,30.9,M,45.2,M,,*5B
$GPRMC,163803.000,A,5349.3612,N,01118.6721,E,85.15,109.69,090114,,,A*54
$GPGGA,163809.000,5349.3171,N,01118.8961,E,1,12,0.82,29.8,M,45.2,M,,*50
$GPRMC,163808.000,A,5349.3243,N,01118.8585,E,83.70,108.05,090114,,,A*53
$GPGGA,163814.000,5349.2842,N,01119.0922,E,1,13,0.81,28.2,M,45.2,M,,*53
$GPRMC,163813.000,A,5349.2902,N,01119.0521,E,88.86,104.70,090114,,,A*5D
$GPGGA,163819.000,5349.2579,N,01119.2875,E,1,13,0.81,26.9,M,45.2,M,,*5F
$GPRMC,163818.000,A,5349.2627,N,01119.2492,E,84.15,102.35,090114,,,A*54
$GPGGA,163825.000,5349.2365,N,01119.4966,E,1,12,0.82,25.7,M,45.2,M,,*51
$GPRMC,163824.000,A,5349.2393,N,01119.4636,E,71.56,98.78,090114,,,A*6D
$GPGGA,163831.000,5349.2262,N,01119.6925,E,1,13,0.81,25.4,M,45.2,M,,*56
$GPRMC,163830.000,A,5349.2272,N,01119.6603,E,70.15,94.20,090114,,,A*65
$GPGGA,163837.000,5349.2245,N,01119.8829,E,1,13,0.81,25.7,M,45.2,M,,*55
$GPRMC,163836.000,A,5349.2243,N,01119.8509,E,68.17,89.95,090114,,,A*6F
$GPGGA,163843.000,5349.2306,N,01120.0691,E,1,13,0.81,27.4,M,45.2,M,,*5E
$GPRMC,163842.000,A,5349.2289,N,01120.0390,E,64.67,85.32,090114,,,A*64
$GPGGA,163849.000,5349.2455,N,01120.2543,E,1,12,0.80,31.3,M,45.2,M,,*5B
$GPRMC,163848.000,A,5349.2424,N,01120.2234,E,67.33,81.25,090114,,,A*62
$GPGGA,163855.000,5349.2687,N,01120.4396,E,1,11,0.85,34.3,M,45.2,M,,*50
$GPRMC,163854.000,A,5349.2642,N,01120.4077,E,68.56,76.81,090114,,,A*64
$GPGGA,163901.000,5349.3042,N,01120.6392,E,1,12,0.84,35.3,M,45.2,M,,*5B
$GPRMC,163900.000,A,5349.2974,N,01120.6045,E,76.64,72.37,090114,,,A*6A
$GPGGA,163906.000,5349.3450,N,01120.8180,E,1,13,0.81,34.6,M,45.2,M,,*54
$GPRMC,163905.000,A,5349.3360,N,01120.7818,E,82.91,68.10,090114,,,A*6F
$GPGGA,163911.000,5349.3962,N,01120.9984,E,1,13,0.81,34.3,M,45.2,M,,*56
$GPRMC,163910.000,A,5349.3852,N,01120.9624,E,85.86,63.33,090114,,,A*65
$GPGGA,163916.000,5349.4581,N,01121.1789,E,1,12,0.82,36.2,M,45.2,M,,*5C
$GPRMC,163915.000,A,5349.4447,N,01121.1429,E,90.07,58.76,090114,,,A*6D
$GPGGA,163921.000,5349.5299,N,01121.3505,E,1,13,0.81,41.1,M,45.2,M,,*52
$GPRMC,163920.000,A,5349.5152,N,01121.3178,E,87.86,53.53,090114,,,A*6B
$GPGGA,163926.000,5349.6066,N,01121.5072,E,1,13,0.81,46.2,M,45.2,M,,*53
$GPRMC,163925.000,A,5349.5909,N,01121.4771,E,86.32,49.31,090114,,,A*61
$GPGGA,163931.000,5349.6859,N,01121.6433,E,1,12,0.91,50.0,M,45.2,M,,*56
$GPRMC,163930.000,A,5349.6702,N,01121.6176,E,79.28,44.80,090114,,,A*6C
$GPGGA,163937.000,5349.7787,N,01121.7791,E,1,12,0.82,53.6,M,45.2,M,,*50
$GPRMC,163936.000,A,5349.7629,N,01121.7580,E,72.12,39.57,090114,,,A*6D
$GPGGA,163943.000,5349.8828,N,01121.9067,E,1,12,0.80,56.7,M,45.2,M,,*50
$GPRMC,163942.000,A,5349.8641,N,01121.8857,E,81.08,33.78,090114,,,A*67
$GPGGA,163948.000,5349.9772,N,01122.0050,E,1,9,1.14,58.5,M,45.2,M,,*6E
$GPRMC,163947.000,A,5349.9581,N,01121.9866,E,79.26,30.67,090114,,,A*69
$GPGGA,163953.000,5350.0774,N,01122.0899,E,1,12,0.80,59.7,M,45.2,M,,*5B
$GPRMC,163952.000,A,5350.0569,N,01122.0733,E,81.63,25.80,090114,,,A*64
$GPGGA,163958.000,5350.1818,N,01122.1656,E,1,12,0.80,63.0,M,45.2,M,,*56
$GPRMC,163957.000,A,5350.1606,N,01122.1514,E,82.00,22.15,090114,,,A*61
$GPGGA,164003.000,5350.2913,N,01122.2286,E,1,12,0.82,62.7,M,45.2,M,,*51
$GPRMC,164002.000,A,5350.2690,N,01122.2172,E,84.30,17.71,090114,,,A*65
$GPGGA,164008.000,5350.4045,N,01122.2790,E,1,12,0.82,60.1,M,45.2,M,,*50
$GPRMC,164007.000,A,5350.3819,N,01122.2694,E,84.61,13.94,090114,,,A*6A
$GPGGA,164013.000,5350.5190,N,01122.3243,E,1,12,0.82,56.4,M,45.1,M,,*5B
$GPRMC,164012.000,A,5350.4964,N,01122.3158,E,84.14,12.51,090114,,,A*6E
$GPGGA,164018.000,5350.6291,N,01122.3665,E,1,12,0.82,53.0,M,45.1,M,,*50
$GPRMC,164017.000,A,5350.6075,N,01122.3581,E,80.17,12.83,090114,,,A*68
$GPGGA,164024.000,5350.7535,N,01122.4178,E,1,12,0.82,49.7,M,45.1,M,,*57
$GPRMC,164023.000,A,5350.7335,N,01122.4088,E,75.20,14.69,090114,,,A*6E
$GPGGA,164030.000,5350.8607,N,01122.4740,E,1,12,0.82,47.7,M,45.1,M,,*5C
$GPRMC,164029.000,A,5350.8446,N,01122.4647,E,62.63,18.38,090114,,,A*64
$GPGGA,164037.000,5350.9641,N,01122.5426,E,1,11,0.92,45.4,M,45.1,M,,*59
$GPRMC,164036.000,A,5350.9499,N,01122.5326,E,56.06,22.09,090114,,,A*65
$GPGGA,164045.000,5351.0660,N,01122.6287,E,1,12,0.82,43.8,M,45.1,M,,*51
$GPRMC,164044.000,A,5351.0552,N,01122.6188,E,45.95,28.32,090114,,,A*61
$GPGGA,164100.000,5351.1418,N,01122.7668,E,1,13,0.80,43.3,M,45.1,M,,*51
$GPRMC,164059.000,A,5351.1408,N,01122.7574,E,20.81,78.99,090114,,,A*66
$DeviceName=pironex_auto
$Software=0.1.3
$Hardware=1
$LastValidPosition=
$IMEI=359193030849087
$LocalIP=10.33.52.103
$CmdVersion=2
$SUCCESS
$<end>
$GPGGA,164559.000,5351.2427,N,01122.8558,E,1,10,1.03,36.4,M,45.1,M,,*55
$GPRMC,164558.000,V,,,,,19.36,0.36,090114,,,N*73
$GPGGA,164615.000,5351.3454,N,01122.9443,E,1,10,0.90,52.2,M,45.1,M,,*5E
$GPRMC,164614.000,A,5351.3363,N,01122.9320,E,39.93,38.61,090114,,,A*60
$GPGGA,164623.000,5351.4296,N,01123.0734,E,1,12,0.84,53.6,M,45.1,M,,*5D
$GPRMC,164622.000,A,5351.4187,N,01123.0554,E,55.12,44.72,090114,,,A*6D
$GPGGA,164630.000,5351.5088,N,01123.2092,E,1,12,0.86,45.4,M,45.1,M,,*5D
$GPRMC,164629.000,A,5351.4972,N,01123.1876,E,61.28,46.79,090114,,,A*6F
$GPGGA,164636.000,5351.5776,N,01123.3514,E,1,13,0.86,34.3,M,45.1,M,,*57
$GPRMC,164635.000,A,5351.5660,N,01123.3257,E,67.01,51.24,090114,,,A*67
$GPGGA,164642.000,5351.6480,N,01123.5280,E,1,13,0.76,27.6,M,45.1,M,,*59
$GPRMC,164641.000,A,5351.6363,N,01123.4969,E,78.12,57.32,090114,,,A*6D
$GPGGA,164647.000,5351.7034,N,01123.6886,E,1,11,0.89,24.6,M,45.1,M,,*58
$GPRMC,164646.000,A,5351.6930,N,01123.6564,E,78.53,60.73,090114,,,A*61
$GPGGA,164653.000,5351.7546,N,01123.8730,E,1,14,0.74,26.3,M,45.1,M,,*51
$GPRMC,164652.000,A,5351.7468,N,01123.8435,E,67.48,65.28,090114,,,A*61
$GPGGA,164659.000,5351.7988,N,01124.0578,E,1,12,0.77,28.8,M,45.1,M,,*54
$GPRMC,164658.000,A,5351.7919,N,01124.0250,E,72.37,69.81,090114,,,A*69
$GPGGA,164704.000,5351.8304,N,01124.2339,E,1,14,0.74,29.1,M,45.1,M,,*50
$GPRMC,164703.000,A,5351.8246,N,01124.1971,E,79.17,74.10,090114,,,A*6C
$GPGGA,164709.000,5351.8546,N,01124.4213,E,1,14,0.74,26.7,M,45.1,M,,*5B
$GPRMC,164708.000,A,5351.8503,N,01124.3836,E,81.17,78.36,090114,,,A*6E
$GPGGA,164714.000,5351.8716,N,01124.6077,E,1,13,0.76,22.1,M,45.1,M,,*55
$GPRMC,164713.000,A,5351.8688,N,01124.5705,E,79.40,82.09,090114,,,A*61
$GPGGA,164719.000,5351.8807,N,01124.7946,E,1,14,0.74,19.1,M,45.1,M,,*50
$GPRMC,164718.000,A,5351.8793,N,01124.7571,E,79.71,85.70,090114,,,A*69
$GPGGA,164724.000,5351.8838,N,01124.9822,E,1,13,0.80,18.4,M,45.1,M,,*57
$GPRMC,164723.000,A,5351.8839,N,01124.9447,E,79.65,89.47,090114,,,A*69
$GPGGA,164729.000,5351.8817,N,01125.1726,E,1,13,0.80,19.4,M,45.1,M,,*54
$GPRMC,164728.000,A,5351.8824,N,01125.1341,E,81.56,91.33,090114,,,A*6B
$GPGGA,164734.000,5351.8767,N,01125.3658,E,1,12,0.82,20.2,M,45.1,M,,*55
$GPRMC,164733.000,A,5351.8783,N,01125.3271,E,82.41,93.02,090114,,,A*66
$GPGGA,164739.000,5351.8650,N,01125.5580,E,1,13,0.80,21.1,M,45.1,M,,*5C
$GPRMC,164738.000,A,5351.8677,N,01125.5198,E,82.17,96.20,090114,,,A*63
$GPGGA,164744.000,5351.8486,N,01125.7470,E,1,13,0.80,22.2,M,45.1,M,,*53
$GPRMC,164743.000,A,5351.8523,N,01125.7092,E,81.26,98.71,090114,,,A*6F
$GPGGA,164749.000,5351.8275,N,01125.9345,E,1,12,0.83,21.8,M,45.1,M,,*50
$GPRMC,164748.000,A,5351.8320,N,01125.8977,E,80.58,101.28,090114,,,A*59
$GPGGA,164755.000,5351.7983,N,01126.1447,E,1,13,0.80,19.7,M,45.1,M,,*58
$GPRMC,164754.000,A,5351.8035,N,01126.1109,E,74.81,104.14,090114,,,A*5D
$GPGGA,164801.000,5351.7629,N,01126.3380,E,1,14,0.74,17.0,M,45.1,M,,*52
$GPRMC,164800.000,A,5351.7691,N,01126.3066,E,70.64,108.36,090114,,,A*5D
$GPGGA,164807.000,5351.7218,N,01126.5345,E,1,14,0.74,14.3,M,45.1,M,,*5D
$GPRMC,164806.000,A,5351.7291,N,01126.5003,E,76.49,109.65,090114,,,A*54
$GPGGA,164812.000,5351.6824,N,01126.7097,E,1,13,0.75,13.9,M,45.1,M,,*58
$GPRMC,164811.000,A,5351.6908,N,01126.6743,E,80.90,111.11,090114,,,A*5F
$GPGGA,164817.000,5351.6370,N,01126.8879,E,1,13,0.75,14.8,M,45.1,M,,*56
$GPRMC,164816.000,A,5351.6464,N,01126.8521,E,83.13,113.57,090114,,,A*5F
$GPGGA,164822.000,5351.5867,N,01127.0677,E,1,14,0.74,16.7,M,45.1,M,,*5C
$GPRMC,164821.000,A,5351.5969,N,01127.0317,E,84.77,115.38,090114,,,A*58
$GPGGA,164827.000,5351.5352,N,01127.2490,E,1,14,0.74,15.7,M,45.1,M,,*5E
$GPRMC,164826.000,A,5351.5453,N,01127.2121,E,86.68,115.08,090114,,,A*51
$GPGGA,164832.000,5351.4871,N,01127.4313,E,1,14,0.74,13.9,M,45.1,M,,*53
$GPRMC,164831.000,A,5351.4963,N,01127.3944,E,84.75,112.70,090114,,,A*54
$GPGGA,164837.000,5351.4422,N,01127.6202,E,1,13,0.73,10.4,M,45.1,M,,*51
$GPRMC,164836.000,A,5351.4508,N,01127.5817,E,87.04,111.09,090114,,,A*5B
$GPGGA,164842.000,5351.4041,N,01127.8169,E,1,10,0.96,6.4,M,45.1,M,,*6D
$GPRMC,164841.000,A,5351.4111,N,01127.7770,E,88.35,106.84,090114,,,A*55
$GPGGA,164847.000,5351.3759,N,01128.0183,E,1,13,0.80,5.2,M,45.1,M,,*63
$GPRMC,164846.000,A,5351.3807,N,01127.9779,E,87.62,101.91,090114,,,A*52
$GPGGA,164852.000,5351.3566,N,01128.2220,E,1,12,0.81,7.0,M,45.1,M,,*61
$GPRMC,164851.000,A,5351.3598,N,01128.1810,E,87.93,98.13,090114,,,A*6D
$GPGGA,164857.000,5351.3472,N,01128.4284,E,1,13,0.80,8.5,M,45.1,M,,*62
$GPRMC,164856.000,A,5351.3480,N,01128.3869,E,88.34,92.84,090114,,,A*68
$GPGGA,164902.000,5351.3490,N,01128.6341,E,1,14,0.74,10.0,M,45.1,M,,*55
$GPRMC,164901.000,A,5351.3479,N,01128.5932,E,87.23,88.11,090114,,,A*6A
$GPGGA,164907.000,5351.3618,N,01128.8354,E,1,14,0.74,10.7,M,45.0,M,,*5E
$GPRMC,164906.000,A,5351.3584,N,01128.7956,E,85.57,82.91,090114,,,A*6D
$GPGGA,164912.000,5351.3848,N,01129.0329,E,1,14,0.74,10.2,M,45.0,M,,*57
$GPRMC,164911.000,A,5351.3796,N,01128.9936,E,85.58,78.01,090114,,,A*61
$GPGGA,164917.000,5351.4164,N,01129.2295,E,1,13,0.80,9.0,M,45.0,M,,*60
$GPRMC,164916.000,A,5351.4094,N,01129.1900,E,87.46,73.97,090114,,,A*61
$GPGGA,164922.000,5351.4567,N,01129.4217,E,1,13,0.80,8.0,M,45.0,M,,*6C
$GPRMC,164921.000,A,5351.4481,N,01129.3843,E,85.61,69.48,090114,,,A*6F
$GPGGA,164927.000,5351.5028,N,01129.6010,E,1,14,0.74,6.9,M,45.0,M,,*6A
$GPRMC,164926.000,A,5351.4930,N,01129.5661,E,81.98,65.59,090114,,,A*69
$GPGGA,164932.000,5351.5579,N,01129.7758,E,1,12,0.81,6.1,M,45.0,M,,*61
$GPRMC,164931.000,A,5351.5464,N,01129.7407,E,85.04,61.75,090114,,,A*69
$GPGGA,164937.000,5351.6197,N,01129.9512,E,1,14,0.74,6.5,M,45.0,M,,*69
$GPRMC,164936.000,A,5351.6067,N,01129.9161,E,87.67,58.48,090114,,,A*62
$GPGGA,164942.000,5351.6886,N,01130.1275,E,1,14,0.74,8.6,M,45.0,M,,*69
$GPRMC,164941.000,A,5351.6744,N,01130.0923,E,90.57,56.28,090114,,,A*66
$GPGGA,164947.000,5351.7643,N,01130.3003,E,1,13,0.80,11.8,M,45.0,M,,*51
$GPRMC,164946.000,A,5351.7486,N,01130.2662,E,91.92,52.63,090114,,,A*66
$GPGGA,164952.000,5351.8459,N,01130.4688,E,1,13,0.80,14.0,M,45.0,M,,*5C
$GPRMC,164951.000,A,5351.8293,N,01130.4353,E,93.09,50.03,090114,,,A*68
$GPGGA,164957.000,5351.9288,N,01130.6287,E,1,13,0.80,14.9,M,45.0,M,,*52
$GPRMC,164956.000,A,5351.9124,N,01130.5978,E,88.70,48.49,090114,,,A*60
$GPGGA,165002.000,5352.0100,N,01130.7764,E,1,14,0.74,14.8,M,45.0,M,,*57
$GPRMC,165001.000,A,5351.9938,N,01130.7473,E,84.78,46.78,090114,,,A*63
$GPGGA,165007.000,5352.0926,N,01130.9194,E,1,14,0.74,13.2,M,45.0,M,,*54
$GPRMC,165006.000,A,5352.0757,N,01130.8905,E,85.96,45.43,090114,,,A*60
$GPGGA,165012.000,5352.1793,N,01131.0657,E,1,13,0.75,10.4,M,45.0,M,,*52
$GPRMC,165011.000,A,5352.1617,N,01131.0363,E,88.77,44.74,090114,,,A*66
$GPGGA,165017.000,5352.2678,N,01131.2120,E,1,13,0.75,7.8,M,45.0,M,,*6F
$GPRMC,165016.000,A,5352.2502,N,01131.1830,E,89.04,44.40,090114,,,A*6B
$GPGGA,165022.000,5352.3562,N,01131.3537,E,1,12,0.89,7.6,M,45.0,M,,*6F
$GPRMC,165021.000,A,5352.3387,N,01131.3253,E,87.72,43.56,090114,,,A*67
$GPGGA,165027.000,5352.4417,N,01131.5013,E,1,13,0.75,9.9,M,45.0,M,,*68
$GPRMC,165026.000,A,5352.4249,N,01131.4709,E,88.53,46.37,090114,,,A*67
$GPGGA,165032.000,5352.5215,N,01131.6571,E,1,14,0.74,14.9,M,45.0,M,,*51
$GPRMC,165031.000,A,5352.5063,N,01131.6260,E,87.01,50.09,090114,,,A*60
$GPGGA,165037.000,5352.5906,N,01131.8107,E,1,13,0.80,20.7,M,45.0,M,,*53
$GPRMC,165036.000,A,5352.5776,N,01131.7796,E,81.31,54.18,090114,,,A*68
$GPGGA,165042.000,5352.6519,N,01131.9740,E,1,14,0.74,26.7,M,45.0,M,,*5E
$GPRMC,165041.000,A,5352.6402,N,01131.9402,E,83.11,58.92,090114,,,A*65
$GPGGA,165047.000,5352.7064,N,01132.1492,E,1,11,0.87,31.7,M,45.0,M,,*5D
$GPRMC,165046.000,A,5352.6959,N,01132.1136,E,84.90,62.66,090114,,,A*64
$GPGGA,165052.000,5352.7516,N,01132.3343,E,1,13,0.80,36.6,M,45.0,M,,*53
$GPRMC,165051.000,A,5352.7434,N,01132.2969,E,85.37,69.03,090114,,,A*60
$GPGGA,165057.000,5352.7857,N,01132.5152,E,1,12,0.83,40.0,M,45.0,M,,*5F
$GPRMC,165056.000,A,5352.7794,N,01132.4802,E,78.81,72.75,090114,,,A*60
$GPGGA,165103.000,5352.8163,N,01132.7214,E,1,14,0.72,44.0,M,45.0,M,,*51
$GPRMC,165102.000,A,5352.8120,N,01132.6862,E,76.09,77.40,090114,,,A*6F
$GPGGA,165108.000,5352.8355,N,01132.9040,E,1,14,0.74,47.1,M,45.0,M,,*54
$GPRMC,165107.000,A,5352.8321,N,01132.8665,E,80.31,80.54,090114,,,A*61
$GPGGA,165112.000,5352.8527,N,01133.0959,E,1,13,0.75,51.7,M,45.0,M,,*52
$GPRMC,165111.000,A,5352.8493,N,01133.0569,E,82.24,82.04,090114,,,A*6F
$GPGGA,165117.000,5352.8679,N,01133.2863,E,1,12,0.77,54.1,M,45.0,M,,*55
$GPRMC,165116.000,A,5352.8649,N,01133.2487,E,80.47,82.70,090114,,,A*6A
$GPGGA,165122.000,5352.8780,N,01133.4760,E,1,12,0.78,55.0,M,45.0,M,,*51
$GPRMC,165121.000,A,5352.8761,N,01133.4376,E,81.12,85.11,090114,,,A*6B
$GPGGA,165127.000,5352.8841,N,01133.6719,E,1,10,0.88,54.5,M,45.0,M,,*53
$GPRMC,165126.000,A,5352.8834,N,01133.6325,E,84.16,86.69,090114,,,A*6A
$GPGGA,165132.000,5352.8871,N,01133.8744,E,1,13,0.75,55.0,M,45.0,M,,*57
$GPRMC,165131.000,A,5352.8867,N,01133.8336,E,86.69,88.56,090114,,,A*6E
$GPGGA,165137.000,5352.8853,N,01134.0771,E,1,11,0.87,55.1,M,44.9,M,,*5D
$GPRMC,165136.000,A,5352.8862,N,01134.0370,E,86.35,91.19,090114,,,A*6B
$GPGGA,165142.000,5352.8786,N,01134.2761,E,1,12,0.83,53.8,M,44.9,M,,*53
$GPRMC,165141.000,A,5352.8802,N,01134.2370,E,84.08,93.11,090114,,,A*69
$GPGGA,165147.000,5352.8673,N,01134.4711,E,1,12,0.83,53.3,M,44.9,M,,*57
$GPRMC,165146.000,A,5352.8700,N,01134.4319,E,83.83,96.19,090114,,,A*63
$GPGGA,165152.000,5352.8504,N,01134.6694,E,1,9,0.98,53.8,M,44.9,M,,*65
$GPRMC,165151.000,A,5352.8542,N,01134.6298,E,85.84,98.67,090114,,,A*6D
$GPGGA,165157.000,5352.8293,N,01134.8583,E,1,11,0.85,54.4,M,44.9,M,,*5C
$GPRMC,165156.000,A,5352.8337,N,01134.8215,E,81.55,100.37,090114,,,A*58
$GPGGA,165203.000,5352.7980,N,01135.0706,E,1,13,0.75,55.1,M,44.9,M,,*57
$GPRMC,165202.000,A,5352.8038,N,01135.0349,E,78.85,104.51,090114,,,A*58
$GPGGA,165208.000,5352.7661,N,01135.2530,E,1,13,0.75,56.6,M,44.9,M,,*5D
$GPRMC,165207.000,A,5352.7730,N,01135.2161,E,82.69,107.07,090114,,,A*50
$GPGGA,165213.000,5352.7275,N,01135.4398,E,1,13,0.75,57.7,M,44.9,M,,*54
$GPRMC,165212.000,A,5352.7357,N,01135.4026,E,84.91,109.89,090114,,,A*5C
$GPGGA,165218.000,5352.6827,N,01135.6254,E,1,13,0.75,58.8,M,44.9,M,,*50
$GPRMC,165217.000,A,5352.6921,N,01135.5884,E,85.93,112.72,090114,,,A*5F
$GPGGA,165223.000,5352.6325,N,01135.8096,E,1,9,1.22,58.8,M,44.9,M,,*6B
$GPRMC,165222.000,A,5352.6429,N,01135.7733,E,86.46,115.29,090114,,,A*5F
$GPGGA,165228.000,5352.5776,N,01135.9888,E,1,8,1.68,58.1,M,44.9,M,,*61
$GPRMC,165227.000,A,5352.5888,N,01135.9535,E,85.80,117.84,090114,,,A*58
$GPGGA,165233.000,5352.5219,N,01136.1632,E,1,8,1.30,56.5,M,44.9,M,,*64
$GPRMC,165232.000,A,5352.5331,N,01136.1287,E,84.11,118.42,090114,,,A*5C
$GPGGA,165238.000,5352.4669,N,01136.3330,E,1,10,0.92,54.4,M,44.9,M,,*5B
$GPRMC,165237.000,A,5352.4778,N,01136.2993,E,81.96,118.56,090114,,,A*53
$GPGGA,165243.000,5352.4132,N,01136.5056,E,1,13,0.75,51.3,M,44.9,M,,*53
$GPRMC,165242.000,A,5352.4238,N,01136.4707,E,83.95,117.39,090114,,,A*52
$GPGGA,165248.000,5352.3627,N,01136.6867,E,1,8,1.30,47.3,M,44.9,M,,*68
$GPRMC,165247.000,A,5352.3723,N,01136.6496,E,85.74,114.16,090114,,,A*51
$GPGGA,165253.000,5352.3189,N,01136.8764,E,1,8,1.26,42.9,M,44.9,M,,*6B
$GPRMC,165252.000,A,5352.3270,N,01136.8381,E,86.22,110.20,090114,,,A*58
$GPGGA,165258.000,5352.2839,N,01137.0698,E,1,9,1.05,38.3,M,44.9,M,,*6F
$GPRMC,165257.000,A,5352.2904,N,01137.0305,E,86.25,105.88,090114,,,A*50
$GPGGA,165303.000,5352.2576,N,01137.2666,E,1,11,0.85,34.8,M,44.9,M,,*52
$GPRMC,165302.000,A,5352.2620,N,01137.2272,E,85.54,101.46,090114,,,A*58
$GPGGA,165308.000,5352.2391,N,01137.4673,E,1,13,0.75,31.8,M,44.9,M,,*5C
$GPRMC,165307.000,A,5352.2422,N,01137.4266,E,86.95,97.99,090114,,,A*6C
$GPGGA,165313.000,5352.2293,N,01137.6710,E,1,12,0.83,29.4,M,44.9,M,,*5E
$GPRMC,165312.000,A,5352.2303,N,01137.6307,E,86.40,93.67,090114,,,A*65
$GPGGA,165318.000,5352.2293,N,01137.8705,E,1,11,0.80,28.1,M,44.9,M,,*5B
$GPRMC,165317.000,A,5352.2287,N,01137.8308,E,84.33,89.13,090114,,,A*62
$GPGGA,165323.000,5352.2381,N,01138.0690,E,1,13,0.75,27.5,M,44.9,M,,*58
$GPRMC,165322.000,A,5352.2358,N,01138.0296,E,84.70,84.97,090114,,,A*60
$GPGGA,165328.000,5352.2557,N,01138.2637,E,1,13,0.75,27.3,M,44.9,M,,*57
$GPRMC,165327.000,A,5352.2515,N,01138.2252,E,83.55,80.67,090114,,,A*6B
$GPGGA,165333.000,5352.2801,N,01138.4473,E,1,13,0.75,26.4,M,44.9,M,,*51
$GPRMC,165332.000,A,5352.2747,N,01138.4116,E,78.64,76.73,090114,,,A*65
$GPGGA,165339.000,5352.3153,N,01138.6501,E,1,12,0.90,24.1,M,44.9,M,,*5F
$GPRMC,165338.000,A,5352.3089,N,01138.6176,E,73.57,72.35,090114,,,A*62
$GPGGA,165345.000,5352.3592,N,01138.8443,E,1,12,0.77,21.6,M,44.9,M,,*5F
$GPRMC,165344.000,A,5352.3510,N,01138.8112,E,76.00,68.20,090114,,,A*68
$GPGGA,165350.000,5352.4050,N,01139.0095,E,1,13,0.75,18.4,M,44.9,M,,*5A
$GPRMC,165349.000,A,5352.3953,N,01138.9764,E,78.18,64.13,090114,,,A*63
$GPGGA,165355.000,5352.4576,N,01139.1732,E,1,13,0.75,17.0,M,44.9,M,,*5E
$GPRMC,165354.000,A,5352.4467,N,01139.1410,E,78.78,60.99,090114,,,A*6B
$GPGGA,165400.000,5352.5135,N,01139.3323,E,1,12,0.77,15.6,M,44.9,M,,*5A
$GPRMC,165359.000,A,5352.5021,N,01139.3007,E,78.74,59.34,090114,,,A*60
$GPGGA,165405.000,5352.5724,N,01139.4877,E,1,13,0.75,14.0,M,44.9,M,,*50
$GPRMC,165404.000,A,5352.5602,N,01139.4567,E,78.82,56.76,090114,,,A*6C
$GPGGA,165410.000,5352.6351,N,01139.6435,E,1,11,0.98,12.5,M,44.9,M,,*5B
$GPRMC,165409.000,A,5352.6224,N,01139.6123,E,80.46,55.59,090114,,,A*65
$GPGGA,165415.000,5352.7007,N,01139.7999,E,1,13,0.75,12.5,M,44.9,M,,*54
$GPRMC,165414.000,A,5352.6872,N,01139.7684,E,82.46,54.00,090114,,,A*64
$GPGGA,165420.000,5352.7702,N,01139.9557,E,1,11,0.83,14.0,M,44.9,M,,*58
$GPRMC,165419.000,A,5352.7561,N,01139.9250,E,82.86,52.41,090114,,,A*6B
$GPGGA,165425.000,5352.8421,N,01140.1067,E,1,13,0.75,15.8,M,44.9,M,,*52
$GPRMC,165424.000,A,5352.8277,N,01140.0772,E,82.37,50.68,090114,,,A*6B
$GPGGA,165431.000,5352.9225,N,01140.2670,E,1,11,0.94,18.0,M,44.9,M,,*5F
$GPRMC,165430.000,A,5352.9098,N,01140.2422,E,70.83,49.20,090114,,,A*6E
$GPGGA,165437.000,5352.9988,N,01140.4138,E,1,12,0.83,19.5,M,44.9,M,,*59
$GPRMC,165436.000,A,5352.9862,N,01140.3894,E,70.34,48.89,090114,,,A*6B
$GPGGA,165443.000,5353.0733,N,01140.5586,E,1,12,0.90,20.7,M,44.9,M,,*56
$GPRMC,165442.000,A,5353.0606,N,01140.5341,E,68.84,48.69,090114,,,A*65
$GPGGA,165449.000,5353.1526,N,01140.7139,E,1,13,0.75,21.6,M,44.8,M,,*52
$GPRMC,165448.000,A,5353.1392,N,01140.6871,E,74.52,49.68,090114,,,A*6B
$GPGGA,165455.000,5353.2294,N,01140.8713,E,1,13,0.75,22.4,M,44.8,M,,*52
$GPRMC,165454.000,A,5353.2170,N,01140.8456,E,71.23,50.74,090114,,,A*6A
$GPGGA,165501.000,5353.3004,N,01141.0227,E,1,12,0.77,23.3,M,44.8,M,,*56
$GPRMC,165500.000,A,5353.2888,N,01140.9975,E,67.86,51.97,090114,,,A*6D
$GPGGA,165507.000,5353.3691,N,01141.1750,E,1,13,0.75,24.4,M,44.8,M,,*5D
$GPRMC,165506.000,A,5353.3576,N,01141.1493,E,67.47,53.05,090114,,,A*6E
$GPGGA,165513.000,5353.4417,N,01141.3381,E,1,13,0.75,25.0,M,44.8,M,,*5C
$GPRMC,165512.000,A,5353.4292,N,01141.3097,E,74.86,53.06,090114,,,A*6F
$GPGGA,165519.000,5353.5153,N,01141.5070,E,1,13,0.75,24.6,M,44.8,M,,*5E
$GPRMC,165518.000,A,5353.5032,N,01141.4793,E,72.70,53.74,090114,,,A*62
$GPGGA,165525.000,5353.5868,N,01141.6732,E,1,13,0.75,23.7,M,44.8,M,,*54
$GPRMC,165524.000,A,5353.5750,N,01141.6455,E,72.37,54.01,090114,,,A*63
$GPGGA,165531.000,5353.6569,N,01141.8396,E,1,12,0.90,22.7,M,44.8,M,,*51
$GPRMC,165530.000,A,5353.6452,N,01141.8118,E,72.87,54.71,090114,,,A*6A
$GPGGA,165537.000,5353.7266,N,01142.0078,E,1,13,0.75,22.9,M,44.8,M,,*52
$GPRMC,165536.000,A,5353.7150,N,01141.9795,E,73.50,55.23,090114,,,A*65
$GPGGA,165543.000,5353.7966,N,01142.1817,E,1,10,0.96,24.0,M,44.8,M,,*5B
$GPRMC,165542.000,A,5353.7847,N,01142.1517,E,76.42,56.21,090114,,,A*6D
$GPGGA,165549.000,5353.8673,N,01142.3618,E,1,13,0.75,27.9,M,44.8,M,,*52
$GPRMC,165548.000,A,5353.8556,N,01142.3312,E,77.75,56.58,090114,,,A*6F
$GPGGA,165555.000,5353.9355,N,01142.5457,E,1,12,0.82,30.4,M,44.8,M,,*52
$GPRMC,165554.000,A,5353.9242,N,01142.5150,E,76.58,58.55,090114,,,A*6E
$GPGGA,165601.000,5353.9983,N,01142.7284,E,1,13,0.75,32.5,M,44.8,M,,*51
$GPRMC,165600.000,A,5353.9885,N,01142.6989,E,72.85,60.31,090114,,,A*6F
$GPGGA,165607.000,5354.0523,N,01142.8984,E,1,13,0.75,34.3,M,44.8,M,,*5B
$GPRMC,165606.000,A,5354.0434,N,01142.8697,E,68.38,62.01,090114,,,A*63
$GPGGA,165613.000,5354.1049,N,01143.0764,E,1,13,0.75,36.0,M,44.8,M,,*5E
$GPRMC,165612.000,A,5354.0961,N,01143.0459,E,72.02,63.48,090114,,,A*6C
$GPGGA,165619.000,5354.1568,N,01143.2650,E,1,13,0.75,39.7,M,44.8,M,,*5E
$GPRMC,165618.000,A,5354.1483,N,01143.2330,E,74.32,65.69,090114,,,A*6C
$GPGGA,165625.000,5354.2042,N,01143.4547,E,1,10,0.95,45.6,M,44.8,M,,*5B
$GPRMC,165624.000,A,5354.1967,N,01143.4234,E,71.94,67.47,090114,,,A*60
$GPGGA,165631.000,5354.2473,N,01143.6436,E,1,11,0.86,50.8,M,44.8,M,,*54
$GPRMC,165630.000,A,5354.2403,N,01143.6122,E,71.97,68.97,090114,,,A*6E
$GPGGA,165637.000,5354.2869,N,01143.8315,E,1,12,0.82,54.1,M,44.8,M,,*57
$GPRMC,165636.000,A,5354.2805,N,01143.8004,E,70.09,70.86,090114,,,A*66
$GPGGA,165643.000,5354.3255,N,01144.0251,E,1,12,0.90,55.6,M,44.8,M,,*5B
$GPRMC,165642.000,A,5354.3190,N,01143.9923,E,73.43,71.21,090114,,,A*6D
$GPGGA,165649.000,5354.3644,N,01144.2299,E,1,11,0.86,54.4,M,44.8,M,,*54
$GPRMC,165648.000,A,5354.3578,N,01144.1948,E,78.49,72.41,090114,,,A*63
$GPGGA,165654.000,5354.3968,N,01144.4070,E,1,12,0.90,52.4,M,44.8,M,,*58
$GPRMC,165653.000,A,5354.3903,N,01144.3715,E,77.97,72.82,090114,,,A*6E
$GPGGA,165659.000,5354.4308,N,01144.5922,E,1,11,0.99,50.6,M,44.8,M,,*5B
$GPRMC,165658.000,A,5354.4238,N,01144.5544,E,83.43,72.66,090114,,,A*69
$GPGGA,165704.000,5354.4653,N,01144.7826,E,1,11,0.85,48.4,M,44.8,M,,*58
$GPRMC,165703.000,A,5354.4583,N,01144.7443,E,84.59,72.83,090114,,,A*62
$GPGGA,165709.000,5354.5000,N,01144.9764,E,1,11,0.85,46.0,M,44.8,M,,*59
$GPRMC,165708.000,A,5354.4933,N,01144.9378,E,85.61,73.26,090114,,,A*6B
$GPGGA,165714.000,5354.5329,N,01145.1661,E,1,12,0.77,44.0,M,44.8,M,,*5C
$GPRMC,165713.000,A,5354.5263,N,01145.1290,E,82.92,73.41,090114,,,A*6A
$GPGGA,165719.000,5354.5664,N,01145.3497,E,1,13,0.75,42.5,M,44.7,M,,*5B
$GPRMC,165718.000,A,5354.5597,N,01145.3128,E,82.11,72.92,090114,,,A*6B
$GPGGA,165724.000,5354.6005,N,01145.5368,E,1,11,0.92,40.9,M,44.7,M,,*53
$GPRMC,165723.000,A,5354.5937,N,01145.4996,E,83.35,72.94,090114,,,A*6E
$GPGGA,165729.000,5354.6352,N,01145.7215,E,1,13,0.75,39.4,M,44.7,M,,*5E
$GPRMC,165728.000,A,5354.6279,N,01145.6845,E,82.43,71.55,090114,,,A*64
$GPGGA,165734.000,5354.6702,N,01145.9089,E,1,12,0.77,37.7,M,44.7,M,,*54
$GPRMC,165733.000,A,5354.6634,N,01145.8717,E,83.61,72.62,090114,,,A*63
$GPGGA,165739.000,5354.7047,N,01146.0916,E,1,12,0.90,36.1,M,44.7,M,,*55
$GPRMC,165738.000,A,5354.6975,N,01146.0549,E,81.86,72.01,090114,,,A*6E
$GPGGA,165744.000,5354.7419,N,01146.2768,E,1,12,0.90,34.9,M,44.7,M,,*5F
$GPRMC,165743.000,A,5354.7342,N,01146.2394,E,84.15,71.05,090114,,,A*61
$GPGGA,165749.000,5354.7824,N,01146.4646,E,1,12,0.75,35.9,M,44.7,M,,*51
$GPRMC,165748.000,A,5354.7740,N,01146.4271,E,85.23,69.31,090114,,,A*6A
$GPGGA,165754.000,5354.8275,N,01146.6494,E,1,13,0.74,39.7,M,44.7,M,,*51
$GPRMC,165753.000,A,5354.8183,N,01146.6132,E,84.65,67.01,090114,,,A*6E
$GPGGA,165759.000,5354.8756,N,01146.8280,E,1,11,0.80,44.9,M,44.7,M,,*58
$GPRMC,165758.000,A,5354.8657,N,01146.7928,E,83.24,65.01,090114,,,A*69
$GPGGA,165804.000,5354.9272,N,01147.0011,E,1,11,0.85,48.9,M,44.7,M,,*57
$GPRMC,165803.000,A,5354.9166,N,01146.9665,E,82.48,62.84,090114,,,A*65
$GPGGA,165809.000,5354.9819,N,01147.1707,E,1,12,0.82,50.5,M,44.7,M,,*5D
$GPRMC,165808.000,A,5354.9709,N,01147.1371,E,82.26,61.36,090114,,,A*6A
$GPGGA,165814.000,5355.0376,N,01147.3293,E,1,12,0.82,50.0,M,44.7,M,,*54
$GPRMC,165813.000,A,5355.0264,N,01147.2985,E,77.33,59.21,090114,,,A*67
$GPGGA,165820.000,5355.1061,N,01147.5042,E,1,11,0.94,48.1,M,44.7,M,,*53
$GPRMC,165819.000,A,5355.0945,N,01147.4758,E,73.41,55.89,090114,,,A*62
$GPGGA,165826.000,5355.1766,N,01147.6707,E,1,12,0.82,46.6,M,44.7,M,,*5D
$GPRMC,165825.000,A,5355.1643,N,01147.6430,E,73.25,53.59,090114,,,A*63
$GPGGA,165832.000,5355.2530,N,01147.8348,E,1,12,0.82,44.7,M,44.7,M,,*58
$GPRMC,165831.000,A,5355.2395,N,01147.8077,E,75.05,50.25,090114,,,A*6E
$GPGGA,165837.000,5355.3249,N,01147.9770,E,1,12,0.82,42.6,M,44.7,M,,*5C
$GPRMC,165836.000,A,5355.3102,N,01147.9483,E,81.16,49.42,090114,,,A*6A
$GPGGA,165842.000,5355.4003,N,01148.1204,E,1,11,0.99,40.2,M,44.7,M,,*5B
$GPRMC,165841.000,A,5355.3846,N,01148.0911,E,83.29,48.27,090114,,,A*6F
$GPGGA,165847.000,5355.4824,N,01148.2701,E,1,11,0.99,38.3,M,44.7,M,,*5E
$GPRMC,165846.000,A,5355.4657,N,01148.2402,E,86.97,46.91,090114,,,A*6F
$GPGGA,165852.000,5355.5652,N,01148.4168,E,1,11,0.99,38.1,M,44.7,M,,*59
$GPRMC,165851.000,A,5355.5490,N,01148.3883,E,84.79,46.23,090114,,,A*6E
$GPGGA,165857.000,5355.6469,N,01148.5615,E,1,11,0.99,39.3,M,44.7,M,,*5A
$GPRMC,165856.000,A,5355.6305,N,01148.5326,E,85.66,46.42,090114,,,A*6B
$GPGGA,165902.000,5355.7282,N,01148.7026,E,1,12,0.82,41.8,M,44.7,M,,*50
$GPRMC,165901.000,A,5355.7123,N,01148.6750,E,82.42,45.60,090114,,,A*6B
$GPGGA,165907.000,5355.8053,N,01148.8343,E,1,12,0.81,43.2,M,44.7,M,,*50
$GPRMC,165906.000,A,5355.7899,N,01148.8080,E,78.46,45.16,090114,,,A*60
$GPGGA,165912.000,5355.8815,N,01148.9642,E,1,13,0.74,43.6,M,44.7,M,,*54
$GPRMC,165911.000,A,5355.8664,N,01148.9386,E,77.53,45.09,090114,,,A*64
$GPGGA,165918.000,5355.9674,N,01149.1123,E,1,13,0.74,42.1,M,44.7,M,,*59
$GPRMC,165917.000,A,5355.9535,N,01149.0883,E,72.14,45.60,090114,,,A*6B
$GPGGA,165924.000,5356.0468,N,01149.2490,E,1,12,0.90,41.4,M,44.7,M,,*50
$GPRMC,165923.000,A,5356.0342,N,01149.2274,E,65.47,45.24,090114,,,A*60
$GPGGA,165930.000,5356.1229,N,01149.3797,E,1,12,0.90,42.2,M,44.7,M,,*57
$GPRMC,165929.000,A,5356.1101,N,01149.3576,E,66.16,45.47,090114,,,A*68
$GPGGA,165937.000,5356.2100,N,01149.5277,E,1,12,0.82,44.4,M,44.7,M,,*55
$GPRMC,165936.000,A,5356.1975,N,01149.5071,E,63.39,44.83,090114,,,A*68
$GPGGA,165943.000,5356.2890,N,01149.6595,E,1,13,0.74,45.6,M,44.6,M,,*54
$GPRMC,165942.000,A,5356.2751,N,01149.6360,E,70.16,45.17,090114,,,A*63
$GPGGA,165949.000,5356.3759,N,01149.8082,E,1,12,0.82,45.2,M,44.6,M,,*54
$GPRMC,165948.000,A,5356.3611,N,01149.7827,E,75.56,45.70,090114,,,A*64
$GPGGA,165954.000,5356.4520,N,01149.9385,E,1,11,0.99,43.4,M,44.6,M,,*5F
$GPRMC,165953.000,A,5356.4369,N,01149.9125,E,77.50,45.48,090114,,,A*69
$GPGGA,170000.000,5356.5414,N,01150.0921,E,1,12,0.90,40.5,M,44.6,M,,*59
$GPRMC,165959.000,A,5356.5265,N,01150.0664,E,76.53,45.44,090114,,,A*62
$GPGGA,170006.000,5356.6290,N,01150.2437,E,1,12,0.90,37.7,M,44.6,M,,*5C
$GPRMC,170005.000,A,5356.6148,N,01150.2190,E,73.68,45.26,090114,,,A*6E
$GPGGA,170012.000,5356.7144,N,01150.3906,E,1,13,0.74,36.6,M,44.6,M,,*57
$GPRMC,170011.000,A,5356.6998,N,01150.3654,E,74.20,45.39,090114,,,A*65
$GPGGA,170017.000,5356.7909,N,01150.5227,E,1,12,0.82,37.9,M,44.6,M,,*5B
$GPRMC,170016.000,A,5356.7753,N,01150.4956,E,80.48,45.66,090114,,,A*6F
$GPGGA,170022.000,5356.8667,N,01150.6544,E,1,12,0.82,40.9,M,44.6,M,,*54
$GPRMC,170021.000,A,5356.8520,N,01150.6290,E,76.39,45.64,090114,,,A*6C
$GPGGA,170028.000,5356.9537,N,01150.8084,E,1,12,0.82,42.8,M,44.6,M,,*5D
$GPRMC,170027.000,A,5356.9392,N,01150.7828,E,75.53,46.24,090114,,,A*64
$GPGGA,170034.000,5357.0397,N,01150.9637,E,1,13,0.74,42.8,M,44.6,M,,*53
$GPRMC,170033.000,A,5357.0254,N,01150.9373,E,75.75,47.31,090114,,,A*68
$GPGGA,170040.000,5357.1260,N,01151.1245,E,1,13,0.74,41.2,M,44.6,M,,*59
$GPRMC,170039.000,A,5357.1120,N,01151.0981,E,75.99,48.21,090114,,,A*60
$GPGGA,170045.000,5357.1972,N,01151.2618,E,1,13,0.74,39.7,M,44.6,M,,*51
$GPRMC,170044.000,A,5357.1827,N,01151.2337,E,78.85,48.79,090114,,,A*6C
$GPGGA,170051.000,5357.2797,N,01151.4282,E,1,12,0.80,37.8,M,44.6,M,,*58
$GPRMC,170050.000,A,5357.2661,N,01151.4003,E,76.70,50.23,090114,,,A*66
$GPGGA,170057.000,5357.3593,N,01151.5979,E,1,13,0.74,36.2,M,44.6,M,,*56
$GPRMC,170056.000,A,5357.3461,N,01151.5693,E,76.95,51.69,090114,,,A*69
$GPGGA,170103.000,5357.4365,N,01151.7705,E,1,12,0.90,35.2,M,44.6,M,,*51
$GPRMC,170102.000,A,5357.4240,N,01151.7416,E,75.69,53.43,090114,,,A*6C
$GPGGA,170108.000,5357.4994,N,01151.9194,E,1,11,0.92,33.8,M,44.6,M,,*53
$GPRMC,170107.000,A,5357.4868,N,01151.8890,E,78.69,54.46,090114,,,A*6B
$GPGGA,170113.000,5357.5603,N,01152.0710,E,1,12,0.76,32.4,M,44.6,M,,*5D
$GPRMC,170112.000,A,5357.5484,N,01152.0413,E,76.63,56.16,090114,,,A*6F
$GPGGA,170119.000,5357.6273,N,01152.2468,E,1,13,0.74,30.2,M,44.6,M,,*5E
$GPRMC,170118.000,A,5357.6163,N,01152.2174,E,73.83,57.75,090114,,,A*63
$GPGGA,170125.000,5357.6922,N,01152.4296,E,1,13,0.74,27.7,M,44.6,M,,*5C
$GPRMC,170124.000,A,5357.6814,N,01152.3981,E,76.94,59.62,090114,,,A*6D
$GPGGA,170130.000,5357.7460,N,01152.5911,E,1,13,0.74,25.2,M,44.6,M,,*50
$GPRMC,170129.000,A,5357.7352,N,01152.5582,E,79.94,60.71,090114,,,A*66
$GPGGA,170135.000,5357.7988,N,01152.7587,E,1,12,0.76,22.6,M,44.6,M,,*5F
$GPRMC,170134.000,A,5357.7887,N,01152.7255,E,79.83,62.11,090114,,,A*64
$GPGGA,170140.000,5357.8490,N,01152.9255,E,1,11,0.85,19.9,M,44.6,M,,*58
$GPRMC,170139.000,A,5357.8392,N,01152.8921,E,79.36,63.09,090114,,,A*68
$GPGGA,170145.000,5357.8979,N,01153.0940,E,1,13,0.74,17.4,M,44.6,M,,*5F
$GPRMC,170144.000,A,5357.8880,N,01153.0592,E,81.46,63.83,090114,,,A*65
$GPGGA,170150.000,5357.9487,N,01153.2722,E,1,12,0.82,14.7,M,44.6,M,,*56
$GPRMC,170149.000,A,5357.9386,N,01153.2362,E,84.44,64.40,090114,,,A*60
$GPGGA,170155.000,5357.9975,N,01153.4482,E,1,13,0.74,12.3,M,44.6,M,,*56
$GPRMC,170154.000,A,5357.9879,N,01153.4134,E,81.93,64.76,090114,,,A*6A
$GPGGA,170200.000,5358.0442,N,01153.6171,E,1,13,0.74,9.9,M,44.5,M,,*62
$GPRMC,170159.000,A,5358.0350,N,01153.5841,E,77.97,64.87,090114,,,A*68
$GPGGA,170206.000,5358.0983,N,01153.8093,E,1,13,0.74,7.1,M,44.5,M,,*61
$GPRMC,170205.000,A,5358.0891,N,01153.7776,E,74.33,63.86,090114,,,A*66
$GPGGA,170211.000,5358.1495,N,01153.9723,E,1,12,0.82,4.8,M,44.5,M,,*63
$GPRMC,170210.000,A,5358.1386,N,01153.9398,E,79.91,60.99,090114,,,A*6C
$GPGGA,170216.000,5358.2069,N,01154.1273,E,1,12,0.76,2.3,M,44.5,M,,*69
$GPRMC,170215.000,A,5358.1951,N,01154.0974,E,76.99,57.11,090114,,,A*6C
$GPGGA,170222.000,5358.2798,N,01154.2975,E,1,13,0.74,-0.1,M,44.5,M,,*47
$GPRMC,170221.000,A,5358.2672,N,01154.2702,E,73.16,52.25,090114,,,A*6B
$GPGGA,170228.000,5358.3616,N,01154.4611,E,1,13,0.74,-1.9,M,44.5,M,,*49
$GPRMC,170227.000,A,5358.3470,N,01154.4344,E,77.72,48.22,090114,,,A*66
$GPGGA,170234.000,5358.4520,N,01154.6146,E,1,12,0.76,-4.6,M,44.5,M,,*4B
$GPRMC,170233.000,A,5358.4367,N,01154.5906,E,75.65,43.85,090114,,,A*6A
$GPGGA,170240.000,5358.5477,N,01154.7554,E,1,13,0.74,-5.3,M,44.5,M,,*4B
$GPRMC,170239.000,A,5358.5314,N,01154.7320,E,77.26,40.31,090114,,,A*60
$GPGGA,170246.000,5358.6470,N,01154.8956,E,1,13,0.74,-4.1,M,44.5,M,,*4B
$GPRMC,170245.000,A,5358.6304,N,01154.8721,E,77.52,40.08,090114,,,A*6A
$GPGGA,170252.000,5358.7450,N,01155.0341,E,1,12,0.82,-3.4,M,44.5,M,,*42
$GPRMC,170251.000,A,5358.7292,N,01155.0118,E,74.84,39.82,090114,,,A*61
$GPGGA,170258.000,5358.8390,N,01155.1682,E,1,13,0.74,-2.4,M,44.5,M,,*4E
$GPRMC,170257.000,A,5358.8229,N,01155.1452,E,75.01,40.53,090114,,,A*6C
$GPGGA,170303.000,5358.9211,N,01155.2873,E,1,13,0.74,-1.7,M,44.5,M,,*4B
$GPRMC,170302.000,A,5358.9045,N,01155.2630,E,78.72,40.86,090114,,,A*60
$GPGGA,170308.000,5359.0034,N,01155.4111,E,1,12,0.80,-1.1,M,44.5,M,,*4A
$GPRMC,170307.000,A,5358.9869,N,01155.3863,E,79.31,41.64,090114,,,A*61
$GPGGA,170314.000,5359.0987,N,01155.5592,E,1,11,0.92,-1.1,M,44.5,M,,*48
$GPRMC,170313.000,A,5359.0828,N,01155.5339,E,78.14,42.87,090114,,,A*63
$GPGGA,170319.000,5359.1788,N,01155.6900,E,1,13,0.74,-2.3,M,44.5,M,,*4A
$GPRMC,170318.000,A,5359.1629,N,01155.6632,E,80.76,44.62,090114,,,A*65
$GPGGA,170324.000,5359.2565,N,01155.8246,E,1,13,0.74,-2.9,M,44.5,M,,*4B
$GPRMC,170323.000,A,5359.2412,N,01155.7982,E,79.27,45.83,090114,,,A*6D
$GPGGA,170329.000,5359.3312,N,01155.9564,E,1,12,0.76,-1.9,M,44.5,M,,*47
$GPRMC,170328.000,A,5359.3165,N,01155.9301,E,76.99,46.78,090114,,,A*60
$GPGGA,170335.000,5359.4185,N,01156.1186,E,1,13,0.74,-0.5,M,44.5,M,,*4C
$GPRMC,170334.000,A,5359.4039,N,01156.0904,E,79.11,48.14,090114,,,A*6C
$GPGGA,170340.000,5359.4898,N,01156.2665,E,1,13,0.74,1.1,M,44.5,M,,*6A
$GPRMC,170339.000,A,5359.4757,N,01156.2362,E,81.73,51.03,090114,,,A*6B
$GPGGA,170345.000,5359.5558,N,01156.4187,E,1,11,0.92,2.5,M,44.5,M,,*6F
$GPRMC,170344.000,A,5359.5432,N,01156.3888,E,78.92,54.29,090114,,,A*6A
$GPGGA,170351.000,5359.6273,N,01156.5927,E,1,13,0.74,3.8,M,44.5,M,,*62
$GPRMC,170350.000,A,5359.6160,N,01156.5641,E,73.20,55.87,090114,,,A*64
$GPGGA,170357.000,5359.6936,N,01156.7716,E,1,13,0.74,5.5,M,44.5,M,,*6B
$GPRMC,170356.000,A,5359.6826,N,01156.7407,E,76.17,58.71,090114,,,A*6E
$GPGGA,170403.000,5359.7538,N,01156.9542,E,1,12,0.76,7.0,M,44.5,M,,*67
$GPRMC,170402.000,A,5359.7447,N,01156.9243,E,72.38,61.79,090114,,,A*61
$GPGGA,170409.000,5359.8043,N,01157.1324,E,1,12,0.76,7.7,M,44.5,M,,*63
$GPRMC,170408.000,A,5359.7963,N,01157.1023,E,69.83,65.07,090114,,,A*6A
$GPGGA,170415.000,5359.8488,N,01157.3122,E,1,13,0.74,8.1,M,44.4,M,,*60
$GPRMC,170414.000,A,5359.8420,N,01157.2828,E,67.51,68.05,090114,,,A*6C
$GPGGA,170421.000,5359.8864,N,01157.4953,E,1,12,0.76,8.3,M,44.4,M,,*61
$GPRMC,170420.000,A,5359.8804,N,01157.4634,E,70.67,71.77,090114,,,A*6A
$GPGGA,170427.000,5359.9181,N,01157.6855,E,1,13,0.74,7.7,M,44.4,M,,*69
$GPRMC,170426.000,A,5359.9134,N,01157.6541,E,68.51,75.02,090114,,,A*6E
$GPGGA,170433.000,5359.9424,N,01157.8768,E,1,13,0.74,6.1,M,44.4,M,,*6E
$GPRMC,170432.000,A,5359.9390,N,01157.8451,E,68.45,78.76,090114,,,A*62
$GPGGA,170439.000,5359.9601,N,01158.0677,E,1,13,0.71,4.4,M,44.4,M,,*6B
$GPRMC,170438.000,A,5359.9575,N,01158.0347,E,69.87,81.74,090114,,,A*69
$GPGGA,170445.000,5359.9732,N,01158.2635,E,1,12,0.82,3.0,M,44.4,M,,*6B
$GPRMC,170444.000,A,5359.9716,N,01158.2311,E,69.69,84.45,090114,,,A*63
$GPGGA,170451.000,5359.9777,N,01158.4563,E,1,14,0.69,1.9,M,44.4,M,,*61
$GPRMC,170450.000,A,5359.9773,N,01158.4234,E,69.36,88.19,090114,,,A*6A
$GPGGA,170457.000,5359.9780,N,01158.6641,E,1,14,0.69,0.7,M,44.4,M,,*61
$GPRMC,170456.000,A,5359.9782,N,01158.6279,E,76.18,90.29,090114,,,A*61
$GPGGA,170502.000,5359.9781,N,01158.8508,E,1,13,0.73,0.2,M,44.4,M,,*68
$GPRMC,170501.000,A,5359.9780,N,01158.8129,E,80.04,89.79,090114,,,A*61
$GPGGA,170507.000,5359.9797,N,01159.0399,E,1,13,0.73,1.3,M,44.4,M,,*6D
$GPRMC,170506.000,A,5359.9791,N,01159.0026,E,80.38,88.87,090114,,,A*6E
$GPGGA,170512.000,5359.9846,N,01159.2271,E,1,12,0.75,0.8,M,44.4,M,,*62
$GPRMC,170511.000,A,5359.9832,N,01159.1892,E,79.75,87.03,090114,,,A*64
$GPGGA,170517.000,5359.9939,N,01159.4214,E,1,13,0.71,1.0,M,44.4,M,,*67
$GPRMC,170516.000,A,5359.9915,N,01159.3822,E,83.45,84.55,090114,,,A*68
$GPGGA,170522.000,5400.0079,N,01159.6121,E,1,14,0.69,0.9,M,44.4,M,,*6F
$GPRMC,170521.000,A,5400.0047,N,01159.5737,E,81.11,81.93,090114,,,A*61
$GPGGA,170527.000,5400.0267,N,01159.8039,E,1,14,0.69,0.9,M,44.4,M,,*61
$GPRMC,170526.000,A,5400.0227,N,01159.7659,E,81.93,80.10,090114,,,A*69
$GPGGA,170532.000,5400.0499,N,01159.9958,E,1,14,0.69,0.6,M,44.4,M,,*62
$GPRMC,170531.000,A,5400.0448,N,01159.9572,E,83.90,77.86,090114,,,A*62
$GPGGA,170537.000,5400.0783,N,01200.1817,E,1,14,0.69,0.3,M,44.4,M,,*67
$GPRMC,170536.000,A,5400.0722,N,01200.1456,E,80.23,74.92,090114,,,A*67
$GPGGA,170542.000,5400.1099,N,01200.3566,E,1,14,0.69,-0.4,M,44.4,M,,*4B
$GPRMC,170541.000,A,5400.1034,N,01200.3225,E,76.52,72.64,090114,,,A*66
$GPGGA,170548.000,5400.1535,N,01200.5587,E,1,14,0.69,-1.9,M,44.4,M,,*47
$GPRMC,170547.000,A,5400.1459,N,01200.5247,E,76.64,69.38,090114,,,A*6B
$GPGGA,170554.000,5400.2018,N,01200.7600,E,1,14,0.69,-2.1,M,44.4,M,,*46
$GPRMC,170553.000,A,5400.1935,N,01200.7270,E,76.49,67.06,090114,,,A*63
$GPGGA,170600.000,5400.2552,N,01200.9565,E,1,14,0.69,0.0,M,44.4,M,,*6F
$GPRMC,170559.000,A,5400.2458,N,01200.9239,E,76.57,64.24,090114,,,A*63
$GPGGA,170605.000,5400.3061,N,01201.1221,E,1,14,0.69,1.9,M,44.4,M,,*68
$GPRMC,170604.000,A,5400.2953,N,01201.0888,E,80.66,61.81,090114,,,A*67
$GPGGA,170610.000,5400.3600,N,01201.2817,E,1,13,0.71,2.8,M,44.4,M,,*6D
$GPRMC,170609.000,A,5400.3492,N,01201.2511,E,76.87,59.61,090114,,,A*67
$GPGGA,170616.000,5400.4256,N,01201.4636,E,1,13,0.74,4.2,M,44.4,M,,*69
$GPRMC,170615.000,A,5400.4146,N,01201.4340,E,74.88,58.18,090114,,,A*67
$GPGGA,170622.000,5400.4941,N,01201.6431,E,1,13,0.74,5.4,M,44.4,M,,*63
$GPRMC,170621.000,A,5400.4827,N,01201.6137,E,75.35,57.06,090114,,,A*69
$GPGGA,170628.000,5400.5598,N,01201.8163,E,1,14,0.68,6.9,M,44.4,M,,*68
$GPRMC,170627.000,A,5400.5488,N,01201.7869,E,73.53,57.71,090114,,,A*62
$GPGGA,170634.000,5400.6297,N,01202.0012,E,1,13,0.73,8.7,M,44.4,M,,*6F
$GPRMC,170633.000,A,5400.6178,N,01201.9701,E,79.14,56.97,090114,,,A*61
$GPGGA,170640.000,5400.6966,N,01202.1821,E,1,14,0.68,9.8,M,44.3,M,,*64
$GPRMC,170639.000,A,5400.6858,N,01202.1524,E,73.59,58.52,090114,,,A*6A
$GPGGA,170646.000,5400.7613,N,01202.3685,E,1,14,0.68,10.4,M,44.3,M,,*58
$GPRMC,170645.000,A,5400.7507,N,01202.3370,E,77.99,59.75,090114,,,A*6E
$GPGGA,170652.000,5400.8218,N,01202.5599,E,1,14,0.68,10.8,M,44.3,M,,*59
$GPRMC,170651.000,A,5400.8119,N,01202.5273,E,77.45,62.33,090114,,,A*60
$GPGGA,170657.000,5400.8704,N,01202.7281,E,1,14,0.68,11.3,M,44.3,M,,*52
$GPRMC,170656.000,A,5400.8608,N,01202.6943,E,80.06,63.88,090114,,,A*65
$GPGGA,170703.000,5400.9239,N,01202.9248,E,1,14,0.68,12.1,M,44.3,M,,*52
$GPRMC,170702.000,A,5400.9154,N,01202.8922,E,75.83,65.48,090114,,,A*6E
$GPGGA,170708.000,5400.9651,N,01203.0940,E,1,14,0.68,12.8,M,44.3,M,,*51
$GPRMC,170707.000,A,5400.9572,N,01203.0596,E,78.72,68.03,090114,,,A*60
$GPGGA,170713.000,5401.0031,N,01203.2667,E,1,13,0.77,13.8,M,44.3,M,,*53
$GPRMC,170712.000,A,5400.9959,N,01203.2326,E,77.06,69.67,090114,,,A*61
$GPGGA,170719.000,5401.0429,N,01203.4746,E,1,13,0.71,14.7,M,44.3,M,,*5E
$GPRMC,170718.000,A,5401.0366,N,01203.4398,E,76.96,72.07,090114,,,A*62
$GPGGA,170725.000,5401.0780,N,01203.6813,E,1,14,0.68,15.9,M,44.3,M,,*5C
$GPRMC,170724.000,A,5401.0725,N,01203.6476,E,74.65,74.49,090114,,,A*69
$GPGGA,170731.000,5401.1092,N,01203.8929,E,1,14,0.68,16.4,M,44.3,M,,*54
$GPRMC,170730.000,A,5401.1043,N,01203.8568,E,78.33,76.40,090114,,,A*6E
$GPGGA,170736.000,5401.1308,N,01204.0741,E,1,13,0.70,17.0,M,44.3,M,,*57
$GPRMC,170735.000,A,5401.1267,N,01204.0385,E,77.94,78.49,090114,,,A*60
$GPGGA,170742.000,5401.1518,N,01204.2832,E,1,12,0.70,16.9,M,44.3,M,,*53
$GPRMC,170741.000,A,5401.1486,N,01204.2485,E,74.72,80.97,090114,,,A*60
$GPGGA,170748.000,5401.1674,N,01204.4870,E,1,13,0.73,16.2,M,44.3,M,,*59
$GPRMC,170747.000,A,5401.1651,N,01204.4537,E,70.83,82.74,090114,,,A*65
$GPGGA,170754.000,5401.1805,N,01204.6968,E,1,13,0.73,15.4,M,44.3,M,,*53
$GPRMC,170753.000,A,5401.1785,N,01204.6610,E,76.21,84.17,090114,,,A*61
$GPGGA,170800.000,5401.1912,N,01204.9055,E,1,13,0.71,14.3,M,44.3,M,,*56
$GPRMC,170759.000,A,5401.1897,N,01204.8721,E,71.45,85.65,090114,,,A*6B
$GPGGA,170806.000,5401.1990,N,01205.1034,E,1,13,0.71,13.5,M,44.3,M,,*55
$GPRMC,170805.000,A,5401.1978,N,01205.0704,E,70.73,86.42,090114,,,A*61
$GPGGA,170812.000,5401.2073,N,01205.2952,E,1,12,0.75,12.3,M,44.3,M,,*5F
$GPRMC,170811.000,A,5401.2058,N,01205.2642,E,66.68,85.67,090114,,,A*64
$GPGGA,170820.000,5401.2150,N,01205.4961,E,1,14,0.69,11.3,M,44.3,M,,*50
$GPRMC,170819.000,A,5401.2142,N,01205.4758,E,45.01,86.42,090114,,,A*60
$GPGGA,170838.000,5401.1675,N,01205.6671,E,1,14,0.68,14.6,M,44.3,M,,*57
$GPRMC,170837.000,A,5401.1708,N,01205.6597,E,19.53,132.53,090114,,,A*54
ping
$GPGGA,170912.000,5401.2634,N,01205.7701,E,1,14,0.68,15.2,M,44.3,M,,*5A
$GPRMC,170911.000,A,5401.2537,N,01205.7674,E,34.02,7.90,090114,,,A*50
$GPGGA,170923.000,5401.3785,N,01205.8145,E,1,14,0.68,10.4,M,44.3,M,,*58
$GPRMC,170922.000,A,5401.3678,N,01205.8104,E,39.55,12.03,090114,,,A*67
$GPGGA,170933.000,5401.4871,N,01205.8580,E,1,14,0.68,10.2,M,44.3,M,,*51
$GPRMC,170932.000,A,5401.4756,N,01205.8536,E,41.93,12.19,090114,,,A*67
$GPGGA,170942.000,5401.5963,N,01205.9015,E,1,14,0.68,12.3,M,44.3,M,,*5F
$GPRMC,170941.000,A,5401.5845,N,01205.8959,E,44.02,14.44,090114,,,A*69
$GPGGA,170951.000,5401.6950,N,01205.9937,E,1,10,1.03,16.2,M,44.3,M,,*5A
$GPRMC,170950.000,A,5401.6850,N,01205.9816,E,44.23,36.15,090114,,,A*62
$GPGGA,171000.000,5401.8001,N,01206.0420,E,1,11,1.01,20.7,M,44.3,M,,*57
$GPRMC,170959.000,A,5401.7875,N,01206.0425,E,44.89,1.35,090114,,,A*5D
$GPGGA,171014.000,5401.9083,N,01206.0059,E,1,14,0.68,23.6,M,44.3,M,,*5A
$GPRMC,171013.000,A,5401.9053,N,01206.0075,E,12.99,345.19,090114,,,A*57
$GPGGA,171041.000,5402.0202,N,01205.9674,E,1,14,0.68,24.9,M,44.3,M,,*50
$GPRMC,171040.000,A,5402.0108,N,01205.9682,E,33.26,355.80,090114,,,A*56
$GPGGA,171052.000,5402.1300,N,01206.0025,E,1,13,0.70,21.3,M,44.2,M,,*58
$GPRMC,171051.000,A,5402.1202,N,01205.9956,E,37.45,20.90,090114,,,A*69
$GPGGA,171102.000,5402.2219,N,01206.1194,E,1,14,0.68,20.0,M,44.2,M,,*50
$GPRMC,171101.000,A,5402.2143,N,01206.1047,E,41.74,48.12,090114,,,A*6D
$GPGGA,171112.000,5402.2970,N,01206.2712,E,1,10,1.08,18.2,M,44.2,M,,*54
$GPRMC,171111.000,A,5402.2895,N,01206.2560,E,42.17,49.59,090114,,,A*65
$GPGGA,171122.000,5402.3700,N,01206.4134,E,1,13,0.77,16.8,M,44.2,M,,*55
$GPRMC,171121.000,A,5402.3630,N,01206.4006,E,37.49,47.33,090114,,,A*6E
$GPGGA,171134.000,5402.4530,N,01206.5449,E,1,12,0.80,15.3,M,44.2,M,,*5B
$GPRMC,171133.000,A,5402.4456,N,01206.5355,E,33.83,37.41,090114,,,A*6C
$GPGGA,171146.000,5402.5495,N,01206.6283,E,1,13,0.77,16.2,M,44.2,M,,*59
$GPRMC,171145.000,A,5402.5410,N,01206.6232,E,32.45,20.05,090114,,,A*60
$GPGGA,171158.000,5402.6502,N,01206.6965,E,1,12,0.80,17.1,M,44.2,M,,*52
$GPRMC,171157.000,A,5402.6424,N,01206.6892,E,31.83,28.09,090114,,,A*6A
$GPGGA,171210.000,5402.7372,N,01206.8087,E,1,13,0.77,19.1,M,44.2,M,,*51
$GPRMC,171209.000,A,5402.7305,N,01206.7986,E,32.49,41.30,090114,,,A*62
$GPGGA,171224.000,5402.8225,N,01206.9355,E,1,13,0.77,20.4,M,44.2,M,,*58
$GPRMC,171223.000,A,5402.8162,N,01206.9272,E,28.02,38.66,090114,,,A*61
$GPGGA,171235.000,5402.9201,N,01207.0289,E,1,13,0.77,21.2,M,44.2,M,,*50
$GPRMC,171234.000,A,5402.9098,N,01207.0218,E,40.41,23.12,090114,,,A*66
$GPGGA,171246.000,5403.0303,N,01207.0718,E,1,13,0.77,20.5,M,44.2,M,,*54
$GPRMC,171245.000,A,5403.0211,N,01207.0700,E,33.99,7.63,090114,,,A*56
$GPGGA,171259.000,5403.1413,N,01207.0892,E,1,12,0.80,18.3,M,44.2,M,,*54
$GPRMC,171258.000,A,5403.1328,N,01207.0881,E,30.53,4.51,090114,,,A*51
$GPGGA,171312.000,5403.2497,N,01207.0950,E,1,12,0.80,16.8,M,44.2,M,,*5F
$GPRMC,171311.000,A,5403.2408,N,01207.0954,E,31.10,358.68,090114,,,A*54
$GPGGA,171325.000,5403.3635,N,01207.0673,E,1,13,0.77,15.4,M,44.2,M,,*58
$GPRMC,171324.000,A,5403.3553,N,01207.0707,E,30.82,347.76,090114,,,A*5F
$GPGGA,171342.000,5403.4763,N,01207.0355,E,1,13,0.77,13.8,M,44.2,M,,*57
$GPRMC,171341.000,A,5403.4694,N,01207.0360,E,24.76,356.76,090114,,,A*58
$GPGGA,171359.000,5403.5879,N,01207.0418,E,1,13,0.77,12.2,M,44.2,M,,*5D
$GPRMC,171358.000,A,5403.5814,N,01207.0410,E,23.40,1.06,090114,,,A*53
$GPGGA,171416.000,5403.7007,N,01207.0483,E,1,13,0.77,12.6,M,44.2,M,,*54
$GPRMC,171415.000,A,5403.6943,N,01207.0483,E,22.86,0.64,090114,,,A*59
$GPGGA,171433.000,5403.8132,N,01207.0523,E,1,12,0.89,11.6,M,44.2,M,,*53
$GPRMC,171432.000,A,5403.8059,N,01207.0521,E,25.83,0.69,090114,,,A*56
$GPGGA,171452.000,5403.9213,N,01207.0519,E,1,12,0.83,12.5,M,44.2,M,,*56
$GPRMC,171451.000,A,5403.9201,N,01207.0522,E,5.65,359.32,090114,,,A*65
$GPGGA,171522.000,5404.0360,N,01207.0167,E,1,11,0.91,8.4,M,44.2,M,,*6C
$GPRMC,171521.000,A,5404.0270,N,01207.0190,E,32.22,351.10,090114,,,A*59
$GPGGA,171534.000,5404.1444,N,01206.9954,E,1,11,0.84,7.2,M,44.2,M,,*66
$GPRMC,171533.000,A,5404.1361,N,01206.9961,E,30.93,356.10,090114,,,A*5B
ping
$GPGGA,171627.000,5404.2562,N,01206.9939,E,1,12,0.79,9.0,M,44.2,M,,*67
$GPRMC,171626.000,A,5404.2502,N,01206.9930,E,23.81,3.62,090114,,,A*5F
ping
ping
ping
$GPGGA,171812.000,5404.3288,N,01206.8485,E,1,9,1.10,9.0,M,44.2,M,,*52
$GPRMC,171811.000,A,5404.3283,N,01206.8624,E,29.32,273.64,090114,,,A*50
$GPGGA,171826.000,5404.3403,N,01206.6523,E,1,11,0.83,13.9,M,44.2,M,,*53
$GPRMC,171825.000,A,5404.3391,N,01206.6681,E,32.90,275.93,090114,,,A*58
$GPGGA,171838.000,5404.3784,N,01206.4794,E,1,10,0.90,14.9,M,44.2,M,,*58
$GPRMC,171837.000,A,5404.3746,N,01206.4894,E,27.22,302.33,090114,,,A*5B
ping
$GPGGA,171931.000,5404.3990,N,01206.6627,E,1,13,0.79,9.7,M,44.2,M,,*66
$GPRMC,171930.000,A,5404.3994,N,01206.6555,E,16.14,96.32,090114,,,A*66
ping
$DeviceName=pironex_auto
$Software=0.1.3
$Hardware=1
$LastValidPosition=
$IMEI=359193030849087
$LocalIP=10.55.25.74
$CmdVersion=2
$SUCCESS
$<end>
$GPGGA,172159.000,5404.4264,N,01206.5140,E,1,13,0.77,26.5,M,44.2,M,,*50
$GPRMC,172158.000,A,5404.4247,N,01206.5185,E,12.06,304.76,090114,,,A*54
ping
$GPGGA,172233.000,,,,,0,12,,,M,,M,,*7D
$GPRMC,172232.000,A,5404.3607,N,01206.4845,E,27.00,114.47,090114,,,A*59
$GPGGA,172236.000,5404.3489,N,01206.5332,E,1,11,0.96,38.4,M,44.2,M,,*5C
$GPRMC,172235.000,V,,,,,27.86,111.97,090114,,,N*74
$GPGGA,172249.000,5404.3219,N,01206.7135,E,1,12,0.80,35.9,M,44.2,M,,*58
$GPRMC,172248.000,A,5404.3230,N,01206.6990,E,31.56,98.90,090114,,,A*64
$GPGGA,172302.000,5404.3105,N,01206.9039,E,1,9,1.10,24.2,M,44.2,M,,*62
$GPRMC,172301.000,A,5404.3114,N,01206.8902,E,29.47,94.40,090114,,,A*60
ping
ping
$GPGGA,172407.000,5404.3381,N,01207.0955,E,1,10,0.90,25.3,M,44.2,M,,*54
$GPRMC,172406.000,A,5404.3337,N,01207.0821,E,31.24,61.56,090114,,,A*6B
$GPGGA,172419.000,5404.4123,N,01207.2365,E,1,11,0.84,24.3,M,44.2,M,,*58
$GPRMC,172418.000,A,5404.4051,N,01207.2273,E,32.35,37.65,090114,,,A*6F
ping
$GPGGA,172516.000,5404.5042,N,01207.3403,E,1,14,0.75,21.6,M,44.2,M,,*5C
$GPRMC,172515.000,A,5404.5005,N,01207.3370,E,12.85,29.03,090114,,,A*66
$GPGGA,172531.000,5404.6037,N,01207.4212,E,1,13,0.76,15.0,M,44.2,M,,*5C
$GPRMC,172530.000,A,5404.5961,N,01207.4150,E,29.52,25.70,090114,,,A*67
$GPGGA,172545.000,5404.7005,N,01207.5058,E,1,14,0.75,10.4,M,44.2,M,,*57
$GPRMC,172544.000,A,5404.6958,N,01207.5018,E,20.07,27.14,090114,,,A*68
$GPGGA,172615.000,5404.6484,N,01207.6764,E,1,12,0.81,12.6,M,44.2,M,,*5B
$GPRMC,172614.000,A,5404.6541,N,01207.6682,E,27.52,139.82,090114,,,A*5A
ping
ping
ping
ping
ping
$GPGGA,172856.000,5404.7274,N,01207.5436,E,1,14,0.74,6.8,M,44.2,M,,*6A
$GPRMC,172855.000,A,5404.7254,N,01207.5502,E,14.57,302.08,090114,,,A*56
ping
$GPGGA,172934.000,5404.6436,N,01207.4257,E,1,13,0.79,3.7,M,44.2,M,,*6E
$GPRMC,172933.000,A,5404.6504,N,01207.4311,E,25.58,204.91,090114,,,A*5B
$GPGGA,172953.000,5404.5474,N,01207.3422,E,1,14,0.74,6.7,M,44.2,M,,*66
$GPRMC,172952.000,A,5404.5487,N,01207.3433,E,6.90,208.13,090114,,,A*66
ping
$GPGGA,173028.000,5404.5759,N,01207.1622,E,1,14,0.74,5.5,M,44.2,M,,*6F
$GPRMC,173027.000,A,5404.5728,N,01207.1696,E,19.28,304.36,090114,,,A*52
ping
$GPGGA,173108.000,5404.5111,N,01207.0143,E,1,12,0.81,7.9,M,44.2,M,,*65
$GPRMC,173107.000,A,5404.5125,N,01207.0165,E,6.90,210.93,090114,,,A*66
ping
$GPGGA,173145.000,5404.4097,N,01207.0835,E,1,14,0.74,11.5,M,44.2,M,,*5D
$GPRMC,173144.000,A,5404.4130,N,01207.0892,E,17.26,221.74,090114,,,A*53
$GPGGA,173216.000,5404.3886,N,01206.8994,E,1,10,0.89,13.3,M,44.2,M,,*56
$GPRMC,173215.000,A,5404.3882,N,01206.9065,E,14.41,273.85,090114,,,A*50
ping
ping
$DeviceName=pironex_auto
$Software=0.1.3
$Hardware=1
$LastValidPosition=
$IMEI=359193030849087
$LocalIP=10.67.187.190
$CmdVersion=2
$SUCCESS
$<end>
ping
ping
ping
ping
ping
$GPGGA,200935.000,5404.7952,N,01207.5753,E,1,9,1.09,21.9,M,44.2,M,,*64
$GPRMC,200934.000,V,,,,,33.83,26.29,090114,,,N*48
$GPGGA,200950.000,5404.8944,N,01207.6530,E,1,8,1.26,34.7,M,44.2,M,,*6D
$GPRMC,200949.000,A,5404.8908,N,01207.6509,E,14.19,20.33,090114,,,A*68
ping
$GPGGA,201027.000,5405.0033,N,01207.6340,E,1,10,1.11,16.3,M,44.2,M,,*5D
$GPRMC,201026.000,A,5405.0009,N,01207.6353,E,9.31,343.32,090114,,,A*60
$GPGGA,201047.000,5405.1091,N,01207.5776,E,1,10,1.22,17.4,M,44.2,M,,*56
$GPRMC,201046.000,A,5405.1047,N,01207.5782,E,15.59,347.97,090114,,,A*5E
ping
$GPGGA,201119.000,5405.2203,N,01207.5893,E,1,10,0.99,18.8,M,44.2,M,,*50
$GPRMC,201118.000,A,5405.2130,N,01207.5864,E,27.61,13.31,090114,,,A*65
$GPGGA,201136.000,5405.3186,N,01207.6742,E,1,11,0.95,16.4,M,44.2,M,,*5D
$GPRMC,201135.000,A,5405.3129,N,01207.6740,E,21.08,7.74,090114,,,A*54
ping
$GPGGA,201209.000,5405.3885,N,01207.8157,E,1,9,1.30,4.5,M,44.1,M,,*52
$GPRMC,201208.000,A,5405.3881,N,01207.8042,E,23.94,88.43,090114,,,A*6D
$GPGGA,201224.000,5405.3918,N,01208.0079,E,1,10,0.78,5.0,M,44.1,M,,*63
$GPRMC,201223.000,A,5405.3917,N,01207.9963,E,25.32,86.46,090114,,,A*60
$GPGGA,201239.000,5405.3977,N,01208.1923,E,1,11,0.75,7.9,M,44.1,M,,*66
$GPRMC,201238.000,A,5405.3972,N,01208.1794,E,27.56,86.32,090114,,,A*6B
$GPGGA,201307.000,5405.3878,N,01208.3773,E,1,11,0.83,1.8,M,44.1,M,,*63
$GPRMC,201306.000,A,5405.3880,N,01208.3744,E,6.79,110.71,090114,,,A*63
ping
$GPGGA,201349.000,5405.4859,N,01208.2949,E,1,10,1.25,28.4,M,44.1,M,,*50
$GPRMC,201348.000,A,5405.4797,N,01208.2907,E,16.09,16.66,090114,,,A*68
ping
$DeviceName=pironex_auto
$Software=0.1.3
$Hardware=1
$LastValidPosition=
$IMEI=359193030849087
$LocalIP=10.42.86.152
$CmdVersion=2
$SUCCESS
$<end>
ping
ping
ping
ping
$GPGGA,062234.000,5405.4184,N,01208.4596,E,1,12,0.90,3.9,M,44.1,M,,*64
$GPRMC,062233.000,V,,,,,16.06,168.81,100114,,,N*79
ping
$GPGGA,062314.000,5405.3505,N,01208.6123,E,1,13,0.84,-18.2,M,44.1,M,,*7D
$GPRMC,062313.000,A,5405.3584,N,01208.6106,E,21.59,168.97,100114,,,A*54
$GPGGA,062333.000,5405.2426,N,01208.6545,E,1,11,0.92,-14.8,M,44.1,M,,*7E
$GPRMC,062332.000,A,5405.2472,N,01208.6532,E,19.26,157.61,100114,,,A*5B
$GPGGA,062358.000,5405.1339,N,01208.6636,E,1,12,0.91,-21.4,M,44.1,M,,*74
$GPRMC,062357.000,A,5405.1394,N,01208.6626,E,19.13,172.75,100114,,,A*56
ping
$GPGGA,062444.000,5405.1939,N,01208.8195,E,1,12,0.98,-13.3,M,44.1,M,,*7B
$GPRMC,062443.000,A,5405.1959,N,01208.8093,E,22.59,102.44,100114,,,A*5A
$GPGGA,062457.000,5405.1238,N,01208.9645,E,1,13,0.84,-14.5,M,44.1,M,,*75
$GPRMC,062456.000,A,5405.1298,N,01208.9522,E,34.06,129.10,100114,,,A*53
$GPGGA,062509.000,5405.0532,N,01209.1063,E,1,13,0.84,-15.6,M,44.1,M,,*7A
$GPRMC,062508.000,A,5405.0590,N,01209.0943,E,32.77,128.93,100114,,,A*5E
$GPGGA,062525.000,5404.9818,N,01209.2482,E,1,13,0.85,-14.0,M,44.1,M,,*77
$GPRMC,062524.000,A,5404.9857,N,01209.2405,E,21.73,134.49,100114,,,A*5F
$GPGGA,062548.000,5404.9250,N,01209.4075,E,1,13,0.94,-15.4,M,44.1,M,,*75
$GPRMC,062547.000,A,5404.9274,N,01209.3997,E,17.62,117.02,100114,,,A*5D
$GPGGA,062607.000,5404.8757,N,01209.5825,E,1,12,1.08,-20.0,M,44.1,M,,*75
$GPRMC,062606.000,A,5404.8766,N,01209.5701,E,25.43,99.09,100114,,,A*65
$GPGGA,062620.000,5404.8759,N,01209.7700,E,1,12,0.90,-18.5,M,44.1,M,,*7A
$GPRMC,062619.000,A,5404.8759,N,01209.7558,E,30.74,90.55,100114,,,A*6B
$GPGGA,062634.000,5404.8748,N,01209.9548,E,1,11,1.05,-10.4,M,44.1,M,,*78
$GPRMC,062633.000,A,5404.8746,N,01209.9400,E,30.91,88.48,100114,,,A*61
$GPGGA,062646.000,5404.8801,N,01210.1424,E,1,13,0.94,-3.2,M,44.1,M,,*4B
$GPRMC,062645.000,A,5404.8795,N,01210.1270,E,32.20,85.91,100114,,,A*6E
$GPGGA,062659.000,5404.8834,N,01210.3322,E,1,13,0.94,2.0,M,44.1,M,,*6E
$GPRMC,062658.000,A,5404.8836,N,01210.3204,E,27.16,91.26,100114,,,A*6D
$GPGGA,062720.000,5404.8788,N,01210.5245,E,1,13,0.85,6.5,M,44.1,M,,*6E
$GPRMC,062719.000,A,5404.8790,N,01210.5147,E,23.46,92.32,100114,,,A*6F
ping
$GPGGA,062815.000,5404.8087,N,01210.6640,E,1,11,1.01,7.9,M,44.1,M,,*6F
$GPRMC,062814.000,A,5404.8135,N,01210.6613,E,18.89,161.66,100114,,,A*56
$GPGGA,062834.000,5404.6982,N,01210.7036,E,1,12,1.00,5.3,M,44.1,M,,*62
$GPRMC,062833.000,A,5404.7052,N,01210.7046,E,23.97,185.67,100114,,,A*57
$GPGGA,062850.000,5404.5912,N,01210.6828,E,1,13,0.84,3.7,M,44.1,M,,*62
$GPRMC,062849.000,A,5404.5976,N,01210.6847,E,22.62,189.81,100114,,,A*50
ping
$GPGGA,062934.000,5404.4943,N,01210.7670,E,1,12,1.00,11.7,M,44.1,M,,*59
$GPRMC,062933.000,A,5404.4954,N,01210.7604,E,16.82,106.17,100114,,,A*54
$DeviceName=pironex_auto
$Software=0.1.3
$Hardware=1
$LastValidPosition=
$IMEI=359193030849087
$LocalIP=10.144.18.6
$CmdVersion=2
$SUCCESS
$<end>
$GPGGA,103259.000,5404.4932,N,01210.7818,E,1,8,1.10,16.7,M,44.1,M,,*64
$GPRMC,103258.000,V,,,,,1.63,210.38,100114,,,N*49
$GPGGA,103329.000,5404.5872,N,01210.6860,E,1,8,1.10,7.4,M,44.1,M,,*5B
$GPRMC,103328.000,A,5404.5797,N,01210.6822,E,28.41,16.34,100114,,,A*6A
$GPGGA,103343.000,5404.7023,N,01210.7117,E,1,8,1.11,5.8,M,44.1,M,,*5E
$GPRMC,103342.000,A,5404.6937,N,01210.7110,E,30.67,3.22,100114,,,A*56
$GPGGA,103357.000,5404.8113,N,01210.6665,E,1,8,1.10,3.0,M,44.1,M,,*5A
$GPRMC,103356.000,A,5404.8041,N,01210.6699,E,28.51,342.15,100114,,,A*5C
ping
ping
$GPGGA,103521.000,5404.9182,N,01210.6243,E,1,8,1.03,10.5,M,44.1,M,,*61
$GPRMC,103520.000,A,5404.9152,N,01210.6255,E,11.00,346.52,100114,,,A*54
$DeviceName=pironex_auto
$Software=0.1.3
$Hardware=1
$LastValidPosition=
$IMEI=359193030849087
$LocalIP=10.33.122.25
$CmdVersion=2
$SUCCESS
$<end>
ping
$GPGGA,150935.000,5404.9706,N,01210.7799,E,1,5,2.06,-5.2,M,44.1,M,,*72
$GPRMC,150934.000,V,,,,,18.84,180.91,100114,,,N*76
ping
ping
$GPGGA,151105.000,5404.8792,N,01210.6793,E,1,8,1.24,10.0,M,44.1,M,,*6A
$GPRMC,151104.000,A,5404.8790,N,01210.6857,E,14.14,272.64,100114,,,A*53
$GPGGA,151124.000,5404.8870,N,01210.4867,E,1,8,1.24,12.5,M,44.1,M,,*6B
$GPRMC,151123.000,A,5404.8864,N,01210.5019,E,31.05,271.52,100114,,,A*52
$GPGGA,151137.000,5404.8913,N,01210.3029,E,1,8,1.24,8.7,M,44.1,M,,*51
$GPRMC,151136.000,A,5404.8910,N,01210.3173,E,29.78,270.72,100114,,,A*5F
$GPGGA,151150.000,5404.8882,N,01210.1169,E,1,8,1.24,3.7,M,44.1,M,,*55
$GPRMC,151149.000,A,5404.8883,N,01210.1298,E,28.22,269.11,100114,,,A*5B
$GPGGA,151216.000,5404.9443,N,01209.9579,E,1,8,1.24,-3.4,M,44.1,M,,*7F
$GPRMC,151215.000,A,5404.9362,N,01209.9617,E,29.04,343.72,100114,,,A*5E
$GPGGA,151228.000,5405.0493,N,01209.9044,E,1,8,1.25,-6.1,M,44.1,M,,*7D
$GPRMC,151227.000,A,5405.0404,N,01209.9088,E,33.68,343.27,100114,,,A*51
$GPGGA,151240.000,5405.1530,N,01209.8550,E,1,8,1.25,-4.9,M,44.1,M,,*71
$GPRMC,151239.000,A,5405.1452,N,01209.8588,E,30.13,344.12,100114,,,A*56
$GPGGA,151254.000,5405.2568,N,01209.8052,E,1,8,1.25,-4.5,M,44.1,M,,*71
$GPRMC,151253.000,A,5405.2493,N,01209.8090,E,28.08,343.42,100114,,,A*59
$GPGGA,151308.000,5405.3631,N,01209.7531,E,1,8,1.25,-6.2,M,44.1,M,,*7D
$GPRMC,151307.000,A,5405.3550,N,01209.7569,E,30.15,344.04,100114,,,A*5A
ping
$GPGGA,151348.000,5405.4409,N,01209.6216,E,1,9,1.23,-4.1,M,44.1,M,,*72
$GPRMC,151347.000,A,5405.4430,N,01209.6342,E,27.15,253.84,100114,,,A*59
$GPGGA,151402.000,5405.4304,N,01209.4305,E,1,10,0.91,-3.5,M,44.1,M,,*43
$GPRMC,151401.000,A,5405.4294,N,01209.4448,E,30.24,276.03,100114,,,A*57
$GPGGA,151417.000,5405.4432,N,01209.2406,E,1,10,0.90,-1.2,M,44.1,M,,*43
$GPRMC,151416.000,A,5405.4425,N,01209.2510,E,22.20,276.41,100114,,,A*56
ping
ping
$GPGGA,151526.000,5405.4996,N,01209.0833,E,1,9,1.24,-3.8,M,44.1,M,,*75
$GPRMC,151525.000,A,5405.4982,N,01209.0832,E,6.82,4.24,100114,,,A*62
ping
ping
ping
$DeviceName=pironex_auto
$Software=0.1.3
$Hardware=1
$LastValidPosition=
$IMEI=359193030849087
$LocalIP=10.53.141.161
$CmdVersion=2
$SUCCESS
$<end>
ping
ping
ping
$GPGGA,154302.000,5405.4856,N,01208.3842,E,1,8,1.13,510.9,M,44.1,M,,*57
$GPRMC,154301.000,V,,,,,16.02,316.74,100114,,,N*78
$GPGGA,154308.000,5405.5560,N,01208.5823,E,1,9,1.67,185.2,M,44.1,M,,*54
$GPRMC,154307.000,A,5405.5079,N,01208.4350,E,3.62,284.83,100114,,,A*6B
$GPGGA,154309.000,,,,,0,8,,,M,,M,,*4A
$GPRMC,154308.000,A,5405.5560,N,01208.5823,E,0.19,284.83,100114,,,A*68
$GPGGA,154310.000,5405.5334,N,01208.5421,E,1,9,1.02,209.3,M,44.1,M,,*51
$GPRMC,154309.000,V,,,,,0.19,284.83,100114,,,N*4F
$GPGGA,154335.000,,,,,0,9,,,M,,M,,*44
$GPRMC,154334.000,A,5405.4711,N,01208.4336,E,6.75,151.22,100114,,,A*60
$GPGGA,154336.000,5405.4687,N,01208.4401,E,1,9,1.07,313.7,M,44.1,M,,*51
$GPRMC,154335.000,V,,,,,7.43,211.93,100114,,,N*45
ping
ping
ping
ping
$<MSG.Info.ServerLogin>
$DeviceName=pironex_auto
$Software=0.1.3
$Hardware=1
$LastValidPosition=
$IMEI=359193030849087
$LocalIP=10.39.206.231
$CmdVersion=2
$SUCCESS
$<end>
$GPGGA,080429.000,5405.1425,N,01207.6131,E,1,11,0.84,20.9,M,44.2,M,,*59
$GPRMC,080427.705,V,,,,,0.03,0.00,220114,,,N*41
ping
ping
$GPGGA,080558.000,5405.0329,N,01207.5985,E,1,12,0.75,0.3,M,44.2,M,,*65
$GPRMC,080557.000,A,5405.0412,N,01207.5949,E,30.22,165.23,220114,,,A*53
$GPGGA,080612.000,5404.9210,N,01207.6411,E,1,11,0.80,1.7,M,44.2,M,,*64
$GPRMC,080611.000,A,5404.9285,N,01207.6404,E,27.34,174.64,220114,,,A*57
$GPGGA,080626.000,5404.8147,N,01207.5697,E,1,7,1.67,7.3,M,44.2,M,,*51
$GPRMC,080625.000,A,5404.8214,N,01207.5757,E,26.39,207.61,220114,,,A*51
ping
$GPGGA,080702.000,5404.7192,N,01207.4830,E,1,11,0.78,7.4,M,44.2,M,,*6C
$GPRMC,080701.000,A,5404.7256,N,01207.4879,E,24.22,204.91,220114,,,A*59
$GPGGA,080714.000,5404.6146,N,01207.4014,E,1,12,0.75,9.5,M,44.2,M,,*6C
$GPRMC,080713.000,A,5404.6238,N,01207.4087,E,36.73,205.40,220114,,,A*50
$GPGGA,080739.000,5404.5160,N,01207.3163,E,1,10,0.85,12.8,M,44.2,M,,*58
$GPRMC,080738.000,A,5404.5212,N,01207.3203,E,19.20,203.99,220114,,,A*52
$GPGGA,080751.000,5404.4203,N,01207.2228,E,1,12,0.75,16.6,M,44.2,M,,*5B
$GPRMC,080750.000,A,5404.4277,N,01207.2320,E,33.54,215.20,220114,,,A*51
$GPGGA,080806.000,5404.3462,N,01207.0775,E,1,12,0.75,19.7,M,44.2,M,,*51
$GPRMC,080805.000,A,5404.3496,N,01207.0884,E,26.52,241.63,220114,,,A*53
ping
ping
$GPGGA,080910.000,5404.2493,N,01206.9864,E,1,12,0.75,19.1,M,44.2,M,,*59
$GPRMC,080909.000,A,5404.2582,N,01206.9862,E,31.05,180.12,220114,,,A*57
$GPGGA,080923.000,5404.1326,N,01206.9893,E,1,11,0.87,17.8,M,44.2,M,,*52
$GPRMC,080922.000,A,5404.1425,N,01206.9885,E,34.64,176.83,220114,,,A*5B
$GPGGA,080934.000,5404.0241,N,01207.0127,E,1,11,0.83,19.2,M,44.2,M,,*5B
$GPRMC,080933.000,A,5404.0342,N,01207.0087,E,36.31,168.62,220114,,,A*5C
$GPGGA,080946.000,5403.9126,N,01207.0457,E,1,12,0.75,21.2,M,44.2,M,,*51
$GPRMC,080945.000,A,5403.9214,N,01207.0448,E,31.22,176.24,220114,,,A*5E
$GPGGA,080958.000,5403.7988,N,01207.0439,E,1,12,0.75,20.9,M,44.2,M,,*5E
$GPRMC,080957.000,A,5403.8083,N,01207.0444,E,34.48,181.05,220114,,,A*5E
$GPGGA,081012.000,5403.6870,N,01207.0407,E,1,12,0.75,21.6,M,44.2,M,,*5C
$GPRMC,081011.000,A,5403.6951,N,01207.0406,E,29.36,180.00,220114,,,A*5B
$GPGGA,081042.000,5403.5756,N,01207.0343,E,1,12,0.75,20.5,M,44.2,M,,*54
$GPRMC,081041.000,A,5403.5826,N,01207.0348,E,24.17,182.02,220114,,,A*5F
$GPGGA,081055.000,5403.4653,N,01207.0330,E,1,12,0.75,20.9,M,44.2,M,,*5F
$GPRMC,081054.000,A,5403.4739,N,01207.0323,E,31.11,177.86,220114,,,A*52
$GPGGA,081106.000,5403.3581,N,01207.0627,E,1,12,0.75,22.0,M,44.2,M,,*5B
$GPRMC,081105.000,A,5403.3686,N,01207.0584,E,37.91,167.81,220114,,,A*56
$GPGGA,081116.000,5403.2498,N,01207.0913,E,1,12,0.75,23.6,M,44.2,M,,*5D
$GPRMC,081115.000,A,5403.2612,N,01207.0902,E,40.83,175.95,220114,,,A*5C
$GPGGA,081126.000,5403.1302,N,01207.0838,E,1,12,0.75,23.8,M,44.2,M,,*5F
$GPRMC,081125.000,A,5403.1429,N,01207.0856,E,45.30,184.48,220114,,,A*55
$GPGGA,081135.000,5403.0176,N,01207.0634,E,1,12,0.75,23.8,M,44.2,M,,*5F
$GPRMC,081134.000,A,5403.0300,N,01207.0662,E,44.68,186.97,220114,,,A*5D
$GPGGA,081144.000,5402.9118,N,01207.0178,E,1,12,0.75,24.4,M,44.2,M,,*5D
$GPRMC,081143.000,A,5402.9224,N,01207.0249,E,41.20,199.89,220114,,,A*57
$GPGGA,081154.000,5402.8158,N,01206.9194,E,1,12,0.75,23.4,M,44.2,M,,*54
$GPRMC,081153.000,A,5402.8244,N,01206.9307,E,39.96,216.82,220114,,,A*5F
$GPGGA,081204.000,5402.7340,N,01206.8004,E,1,12,0.75,22.5,M,44.2,M,,*5F
$GPRMC,081203.000,A,5402.7421,N,01206.8127,E,39.58,221.66,220114,,,A*5E
$GPGGA,081214.000,5402.6465,N,01206.6870,E,1,12,0.75,20.6,M,44.2,M,,*5B
$GPRMC,081213.000,A,5402.6559,N,01206.6962,E,39.27,211.37,220114,,,A*58
$GPGGA,081225.000,5402.5405,N,01206.6148,E,1,12,0.75,19.4,M,44.2,M,,*56
$GPRMC,081224.000,A,5402.5496,N,01206.6203,E,35.52,198.18,220114,,,A*50
$GPGGA,081236.000,5402.4450,N,01206.5281,E,1,12,0.74,18.4,M,44.2,M,,*50
$GPRMC,081235.000,A,5402.4531,N,01206.5381,E,36.06,215.25,220114,,,A*5F
$GPGGA,081246.000,5402.3642,N,01206.3973,E,1,12,0.75,20.4,M,44.2,M,,*5B
$GPRMC,081245.000,A,5402.3724,N,01206.4124,E,43.76,226.28,220114,,,A*5D
$GPGGA,081257.000,5402.2911,N,01206.2515,E,1,12,0.75,22.8,M,44.2,M,,*50
$GPRMC,081256.000,A,5402.2971,N,01206.2639,E,34.52,229.82,220114,,,A*54
$GPGGA,081311.000,5402.2218,N,01206.1095,E,1,12,0.75,24.5,M,44.2,M,,*54
$GPRMC,081310.000,A,5402.2278,N,01206.1201,E,30.01,228.34,220114,,,A*57
$GPGGA,081322.000,5402.1288,N,01205.9971,E,1,12,0.75,25.4,M,44.2,M,,*56
$GPRMC,081321.000,A,5402.1392,N,01206.0053,E,40.41,206.36,220114,,,A*5A
$GPGGA,081333.000,5402.0178,N,01205.9619,E,1,12,0.75,28.7,M,44.3,M,,*55
$GPRMC,081332.000,A,5402.0273,N,01205.9618,E,34.14,181.02,220114,,,A*5C
$GPGGA,081345.000,5401.9056,N,01205.9965,E,1,12,0.75,27.7,M,44.3,M,,*58
$GPRMC,081344.000,A,5401.9161,N,01205.9913,E,37.77,164.93,220114,,,A*56
$GPGGA,081355.000,5401.8000,N,01206.0357,E,1,12,0.75,26.5,M,44.3,M,,*59
$GPRMC,081354.000,A,5401.8106,N,01206.0341,E,38.90,174.12,220114,,,A*5E
$GPGGA,081406.000,5401.6886,N,01205.9863,E,1,10,0.78,21.8,M,44.3,M,,*53
$GPRMC,081405.000,A,5401.6976,N,01205.9962,E,38.44,210.40,220114,,,A*52
$GPGGA,081417.000,5401.5845,N,01205.8906,E,1,12,0.75,18.7,M,44.3,M,,*56
$GPRMC,081416.000,A,5401.5952,N,01205.8957,E,39.93,196.85,220114,,,A*5D
$GPGGA,081427.000,5401.4703,N,01205.8433,E,1,12,0.75,16.8,M,44.3,M,,*53
$GPRMC,081426.000,A,5401.4816,N,01205.8482,E,42.48,194.15,220114,,,A*5A
$GPGGA,081436.000,5401.3627,N,01205.8038,E,1,12,0.75,17.6,M,44.3,M,,*53
$GPRMC,081435.000,A,5401.3739,N,01205.8079,E,43.17,192.67,220114,,,A*55
$GPGGA,081501.000,5401.2560,N,01205.8575,E,1,12,0.75,14.7,M,44.3,M,,*59
$GPRMC,081500.000,A,5401.2621,N,01205.8630,E,24.86,198.69,220114,,,A*5D
$GPGGA,081512.000,5401.2348,N,01205.6706,E,1,12,0.74,16.2,M,44.3,M,,*59
$GPRMC,081511.000,A,5401.2362,N,01205.6956,E,51.39,264.47,220114,,,A*54
$GPGGA,081519.000,5401.2249,N,01205.4633,E,1,12,0.75,16.7,M,44.3,M,,*53
$GPRMC,081518.000,A,5401.2265,N,01205.4961,E,67.42,265.40,220114,,,A*52
$GPGGA,081525.000,5401.2146,N,01205.2500,E,1,12,0.75,17.4,M,44.3,M,,*57
$GPRMC,081524.000,A,5401.2163,N,01205.2870,E,77.79,265.67,220114,,,A*53
$GPGGA,081530.000,5401.2059,N,01205.0622,E,1,12,0.75,17.8,M,44.3,M,,*51
$GPRMC,081529.000,A,5401.2078,N,01205.1000,E,79.56,265.30,220114,,,A*58
$GPGGA,081535.000,5401.1957,N,01204.8700,E,1,12,0.75,18.2,M,44.3,M,,*5D
$GPRMC,081534.000,A,5401.1979,N,01204.9089,E,82.35,264.57,220114,,,A*56
$GPGGA,081540.000,5401.1850,N,01204.6725,E,1,12,0.75,18.9,M,44.3,M,,*5B
$GPRMC,081539.000,A,5401.1872,N,01204.7121,E,83.85,264.57,220114,,,A*56
$GPGGA,081545.000,5401.1727,N,01204.4738,E,1,12,0.75,19.6,M,44.3,M,,*51
$GPRMC,081544.000,A,5401.1754,N,01204.5136,E,84.97,263.59,220114,,,A*5E
$GPGGA,081550.000,5401.1569,N,01204.2763,E,1,11,0.75,19.8,M,44.3,M,,*58
$GPRMC,081549.000,A,5401.1604,N,01204.3158,E,84.49,261.90,220114,,,A*5D
$GPGGA,081555.000,5401.1374,N,01204.0801,E,1,12,0.75,20.0,M,44.3,M,,*5F
$GPRMC,081554.000,A,5401.1415,N,01204.1184,E,82.99,259.86,220114,,,A*57
$GPGGA,081601.000,5401.1111,N,01203.8687,E,1,11,0.77,20.7,M,44.3,M,,*55
$GPRMC,081600.000,A,5401.1156,N,01203.9024,E,73.82,257.50,220114,,,A*52
$GPGGA,081607.000,5401.0822,N,01203.6716,E,1,12,0.75,20.8,M,44.3,M,,*52
$GPRMC,081606.000,A,5401.0871,N,01203.7032,E,70.23,255.42,220114,,,A*59
$GPGGA,081613.000,5401.0522,N,01203.4890,E,1,11,0.83,25.2,M,44.3,M,,*5C
$GPRMC,081612.000,A,5401.0578,N,01203.5204,E,68.22,253.89,220114,,,A*54
$GPGGA,081619.000,5401.0129,N,01203.2880,E,1,11,0.78,23.0,M,44.3,M,,*5E
$GPRMC,081618.000,A,5401.0200,N,01203.3223,E,76.48,251.26,220114,,,A*51
$GPGGA,081624.000,5400.9765,N,01203.1148,E,1,11,0.75,22.8,M,44.3,M,,*5C
$GPRMC,081623.000,A,5400.9842,N,01203.1498,E,79.95,251.40,220114,,,A*56
$GPGGA,081629.000,5400.9345,N,01202.9368,E,1,12,0.75,22.3,M,44.3,M,,*56
$GPRMC,081628.000,A,5400.9433,N,01202.9728,E,82.44,247.95,220114,,,A*51
$GPGGA,081634.000,5400.8884,N,01202.7538,E,1,11,0.77,23.0,M,44.3,M,,*53
$GPRMC,081633.000,A,5400.8981,N,01202.7904,E,84.37,246.23,220114,,,A*5E
$GPGGA,081639.000,5400.8385,N,01202.5780,E,1,11,0.79,21.1,M,44.3,M,,*5A
$GPRMC,081638.000,A,5400.8488,N,01202.6125,E,81.77,243.80,220114,,,A*56
$GPGGA,081644.000,5400.7835,N,01202.4062,E,1,12,0.75,19.7,M,44.3,M,,*57
$GPRMC,081643.000,A,5400.7949,N,01202.4407,E,83.80,241.37,220114,,,A*56
$GPGGA,081649.000,5400.7242,N,01202.2329,E,1,12,0.75,19.5,M,44.3,M,,*58
$GPRMC,081648.000,A,5400.7363,N,01202.2672,E,85.07,239.59,220114,,,A*57
$GPGGA,081654.000,5400.6644,N,01202.0681,E,1,12,0.75,19.2,M,44.3,M,,*55
$GPRMC,081653.000,A,5400.6763,N,01202.1004,E,81.16,238.27,220114,,,A*50
$GPGGA,081659.000,5400.6037,N,01201.9123,E,1,12,0.75,17.5,M,44.4,M,,*51
$GPRMC,081658.000,A,5400.6158,N,01201.9429,E,78.20,236.46,220114,,,A*5F
$GPGGA,081704.000,5400.5441,N,01201.7595,E,1,12,0.75,15.6,M,44.4,M,,*58
$GPRMC,081703.000,A,5400.5560,N,01201.7901,E,77.83,236.72,220114,,,A*54
$GPGGA,081709.000,5400.4839,N,01201.6032,E,1,12,0.76,13.9,M,44.4,M,,*54
$GPRMC,081708.000,A,5400.4961,N,01201.6350,E,80.10,237.07,220114,,,A*5D
$GPGGA,081714.000,5400.4229,N,01201.4416,E,1,12,0.76,12.1,M,44.4,M,,*5A
$GPRMC,081713.000,A,5400.4351,N,01201.4743,E,82.00,237.40,220114,,,A*5A
$GPGGA,081719.000,5400.3644,N,01201.2773,E,1,11,0.79,10.2,M,44.4,M,,*54
$GPRMC,081718.000,A,5400.3759,N,01201.3105,E,82.22,238.95,220114,,,A*5E
$GPGGA,081724.000,5400.3094,N,01201.1117,E,1,12,0.76,9.2,M,44.4,M,,*62
$GPRMC,081723.000,A,5400.3199,N,01201.1441,E,79.24,241.14,220114,,,A*5E
$GPGGA,081729.000,5400.2587,N,01200.9465,E,1,12,0.76,8.3,M,44.4,M,,*60
$GPRMC,081728.000,A,5400.2686,N,01200.9803,E,79.77,243.22,220114,,,A*5F
$GPGGA,081734.000,5400.2113,N,01200.7724,E,1,12,0.76,6.5,M,44.4,M,,*65
$GPRMC,081733.000,A,5400.2205,N,01200.8079,E,82.06,245.73,220114,,,A*5E
$GPGGA,081739.000,5400.1673,N,01200.5899,E,1,11,0.78,5.6,M,44.4,M,,*6C
$GPRMC,081738.000,A,5400.1758,N,01200.6268,E,83.97,248.16,220114,,,A*50
$GPGGA,081744.000,5400.1278,N,01200.4054,E,1,12,0.76,6.6,M,44.4,M,,*6F
$GPRMC,081743.000,A,5400.1354,N,01200.4426,E,82.99,250.68,220114,,,A*55
$GPGGA,081749.000,5400.0925,N,01200.2161,E,1,12,0.76,7.8,M,44.4,M,,*6E
$GPRMC,081748.000,A,5400.0989,N,01200.2543,E,84.50,253.05,220114,,,A*5A
$GPGGA,081754.000,5400.0617,N,01200.0209,E,1,12,0.76,9.1,M,44.4,M,,*64
$GPRMC,081753.000,A,5400.0675,N,01200.0604,E,86.92,255.50,220114,,,A*54
$GPGGA,081759.000,5400.0359,N,01159.8230,E,1,12,0.76,10.1,M,44.4,M,,*53
$GPRMC,081758.000,A,5400.0407,N,01159.8630,E,86.36,258.18,220114,,,A*57
$GPGGA,081804.000,5400.0161,N,01159.6259,E,1,12,0.76,9.9,M,44.4,M,,*6C
$GPRMC,081803.000,A,5400.0196,N,01159.6650,E,83.82,260.97,220114,,,A*55
$GPGGA,081809.000,5400.0020,N,01159.4298,E,1,12,0.76,8.6,M,44.4,M,,*64
$GPRMC,081808.000,A,5400.0043,N,01159.4689,E,82.99,263.86,220114,,,A*59
$GPGGA,081814.000,5359.9909,N,01159.2330,E,1,12,0.76,7.1,M,44.4,M,,*65
$GPRMC,081813.000,A,5359.9931,N,01159.2729,E,84.78,264.39,220114,,,A*5A
$GPGGA,081819.000,5359.9850,N,01159.0329,E,1,12,0.76,7.9,M,44.4,M,,*67
$GPRMC,081818.000,A,5359.9855,N,01159.0731,E,85.42,268.13,220114,,,A*55
$GPGGA,081824.000,5359.9843,N,01158.8273,E,1,12,0.76,9.3,M,44.4,M,,*68
$GPRMC,081823.000,A,5359.9844,N,01158.8689,E,87.62,269.57,220114,,,A*57
$GPGGA,081829.000,5359.9844,N,01158.6195,E,1,12,0.76,10.4,M,44.4,M,,*58
$GPRMC,081828.000,A,5359.9844,N,01158.6610,E,88.15,270.00,220114,,,A*57
$GPGGA,081834.000,5359.9835,N,01158.4136,E,1,12,0.76,11.6,M,44.4,M,,*5A
$GPRMC,081833.000,A,5359.9838,N,01158.4548,E,87.88,269.16,220114,,,A*5E
$GPGGA,081839.000,5359.9793,N,01158.2083,E,1,12,0.76,12.9,M,44.4,M,,*51
$GPRMC,081838.000,A,5359.9807,N,01158.2491,E,87.37,267.21,220114,,,A*54
$GPGGA,081844.000,5359.9657,N,01158.0068,E,1,12,0.76,13.6,M,44.4,M,,*5B
$GPRMC,081843.000,A,5359.9691,N,01158.0469,E,85.41,262.42,220114,,,A*5F
$GPGGA,081849.000,5359.9446,N,01157.8084,E,1,12,0.76,14.9,M,44.4,M,,*59
$GPRMC,081848.000,A,5359.9492,N,01157.8477,E,85.24,259.16,220114,,,A*57
$GPGGA,081854.000,5359.9171,N,01157.6145,E,1,12,0.76,16.8,M,44.4,M,,*55
$GPRMC,081853.000,A,5359.9231,N,01157.6533,E,85.49,255.77,220114,,,A*5D
$GPGGA,081859.000,5359.8828,N,01157.4219,E,1,12,0.76,18.6,M,44.4,M,,*54
$GPRMC,081858.000,A,5359.8902,N,01157.4601,E,84.82,252.28,220114,,,A*57
$GPGGA,081904.000,5359.8402,N,01157.2351,E,1,12,0.76,19.2,M,44.5,M,,*56
$GPRMC,081903.000,A,5359.8495,N,01157.2723,E,85.09,247.56,220114,,,A*53
$GPGGA,081909.000,5359.7920,N,01157.0518,E,1,12,0.75,18.7,M,44.5,M,,*57
$GPRMC,081908.000,A,5359.8019,N,01157.0882,E,84.97,245.46,220114,,,A*5B
$GPGGA,081914.000,5359.7381,N,01156.8703,E,1,12,0.76,17.4,M,44.5,M,,*54
$GPRMC,081913.000,A,5359.7495,N,01156.9062,E,86.45,242.59,220114,,,A*54
$GPGGA,081919.000,5359.6773,N,01156.6949,E,1,12,0.76,16.0,M,44.5,M,,*5A
$GPRMC,081918.000,A,5359.6899,N,01156.7295,E,86.08,239.05,220114,,,A*56
$GPGGA,081924.000,5359.6121,N,01156.5273,E,1,12,0.76,14.6,M,44.5,M,,*50
$GPRMC,081923.000,A,5359.6257,N,01156.5601,E,84.97,235.44,220114,,,A*50
$GPGGA,081929.000,5359.5426,N,01156.3661,E,1,12,0.76,13.1,M,44.5,M,,*5D
$GPRMC,081928.000,A,5359.5565,N,01156.3980,E,84.17,233.78,220114,,,A*5F
$GPGGA,081934.000,5359.4700,N,01156.2097,E,1,12,0.76,11.9,M,44.5,M,,*53
$GPRMC,081933.000,A,5359.4847,N,01156.2406,E,85.26,231.47,220114,,,A*56
$GPGGA,081939.000,5359.3931,N,01156.0550,E,1,12,0.76,11.1,M,44.5,M,,*51
$GPRMC,081938.000,A,5359.4090,N,01156.0858,E,87.33,229.20,220114,,,A*54
$GPGGA,081944.000,5359.3110,N,01155.8973,E,1,11,0.79,10.1,M,44.5,M,,*5B
$GPRMC,081943.000,A,5359.3280,N,01155.9290,E,89.91,227.90,220114,,,A*5B
$GPGGA,081949.000,5359.2227,N,01155.7410,E,1,12,0.76,9.4,M,44.5,M,,*66
$GPRMC,081948.000,A,5359.2407,N,01155.7718,E,91.63,225.76,220114,,,A*5D
$GPGGA,081954.000,5359.1310,N,01155.5924,E,1,12,0.76,10.3,M,44.5,M,,*5B
$GPRMC,081953.000,A,5359.1496,N,01155.6216,E,90.87,223.64,220114,,,A*58
$GPGGA,081959.000,5359.0365,N,01155.4493,E,1,12,0.76,9.9,M,44.5,M,,*67
$GPRMC,081958.000,A,5359.0554,N,01155.4782,E,90.87,222.26,220114,,,A*50
$GPGGA,082004.000,5358.9417,N,01155.3066,E,1,12,0.76,9.1,M,44.5,M,,*6E
$GPRMC,082003.000,A,5358.9607,N,01155.3349,E,91.58,221.29,220114,,,A*52
$GPGGA,082009.000,5358.8484,N,01155.1695,E,1,12,0.76,7.8,M,44.5,M,,*67
$GPRMC,082008.000,A,5358.8670,N,01155.1964,E,88.18,220.76,220114,,,A*58
$GPGGA,082014.000,5358.7559,N,01155.0366,E,1,12,0.76,6.4,M,44.5,M,,*60
$GPRMC,082013.000,A,5358.7741,N,01155.0626,E,86.59,220.26,220114,,,A*58
$GPGGA,082019.000,5358.6690,N,01154.9137,E,1,12,0.76,5.2,M,44.5,M,,*61
$GPRMC,082018.000,A,5358.6859,N,01154.9377,E,80.11,219.83,220114,,,A*52
$GPGGA,082025.000,5358.5713,N,01154.7767,E,1,11,0.84,3.7,M,44.5,M,,*67
$GPRMC,082024.000,A,5358.5875,N,01154.7998,E,75.99,219.85,220114,,,A*59
$GPGGA,082030.000,5358.4892,N,01154.6584,E,1,12,0.76,3.1,M,44.5,M,,*62
$GPRMC,082029.000,A,5358.5055,N,01154.6822,E,78.17,220.62,220114,,,A*57
$GPGGA,082036.000,5358.3958,N,01154.5097,E,1,12,0.76,4.6,M,44.5,M,,*60
$GPRMC,082035.000,A,5358.4109,N,01154.5355,E,76.48,224.98,220114,,,A*5E
$GPGGA,082041.000,5358.3235,N,01154.3742,E,1,11,0.79,6.7,M,44.5,M,,*66
$GPRMC,082040.000,A,5358.3374,N,01154.4020,E,77.66,228.45,220114,,,A*52
$GPGGA,082047.000,5358.2453,N,01154.2043,E,1,11,0.79,9.3,M,44.5,M,,*6B
$GPRMC,082046.000,A,5358.2577,N,01154.2333,E,76.35,233.11,220114,,,A*5B
$GPGGA,082053.000,5358.1733,N,01154.0226,E,1,11,0.79,12.4,M,44.5,M,,*56
$GPRMC,082052.000,A,5358.1849,N,01154.0541,E,78.34,237.50,220114,,,A*52
$GPGGA,082058.000,5358.1200,N,01153.8614,E,1,11,0.79,14.6,M,44.5,M,,*56
$GPRMC,082057.000,A,5358.1300,N,01153.8941,E,78.46,241.80,220114,,,A*5B
$GPGGA,082103.000,5358.0723,N,01153.6963,E,1,11,0.79,16.9,M,44.5,M,,*50
$GPRMC,082102.000,A,5358.0816,N,01153.7296,E,78.05,244.22,220114,,,A*53
$GPGGA,082108.000,5358.0263,N,01153.5269,E,1,11,0.79,19.4,M,44.5,M,,*5A
$GPRMC,082107.000,A,5358.0357,N,01153.5611,E,79.68,244.95,220114,,,A*57
$GPGGA,082113.000,5357.9789,N,01153.3551,E,1,11,0.79,21.6,M,44.6,M,,*57
$GPRMC,082112.000,A,5357.9883,N,01153.3898,E,80.74,244.79,220114,,,A*57
$GPGGA,082118.000,5357.9305,N,01153.1824,E,1,11,0.79,23.6,M,44.6,M,,*53
$GPRMC,082117.000,A,5357.9402,N,01153.2170,E,81.11,244.34,220114,,,A*52
$GPGGA,082123.000,5357.8816,N,01153.0106,E,1,11,0.79,26.0,M,44.6,M,,*58
$GPRMC,082122.000,A,5357.8916,N,01153.0449,E,81.06,243.88,220114,,,A*56
$GPGGA,082128.000,5357.8302,N,01152.8376,E,1,10,0.86,28.4,M,44.6,M,,*5A
$GPRMC,082127.000,A,5357.8407,N,01152.8722,E,82.91,242.96,220114,,,A*5A
$GPGGA,082133.000,5357.7767,N,01152.6651,E,1,11,0.79,31.2,M,44.6,M,,*59
$GPRMC,082132.000,A,5357.7874,N,01152.6990,E,82.15,242.22,220114,,,A*53
$GPGGA,082138.000,5357.7216,N,01152.4954,E,1,11,0.79,33.6,M,44.6,M,,*5F
$GPRMC,082137.000,A,5357.7329,N,01152.5296,E,83.43,240.89,220114,,,A*5A
$GPGGA,082143.000,5357.6624,N,01152.3232,E,1,11,0.79,36.1,M,44.6,M,,*59
$GPRMC,082142.000,A,5357.6745,N,01152.3578,E,85.13,239.45,220114,,,A*5B
$GPGGA,082148.000,5357.5988,N,01152.1517,E,1,11,0.79,38.4,M,44.6,M,,*51
$GPRMC,082147.000,A,5357.6117,N,01152.1857,E,85.71,237.81,220114,,,A*5F
$GPGGA,082153.000,5357.5332,N,01151.9845,E,1,11,0.79,39.9,M,44.6,M,,*5D
$GPRMC,082152.000,A,5357.5465,N,01152.0178,E,85.01,236.27,220114,,,A*57
$GPGGA,082158.000,5357.4653,N,01151.8202,E,1,11,0.79,40.5,M,44.6,M,,*5F
$GPRMC,082157.000,A,5357.4790,N,01151.8526,E,85.18,234.65,220114,,,A*52
$GPGGA,082203.000,5357.3945,N,01151.6592,E,1,11,0.79,41.0,M,44.6,M,,*59
$GPRMC,082202.000,A,5357.4090,N,01151.6914,E,86.14,233.18,220114,,,A*57
$GPGGA,082208.000,5357.3211,N,01151.5001,E,1,11,0.79,41.6,M,44.6,M,,*52
$GPRMC,082207.000,A,5357.3360,N,01151.5317,E,85.82,231.41,220114,,,A*51
$GPGGA,082213.000,5357.2449,N,01151.3417,E,1,11,0.79,43.1,M,44.6,M,,*52
$GPRMC,082212.000,A,5357.2604,N,01151.3733,E,87.23,230.35,220114,,,A*5C
$GPGGA,082218.000,5357.1661,N,01151.1813,E,1,11,0.79,44.2,M,44.6,M,,*5C
$GPRMC,082217.000,A,5357.1820,N,01151.2133,E,89.12,229.95,220114,,,A*5B
$GPGGA,082223.000,5357.0847,N,01151.0257,E,1,11,0.79,46.1,M,44.6,M,,*55
$GPRMC,082222.000,A,5357.1011,N,01151.0564,E,88.16,227.99,220114,,,A*54
$GPGGA,082228.000,5357.0019,N,01150.8735,E,1,11,0.79,47.0,M,44.6,M,,*55
$GPRMC,082227.000,A,5357.0186,N,01150.9041,E,88.25,227.32,220114,,,A*54
$GPGGA,082233.000,5356.9160,N,01150.7196,E,1,10,0.90,45.3,M,44.6,M,,*5F
$GPRMC,082232.000,A,5356.9336,N,01150.7505,E,90.63,226.35,220114,,,A*57
$GPGGA,082238.000,5356.8289,N,01150.5666,E,1,10,0.90,41.5,M,44.6,M,,*59
$GPRMC,082237.000,A,5356.8461,N,01150.5965,E,89.51,226.13,220114,,,A*53
$GPGGA,082243.000,5356.7450,N,01150.4215,E,1,10,0.90,37.7,M,44.6,M,,*5A
$GPRMC,082242.000,A,5356.7616,N,01150.4503,E,85.81,225.71,220114,,,A*57
$GPGGA,082248.000,5356.6627,N,01150.2814,E,1,11,0.79,37.1,M,44.6,M,,*5F
$GPRMC,082247.000,A,5356.6789,N,01150.3089,E,83.04,225.34,220114,,,A*5E
$GPGGA,082253.000,5356.5827,N,01150.1451,E,1,11,0.79,39.4,M,44.6,M,,*5D
$GPRMC,082252.000,A,5356.5989,N,01150.1724,E,82.27,224.94,220114,,,A*5E
$GPGGA,082258.000,5356.5009,N,01150.0087,E,1,11,0.79,42.1,M,44.6,M,,*55
$GPRMC,082257.000,A,5356.5172,N,01150.0359,E,82.63,224.71,220114,,,A*53
$GPGGA,082303.000,5356.4207,N,01149.8727,E,1,11,0.79,43.3,M,44.6,M,,*59
$GPRMC,082302.000,A,5356.4367,N,01149.9002,E,82.29,224.39,220114,,,A*5B
$GPGGA,082308.000,5356.3402,N,01149.7332,E,1,11,0.79,43.6,M,44.6,M,,*5C
$GPRMC,082307.000,A,5356.3565,N,01149.7613,E,83.38,225.38,220114,,,A*54
$GPGGA,082313.000,5356.2573,N,01149.5911,E,1,11,0.79,43.1,M,44.6,M,,*5E
$GPRMC,082312.000,A,5356.2740,N,01149.6196,E,85.33,225.22,220114,,,A*59
$GPGGA,082318.000,5356.1734,N,01149.4471,E,1,10,0.90,40.5,M,44.7,M,,*5D
$GPRMC,082317.000,A,5356.1903,N,01149.4761,E,86.68,225.23,220114,,,A*56
$GPGGA,082323.000,5356.0904,N,01149.3034,E,1,11,0.79,38.4,M,44.7,M,,*53
$GPRMC,082322.000,A,5356.1069,N,01149.3316,E,84.41,225.36,220114,,,A*5B
$GPGGA,082328.000,5356.0104,N,01149.1663,E,1,11,0.79,38.5,M,44.7,M,,*57
$GPRMC,082327.000,A,5356.0261,N,01149.1932,E,80.93,225.38,220114,,,A*5E
$GPGGA,082334.000,5355.9223,N,01149.0147,E,1,11,0.79,40.3,M,44.7,M,,*5F
$GPRMC,082333.000,A,5355.9366,N,01149.0390,E,73.16,225.31,220114,,,A*5C
$GPGGA,082340.000,5355.8392,N,01148.8723,E,1,11,0.79,41.3,M,44.7,M,,*5A
$GPRMC,082339.000,A,5355.8526,N,01148.8951,E,69.57,225.23,220114,,,A*56
$GPGGA,082346.000,5355.7581,N,01148.7335,E,1,11,0.79,39.5,M,44.7,M,,*52
$GPRMC,082345.000,A,5355.7720,N,01148.7575,E,70.68,225.40,220114,,,A*52
$GPGGA,082352.000,5355.6686,N,01148.5796,E,1,11,0.79,36.9,M,44.7,M,,*5E
$GPRMC,082351.000,A,5355.6842,N,01148.6063,E,79.06,225.19,220114,,,A*53
$GPGGA,082357.000,5355.5890,N,01148.4433,E,1,11,0.79,35.5,M,44.7,M,,*53
$GPRMC,082356.000,A,5355.6049,N,01148.4710,E,81.79,225.53,220114,,,A*57
$GPGGA,082402.000,5355.5090,N,01148.3008,E,1,11,0.79,35.4,M,44.7,M,,*56
$GPRMC,082401.000,A,5355.5249,N,01148.3297,E,83.76,226.44,220114,,,A*56
$GPGGA,082407.000,5355.4283,N,01148.1547,E,1,12,0.73,37.4,M,44.7,M,,*55
$GPRMC,082406.000,A,5355.4446,N,01148.1843,E,85.91,226.85,220114,,,A*5A
$GPGGA,082412.000,5355.3479,N,01148.0001,E,1,12,0.73,40.1,M,44.7,M,,*56
$GPRMC,082411.000,A,5355.3637,N,01148.0319,E,88.26,229.03,220114,,,A*5A
$GPGGA,082417.000,5355.2697,N,01147.8395,E,1,12,0.73,42.4,M,44.7,M,,*5E
$GPRMC,082416.000,A,5355.2850,N,01147.8716,E,87.88,230.62,220114,,,A*5B
$GPGGA,082422.000,5355.1938,N,01147.6778,E,1,12,0.73,45.4,M,44.7,M,,*5F
$GPRMC,082421.000,A,5355.2086,N,01147.7100,E,87.62,232.07,220114,,,A*57
$GPGGA,082427.000,5355.1200,N,01147.5133,E,1,12,0.73,48.3,M,44.7,M,,*5A
$GPRMC,082426.000,A,5355.1345,N,01147.5469,E,88.11,233.55,220114,,,A*5A
$GPGGA,082432.000,5355.0511,N,01147.3407,E,1,11,0.75,51.2,M,44.7,M,,*50
$GPRMC,082431.000,A,5355.0646,N,01147.3759,E,88.90,236.57,220114,,,A*53
$GPGGA,082437.000,5354.9858,N,01147.1591,E,1,11,0.79,53.0,M,44.7,M,,*5D
$GPRMC,082436.000,A,5354.9988,N,01147.1961,E,91.10,239.00,220114,,,A*5B
$GPGGA,082442.000,5354.9245,N,01146.9689,E,1,10,0.90,51.8,M,44.7,M,,*56
$GPRMC,082441.000,A,5354.9363,N,01147.0075,E,92.76,241.92,220114,,,A*5E
$GPGGA,082447.000,5354.8682,N,01146.7760,E,1,11,0.79,47.8,M,44.7,M,,*54
$GPRMC,082446.000,A,5354.8786,N,01146.8134,E,90.13,244.29,220114,,,A*5E
$GPGGA,082452.000,5354.8239,N,01146.6034,E,1,11,0.79,43.4,M,44.7,M,,*5B
$GPRMC,082451.000,A,5354.8325,N,01146.6373,E,79.38,246.21,220114,,,A*5E
$GPGGA,082457.000,5354.7819,N,01146.4296,E,1,11,0.79,40.2,M,44.7,M,,*54
$GPRMC,082456.000,A,5354.7900,N,01146.4646,E,80.26,248.40,220114,,,A*5A
$GPGGA,082502.000,5354.7443,N,01146.2559,E,1,12,0.73,40.1,M,44.7,M,,*5E
$GPRMC,082501.000,A,5354.7514,N,01146.2901,E,77.86,250.46,220114,,,A*57
$GPGGA,082508.000,5354.7031,N,01146.0494,E,1,11,0.83,42.5,M,44.7,M,,*5D
$GPRMC,082507.000,A,5354.7099,N,01146.0844,E,78.10,251.43,220114,,,A*57
$GPGGA,082513.000,5354.6688,N,01145.8691,E,1,12,0.73,44.6,M,44.7,M,,*57
$GPRMC,082512.000,A,5354.6757,N,01145.9064,E,82.26,252.45,220114,,,A*52
$GPGGA,082518.000,5354.6341,N,01145.6783,E,1,12,0.73,46.5,M,44.7,M,,*51
$GPRMC,082517.000,A,5354.6411,N,01145.7165,E,85.11,252.82,220114,,,A*50
$GPGGA,082523.000,5354.5998,N,01145.4900,E,1,12,0.73,48.9,M,44.7,M,,*51
$GPRMC,082522.000,A,5354.6066,N,01145.5271,E,83.10,252.78,220114,,,A*54
$GPGGA,082528.000,5354.5661,N,01145.3035,E,1,11,0.79,50.7,M,44.8,M,,*5A
$GPRMC,082527.000,A,5354.5729,N,01145.3411,E,83.67,253.05,220114,,,A*53
$GPGGA,082533.000,5354.5323,N,01145.1181,E,1,12,0.73,52.4,M,44.8,M,,*57
$GPRMC,082532.000,A,5354.5389,N,01145.1538,E,80.89,252.83,220114,,,A*5D
$GPGGA,082538.000,5354.5004,N,01144.9426,E,1,12,0.73,54.5,M,44.8,M,,*5C
$GPRMC,082537.000,A,5354.5069,N,01144.9778,E,78.42,252.78,220114,,,A*5E
$GPGGA,082543.000,5354.4675,N,01144.7636,E,1,9,0.96,56.5,M,44.8,M,,*6F
$GPRMC,082542.000,A,5354.4740,N,01144.7994,E,79.99,252.99,220114,,,A*5B
$GPGGA,082548.000,5354.4346,N,01144.5827,E,1,9,0.96,58.4,M,44.8,M,,*62
$GPRMC,082547.000,A,5354.4411,N,01144.6186,E,80.41,252.74,220114,,,A*53
$GPGGA,082553.000,5354.4019,N,01144.4017,E,1,9,0.96,60.8,M,44.8,M,,*6C
$GPRMC,082552.000,A,5354.4088,N,01144.4384,E,81.34,252.92,220114,,,A*5A
$GPGGA,082558.000,5354.3674,N,01144.2158,E,1,12,0.73,62.6,M,44.8,M,,*5C
$GPRMC,082557.000,A,5354.3745,N,01144.2535,E,84.20,252.55,220114,,,A*5F
$GPGGA,082603.000,5354.3308,N,01144.0277,E,1,12,0.73,63.1,M,44.8,M,,*55
$GPRMC,082602.000,A,5354.3384,N,01144.0653,E,84.05,251.95,220114,,,A*5C
$GPGGA,082608.000,5354.2938,N,01143.8430,E,1,11,0.79,61.9,M,44.8,M,,*5F
$GPRMC,082607.000,A,5354.3010,N,01143.8795,E,81.90,251.28,220114,,,A*5C
$GPGGA,082613.000,5354.2568,N,01143.6666,E,1,10,0.90,58.7,M,44.8,M,,*51
$GPRMC,082612.000,A,5354.2643,N,01143.7011,E,78.27,250.02,220114,,,A*5E
$GPGGA,082618.000,5354.2180,N,01143.4940,E,1,9,0.96,53.7,M,44.8,M,,*64
$GPRMC,082617.000,A,5354.2260,N,01143.5292,E,79.89,248.80,220114,,,A*53
$GPGGA,082623.000,5354.1749,N,01143.3152,E,1,10,0.90,46.8,M,44.8,M,,*55
$GPRMC,082622.000,A,5354.1837,N,01143.3510,E,82.87,247.00,220114,,,A*58
$GPGGA,082628.000,5354.1288,N,01143.1389,E,1,10,0.90,40.9,M,44.8,M,,*57
$GPRMC,082627.000,A,5354.1385,N,01143.1736,E,81.72,244.96,220114,,,A*5E
$GPGGA,082633.000,5354.0789,N,01142.9624,E,1,12,0.73,37.0,M,44.8,M,,*55
$GPRMC,082632.000,A,5354.0893,N,01142.9978,E,83.55,243.63,220114,,,A*50
$GPGGA,082638.000,5354.0235,N,01142.7842,E,1,12,0.73,34.0,M,44.8,M,,*5F
$GPRMC,082637.000,A,5354.0349,N,01142.8198,E,85.95,241.93,220114,,,A*59
$GPGGA,082643.000,5353.9642,N,01142.6070,E,1,12,0.73,31.1,M,44.8,M,,*55
$GPRMC,082642.000,A,5353.9764,N,01142.6424,E,87.05,240.10,220114,,,A*53
$GPGGA,082648.000,5353.9013,N,01142.4324,E,1,11,0.80,28.2,M,44.8,M,,*58
$GPRMC,082647.000,A,5353.9141,N,01142.4669,E,87.02,238.33,220114,,,A*57
$GPGGA,082653.000,5353.8357,N,01142.2624,E,1,10,0.79,25.0,M,44.8,M,,*5B
$GPRMC,082652.000,A,5353.8490,N,01142.2963,E,86.04,237.13,220114,,,A*52
$GPGGA,082658.000,5353.7680,N,01142.0923,E,1,11,0.73,22.5,M,44.8,M,,*53
$GPRMC,082657.000,A,5353.7815,N,01142.1261,E,86.30,236.57,220114,,,A*55
$GPGGA,082703.000,5353.7009,N,01141.9276,E,1,12,0.73,21.1,M,44.8,M,,*5E
$GPRMC,082702.000,A,5353.7142,N,01141.9601,E,84.19,235.34,220114,,,A*59
$GPGGA,082708.000,5353.6326,N,01141.7613,E,1,12,0.73,21.6,M,44.8,M,,*54
$GPRMC,082707.000,A,5353.6465,N,01141.7949,E,87.20,234.92,220114,,,A*54
$GPGGA,082713.000,5353.5630,N,01141.5968,E,1,12,0.73,23.2,M,44.8,M,,*58
$GPRMC,082712.000,A,5353.5767,N,01141.6289,E,85.23,233.94,220114,,,A*54
$GPGGA,082718.000,5353.4977,N,01141.4447,E,1,12,0.73,24.9,M,44.8,M,,*53
$GPRMC,082717.000,A,5353.5104,N,01141.4740,E,78.27,233.88,220114,,,A*5B
$GPGGA,082724.000,5353.4231,N,01141.2744,E,1,12,0.73,25.8,M,44.8,M,,*53
$GPRMC,082723.000,A,5353.4359,N,01141.3031,E,76.49,233.15,220114,,,A*53
$GPGGA,082729.000,5353.3582,N,01141.1286,E,1,12,0.73,25.6,M,44.8,M,,*50
$GPRMC,082728.000,A,5353.3715,N,01141.1580,E,78.20,232.74,220114,,,A*59
$GPGGA,082734.000,5353.2921,N,01140.9838,E,1,12,0.73,25.0,M,44.8,M,,*58
$GPRMC,082733.000,A,5353.3052,N,01141.0123,E,77.33,232.16,220114,,,A*52
$GPGGA,082740.000,5353.2138,N,01140.8218,E,1,12,0.73,23.9,M,44.8,M,,*5D
$GPRMC,082739.000,A,5353.2261,N,01140.8469,E,70.67,230.12,220114,,,A*59
$GPGGA,082746.000,5353.1437,N,01140.6793,E,1,12,0.73,23.0,M,44.8,M,,*53
$GPRMC,082745.000,A,5353.1552,N,01140.7024,E,64.92,229.89,220114,,,A*51
$GPGGA,082752.000,5353.0693,N,01140.5325,E,1,11,0.79,22.5,M,44.9,M,,*5D
$GPRMC,082751.000,A,5353.0824,N,01140.5583,E,71.35,229.13,220114,,,A*59
$GPGGA,082758.000,5352.9868,N,01140.3731,E,1,11,0.79,20.8,M,44.9,M,,*5D
$GPRMC,082757.000,A,5353.0005,N,01140.3997,E,75.80,228.76,220114,,,A*53
$GPGGA,082804.000,5352.9094,N,01140.2177,E,1,10,0.91,18.6,M,44.9,M,,*57
$GPRMC,082803.000,A,5352.9219,N,01140.2430,E,70.75,230.00,220114,,,A*5C
$GPGGA,082810.000,5352.8368,N,01140.0716,E,1,12,0.73,16.7,M,44.9,M,,*51
$GPRMC,082809.000,A,5352.8486,N,01140.0956,E,66.34,230.30,220114,,,A*59
$GPGGA,082816.000,5352.7661,N,01139.9232,E,1,12,0.73,15.1,M,44.9,M,,*55
$GPRMC,082815.000,A,5352.7779,N,01139.9486,E,68.99,231.65,220114,,,A*57
$GPGGA,082822.000,5352.6984,N,01139.7716,E,1,12,0.73,14.2,M,44.9,M,,*58
$GPRMC,082821.000,A,5352.7094,N,01139.7968,E,67.07,233.62,220114,,,A*5A
$GPGGA,082828.000,5352.6333,N,01139.6162,E,1,10,0.91,14.7,M,44.9,M,,*5B
$GPRMC,082827.000,A,5352.6440,N,01139.6426,E,68.58,235.17,220114,,,A*57
$GPGGA,082834.000,5352.5703,N,01139.4551,E,1,9,0.92,16.6,M,44.9,M,,*6C
$GPRMC,082833.000,A,5352.5804,N,01139.4817,E,68.01,237.13,220114,,,A*5B
$GPGGA,082840.000,5352.5129,N,01139.2993,E,1,12,0.73,18.6,M,44.9,M,,*5E
$GPRMC,082839.000,A,5352.5222,N,01139.3251,E,64.67,238.63,220114,,,A*54
$GPGGA,082847.000,5352.4524,N,01139.1201,E,1,12,0.73,20.4,M,44.9,M,,*5B
$GPRMC,082846.000,A,5352.4611,N,01139.1467,E,64.26,240.47,220114,,,A*54
$GPGGA,082854.000,5352.3967,N,01138.9356,E,1,12,0.73,22.8,M,44.9,M,,*51
$GPRMC,082853.000,A,5352.4040,N,01138.9611,E,60.77,243.65,220114,,,A*5B
$GPGGA,082903.000,5352.3521,N,01138.7507,E,1,10,0.91,25.3,M,44.9,M,,*52
$GPRMC,082902.000,A,5352.3560,N,01138.7678,E,40.60,248.33,220114,,,A*53
$GPGGA,082917.000,5352.3392,N,01138.5659,E,1,12,0.73,29.1,M,44.9,M,,*53
$GPRMC,082916.000,A,5352.3376,N,01138.5764,E,24.00,284.17,220114,,,A*5B
$DeviceName=pironex_auto
$Software=0.1.3
$Hardware=1
$LastValidPosition=
$IMEI=359193030849087
$LocalIP=10.47.45.22
$CmdVersion=2
$SUCCESS
$<end>
$GPGGA,083354.000,5352.2781,N,01138.3346,E,1,12,0.73,31.6,M,44.9,M,,*5B
$GPRMC,083353.000,A,5352.2809,N,01138.3467,E,25.95,243.53,220114,,,A*53
$GPGGA,083403.000,5352.2571,N,01138.1546,E,1,12,0.73,33.6,M,44.9,M,,*55
$GPRMC,083402.000,A,5352.2594,N,01138.1792,E,51.78,259.97,220114,,,A*51
$GPGGA,083410.000,5352.2440,N,01137.9620,E,1,12,0.73,34.3,M,44.9,M,,*52
$GPRMC,083409.000,A,5352.2454,N,01137.9914,E,61.19,265.14,220114,,,A*50
$GPGGA,083416.000,5352.2395,N,01137.7724,E,1,12,0.73,34.8,M,44.9,M,,*5B
$GPRMC,083415.000,A,5352.2396,N,01137.8052,E,68.91,269.09,220114,,,A*57
$GPGGA,083422.000,5352.2438,N,01137.5721,E,1,12,0.73,36.4,M,44.9,M,,*55
$GPRMC,083421.000,A,5352.2425,N,01137.6060,E,71.65,272.87,220114,,,A*5F
$GPGGA,083428.000,5352.2578,N,01137.3680,E,1,12,0.73,38.8,M,44.9,M,,*54
$GPRMC,083427.000,A,5352.2549,N,01137.4015,E,72.70,277.65,220114,,,A*5C
$GPGGA,083434.000,5352.2797,N,01137.1702,E,1,12,0.73,41.9,M,44.9,M,,*5C
$GPRMC,083433.000,A,5352.2755,N,01137.2028,E,70.92,281.56,220114,,,A*59
$GPGGA,083440.000,5352.3091,N,01136.9782,E,1,11,0.79,45.5,M,44.9,M,,*5F
$GPRMC,083439.000,A,5352.3037,N,01137.0093,E,69.37,285.93,220114,,,A*59
$GPGGA,083446.000,5352.3466,N,01136.7924,E,1,9,0.98,49.8,M,44.9,M,,*6E
$GPRMC,083445.000,A,5352.3398,N,01136.8232,E,69.90,290.10,220114,,,A*56
$GPGGA,083452.000,5352.3914,N,01136.6122,E,1,8,1.20,54.1,M,44.9,M,,*6A
$GPRMC,083451.000,A,5352.3834,N,01136.6414,E,68.86,294.01,220114,,,A*50
$GPGGA,083458.000,5352.4417,N,01136.4403,E,1,10,0.84,58.2,M,44.9,M,,*54
$GPRMC,083457.000,A,5352.4330,N,01136.4688,E,67.96,296.67,220114,,,A*57
$GPGGA,083504.000,5352.4972,N,01136.2663,E,1,12,0.73,61.8,M,44.9,M,,*5A
$GPRMC,083503.000,A,5352.4879,N,01136.2953,E,71.12,298.27,220114,,,A*5F
$GPGGA,083510.000,5352.5534,N,01136.0926,E,1,10,0.84,63.8,M,44.9,M,,*54
$GPRMC,083509.000,A,5352.5441,N,01136.1215,E,70.61,298.34,220114,,,A*5E
$GPGGA,083516.000,5352.6092,N,01135.9163,E,1,11,0.79,64.9,M,44.9,M,,*5E
$GPRMC,083515.000,A,5352.6002,N,01135.9456,E,71.23,297.75,220114,,,A*54
$GPGGA,083522.000,5352.6604,N,01135.7433,E,1,11,0.78,64.8,M,44.9,M,,*5E
$GPRMC,083521.000,A,5352.6521,N,01135.7726,E,67.60,295.59,220114,,,A*51
$GPGGA,083528.000,5352.7072,N,01135.5567,E,1,12,0.73,64.5,M,44.9,M,,*55
$GPRMC,083527.000,A,5352.6992,N,01135.5890,E,73.03,293.07,220114,,,A*5E
$GPGGA,083534.000,5352.7530,N,01135.3525,E,1,12,0.73,62.7,M,44.9,M,,*5F
$GPRMC,083533.000,A,5352.7456,N,01135.3873,E,78.16,290.09,220114,,,A*56
$GPGGA,083539.000,5352.7875,N,01135.1747,E,1,12,0.73,61.4,M,44.9,M,,*5A
$GPRMC,083538.000,A,5352.7810,N,01135.2110,E,80.11,287.59,220114,,,A*5D
$GPGGA,083544.000,5352.8172,N,01134.9909,E,1,11,0.75,59.5,M,44.9,M,,*53
$GPRMC,083543.000,A,5352.8117,N,01135.0274,E,80.32,284.82,220114,,,A*57
$GPGGA,083549.000,5352.8419,N,01134.8081,E,1,11,0.73,58.1,M,44.9,M,,*5D
$GPRMC,083548.000,A,5352.8371,N,01134.8451,E,80.16,282.22,220114,,,A*5C
$GPGGA,083554.000,5352.8628,N,01134.6209,E,1,10,0.79,55.8,M,44.9,M,,*52
$GPRMC,083553.000,A,5352.8592,N,01134.6584,E,81.44,279.70,220114,,,A*5F
$GPGGA,083559.000,5352.8773,N,01134.4324,E,1,10,0.80,55.0,M,44.9,M,,*52
$GPRMC,083558.000,A,5352.8750,N,01134.4705,E,81.32,276.87,220114,,,A*57
$GPGGA,083604.000,5352.8863,N,01134.2412,E,1,11,0.73,51.8,M,44.9,M,,*52
$GPRMC,083603.000,A,5352.8849,N,01134.2798,E,82.10,274.21,220114,,,A*52
$GPGGA,083609.000,5352.8909,N,01134.0434,E,1,12,0.73,48.4,M,44.9,M,,*53
$GPRMC,083608.000,A,5352.8904,N,01134.0833,E,84.86,272.12,220114,,,A*52
$GPGGA,083614.000,5352.8910,N,01133.8440,E,1,12,0.73,46.1,M,45.0,M,,*58
$GPRMC,083613.000,A,5352.8913,N,01133.8834,E,83.82,269.66,220114,,,A*5C
$GPGGA,083619.000,5352.8868,N,01133.6486,E,1,11,0.79,43.4,M,45.0,M,,*56
$GPRMC,083618.000,A,5352.8881,N,01133.6876,E,83.01,267.82,220114,,,A*5A
$GPGGA,083624.000,5352.8785,N,01133.4522,E,1,12,0.73,41.0,M,45.0,M,,*56
$GPRMC,083623.000,A,5352.8804,N,01133.4918,E,84.26,266.09,220114,,,A*54
$GPGGA,083629.000,5352.8670,N,01133.2519,E,1,12,0.73,39.9,M,45.0,M,,*58
$GPRMC,083628.000,A,5352.8694,N,01133.2926,E,86.29,263.91,220114,,,A*5A
$GPGGA,083634.000,5352.8520,N,01133.0498,E,1,12,0.73,36.6,M,45.0,M,,*58
$GPRMC,083633.000,A,5352.8555,N,01133.0899,E,86.44,262.00,220114,,,A*5B
$GPGGA,083639.000,5352.8337,N,01132.8513,E,1,12,0.73,33.1,M,45.0,M,,*5C
$GPRMC,083638.000,A,5352.8375,N,01132.8906,E,85.45,260.69,220114,,,A*55
$GPGGA,083644.000,5352.8122,N,01132.6563,E,1,12,0.73,29.6,M,45.0,M,,*55
$GPRMC,083643.000,A,5352.8168,N,01132.6950,E,84.25,258.55,220114,,,A*59
$GPGGA,083649.000,5352.7837,N,01132.4651,E,1,12,0.73,26.8,M,45.0,M,,*5B
$GPRMC,083648.000,A,5352.7901,N,01132.5029,E,83.26,254.95,220114,,,A*5A
$GPGGA,083654.000,5352.7472,N,01132.2807,E,1,12,0.73,22.7,M,45.0,M,,*5A
$GPRMC,083653.000,A,5352.7551,N,01132.3164,E,81.59,250.60,220114,,,A*53
$GPGGA,083659.000,5352.7047,N,01132.1125,E,1,10,0.79,18.0,M,45.0,M,,*59
$GPRMC,083658.000,A,5352.7136,N,01132.1451,E,77.26,245.77,220114,,,A*5F
$GPGGA,083705.000,5352.6511,N,01131.9437,E,1,11,0.78,12.4,M,45.0,M,,*55
$GPRMC,083704.000,A,5352.6598,N,01131.9693,E,63.92,240.85,220114,,,A*53
$GPGGA,083712.000,5352.5867,N,01131.7750,E,1,11,0.83,6.6,M,45.0,M,,*63
$GPRMC,083711.000,A,5352.5969,N,01131.7994,E,62.74,235.58,220114,,,A*5B
$GPGGA,083718.000,5352.5178,N,01131.6219,E,1,12,0.73,1.9,M,45.0,M,,*63
$GPRMC,083717.000,A,5352.5303,N,01131.6484,E,70.67,231.48,220114,,,A*52
$GPGGA,083724.000,5352.4326,N,01131.4575,E,1,12,0.73,-2.3,M,45.0,M,,*4F
$GPRMC,083723.000,A,5352.4475,N,01131.4852,E,78.99,228.58,220114,,,A*57
$GPGGA,083729.000,5352.3555,N,01131.3192,E,1,12,0.73,-4.1,M,45.0,M,,*49
$GPRMC,083728.000,A,5352.3712,N,01131.3468,E,80.88,226.47,220114,,,A*5C
$GPGGA,083734.000,5352.2768,N,01131.1867,E,1,12,0.73,-3.8,M,45.0,M,,*47
$GPRMC,083733.000,A,5352.2925,N,01131.2127,E,79.38,224.63,220114,,,A*5B
$GPGGA,083739.000,5352.1977,N,01131.0533,E,1,12,0.73,-1.7,M,45.0,M,,*49
$GPRMC,083738.000,A,5352.2135,N,01131.0802,E,80.75,225.23,220114,,,A*5F
$GPGGA,083744.000,5352.1178,N,01130.9159,E,1,12,0.73,0.6,M,45.0,M,,*69
$GPRMC,083743.000,A,5352.1340,N,01130.9439,E,82.48,225.44,220114,,,A*51
$GPGGA,083749.000,5352.0357,N,01130.7747,E,1,12,0.73,2.8,M,45.0,M,,*61
$GPRMC,083748.000,A,5352.0521,N,01130.8031,E,84.78,225.45,220114,,,A*53
$GPGGA,083754.000,5351.9556,N,01130.6320,E,1,10,0.86,3.5,M,45.0,M,,*60
$GPRMC,083753.000,A,5351.9713,N,01130.6608,E,83.72,227.11,220114,,,A*5C
$GPGGA,083759.000,5351.8776,N,01130.4858,E,1,12,0.73,3.4,M,45.0,M,,*63
$GPRMC,083758.000,A,5351.8931,N,01130.5154,E,84.75,228.44,220114,,,A*5A
$GPGGA,083804.000,5351.8008,N,01130.3344,E,1,11,0.83,2.2,M,45.0,M,,*60
$GPRMC,083803.000,A,5351.8163,N,01130.3654,E,86.50,229.46,220114,,,A*53
$GPGGA,083809.000,5351.7277,N,01130.1751,E,1,11,0.78,0.1,M,45.0,M,,*6F
$GPRMC,083808.000,A,5351.7418,N,01130.2069,E,84.92,232.99,220114,,,A*53
$GPGGA,083814.000,5351.6597,N,01130.0132,E,1,12,0.73,-2.3,M,45.0,M,,*4C
$GPRMC,083813.000,A,5351.6731,N,01130.0460,E,84.67,234.81,220114,,,A*5A
$GPGGA,083819.000,5351.5942,N,01129.8444,E,1,12,0.73,-4.1,M,45.0,M,,*46
$GPRMC,083818.000,A,5351.6071,N,01129.8785,E,86.23,236.72,220114,,,A*56
$GPGGA,083824.000,5351.5348,N,01129.6705,E,1,12,0.73,-4.6,M,45.0,M,,*47
$GPRMC,083823.000,A,5351.5457,N,01129.7061,E,85.72,241.57,220114,,,A*5F
$GPGGA,083829.000,5351.4850,N,01129.4936,E,1,10,0.79,-4.1,M,45.0,M,,*4A
$GPRMC,083828.000,A,5351.4942,N,01129.5289,E,82.59,245.46,220114,,,A*50
$GPGGA,083834.000,5351.4434,N,01129.3130,E,1,12,0.73,-3.3,M,45.0,M,,*4C
$GPRMC,083833.000,A,5351.4512,N,01129.3497,E,82.78,249.50,220114,,,A*54
$GPGGA,083839.000,5351.4095,N,01129.1264,E,1,12,0.73,-2.9,M,45.0,M,,*45
$GPRMC,083838.000,A,5351.4158,N,01129.1643,E,82.85,253.98,220114,,,A*51
$GPGGA,083844.000,5351.3847,N,01128.9339,E,1,12,0.73,-1.7,M,45.0,M,,*42
$GPRMC,083843.000,A,5351.3890,N,01128.9731,E,85.35,258.63,220114,,,A*59
$GPGGA,083849.000,5351.3681,N,01128.7396,E,1,12,0.73,-0.9,M,45.1,M,,*4E
$GPRMC,083848.000,A,5351.3707,N,01128.7777,E,82.17,263.34,220114,,,A*52
$GPGGA,083854.000,5351.3613,N,01128.5562,E,1,12,0.73,-1.4,M,45.1,M,,*4A
$GPRMC,083853.000,A,5351.3619,N,01128.5924,E,77.06,267.36,220114,,,A*50
$GPGGA,083900.000,5351.3640,N,01128.3400,E,1,12,0.73,-2.1,M,45.1,M,,*49
$GPRMC,083859.000,A,5351.3629,N,01128.3759,E,76.53,272.11,220114,,,A*5B
$GPGGA,083905.000,5351.3746,N,01128.1581,E,1,12,0.73,-3.3,M,45.1,M,,*42
$GPRMC,083904.000,A,5351.3719,N,01128.1953,E,79.44,276.49,220114,,,A*56
$GPGGA,083910.000,5351.3943,N,01127.9719,E,1,12,0.73,-3.7,M,45.1,M,,*4D
$GPRMC,083909.000,A,5351.3897,N,01128.0091,E,80.27,280.87,220114,,,A*5C
$GPGGA,083915.000,5351.4224,N,01127.7832,E,1,10,0.84,-2.0,M,45.1,M,,*41
$GPRMC,083914.000,A,5351.4162,N,01127.8209,E,83.97,284.83,220114,,,A*58
$GPGGA,083920.000,5351.4584,N,01127.6012,E,1,10,0.84,2.5,M,45.1,M,,*69
$GPRMC,083919.000,A,5351.4507,N,01127.6371,E,81.16,289.39,220114,,,A*55
$GPGGA,083925.000,5351.5026,N,01127.4269,E,1,11,0.79,6.6,M,45.1,M,,*68
$GPRMC,083924.000,A,5351.4932,N,01127.4610,E,80.83,293.64,220114,,,A*5F
$GPGGA,083931.000,5351.5579,N,01127.2319,E,1,11,0.79,9.3,M,45.1,M,,*68
$GPRMC,083930.000,A,5351.5489,N,01127.2631,E,75.24,295.17,220114,,,A*56
$GPGGA,083937.000,5351.6102,N,01127.0463,E,1,12,0.73,8.7,M,45.1,M,,*61
$GPRMC,083936.000,A,5351.6016,N,01127.0771,E,73.36,294.79,220114,,,A*5A
$GPGGA,083943.000,5351.6585,N,01126.8648,E,1,11,0.79,7.5,M,45.1,M,,*6F
$GPRMC,083942.000,A,5351.6508,N,01126.8944,E,68.91,294.08,220114,,,A*53
$GPGGA,083950.000,5351.7058,N,01126.6745,E,1,11,0.79,7.4,M,45.1,M,,*6A
$GPRMC,083949.000,A,5351.6998,N,01126.6998,E,59.02,292.08,220114,,,A*5C
$GPGGA,083958.000,5351.7453,N,01126.4966,E,1,11,0.79,8.5,M,45.1,M,,*6E
$GPRMC,083957.000,A,5351.7409,N,01126.5163,E,45.51,291.33,220114,,,A*58
$GPGGA,084008.000,5351.7822,N,01126.3192,E,1,11,0.79,11.8,M,45.1,M,,*5E
$GPRMC,084007.000,A,5351.7791,N,01126.3302,E,29.34,291.98,220114,,,A*5A
ping
$GPGGA,084050.000,5351.8121,N,01126.4962,E,1,12,0.73,15.9,M,45.1,M,,*5A
$GPRMC,084049.000,A,5351.8097,N,01126.4908,E,12.09,63.22,220114,,,A*61
$GPGGA,084103.000,5351.9032,N,01126.6205,E,1,11,0.79,11.5,M,45.1,M,,*56
$GPRMC,084102.000,A,5351.8943,N,01126.6110,E,36.79,32.85,220114,,,A*64
$GPGGA,084114.000,5352.0041,N,01126.7161,E,1,10,0.84,4.3,M,45.1,M,,*6F
$GPRMC,084113.000,A,5351.9948,N,01126.7072,E,38.45,28.59,220114,,,A*61
$GPGGA,084125.000,5352.1038,N,01126.8072,E,1,10,0.84,0.5,M,45.1,M,,*6C
$GPRMC,084124.000,A,5352.0956,N,01126.7994,E,33.87,28.88,220114,,,A*68
$GPGGA,084138.000,5352.1997,N,01126.8902,E,1,11,0.79,0.3,M,45.1,M,,*67
$GPRMC,084137.000,A,5352.1921,N,01126.8894,E,28.30,6.15,220114,,,A*5B
$GPGGA,084203.000,5352.3070,N,01126.9524,E,1,10,0.84,-2.2,M,45.1,M,,*4A
$GPRMC,084202.000,A,5352.2984,N,01126.9537,E,30.53,353.99,220114,,,A*5C
$GPGGA,084229.000,5352.4188,N,01126.9588,E,1,10,0.84,0.9,M,45.1,M,,*61
$GPRMC,084228.000,A,5352.4135,N,01126.9570,E,20.24,11.56,220114,,,A*64
$GPGGA,084246.000,5352.5245,N,01127.0110,E,1,10,0.84,2.7,M,45.1,M,,*6A
$GPRMC,084245.000,A,5352.5183,N,01127.0077,E,23.54,16.76,220114,,,A*68
$GPGGA,084303.000,5352.6280,N,01127.0790,E,1,10,0.84,-0.4,M,45.0,M,,*43
$GPRMC,084302.000,A,5352.6223,N,01127.0744,E,23.01,25.73,220114,,,A*62
$GPGGA,084321.000,5352.6926,N,01127.2299,E,1,10,0.84,1.3,M,45.0,M,,*61
$GPRMC,084320.000,A,5352.6910,N,01127.2234,E,16.32,67.24,220114,,,A*6B
$GPGGA,084349.000,5352.7368,N,01127.4017,E,1,10,0.84,6.9,M,45.0,M,,*61
$GPRMC,084348.000,A,5352.7342,N,01127.3939,E,18.26,60.91,220114,,,A*6C
$GPGGA,084410.000,5352.8159,N,01127.5386,E,1,10,0.83,2.9,M,45.0,M,,*6C
$GPRMC,084409.000,A,5352.8101,N,01127.5321,E,24.15,33.49,220114,,,A*6D
$GPGGA,084426.000,5352.9056,N,01127.6424,E,1,10,0.84,-6.2,M,45.0,M,,*4F
$GPRMC,084425.000,A,5352.9016,N,01127.6381,E,20.72,33.14,220114,,,A*61
ping
ping
$GPGGA,084537.000,5353.0024,N,01127.7435,E,1,10,0.84,-8.7,M,45.0,M,,*49
$GPRMC,084536.000,A,5352.9960,N,01127.7363,E,28.01,33.04,220114,,,A*6A
$GPGGA,084554.000,5353.1105,N,01127.7561,E,1,10,0.84,-9.9,M,45.0,M,,*40
$GPRMC,084553.000,A,5353.1034,N,01127.7589,E,25.91,345.37,220114,,,A*5C
$GPGGA,084608.000,5353.2229,N,01127.7346,E,1,10,0.83,-7.4,M,45.0,M,,*43
$GPRMC,084607.000,A,5353.2158,N,01127.7361,E,26.87,352.58,220114,,,A*5D
ping
$GPGGA,084644.000,5353.3167,N,01127.6428,E,1,8,1.17,-8.1,M,45.0,M,,*72
$GPRMC,084643.000,A,5353.3146,N,01127.6490,E,14.63,304.40,220114,,,A*5A
$GPGGA,084708.000,5353.3862,N,01127.5019,E,1,10,0.83,-6.7,M,45.0,M,,*4F
$GPRMC,084707.000,A,5353.3821,N,01127.5068,E,18.49,324.89,220114,,,A*50
$GPGGA,084732.000,5353.4716,N,01127.3895,E,1,10,0.83,-4.2,M,45.0,M,,*40
$GPRMC,084731.000,A,5353.4670,N,01127.3957,E,20.68,321.39,220114,,,A*5D
ping
$GPGGA,084819.000,5353.5463,N,01127.2572,E,1,9,1.03,-6.6,M,45.0,M,,*74
$GPRMC,084818.000,A,5353.5444,N,01127.2704,E,28.29,284.06,220114,,,A*5B
ping
$GPGGA,084851.000,5353.6482,N,01127.1860,E,1,10,0.83,-9.7,M,45.0,M,,*46
$GPRMC,084850.000,A,5353.6446,N,01127.1896,E,14.50,329.11,220114,,,A*50
ping
$GPGGA,084926.000,5353.7406,N,01127.2905,E,1,10,0.83,-11.7,M,45.0,M,,*72
$GPRMC,084925.000,A,5353.7340,N,01127.2940,E,24.04,342.60,220114,,,A*53
ping
$GPGGA,084958.000,5353.8438,N,01127.3436,E,1,10,0.83,-14.0,M,45.0,M,,*77
$GPRMC,084957.000,A,5353.8397,N,01127.3483,E,17.46,326.00,220114,,,A*52
ping
$GPGGA,085036.000,5353.9442,N,01127.2671,E,1,10,0.83,-12.9,M,45.0,M,,*74
$GPRMC,085035.000,A,5353.9427,N,01127.2721,E,11.41,299.59,220114,,,A*51
$DeviceName=pironex_auto
$Software=0.1.3
$Hardware=1
$LastValidPosition=
$IMEI=359193030849087
$LocalIP=10.33.64.248
$CmdVersion=2
$SUCCESS
$<end>
$GPGGA,120623.000,5353.8567,N,01127.3263,E,1,9,0.91,2.2,M,45.0,M,,*55
$GPRMC,120622.000,V,,,,,20.88,146.51,220114,,,N*79
ping
$DeviceName=pironex_auto
$Software=0.1.3
$Hardware=1
$LastValidPosition=
$IMEI=359193030849087
$LocalIP=10.37.172.178
$CmdVersion=2
$SUCCESS
$<end>
ping
ping
$GPGGA,121346.000,5353.7063,N,01127.4578,E,1,10,0.81,8.7,M,45.0,M,,*60
$GPRMC,121345.000,A,5353.7060,N,01127.4489,E,19.34,82.21,220114,,,A*69
ping
$GPGGA,121426.000,5353.7325,N,01127.6371,E,1,8,1.19,9.6,M,45.0,M,,*54
$GPRMC,121425.000,A,5353.7277,N,01127.6338,E,18.30,22.73,220114,,,A*6B
$GPGGA,121446.000,5353.8118,N,01127.7632,E,1,8,1.19,8.0,M,45.0,M,,*55
$GPRMC,121445.000,A,5353.8118,N,01127.7576,E,13.22,87.56,220114,,,A*65
ping
$GPGGA,121524.000,5353.8148,N,01127.9479,E,1,9,0.98,7.3,M,45.0,M,,*53
$GPRMC,121523.000,A,5353.8148,N,01127.9375,E,22.48,89.24,220114,,,A*6F
ping
ping
$<MSG.Info.ServerLogin>
$DeviceName=pironex_auto
$Software=0.1.3
$Hardware=1
$LastValidPosition=
$IMEI=359193030849087
$LocalIP=10.148.32.65
$CmdVersion=2
$SUCCESS
$<end>
$<MSG.Info.ServerLogin>
$DeviceName=pironex_auto
$Software=0.1.3
$Hardware=1
$LastValidPosition=
$IMEI=359193030849087
$LocalIP=10.45.22.33
$CmdVersion=2
$SUCCESS
$<end>
ping
ping
ping
ping
ping
ping
ping
ping
ping
ping
ping
ping
ping
$DeviceName=pironex_auto
$Software=0.1.3
$Hardware=1
$LastValidPosition=
$IMEI=359193030849087
$LocalIP=10.38.90.159
$CmdVersion=2
$SUCCESS
$<end>
$GPGGA,151348.000,5351.6426,N,01111.6191,E,1,8,1.34,49.8,M,45.3,M,,*64
$GPRMC,151347.000,V,,,,,0.41,258.64,220114,,,N*44
ping
ping
$GPGGA,151455.000,5351.5588,N,01111.4999,E,1,10,1.05,36.7,M,45.3,M,,*57
$GPRMC,151454.000,A,5351.5641,N,01111.4963,E,21.20,158.18,220114,,,A*52
ping
ping
$DeviceName=pironex_auto
$Software=0.1.3
$Hardware=1
$LastValidPosition=
$IMEI=359193030849087
$LocalIP=10.42.51.114
$CmdVersion=2
$SUCCESS
$<end>
$GPGGA,152212.000,5351.5175,N,01111.5306,E,1,6,1.58,40.8,M,45.3,M,,*6B
$GPRMC,152210.591,V,,,,,0.25,0.00,220114,,,N*46
$GPGGA,152236.000,5351.6189,N,01111.4623,E,1,9,1.19,43.3,M,45.3,M,,*6C
$GPRMC,152235.000,A,5351.6139,N,01111.4657,E,19.19,339.53,220114,,,A*58
$GPGGA,152256.000,5351.7236,N,01111.4191,E,1,10,1.05,45.6,M,45.3,M,,*54
$GPRMC,152255.000,A,5351.7186,N,01111.4205,E,17.57,348.58,220114,,,A*51
$GPGGA,152315.000,5351.8312,N,01111.4085,E,1,9,1.19,41.3,M,45.3,M,,*6A
$GPRMC,152314.000,A,5351.8256,N,01111.4109,E,20.54,350.00,220114,,,A*58
$GPGGA,152334.000,5351.9391,N,01111.4174,E,1,9,1.19,40.9,M,45.3,M,,*67
$GPRMC,152333.000,A,5351.9323,N,01111.4137,E,25.47,18.00,220114,,,A*6A
ping
$GPGGA,152412.000,5352.0176,N,01111.5481,E,1,8,1.45,33.6,M,45.3,M,,*68
$GPRMC,152411.000,A,5352.0191,N,01111.5359,E,25.74,102.85,220114,,,A*50
$GPGGA,152425.000,5351.9857,N,01111.7341,E,1,8,1.45,31.3,M,45.2,M,,*63
$GPRMC,152424.000,A,5351.9864,N,01111.7171,E,35.90,95.68,220114,,,A*62
$GPGGA,152435.000,5351.9861,N,01111.9185,E,1,7,1.53,32.4,M,45.2,M,,*6F
$GPRMC,152434.000,A,5351.9860,N,01111.9001,E,38.87,89.81,220114,,,A*6E
$GPGGA,152445.000,5351.9876,N,01112.1066,E,1,8,1.45,36.5,M,45.2,M,,*64
$GPRMC,152444.000,A,5351.9875,N,01112.0868,E,41.69,89.48,220114,,,A*6B
$GPGGA,152456.000,5351.9849,N,01112.2981,E,1,9,1.45,40.1,M,45.2,M,,*6D
$GPRMC,152455.000,A,5351.9860,N,01112.2836,E,32.17,96.22,220114,,,A*69
ping
$GPGGA,152533.000,5351.9027,N,01112.4258,E,1,11,1.05,34.9,M,45.2,M,,*50
$GPRMC,152532.000,A,5351.9095,N,01112.4243,E,23.93,172.14,220114,,,A*57
$GPGGA,152546.000,5351.7919,N,01112.4526,E,1,11,0.84,28.2,M,45.2,M,,*58
$GPRMC,152545.000,A,5351.8015,N,01112.4509,E,34.44,172.91,220114,,,A*56
$GPGGA,152557.000,5351.6838,N,01112.4604,E,1,11,0.88,21.7,M,45.2,M,,*58
$GPRMC,152556.000,A,5351.6939,N,01112.4613,E,36.07,182.60,220114,,,A*51
$GPGGA,152609.000,5351.5735,N,01112.4536,E,1,11,0.84,22.7,M,45.2,M,,*5C
$GPRMC,152608.000,A,5351.5831,N,01112.4520,E,34.02,175.15,220114,,,A*5D
$GPGGA,152619.000,5351.4628,N,01112.4696,E,1,11,0.84,24.0,M,45.3,M,,*58
$GPRMC,152618.000,A,5351.4729,N,01112.4682,E,35.15,175.07,220114,,,A*54
$GPGGA,152630.000,5351.3470,N,01112.4636,E,1,11,0.84,15.9,M,45.3,M,,*5A
$GPRMC,152629.000,A,5351.3559,N,01112.4661,E,32.36,188.98,220114,,,A*5B
$GPGGA,152645.000,5351.2384,N,01112.4067,E,1,11,0.84,10.5,M,45.3,M,,*5E
$GPRMC,152644.000,A,5351.2467,N,01112.4117,E,31.42,198.98,220114,,,A*5A
$GPGGA,152656.000,5351.1324,N,01112.3459,E,1,11,0.84,8.4,M,45.3,M,,*63
$GPRMC,152655.000,A,5351.1429,N,01112.3513,E,39.02,197.67,220114,,,A*57
$GPGGA,152707.000,5351.0200,N,01112.3181,E,1,10,0.88,8.3,M,45.3,M,,*6A
$GPRMC,152706.000,A,5351.0297,N,01112.3186,E,35.15,182.79,220114,,,A*5B
$GPGGA,152719.000,5350.9077,N,01112.3508,E,1,10,0.88,13.3,M,45.3,M,,*50
$GPRMC,152718.000,A,5350.9165,N,01112.3462,E,33.14,163.53,220114,,,A*5D
$GPGGA,152731.000,5350.8069,N,01112.4151,E,1,9,1.23,17.5,M,45.3,M,,*61
$GPRMC,152730.000,A,5350.8152,N,01112.4104,E,31.66,161.11,220114,,,A*53
$GPGGA,152743.000,5350.7032,N,01112.4726,E,1,10,0.88,25.6,M,45.3,M,,*59
$GPRMC,152742.000,A,5350.7115,N,01112.4679,E,31.79,161.07,220114,,,A*5E
$GPGGA,152756.000,5350.5953,N,01112.5360,E,1,10,0.88,33.1,M,45.3,M,,*56
$GPRMC,152755.000,A,5350.6046,N,01112.5317,E,33.75,163.87,220114,,,A*56
$GPGGA,152807.000,5350.4866,N,01112.5395,E,1,10,0.88,35.6,M,45.3,M,,*50
$GPRMC,152806.000,A,5350.4966,N,01112.5409,E,36.19,184.10,220114,,,A*56
$GPGGA,152819.000,5350.3713,N,01112.5266,E,1,9,0.96,34.8,M,45.3,M,,*60
$GPRMC,152818.000,A,5350.3809,N,01112.5291,E,33.95,187.21,220114,,,A*51
$GPGGA,152831.000,5350.2667,N,01112.4472,E,1,10,0.88,33.2,M,45.3,M,,*51
$GPRMC,152830.000,A,5350.2749,N,01112.4536,E,32.44,205.71,220114,,,A*5B
$GPGGA,152843.000,5350.1564,N,01112.4338,E,1,9,1.22,33.5,M,45.3,M,,*60
$GPRMC,152842.000,A,5350.1655,N,01112.4303,E,33.45,169.47,220114,,,A*5D
$GPGGA,152855.000,5350.0513,N,01112.4835,E,1,10,0.88,34.3,M,45.3,M,,*58
$GPRMC,152854.000,A,5350.0603,N,01112.4790,E,33.52,163.65,220114,,,A*5A
$GPGGA,152909.000,5349.9448,N,01112.5341,E,1,10,0.88,34.4,M,45.3,M,,*50
$GPRMC,152908.000,A,5349.9520,N,01112.5309,E,25.53,165.58,220114,,,A*5A
$GPGGA,152924.000,5349.8388,N,01112.5826,E,1,9,1.21,34.5,M,45.3,M,,*64
$GPRMC,152923.000,A,5349.8436,N,01112.5810,E,18.87,168.07,220114,,,A*57
ping
$GPGGA,153002.000,5349.8790,N,01112.7746,E,1,10,0.88,30.3,M,45.3,M,,*56
$GPRMC,153001.000,A,5349.8786,N,01112.7472,E,55.57,87.57,220114,,,A*6C
$GPGGA,153009.000,5349.8781,N,01112.9798,E,1,9,0.95,29.7,M,45.3,M,,*68
$GPRMC,153008.000,A,5349.8788,N,01112.9490,E,64.50,92.06,220114,,,A*6C
$GPGGA,153015.000,5349.8706,N,01113.1728,E,1,10,0.88,29.4,M,45.3,M,,*5F
$GPRMC,153014.000,A,5349.8727,N,01113.1402,E,69.36,95.05,220114,,,A*6F
$GPGGA,153021.000,5349.8524,N,01113.3706,E,1,10,0.88,29.4,M,45.3,M,,*54
$GPRMC,153020.000,A,5349.8561,N,01113.3374,E,71.24,100.21,220114,,,A*5D
$GPGGA,153027.000,5349.8252,N,01113.5728,E,1,9,1.20,29.1,M,45.3,M,,*60
$GPRMC,153026.000,A,5349.8306,N,01113.5387,E,74.44,104.54,220114,,,A*53
$GPGGA,153033.000,5349.7851,N,01113.7784,E,1,9,0.90,27.2,M,45.3,M,,*60
$GPRMC,153032.000,A,5349.7924,N,01113.7448,E,76.54,109.90,220114,,,A*53
$GPGGA,153039.000,5349.7406,N,01113.9841,E,1,10,0.88,24.7,M,45.3,M,,*5B
$GPRMC,153038.000,A,5349.7484,N,01113.9491,E,79.24,110.24,220114,,,A*5B
$GPGGA,153044.000,5349.7043,N,01114.1656,E,1,9,1.20,23.7,M,45.3,M,,*6F
$GPRMC,153043.000,A,5349.7110,N,01114.1286,E,82.16,107.47,220114,,,A*56
$GPGGA,153049.000,5349.6727,N,01114.3546,E,1,9,1.19,24.2,M,45.3,M,,*6E
$GPRMC,153048.000,A,5349.6786,N,01114.3158,E,84.52,104.94,220114,,,A*5C
$GPGGA,153054.000,5349.6460,N,01114.5528,E,1,10,0.88,25.4,M,45.3,M,,*5A
$GPRMC,153053.000,A,5349.6507,N,01114.5130,E,86.41,102.11,220114,,,A*5E
$GPGGA,153059.000,5349.6291,N,01114.7503,E,1,11,0.83,26.2,M,45.3,M,,*5B
$GPRMC,153058.000,A,5349.6317,N,01114.7110,E,84.57,96.75,220114,,,A*69
$GPGGA,153104.000,5349.6209,N,01114.9490,E,1,10,0.90,26.5,M,45.3,M,,*52
$GPRMC,153103.000,A,5349.6218,N,01114.9090,E,84.62,92.86,220114,,,A*61
$GPGGA,153109.000,5349.6219,N,01115.1506,E,1,10,0.85,27.0,M,45.3,M,,*59
$GPRMC,153108.000,A,5349.6213,N,01115.1102,E,85.74,88.95,220114,,,A*6D
$GPGGA,153114.000,5349.6279,N,01115.3520,E,1,9,0.93,28.2,M,45.3,M,,*67
$GPRMC,153113.000,A,5349.6264,N,01115.3117,E,86.22,86.49,220114,,,A*6E
$GPGGA,153119.000,5349.6384,N,01115.5538,E,1,11,0.83,29.0,M,45.2,M,,*5C
$GPRMC,153118.000,A,5349.6361,N,01115.5134,E,86.55,84.47,220114,,,A*6A
$GPGGA,153124.000,5349.6517,N,01115.7549,E,1,9,0.99,28.9,M,45.2,M,,*60
$GPRMC,153123.000,A,5349.6488,N,01115.7151,E,84.95,83.34,220114,,,A*6E
$GPGGA,153129.000,5349.6652,N,01115.9526,E,1,10,1.17,27.7,M,45.2,M,,*56
$GPRMC,153128.000,A,5349.6626,N,01115.9132,E,84.59,83.52,220114,,,A*68
$GPGGA,153134.000,5349.6782,N,01116.1459,E,1,9,1.06,26.7,M,45.2,M,,*6D
$GPRMC,153133.000,A,5349.6757,N,01116.1076,E,82.56,83.46,220114,,,A*63
$GPGGA,153139.000,5349.6878,N,01116.3292,E,1,10,0.90,26.8,M,45.2,M,,*50
$GPRMC,153138.000,A,5349.6862,N,01116.2939,E,76.91,85.91,220114,,,A*6C
$GPGGA,153145.000,5349.6932,N,01116.5208,E,1,8,1.54,26.0,M,45.2,M,,*69
$GPRMC,153144.000,A,5349.6926,N,01116.4905,E,65.19,88.13,220114,,,A*6A
$GPGGA,153151.000,5349.6933,N,01116.7084,E,1,10,0.88,24.6,M,45.2,M,,*54
$GPRMC,153150.000,A,5349.6938,N,01116.6760,E,68.08,91.04,220114,,,A*6C
$GPGGA,153157.000,5349.6859,N,01116.8997,E,1,10,0.89,23.0,M,45.2,M,,*5B
$GPRMC,153156.000,A,5349.6878,N,01116.8675,E,68.64,95.08,220114,,,A*66
$GPGGA,153203.000,5349.6694,N,01117.0976,E,1,10,0.88,22.2,M,45.2,M,,*52
$GPRMC,153202.000,A,5349.6728,N,01117.0641,E,72.30,98.96,220114,,,A*60
$GPGGA,153209.000,5349.6447,N,01117.3028,E,1,8,1.23,24.7,M,45.2,M,,*6F
$GPRMC,153208.000,A,5349.6492,N,01117.2694,E,73.76,102.47,220114,,,A*5F
$GPGGA,153215.000,5349.6166,N,01117.4855,E,1,11,0.83,28.6,M,45.2,M,,*5F
$GPRMC,153214.000,A,5349.6213,N,01117.4574,E,63.32,105.46,220114,,,A*51
$GPGGA,153222.000,5349.5820,N,01117.6769,E,1,10,0.88,31.9,M,45.2,M,,*5C
$GPRMC,153221.000,A,5349.5872,N,01117.6497,E,61.89,107.70,220114,,,A*52
$GPGGA,153229.000,5349.5450,N,01117.8572,E,1,10,0.88,34.9,M,45.2,M,,*5F
$GPRMC,153228.000,A,5349.5505,N,01117.8310,E,59.01,109.31,220114,,,A*50
$GPGGA,153236.000,5349.5010,N,01118.0553,E,1,10,0.88,36.2,M,45.2,M,,*5C
$GPRMC,153235.000,A,5349.5076,N,01118.0261,E,66.75,110.53,220114,,,A*5E
$GPGGA,153242.000,5349.4598,N,01118.2374,E,1,10,0.88,35.5,M,45.2,M,,*5E
$GPRMC,153241.000,A,5349.4668,N,01118.2065,E,70.15,110.78,220114,,,A*59
$GPGGA,153248.000,5349.4169,N,01118.4241,E,1,10,0.88,33.8,M,45.2,M,,*54
$GPRMC,153247.000,A,5349.4239,N,01118.3936,E,69.50,111.07,220114,,,A*51
$GPGGA,153254.000,5349.3756,N,01118.6133,E,1,10,0.88,32.3,M,45.2,M,,*5A
$GPRMC,153253.000,A,5349.3824,N,01118.5816,E,72.29,110.07,220114,,,A*55
$GPGGA,153300.000,5349.3366,N,01118.8035,E,1,10,0.88,31.1,M,45.2,M,,*55
$GPRMC,153259.000,A,5349.3427,N,01118.7725,E,70.29,108.40,220114,,,A*55
$GPGGA,153306.000,5349.3022,N,01118.9926,E,1,10,0.88,29.6,M,45.2,M,,*54
$GPRMC,153305.000,A,5349.3078,N,01118.9600,E,71.08,106.73,220114,,,A*57
$GPGGA,153312.000,5349.2711,N,01119.1981,E,1,11,0.84,28.8,M,45.2,M,,*51
$GPRMC,153311.000,A,5349.2760,N,01119.1629,E,76.60,103.77,220114,,,A*57
$GPGGA,153318.000,5349.2469,N,01119.4033,E,1,11,0.83,28.2,M,45.2,M,,*5F
$GPRMC,153317.000,A,5349.2502,N,01119.3695,E,72.99,100.22,220114,,,A*53
$GPGGA,153324.000,5349.2309,N,01119.6095,E,1,11,0.83,27.2,M,45.2,M,,*50
$GPRMC,153323.000,A,5349.2329,N,01119.5748,E,74.30,96.09,220114,,,A*6E
$GPGGA,153330.000,5349.2246,N,01119.8207,E,1,11,0.83,26.9,M,45.2,M,,*52
$GPRMC,153329.000,A,5349.2248,N,01119.7848,E,76.01,91.58,220114,,,A*6C
$GPGGA,153336.000,5349.2297,N,01120.0363,E,1,10,0.86,27.9,M,45.2,M,,*5C
$GPRMC,153335.000,A,5349.2282,N,01120.0009,E,76.33,86.38,220114,,,A*66
$GPGGA,153342.000,5349.2432,N,01120.2407,E,1,9,1.20,33.0,M,45.2,M,,*68
$GPRMC,153341.000,A,5349.2405,N,01120.2071,E,72.15,82.87,220114,,,A*61
$GPGGA,153348.000,5349.2675,N,01120.4388,E,1,9,1.17,37.0,M,45.2,M,,*65
$GPRMC,153347.000,A,5349.2628,N,01120.4060,E,72.15,77.22,220114,,,A*69
$GPGGA,153354.000,5349.3024,N,01120.6375,E,1,11,0.83,38.3,M,45.2,M,,*52
$GPRMC,153353.000,A,5349.2958,N,01120.6045,E,74.31,72.25,220114,,,A*63
$GPGGA,153400.000,5349.3492,N,01120.8364,E,1,11,0.83,37.8,M,45.2,M,,*57
$GPRMC,153359.000,A,5349.3407,N,01120.8032,E,76.55,67.48,220114,,,A*6E
$GPGGA,153405.000,5349.3956,N,01121.0008,E,1,11,0.83,38.7,M,45.2,M,,*57
$GPRMC,153404.000,A,5349.3859,N,01120.9683,E,77.34,63.22,220114,,,A*65
$GPGGA,153410.000,5349.4504,N,01121.1606,E,1,11,0.83,41.9,M,45.2,M,,*56
$GPRMC,153409.000,A,5349.4388,N,01121.1287,E,78.91,58.80,220114,,,A*61
$GPGGA,153415.000,5349.5124,N,01121.3162,E,1,11,0.83,46.6,M,45.2,M,,*5B
$GPRMC,153414.000,A,5349.4991,N,01121.2859,E,79.97,54.91,220114,,,A*6E
$GPGGA,153420.000,5349.5816,N,01121.4610,E,1,9,1.16,51.7,M,45.2,M,,*63
$GPRMC,153419.000,A,5349.5676,N,01121.4327,E,78.83,50.57,220114,,,A*6A
$GPGGA,153425.000,5349.6572,N,01121.5939,E,1,10,0.88,55.2,M,45.2,M,,*50
$GPRMC,153424.000,A,5349.6417,N,01121.5685,E,78.30,44.66,220114,,,A*61
$GPGGA,153430.000,5349.7363,N,01121.7181,E,1,10,0.88,58.4,M,45.2,M,,*51
$GPRMC,153429.000,A,5349.7201,N,01121.6937,E,78.13,42.09,220114,,,A*67
$GPGGA,153435.000,5349.8221,N,01121.8361,E,1,10,0.88,61.4,M,45.2,M,,*55
$GPRMC,153434.000,A,5349.8046,N,01121.8129,E,80.20,38.52,220114,,,A*68
$GPGGA,153440.000,5349.9136,N,01121.9440,E,1,9,1.06,63.5,M,45.2,M,,*6A
$GPRMC,153439.000,A,5349.8949,N,01121.9234,E,80.09,33.40,220114,,,A*6E
$GPGGA,153445.000,5350.0097,N,01122.0387,E,1,6,1.27,65.4,M,45.2,M,,*69
$GPRMC,153444.000,A,5349.9898,N,01122.0209,E,82.46,28.89,220114,,,A*6A
$GPGGA,153450.000,5350.1093,N,01122.1178,E,1,8,1.00,69.1,M,45.2,M,,*69
$GPRMC,153449.000,A,5350.0895,N,01122.1033,E,79.13,24.47,220114,,,A*6B
$GPGGA,153455.000,5350.2119,N,01122.1844,E,1,9,1.16,69.5,M,45.2,M,,*68
$GPRMC,153454.000,A,5350.1910,N,01122.1715,E,79.63,20.85,220114,,,A*64
$GPGGA,153500.000,5350.3157,N,01122.2405,E,1,12,0.82,68.6,M,45.2,M,,*5C
$GPRMC,153459.000,A,5350.2949,N,01122.2304,E,78.42,16.20,220114,,,A*69
$GPGGA,153505.000,5350.4216,N,01122.2870,E,1,11,0.85,66.5,M,45.2,M,,*5F
$GPRMC,153504.000,A,5350.4003,N,01122.2785,E,79.38,13.80,220114,,,A*6F
$GPGGA,153510.000,5350.5304,N,01122.3275,E,1,11,0.83,64.3,M,45.1,M,,*57
$GPRMC,153509.000,A,5350.5085,N,01122.3194,E,80.15,12.93,220114,,,A*60
$GPGGA,153515.000,5350.6423,N,01122.3696,E,1,10,0.90,61.4,M,45.1,M,,*5B
$GPRMC,153514.000,A,5350.6197,N,01122.3606,E,82.58,13.12,220114,,,A*62
$GPGGA,153520.000,5350.7554,N,01122.4167,E,1,10,1.19,58.5,M,45.1,M,,*58
$GPRMC,153519.000,A,5350.7328,N,01122.4063,E,83.98,14.66,220114,,,A*63
$GPGGA,153525.000,5350.8677,N,01122.4763,E,1,12,0.82,56.6,M,45.1,M,,*5E
$GPRMC,153524.000,A,5350.8456,N,01122.4635,E,84.66,18.25,220114,,,A*64
$GPGGA,153530.000,5350.9720,N,01122.5468,E,1,12,0.82,56.1,M,45.1,M,,*56
$GPRMC,153529.000,A,5350.9520,N,01122.5322,E,78.88,22.77,220114,,,A*67
$GPGGA,153535.000,5351.0693,N,01122.6269,E,1,12,0.82,54.2,M,45.1,M,,*57
$GPRMC,153534.000,A,5351.0504,N,01122.6101,E,77.33,26.77,220114,,,A*6E
$GPGGA,153541.000,5351.1800,N,01122.7383,E,1,12,0.82,52.2,M,45.1,M,,*53
$GPRMC,153540.000,A,5351.1617,N,01122.7188,E,77.70,31.47,220114,,,A*6F
$GPGGA,153547.000,5351.2852,N,01122.8628,E,1,11,0.83,49.7,M,45.1,M,,*57
$GPRMC,153546.000,A,5351.2681,N,01122.8408,E,77.25,36.49,220114,,,A*6E
$GPGGA,153552.000,5351.3684,N,01122.9805,E,1,7,1.49,47.3,M,45.1,M,,*6D
$GPRMC,153551.000,A,5351.3522,N,01122.9564,E,78.26,40.69,220114,,,A*66
$GPGGA,153557.000,5351.4490,N,01123.1094,E,1,11,1.08,44.3,M,45.1,M,,*50
$GPRMC,153556.000,A,5351.4336,N,01123.0823,E,80.71,44.54,220114,,,A*6C
$GPGGA,153602.000,5351.5235,N,01123.2477,E,1,12,0.80,39.5,M,45.1,M,,*5F
$GPRMC,153601.000,A,5351.5093,N,01123.2195,E,79.32,48.65,220114,,,A*69
$GPGGA,153608.000,5351.6015,N,01123.4179,E,1,11,0.92,32.1,M,45.1,M,,*54
$GPRMC,153607.000,A,5351.5894,N,01123.3891,E,74.89,54.03,220114,,,A*6C
$GPGGA,153614.000,5351.6708,N,01123.5957,E,1,12,0.82,26.8,M,45.1,M,,*59
$GPRMC,153613.000,A,5351.6598,N,01123.5651,E,75.71,58.19,220114,,,A*6E
$GPGGA,153620.000,5351.7295,N,01123.7818,E,1,11,0.90,24.2,M,45.1,M,,*5E
$GPRMC,153619.000,A,5351.7205,N,01123.7514,E,72.75,62.20,220114,,,A*66
$GPGGA,153626.000,5351.7777,N,01123.9651,E,1,12,0.82,23.9,M,45.1,M,,*50
$GPRMC,153625.000,A,5351.7705,N,01123.9349,E,70.63,67.18,220114,,,A*67
$GPGGA,153632.000,5351.8149,N,01124.1398,E,1,11,0.83,22.3,M,45.1,M,,*57
$GPRMC,153631.000,A,5351.8094,N,01124.1112,E,64.84,71.97,220114,,,A*6D
$GPGGA,153639.000,5351.8464,N,01124.3362,E,1,12,0.82,18.8,M,45.1,M,,*51
$GPRMC,153638.000,A,5351.8427,N,01124.3085,E,60.87,76.40,220114,,,A*6F
$GPGGA,153646.000,5351.8668,N,01124.5279,E,1,10,0.90,13.6,M,45.1,M,,*5E
$GPRMC,153645.000,A,5351.8645,N,01124.5006,E,59.40,80.65,220114,,,A*61
$GPGGA,153653.000,5351.8793,N,01124.7263,E,1,12,0.82,8.8,M,45.1,M,,*63
$GPRMC,153652.000,A,5351.8780,N,01124.6968,E,62.62,84.64,220114,,,A*60
$GPGGA,153700.000,5351.8847,N,01124.9365,E,1,11,0.83,6.2,M,45.1,M,,*6D
$GPRMC,153659.000,A,5351.8844,N,01124.9061,E,64.53,89.02,220114,,,A*6A
$GPGGA,153706.000,5351.8842,N,01125.1227,E,1,11,0.85,5.9,M,45.1,M,,*6E
$GPRMC,153705.000,A,5351.8847,N,01125.0921,E,66.09,90.70,220114,,,A*64
$GPGGA,153712.000,5351.8788,N,01125.3056,E,1,11,0.85,5.8,M,45.1,M,,*65
$GPRMC,153711.000,A,5351.8799,N,01125.2745,E,66.34,92.79,220114,,,A*66
$GPGGA,153718.000,5351.8680,N,01125.4965,E,1,10,0.86,6.4,M,45.1,M,,*65
$GPRMC,153717.000,A,5351.8701,N,01125.4645,E,68.66,95.86,220114,,,A*68
$GPGGA,153724.000,5351.8530,N,01125.6892,E,1,12,0.82,7.6,M,45.1,M,,*6C
$GPRMC,153723.000,A,5351.8559,N,01125.6570,E,68.55,98.23,220114,,,A*65
$GPGGA,153730.000,5351.8324,N,01125.8827,E,1,12,0.82,8.7,M,45.1,M,,*64
$GPRMC,153729.000,A,5351.8364,N,01125.8503,E,69.64,101.09,220114,,,A*57
$GPGGA,153736.000,5351.8061,N,01126.0759,E,1,12,0.82,8.3,M,45.1,M,,*69
$GPRMC,153735.000,A,5351.8106,N,01126.0442,E,69.44,102.96,220114,,,A*54
$GPGGA,153742.000,5351.7761,N,01126.2565,E,1,10,0.88,5.6,M,45.1,M,,*6D
$GPRMC,153741.000,A,5351.7816,N,01126.2265,E,66.63,106.59,220114,,,A*5C
$GPGGA,153748.000,5351.7407,N,01126.4297,E,1,8,1.01,3.0,M,45.1,M,,*51
$GPRMC,153747.000,A,5351.7467,N,01126.4013,E,64.02,109.70,220114,,,A*54
$GPGGA,153755.000,5351.6976,N,01126.6287,E,1,12,0.82,2.1,M,45.1,M,,*65
$GPRMC,153754.000,A,5351.7038,N,01126.6009,E,64.14,110.64,220114,,,A*5B
$GPGGA,153802.000,5351.6521,N,01126.8167,E,1,9,0.96,2.5,M,45.1,M,,*5E
$GPRMC,153801.000,A,5351.6590,N,01126.7896,E,63.11,112.99,220114,,,A*5F
$GPGGA,153809.000,5351.6018,N,01127.0076,E,1,12,0.82,4.9,M,45.1,M,,*67
$GPRMC,153808.000,A,5351.6091,N,01126.9805,E,63.05,114.46,220114,,,A*57
$GPGGA,153815.000,5351.5565,N,01127.1747,E,1,12,0.82,6.3,M,45.1,M,,*6A
$GPRMC,153814.000,A,5351.5642,N,01127.1456,E,66.63,114.03,220114,,,A*56
$GPGGA,153821.000,5351.5075,N,01127.3608,E,1,12,0.82,4.9,M,45.1,M,,*69
$GPRMC,153820.000,A,5351.5160,N,01127.3291,E,73.78,114.47,220114,,,A*57
$GPGGA,153827.000,5351.4579,N,01127.5555,E,1,11,0.85,1.3,M,45.1,M,,*61
$GPRMC,153826.000,A,5351.4658,N,01127.5223,E,75.98,112.54,220114,,,A*5F
$GPGGA,153833.000,5351.4146,N,01127.7622,E,1,8,1.17,-4.8,M,45.1,M,,*7C
$GPRMC,153832.000,A,5351.4213,N,01127.7266,E,79.31,108.12,220114,,,A*54
$GPGGA,153838.000,5351.3845,N,01127.9414,E,1,11,0.84,-7.2,M,45.1,M,,*49
$GPRMC,153837.000,A,5351.3898,N,01127.9055,E,78.43,105.08,220114,,,A*51
$GPGGA,153844.000,5351.3624,N,01128.1488,E,1,12,0.82,-5.8,M,45.1,M,,*44
$GPRMC,153843.000,A,5351.3652,N,01128.1156,E,71.93,98.65,220114,,,A*65
$GPGGA,153850.000,5351.3503,N,01128.3495,E,1,12,0.82,-4.7,M,45.1,M,,*47
$GPRMC,153849.000,A,5351.3516,N,01128.3159,E,72.19,94.26,220114,,,A*6B
$GPGGA,153856.000,5351.3488,N,01128.5524,E,1,11,0.83,-3.7,M,45.1,M,,*4B
$GPRMC,153855.000,A,5351.3483,N,01128.5178,E,73.20,89.55,220114,,,A*6D
$GPGGA,153902.000,5351.3579,N,01128.7666,E,1,12,0.82,-3.2,M,45.1,M,,*44
$GPRMC,153901.000,A,5351.3557,N,01128.7306,E,77.10,84.44,220114,,,A*66
$GPGGA,153908.000,5351.3788,N,01128.9759,E,1,12,0.82,-3.4,M,45.0,M,,*46
$GPRMC,153907.000,A,5351.3746,N,01128.9422,E,73.45,79.08,220114,,,A*63
$GPGGA,153914.000,5351.4070,N,01129.1676,E,1,12,0.82,-4.5,M,45.0,M,,*4F
$GPRMC,153913.000,A,5351.4018,N,01129.1362,E,69.10,74.82,220114,,,A*63
$GPGGA,153920.000,5351.4461,N,01129.3563,E,1,12,0.82,-6.1,M,45.0,M,,*4F
$GPRMC,153919.000,A,5351.4388,N,01129.3243,E,72.50,69.87,220114,,,A*64
$GPGGA,153926.000,5351.4949,N,01129.5565,E,1,12,0.82,-7.4,M,45.0,M,,*4A
$GPRMC,153925.000,A,5351.4862,N,01129.5225,E,77.73,66.59,220114,,,A*6A
$GPGGA,153931.000,5351.5434,N,01129.7253,E,1,11,0.83,-8.0,M,45.0,M,,*43
$GPRMC,153930.000,A,5351.5331,N,01129.6917,E,80.02,63.07,220114,,,A*6B
$GPGGA,153936.000,5351.5991,N,01129.8919,E,1,11,0.85,-7.4,M,45.0,M,,*41
$GPRMC,153935.000,A,5351.5874,N,01129.8591,E,81.32,59.70,220114,,,A*63
$GPGGA,153941.000,5351.6594,N,01130.0496,E,1,12,0.82,-5.4,M,45.0,M,,*47
$GPRMC,153940.000,A,5351.6473,N,01130.0193,E,78.76,56.80,220114,,,A*69
$GPGGA,153947.000,5351.7294,N,01130.2154,E,1,12,0.82,-1.9,M,45.0,M,,*47
$GPRMC,153946.000,A,5351.7182,N,01130.1898,E,68.98,53.70,220114,,,A*6D
$GPGGA,153953.000,5351.7999,N,01130.3673,E,1,12,0.82,1.0,M,45.0,M,,*63
$GPRMC,153952.000,A,5351.7875,N,01130.3417,E,69.73,51.08,220114,,,A*69
$GPGGA,153959.000,5351.8742,N,01130.5148,E,1,11,1.05,2.4,M,45.0,M,,*6D
$GPRMC,153958.000,A,5351.8622,N,01130.4914,E,67.29,49.37,220114,,,A*6D
$GPGGA,154005.000,5351.9484,N,01130.6549,E,1,10,1.08,3.0,M,45.0,M,,*6D
$GPRMC,154004.000,A,5351.9355,N,01130.6312,E,69.17,47.49,220114,,,A*64
$GPGGA,154011.000,5352.0252,N,01130.7920,E,1,12,0.82,2.6,M,45.0,M,,*6B
$GPRMC,154010.000,A,5352.0123,N,01130.7694,E,66.49,46.44,220114,,,A*6A
$GPGGA,154017.000,5352.1098,N,01130.9364,E,1,12,0.82,0.9,M,45.0,M,,*61
$GPRMC,154016.000,A,5352.0952,N,01130.9119,E,73.17,45.20,220114,,,A*60
$GPGGA,154023.000,5352.1988,N,01131.0865,E,1,12,0.82,-1.9,M,45.0,M,,*40
$GPRMC,154022.000,A,5352.1836,N,01131.0607,E,76.59,45.01,220114,,,A*69
$GPGGA,154028.000,5352.2749,N,01131.2154,E,1,12,0.82,-3.9,M,45.0,M,,*40
$GPRMC,154027.000,A,5352.2598,N,01131.1897,E,77.21,45.15,220114,,,A*6B
$GPGGA,154033.000,5352.3523,N,01131.3451,E,1,12,0.82,-4.5,M,45.0,M,,*4F
$GPRMC,154032.000,A,5352.3368,N,01131.3193,E,78.92,44.48,220114,,,A*66
$GPGGA,154038.000,5352.4283,N,01131.4753,E,1,11,0.85,-3.2,M,45.0,M,,*4C
$GPRMC,154037.000,A,5352.4134,N,01131.4492,E,77.93,45.74,220114,,,A*6C
$GPGGA,154044.000,5352.5113,N,01131.6309,E,1,12,0.82,1.9,M,45.0,M,,*65
$GPRMC,154043.000,A,5352.4984,N,01131.6052,E,72.58,49.15,220114,,,A*6F
$GPGGA,154050.000,5352.5831,N,01131.7872,E,1,12,0.82,8.0,M,45.0,M,,*6F
$GPRMC,154049.000,A,5352.5717,N,01131.7597,E,71.25,53.77,220114,,,A*6B
$GPGGA,154056.000,5352.6475,N,01131.9567,E,1,12,0.82,14.5,M,45.0,M,,*59
$GPRMC,154055.000,A,5352.6374,N,01131.9284,E,70.65,58.52,220114,,,A*66
$GPGGA,154102.000,5352.6986,N,01132.1208,E,1,9,0.92,19.6,M,45.0,M,,*68
$GPRMC,154101.000,A,5352.6908,N,01132.0941,E,63.55,64.00,220114,,,A*66
$GPGGA,154109.000,5352.7459,N,01132.3117,E,1,11,0.83,23.2,M,45.0,M,,*56
$GPRMC,154108.000,A,5352.7397,N,01132.2842,E,63.28,68.47,220114,,,A*67
$GPGGA,154116.000,5352.7825,N,01132.5024,E,1,12,0.82,26.5,M,45.0,M,,*58
$GPRMC,154115.000,A,5352.7778,N,01132.4752,E,60.31,73.69,220114,,,A*6B
$GPGGA,154123.000,5352.8099,N,01132.6905,E,1,12,0.82,30.5,M,45.0,M,,*50
$GPRMC,154122.000,A,5352.8067,N,01132.6643,E,57.69,77.19,220114,,,A*60
$GPGGA,154131.000,5352.8308,N,01132.8915,E,1,10,0.90,32.8,M,45.0,M,,*59
$GPRMC,154130.000,A,5352.8284,N,01132.8656,E,55.54,80.55,220114,,,A*6A
$GPGGA,154138.000,5352.8480,N,01133.0812,E,1,10,0.90,34.5,M,45.0,M,,*53
$GPRMC,154137.000,A,5352.8457,N,01133.0540,E,58.47,81.49,220114,,,A*6B
$GPGGA,154145.000,5352.8630,N,01133.2775,E,1,11,0.83,36.0,M,45.0,M,,*58
$GPRMC,154144.000,A,5352.8607,N,01133.2485,E,62.27,82.04,220114,,,A*67
$GPGGA,154152.000,5352.8753,N,01133.4870,E,1,11,0.84,36.9,M,45.0,M,,*58
$GPRMC,154151.000,A,5352.8739,N,01133.4558,E,65.59,85.52,220114,,,A*62
$GPGGA,154158.000,5352.8826,N,01133.6812,E,1,12,0.82,38.6,M,45.0,M,,*5D
$GPRMC,154157.000,A,5352.8814,N,01133.6479,E,70.03,86.86,220114,,,A*65
$GPGGA,154204.000,5352.8857,N,01133.8814,E,1,13,0.81,39.8,M,45.0,M,,*54
$GPRMC,154203.000,A,5352.8855,N,01133.8481,E,71.19,89.12,220114,,,A*63
$GPGGA,154210.000,5352.8837,N,01134.0703,E,1,11,0.98,41.6,M,44.9,M,,*52
$GPRMC,154209.000,A,5352.8843,N,01134.0397,E,65.93,91.23,220114,,,A*6D
$GPGGA,154216.000,5352.8787,N,01134.2527,E,1,13,0.81,43.4,M,44.9,M,,*5C
$GPRMC,154215.000,A,5352.8797,N,01134.2227,E,64.19,93.17,220114,,,A*68
$GPGGA,154223.000,5352.8678,N,01134.4501,E,1,13,0.81,45.6,M,44.9,M,,*5D
$GPRMC,154222.000,A,5352.8696,N,01134.4231,E,58.01,95.78,220114,,,A*64
$GPGGA,154230.000,5352.8525,N,01134.6380,E,1,10,0.88,48.2,M,44.9,M,,*5A
$GPRMC,154229.000,A,5352.8548,N,01134.6120,E,55.96,98.28,220114,,,A*65
$GPGGA,154237.000,5352.8320,N,01134.8292,E,1,13,0.81,50.7,M,44.9,M,,*54
$GPRMC,154236.000,A,5352.8352,N,01134.8002,E,61.30,100.82,220114,,,A*52
$GPGGA,154243.000,5352.8070,N,01135.0105,E,1,12,0.82,52.6,M,44.9,M,,*54
$GPRMC,154242.000,A,5352.8116,N,01134.9799,E,66.93,103.90,220114,,,A*59
$GPGGA,154249.000,5352.7742,N,01135.1983,E,1,13,0.81,54.5,M,44.9,M,,*57
$GPRMC,154248.000,A,5352.7805,N,01135.1662,E,71.46,107.70,220114,,,A*5F
$GPGGA,154255.000,5352.7345,N,01135.3939,E,1,13,0.81,56.3,M,44.9,M,,*5E
$GPRMC,154254.000,A,5352.7415,N,01135.3610,E,73.64,109.62,220114,,,A*57
$GPGGA,154301.000,5352.6885,N,01135.5936,E,1,11,0.83,58.2,M,44.9,M,,*5E
$GPRMC,154300.000,A,5352.6966,N,01135.5601,E,76.54,112.27,220114,,,A*54
$GPGGA,154306.000,5352.6442,N,01135.7619,E,1,9,1.20,59.0,M,44.9,M,,*6C
$GPRMC,154305.000,A,5352.6537,N,01135.7283,E,78.76,115.22,220114,,,A*59
$GPGGA,154311.000,5352.5943,N,01135.9289,E,1,9,1.20,59.2,M,44.9,M,,*64
$GPRMC,154310.000,A,5352.6046,N,01135.8958,E,79.12,117.11,220114,,,A*5D
$GPGGA,154316.000,5352.5419,N,01136.0949,E,1,9,1.20,58.4,M,44.9,M,,*6B
$GPRMC,154315.000,A,5352.5524,N,01136.0615,E,80.09,118.13,220114,,,A*56
$GPGGA,154321.000,5352.4880,N,01136.2606,E,1,10,0.96,57.3,M,44.9,M,,*58
$GPRMC,154320.000,A,5352.4990,N,01136.2277,E,80.54,118.84,220114,,,A*56
$GPGGA,154326.000,5352.4350,N,01136.4279,E,1,13,0.81,55.1,M,44.9,M,,*56
$GPRMC,154325.000,A,5352.4456,N,01136.3941,E,81.11,117.76,220114,,,A*59
$GPGGA,154331.000,5352.3866,N,01136.5933,E,1,9,1.20,52.1,M,44.9,M,,*6B
$GPRMC,154330.000,A,5352.3958,N,01136.5609,E,77.02,115.99,220114,,,A*54
$GPGGA,154337.000,5352.3372,N,01136.7875,E,1,9,1.20,47.6,M,44.9,M,,*61
$GPRMC,154336.000,A,5352.3447,N,01136.7551,E,74.31,111.73,220114,,,A*5E
$GPGGA,154343.000,5352.2973,N,01136.9828,E,1,10,0.88,43.0,M,44.9,M,,*57
$GPRMC,154342.000,A,5352.3033,N,01136.9502,E,73.26,107.70,220114,,,A*57
$GPGGA,154349.000,5352.2688,N,01137.1722,E,1,12,0.82,39.6,M,44.9,M,,*59
$GPRMC,154348.000,A,5352.2729,N,01137.1416,E,68.21,103.54,220114,,,A*52
$GPGGA,154355.000,5352.2493,N,01137.3518,E,1,12,0.83,37.8,M,44.9,M,,*54
$GPRMC,154354.000,A,5352.2518,N,01137.3225,E,64.36,99.45,220114,,,A*63
$GPGGA,154402.000,5352.2355,N,01137.5516,E,1,13,0.81,35.6,M,44.9,M,,*5B
$GPRMC,154401.000,A,5352.2370,N,01137.5227,E,61.19,95.21,220114,,,A*6E
$GPGGA,154408.000,5352.2318,N,01137.7356,E,1,13,0.81,33.3,M,44.9,M,,*5B
$GPRMC,154407.000,A,5352.2317,N,01137.7040,E,67.09,90.58,220114,,,A*64
$GPGGA,154414.000,5352.2350,N,01137.9312,E,1,12,0.82,31.0,M,44.9,M,,*57
$GPRMC,154413.000,A,5352.2341,N,01137.8981,E,70.13,87.35,220114,,,A*69
$GPGGA,154420.000,5352.2461,N,01138.1279,E,1,12,0.82,30.3,M,44.9,M,,*5C
$GPRMC,154419.000,A,5352.2435,N,01138.0954,E,68.99,83.23,220114,,,A*60
$GPGGA,154426.000,5352.2650,N,01138.3213,E,1,12,0.82,30.1,M,44.9,M,,*56
$GPRMC,154425.000,A,5352.2611,N,01138.2896,E,68.55,79.01,220114,,,A*63
$GPGGA,154432.000,5352.2921,N,01138.5075,E,1,12,0.84,29.5,M,44.9,M,,*54
$GPRMC,154431.000,A,5352.2871,N,01138.4767,E,68.02,75.56,220114,,,A*65
$GPGGA,154438.000,5352.3278,N,01138.6962,E,1,12,0.82,27.6,M,44.9,M,,*5F
$GPRMC,154437.000,A,5352.3211,N,01138.6641,E,72.26,71.28,220114,,,A*69
$GPGGA,154444.000,5352.3731,N,01138.8890,E,1,12,0.82,25.2,M,44.9,M,,*58
$GPRMC,154443.000,A,5352.3649,N,01138.8578,E,72.61,66.78,220114,,,A*64
$GPGGA,154450.000,5352.4261,N,01139.0720,E,1,13,0.81,23.0,M,44.9,M,,*51
$GPRMC,154449.000,A,5352.4167,N,01139.0421,E,72.05,63.02,220114,,,A*6C
$GPGGA,154456.000,5352.4840,N,01139.2458,E,1,12,0.82,21.5,M,44.9,M,,*55
$GPRMC,154455.000,A,5352.4743,N,01139.2177,E,70.11,60.04,220114,,,A*67
$GPGGA,154502.000,5352.5447,N,01139.4148,E,1,13,0.80,19.8,M,44.9,M,,*58
$GPRMC,154501.000,A,5352.5343,N,01139.3864,E,71.04,58.52,220114,,,A*65
$GPGGA,154508.000,5352.6104,N,01139.5859,E,1,11,0.85,17.6,M,44.9,M,,*5C
$GPRMC,154507.000,A,5352.5991,N,01139.5576,E,73.05,56.53,220114,,,A*62
$GPGGA,154514.000,5352.6803,N,01139.7542,E,1,13,0.80,16.8,M,44.9,M,,*52
$GPRMC,154513.000,A,5352.6684,N,01139.7263,E,72.93,54.61,220114,,,A*63
$GPGGA,154520.000,5352.7541,N,01139.9208,E,1,13,0.80,18.4,M,44.9,M,,*5A
$GPRMC,154519.000,A,5352.7419,N,01139.8935,E,73.38,53.12,220114,,,A*6A
$GPGGA,154526.000,5352.8293,N,01140.0803,E,1,13,0.80,20.0,M,44.9,M,,*52
$GPRMC,154525.000,A,5352.8167,N,01140.0543,E,71.37,51.02,220114,,,A*63
$GPGGA,154532.000,5352.9083,N,01140.2388,E,1,13,0.80,22.7,M,44.9,M,,*5A
$GPRMC,154531.000,A,5352.8949,N,01140.2120,E,74.85,49.57,220114,,,A*64
$GPGGA,154538.000,5352.9898,N,01140.3964,E,1,13,0.80,24.4,M,44.9,M,,*5E
$GPRMC,154537.000,A,5352.9761,N,01140.3702,E,74.39,48.28,220114,,,A*6E
$GPGGA,154544.000,5353.0717,N,01140.5556,E,1,13,0.80,25.0,M,44.9,M,,*5B
$GPRMC,154543.000,A,5353.0582,N,01140.5290,E,74.83,49.03,220114,,,A*6B
$GPGGA,154550.000,5353.1505,N,01140.7141,E,1,13,0.80,25.2,M,44.8,M,,*5D
$GPRMC,154549.000,A,5353.1375,N,01140.6880,E,72.86,49.82,220114,,,A*6C
$GPGGA,154556.000,5353.2267,N,01140.8700,E,1,12,0.84,25.7,M,44.8,M,,*57
$GPRMC,154555.000,A,5353.2140,N,01140.8439,E,71.59,50.76,220114,,,A*64
$GPGGA,154602.000,5353.3052,N,01141.0323,E,1,13,0.80,25.7,M,44.8,M,,*59
$GPRMC,154601.000,A,5353.2922,N,01141.0049,E,74.65,51.00,220114,,,A*6A
$GPGGA,154608.000,5353.3817,N,01141.2018,E,1,13,0.80,26.3,M,44.8,M,,*54
$GPRMC,154607.000,A,5353.3689,N,01141.1730,E,76.34,52.94,220114,,,A*63
$GPGGA,154614.000,5353.4589,N,01141.3764,E,1,13,0.80,25.1,M,44.8,M,,*58
$GPRMC,154613.000,A,5353.4459,N,01141.3468,E,78.31,53.01,220114,,,A*64
$GPGGA,154619.000,5353.5259,N,01141.5303,E,1,12,0.85,23.6,M,44.8,M,,*58
$GPRMC,154618.000,A,5353.5123,N,01141.4989,E,82.17,53.77,220114,,,A*63
$GPGGA,154624.000,5353.5943,N,01141.6894,E,1,12,0.85,21.6,M,44.8,M,,*52
$GPRMC,154623.000,A,5353.5807,N,01141.6574,E,83.21,54.13,220114,,,A*69
$GPGGA,154629.000,5353.6622,N,01141.8511,E,1,13,0.80,19.7,M,44.8,M,,*54
$GPRMC,154628.000,A,5353.6486,N,01141.8187,E,84.26,54.66,220114,,,A*60
$GPGGA,154634.000,5353.7285,N,01142.0140,E,1,13,0.80,19.9,M,44.8,M,,*55
$GPRMC,154633.000,A,5353.7156,N,01141.9815,E,84.07,55.91,220114,,,A*6A
$GPGGA,154639.000,5353.7931,N,01142.1772,E,1,13,0.80,21.9,M,44.8,M,,*51
$GPRMC,154638.000,A,5353.7802,N,01142.1449,E,83.05,56.16,220114,,,A*6E
$GPGGA,154644.000,5353.8556,N,01142.3356,E,1,13,0.80,24.0,M,44.8,M,,*55
$GPRMC,154643.000,A,5353.8432,N,01142.3039,E,81.71,56.70,220114,,,A*62
$GPGGA,154649.000,5353.9158,N,01142.4960,E,1,13,0.80,26.5,M,44.8,M,,*5C
$GPRMC,154648.000,A,5353.9041,N,01142.4637,E,81.39,58.08,220114,,,A*6A
$GPGGA,154654.000,5353.9716,N,01142.6549,E,1,13,0.80,29.3,M,44.8,M,,*50
$GPRMC,154653.000,A,5353.9608,N,01142.6239,E,77.59,59.26,220114,,,A*61
$GPGGA,154700.000,5354.0320,N,01142.8329,E,1,13,0.80,32.5,M,44.8,M,,*5D
$GPRMC,154659.000,A,5354.0224,N,01142.8034,E,72.26,60.75,220114,,,A*6F
$GPGGA,154706.000,5354.0876,N,01143.0148,E,1,11,0.94,35.9,M,44.8,M,,*53
$GPRMC,154705.000,A,5354.0784,N,01142.9838,E,73.13,63.46,220114,,,A*69
$GPGGA,154712.000,5354.1416,N,01143.2080,E,1,12,0.81,40.3,M,44.8,M,,*55
$GPRMC,154711.000,A,5354.1327,N,01143.1749,E,76.59,65.10,220114,,,A*6E
$GPGGA,154717.000,5354.1848,N,01143.3755,E,1,9,1.19,45.2,M,44.8,M,,*67
$GPRMC,154716.000,A,5354.1764,N,01143.3422,E,76.97,66.53,220114,,,A*60
$GPGGA,154723.000,5354.2327,N,01143.5747,E,1,11,0.88,52.0,M,44.8,M,,*50
$GPRMC,154722.000,A,5354.2253,N,01143.5426,E,74.26,68.74,220114,,,A*64
$GPGGA,154729.000,5354.2732,N,01143.7585,E,1,10,0.91,56.6,M,44.8,M,,*5F
$GPRMC,154728.000,A,5354.2667,N,01143.7278,E,69.59,70.18,220114,,,A*65
$GPGGA,154735.000,5354.3112,N,01143.9465,E,1,13,0.80,59.2,M,44.8,M,,*5E
$GPRMC,154734.000,A,5354.3050,N,01143.9153,E,70.64,71.26,220114,,,A*65
$GPGGA,154741.000,5354.3454,N,01144.1242,E,1,13,0.80,60.1,M,44.8,M,,*5F
$GPRMC,154740.000,A,5354.3402,N,01144.0959,E,64.13,72.20,220114,,,A*69
$GPGGA,154747.000,5354.3785,N,01144.3030,E,1,13,0.80,59.4,M,44.8,M,,*5C
$GPRMC,154746.000,A,5354.3727,N,01144.2719,E,69.16,72.29,220114,,,A*62
$GPGGA,154753.000,5354.4141,N,01144.4978,E,1,12,0.80,57.3,M,44.8,M,,*5A
$GPRMC,154752.000,A,5354.4080,N,01144.4647,E,72.75,72.81,220114,,,A*6B
$GPGGA,154759.000,5354.4508,N,01144.6967,E,1,13,0.80,55.6,M,44.8,M,,*53
$GPRMC,154758.000,A,5354.4448,N,01144.6636,E,73.36,72.77,220114,,,A*6A
$GPGGA,154805.000,5354.4869,N,01144.8965,E,1,13,0.80,54.0,M,44.8,M,,*54
$GPRMC,154804.000,A,5354.4808,N,01144.8630,E,74.73,72.87,220114,,,A*65
$GPGGA,154811.000,5354.5210,N,01145.0938,E,1,13,0.80,53.0,M,44.8,M,,*52
$GPRMC,154810.000,A,5354.5154,N,01145.0619,E,72.08,73.73,220114,,,A*63
$GPGGA,154817.000,5354.5563,N,01145.2855,E,1,13,0.80,52.5,M,44.8,M,,*5B
$GPRMC,154816.000,A,5354.5503,N,01145.2530,E,71.97,72.72,220114,,,A*6C
$GPGGA,154823.000,5354.5923,N,01145.4858,E,1,13,0.80,51.4,M,44.7,M,,*52
$GPRMC,154822.000,A,5354.5861,N,01145.4518,E,74.96,73.06,220114,,,A*68
$GPGGA,154829.000,5354.6304,N,01145.6944,E,1,13,0.80,50.2,M,44.7,M,,*5D
$GPRMC,154828.000,A,5354.6240,N,01145.6601,E,76.55,72.74,220114,,,A*68
$GPGGA,154835.000,5354.6663,N,01145.8928,E,1,13,0.80,49.1,M,44.7,M,,*5B
$GPRMC,154834.000,A,5354.6604,N,01145.8608,E,71.69,72.94,220114,,,A*60
$GPGGA,154841.000,5354.7008,N,01146.0777,E,1,13,0.80,48.4,M,44.7,M,,*59
$GPRMC,154840.000,A,5354.6948,N,01146.0466,E,69.27,72.35,220114,,,A*6D
$GPGGA,154847.000,5354.7403,N,01146.2720,E,1,13,0.80,46.9,M,44.7,M,,*53
$GPRMC,154846.000,A,5354.7333,N,01146.2387,E,75.01,70.81,220114,,,A*62
$GPGGA,154853.000,5354.7841,N,01146.4716,E,1,13,0.80,47.5,M,44.7,M,,*52
$GPRMC,154852.000,A,5354.7767,N,01146.4392,E,75.14,69.34,220114,,,A*62
$GPGGA,154859.000,5354.8286,N,01146.6541,E,1,12,0.81,51.3,M,44.7,M,,*55
$GPRMC,154858.000,A,5354.8210,N,01146.6242,E,68.86,66.87,220114,,,A*6C
$GPGGA,154905.000,5354.8770,N,01146.8283,E,1,10,0.96,56.3,M,44.7,M,,*55
$GPRMC,154904.000,A,5354.8687,N,01146.7995,E,67.95,64.08,220114,,,A*66
$GPGGA,154911.000,5354.9288,N,01147.0009,E,1,11,0.86,59.6,M,44.7,M,,*50
$GPRMC,154910.000,A,5354.9199,N,01146.9720,E,68.49,62.47,220114,,,A*67
$GPGGA,154917.000,5354.9838,N,01147.1705,E,1,13,0.80,60.2,M,44.7,M,,*57
$GPRMC,154916.000,A,5354.9743,N,01147.1427,E,68.95,60.35,220114,,,A*6B
$GPGGA,154923.000,5355.0426,N,01147.3358,E,1,13,0.80,58.7,M,44.7,M,,*5B
$GPRMC,154922.000,A,5355.0326,N,01147.3088,E,68.50,58.07,220114,,,A*63
$GPGGA,154929.000,5355.1048,N,01147.4937,E,1,11,0.94,56.6,M,44.7,M,,*50
$GPRMC,154928.000,A,5355.0941,N,01147.4676,E,66.94,55.90,220114,,,A*67
$GPGGA,154935.000,5355.1709,N,01147.6501,E,1,12,0.81,54.0,M,44.7,M,,*57
$GPRMC,154934.000,A,5355.1598,N,01147.6247,E,67.50,54.03,220114,,,A*65
$GPGGA,154941.000,5355.2405,N,01147.8019,E,1,13,0.80,50.0,M,44.7,M,,*5E
$GPRMC,154940.000,A,5355.2288,N,01147.7769,E,68.25,51.47,220114,,,A*63
$GPGGA,154947.000,5355.3140,N,01147.9520,E,1,13,0.80,46.7,M,44.7,M,,*53
$GPRMC,154946.000,A,5355.3014,N,01147.9272,E,69.87,49.96,220114,,,A*6E
$GPGGA,154953.000,5355.3910,N,01148.1009,E,1,13,0.80,43.3,M,44.7,M,,*53
$GPRMC,154952.000,A,5355.3780,N,01148.0762,E,70.66,48.27,220114,,,A*6F
$GPGGA,154959.000,5355.4689,N,01148.2446,E,1,13,0.80,40.5,M,44.7,M,,*58
$GPRMC,154958.000,A,5355.4559,N,01148.2209,E,68.99,47.20,220114,,,A*6F
$GPGGA,155005.000,5355.5462,N,01148.3837,E,1,12,0.81,39.2,M,44.7,M,,*5D
$GPRMC,155004.000,A,5355.5332,N,01148.3609,E,67.41,46.17,220114,,,A*6E
$GPGGA,155011.000,5355.6265,N,01148.5239,E,1,12,0.81,39.2,M,44.7,M,,*58
$GPRMC,155010.000,A,5355.6130,N,01148.5005,E,69.22,45.52,220114,,,A*6D
$GPGGA,155017.000,5355.7093,N,01148.6650,E,1,12,0.81,41.2,M,44.7,M,,*53
$GPRMC,155016.000,A,5355.6954,N,01148.6415,E,70.44,45.48,220114,,,A*64
$GPGGA,155023.000,5355.7910,N,01148.8047,E,1,12,0.81,42.7,M,44.7,M,,*5E
$GPRMC,155022.000,A,5355.7778,N,01148.7821,E,68.23,45.50,220114,,,A*69
$GPGGA,155029.000,5355.8683,N,01148.9365,E,1,12,0.81,43.2,M,44.7,M,,*58
$GPRMC,155028.000,A,5355.8554,N,01148.9145,E,66.16,45.15,220114,,,A*6C
$GPGGA,155035.000,5355.9482,N,01149.0728,E,1,11,0.86,41.7,M,44.7,M,,*51
$GPRMC,155034.000,A,5355.9347,N,01149.0498,E,69.04,45.25,220114,,,A*66
$GPGGA,155041.000,5356.0304,N,01149.2147,E,1,12,0.81,40.3,M,44.7,M,,*5D
$GPRMC,155040.000,A,5356.0166,N,01149.1910,E,71.05,45.45,220114,,,A*6C
$GPGGA,155047.000,5356.1130,N,01149.3605,E,1,12,0.81,40.3,M,44.7,M,,*5F
$GPRMC,155046.000,A,5356.0995,N,01149.3364,E,71.52,46.53,220114,,,A*63
$GPGGA,155053.000,5356.1910,N,01149.4947,E,1,12,0.81,42.2,M,44.7,M,,*5D
$GPRMC,155052.000,A,5356.1786,N,01149.4734,E,64.53,45.78,220114,,,A*62
$GPGGA,155100.000,5356.2730,N,01149.6341,E,1,12,0.81,44.1,M,44.6,M,,*5F
$GPRMC,155059.000,A,5356.2612,N,01149.6146,E,58.49,45.11,220114,,,A*6C
$GPGGA,155107.000,5356.3635,N,01149.7841,E,1,12,0.81,44.0,M,44.6,M,,*56
$GPRMC,155106.000,A,5356.3498,N,01149.7608,E,69.24,45.26,220114,,,A*67
$GPGGA,155113.000,5356.4488,N,01149.9316,E,1,13,0.78,41.9,M,44.6,M,,*5C
$GPRMC,155112.000,A,5356.4344,N,01149.9069,E,73.84,45.51,220114,,,A*6D
$GPGGA,155119.000,5356.5322,N,01150.0752,E,1,13,0.80,38.7,M,44.6,M,,*52
$GPRMC,155118.000,A,5356.5185,N,01150.0513,E,71.33,45.34,220114,,,A*6D
$GPGGA,155125.000,5356.6191,N,01150.2245,E,1,13,0.80,35.5,M,44.6,M,,*5A
$GPRMC,155124.000,A,5356.6043,N,01150.1989,E,75.99,45.30,220114,,,A*64
$GPGGA,155131.000,5356.7078,N,01150.3766,E,1,13,0.80,33.8,M,44.6,M,,*56
$GPRMC,155130.000,A,5356.6928,N,01150.3510,E,76.29,45.28,220114,,,A*6A
$GPGGA,155137.000,5356.7981,N,01150.5328,E,1,13,0.80,35.4,M,44.6,M,,*5D
$GPRMC,155136.000,A,5356.7829,N,01150.5067,E,78.48,45.69,220114,,,A*62
$GPGGA,155143.000,5356.8813,N,01150.6778,E,1,13,0.80,38.4,M,44.6,M,,*54
$GPRMC,155142.000,A,5356.8687,N,01150.6554,E,66.81,46.02,220114,,,A*66
$GPGGA,155150.000,5356.9652,N,01150.8273,E,1,13,0.80,39.8,M,44.6,M,,*51
$GPRMC,155149.000,A,5356.9537,N,01150.8067,E,60.74,46.39,220114,,,A*6B
$GPGGA,155157.000,5357.0483,N,01150.9799,E,1,12,0.81,39.6,M,44.6,M,,*5E
$GPRMC,155156.000,A,5357.0358,N,01150.9568,E,65.94,47.31,220114,,,A*6B
$GPGGA,155203.000,5357.1236,N,01151.1212,E,1,14,0.74,38.0,M,44.6,M,,*51
$GPRMC,155202.000,A,5357.1113,N,01151.0977,E,67.67,48.13,220114,,,A*6E
$GPGGA,155209.000,5357.1968,N,01151.2627,E,1,14,0.74,36.9,M,44.6,M,,*5D
$GPRMC,155208.000,A,5357.1843,N,01151.2383,E,68.02,48.84,220114,,,A*69
$GPGGA,155215.000,5357.2726,N,01151.4141,E,1,14,0.74,36.0,M,44.6,M,,*5F
$GPRMC,155214.000,A,5357.2601,N,01151.3885,E,70.74,50.10,220114,,,A*6F
$GPGGA,155221.000,5357.3448,N,01151.5681,E,1,14,0.74,35.9,M,44.6,M,,*52
$GPRMC,155220.000,A,5357.3333,N,01151.5424,E,68.78,52.75,220114,,,A*68
$GPGGA,155227.000,5357.4109,N,01151.7161,E,1,14,0.74,36.1,M,44.6,M,,*53
$GPRMC,155226.000,A,5357.4003,N,01151.6924,E,63.98,52.66,220114,,,A*60
$GPGGA,155234.000,5357.4844,N,01151.8865,E,1,14,0.74,36.6,M,44.6,M,,*54
$GPRMC,155233.000,A,5357.4741,N,01151.8620,E,64.46,54.42,220114,,,A*64
$GPGGA,155240.000,5357.5463,N,01152.0400,E,1,14,0.74,36.8,M,44.6,M,,*55
$GPRMC,155239.000,A,5357.5359,N,01152.0133,E,67.76,55.98,220114,,,A*6A
$GPGGA,155246.000,5357.6118,N,01152.2065,E,1,14,0.74,36.0,M,44.6,M,,*54
$GPRMC,155245.000,A,5357.6011,N,01152.1782,E,72.32,56.61,220114,,,A*61
$GPGGA,155252.000,5357.6725,N,01152.3755,E,1,13,0.87,34.6,M,44.6,M,,*53
$GPRMC,155251.000,A,5357.6625,N,01152.3469,E,70.37,59.34,220114,,,A*69
$GPGGA,155258.000,5357.7306,N,01152.5442,E,1,13,0.75,32.8,M,44.6,M,,*5B
$GPRMC,155257.000,A,5357.7212,N,01152.5163,E,68.21,60.34,220114,,,A*63
$GPGGA,155304.000,5357.7844,N,01152.7125,E,1,13,0.76,31.8,M,44.6,M,,*58
$GPRMC,155303.000,A,5357.7757,N,01152.6852,E,66.47,61.93,220114,,,A*6D
$GPGGA,155311.000,5357.8418,N,01152.8972,E,1,14,0.74,29.3,M,44.6,M,,*54
$GPRMC,155310.000,A,5357.8340,N,01152.8713,E,61.63,62.48,220114,,,A*62
$GPGGA,155318.000,5357.8928,N,01153.0693,E,1,14,0.74,26.9,M,44.6,M,,*5F
$GPRMC,155317.000,A,5357.8860,N,01153.0460,E,55.06,63.61,220114,,,A*6C
$GPGGA,155326.000,5357.9422,N,01153.2415,E,1,13,0.80,24.0,M,44.6,M,,*5D
$GPRMC,155325.000,A,5357.9362,N,01153.2203,E,50.90,64.23,220114,,,A*6F
$GPGGA,155334.000,5357.9930,N,01153.4224,E,1,14,0.74,21.1,M,44.6,M,,*5A
$GPRMC,155333.000,A,5357.9863,N,01153.3981,E,56.00,64.41,220114,,,A*69
$GPGGA,155341.000,5358.0455,N,01153.6119,E,1,14,0.74,18.0,M,44.5,M,,*57
$GPRMC,155340.000,A,5358.0373,N,01153.5823,E,68.11,64.83,220114,,,A*6D
$GPGGA,155347.000,5358.0976,N,01153.7993,E,1,14,0.74,14.6,M,44.5,M,,*5C
$GPRMC,155346.000,A,5358.0886,N,01153.7672,E,74.26,64.41,220114,,,A*65
$GPGGA,155353.000,5358.1577,N,01153.9897,E,1,13,0.80,12.2,M,44.5,M,,*50
$GPRMC,155352.000,A,5358.1473,N,01153.9592,E,75.55,60.42,220114,,,A*66
$GPGGA,155359.000,5358.2219,N,01154.1618,E,1,14,0.74,9.1,M,44.5,M,,*65
$GPRMC,155358.000,A,5358.2109,N,01154.1344,E,70.51,56.14,220114,,,A*62
$GPGGA,155405.000,5358.2876,N,01154.3140,E,1,14,0.74,6.8,M,44.5,M,,*66
$GPRMC,155404.000,A,5358.2763,N,01154.2893,E,66.63,51.86,220114,,,A*6E
$GPGGA,155411.000,5358.3640,N,01154.4647,E,1,14,0.74,4.0,M,44.5,M,,*64
$GPRMC,155410.000,A,5358.3499,N,01154.4389,E,74.04,48.20,220114,,,A*6C
$GPGGA,155416.000,5358.4409,N,01154.5961,E,1,14,0.74,0.9,M,44.5,M,,*6C
$GPRMC,155415.000,A,5358.4249,N,01154.5700,E,80.37,44.50,220114,,,A*61
$GPGGA,155422.000,5358.5346,N,01154.7357,E,1,14,0.74,-1.7,M,44.5,M,,*49
$GPRMC,155421.000,A,5358.5195,N,01154.7139,E,71.18,40.68,220114,,,A*67
$GPGGA,155428.000,5358.6243,N,01154.8601,E,1,14,0.74,-1.5,M,44.5,M,,*4F
$GPRMC,155427.000,A,5358.6095,N,01154.8397,E,68.28,39.72,220114,,,A*64
$GPGGA,155434.000,5358.7113,N,01154.9818,E,1,13,0.76,0.0,M,44.5,M,,*6E
$GPRMC,155433.000,A,5358.6971,N,01154.9618,E,66.63,39.56,220114,,,A*66
$GPGGA,155440.000,5358.7986,N,01155.1053,E,1,14,0.74,1.1,M,44.5,M,,*62
$GPRMC,155439.000,A,5358.7838,N,01155.0842,E,69.04,40.12,220114,,,A*68
$GPGGA,155446.000,5358.8897,N,01155.2368,E,1,14,0.74,2.3,M,44.5,M,,*63
$GPRMC,155445.000,A,5358.8740,N,01155.2139,E,73.67,40.62,220114,,,A*62
$GPGGA,155452.000,5358.9847,N,01155.3783,E,1,14,0.74,3.0,M,44.5,M,,*68
$GPRMC,155451.000,A,5358.9692,N,01155.3549,E,74.81,41.72,220114,,,A*65
$GPGGA,155458.000,5359.0760,N,01155.5198,E,1,13,0.75,3.5,M,44.5,M,,*69
$GPRMC,155457.000,A,5359.0610,N,01155.4961,E,74.02,42.75,220114,,,A*6F
$GPGGA,155504.000,5359.1637,N,01155.6606,E,1,14,0.74,2.3,M,44.5,M,,*61
$GPRMC,155503.000,A,5359.1495,N,01155.6372,E,72.26,43.76,220114,,,A*69
$GPGGA,155510.000,5359.2455,N,01155.7984,E,1,14,0.74,1.8,M,44.5,M,,*6D
$GPRMC,155509.000,A,5359.2321,N,01155.7755,E,68.57,45.07,220114,,,A*65
$GPGGA,155516.000,5359.3272,N,01155.9430,E,1,14,0.74,3.3,M,44.5,M,,*6C
$GPRMC,155515.000,A,5359.3136,N,01155.9182,E,72.32,46.61,220114,,,A*64
$GPGGA,155522.000,5359.4062,N,01156.0940,E,1,14,0.74,4.8,M,44.5,M,,*63
$GPRMC,155521.000,A,5359.3932,N,01156.0688,E,71.04,48.52,220114,,,A*60
$GPGGA,155528.000,5359.4801,N,01156.2485,E,1,14,0.74,6.2,M,44.5,M,,*6A
$GPRMC,155527.000,A,5359.4683,N,01156.2228,E,68.91,51.25,220114,,,A*64
$GPGGA,155534.000,5359.5488,N,01156.4023,E,1,14,0.74,7.9,M,44.5,M,,*6F
$GPRMC,155533.000,A,5359.5376,N,01156.3766,E,67.55,53.01,220114,,,A*62
$GPGGA,155541.000,5359.6202,N,01156.5752,E,1,14,0.74,9.4,M,44.5,M,,*69
$GPRMC,155540.000,A,5359.6106,N,01156.5512,E,61.66,55.32,220114,,,A*67
$GPGGA,155548.000,5359.6863,N,01156.7526,E,1,14,0.74,10.2,M,44.5,M,,*50
$GPRMC,155547.000,A,5359.6771,N,01156.7270,E,63.88,58.23,220114,,,A*68
$GPGGA,155554.000,5359.7403,N,01156.9126,E,1,14,0.74,11.5,M,44.5,M,,*5A
$GPRMC,155553.000,A,5359.7314,N,01156.8849,E,66.54,61.16,220114,,,A*6C
$GPGGA,155600.000,5359.7899,N,01157.0787,E,1,14,0.74,11.8,M,44.5,M,,*5F
$GPRMC,155559.000,A,5359.7826,N,01157.0517,E,64.47,64.09,220114,,,A*68
$GPGGA,155607.000,5359.8387,N,01157.2695,E,1,14,0.74,11.5,M,44.5,M,,*5E
$GPRMC,155606.000,A,5359.8321,N,01157.2412,E,63.85,67.37,220114,,,A*63
$GPGGA,155614.000,5359.8830,N,01157.4698,E,1,14,0.74,11.5,M,44.4,M,,*51
$GPRMC,155613.000,A,5359.8768,N,01157.4403,E,65.83,70.00,220114,,,A*6A
$GPGGA,155620.000,5359.9165,N,01157.6594,E,1,14,0.74,11.1,M,44.4,M,,*57
$GPRMC,155619.000,A,5359.9113,N,01157.6268,E,70.89,74.52,220114,,,A*6F
$GPGGA,155626.000,5359.9431,N,01157.8624,E,1,14,0.74,9.7,M,44.4,M,,*6C
$GPRMC,155625.000,A,5359.9390,N,01157.8273,E,75.75,78.11,220114,,,A*60
$GPGGA,155632.000,5359.9635,N,01158.0792,E,1,13,0.75,8.2,M,44.4,M,,*66
$GPRMC,155631.000,A,5359.9606,N,01158.0425,E,78.73,81.89,220114,,,A*61
$GPGGA,155637.000,5359.9747,N,01158.2637,E,1,12,0.78,7.3,M,44.4,M,,*69
$GPRMC,155636.000,A,5359.9729,N,01158.2260,E,79.11,85.26,220114,,,A*6B
$GPGGA,155642.000,5359.9793,N,01158.4524,E,1,14,0.74,6.5,M,44.4,M,,*68
$GPRMC,155641.000,A,5359.9790,N,01158.4147,E,79.30,88.22,220114,,,A*63
$GPGGA,155647.000,5359.9779,N,01158.6389,E,1,14,0.74,5.2,M,44.4,M,,*6E
$GPRMC,155646.000,A,5359.9782,N,01158.6021,E,78.46,90.21,220114,,,A*6E
$GPGGA,155652.000,5359.9773,N,01158.8241,E,1,14,0.74,4.6,M,44.4,M,,*6E
$GPRMC,155651.000,A,5359.9773,N,01158.7877,E,78.08,89.98,220114,,,A*6C
$GPGGA,155658.000,5359.9793,N,01159.0428,E,1,14,0.74,5.0,M,44.4,M,,*6D
$GPRMC,155657.000,A,5359.9787,N,01159.0060,E,77.68,88.96,220114,,,A*6F
$GPGGA,155703.000,5359.9844,N,01159.2269,E,1,12,0.78,4.9,M,44.4,M,,*64
$GPRMC,155702.000,A,5359.9831,N,01159.1901,E,77.93,87.02,220114,,,A*65
$GPGGA,155708.000,5359.9941,N,01159.4103,E,1,13,0.75,5.4,M,44.4,M,,*62
$GPRMC,155707.000,A,5359.9916,N,01159.3732,E,79.56,83.64,220114,,,A*6B
$GPGGA,155713.000,5400.0083,N,01159.5955,E,1,14,0.74,5.6,M,44.4,M,,*63
$GPRMC,155712.000,A,5400.0053,N,01159.5593,E,78.29,82.17,220114,,,A*66
$GPGGA,155719.000,5400.0295,N,01159.8101,E,1,14,0.74,5.0,M,44.4,M,,*6E
$GPRMC,155718.000,A,5400.0255,N,01159.7739,E,77.97,79.71,220114,,,A*66
$GPGGA,155724.000,5400.0529,N,01159.9932,E,1,14,0.74,4.6,M,44.4,M,,*6E
$GPRMC,155723.000,A,5400.0477,N,01159.9563,E,80.52,76.98,220114,,,A*62
$GPGGA,155729.000,5400.0808,N,01200.1740,E,1,14,0.74,4.0,M,44.4,M,,*67
$GPRMC,155728.000,A,5400.0748,N,01200.1383,E,79.23,74.91,220114,,,A*62
$GPGGA,155735.000,5400.1178,N,01200.3771,E,1,14,0.74,3.4,M,44.4,M,,*66
$GPRMC,155734.000,A,5400.1114,N,01200.3443,E,73.76,72.01,220114,,,A*6D
$GPGGA,155741.000,5400.1568,N,01200.5644,E,1,14,0.74,2.5,M,44.4,M,,*61
$GPRMC,155740.000,A,5400.1503,N,01200.5345,E,68.53,69.68,220114,,,A*63
$GPGGA,155747.000,5400.1990,N,01200.7429,E,1,14,0.74,1.9,M,44.4,M,,*68
$GPRMC,155746.000,A,5400.1917,N,01200.7134,E,68.17,67.41,220114,,,A*6F
$GPGGA,155754.000,5400.2499,N,01200.9334,E,1,14,0.74,2.7,M,44.4,M,,*65
$GPRMC,155753.000,A,5400.2425,N,01200.9077,E,61.15,64.64,220114,,,A*63
$GPGGA,155801.000,5400.3068,N,01201.1178,E,1,14,0.74,4.9,M,44.4,M,,*6A
$GPRMC,155800.000,A,5400.2983,N,01201.0913,E,64.24,61.94,220114,,,A*65
$GPGGA,155808.000,5400.3657,N,01201.2936,E,1,12,0.77,7.2,M,44.4,M,,*65
$GPRMC,155807.000,A,5400.3574,N,01201.2691,E,60.10,59.61,220114,,,A*62
$GPGGA,155815.000,5400.4269,N,01201.4658,E,1,13,0.75,7.9,M,44.4,M,,*6E
$GPRMC,155814.000,A,5400.4181,N,01201.4415,E,61.07,58.22,220114,,,A*60
$GPGGA,155822.000,5400.4899,N,01201.6319,E,1,14,0.74,9.5,M,44.4,M,,*69
$GPRMC,155821.000,A,5400.4810,N,01201.6080,E,60.42,57.47,220114,,,A*61
$GPGGA,155829.000,5400.5587,N,01201.8119,E,1,14,0.74,10.8,M,44.4,M,,*58
$GPRMC,155828.000,A,5400.5485,N,01201.7848,E,68.52,57.11,220114,,,A*6E
$GPGGA,155835.000,5400.6180,N,01201.9672,E,1,14,0.74,11.3,M,44.4,M,,*54
$GPRMC,155834.000,A,5400.6082,N,01201.9410,E,65.53,57.28,220114,,,A*6A
$GPGGA,155841.000,5400.6811,N,01202.1361,E,1,13,0.75,11.7,M,44.3,M,,*5F
$GPRMC,155840.000,A,5400.6704,N,01202.1071,E,72.70,57.98,220114,,,A*64
$GPGGA,155847.000,5400.7423,N,01202.3089,E,1,13,0.75,12.9,M,44.3,M,,*5F
$GPRMC,155846.000,A,5400.7324,N,01202.2804,E,70.08,59.57,220114,,,A*6C
$GPGGA,155853.000,5400.8001,N,01202.4835,E,1,14,0.74,14.0,M,44.3,M,,*50
$GPRMC,155852.000,A,5400.7905,N,01202.4537,E,71.32,61.38,220114,,,A*61
$GPGGA,155859.000,5400.8558,N,01202.6689,E,1,13,0.75,14.7,M,44.3,M,,*59
$GPRMC,155858.000,A,5400.8470,N,01202.6372,E,74.50,63.94,220114,,,A*6B
$GPGGA,155905.000,5400.9063,N,01202.8603,E,1,14,0.74,14.9,M,44.3,M,,*59
$GPRMC,155904.000,A,5400.8980,N,01202.8288,E,73.68,65.65,220114,,,A*6F
$GPGGA,155911.000,5400.9508,N,01203.0429,E,1,13,0.75,15.3,M,44.3,M,,*5A
$GPRMC,155910.000,A,5400.9440,N,01203.0138,E,67.95,67.72,220114,,,A*68
$GPGGA,155917.000,5400.9898,N,01203.2145,E,1,8,1.13,19.0,M,44.3,M,,*61
$GPRMC,155916.000,A,5400.9836,N,01203.1848,E,67.20,70.69,220114,,,A*6E
$GPGGA,155923.000,5401.0282,N,01203.3993,E,1,14,0.73,20.3,M,44.3,M,,*5E
$GPRMC,155922.000,A,5401.0220,N,01203.3678,E,70.45,71.65,220114,,,A*6B
$GPGGA,155929.000,5401.0634,N,01203.5902,E,1,10,1.11,20.7,M,44.3,M,,*56
$GPRMC,155928.000,A,5401.0578,N,01203.5583,E,71.38,73.78,220114,,,A*6F
$GPGGA,155935.000,5401.0906,N,01203.7745,E,1,14,0.74,21.3,M,44.3,M,,*59
$GPRMC,155934.000,A,5401.0864,N,01203.7440,E,67.28,76.10,220114,,,A*63
$GPGGA,155941.000,5401.1152,N,01203.9576,E,1,14,0.73,21.7,M,44.3,M,,*5D
$GPRMC,155940.000,A,5401.1113,N,01203.9270,E,66.93,77.70,220114,,,A*65
$GPGGA,155947.000,5401.1363,N,01204.1408,E,1,14,0.74,22.0,M,44.3,M,,*5F
$GPRMC,155946.000,A,5401.1330,N,01204.1103,E,65.80,79.15,220114,,,A*64
$GPGGA,155953.000,5401.1534,N,01204.3244,E,1,13,0.79,24.0,M,44.3,M,,*5E
$GPRMC,155952.000,A,5401.1509,N,01204.2942,E,65.86,83.25,220114,,,A*63
$GPGGA,160000.000,5401.1686,N,01204.5107,E,1,14,0.73,23.4,M,44.3,M,,*51
$GPRMC,155959.000,A,5401.1666,N,01204.4850,E,55.54,83.12,220114,,,A*6E
$GPGGA,160007.000,5401.1802,N,01204.6945,E,1,14,0.73,22.0,M,44.3,M,,*5C
$GPRMC,160006.000,A,5401.1787,N,01204.6690,E,55.48,84.47,220114,,,A*6F
$GPGGA,160015.000,5401.1909,N,01204.8951,E,1,14,0.73,20.3,M,44.3,M,,*5F
$GPRMC,160014.000,A,5401.1895,N,01204.8687,E,55.91,85.28,220114,,,A*64
$GPGGA,160022.000,5401.1999,N,01205.0870,E,1,14,0.73,18.8,M,44.3,M,,*59
$GPRMC,160021.000,A,5401.1986,N,01205.0585,E,60.11,85.72,220114,,,A*68
$GPGGA,160029.000,5401.2092,N,01205.2897,E,1,13,0.75,17.2,M,44.3,M,,*5C
$GPRMC,160028.000,A,5401.2080,N,01205.2614,E,60.16,85.53,220114,,,A*60
$GPGGA,160037.000,5401.2158,N,01205.4743,E,1,13,0.75,16.0,M,44.3,M,,*57
$GPRMC,160036.000,A,5401.2151,N,01205.4549,E,42.74,85.86,220114,,,A*63
$GPGGA,160054.000,5401.1780,N,01205.6502,E,1,13,0.75,17.7,M,44.3,M,,*51
$GPRMC,160053.000,A,5401.1828,N,01205.6458,E,19.94,154.63,220114,,,A*51
$GPGGA,160124.000,5401.2630,N,01205.7696,E,1,13,0.75,18.4,M,44.3,M,,*5D
$GPRMC,160123.000,A,5401.2537,N,01205.7673,E,32.62,6.47,220114,,,A*5D
$GPGGA,160134.000,5401.3703,N,01205.8108,E,1,13,0.75,14.5,M,44.3,M,,*5E
$GPRMC,160133.000,A,5401.3583,N,01205.8065,E,43.09,11.98,220114,,,A*63
$GPGGA,160144.000,5401.4859,N,01205.8568,E,1,13,0.75,14.8,M,44.3,M,,*51
$GPRMC,160143.000,A,5401.4749,N,01205.8530,E,40.16,12.09,220114,,,A*64
$GPGGA,160154.000,5401.5942,N,01205.8998,E,1,13,0.75,17.7,M,44.3,M,,*55
$GPRMC,160153.000,A,5401.5842,N,01205.8952,E,37.25,13.74,220114,,,A*63
$GPGGA,160204.000,5401.6918,N,01205.9898,E,1,12,0.82,21.3,M,44.3,M,,*57
$GPRMC,160203.000,A,5401.6830,N,01205.9786,E,39.40,36.92,220114,,,A*67
$GPGGA,160214.000,5401.8007,N,01206.0423,E,1,10,1.05,24.4,M,44.3,M,,*57
$GPRMC,160213.000,A,5401.7884,N,01206.0426,E,44.03,1.37,220114,,,A*5D
$GPGGA,160224.000,5401.9144,N,01206.0042,E,1,13,0.75,26.2,M,44.3,M,,*51
$GPRMC,160223.000,A,5401.9037,N,01206.0094,E,40.02,345.05,220114,,,A*5A
$GPGGA,160234.000,5402.0214,N,01205.9660,E,1,11,0.86,27.3,M,44.3,M,,*5E
$GPRMC,160233.000,A,5402.0100,N,01205.9671,E,41.29,355.29,220114,,,A*54
$GPGGA,160244.000,5402.1340,N,01206.0041,E,1,12,0.76,24.5,M,44.2,M,,*5F
$GPRMC,160243.000,A,5402.1235,N,01205.9963,E,41.83,21.36,220114,,,A*65
$GPGGA,160254.000,5402.2217,N,01206.1176,E,1,13,0.74,21.9,M,44.2,M,,*50
$GPRMC,160253.000,A,5402.2147,N,01206.1034,E,39.00,48.28,220114,,,A*65
$GPGGA,160304.000,5402.2976,N,01206.2738,E,1,12,0.76,19.1,M,44.2,M,,*57
$GPRMC,160303.000,A,5402.2894,N,01206.2573,E,45.45,49.87,220114,,,A*6D
$GPGGA,160313.000,5402.3718,N,01206.4171,E,1,13,0.74,17.0,M,44.2,M,,*57
$GPRMC,160312.000,A,5402.3629,N,01206.4013,E,46.13,46.97,220114,,,A*6F
$GPGGA,160322.000,5402.4592,N,01206.5517,E,1,13,0.74,15.3,M,44.2,M,,*56
$GPRMC,160321.000,A,5402.4489,N,01206.5391,E,46.00,37.07,220114,,,A*65
$GPGGA,160331.000,5402.5618,N,01206.6343,E,1,13,0.74,16.4,M,44.2,M,,*54
$GPRMC,160330.000,A,5402.5496,N,01206.6275,E,46.42,19.49,220114,,,A*62
$GPGGA,160339.000,5402.6612,N,01206.7066,E,1,13,0.74,17.8,M,44.2,M,,*5D
$GPRMC,160338.000,A,5402.6496,N,01206.6949,E,48.88,29.22,220114,,,A*6B
$GPGGA,160348.000,5402.7538,N,01206.8312,E,1,13,0.74,19.3,M,44.2,M,,*5B
$GPRMC,160347.000,A,5402.7445,N,01206.8170,E,44.91,41.80,220114,,,A*62
$GPGGA,160358.000,5402.8401,N,01206.9541,E,1,13,0.74,20.8,M,44.2,M,,*5E
$GPRMC,160357.000,A,5402.8314,N,01206.9437,E,38.20,36.04,220114,,,A*65
$GPGGA,160408.000,5402.9416,N,01207.0407,E,1,13,0.74,21.7,M,44.2,M,,*5E
$GPRMC,160407.000,A,5402.9302,N,01207.0338,E,43.33,20.17,220114,,,A*6A
$GPGGA,160417.000,5403.0553,N,01207.0763,E,1,13,0.74,20.9,M,44.2,M,,*56
$GPRMC,160416.000,A,5403.0425,N,01207.0741,E,46.91,6.57,220114,,,A*57
$GPGGA,160426.000,5403.1647,N,01207.0914,E,1,13,0.74,20.3,M,44.2,M,,*57
$GPRMC,160425.000,A,5403.1530,N,01207.0901,E,42.16,4.41,220114,,,A*57
$GPGGA,160437.000,5403.2816,N,01207.0911,E,1,13,0.74,20.4,M,44.2,M,,*5C
$GPRMC,160436.000,A,5403.2722,N,01207.0925,E,33.95,355.55,220114,,,A*5E
$GPGGA,160449.000,5403.3945,N,01207.0561,E,1,13,0.74,18.7,M,44.2,M,,*50
$GPRMC,160448.000,A,5403.3853,N,01207.0594,E,34.28,348.11,220114,,,A*54
$GPGGA,160503.000,5403.5034,N,01207.0341,E,1,12,0.74,17.2,M,44.2,M,,*59
$GPRMC,160502.000,A,5403.4969,N,01207.0340,E,23.04,359.52,220114,,,A*54
ping
$DeviceName=pironex_auto
$Software=0.1.3
$Hardware=1
$LastValidPosition=
$IMEI=359193030849087
$LocalIP=10.157.166.123
$CmdVersion=2
$SUCCESS
$<end>
ping
$<MSG.Info.ServerLogin>
$DeviceName=pironex_auto
$Software=0.1.3
$Hardware=1
$LastValidPosition=
$IMEI=359193030849087
$LocalIP=10.67.56.116
$CmdVersion=2
$SUCCESS
$<end>
$GPGGA,162112.000,5403.6229,N,01207.0701,E,1,6,1.03,72.4,M,44.2,M,,*63
$GPRMC,162110.916,V,,,,,2.78,287.85,220114,,,N*4F
ping
$GPGGA,162148.000,5403.7351,N,01207.0490,E,1,13,0.77,38.2,M,44.2,M,,*56
$GPRMC,162147.000,A,5403.7273,N,01207.0491,E,26.89,359.22,220114,,,A*5C
$GPGGA,162201.000,5403.8430,N,01207.0526,E,1,12,0.89,33.4,M,44.2,M,,*56
$GPRMC,162200.000,A,5403.8349,N,01207.0521,E,29.17,1.03,220114,,,A*54
$GPGGA,162215.000,5403.9529,N,01207.0518,E,1,11,0.85,32.6,M,44.2,M,,*5A
$GPRMC,162214.000,A,5403.9454,N,01207.0530,E,26.72,356.08,220114,,,A*5D
$GPGGA,162231.000,5404.0586,N,01207.0179,E,1,13,0.77,27.9,M,44.2,M,,*50
$GPRMC,162230.000,A,5404.0518,N,01207.0198,E,25.09,350.79,220114,,,A*55
$GPGGA,162254.000,5404.1662,N,01207.0010,E,1,10,0.97,28.2,M,44.2,M,,*5C
$GPRMC,162253.000,A,5404.1622,N,01207.0013,E,14.13,357.35,220114,,,A*5F
ping
ping
$GPGGA,162419.000,5404.2750,N,01207.0005,E,1,14,0.75,28.1,M,44.2,M,,*5F
$GPRMC,162418.000,A,5404.2728,N,01207.0004,E,5.99,359.74,220114,,,A*61
$GPGGA,162444.000,5404.3545,N,01207.1452,E,1,10,0.89,25.0,M,44.2,M,,*5C
$GPRMC,162443.000,A,5404.3492,N,01207.1317,E,34.06,57.10,220114,,,A*67
$GPGGA,162456.000,5404.4412,N,01207.2754,E,1,11,0.82,22.4,M,44.2,M,,*54
$GPRMC,162455.000,A,5404.4334,N,01207.2668,E,33.71,33.67,220114,,,A*67
$GPGGA,162520.000,5404.5403,N,01207.3681,E,1,13,0.87,19.7,M,44.2,M,,*51
$GPRMC,162519.000,A,5404.5337,N,01207.3626,E,25.60,25.56,220114,,,A*65
$GPGGA,162536.000,5404.6382,N,01207.4492,E,1,13,0.79,12.8,M,44.2,M,,*59
$GPRMC,162535.000,A,5404.6331,N,01207.4449,E,20.79,26.12,220114,,,A*6C
$GPGGA,162553.000,5404.7391,N,01207.5325,E,1,14,0.75,5.0,M,44.2,M,,*66
$GPRMC,162552.000,A,5404.7325,N,01207.5271,E,26.30,26.00,220114,,,A*6D
$GPGGA,162607.000,5404.8395,N,01207.6120,E,1,7,1.28,3.6,M,44.2,M,,*50
$GPRMC,162606.000,A,5404.8318,N,01207.6072,E,30.01,23.11,220114,,,A*6C
$GPGGA,162623.000,5404.9457,N,01207.6620,E,1,12,0.84,7.0,M,44.2,M,,*68
$GPRMC,162622.000,A,5404.9382,N,01207.6633,E,26.58,355.76,220114,,,A*53
$GPGGA,162639.000,5405.0524,N,01207.6116,E,1,12,0.82,7.0,M,44.2,M,,*6A
$GPRMC,162638.000,A,5405.0481,N,01207.6136,E,16.73,344.42,220114,,,A*5B
ping
ping
$GPGGA,162806.000,5405.1531,N,01207.6878,E,1,12,0.83,11.4,M,44.2,M,,*5E
$GPRMC,162805.000,A,5405.1508,N,01207.6761,E,26.21,73.75,220114,,,A*69
$GPGGA,162822.000,5405.1396,N,01207.8800,E,1,12,1.08,14.5,M,44.2,M,,*54
$GPRMC,162821.000,A,5405.1430,N,01207.8676,E,29.03,114.57,220114,,,A*53
$GPGGA,162837.000,5405.1184,N,01208.0600,E,1,13,0.77,17.0,M,44.1,M,,*55
$GPRMC,162836.000,A,5405.1184,N,01208.0516,E,17.80,87.79,220114,,,A*6C
ping
ping
ping
ping
ping
$GPGGA,163119.000,5405.1841,N,01208.2054,E,1,10,0.87,20.4,M,44.1,M,,*58
$GPRMC,163118.000,A,5405.1839,N,01208.1979,E,16.55,90.11,220114,,,A*62
ping
$<MSG.Info.ServerLogin>
$DeviceName=pironex_auto
$Software=0.1.3
$Hardware=1
$LastValidPosition=
$IMEI=359193030849087
$LocalIP=10.40.205.130
$CmdVersion=2
$SUCCESS
$<end>
ping
ping
$GPGGA,163731.000,5405.1900,N,01208.3355,E,1,10,0.88,28.8,M,44.1,M,,*58
$GPRMC,163730.000,A,5405.1900,N,01208.3271,E,16.93,87.39,220114,,,A*62
ping
$GPGGA,163813.000,5405.2825,N,01208.4314,E,1,10,0.95,31.6,M,44.1,M,,*5A
$GPRMC,163812.000,A,5405.2808,N,01208.4308,E,5.89,9.40,220114,,,A*6E
ping
$GPGGA,163854.000,5405.2432,N,01208.6040,E,1,11,1.01,5.9,M,44.1,M,,*66
$GPRMC,163853.000,A,5405.2451,N,01208.6020,E,8.64,153.25,220114,,,A*63
ping
ping
$GPGGA,164003.000,5405.3264,N,01208.7246,E,1,9,1.05,16.8,M,44.1,M,,*64
$GPRMC,164002.000,A,5405.3233,N,01208.7221,E,11.61,27.49,220114,,,A*6C
ping
ping
$GPGGA,164109.000,5405.4091,N,01208.6044,E,1,10,0.93,9.4,M,44.1,M,,*65
$GPRMC,164109.000,A,5405.4046,N,01208.6056,E,15.64,355.48,220114,,,A*54
ping
$GPGGA,164147.000,5405.4826,N,01208.4661,E,1,10,0.88,8.2,M,44.1,M,,*65
$GPRMC,164146.000,A,5405.4807,N,01208.4693,E,6.81,272.14,220114,,,A*6B
ping
ping
$DeviceName=pironex_auto
$Software=0.1.3
$Hardware=1
$LastValidPosition=
$IMEI=359193030849087
$LocalIP=10.54.89.86
$CmdVersion=2
$SUCCESS
$<end>
$GPGGA,061825.000,5405.5018,N,01208.3660,E,1,3,5.30,105.9,M,44.1,M,,*5D
$GPRMC,061824.000,V,,,,,0.94,199.52,230114,,,N*4A
ping
ping
ping
ping
$GPGGA,062046.000,5405.4260,N,01208.4966,E,1,11,0.87,107.9,M,44.1,M,,*69
$GPRMC,062045.000,A,5405.4256,N,01208.4918,E,9.24,97.86,230114,,,A*5F
ping
$GPGGA,062122.000,5405.3469,N,01208.6277,E,1,12,0.87,64.4,M,44.1,M,,*51
$GPRMC,062121.000,A,5405.3524,N,01208.6262,E,18.99,171.18,230114,,,A*55
$GPGGA,062144.000,5405.2390,N,01208.6669,E,1,10,1.03,60.8,M,44.1,M,,*5D
$GPRMC,062143.000,A,5405.2422,N,01208.6674,E,11.41,172.09,230114,,,A*5B
$GPGGA,062207.000,5405.1275,N,01208.6763,E,1,13,0.73,66.8,M,44.1,M,,*58
$GPRMC,062206.000,A,5405.1337,N,01208.6749,E,22.42,171.74,230114,,,A*5C
ping
$GPGGA,062248.000,5405.2047,N,01208.8078,E,1,12,0.77,44.8,M,44.1,M,,*55
$GPRMC,062247.000,A,5405.2049,N,01208.7965,E,24.77,84.69,230114,,,A*66
$GPGGA,062302.000,5405.1400,N,01208.9572,E,1,12,0.79,40.1,M,44.1,M,,*53
$GPRMC,062301.000,A,5405.1454,N,01208.9457,E,31.07,128.62,230114,,,A*53
$GPGGA,062315.000,5405.0672,N,01209.1057,E,1,12,0.79,37.9,M,44.1,M,,*50
$GPRMC,062314.000,A,5405.0725,N,01209.0943,E,30.79,128.90,230114,,,A*56
$GPGGA,062331.000,5404.9967,N,01209.2482,E,1,14,0.73,40.3,M,44.1,M,,*5C
$GPRMC,062330.000,A,5405.0010,N,01209.2404,E,22.07,126.75,230114,,,A*52
$GPGGA,062350.000,5404.9351,N,01209.4065,E,1,12,0.79,34.5,M,44.1,M,,*56
$GPRMC,062349.000,A,5404.9379,N,01209.3988,E,17.94,98.61,230114,,,A*6D
$GPGGA,062405.000,5404.8822,N,01209.5720,E,1,13,0.78,34.2,M,44.1,M,,*5F
$GPRMC,062404.000,A,5404.8840,N,01209.5592,E,27.60,105.72,230114,,,A*5D
$GPGGA,062418.000,5404.8785,N,01209.7568,E,1,12,0.81,29.3,M,44.1,M,,*57
$GPRMC,062417.000,A,5404.8788,N,01209.7419,E,30.13,93.31,230114,,,A*6F
$GPGGA,062430.000,5404.8765,N,01209.9435,E,1,12,0.86,30.9,M,44.1,M,,*51
$GPRMC,062429.000,A,5404.8763,N,01209.9278,E,33.01,88.91,230114,,,A*68
$GPGGA,062442.000,5404.8813,N,01210.1306,E,1,14,0.73,35.9,M,44.1,M,,*54
$GPRMC,062441.000,A,5404.8806,N,01210.1149,E,33.66,85.73,230114,,,A*6B
$GPGGA,062456.000,5404.8853,N,01210.3185,E,1,13,0.75,37.4,M,44.1,M,,*50
$GPRMC,062455.000,A,5404.8853,N,01210.3061,E,25.81,89.96,230114,,,A*6E
$GPGGA,062513.000,5404.8826,N,01210.5069,E,1,10,0.94,38.2,M,44.1,M,,*52
$GPRMC,062512.000,A,5404.8827,N,01210.4987,E,18.30,91.69,230114,,,A*64
ping
$GPGGA,062603.000,5404.8193,N,01210.6618,E,1,13,0.72,32.2,M,44.1,M,,*55
$GPRMC,062602.000,A,5404.8267,N,01210.6578,E,27.02,161.08,230114,,,A*52
$GPGGA,062616.000,5404.7089,N,01210.7050,E,1,11,0.86,30.2,M,44.1,M,,*54
$GPRMC,062615.000,A,5404.7164,N,01210.7060,E,27.10,185.07,230114,,,A*50
$GPGGA,062630.000,5404.5949,N,01210.6802,E,1,15,0.64,23.4,M,44.1,M,,*55
$GPRMC,062629.000,A,5404.6024,N,01210.6830,E,28.00,190.72,230114,,,A*5F
ping
$GPGGA,062705.000,5404.4986,N,01210.7630,E,1,15,0.65,20.9,M,44.1,M,,*51
$GPRMC,062704.000,A,5404.4998,N,01210.7552,E,17.68,105.57,230114,,,A*5C
$DeviceName=pironex_auto
$Software=0.1.3
$Hardware=1
$LastValidPosition=
$IMEI=359193030849087
$LocalIP=10.45.136.76
$CmdVersion=2
$SUCCESS
$<end>
$GPGGA,112935.000,5404.4935,N,01210.8119,E,1,6,1.67,27.3,M,44.1,M,,*6D
$GPRMC,112933.355,V,,,,,1.66,10.30,230114,,,N*73
$GPGGA,113000.000,5404.5612,N,01210.6663,E,1,6,1.74,20.7,M,44.1,M,,*6D
$GPRMC,112959.000,A,5404.5546,N,01210.6643,E,23.64,8.30,230114,,,A*56
$GPGGA,113013.000,5404.6674,N,01210.7009,E,1,6,1.67,25.1,M,44.1,M,,*66
$GPRMC,113012.000,A,5404.6593,N,01210.6995,E,29.23,6.03,230114,,,A*59
$GPGGA,113028.000,5404.7776,N,01210.6846,E,1,6,1.67,24.0,M,44.1,M,,*6E
$GPRMC,113027.000,A,5404.7700,N,01210.6886,E,28.69,342.24,230114,,,A*5C
ping
$GPGGA,113128.000,5404.8754,N,01210.7652,E,1,7,1.27,21.7,M,44.1,M,,*6D
$GPRMC,113127.000,A,5404.8753,N,01210.7573,E,16.01,91.32,230114,,,A*6B
$GPGGA,113144.000,5404.8710,N,01210.9621,E,1,8,1.00,20.6,M,44.1,M,,*67
$GPRMC,113143.000,A,5404.8714,N,01210.9471,E,30.84,92.31,230114,,,A*6E
$GPGGA,113158.000,5404.8660,N,01211.1547,E,1,8,1.00,22.0,M,44.1,M,,*62
$GPRMC,113157.000,A,5404.8664,N,01211.1411,E,28.62,93.45,230114,,,A*61
$DeviceName=pironex_auto
$Software=0.1.3
$Hardware=1
$LastValidPosition=
$IMEI=359193030849087
$LocalIP=10.48.83.140
$CmdVersion=2
$SUCCESS
$<end>
$GPGGA,115343.000,5404.8519,N,01211.2446,E,1,8,0.99,18.4,M,44.1,M,,*6E
$GPRMC,115341.011,V,,,,,0.00,0.00,230114,,,N*4B
ping
ping
ping
$GPGGA,115521.000,5404.8717,N,01211.0626,E,1,10,0.83,28.7,M,44.1,M,,*54
$GPRMC,115520.000,A,5404.8714,N,01211.0788,E,33.05,272.08,230114,,,A*58
$GPGGA,115531.000,5404.8760,N,01210.8723,E,1,10,0.83,27.1,M,44.1,M,,*51
$GPRMC,115530.000,A,5404.8756,N,01210.8923,E,41.86,272.32,230114,,,A*5E
$GPGGA,115541.000,5404.8810,N,01210.6812,E,1,10,0.83,27.4,M,44.1,M,,*58
$GPRMC,115540.000,A,5404.8806,N,01210.6966,E,35.98,272.69,230114,,,A*5E
ping
ping
$GPGGA,115644.000,5404.9763,N,01210.5842,E,1,11,0.77,25.2,M,44.1,M,,*5C
$GPRMC,115643.000,A,5404.9719,N,01210.5864,E,17.13,345.20,230114,,,A*55
$DeviceName=pironex_auto
$Software=0.1.3
$Hardware=1
$LastValidPosition=
$IMEI=359193030849087
$LocalIP=10.39.114.92
$CmdVersion=2
$SUCCESS
$<end>
ping
ping
$GPGGA,155146.000,5404.9000,N,01210.7778,E,1,11,0.85,22.1,M,44.1,M,,*52
$GPRMC,155145.000,V,,,,,0.01,169.83,230114,,,N*4D
$GPGGA,155209.000,5404.8981,N,01210.5805,E,1,13,0.79,65.0,M,44.1,M,,*5F
$GPRMC,155208.000,A,5404.8970,N,01210.5994,E,38.77,271.98,230114,,,A*5E
$GPGGA,155218.000,5404.9059,N,01210.3922,E,1,13,0.73,63.9,M,44.1,M,,*55
$GPRMC,155217.000,A,5404.9051,N,01210.4142,E,46.05,273.29,230114,,,A*5D
$GPGGA,155228.000,5404.9070,N,01210.1976,E,1,12,0.88,61.5,M,44.1,M,,*55
$GPRMC,155227.000,A,5404.9073,N,01210.2136,E,34.50,267.16,230114,,,A*57
$GPGGA,155243.000,5404.8883,N,01210.0089,E,1,14,0.74,7.8,M,44.1,M,,*6D
$GPRMC,155242.000,A,5404.8887,N,01210.0172,E,19.91,267.56,230114,,,A*52
$GPGGA,155301.000,5404.9918,N,01209.9371,E,1,14,0.71,0.5,M,44.1,M,,*62
$GPRMC,155300.000,A,5404.9848,N,01209.9404,E,25.08,343.73,230114,,,A*5D
$GPGGA,155315.000,5405.1024,N,01209.8808,E,1,14,0.71,-0.8,M,44.1,M,,*4C
$GPRMC,155314.000,A,5405.0947,N,01209.8844,E,29.59,343.48,230114,,,A*57
$GPGGA,155331.000,5405.2128,N,01209.8269,E,1,13,0.78,-0.6,M,44.1,M,,*49
$GPRMC,155330.000,A,5405.2057,N,01209.8303,E,26.26,343.98,230114,,,A*59
$GPGGA,155346.000,5405.3167,N,01209.7760,E,1,14,0.74,-0.8,M,44.1,M,,*45
$GPRMC,155345.000,A,5405.3098,N,01209.7793,E,25.95,344.65,230114,,,A*55
$GPGGA,155403.000,5405.4208,N,01209.7250,E,1,14,0.74,-0.6,M,44.1,M,,*46
$GPRMC,155402.000,A,5405.4180,N,01209.7263,E,10.82,344.33,230114,,,A*57
$GPGGA,155427.000,5405.4271,N,01209.5377,E,1,14,0.74,0.1,M,44.1,M,,*62
$GPRMC,155426.000,A,5405.4284,N,01209.5520,E,31.50,259.59,230114,,,A*59
$GPGGA,155442.000,5405.4360,N,01209.3464,E,1,14,0.73,1.2,M,44.1,M,,*66
$GPRMC,155441.000,A,5405.4352,N,01209.3580,E,25.60,276.79,230114,,,A*57
$GPGGA,155501.000,5405.4494,N,01209.1568,E,1,14,0.73,2.6,M,44.1,M,,*64
$GPRMC,155500.000,A,5405.4486,N,01209.1648,E,18.82,277.71,230114,,,A*53
ping
$GPGGA,155555.000,5405.4822,N,01208.9806,E,1,12,0.82,1.4,M,44.1,M,,*61
$GPRMC,155554.000,A,5405.4792,N,01208.9919,E,25.77,294.36,230114,,,A*5C
$GPGGA,155611.000,5405.5313,N,01208.8127,E,1,12,0.95,0.7,M,44.1,M,,*65
$GPRMC,155610.000,A,5405.5285,N,01208.8236,E,25.06,294.45,230114,,,A*58
$GPGGA,155627.000,5405.5443,N,01208.6267,E,1,10,1.00,0.4,M,44.1,M,,*67
$GPRMC,155626.000,A,5405.5443,N,01208.6331,E,15.52,270.17,230114,,,A*56
ping
ping
ping
$GPGGA,155830.000,5405.4855,N,01208.4677,E,1,10,1.02,1.9,M,44.1,M,,*6C
$GPRMC,155829.000,A,5405.4856,N,01208.4740,E,16.26,276.07,230114,,,A*59
ping
ping
$GPGGA,155944.000,5405.4231,N,01208.3173,E,1,10,1.62,16.2,M,44.1,M,,*59
$GPRMC,155943.000,A,5405.4235,N,01208.3247,E,15.63,263.62,230114,,,A*5B
ping
$GPGGA,160015.000,5405.4065,N,01208.1319,E,1,10,1.02,16.8,M,44.1,M,,*51
$GPRMC,160014.000,A,5405.4065,N,01208.1366,E,10.38,268.85,230114,,,A*58
ping
$GPGGA,160105.000,5405.4028,N,01207.9438,E,1,9,1.00,19.5,M,44.1,M,,*63
$GPRMC,160104.000,A,5405.4028,N,01207.9512,E,15.12,268.23,230114,,,A*52
$GPGGA,160125.000,5405.3994,N,01207.7584,E,1,11,0.91,14.4,M,44.1,M,,*5C
$GPRMC,160124.000,A,5405.3994,N,01207.7670,E,18.78,268.15,230114,,,A*54
ping
ping
ping
$GPGGA,160308.000,5405.5064,N,01207.8001,E,1,13,0.74,-8.7,M,44.1,M,,*4C
$GPRMC,160307.000,A,5405.5029,N,01207.7989,E,12.67,13.96,230114,,,A*66
ping
$GPGGA,160340.000,5405.5236,N,01207.6127,E,1,9,1.14,-9.4,M,44.1,M,,*70
$GPRMC,160339.000,A,5405.5235,N,01207.6228,E,20.99,270.96,230114,,,A*52
$GPGGA,160359.000,5405.5297,N,01207.4213,E,1,12,0.82,-8.7,M,44.2,M,,*40
$GPRMC,160358.000,A,5405.5290,N,01207.4299,E,19.14,277.13,230114,,,A*57
ping
$GPGGA,160501.000,5405.5567,N,01207.2361,E,1,11,0.92,-5.7,M,44.2,M,,*4E
$GPRMC,160500.000,A,5405.5543,N,01207.2472,E,24.98,288.82,230114,,,A*52
$GPGGA,160517.000,5405.5979,N,01207.0654,E,1,11,0.79,-4.5,M,44.2,M,,*4D
$GPRMC,160516.000,A,5405.5953,N,01207.0755,E,23.69,292.54,230114,,,A*55
$GPGGA,160536.000,5405.6372,N,01206.8926,E,1,11,1.00,-4.7,M,44.2,M,,*42
$GPRMC,160535.000,A,5405.6369,N,01206.8954,E,8.86,282.23,230114,,,A*6B
ping
$GPGGA,160627.000,5405.6098,N,01206.7101,E,1,12,0.81,-2.5,M,44.2,M,,*4B
$GPRMC,160626.000,A,5405.6133,N,01206.7201,E,24.05,238.93,230114,,,A*5C
$GPGGA,160645.000,5405.5785,N,01206.5268,E,1,10,1.12,2.5,M,44.2,M,,*6D
$GPRMC,160644.000,A,5405.5787,N,01206.5372,E,22.04,268.33,230114,,,A*5D
$GPGGA,160702.000,5405.5627,N,01206.3376,E,1,12,0.81,3.3,M,44.2,M,,*60
$GPRMC,160701.000,A,5405.5636,N,01206.3495,E,25.47,263.31,230114,,,A*57
$GPGGA,160716.000,5405.5681,N,01206.1542,E,1,12,0.90,1.6,M,44.2,M,,*6D
$GPRMC,160715.000,A,5405.5676,N,01206.1682,E,29.73,274.07,230114,,,A*58
$GPGGA,160730.000,5405.5556,N,01205.9669,E,1,11,0.92,-2.3,M,44.2,M,,*4B
$GPRMC,160729.000,A,5405.5570,N,01205.9787,E,26.31,259.60,230114,,,A*5A
$GPGGA,160747.000,5405.5834,N,01205.7791,E,1,11,0.84,5.2,M,44.2,M,,*66
$GPRMC,160746.000,A,5405.5786,N,01205.7901,E,27.91,304.78,230114,,,A*5D
$GPGGA,160800.000,5405.6735,N,01205.6593,E,1,11,0.81,5.4,M,44.2,M,,*65
$GPRMC,160759.000,A,5405.6657,N,01205.6674,E,31.66,328.63,230114,,,A*5A
$GPGGA,160813.000,5405.7725,N,01205.5562,E,1,8,1.23,6.2,M,44.2,M,,*5E
$GPRMC,160812.000,A,5405.7646,N,01205.5645,E,33.06,328.11,230114,,,A*5B
$GPGGA,160825.000,5405.8706,N,01205.4525,E,1,14,0.69,6.5,M,44.2,M,,*62
$GPRMC,160824.000,A,5405.8627,N,01205.4612,E,33.55,327.73,230114,,,A*58
$GPGGA,160838.000,5405.9449,N,01205.2999,E,1,14,0.69,7.6,M,44.2,M,,*68
$GPRMC,160837.000,A,5405.9404,N,01205.3148,E,33.79,296.98,230114,,,A*57
$GPGGA,160848.000,5405.9898,N,01205.1328,E,1,14,0.69,10.4,M,44.2,M,,*58
$GPRMC,160847.000,A,5405.9852,N,01205.1497,E,39.55,294.69,230114,,,A*52
$GPGGA,160859.000,5406.0374,N,01204.9614,E,1,14,0.68,11.7,M,44.2,M,,*5B
$GPRMC,160858.000,A,5406.0333,N,01204.9763,E,35.09,295.58,230114,,,A*5D
$GPGGA,160912.000,5406.0844,N,01204.7964,E,1,13,0.77,12.4,M,44.2,M,,*52
$GPRMC,160911.000,A,5406.0815,N,01204.8061,E,23.75,295.81,230114,,,A*52
$GPGGA,160927.000,5406.1331,N,01204.6229,E,1,13,0.77,12.4,M,44.2,M,,*5F
$GPRMC,160926.000,A,5406.1295,N,01204.6359,E,29.60,295.74,230114,,,A*57
$GPGGA,160940.000,5406.1813,N,01204.4506,E,1,12,0.75,11.5,M,44.2,M,,*5C
$GPRMC,160939.000,A,5406.1776,N,01204.4639,E,31.17,295.63,230114,,,A*5F
$GPGGA,160954.000,5406.2311,N,01204.2742,E,1,14,0.68,12.2,M,44.2,M,,*59
$GPRMC,160953.000,A,5406.2277,N,01204.2864,E,29.02,295.75,230114,,,A*5E
$GPGGA,161007.000,5406.2790,N,01204.1024,E,1,13,0.77,8.8,M,44.2,M,,*66
$GPRMC,161006.000,A,5406.2749,N,01204.1173,E,34.86,295.35,230114,,,A*56
$GPGGA,161018.000,5406.3100,N,01203.9251,E,1,14,0.68,7.7,M,44.2,M,,*60
$GPRMC,161017.000,A,5406.3078,N,01203.9414,E,35.44,283.94,230114,,,A*5A
$GPGGA,161029.000,5406.3211,N,01203.7335,E,1,14,0.68,9.5,M,44.2,M,,*60
$GPRMC,161028.000,A,5406.3203,N,01203.7523,E,39.38,274.22,230114,,,A*51
$GPGGA,161039.000,5406.3382,N,01203.5310,E,1,14,0.68,10.6,M,44.2,M,,*54
$GPRMC,161038.000,A,5406.3363,N,01203.5520,E,45.06,278.44,230114,,,A*5C
$GPGGA,161048.000,5406.3551,N,01203.3438,E,1,14,0.68,9.5,M,44.2,M,,*6A
$GPRMC,161047.000,A,5406.3534,N,01203.3629,E,41.90,278.84,230114,,,A*5B
$GPGGA,161100.000,5406.3740,N,01203.1483,E,1,14,0.68,9.7,M,44.2,M,,*65
$GPRMC,161059.000,A,5406.3726,N,01203.1655,E,36.88,279.52,230114,,,A*5F
ping
$DeviceName=pironex_auto
$Software=0.1.3
$Hardware=1
$LastValidPosition=
$IMEI=359193030849087
$LocalIP=10.76.77.192
$CmdVersion=2
$SUCCESS
$<end>
$GPGGA,164225.000,5406.4711,N,01203.1143,E,1,13,0.76,162.3,M,44.2,M,,*6E
$GPRMC,164224.000,V,,,,,0.95,283.11,230114,,,N*4A
ping
$GPGGA,164315.000,5406.4106,N,01203.2663,E,1,13,0.76,19.7,M,44.2,M,,*53
$GPRMC,164314.000,A,5406.4122,N,01203.2597,E,15.59,104.33,230114,,,A*58
ping
$GPGGA,164349.000,5406.3393,N,01203.4104,E,1,13,0.79,22.1,M,44.2,M,,*52
$GPRMC,164348.000,A,5406.3400,N,01203.4012,E,17.60,100.54,230114,,,A*50
$GPGGA,164402.000,5406.3242,N,01203.6065,E,1,13,0.79,20.7,M,44.2,M,,*57
$GPRMC,164401.000,A,5406.3255,N,01203.5899,E,35.21,98.20,230114,,,A*60
$GPGGA,164425.000,5406.3075,N,01203.7887,E,1,13,0.79,20.1,M,44.2,M,,*57
$GPRMC,164424.000,A,5406.3080,N,01203.7858,E,5.90,101.30,230114,,,A*6B
$GPGGA,164446.000,5406.2924,N,01203.9792,E,1,13,0.79,18.9,M,44.2,M,,*58
$GPRMC,164445.000,A,5406.2934,N,01203.9672,E,25.55,98.40,230114,,,A*6E
$GPGGA,164459.000,5406.2603,N,01204.1697,E,1,13,0.79,21.8,M,44.2,M,,*5C
$GPRMC,164458.000,A,5406.2643,N,01204.1553,E,34.23,115.00,230114,,,A*53
$GPGGA,164512.000,5406.2129,N,01204.3375,E,1,12,0.80,21.8,M,44.2,M,,*51
$GPRMC,164511.000,A,5406.2163,N,01204.3256,E,28.63,115.69,230114,,,A*5C
$GPGGA,164532.000,5406.1659,N,01204.5030,E,1,13,0.79,21.9,M,44.2,M,,*52
$GPRMC,164531.000,A,5406.1671,N,01204.4986,E,10.90,116.13,230114,,,A*51
$GPGGA,164601.000,5406.1191,N,01204.6686,E,1,13,0.79,23.5,M,44.2,M,,*54
$GPRMC,164600.000,A,5406.1233,N,01204.6535,E,34.77,115.61,230114,,,A*5D
$GPGGA,164613.000,5406.0721,N,01204.8341,E,1,13,0.79,23.5,M,44.2,M,,*5B
$GPRMC,164612.000,A,5406.0760,N,01204.8205,E,31.58,115.26,230114,,,A*5D
$GPGGA,164626.000,5406.0234,N,01205.0076,E,1,13,0.79,22.7,M,44.2,M,,*51
$GPRMC,164625.000,A,5406.0270,N,01204.9947,E,30.44,115.50,230114,,,A*5C
$GPGGA,164643.000,5405.9750,N,01205.1780,E,1,13,0.79,20.6,M,44.2,M,,*53
$GPRMC,164642.000,A,5405.9779,N,01205.1677,E,23.29,115.11,230114,,,A*52
$GPGGA,164656.000,5405.9277,N,01205.3433,E,1,12,0.80,17.6,M,44.2,M,,*5D
$GPRMC,164655.000,A,5405.9323,N,01205.3294,E,32.90,117.90,230114,,,A*5D
$GPGGA,164708.000,5405.8485,N,01205.4747,E,1,12,0.80,15.5,M,44.2,M,,*5B
$GPRMC,164707.000,A,5405.8556,N,01205.4671,E,30.49,147.26,230114,,,A*58
$GPGGA,164722.000,5405.7528,N,01205.5723,E,1,10,0.89,14.0,M,44.2,M,,*56
$GPRMC,164721.000,A,5405.7585,N,01205.5665,E,24.44,148.39,230114,,,A*50
$GPGGA,164745.000,5405.6575,N,01205.6683,E,1,11,0.83,12.9,M,44.2,M,,*52
$GPRMC,164744.000,A,5405.6639,N,01205.6618,E,25.34,148.18,230114,,,A*5A
$GPGGA,164759.000,5405.5713,N,01205.7842,E,1,10,0.87,12.3,M,44.2,M,,*53
$GPRMC,164758.000,A,5405.5759,N,01205.7737,E,28.19,128.11,230114,,,A*53
$GPGGA,164814.000,5405.5454,N,01205.9722,E,1,11,0.86,7.5,M,44.2,M,,*60
$GPRMC,164813.000,A,5405.5438,N,01205.9597,E,26.07,78.24,230114,,,A*62
$GPGGA,164827.000,5405.5622,N,01206.1553,E,1,13,0.79,10.8,M,44.2,M,,*55
$GPRMC,164826.000,A,5405.5625,N,01206.1395,E,33.50,90.04,230114,,,A*67
$GPGGA,164853.000,5405.5583,N,01206.3406,E,1,12,0.80,10.4,M,44.2,M,,*56
$GPRMC,164852.000,A,5405.5581,N,01206.3373,E,6.79,86.41,230114,,,A*58
$GPGGA,164913.000,5405.5736,N,01206.5256,E,1,12,1.15,11.6,M,44.2,M,,*54
$GPRMC,164912.000,A,5405.5725,N,01206.5139,E,25.93,80.66,230114,,,A*6D
$GPGGA,164932.000,5405.5310,N,01206.6941,E,1,10,0.87,4.2,M,44.2,M,,*61
$GPRMC,164931.000,A,5405.5337,N,01206.6869,E,18.09,118.62,230114,,,A*5D
$GPGGA,164954.000,5405.4774,N,01206.8590,E,1,9,1.07,3.0,M,44.2,M,,*5C
$GPRMC,164953.000,A,5405.4807,N,01206.8484,E,25.14,116.63,230114,,,A*5C
$GPGGA,165024.000,5405.3692,N,01206.8467,E,1,11,0.86,8.9,M,44.2,M,,*67
$GPRMC,165023.000,A,5405.3713,N,01206.8476,E,3.97,210.16,230114,,,A*6B
ping
$GPGGA,165056.000,5405.2998,N,01206.9925,E,1,12,0.80,9.1,M,44.2,M,,*60
$GPRMC,165055.000,A,5405.3019,N,01206.9892,E,13.45,115.83,230114,,,A*54
ping
$GPGGA,165149.000,5405.2832,N,01207.1787,E,1,8,1.14,20.5,M,44.2,M,,*69
$GPRMC,165148.000,A,5405.2823,N,01207.1716,E,15.33,82.82,230114,,,A*6A
ping
$DeviceName=pironex_auto
$Software=0.1.3
$Hardware=1
$LastValidPosition=
$IMEI=359193030849087
$LocalIP=10.147.170.74
$CmdVersion=2
$SUCCESS
$<end>
$<MSG.Info.ServerLogin>
$DeviceName=pironex_auto
$Software=0.1.3
$Hardware=1
$LastValidPosition=
$IMEI=359193030849087
$LocalIP=10.64.154.240
$CmdVersion=2
$SUCCESS
$<end>
$GPGGA,170205.000,5405.2561,N,01207.2474,E,1,9,1.05,39.9,M,44.2,M,,*64
$GPRMC,170204.000,V,,,,,5.49,107.41,230114,,,N*43
$GPGGA,170223.000,,,,,0,9,,,M,,M,,*44
$GPRMC,170222.000,A,5405.2425,N,01207.2658,E,18.36,233.18,230114,,,A*50
$GPGGA,170234.000,5405.1983,N,01207.1898,E,1,10,1.23,29.5,M,44.2,M,,*59
$GPRMC,170233.000,V,,,,,20.50,228.52,230114,,,N*74
ping
ping
ping
ping
$GPGGA,170506.000,5405.1278,N,01207.3360,E,1,11,0.81,8.6,M,44.2,M,,*66
$GPRMC,170505.000,A,5405.1304,N,01207.3289,E,17.76,122.64,230114,,,A*5F
$GPGGA,170526.000,5405.1312,N,01207.5204,E,1,11,1.22,0.7,M,44.2,M,,*6D
$GPRMC,170525.000,A,5405.1299,N,01207.5118,E,20.08,76.82,230114,,,A*60
ping
ping
ping
ping
$GPGGA,170759.000,5405.2377,N,01207.5939,E,1,9,0.96,3.4,M,44.2,M,,*55
$GPRMC,170758.000,A,5405.2300,N,01207.5904,E,28.62,14.05,230114,,,A*60
ping
$GPGGA,170841.000,5405.3373,N,01207.6694,E,1,11,0.79,9.3,M,44.2,M,,*68
$GPRMC,170840.000,A,5405.3341,N,01207.6695,E,10.79,0.10,230114,,,A*56
ping
$GPGGA,170915.000,5405.3876,N,01207.8374,E,1,11,1.21,5.7,M,44.1,M,,*64
$GPRMC,170914.000,A,5405.3873,N,01207.8292,E,17.52,85.18,230114,,,A*6A
ping
$GPGGA,170950.000,5405.3873,N,01208.0209,E,1,11,0.97,9.2,M,44.1,M,,*69
$GPRMC,170949.000,A,5405.3874,N,01208.0201,E,3.73,89.81,230114,,,A*52
$GPGGA,171021.000,5405.3900,N,01208.2066,E,1,7,1.34,5.4,M,44.1,M,,*5E
$GPRMC,171020.000,A,5405.3897,N,01208.1992,E,16.23,88.77,230114,,,A*61
ping
ping
ping
$GPGGA,171207.000,5405.4901,N,01208.2846,E,1,9,1.44,-6.8,M,44.1,M,,*7F
$GPRMC,171206.000,A,5405.4873,N,01208.2838,E,9.96,9.73,230114,,,A*65
ping
$DeviceName=pironex_auto
$Software=0.1.3
$Hardware=1
$LastValidPosition=
$IMEI=359193030849087
$LocalIP=10.33.52.71
$CmdVersion=2
$SUCCESS
$<end>
$GPGGA,071553.000,5245.1727,N,01251.3164,E,1,7,1.99,50.1,M,45.0,M,,*68
$GPRMC,071551.781,V,,,,,8.24,117.94,270114,,,N*41
$GPGGA,071615.000,5245.1776,N,01251.4967,E,1,10,0.89,49.0,M,45.0,M,,*5E
$GPRMC,071614.000,A,5245.1802,N,01251.4808,E,34.12,105.85,270114,,,A*59
$GPGGA,071625.000,5245.1460,N,01251.6752,E,1,10,0.89,49.1,M,45.0,M,,*52
$GPRMC,071624.000,A,5245.1493,N,01251.6564,E,42.43,106.80,270114,,,A*58
$GPGGA,071634.000,5245.1152,N,01251.8582,E,1,12,0.82,49.4,M,45.0,M,,*5B
$GPRMC,071633.000,A,5245.1189,N,01251.8370,E,47.71,105.92,270114,,,A*59
$GPGGA,071642.000,5245.0852,N,01252.0300,E,1,12,0.82,50.2,M,45.0,M,,*5B
$GPRMC,071641.000,A,5245.0890,N,01252.0078,E,49.57,105.81,270114,,,A*54
$GPGGA,071650.000,5245.0527,N,01252.2210,E,1,12,0.82,49.4,M,45.0,M,,*5B
$GPRMC,071649.000,A,5245.0571,N,01252.1956,E,56.95,105.57,270114,,,A*51
$GPGGA,071657.000,5245.0197,N,01252.4099,E,1,12,0.82,48.1,M,45.0,M,,*52
$GPRMC,071656.000,A,5245.0245,N,01252.3823,E,62.32,105.85,270114,,,A*5B
$GPGGA,071704.000,5244.9854,N,01252.6078,E,1,12,0.82,46.1,M,45.0,M,,*58
$GPRMC,071703.000,A,5244.9905,N,01252.5793,E,64.68,106.16,270114,,,A*5F
$GPGGA,071710.000,5244.9541,N,01252.7796,E,1,12,0.82,45.0,M,45.0,M,,*50
$GPRMC,071709.000,A,5244.9594,N,01252.7506,E,66.11,106.74,270114,,,A*55
$GPGGA,071716.000,5244.9202,N,01252.9554,E,1,12,0.82,44.4,M,45.0,M,,*51
$GPRMC,071715.000,A,5244.9262,N,01252.9258,E,67.73,108.22,270114,,,A*5C
$GPGGA,071722.000,5244.8832,N,01253.1334,E,1,11,0.80,44.7,M,45.0,M,,*55
$GPRMC,071721.000,A,5244.8894,N,01253.1042,E,67.80,109.11,270114,,,A*54
$GPGGA,071728.000,5244.8440,N,01253.3043,E,1,11,0.80,44.5,M,45.0,M,,*55
$GPRMC,071727.000,A,5244.8506,N,01253.2766,E,65.24,111.44,270114,,,A*53
$GPGGA,071735.000,5244.7973,N,01253.4924,E,1,12,0.75,43.6,M,45.0,M,,*59
$GPRMC,071734.000,A,5244.8040,N,01253.4665,E,62.17,112.82,270114,,,A*5C
$GPGGA,071742.000,5244.7504,N,01253.6646,E,1,11,0.84,41.9,M,45.0,M,,*5C
$GPRMC,071741.000,A,5244.7571,N,01253.6407,E,57.70,114.61,270114,,,A*5E
$GPGGA,071749.000,5244.7009,N,01253.8345,E,1,12,0.75,40.4,M,45.0,M,,*56
$GPRMC,071748.000,A,5244.7083,N,01253.8100,E,59.78,116.35,270114,,,A*56
$GPGGA,071756.000,5244.6445,N,01254.0110,E,1,12,0.74,39.2,M,45.0,M,,*51
$GPRMC,071755.000,A,5244.6529,N,01253.9852,E,63.56,118.04,270114,,,A*58
$GPGGA,071802.000,5244.5906,N,01254.1648,E,1,13,0.71,38.8,M,45.0,M,,*52
$GPRMC,071801.000,A,5244.5996,N,01254.1397,E,64.31,119.86,270114,,,A*5D
$GPGGA,071809.000,5244.5301,N,01254.3298,E,1,12,0.74,38.4,M,45.0,M,,*57
$GPRMC,071808.000,A,5244.5388,N,01254.3070,E,59.51,122.18,270114,,,A*5E
$GPGGA,071816.000,5244.4677,N,01254.4891,E,1,12,0.74,38.4,M,45.0,M,,*58
$GPRMC,071815.000,A,5244.4769,N,01254.4663,E,59.78,123.47,270114,,,A*5B
$GPGGA,071823.000,5244.4039,N,01254.6411,E,1,11,0.88,38.2,M,45.0,M,,*52
$GPRMC,071822.000,A,5244.4128,N,01254.6204,E,55.75,125.04,270114,,,A*5B
$GPGGA,071831.000,5244.3362,N,01254.7940,E,1,11,0.88,38.1,M,45.0,M,,*50
$GPRMC,071830.000,A,5244.3443,N,01254.7760,E,49.64,126.86,270114,,,A*55
$GPGGA,071840.000,5244.2644,N,01254.9476,E,1,12,0.74,38.1,M,45.0,M,,*50
$GPRMC,071839.000,A,5244.2725,N,01254.9305,E,46.95,128.04,270114,,,A*52
$GPGGA,071849.000,5244.1912,N,01255.0989,E,1,11,0.78,38.2,M,45.0,M,,*5F
$GPRMC,071848.000,A,5244.1990,N,01255.0831,E,45.05,129.04,270114,,,A*58
$GPGGA,071858.000,5244.1171,N,01255.2464,E,1,12,0.75,38.4,M,44.9,M,,*5E
$GPRMC,071857.000,A,5244.1254,N,01255.2298,E,47.43,129.66,270114,,,A*5A
$GPGGA,071907.000,5244.0427,N,01255.3942,E,1,11,0.87,38.7,M,44.9,M,,*57
$GPRMC,071906.000,A,5244.0510,N,01255.3773,E,47.51,129.39,270114,,,A*51
$GPGGA,071916.000,5243.9688,N,01255.5406,E,1,12,0.75,39.5,M,44.9,M,,*58
$GPRMC,071915.000,A,5243.9767,N,01255.5247,E,45.32,129.60,270114,,,A*50
$GPGGA,071925.000,5243.8985,N,01255.6792,E,1,10,0.92,40.0,M,44.9,M,,*56
$GPRMC,071924.000,A,5243.9066,N,01255.6633,E,45.16,129.88,270114,,,A*50
$GPGGA,071933.000,5243.8287,N,01255.8174,E,1,10,0.92,40.6,M,44.9,M,,*5E
$GPRMC,071932.000,A,5243.8377,N,01255.7996,E,50.98,129.89,270114,,,A*57
$GPGGA,071941.000,5243.7582,N,01255.9577,E,1,10,0.92,40.9,M,44.9,M,,*5F
$GPRMC,071940.000,A,5243.7667,N,01255.9406,E,48.70,129.55,270114,,,A*5D
$GPGGA,071950.000,5243.6839,N,01256.1049,E,1,10,0.92,41.8,M,44.9,M,,*50
$GPRMC,071949.000,A,5243.6923,N,01256.0884,E,46.96,129.59,270114,,,A*5C
$GPGGA,071958.000,5243.6138,N,01256.2445,E,1,10,0.92,43.1,M,44.9,M,,*50
$GPRMC,071957.000,A,5243.6228,N,01256.2264,E,51.22,129.52,270114,,,A*57
$GPGGA,072006.000,5243.5385,N,01256.3986,E,1,11,0.88,45.0,M,44.9,M,,*58
$GPRMC,072005.000,A,5243.5483,N,01256.3780,E,56.51,128.12,270114,,,A*56
$GPGGA,072013.000,5243.4729,N,01256.5433,E,1,11,0.88,46.1,M,44.9,M,,*58
$GPRMC,072012.000,A,5243.4822,N,01256.5220,E,57.02,125.96,270114,,,A*59
$GPGGA,072020.000,5243.4118,N,01256.6933,E,1,11,0.88,47.2,M,44.9,M,,*50
$GPRMC,072019.000,A,5243.4201,N,01256.6720,E,55.41,122.88,270114,,,A*52
$GPGGA,072028.000,5243.3486,N,01256.8652,E,1,12,0.74,48.2,M,44.9,M,,*54
$GPRMC,072027.000,A,5243.3563,N,01256.8433,E,55.31,120.01,270114,,,A*50
$GPGGA,072036.000,5243.2929,N,01257.0379,E,1,11,0.87,49.1,M,44.9,M,,*5A
$GPRMC,072035.000,A,5243.2992,N,01257.0170,E,51.50,116.89,270114,,,A*5D
$GPGGA,072045.000,5243.2439,N,01257.2163,E,1,11,0.80,50.0,M,44.9,M,,*57
$GPRMC,072044.000,A,5243.2489,N,01257.1964,E,47.07,113.26,270114,,,A*55
$GPGGA,072054.000,5243.2027,N,01257.3907,E,1,10,0.87,51.9,M,44.9,M,,*59
$GPRMC,072053.000,A,5243.2067,N,01257.3723,E,43.28,110.22,270114,,,A*56
$GPGGA,072104.000,5243.1651,N,01257.5674,E,1,11,0.87,53.3,M,44.9,M,,*5D
$GPRMC,072103.000,A,5243.1689,N,01257.5507,E,39.45,110.28,270114,,,A*59
$GPGGA,072115.000,5243.1343,N,01257.7433,E,1,11,0.84,54.1,M,44.9,M,,*5E
$GPRMC,072114.000,A,5243.1369,N,01257.7264,E,38.07,104.21,270114,,,A*5F
$GPGGA,072125.000,5243.1095,N,01257.9298,E,1,12,0.75,54.1,M,44.9,M,,*51
$GPRMC,072124.000,A,5243.1119,N,01257.9104,E,43.50,101.37,270114,,,A*5E
$GPGGA,072134.000,5243.0903,N,01258.1119,E,1,11,0.84,53.5,M,44.9,M,,*55
$GPRMC,072133.000,A,5243.0923,N,01258.0912,E,45.90,99.34,270114,,,A*68
$GPGGA,072143.000,5243.0728,N,01258.3072,E,1,12,0.82,52.5,M,44.9,M,,*58
$GPRMC,072142.000,A,5243.0747,N,01258.2852,E,48.52,98.29,270114,,,A*6B
$GPGGA,072152.000,5243.0568,N,01258.4937,E,1,12,0.75,51.9,M,44.9,M,,*56
$GPRMC,072151.000,A,5243.0585,N,01258.4739,E,43.88,98.18,270114,,,A*6F
$GPGGA,072202.000,5243.0397,N,01258.6802,E,1,11,0.84,51.7,M,44.9,M,,*50
$GPRMC,072201.000,A,5243.0417,N,01258.6621,E,40.12,102.00,270114,,,A*52
$GPGGA,072212.000,5243.0217,N,01258.8605,E,1,11,0.87,52.1,M,44.9,M,,*59
$GPRMC,072211.000,A,5243.0235,N,01258.8422,E,40.50,99.29,270114,,,A*64
$GPGGA,072221.000,5243.0027,N,01259.0387,E,1,12,0.74,53.9,M,44.9,M,,*58
$GPRMC,072220.000,A,5243.0050,N,01259.0186,E,44.57,100.52,270114,,,A*5B
$GPGGA,072231.000,5242.9817,N,01259.2278,E,1,11,0.84,54.7,M,44.9,M,,*5C
$GPRMC,072230.000,A,5242.9837,N,01259.2095,E,40.34,100.65,270114,,,A*5F
$GPGGA,072241.000,5242.9590,N,01259.4188,E,1,13,0.71,55.1,M,44.9,M,,*5C
$GPRMC,072240.000,A,5242.9614,N,01259.3993,E,43.60,101.41,270114,,,A*5C
$GPGGA,072250.000,5242.9362,N,01259.6028,E,1,11,0.84,54.4,M,44.9,M,,*52
$GPRMC,072249.000,A,5242.9390,N,01259.5812,E,47.87,101.86,270114,,,A*54
$GPGGA,072259.000,5242.9110,N,01259.7988,E,1,11,0.91,53.4,M,44.9,M,,*5D
$GPRMC,072258.000,A,5242.9141,N,01259.7763,E,50.08,102.16,270114,,,A*5A
$GPGGA,072307.000,5242.8867,N,01259.9768,E,1,12,0.75,52.8,M,44.9,M,,*55
$GPRMC,072306.000,A,5242.8896,N,01259.9554,E,48.10,102.49,270114,,,A*50
$GPGGA,072316.000,5242.8605,N,01300.1636,E,1,10,0.92,52.3,M,44.9,M,,*50
$GPRMC,072315.000,A,5242.8636,N,01300.1424,E,47.63,102.82,270114,,,A*59
$GPGGA,072324.000,5242.8330,N,01300.3437,E,1,13,0.71,51.3,M,44.9,M,,*5E
$GPRMC,072323.000,A,5242.8368,N,01300.3200,E,53.61,104.48,270114,,,A*57
$GPGGA,072332.000,5242.8047,N,01300.5186,E,1,12,0.82,50.4,M,44.9,M,,*58
$GPRMC,072331.000,A,5242.8081,N,01300.4979,E,47.17,104.71,270114,,,A*5C
$GPGGA,072341.000,5242.7728,N,01300.7064,E,1,13,0.71,47.2,M,44.9,M,,*5F
$GPRMC,072340.000,A,5242.7760,N,01300.6894,E,39.45,105.73,270114,,,A*50
$GPGGA,072351.000,5242.7426,N,01300.8802,E,1,11,0.86,41.7,M,44.9,M,,*5D
$GPRMC,072350.000,A,5242.7457,N,01300.8625,E,40.77,105.68,270114,,,A*59
$GPGGA,072402.000,5242.7179,N,01301.0617,E,1,12,0.74,40.9,M,44.9,M,,*51
$GPRMC,072401.000,A,5242.7188,N,01301.0463,E,34.28,95.68,270114,,,A*65
$GPGGA,072414.000,5242.6933,N,01301.2429,E,1,11,0.86,39.3,M,44.9,M,,*56
$GPRMC,072413.000,A,5242.6954,N,01301.2287,E,32.60,103.96,270114,,,A*55
$GPGGA,072426.000,5242.6635,N,01301.4250,E,1,12,0.75,38.7,M,44.9,M,,*5A
$GPRMC,072425.000,A,5242.6662,N,01301.4080,E,37.94,105.42,270114,,,A*58
$GPGGA,072436.000,5242.6315,N,01301.6156,E,1,11,0.86,38.7,M,44.9,M,,*54
$GPRMC,072435.000,A,5242.6350,N,01301.5945,E,46.80,105.56,270114,,,A*5A
$GPGGA,072444.000,5242.6023,N,01301.7899,E,1,11,0.86,38.8,M,44.9,M,,*53
$GPRMC,072443.000,A,5242.6059,N,01301.7681,E,49.21,105.34,270114,,,A*54
$GPGGA,072452.000,5242.5731,N,01301.9622,E,1,12,0.75,38.9,M,44.9,M,,*5D
$GPRMC,072451.000,A,5242.5768,N,01301.9402,E,49.41,105.56,270114,,,A*54
$GPGGA,072500.000,5242.5443,N,01302.1346,E,1,13,0.71,39.7,M,44.9,M,,*5B
$GPRMC,072459.000,A,5242.5477,N,01302.1137,E,47.17,105.91,270114,,,A*5F
$GPGGA,072509.000,5242.5127,N,01302.3221,E,1,13,0.71,40.8,M,44.9,M,,*56
$GPRMC,072508.000,A,5242.5163,N,01302.3009,E,48.56,105.74,270114,,,A*55
$GPGGA,072518.000,5242.4807,N,01302.5111,E,1,13,0.71,41.0,M,44.9,M,,*53
$GPRMC,072517.000,A,5242.4842,N,01302.4904,E,47.32,105.63,270114,,,A*58
$GPGGA,072527.000,5242.4482,N,01302.7020,E,1,13,0.71,40.8,M,44.8,M,,*57
$GPRMC,072526.000,A,5242.4518,N,01302.6807,E,48.97,105.30,270114,,,A*5E
$GPGGA,072536.000,5242.4144,N,01302.8926,E,1,13,0.71,38.7,M,44.8,M,,*58
$GPRMC,072535.000,A,5242.4183,N,01302.8724,E,45.96,109.92,270114,,,A*52
$GPGGA,072545.000,5242.3847,N,01303.0705,E,1,13,0.71,39.6,M,44.8,M,,*57
$GPRMC,072544.000,A,5242.3879,N,01303.0511,E,44.10,105.63,270114,,,A*5F
$GPGGA,072554.000,5242.3512,N,01303.2392,E,1,12,0.75,39.6,M,44.8,M,,*57
$GPRMC,072553.000,A,5242.3556,N,01303.2197,E,44.28,111.12,270114,,,A*59
$GPGGA,072602.000,5242.3198,N,01303.4325,E,1,13,0.71,39.7,M,44.8,M,,*5F
$GPRMC,072601.000,A,5242.3240,N,01303.4055,E,60.04,104.19,270114,,,A*53
$GPGGA,072609.000,5242.2926,N,01303.6346,E,1,13,0.71,40.6,M,44.8,M,,*50
$GPRMC,072608.000,A,5242.2963,N,01303.6045,E,66.61,101.76,270114,,,A*5B
$GPGGA,072615.000,5242.2735,N,01303.8214,E,1,13,0.71,41.7,M,44.8,M,,*59
$GPRMC,072614.000,A,5242.2762,N,01303.7896,E,69.55,98.28,270114,,,A*6C
$GPGGA,072621.000,5242.2601,N,01304.0145,E,1,12,0.75,42.3,M,44.8,M,,*52
$GPRMC,072620.000,A,5242.2618,N,01303.9825,E,70.34,95.52,270114,,,A*6E
$GPGGA,072627.000,5242.2535,N,01304.2039,E,1,13,0.71,43.1,M,44.8,M,,*5E
$GPRMC,072626.000,A,5242.2543,N,01304.1728,E,68.35,92.71,270114,,,A*66
$GPGGA,072633.000,5242.2534,N,01304.3908,E,1,13,0.71,44.7,M,44.8,M,,*51
$GPRMC,072632.000,A,5242.2531,N,01304.3596,E,68.21,89.31,270114,,,A*68
$GPGGA,072639.000,5242.2592,N,01304.5790,E,1,12,0.75,45.8,M,44.8,M,,*55
$GPRMC,072638.000,A,5242.2580,N,01304.5476,E,68.49,86.74,270114,,,A*61
$GPGGA,072645.000,5242.2712,N,01304.7697,E,1,10,1.09,45.1,M,44.8,M,,*51
$GPRMC,072644.000,A,5242.2689,N,01304.7378,E,70.37,83.38,270114,,,A*66
$GPGGA,072651.000,5242.2885,N,01304.9619,E,1,12,0.75,43.3,M,44.8,M,,*51
$GPRMC,072650.000,A,5242.2853,N,01304.9297,E,71.06,80.75,270114,,,A*6D
$GPGGA,072657.000,5242.3094,N,01305.1542,E,1,13,0.71,41.5,M,44.8,M,,*5B
$GPRMC,072656.000,A,5242.3058,N,01305.1227,E,70.43,79.84,270114,,,A*63
$GPGGA,072703.000,5242.3308,N,01305.3338,E,1,12,0.74,40.9,M,44.8,M,,*5D
$GPRMC,072702.000,A,5242.3274,N,01305.3048,E,64.85,79.27,270114,,,A*60
$GPGGA,072709.000,5242.3517,N,01305.5150,E,1,11,0.86,41.2,M,44.8,M,,*51
$GPRMC,072708.000,A,5242.3480,N,01305.4834,E,69.56,79.32,270114,,,A*64
$GPGGA,072715.000,5242.3740,N,01305.7079,E,1,11,0.86,42.3,M,44.8,M,,*56
$GPRMC,072714.000,A,5242.3703,N,01305.6761,E,71.01,79.24,270114,,,A*60
$GPGGA,072721.000,5242.3954,N,01305.8949,E,1,12,0.74,43.0,M,44.8,M,,*53
$GPRMC,072720.000,A,5242.3920,N,01305.8644,E,68.60,79.49,270114,,,A*64
$GPGGA,072727.000,5242.4146,N,01306.0804,E,1,12,0.74,44.1,M,44.8,M,,*5C
$GPRMC,072726.000,A,5242.4116,N,01306.0488,E,69.37,80.58,270114,,,A*64
$GPGGA,072733.000,5242.4297,N,01306.2660,E,1,12,0.75,44.4,M,44.8,M,,*5C
$GPRMC,072732.000,A,5242.4275,N,01306.2357,E,67.15,82.96,270114,,,A*6E
$GPGGA,072739.000,5242.4406,N,01306.4542,E,1,13,0.71,46.3,M,44.8,M,,*5D
$GPRMC,072738.000,A,5242.4391,N,01306.4225,E,69.51,85.16,270114,,,A*6C
$GPGGA,072745.000,5242.4465,N,01306.6510,E,1,13,0.71,47.2,M,44.8,M,,*56
$GPRMC,072744.000,A,5242.4460,N,01306.6176,E,73.18,87.90,270114,,,A*63
$GPGGA,072751.000,5242.4466,N,01306.8538,E,1,13,0.71,47.7,M,44.8,M,,*51
$GPRMC,072750.000,A,5242.4469,N,01306.8200,E,73.56,90.26,270114,,,A*62
$GPGGA,072757.000,5242.4415,N,01307.0557,E,1,13,0.71,47.5,M,44.8,M,,*51
$GPRMC,072756.000,A,5242.4428,N,01307.0218,E,74.04,93.20,270114,,,A*64
$GPGGA,072803.000,5242.4304,N,01307.2607,E,1,12,0.74,47.3,M,44.8,M,,*5E
$GPRMC,072802.000,A,5242.4326,N,01307.2264,E,75.46,95.68,270114,,,A*67
$GPGGA,072809.000,5242.4155,N,01307.4624,E,1,12,0.74,46.8,M,44.8,M,,*5F
$GPRMC,072808.000,A,5242.4183,N,01307.4293,E,73.16,97.19,270114,,,A*69
$GPGGA,072815.000,5242.3994,N,01307.6596,E,1,12,0.74,46.4,M,44.8,M,,*54
$GPRMC,072814.000,A,5242.4020,N,01307.6274,E,71.59,97.85,270114,,,A*6B
$GPGGA,072821.000,5242.3847,N,01307.8418,E,1,12,0.74,46.8,M,44.8,M,,*59
$GPRMC,072820.000,A,5242.3871,N,01307.8126,E,64.93,97.48,270114,,,A*6E
$GPGGA,072828.000,5242.3702,N,01308.0387,E,1,11,0.79,48.5,M,44.8,M,,*55
$GPRMC,072827.000,A,5242.3724,N,01308.0101,E,62.27,96.61,270114,,,A*67
$GPGGA,072835.000,5242.3574,N,01308.2392,E,1,12,0.74,51.0,M,44.7,M,,*50
$GPRMC,072834.000,A,5242.3591,N,01308.2104,E,63.51,95.38,270114,,,A*61
$GPGGA,072842.000,5242.3477,N,01308.4390,E,1,12,0.74,52.7,M,44.7,M,,*52
$GPRMC,072841.000,A,5242.3488,N,01308.4106,E,63.09,94.17,270114,,,A*6F
$GPGGA,072849.000,5242.3425,N,01308.6376,E,1,12,0.74,52.3,M,44.7,M,,*50
$GPRMC,072848.000,A,5242.3431,N,01308.6091,E,62.96,92.10,270114,,,A*6F
$GPGGA,072856.000,5242.3398,N,01308.8405,E,1,12,0.74,50.5,M,44.7,M,,*56
$GPRMC,072855.000,A,5242.3400,N,01308.8106,E,65.50,90.95,270114,,,A*62
$GPGGA,072903.000,5242.3390,N,01309.0423,E,1,12,0.74,48.0,M,44.7,M,,*5E
$GPRMC,072902.000,A,5242.3388,N,01309.0146,E,61.30,90.06,270114,,,A*63
$GPGGA,072910.000,5242.3396,N,01309.2321,E,1,12,0.74,45.8,M,44.7,M,,*58
$GPRMC,072909.000,A,5242.3395,N,01309.2048,E,59.95,89.80,270114,,,A*6B
$GPGGA,072917.000,5242.3405,N,01309.4210,E,1,10,0.84,45.1,M,44.7,M,,*53
$GPRMC,072916.000,A,5242.3405,N,01309.3932,E,60.09,90.02,270114,,,A*63
$GPGGA,072924.000,5242.3411,N,01309.6205,E,1,12,0.74,44.1,M,44.7,M,,*5C
$GPRMC,072923.000,A,5242.3411,N,01309.5923,E,61.95,89.94,270114,,,A*65
$GPGGA,072931.000,5242.3416,N,01309.8075,E,1,12,0.74,43.0,M,44.7,M,,*52
$GPRMC,072930.000,A,5242.3415,N,01309.7816,E,56.63,89.87,270114,,,A*69
$GPGGA,072938.000,5242.3422,N,01309.9984,E,1,11,0.86,41.4,M,44.7,M,,*52
$GPRMC,072937.000,A,5242.3421,N,01309.9701,E,61.25,89.43,270114,,,A*60
$GPGGA,072945.000,5242.3429,N,01310.2005,E,1,12,0.74,38.7,M,44.7,M,,*53
$GPRMC,072944.000,A,5242.3429,N,01310.1720,E,62.73,89.64,270114,,,A*6A
$GPGGA,072952.000,5242.3439,N,01310.3981,E,1,12,0.74,34.5,M,44.7,M,,*5E
$GPRMC,072951.000,A,5242.3438,N,01310.3703,E,61.66,89.90,270114,,,A*61
$GPGGA,072959.000,5242.3443,N,01310.5935,E,1,12,0.74,31.0,M,44.7,M,,*51
$GPRMC,072958.000,A,5242.3443,N,01310.5657,E,61.17,89.76,270114,,,A*6C
$GPGGA,073006.000,5242.3454,N,01310.7907,E,1,11,0.81,29.1,M,44.7,M,,*57
$GPRMC,073005.000,A,5242.3454,N,01310.7627,E,61.74,89.62,270114,,,A*6F
$GPGGA,073013.000,5242.3454,N,01310.9859,E,1,12,0.74,28.5,M,44.7,M,,*5B
$GPRMC,073012.000,A,5242.3453,N,01310.9580,E,61.08,89.69,270114,,,A*6E
$GPGGA,073020.000,5242.3445,N,01311.1846,E,1,12,0.74,28.1,M,44.7,M,,*58
$GPRMC,073019.000,A,5242.3447,N,01311.1565,E,61.34,90.63,270114,,,A*6F
$GPGGA,073027.000,5242.3402,N,01311.3824,E,1,12,0.74,27.6,M,44.7,M,,*52
$GPRMC,073026.000,A,5242.3411,N,01311.3539,E,61.75,92.94,270114,,,A*64
$GPGGA,073034.000,5242.3291,N,01311.5870,E,1,12,0.74,27.6,M,44.7,M,,*5B
$GPRMC,073033.000,A,5242.3310,N,01311.5572,E,64.53,96.10,270114,,,A*66
$GPGGA,073040.000,5242.3132,N,01311.7636,E,1,12,0.74,29.3,M,44.7,M,,*57
$GPRMC,073039.000,A,5242.3164,N,01311.7351,E,63.89,99.61,270114,,,A*61
$GPGGA,073047.000,5242.2905,N,01311.9512,E,1,12,0.74,29.2,M,44.7,M,,*57
$GPRMC,073046.000,A,5242.2938,N,01311.9253,E,58.08,101.04,270114,,,A*56
$GPGGA,073054.000,5242.2654,N,01312.1321,E,1,9,1.10,29.0,M,44.7,M,,*68
$GPRMC,073053.000,A,5242.2691,N,01312.1058,E,60.03,101.57,270114,,,A*5A
$GPGGA,073101.000,5242.2345,N,01312.3177,E,1,11,0.81,28.0,M,44.7,M,,*5E
$GPRMC,073100.000,A,5242.2390,N,01312.2910,E,60.95,105.16,270114,,,A*51
$GPGGA,073108.000,5242.2047,N,01312.4951,E,1,11,0.86,27.0,M,44.7,M,,*55
$GPRMC,073107.000,A,5242.2087,N,01312.4706,E,56.34,105.04,270114,,,A*51
$GPGGA,073115.000,5242.1752,N,01312.6719,E,1,11,0.81,26.2,M,44.7,M,,*5D
$GPRMC,073114.000,A,5242.1793,N,01312.6458,E,59.06,104.99,270114,,,A*53
$GPGGA,073122.000,5242.1449,N,01312.8562,E,1,10,1.09,25.3,M,44.7,M,,*52
$GPRMC,073121.000,A,5242.1493,N,01312.8298,E,59.66,105.20,270114,,,A*57
$GPGGA,073128.000,5242.1169,N,01313.0277,E,1,11,0.81,24.7,M,44.7,M,,*50
$GPRMC,073127.000,A,5242.1217,N,01312.9975,E,67.16,105.02,270114,,,A*58
$GPGGA,073134.000,5242.0861,N,01313.2161,E,1,11,0.81,24.2,M,44.7,M,,*5E
$GPRMC,073133.000,A,5242.0914,N,01313.1840,E,72.08,105.21,270114,,,A*50
$GPGGA,073140.000,5242.0558,N,01313.4015,E,1,10,1.09,22.2,M,44.7,M,,*58
$GPRMC,073139.000,A,5242.0610,N,01313.3717,E,67.79,105.87,270114,,,A*50
$GPGGA,073146.000,5242.0271,N,01313.5852,E,1,11,0.81,22.5,M,44.7,M,,*5F
$GPRMC,073145.000,A,5242.0317,N,01313.5545,E,69.18,104.32,270114,,,A*5C
$GPGGA,073152.000,5242.0023,N,01313.7674,E,1,12,0.74,22.5,M,44.7,M,,*5E
$GPRMC,073151.000,A,5242.0060,N,01313.7379,E,68.15,102.27,270114,,,A*5F
$GPGGA,073200.000,5241.9810,N,01313.9633,E,1,11,0.86,23.2,M,44.7,M,,*5D
$GPRMC,073159.000,A,5241.9832,N,01313.9403,E,51.73,98.75,270114,,,A*69
$GPGGA,073208.000,5241.9664,N,01314.1563,E,1,10,1.09,24.4,M,44.6,M,,*56
$GPRMC,073207.000,A,5241.9679,N,01314.1304,E,56.73,95.73,270114,,,A*63
$GPGGA,073215.000,5241.9588,N,01314.3456,E,1,11,0.86,25.4,M,44.6,M,,*58
$GPRMC,073214.000,A,5241.9595,N,01314.3173,E,61.19,93.11,270114,,,A*6A
$GPGGA,073222.000,5241.9574,N,01314.5472,E,1,11,0.84,27.7,M,44.6,M,,*5C
$GPRMC,073221.000,A,5241.9573,N,01314.5190,E,62.21,89.73,270114,,,A*68
$GPGGA,073229.000,5241.9605,N,01314.7404,E,1,11,0.86,30.5,M,44.6,M,,*57
$GPRMC,073228.000,A,5241.9598,N,01314.7120,E,61.54,88.09,270114,,,A*60
$GPGGA,073236.000,5241.9666,N,01314.9336,E,1,12,0.74,32.4,M,44.6,M,,*59
$GPRMC,073235.000,A,5241.9657,N,01314.9066,E,59.76,87.00,270114,,,A*6C
$GPGGA,073243.000,5241.9726,N,01315.1207,E,1,12,0.74,32.0,M,44.6,M,,*50
$GPRMC,073242.000,A,5241.9719,N,01315.0937,E,58.99,87.46,270114,,,A*60
$GPGGA,073250.000,5241.9797,N,01315.3214,E,1,10,0.87,30.3,M,44.6,M,,*57
$GPRMC,073249.000,A,5241.9789,N,01315.2918,E,65.01,86.91,270114,,,A*69
$GPGGA,073256.000,5241.9848,N,01315.4992,E,1,12,0.74,29.5,M,44.6,M,,*5E
$GPRMC,073255.000,A,5241.9841,N,01315.4696,E,64.64,87.29,270114,,,A*60
$GPGGA,073303.000,5241.9906,N,01315.6953,E,1,12,0.74,31.0,M,44.6,M,,*57
$GPRMC,073302.000,A,5241.9899,N,01315.6680,E,59.52,87.07,270114,,,A*64
$GPGGA,073310.000,5241.9964,N,01315.8969,E,1,11,0.84,32.8,M,44.6,M,,*51
$GPRMC,073309.000,A,5241.9956,N,01315.8671,E,65.06,87.45,270114,,,A*65
$GPGGA,073316.000,5242.0010,N,01316.0800,E,1,11,0.86,34.3,M,44.6,M,,*5D
$GPRMC,073315.000,A,5242.0004,N,01316.0486,E,68.22,88.03,270114,,,A*6B
$GPGGA,073322.000,5242.0029,N,01316.2611,E,1,11,0.85,34.9,M,44.6,M,,*55
$GPRMC,073321.000,A,5242.0028,N,01316.2320,E,64.05,89.20,270114,,,A*62
$GPGGA,073329.000,5242.0008,N,01316.4608,E,1,11,0.86,35.0,M,44.6,M,,*58
$GPRMC,073328.000,A,5242.0015,N,01316.4326,E,61.75,91.97,270114,,,A*62
$GPGGA,073336.000,5241.9923,N,01316.6600,E,1,11,0.85,34.1,M,44.6,M,,*55
$GPRMC,073335.000,A,5241.9940,N,01316.6317,E,61.95,95.03,270114,,,A*6A
$GPGGA,073343.000,5241.9785,N,01316.8464,E,1,11,0.85,34.4,M,44.6,M,,*5E
$GPRMC,073342.000,A,5241.9808,N,01316.8211,E,56.60,97.64,270114,,,A*63
$GPGGA,073350.000,5241.9601,N,01317.0304,E,1,11,0.85,33.6,M,44.6,M,,*5C
$GPRMC,073349.000,A,5241.9632,N,01317.0024,E,62.36,100.12,270114,,,A*58
$GPGGA,073357.000,5241.9354,N,01317.2287,E,1,10,1.09,32.7,M,44.6,M,,*52
$GPRMC,073356.000,A,5241.9395,N,01317.2001,E,64.48,103.29,270114,,,A*5F
$GPGGA,073403.000,5241.9061,N,01317.4089,E,1,10,1.09,33.7,M,44.6,M,,*5A
$GPRMC,073402.000,A,5241.9115,N,01317.3780,E,69.66,105.64,270114,,,A*52
$GPGGA,073409.000,5241.8697,N,01317.5957,E,1,11,0.85,35.5,M,44.6,M,,*55
$GPRMC,073408.000,A,5241.8762,N,01317.5649,E,71.21,108.69,270114,,,A*57
$GPGGA,073415.000,5241.8269,N,01317.7833,E,1,11,0.85,37.0,M,44.6,M,,*5B
$GPRMC,073414.000,A,5241.8346,N,01317.7521,E,73.47,111.56,270114,,,A*51
$GPGGA,073421.000,5241.7763,N,01317.9730,E,1,11,0.85,38.7,M,44.6,M,,*56
$GPRMC,073420.000,A,5241.7850,N,01317.9418,E,75.35,114.29,270114,,,A*5E
$GPGGA,073427.000,5241.7249,N,01318.1508,E,1,11,0.85,40.5,M,44.6,M,,*5E
$GPRMC,073426.000,A,5241.7334,N,01318.1214,E,71.06,115.53,270114,,,A*54
$GPGGA,073433.000,5241.6709,N,01318.3287,E,1,12,0.74,41.9,M,44.6,M,,*59
$GPRMC,073432.000,A,5241.6803,N,01318.2986,E,73.84,117.10,270114,,,A*51
$GPGGA,073439.000,5241.6145,N,01318.5134,E,1,12,0.74,43.5,M,44.6,M,,*5E
$GPRMC,073438.000,A,5241.6239,N,01318.4823,E,75.38,116.61,270114,,,A*56
$GPGGA,073445.000,5241.5571,N,01318.7017,E,1,11,0.85,45.4,M,44.6,M,,*5D
$GPRMC,073444.000,A,5241.5668,N,01318.6697,E,77.71,116.80,270114,,,A*5D
$GPGGA,073450.000,5241.5077,N,01318.8640,E,1,11,0.85,46.8,M,44.6,M,,*5E
$GPRMC,073449.000,A,5241.5175,N,01318.8316,E,78.92,116.67,270114,,,A*52
$GPGGA,073455.000,5241.4582,N,01319.0256,E,1,11,0.85,47.6,M,44.6,M,,*50
$GPRMC,073454.000,A,5241.4682,N,01318.9932,E,79.13,116.75,270114,,,A*56
$GPGGA,073500.000,5241.4088,N,01319.1873,E,1,11,0.85,48.6,M,44.6,M,,*5D
$GPRMC,073459.000,A,5241.4186,N,01319.1553,E,78.63,116.81,270114,,,A*57
$GPGGA,073506.000,5241.3527,N,01319.3716,E,1,11,0.85,49.7,M,44.6,M,,*52
$GPRMC,073505.000,A,5241.3622,N,01319.3408,E,74.92,116.67,270114,,,A*56
$GPGGA,073512.000,5241.2959,N,01319.5567,E,1,11,0.85,49.9,M,44.6,M,,*5F
$GPRMC,073511.000,A,5241.3052,N,01319.5263,E,74.92,116.63,270114,,,A*5B
$GPGGA,073518.000,5241.2415,N,01319.7349,E,1,11,0.85,49.7,M,44.6,M,,*56
$GPRMC,073517.000,A,5241.2508,N,01319.7046,E,73.89,116.72,270114,,,A*5C
$GPGGA,073524.000,5241.1843,N,01319.9220,E,1,11,0.85,49.6,M,44.6,M,,*54
$GPRMC,073523.000,A,5241.1941,N,01319.8900,E,78.32,116.71,270114,,,A*55
$GPGGA,073529.000,5241.1359,N,01320.0822,E,1,11,0.85,49.3,M,44.6,M,,*57
$GPRMC,073528.000,A,5241.1454,N,01320.0502,E,77.84,116.26,270114,,,A*5B
$GPGGA,073535.000,5241.0825,N,01320.2696,E,1,11,0.85,48.5,M,44.6,M,,*5F
$GPRMC,073534.000,A,5241.0908,N,01320.2395,E,73.35,114.49,270114,,,A*5C
$GPGGA,073541.000,5241.0388,N,01320.4447,E,1,11,0.85,48.8,M,44.5,M,,*56
$GPRMC,073540.000,A,5241.0455,N,01320.4158,E,67.65,111.39,270114,,,A*5D
$GPGGA,073547.000,5240.9988,N,01320.6318,E,1,10,1.10,49.3,M,44.5,M,,*5B
$GPRMC,073546.000,A,5241.0053,N,01320.5989,E,74.88,107.83,270114,,,A*5B
$GPGGA,073553.000,5240.9633,N,01320.8366,E,1,10,1.10,50.4,M,44.5,M,,*59
$GPRMC,073552.000,A,5240.9688,N,01320.8021,E,78.51,104.94,270114,,,A*5D
$GPGGA,073559.000,5240.9352,N,01321.0418,E,1,11,0.85,51.1,M,44.5,M,,*5E
$GPRMC,073558.000,A,5240.9391,N,01321.0076,E,76.05,101.57,270114,,,A*54
$GPGGA,073605.000,5240.9160,N,01321.2403,E,1,11,0.81,52.1,M,44.5,M,,*58
$GPRMC,073604.000,A,5240.9188,N,01321.2067,E,73.38,97.76,270114,,,A*60
$GPGGA,073611.000,5240.9026,N,01321.4466,E,1,10,1.06,53.4,M,44.5,M,,*50
$GPRMC,073610.000,A,5240.9042,N,01321.4129,E,74.40,95.33,270114,,,A*64
$GPGGA,073617.000,5240.8959,N,01321.6421,E,1,12,0.74,54.0,M,44.5,M,,*52
$GPRMC,073616.000,A,5240.8968,N,01321.6091,E,72.17,92.73,270114,,,A*65
$GPGGA,073623.000,5240.8887,N,01321.8419,E,1,12,0.74,53.7,M,44.5,M,,*52
$GPRMC,073622.000,A,5240.8900,N,01321.8085,E,73.03,94.24,270114,,,A*67
$GPGGA,073629.000,5240.8809,N,01322.0433,E,1,12,0.74,52.9,M,44.5,M,,*52
$GPRMC,073628.000,A,5240.8822,N,01322.0096,E,74.23,93.65,270114,,,A*62
$GPGGA,073635.000,5240.8727,N,01322.2436,E,1,12,0.74,51.7,M,44.5,M,,*56
$GPRMC,073634.000,A,5240.8742,N,01322.2101,E,73.68,93.88,270114,,,A*60
$GPGGA,073641.000,5240.8622,N,01322.4338,E,1,12,0.74,50.2,M,44.5,M,,*5A
$GPRMC,073640.000,A,5240.8642,N,01322.4047,E,65.62,95.94,270114,,,A*61
$GPGGA,073648.000,5240.8465,N,01322.6255,E,1,12,0.74,48.4,M,44.5,M,,*55
$GPRMC,073647.000,A,5240.8490,N,01322.5978,E,61.57,98.09,270114,,,A*64
$GPGGA,073655.000,5240.8218,N,01322.8283,E,1,11,0.81,45.9,M,44.5,M,,*59
$GPRMC,073654.000,A,5240.8261,N,01322.7989,E,66.26,103.36,270114,,,A*5C
$GPGGA,073701.000,5240.7899,N,01323.0045,E,1,11,0.81,44.3,M,44.5,M,,*5F
$GPRMC,073700.000,A,5240.7959,N,01322.9750,E,67.94,108.00,270114,,,A*51
$GPGGA,073707.000,5240.7478,N,01323.1837,E,1,11,0.85,42.6,M,44.5,M,,*51
$GPRMC,073706.000,A,5240.7559,N,01323.1535,E,71.14,112.62,270114,,,A*53
$GPGGA,073713.000,5240.6952,N,01323.3606,E,1,11,0.85,40.9,M,44.5,M,,*53
$GPRMC,073712.000,A,5240.7048,N,01323.3312,E,72.24,117.40,270114,,,A*57
$GPGGA,073719.000,5240.6308,N,01323.5335,E,1,11,0.85,40.0,M,44.5,M,,*56
$GPRMC,073718.000,A,5240.6424,N,01323.5049,E,75.07,122.79,270114,,,A*53
$GPGGA,073724.000,5240.5667,N,01323.6767,E,1,11,0.85,40.5,M,44.5,M,,*52
$GPRMC,073723.000,A,5240.5803,N,01323.6484,E,78.40,127.24,270114,,,A*54
$GPGGA,073730.000,5240.4848,N,01323.8311,E,1,12,0.74,42.8,M,44.5,M,,*5C
$GPRMC,073729.000,A,5240.4984,N,01323.8075,E,72.06,133.05,270114,,,A*5B
$GPGGA,073736.000,5240.3993,N,01323.9647,E,1,11,0.85,46.6,M,44.5,M,,*5A
$GPRMC,073735.000,A,5240.4139,N,01323.9431,E,70.93,137.72,270114,,,A*57
$GPGGA,073742.000,5240.3070,N,01324.0864,E,1,11,0.85,48.2,M,44.5,M,,*56
$GPRMC,073741.000,A,5240.3227,N,01324.0671,E,70.94,142.82,270114,,,A*5D
$GPGGA,073748.000,5240.2140,N,01324.1863,E,1,12,0.74,47.8,M,44.5,M,,*51
$GPRMC,073747.000,A,5240.2294,N,01324.1708,E,65.13,147.57,270114,,,A*5A
$GPGGA,073754.000,5240.1180,N,01324.2730,E,1,12,0.74,47.0,M,44.5,M,,*51
$GPRMC,073753.000,A,5240.1340,N,01324.2594,E,65.33,152.10,270114,,,A*55
$GPGGA,073801.000,5240.0055,N,01324.3625,E,1,12,0.74,46.0,M,44.5,M,,*53
$GPRMC,073800.000,A,5240.0218,N,01324.3500,E,64.75,154.88,270114,,,A*59
$GPGGA,073807.000,5239.9066,N,01324.4324,E,1,12,0.74,45.0,M,44.5,M,,*52
$GPRMC,073806.000,A,5239.9230,N,01324.4211,E,64.40,156.70,270114,,,A*51
$GPGGA,073814.000,5239.7941,N,01324.5086,E,1,12,0.74,43.7,M,44.5,M,,*59
$GPRMC,073813.000,A,5239.8102,N,01324.4977,E,62.20,157.24,270114,,,A*5D
$GPGGA,073821.000,5239.6801,N,01324.5863,E,1,12,0.74,43.7,M,44.5,M,,*58
$GPRMC,073820.000,A,5239.6965,N,01324.5751,E,64.38,157.61,270114,,,A*5F
$GPGGA,073828.000,5239.5650,N,01324.6660,E,1,12,0.74,44.8,M,44.5,M,,*5E
$GPRMC,073827.000,A,5239.5820,N,01324.6544,E,65.20,157.09,270114,,,A*58
$GPGGA,073834.000,5239.4645,N,01324.7349,E,1,12,0.74,45.4,M,44.5,M,,*54
$GPRMC,073833.000,A,5239.4808,N,01324.7236,E,64.19,157.56,270114,,,A*54
$GPGGA,073841.000,5239.3529,N,01324.8133,E,1,12,0.74,45.8,M,44.5,M,,*54
$GPRMC,073840.000,A,5239.3693,N,01324.8015,E,63.60,156.41,270114,,,A*59
$GPGGA,073847.000,5239.2523,N,01324.8882,E,1,12,0.74,46.4,M,44.5,M,,*55
$GPRMC,073846.000,A,5239.2691,N,01324.8751,E,66.89,155.12,270114,,,A*5C
$GPGGA,073853.000,5239.1540,N,01324.9679,E,1,12,0.74,46.9,M,44.5,M,,*50
$GPRMC,073852.000,A,5239.1699,N,01324.9547,E,64.44,153.00,270114,,,A*50
$GPGGA,073900.000,5239.0494,N,01325.0614,E,1,12,0.74,46.4,M,44.5,M,,*50
$GPRMC,073859.000,A,5239.0640,N,01325.0474,E,61.34,150.41,270114,,,A*53
$GPGGA,073907.000,5238.9472,N,01325.1635,E,1,12,0.74,45.8,M,44.5,M,,*5A
$GPRMC,073906.000,A,5238.9622,N,01325.1478,E,63.11,147.87,270114,,,A*50
$GPGGA,073914.000,5238.8509,N,01325.2699,E,1,11,0.85,44.4,M,44.5,M,,*51
$GPRMC,073913.000,A,5238.8639,N,01325.2548,E,56.91,145.75,270114,,,A*5F
$GPGGA,073921.000,5238.7522,N,01325.3888,E,1,12,0.74,43.2,M,44.5,M,,*52
$GPRMC,073920.000,A,5238.7671,N,01325.3704,E,66.38,143.16,270114,,,A*54
$GPGGA,073927.000,5238.6624,N,01325.5064,E,1,12,0.74,42.6,M,44.5,M,,*59
$GPRMC,073926.000,A,5238.6770,N,01325.4865,E,69.04,140.51,270114,,,A*5C
$GPGGA,073934.000,5238.5693,N,01325.6399,E,1,12,0.74,41.0,M,44.5,M,,*53
$GPRMC,073933.000,A,5238.5812,N,01325.6220,E,59.52,137.86,270114,,,A*53
$GPGGA,073942.000,5238.4818,N,01325.7797,E,1,12,0.74,41.3,M,44.5,M,,*56
$GPRMC,073941.000,A,5238.4924,N,01325.7624,E,54.44,135.24,270114,,,A*52
$GPGGA,073950.000,5238.3990,N,01325.9228,E,1,11,0.85,41.8,M,44.5,M,,*5A
$GPRMC,073949.000,A,5238.4093,N,01325.9045,E,54.25,132.79,270114,,,A*58
$GPGGA,073958.000,5238.3247,N,01326.0625,E,1,12,0.74,43.5,M,44.5,M,,*52
$GPRMC,073957.000,A,5238.3332,N,01326.0457,E,48.15,130.23,270114,,,A*56
$GPGGA,074008.000,5238.2562,N,01326.2183,E,1,11,0.85,46.9,M,44.5,M,,*55
$GPRMC,074007.000,A,5238.2622,N,01326.2050,E,38.13,126.52,270114,,,A*59
$GPGGA,074020.000,5238.1910,N,01326.3629,E,1,10,1.10,49.5,M,44.5,M,,*5C
$GPRMC,074019.000,A,5238.1961,N,01326.3510,E,32.41,125.35,270114,,,A*52
$GPGGA,074032.000,5238.1306,N,01326.5108,E,1,12,0.74,51.1,M,44.5,M,,*5C
$GPRMC,074031.000,A,5238.1361,N,01326.4970,E,35.82,122.88,270114,,,A*56
$GPGGA,074044.000,5238.0724,N,01326.6732,E,1,12,0.74,49.5,M,44.5,M,,*59
$GPRMC,074043.000,A,5238.0771,N,01326.6603,E,33.39,120.42,270114,,,A*5C
$GPGGA,074055.000,5238.0169,N,01326.8372,E,1,12,0.74,46.8,M,44.5,M,,*5A
$GPRMC,074054.000,A,5238.0221,N,01326.8210,E,39.49,118.11,270114,,,A*52
$GPGGA,074105.000,5237.9681,N,01326.9972,E,1,12,0.74,45.0,M,44.5,M,,*59
$GPRMC,074104.000,A,5237.9727,N,01326.9813,E,38.18,116.00,270114,,,A*50
$GPGGA,074115.000,5237.9230,N,01327.1624,E,1,11,0.85,44.3,M,44.5,M,,*5C
$GPRMC,074114.000,A,5237.9272,N,01327.1464,E,38.37,113.40,270114,,,A*5D
$GPGGA,074125.000,5237.8819,N,01327.3280,E,1,11,0.85,43.9,M,44.5,M,,*5A
$GPRMC,074124.000,A,5237.8858,N,01327.3111,E,40.00,110.99,270114,,,A*54
$GPGGA,074136.000,5237.8431,N,01327.5028,E,1,11,0.85,43.7,M,44.5,M,,*56
$GPRMC,074135.000,A,5237.8466,N,01327.4868,E,36.86,109.49,270114,,,A*5F
$GPGGA,074147.000,5237.8073,N,01327.6800,E,1,12,0.74,43.8,M,44.5,M,,*51
$GPRMC,074146.000,A,5237.8104,N,01327.6632,E,38.48,106.54,270114,,,A*56
$GPGGA,074158.000,5237.7788,N,01327.8585,E,1,11,0.85,44.9,M,44.5,M,,*56
$GPRMC,074157.000,A,5237.7811,N,01327.8421,E,36.91,104.10,270114,,,A*52
$GPGGA,074209.000,5237.7566,N,01328.0356,E,1,11,0.85,44.6,M,44.5,M,,*53
$GPRMC,074208.000,A,5237.7586,N,01328.0193,E,36.37,101.78,270114,,,A*54
$GPGGA,074221.000,5237.7360,N,01328.2233,E,1,12,0.74,43.6,M,44.5,M,,*53
$GPRMC,074220.000,A,5237.7376,N,01328.2071,E,35.20,99.75,270114,,,A*60
$GPGGA,074232.000,5237.7147,N,01328.4013,E,1,11,0.85,42.5,M,44.5,M,,*5F
$GPRMC,074231.000,A,5237.7166,N,01328.3859,E,34.56,102.03,270114,,,A*52
$GPGGA,074244.000,5237.6847,N,01328.5796,E,1,12,0.74,41.8,M,44.5,M,,*5E
$GPRMC,074243.000,A,5237.6875,N,01328.5652,E,33.75,104.70,270114,,,A*5A
$GPGGA,074255.000,5237.6481,N,01328.7464,E,1,12,0.74,41.8,M,44.5,M,,*54
$GPRMC,074254.000,A,5237.6522,N,01328.7308,E,36.78,112.01,270114,,,A*52
$GPGGA,074307.000,5237.5961,N,01328.9150,E,1,12,0.74,39.5,M,44.5,M,,*5C
$GPRMC,074306.000,A,5237.6009,N,01328.9014,E,34.20,120.00,270114,,,A*57
$GPGGA,074319.000,5237.5377,N,01329.0659,E,1,11,0.85,41.6,M,44.5,M,,*59
$GPRMC,074318.000,A,5237.5427,N,01329.0530,E,32.74,122.45,270114,,,A*5C
$GPGGA,074331.000,5237.4729,N,01329.2264,E,1,11,0.85,48.6,M,44.5,M,,*5C
$GPRMC,074330.000,A,5237.4783,N,01329.2132,E,35.51,123.71,270114,,,A*58
$GPGGA,074342.000,5237.4183,N,01329.3847,E,1,12,0.74,51.8,M,44.5,M,,*5F
$GPRMC,074341.000,A,5237.4231,N,01329.3688,E,39.33,116.72,270114,,,A*58
$GPGGA,074353.000,5237.3732,N,01329.5526,E,1,12,0.74,52.3,M,44.5,M,,*50
$GPRMC,074352.000,A,5237.3769,N,01329.5376,E,35.47,112.17,270114,,,A*5F
$GPGGA,074404.000,5237.3312,N,01329.7228,E,1,12,0.74,52.2,M,44.5,M,,*59
$GPRMC,074403.000,A,5237.3355,N,01329.7059,E,40.31,112.26,270114,,,A*5A
$GPGGA,074415.000,5237.2869,N,01329.9025,E,1,12,0.74,51.2,M,44.4,M,,*5C
$GPRMC,074414.000,A,5237.2908,N,01329.8861,E,38.85,111.95,270114,,,A*58
$GPGGA,074426.000,5237.2453,N,01330.0702,E,1,12,0.74,50.2,M,44.4,M,,*5B
$GPRMC,074425.000,A,5237.2489,N,01330.0560,E,34.34,112.04,270114,,,A*5F
$GPGGA,074438.000,5237.2037,N,01330.2405,E,1,11,0.85,49.0,M,44.4,M,,*53
$GPRMC,074437.000,A,5237.2073,N,01330.2261,E,34.87,112.16,270114,,,A*52
$GPGGA,074450.000,5237.1628,N,01330.4048,E,1,12,0.74,48.8,M,44.4,M,,*59
$GPRMC,074449.000,A,5237.1663,N,01330.3912,E,32.32,112.41,270114,,,A*5B
$GPGGA,074502.000,5237.1143,N,01330.5799,E,1,12,0.74,49.5,M,44.4,M,,*53
$GPRMC,074501.000,A,5237.1187,N,01330.5630,E,40.01,113.39,270114,,,A*59
$GPGGA,074510.000,5237.0761,N,01330.7487,E,1,11,0.85,50.1,M,44.4,M,,*58
$GPRMC,074509.000,A,5237.0808,N,01330.7266,E,51.90,109.36,270114,,,A*57
$GPGGA,074518.000,5237.0435,N,01330.9230,E,1,12,0.74,51.1,M,44.4,M,,*5A
$GPRMC,074517.000,A,5237.0471,N,01330.9020,E,48.44,106.52,270114,,,A*58
$GPGGA,074526.000,5237.0154,N,01331.1055,E,1,12,0.74,52.3,M,44.4,M,,*5C
$GPRMC,074525.000,A,5237.0186,N,01331.0812,E,54.03,102.81,270114,,,A*51
$GPGGA,074533.000,5236.9953,N,01331.2801,E,1,11,0.82,53.8,M,44.4,M,,*55
$GPRMC,074532.000,A,5236.9979,N,01331.2561,E,54.09,100.36,270114,,,A*58
$GPGGA,074540.000,5236.9788,N,01331.4621,E,1,12,0.74,54.5,M,44.4,M,,*53
$GPRMC,074539.000,A,5236.9810,N,01331.4351,E,59.34,97.84,270114,,,A*6B
$GPGGA,074547.000,5236.9659,N,01331.6454,E,1,12,0.74,54.9,M,44.4,M,,*57
$GPRMC,074546.000,A,5236.9675,N,01331.6199,E,56.52,95.97,270114,,,A*65
$GPGGA,074554.000,5236.9554,N,01331.8252,E,1,12,0.74,54.6,M,44.4,M,,*5A
$GPRMC,074553.000,A,5236.9570,N,01331.7989,E,57.70,95.74,270114,,,A*63
$GPGGA,074601.000,5236.9441,N,01332.0136,E,1,12,0.74,54.7,M,44.4,M,,*57
$GPRMC,074600.000,A,5236.9460,N,01331.9864,E,60.08,96.09,270114,,,A*68
$GPGGA,074608.000,5236.9305,N,01332.2001,E,1,12,0.74,54.2,M,44.4,M,,*5B
$GPRMC,074607.000,A,5236.9320,N,01332.1738,E,57.99,96.04,270114,,,A*60
$GPGGA,074615.000,5236.9184,N,01332.3891,E,1,11,0.86,53.0,M,44.4,M,,*57
$GPRMC,074614.000,A,5236.9201,N,01332.3612,E,60.48,95.93,270114,,,A*6E
$GPGGA,074622.000,5236.9058,N,01332.5887,E,1,12,0.74,52.7,M,44.4,M,,*5A
$GPRMC,074621.000,A,5236.9077,N,01332.5600,E,62.89,96.13,270114,,,A*6A
$GPGGA,074629.000,5236.8940,N,01332.7794,E,1,12,0.74,52.6,M,44.4,M,,*5E
$GPRMC,074628.000,A,5236.8956,N,01332.7525,E,58.69,95.80,270114,,,A*60
$GPGGA,074636.000,5236.8828,N,01332.9644,E,1,9,1.01,53.4,M,44.4,M,,*67
$GPRMC,074635.000,A,5236.8843,N,01332.9390,E,56.12,95.95,270114,,,A*69
$GPGGA,074645.000,5236.8673,N,01333.1550,E,1,11,0.86,54.1,M,44.4,M,,*59
$GPRMC,074644.000,A,5236.8688,N,01333.1370,E,41.84,97.56,270114,,,A*65
$GPGGA,074705.000,5236.7660,N,01333.2192,E,1,12,0.74,55.6,M,44.4,M,,*50
$GPRMC,074704.000,A,5236.7720,N,01333.2302,E,31.50,222.25,270114,,,A*5C
$GPGGA,074716.000,5236.7545,N,01333.0322,E,1,12,0.74,53.6,M,44.4,M,,*5B
$GPRMC,074715.000,A,5236.7533,N,01333.0541,E,46.61,273.60,270114,,,A*58
$GPGGA,074724.000,5236.7742,N,01332.8405,E,1,12,0.74,54.3,M,44.4,M,,*56
$GPRMC,074723.000,A,5236.7713,N,01332.8653,E,55.32,280.72,270114,,,A*5F
$GPGGA,074732.000,5236.7959,N,01332.6464,E,1,12,0.74,55.5,M,44.4,M,,*5B
$GPRMC,074731.000,A,5236.7933,N,01332.6705,E,53.33,280.23,270114,,,A*5F
$GPGGA,074740.000,5236.8132,N,01332.4603,E,1,10,0.86,58.2,M,44.4,M,,*50
$GPRMC,074739.000,A,5236.8119,N,01332.4826,E,49.81,276.58,270114,,,A*53
$GPGGA,074751.000,5236.8029,N,01332.2778,E,1,12,0.74,59.7,M,44.4,M,,*5B
$GPRMC,074750.000,A,5236.8050,N,01332.2910,E,30.63,257.18,270114,,,A*57
ping
$GPGGA,074835.000,5236.7499,N,01332.1070,E,1,12,0.74,59.2,M,44.4,M,,*5F
$GPRMC,074834.000,A,5236.7555,N,01332.1191,E,31.96,234.28,270114,,,A*5A
$GPGGA,074846.000,5236.6685,N,01331.9872,E,1,12,0.75,56.0,M,44.4,M,,*58
$GPRMC,074845.000,A,5236.6763,N,01331.9970,E,34.86,217.78,270114,,,A*56
$GPGGA,074859.000,5236.5770,N,01331.8719,E,1,12,0.75,53.4,M,44.4,M,,*5C
$GPRMC,074858.000,A,5236.5835,N,01331.8805,E,30.61,218.30,270114,,,A*59
$GPGGA,074917.000,5236.4909,N,01331.7644,E,1,12,0.75,50.9,M,44.4,M,,*5E
$GPRMC,074916.000,A,5236.4918,N,01331.7658,E,6.92,215.35,270114,,,A*65
$GPGGA,074944.000,5236.3982,N,01331.6574,E,1,12,0.75,49.6,M,44.4,M,,*5A
$GPRMC,074943.000,A,5236.4034,N,01331.6633,E,22.57,214.40,270114,,,A*52
$GPGGA,074958.000,5236.3095,N,01331.5537,E,1,12,0.75,46.8,M,44.4,M,,*5D
$GPRMC,074957.000,A,5236.3141,N,01331.5613,E,24.56,223.34,270114,,,A*52
$GPGGA,075014.000,5236.2495,N,01331.3958,E,1,11,0.79,45.5,M,44.4,M,,*5A
$GPRMC,075013.000,A,5236.2534,N,01331.4077,E,28.82,242.07,270114,,,A*5A
$GPGGA,075026.000,5236.1988,N,01331.2306,E,1,11,0.79,45.2,M,44.4,M,,*5E
$GPRMC,075025.000,A,5236.2032,N,01331.2445,E,34.23,242.65,270114,,,A*5D
$GPGGA,075039.000,5236.1476,N,01331.0682,E,1,11,0.79,49.2,M,44.5,M,,*5A
$GPRMC,075038.000,A,5236.1514,N,01331.0797,E,28.99,242.47,270114,,,A*51
$GPGGA,075054.000,5236.0824,N,01330.9103,E,1,12,0.75,53.0,M,44.5,M,,*5B
$GPRMC,075053.000,A,5236.0884,N,01330.9205,E,30.91,226.88,270114,,,A*5F
$GPGGA,075107.000,5235.9937,N,01330.7936,E,1,12,0.75,52.5,M,44.5,M,,*51
$GPRMC,075106.000,A,5235.9999,N,01330.8029,E,30.22,221.36,270114,,,A*5E
$GPGGA,075120.000,5235.9288,N,01330.6458,E,1,12,0.75,48.0,M,44.5,M,,*51
$GPRMC,075119.000,A,5235.9326,N,01330.6554,E,26.12,237.00,270114,,,A*59
$GPGGA,075135.000,5235.8661,N,01330.4847,E,1,12,0.75,47.8,M,44.5,M,,*50
$GPRMC,075134.000,A,5235.8711,N,01330.4974,E,32.62,236.78,270114,,,A*57
$GPGGA,075148.000,5235.8051,N,01330.3307,E,1,12,0.75,48.0,M,44.5,M,,*50
$GPRMC,075147.000,A,5235.8089,N,01330.3407,E,25.98,237.09,270114,,,A*5F
$GPGGA,075202.000,5235.7424,N,01330.1735,E,1,11,0.78,46.7,M,44.5,M,,*54
$GPRMC,075201.000,A,5235.7467,N,01330.1841,E,28.93,236.84,270114,,,A*5B
$GPGGA,075215.000,5235.6836,N,01330.0252,E,1,11,0.78,45.2,M,44.5,M,,*5F
$GPRMC,075214.000,A,5235.6884,N,01330.0376,E,32.38,237.16,270114,,,A*51
$GPGGA,075228.000,5235.6209,N,01329.8669,E,1,12,0.74,45.3,M,44.5,M,,*55
$GPRMC,075227.000,A,5235.6257,N,01329.8790,E,31.99,236.99,270114,,,A*57
$GPGGA,075242.000,5235.5582,N,01329.7099,E,1,12,0.75,45.5,M,44.5,M,,*5F
$GPRMC,075241.000,A,5235.5626,N,01329.7210,E,29.05,236.88,270114,,,A*58
ping
$GPGGA,075318.000,5235.4995,N,01329.5601,E,1,12,0.75,44.0,M,44.5,M,,*5B
$GPRMC,075317.000,A,5235.5005,N,01329.5629,E,6.46,236.99,270114,,,A*6B
ping
$GPGGA,075416.000,5235.4410,N,01329.4094,E,1,12,0.75,44.9,M,44.5,M,,*50
$GPRMC,075415.000,A,5235.4429,N,01329.4142,E,12.03,237.59,270114,,,A*57
ping
$GPGGA,075448.000,5235.3757,N,01329.2671,E,1,12,0.75,43.2,M,44.5,M,,*5B
$GPRMC,075447.000,A,5235.3777,N,01329.2704,E,10.30,225.50,270114,,,A*55
ping
$GPGGA,075520.000,5235.2903,N,01329.1559,E,1,12,0.75,40.4,M,44.5,M,,*55
$GPRMC,075519.000,A,5235.2930,N,01329.1589,E,12.57,211.57,270114,,,A*54
ping
$GPGGA,075603.000,5235.1884,N,01329.0903,E,1,11,0.78,42.3,M,44.5,M,,*53
$GPRMC,075602.000,A,5235.1911,N,01329.0913,E,10.76,196.46,270114,,,A*5E
ping
$GPGGA,075648.000,5235.0844,N,01329.0383,E,1,12,0.75,43.3,M,44.5,M,,*5C
$GPRMC,075647.000,A,5235.0866,N,01329.0392,E,8.65,196.00,270114,,,A*65
ping
ping
$GPGGA,075811.000,5234.9798,N,01328.9915,E,1,11,0.79,45.9,M,44.5,M,,*56
$GPRMC,075810.000,A,5234.9847,N,01328.9931,E,16.50,191.94,270114,,,A*5A
$GPGGA,075838.000,5234.8692,N,01328.9723,E,1,12,0.75,45.0,M,44.5,M,,*5A
$GPRMC,075837.000,A,5234.8739,N,01328.9728,E,16.85,183.68,270114,,,A*56
$GPGGA,075901.000,5234.7573,N,01328.9640,E,1,12,0.75,43.7,M,44.5,M,,*57
$GPRMC,075900.000,A,5234.7622,N,01328.9630,E,18.33,175.09,270114,,,A*52
$GPGGA,075923.000,5234.6511,N,01328.9944,E,1,12,0.75,43.3,M,44.5,M,,*5D
$GPRMC,075922.000,A,5234.6552,N,01328.9935,E,15.27,169.89,270114,,,A*50
$GPGGA,075948.000,5234.5392,N,01328.9892,E,1,12,0.75,42.3,M,44.5,M,,*55
$GPRMC,075947.000,A,5234.5440,N,01328.9899,E,17.66,186.13,270114,,,A*50
$GPGGA,080013.000,5234.4289,N,01328.9730,E,1,11,0.79,41.5,M,44.5,M,,*5F
$GPRMC,080012.000,A,5234.4333,N,01328.9736,E,15.95,185.58,270114,,,A*59
ping
$GPGGA,080046.000,5234.3171,N,01328.9521,E,1,12,0.75,40.1,M,44.5,M,,*54
$GPRMC,080045.000,A,5234.3229,N,01328.9540,E,22.06,189.68,270114,,,A*54
$GPGGA,080102.000,5234.2326,N,01328.8426,E,1,11,0.77,41.8,M,44.5,M,,*5A
$GPRMC,080101.000,A,5234.2365,N,01328.8505,E,22.03,229.75,270114,,,A*5D
$GPGGA,080116.000,5234.1555,N,01328.7077,E,1,12,0.75,39.7,M,44.5,M,,*50
$GPRMC,080115.000,A,5234.1621,N,01328.7180,E,32.66,224.09,270114,,,A*5C
$GPGGA,080130.000,5234.0833,N,01328.5725,E,1,11,0.77,39.9,M,44.5,M,,*55
$GPRMC,080129.000,A,5234.0872,N,01328.5806,E,23.04,232.09,270114,,,A*5C
$GPGGA,080144.000,5234.0190,N,01328.4274,E,1,12,0.75,38.6,M,44.5,M,,*59
$GPRMC,080143.000,A,5234.0229,N,01328.4374,E,26.27,237.81,270114,,,A*5A
$GPGGA,080159.000,5233.9560,N,01328.2784,E,1,11,0.87,39.5,M,44.5,M,,*50
$GPRMC,080158.000,A,5233.9592,N,01328.2871,E,24.12,238.32,270114,,,A*52
$GPGGA,080217.000,5233.8592,N,01328.1941,E,1,11,0.78,41.1,M,44.6,M,,*59
$GPRMC,080216.000,A,5233.8656,N,01328.1989,E,24.52,203.47,270114,,,A*5A
$GPGGA,080234.000,5233.7587,N,01328.1238,E,1,11,0.78,40.6,M,44.6,M,,*50
$GPRMC,080233.000,A,5233.7639,N,01328.1273,E,20.67,203.05,270114,,,A*51
$GPGGA,080303.000,5233.6563,N,01328.0538,E,1,11,0.79,40.0,M,44.6,M,,*5F
$GPRMC,080302.000,A,5233.6596,N,01328.0558,E,12.62,200.94,270114,,,A*55
ping
$GPGGA,080358.000,5233.5502,N,01327.9943,E,1,10,0.84,46.3,M,44.6,M,,*55
$GPRMC,080357.000,A,5233.5552,N,01327.9969,E,18.43,198.49,270114,,,A*5D
ping
ping
$GPGGA,080504.000,5233.4399,N,01327.9945,E,1,8,1.14,47.4,M,44.6,M,,*6E
$GPRMC,080503.000,A,5233.4441,N,01327.9929,E,14.24,167.70,270114,,,A*5B
$GPGGA,080525.000,5233.3326,N,01328.0437,E,1,10,0.89,47.3,M,44.6,M,,*5B
$GPRMC,080524.000,A,5233.3381,N,01328.0422,E,18.54,171.76,270114,,,A*58
$GPGGA,080545.000,5233.2245,N,01328.0416,E,1,9,0.94,48.0,M,44.6,M,,*63
$GPRMC,080544.000,A,5233.2301,N,01328.0449,E,21.60,196.50,270114,,,A*5A
ping
ping
ping
$GPGGA,080738.000,5233.1301,N,01327.9460,E,1,11,0.79,44.2,M,44.6,M,,*5A
$GPRMC,080737.000,A,5233.1322,N,01327.9519,E,16.41,233.51,270114,,,A*56
ping
$GPGGA,080814.000,5233.0247,N,01327.9825,E,1,10,0.87,46.3,M,44.6,M,,*57
$GPRMC,080813.000,A,5233.0303,N,01327.9807,E,20.44,170.34,270114,,,A*58
ping
$GPGGA,080857.000,5232.9147,N,01328.0173,E,1,10,0.85,50.7,M,44.6,M,,*56
$GPRMC,080856.000,A,5232.9191,N,01328.0155,E,14.72,166.52,270114,,,A*55
ping
ping
$GPGGA,081007.000,5232.8087,N,01328.0511,E,1,11,0.79,46.7,M,44.6,M,,*53
$GPRMC,081006.000,A,5232.8127,N,01328.0494,E,12.13,166.04,270114,,,A*5F
$GPGGA,081021.000,5232.6982,N,01328.0964,E,1,12,0.73,46.3,M,44.6,M,,*56
$GPRMC,081020.000,A,5232.7072,N,01328.0931,E,33.22,167.53,270114,,,A*55
$GPGGA,081033.000,5232.5911,N,01328.1369,E,1,11,0.79,46.0,M,44.6,M,,*50
$GPRMC,081032.000,A,5232.6003,N,01328.1335,E,33.13,167.26,270114,,,A*5E
$GPGGA,081044.000,5232.4855,N,01328.1757,E,1,12,0.73,46.6,M,44.6,M,,*56
$GPRMC,081043.000,A,5232.4952,N,01328.1720,E,35.81,167.76,270114,,,A*5F
$GPGGA,081057.000,5232.3770,N,01328.2249,E,1,9,1.10,46.9,M,44.6,M,,*63
$GPRMC,081056.000,A,5232.3841,N,01328.2200,E,27.85,157.53,270114,,,A*58
$GPGGA,081111.000,5232.2749,N,01328.2965,E,1,11,0.81,47.4,M,44.6,M,,*52
$GPRMC,081110.000,A,5232.2822,N,01328.2910,E,28.67,156.02,270114,,,A*53
$GPGGA,081130.000,5232.1794,N,01328.3892,E,1,12,0.73,45.9,M,44.6,M,,*5B
$GPRMC,081129.000,A,5232.1842,N,01328.3851,E,19.18,151.72,270114,,,A*53
$GPGGA,081145.000,5232.0828,N,01328.4753,E,1,9,0.91,43.3,M,44.6,M,,*6F
$GPRMC,081144.000,A,5232.0899,N,01328.4688,E,29.34,149.64,270114,,,A*51
ping
$GPGGA,081233.000,5231.9857,N,01328.5549,E,1,11,0.81,41.9,M,44.6,M,,*57
$GPRMC,081232.000,A,5231.9892,N,01328.5522,E,12.88,157.42,270114,,,A*54
$GPGGA,081250.000,5231.9861,N,01328.7373,E,1,8,1.42,41.2,M,44.6,M,,*67
$GPRMC,081249.000,A,5231.9853,N,01328.7238,E,29.14,84.52,270114,,,A*68
$GPGGA,081303.000,5231.9965,N,01328.9206,E,1,9,1.01,42.6,M,44.6,M,,*69
$GPRMC,081302.000,A,5231.9957,N,01328.9074,E,29.49,84.72,270114,,,A*6D
ping
$GPGGA,081348.000,5232.0078,N,01329.1049,E,1,10,0.96,45.8,M,44.6,M,,*57
$GPRMC,081347.000,A,5232.0072,N,01329.0956,E,19.03,84.47,270114,,,A*62
$GPGGA,081403.000,5232.0187,N,01329.2895,E,1,9,1.13,48.1,M,44.6,M,,*64
$GPRMC,081402.000,A,5232.0178,N,01329.2745,E,32.64,84.46,270114,,,A*68
$GPGGA,081416.000,5232.0295,N,01329.4716,E,1,10,0.90,47.3,M,44.6,M,,*5D
$GPRMC,081415.000,A,5232.0287,N,01329.4578,E,30.27,84.51,270114,,,A*64
$GPGGA,081429.000,5232.0404,N,01329.6534,E,1,10,0.96,46.8,M,44.6,M,,*53
$GPRMC,081428.000,A,5232.0397,N,01329.6390,E,32.01,84.93,270114,,,A*60
$GPGGA,081443.000,5232.0468,N,01329.8419,E,1,10,0.90,46.9,M,44.6,M,,*52
$GPRMC,081442.000,A,5232.0467,N,01329.8285,E,29.22,89.50,270114,,,A*66
$GPGGA,081508.000,5231.9871,N,01329.9923,E,1,11,0.78,46.6,M,44.6,M,,*5F
$GPRMC,081507.000,A,5231.9948,N,01329.9912,E,27.34,174.55,270114,,,A*57
$GPGGA,081524.000,5231.8733,N,01330.0027,E,1,11,0.78,46.2,M,44.6,M,,*51
$GPRMC,081523.000,A,5231.8805,N,01330.0033,E,26.28,182.65,270114,,,A*55
$GPGGA,081540.000,5231.7655,N,01329.9969,E,1,11,0.78,48.5,M,44.6,M,,*56
$GPRMC,081539.000,A,5231.7716,N,01329.9971,E,22.51,181.81,270114,,,A*51
$GPGGA,081602.000,5231.6565,N,01329.9885,E,1,11,0.78,47.6,M,44.6,M,,*5D
$GPRMC,081601.000,A,5231.6583,N,01329.9886,E,7.45,183.19,270114,,,A*6E
ping
ping
ping
ping
ping
$GPGGA,081848.000,5231.5476,N,01329.9777,E,1,10,0.84,51.9,M,44.6,M,,*55
$GPRMC,081847.000,A,5231.5537,N,01329.9778,E,20.88,181.49,270114,,,A*53
$GPGGA,081906.000,5231.4369,N,01329.9728,E,1,10,0.84,50.6,M,44.6,M,,*52
$GPRMC,081905.000,A,5231.4428,N,01329.9731,E,20.81,182.59,270114,,,A*5C
$GPGGA,081927.000,5231.3239,N,01329.9656,E,1,10,0.84,48.5,M,44.6,M,,*50
$GPRMC,081926.000,A,5231.3295,N,01329.9657,E,20.56,181.90,270114,,,A*57
ping
$GPGGA,082008.000,5231.2125,N,01329.9574,E,1,10,0.96,46.9,M,44.6,M,,*5A
$GPRMC,082007.000,A,5231.2165,N,01329.9573,E,13.94,180.96,270114,,,A*5F
ping
$DeviceName=pironex_auto
$Software=0.1.3
$Hardware=1
$LastValidPosition=
$IMEI=359193030849087
$LocalIP=10.34.17.149
$CmdVersion=2
$SUCCESS
$<end>
$GPGGA,082130.000,5231.1343,N,01329.9225,E,1,5,1.03,104.1,M,44.6,M,,*54
$GPRMC,082128.921,V,,,,,0.02,0.00,270114,,,N*45
ping
ping
ping
ping
ping
ping
ping
ping
$DeviceName=pironex_auto
$Software=0.1.3
$Hardware=1
$LastValidPosition=
$IMEI=359193030849087
$LocalIP=10.65.236.5
$CmdVersion=2
$SUCCESS
$<end>
$GPGGA,122023.000,5231.1302,N,01329.9210,E,1,8,1.22,67.0,M,44.6,M,,*64
$GPRMC,122022.000,V,,,,,0.05,259.43,270114,,,N*41
ping
ping
ping
ping
ping
ping
ping
$GPGGA,122412.000,5231.0228,N,01329.9382,E,1,9,0.89,74.8,M,44.6,M,,*6B
$GPRMC,122411.000,A,5231.0272,N,01329.9393,E,15.89,189.48,270114,,,A*58
ping
$GPGGA,122449.000,5230.9597,N,01329.7941,E,1,10,0.90,59.2,M,44.6,M,,*50
$GPRMC,122448.000,A,5230.9591,N,01329.8019,E,17.06,278.34,270114,,,A*55
$GPGGA,122515.000,5230.9754,N,01329.6192,E,1,9,1.05,53.1,M,44.6,M,,*6E
$GPRMC,122514.000,A,5230.9749,N,01329.6246,E,12.13,280.21,270114,,,A*5E
ping
$GPGGA,122552.000,5230.9259,N,01329.4558,E,1,9,0.92,48.5,M,44.6,M,,*64
$GPRMC,122551.000,A,5230.9287,N,01329.4609,E,15.75,225.22,270114,,,A*5E
$GPGGA,122621.000,5230.8220,N,01329.4035,E,1,9,0.90,39.9,M,44.6,M,,*6A
$GPRMC,122620.000,A,5230.8268,N,01329.4041,E,15.77,189.23,270114,,,A*57
ping
ping
ping
ping
ping
$GPGGA,122906.000,5230.7178,N,01329.4606,E,1,9,1.08,32.1,M,44.6,M,,*64
$GPRMC,122905.000,A,5230.7190,N,01329.4505,E,22.26,99.27,270114,,,A*65
$GPGGA,122926.000,5230.7017,N,01329.6395,E,1,7,2.13,32.5,M,44.6,M,,*60
$GPRMC,122925.000,A,5230.7024,N,01329.6301,E,21.08,97.81,270114,,,A*64
$GPGGA,122946.000,5230.6871,N,01329.8218,E,1,9,1.08,37.4,M,44.6,M,,*66
$GPRMC,122945.000,A,5230.6879,N,01329.8124,E,20.40,98.01,270114,,,A*62
$GPGGA,123004.000,5230.6703,N,01329.9997,E,1,10,0.92,38.5,M,44.6,M,,*5B
$GPRMC,123003.000,A,5230.6712,N,01329.9899,E,21.86,98.80,270114,,,A*66
$GPGGA,123022.000,5230.6491,N,01330.1736,E,1,8,1.20,34.1,M,44.6,M,,*6B
$GPRMC,123021.000,A,5230.6502,N,01330.1640,E,21.55,100.67,270114,,,A*58
$GPGGA,123041.000,5230.6349,N,01330.3513,E,1,8,1.09,31.2,M,44.6,M,,*66
$GPRMC,123040.000,A,5230.6354,N,01330.3411,E,22.73,95.68,270114,,,A*6B
$GPGGA,123100.000,5230.6243,N,01330.5315,E,1,7,1.77,31.5,M,44.6,M,,*6E
$GPRMC,123059.000,A,5230.6249,N,01330.5218,E,21.79,95.37,270114,,,A*64
$GPGGA,123118.000,5230.6122,N,01330.7145,E,1,7,2.09,30.6,M,44.6,M,,*6E
$GPRMC,123117.000,A,5230.6135,N,01330.7029,E,25.02,98.84,270114,,,A*68
$GPGGA,123133.000,5230.5917,N,01330.8961,E,1,7,2.09,30.6,M,44.6,M,,*6B
$GPRMC,123132.000,A,5230.5930,N,01330.8841,E,26.79,100.14,270114,,,A*5E
$GPGGA,123150.000,5230.5732,N,01331.0716,E,1,7,1.76,31.2,M,44.6,M,,*6E
$GPRMC,123149.000,A,5230.5744,N,01331.0658,E,14.33,106.98,270114,,,A*5D
ping
$GPGGA,123224.000,5230.4756,N,01331.1536,E,1,8,0.99,29.6,M,44.6,M,,*6E
$GPRMC,123223.000,A,5230.4831,N,01331.1514,E,26.92,168.58,270114,,,A*5A
ping
$GPGGA,123257.000,5230.3668,N,01331.1746,E,1,8,1.10,24.5,M,44.6,M,,*6A
$GPRMC,123256.000,A,5230.3699,N,01331.1740,E,9.50,174.17,270114,,,A*65
$GPGGA,123319.000,5230.2613,N,01331.2144,E,1,7,1.33,25.2,M,44.6,M,,*63
$GPRMC,123318.000,A,5230.2670,N,01331.2116,E,21.22,162.96,270114,,,A*5F
$GPGGA,123336.000,5230.1557,N,01331.2532,E,1,8,1.33,25.1,M,44.6,M,,*67
$GPRMC,123335.000,A,5230.1617,N,01331.2511,E,22.06,169.12,270114,,,A*53
$GPGGA,123353.000,5230.0505,N,01331.2901,E,1,7,1.33,27.3,M,44.6,M,,*61
$GPRMC,123352.000,A,5230.0567,N,01331.2880,E,22.66,168.68,270114,,,A*58
$GPGGA,123410.000,5229.9432,N,01331.3477,E,1,8,1.10,24.9,M,44.6,M,,*6F
$GPRMC,123409.000,A,5229.9496,N,01331.3435,E,25.79,158.64,270114,,,A*5A
$GPGGA,123429.000,5229.8383,N,01331.4072,E,1,8,1.10,24.6,M,44.6,M,,*60
$GPRMC,123428.000,A,5229.8436,N,01331.4049,E,18.94,166.27,270114,,,A*5D
ping
$GPGGA,123520.000,5229.7370,N,01331.4699,E,1,7,1.14,23.6,M,44.6,M,,*64
$GPRMC,123519.000,A,5229.7435,N,01331.4656,E,25.05,157.43,270114,,,A*5C
$GPGGA,123536.000,5229.6370,N,01331.5395,E,1,8,1.10,21.8,M,44.6,M,,*6D
$GPRMC,123535.000,A,5229.6417,N,01331.5366,E,18.48,159.19,270114,,,A*52
$GPGGA,123556.000,5229.5310,N,01331.6077,E,1,7,1.29,22.6,M,44.6,M,,*6A
$GPRMC,123555.000,A,5229.5369,N,01331.6039,E,23.31,159.27,270114,,,A*58
$GPGGA,123614.000,5229.4291,N,01331.6679,E,1,8,1.10,22.2,M,44.6,M,,*6F
$GPRMC,123613.000,A,5229.4346,N,01331.6666,E,19.24,169.39,270114,,,A*58
$GPGGA,123630.000,5229.3193,N,01331.6486,E,1,7,1.29,26.3,M,44.6,M,,*6D
$GPRMC,123629.000,A,5229.3263,N,01331.6509,E,24.43,191.90,270114,,,A*51
ping
ping
$GPGGA,123736.000,5229.2136,N,01331.6101,E,1,8,1.10,37.9,M,44.6,M,,*61
$GPRMC,123735.000,A,5229.2171,N,01331.6112,E,11.66,194.52,270114,,,A*58
$GPGGA,123755.000,5229.1071,N,01331.5770,E,1,8,1.10,37.7,M,44.6,M,,*68
$GPRMC,123754.000,A,5229.1128,N,01331.5792,E,20.90,191.90,270114,,,A*5D
ping
$GPGGA,123850.000,5228.9995,N,01331.5447,E,1,7,1.32,39.9,M,44.6,M,,*60
$GPRMC,123849.000,A,5229.0017,N,01331.5454,E,6.86,192.15,270114,,,A*66
ping
$GPGGA,123923.000,5228.8893,N,01331.5225,E,1,8,1.08,41.3,M,44.6,M,,*62
$GPRMC,123922.000,A,5228.8928,N,01331.5230,E,13.14,178.56,270114,,,A*5E
ping
$GPGGA,124010.000,5228.7800,N,01331.4879,E,1,8,1.10,37.0,M,44.6,M,,*60
$GPRMC,124009.000,A,5228.7866,N,01331.4899,E,23.59,191.08,270114,,,A*53
$GPGGA,124026.000,5228.6704,N,01331.4509,E,1,6,1.93,34.3,M,44.6,M,,*60
$GPRMC,124025.000,A,5228.6757,N,01331.4543,E,21.44,197.54,270114,,,A*5A
$GPGGA,124043.000,5228.5797,N,01331.3542,E,1,8,1.10,33.3,M,44.6,M,,*60
$GPRMC,124042.000,A,5228.5848,N,01331.3598,E,21.42,212.91,270114,,,A*59
$GPGGA,124059.000,5228.4870,N,01331.2489,E,1,7,1.32,30.8,M,44.6,M,,*6C
$GPRMC,124058.000,A,5228.4928,N,01331.2553,E,25.73,214.09,270114,,,A*53
$GPGGA,124115.000,5228.3915,N,01331.1460,E,1,8,1.08,28.9,M,44.6,M,,*6A
$GPRMC,124114.000,A,5228.3976,N,01331.1525,E,26.14,213.17,270114,,,A*5E
$GPGGA,124131.000,5228.2969,N,01331.0444,E,1,8,1.08,28.8,M,44.6,M,,*60
$GPRMC,124130.000,A,5228.3028,N,01331.0506,E,24.84,213.31,270114,,,A*55
$GPGGA,124148.000,5228.2036,N,01330.9445,E,1,8,1.08,29.2,M,44.6,M,,*6F
$GPRMC,124147.000,A,5228.2081,N,01330.9494,E,19.99,213.61,270114,,,A*52
ping
$GPGGA,124244.000,5228.1151,N,01330.8409,E,1,8,1.10,28.1,M,44.6,M,,*61
$GPRMC,124243.000,A,5228.1182,N,01330.8458,E,16.18,223.81,270114,,,A*5E
$GPGGA,124308.000,5228.0105,N,01330.7853,E,1,8,1.08,26.4,M,44.6,M,,*66
$GPRMC,124307.000,A,5228.0155,N,01330.7847,E,16.61,174.35,270114,,,A*59
ping
$GPGGA,124348.000,5227.9019,N,01330.8086,E,1,8,1.08,44.2,M,44.6,M,,*65
$GPRMC,124347.000,A,5227.9048,N,01330.8082,E,10.21,167.47,270114,,,A*5D
ping
$GPGGA,124441.000,5227.8532,N,01330.6476,E,1,8,1.10,35.7,M,44.6,M,,*69
$GPRMC,124440.000,A,5227.8537,N,01330.6532,E,12.42,254.63,270114,,,A*53
ping
ping
ping
$GPGGA,124634.000,5227.7660,N,01330.7542,E,1,7,1.30,27.0,M,44.6,M,,*6C
$GPRMC,124633.000,A,5227.7667,N,01330.7516,E,6.71,110.63,270114,,,A*6D
ping
ping
ping
$GPGGA,124825.000,5227.7280,N,01330.9263,E,1,8,1.08,24.5,M,44.6,M,,*60
$GPRMC,124824.000,A,5227.7295,N,01330.9195,E,15.41,111.08,270114,,,A*50
$GPGGA,124847.000,5227.6906,N,01331.0962,E,1,8,1.08,24.7,M,44.6,M,,*60
$GPRMC,124846.000,A,5227.6927,N,01331.0867,E,22.24,109.81,270114,,,A*54
$GPGGA,124908.000,5227.6511,N,01331.2656,E,1,8,1.08,24.3,M,44.6,M,,*6E
$GPRMC,124907.000,A,5227.6530,N,01331.2589,E,16.45,111.21,270114,,,A*56
$GPGGA,124934.000,5227.5874,N,01331.4149,E,1,7,1.30,24.6,M,44.6,M,,*62
$GPRMC,124933.000,A,5227.5907,N,01331.4079,E,19.14,125.78,270114,,,A*56
ping
$GPGGA,125033.000,5227.5253,N,01331.5606,E,1,8,1.10,28.2,M,44.6,M,,*6A
$GPRMC,125032.000,A,5227.5263,N,01331.5591,E,5.51,126.29,270114,,,A*6F
ping
$GPGGA,125114.000,5227.4449,N,01331.6781,E,1,8,1.10,26.7,M,44.6,M,,*64
$GPRMC,125113.000,A,5227.4479,N,01331.6742,E,13.77,140.74,270114,,,A*55
ping
$GPGGA,125151.000,5227.4203,N,01331.8524,E,1,7,1.61,27.1,M,44.6,M,,*60
$GPRMC,125150.000,A,5227.4199,N,01331.8475,E,11.13,82.71,270114,,,A*6A
ping
$GPGGA,125246.000,5227.4354,N,01332.0322,E,1,8,1.51,27.9,M,44.6,M,,*69
$GPRMC,125245.000,A,5227.4365,N,01332.0268,E,10.11,67.76,270114,,,A*62
ping
ping
$DeviceName=pironex_auto
$Software=0.1.3
$Hardware=1
$LastValidPosition=
$IMEI=359193030849087
$LocalIP=10.66.238.109
$CmdVersion=2
$SUCCESS
$<end>
$DeviceName=pironex_auto
$Software=0.1.3
$Hardware=1
$LastValidPosition=
$IMEI=359193030849087
$LocalIP=10.61.26.176
$CmdVersion=2
$SUCCESS
$<end>
$GPGGA,153206.000,5227.3959,N,01331.9698,E,1,6,2.41,34.4,M,44.6,M,,*61
$GPRMC,153205.000,V,,,,,0.25,0.00,270114,,,N*4B
ping
ping
ping
ping
ping
ping
ping
ping
ping
ping
$GPGGA,153725.000,5227.4196,N,01331.7941,E,1,9,1.81,48.0,M,44.6,M,,*63
$GPRMC,153724.000,A,5227.4203,N,01331.8033,E,20.18,263.05,270114,,,A*5F
$GPGGA,153750.000,5227.4767,N,01331.6420,E,1,9,0.97,46.9,M,44.6,M,,*63
$GPRMC,153749.000,A,5227.4725,N,01331.6474,E,19.27,322.21,270114,,,A*58
ping
$GPGGA,153836.000,5227.5505,N,01331.5014,E,1,10,0.99,51.2,M,44.6,M,,*50
$GPRMC,153835.000,A,5227.5473,N,01331.5094,E,21.03,302.78,270114,,,A*57
$GPGGA,153854.000,5227.6141,N,01331.3564,E,1,9,1.04,49.5,M,44.6,M,,*64
$GPRMC,153853.000,A,5227.6100,N,01331.3656,E,24.28,305.31,270114,,,A*5D
$GPGGA,153912.000,5227.6700,N,01331.2016,E,1,8,1.24,51.6,M,44.6,M,,*6C
$GPRMC,153911.000,A,5227.6678,N,01331.2106,E,21.56,291.09,270114,,,A*5A
$GPGGA,153932.000,5227.7093,N,01331.0301,E,1,9,1.03,48.4,M,44.6,M,,*6B
$GPRMC,153931.000,A,5227.7075,N,01331.0377,E,18.25,291.81,270114,,,A*5A
ping
ping
ping
ping
ping
$GPGGA,154219.000,5227.7481,N,01330.8606,E,1,11,0.80,51.3,M,44.6,M,,*5E
$GPRMC,154218.000,A,5227.7466,N,01330.8653,E,9.91,292.66,270114,,,A*64
$GPGGA,154243.000,5227.7852,N,01330.6876,E,1,11,0.98,45.7,M,44.6,M,,*5C
$GPRMC,154242.000,A,5227.7832,N,01330.6962,E,20.18,290.49,270114,,,A*50
ping
ping
ping
$GPGGA,154446.000,5227.8231,N,01330.5172,E,1,13,0.75,33.2,M,44.6,M,,*54
$GPRMC,154445.000,A,5227.8223,N,01330.5221,E,10.04,290.81,270114,,,A*51
$GPGGA,154515.000,5227.7563,N,01330.3770,E,1,13,0.75,31.2,M,44.6,M,,*5C
$GPRMC,154514.000,A,5227.7598,N,01330.3809,E,16.00,213.03,270114,,,A*59
$GPGGA,154543.000,5227.6735,N,01330.2633,E,1,11,0.93,25.5,M,44.6,M,,*50
$GPRMC,154542.000,A,5227.6746,N,01330.2675,E,10.48,236.53,270114,,,A*56
$GPGGA,154614.000,5227.7272,N,01330.1073,E,1,9,1.06,26.7,M,44.6,M,,*62
$GPRMC,154613.000,A,5227.7223,N,01330.1150,E,24.55,315.90,270114,,,A*51
$GPGGA,154630.000,5227.8087,N,01329.9817,E,1,11,0.82,26.2,M,44.6,M,,*58
$GPRMC,154629.000,A,5227.8037,N,01329.9891,E,24.78,318.17,270114,,,A*59
$GPGGA,154647.000,5227.8929,N,01329.8557,E,1,13,0.75,26.8,M,44.6,M,,*5D
$GPRMC,154646.000,A,5227.8869,N,01329.8639,E,27.39,319.59,270114,,,A*53
$GPGGA,154701.000,5227.9796,N,01329.7410,E,1,12,0.80,29.8,M,44.6,M,,*5C
$GPRMC,154700.000,A,5227.9741,N,01329.7492,E,26.54,317.96,270114,,,A*5F
$GPGGA,154720.000,5228.0601,N,01329.6188,E,1,11,0.93,26.2,M,44.6,M,,*57
$GPRMC,154719.000,A,5228.0561,N,01329.6248,E,19.28,317.29,270114,,,A*52
$GPGGA,154743.000,5228.1409,N,01329.4970,E,1,9,1.05,24.5,M,44.6,M,,*66
$GPRMC,154742.000,A,5228.1366,N,01329.5033,E,20.94,316.98,270114,,,A*57
$GPGGA,154803.000,5228.2244,N,01329.3728,E,1,10,1.01,25.6,M,44.6,M,,*5B
$GPRMC,154802.000,A,5228.2200,N,01329.3795,E,21.48,315.78,270114,,,A*5E
$GPGGA,154822.000,5228.3051,N,01329.2524,E,1,9,1.19,25.8,M,44.6,M,,*6F
$GPRMC,154821.000,A,5228.3009,N,01329.2586,E,20.44,317.84,270114,,,A*58
$GPGGA,154841.000,5228.3852,N,01329.1314,E,1,9,1.00,26.9,M,44.6,M,,*6D
$GPRMC,154840.000,A,5228.3807,N,01329.1382,E,21.61,316.56,270114,,,A*50
$GPGGA,154901.000,5228.4682,N,01329.0058,E,1,10,0.97,27.1,M,44.6,M,,*58
$GPRMC,154900.000,A,5228.4643,N,01329.0122,E,18.56,315.87,270114,,,A*54
$GPGGA,154916.000,5228.5508,N,01328.8837,E,1,10,0.97,25.6,M,44.6,M,,*53
$GPRMC,154915.000,A,5228.5448,N,01328.8926,E,29.42,317.84,270114,,,A*5B
$GPGGA,154932.000,5228.6346,N,01328.7598,E,1,8,1.24,25.3,M,44.7,M,,*69
$GPRMC,154931.000,A,5228.6291,N,01328.7680,E,27.16,317.80,270114,,,A*5B
$GPGGA,154948.000,5228.7176,N,01328.6371,E,1,10,1.02,24.7,M,44.7,M,,*5C
$GPRMC,154947.000,A,5228.7135,N,01328.6432,E,20.62,318.47,270114,,,A*5C
$GPGGA,155005.000,5228.8021,N,01328.5146,E,1,9,0.99,23.5,M,44.7,M,,*6A
$GPRMC,155004.000,A,5228.7965,N,01328.5225,E,26.14,319.25,270114,,,A*5F
$GPGGA,155023.000,5228.8882,N,01328.4024,E,1,11,0.86,23.1,M,44.7,M,,*58
$GPRMC,155022.000,A,5228.8845,N,01328.4027,E,13.45,353.88,270114,,,A*5D
$GPGGA,155040.000,5228.9615,N,01328.5391,E,1,10,0.94,21.5,M,44.6,M,,*55
$GPRMC,155039.000,A,5228.9569,N,01328.5303,E,25.28,50.51,270114,,,A*6B
$GPGGA,155056.000,5229.0293,N,01328.6802,E,1,9,1.19,20.0,M,44.6,M,,*6A
$GPRMC,155055.000,A,5229.0259,N,01328.6729,E,19.92,51.52,270114,,,A*6E
$GPGGA,155121.000,5229.1422,N,01328.7023,E,1,11,0.90,19.6,M,44.6,M,,*59
$GPRMC,155120.000,A,5229.1347,N,01328.7090,E,30.38,330.21,270114,,,A*5D
$GPGGA,155135.000,5229.2370,N,01328.6156,E,1,10,0.93,22.1,M,44.6,M,,*50
$GPRMC,155134.000,A,5229.2309,N,01328.6213,E,25.37,330.04,270114,,,A*55
$GPGGA,155149.000,5229.3005,N,01328.4680,E,1,12,0.90,23.1,M,44.6,M,,*55
$GPRMC,155148.000,A,5229.2964,N,01328.4814,E,33.46,296.61,270114,,,A*5F
$GPGGA,155201.000,5229.3518,N,01328.2998,E,1,12,0.81,28.5,M,44.6,M,,*5C
$GPRMC,155200.000,A,5229.3475,N,01328.3138,E,35.31,297.07,270114,,,A*5B
$GPGGA,155214.000,5229.4012,N,01328.1287,E,1,13,0.74,24.4,M,44.6,M,,*50
$GPRMC,155213.000,A,5229.3976,N,01328.1410,E,30.20,295.99,270114,,,A*5A
$GPGGA,155226.000,5229.4484,N,01327.9685,E,1,13,0.74,21.5,M,44.6,M,,*5F
$GPRMC,155225.000,A,5229.4441,N,01327.9819,E,33.10,296.41,270114,,,A*55
$GPGGA,155240.000,5229.4980,N,01327.8054,E,1,13,0.74,22.9,M,44.7,M,,*53
$GPRMC,155239.000,A,5229.4949,N,01327.8173,E,28.93,292.09,270114,,,A*50
ping
$GPGGA,155321.000,5229.5469,N,01327.6430,E,1,13,0.74,22.5,M,44.7,M,,*5A
$GPRMC,155320.000,A,5229.5455,N,01327.6498,E,15.42,293.23,270114,,,A*5D
ping
$GPGGA,155355.000,5229.6561,N,01327.6729,E,1,12,0.81,19.8,M,44.6,M,,*57
$GPRMC,155354.000,A,5229.6510,N,01327.6664,E,23.06,37.09,270114,,,A*6D
$GPGGA,155413.000,5229.7455,N,01327.7785,E,1,12,0.76,23.9,M,44.6,M,,*52
$GPRMC,155412.000,A,5229.7415,N,01327.7737,E,17.94,36.56,270114,,,A*6C
ping
ping
$GPGGA,155542.000,5229.8356,N,01327.8787,E,1,11,0.84,20.7,M,44.6,M,,*52
$GPRMC,155541.000,A,5229.8327,N,01327.8776,E,10.40,20.99,270114,,,A*62
$GPGGA,155604.000,5229.8991,N,01327.7243,E,1,9,1.16,23.9,M,44.6,M,,*6E
$GPRMC,155603.000,A,5229.8965,N,01327.7339,E,22.29,294.25,270114,,,A*5F
$GPGGA,155626.000,5229.9498,N,01327.5644,E,1,8,1.14,24.8,M,44.6,M,,*6F
$GPRMC,155625.000,A,5229.9473,N,01327.5729,E,20.84,294.59,270114,,,A*59
$GPGGA,155644.000,5230.0027,N,01327.4022,E,1,11,0.85,23.5,M,44.6,M,,*56
$GPRMC,155643.000,A,5229.9998,N,01327.4112,E,22.95,297.91,270114,,,A*5B
$GPGGA,155703.000,5230.0526,N,01327.2408,E,1,11,0.85,23.2,M,44.6,M,,*5D
$GPRMC,155702.000,A,5230.0501,N,01327.2507,E,24.02,294.15,270114,,,A*53
$GPGGA,155720.000,5230.0985,N,01327.0715,E,1,11,0.92,22.6,M,44.7,M,,*56
$GPRMC,155719.000,A,5230.0958,N,01327.0814,E,23.47,293.49,270114,,,A*5C
$GPGGA,155738.000,5230.1425,N,01326.9095,E,1,12,0.81,23.1,M,44.7,M,,*59
$GPRMC,155737.000,A,5230.1408,N,01326.9158,E,17.43,294.05,270114,,,A*5C
ping
ping
$GPGGA,155851.000,5230.1869,N,01326.7435,E,1,13,0.73,24.1,M,44.7,M,,*56
$GPRMC,155850.000,A,5230.1848,N,01326.7514,E,18.83,295.03,270114,,,A*5C
$GPGGA,155911.000,5230.2417,N,01326.5844,E,1,10,0.98,23.1,M,44.7,M,,*5C
$GPRMC,155910.000,A,5230.2386,N,01326.5933,E,22.69,298.10,270114,,,A*5A
$GPGGA,155936.000,5230.2992,N,01326.4305,E,1,12,0.81,24.4,M,44.7,M,,*5E
$GPRMC,155935.000,A,5230.2966,N,01326.4375,E,17.66,302.48,270114,,,A*56
$GPGGA,155955.000,5230.3664,N,01326.2911,E,1,10,0.93,26.3,M,44.7,M,,*51
$GPRMC,155954.000,A,5230.3615,N,01326.2971,E,21.16,323.07,270114,,,A*59
$GPGGA,160014.000,5230.4536,N,01326.1748,E,1,13,0.78,27.1,M,44.7,M,,*5C
$GPRMC,160013.000,A,5230.4497,N,01326.1797,E,17.21,321.92,270114,,,A*50
ping
$GPGGA,160047.000,5230.5361,N,01326.0554,E,1,10,0.95,25.7,M,44.7,M,,*55
$GPRMC,160046.000,A,5230.5320,N,01326.0642,E,23.34,307.52,270114,,,A*59
$GPGGA,160102.000,5230.6007,N,01325.8990,E,1,10,0.97,24.6,M,44.7,M,,*58
$GPRMC,160101.000,A,5230.5965,N,01325.9096,E,27.24,302.65,270114,,,A*51
$GPGGA,160120.000,5230.6603,N,01325.7426,E,1,10,0.91,24.1,M,44.7,M,,*54
$GPRMC,160119.000,A,5230.6565,N,01325.7526,E,25.57,301.99,270114,,,A*51
$GPGGA,160137.000,5230.7259,N,01325.5933,E,1,9,0.91,23.1,M,44.7,M,,*6C
$GPRMC,160136.000,A,5230.7217,N,01325.6014,E,24.78,308.27,270114,,,A*5A
ping
$GPGGA,160230.000,5230.8068,N,01325.4752,E,1,11,0.84,26.1,M,44.7,M,,*57
$GPRMC,160229.000,A,5230.8052,N,01325.4782,E,8.55,313.94,270114,,,A*62
$GPGGA,160255.000,5230.9045,N,01325.5649,E,1,10,0.96,25.4,M,44.7,M,,*54
$GPRMC,160254.000,A,5230.8999,N,01325.5603,E,20.80,28.09,270114,,,A*62
$GPGGA,160314.000,5231.0042,N,01325.6482,E,1,8,1.13,25.8,M,44.7,M,,*60
$GPRMC,160313.000,A,5230.9990,N,01325.6448,E,20.76,22.27,270114,,,A*69
ping
ping
$GPGGA,160430.000,5231.0995,N,01325.7363,E,1,8,1.33,31.7,M,44.7,M,,*63
$GPRMC,160429.000,A,5231.0967,N,01325.7315,E,15.03,51.02,270114,,,A*6E
ping
$GPGGA,160512.000,5231.1500,N,01325.5783,E,1,8,1.17,27.5,M,44.7,M,,*68
$GPRMC,160511.000,A,5231.1470,N,01325.5897,E,27.36,294.06,270114,,,A*55
$GPGGA,160526.000,5231.1980,N,01325.4181,E,1,8,1.34,26.1,M,44.7,M,,*6A
$GPRMC,160525.000,A,5231.1949,N,01325.4288,E,27.56,296.44,270114,,,A*52
$GPGGA,160547.000,5231.2469,N,01325.2539,E,1,8,1.34,26.1,M,44.7,M,,*65
$GPRMC,160546.000,A,5231.2436,N,01325.2649,E,26.73,295.83,270114,,,A*50
$GPGGA,160602.000,5231.2987,N,01325.0901,E,1,8,1.13,25.5,M,44.7,M,,*6D
$GPRMC,160601.000,A,5231.2958,N,01325.0996,E,24.09,296.05,270114,,,A*58
ping
ping
ping
$GPGGA,160740.000,5231.3566,N,01324.9346,E,1,8,1.22,29.2,M,44.7,M,,*60
$GPRMC,160739.000,A,5231.3537,N,01324.9408,E,15.74,306.83,270114,,,A*5A
$GPGGA,160802.000,5231.4212,N,01324.7933,E,1,8,1.29,26.2,M,44.7,M,,*68
$GPRMC,160801.000,A,5231.4194,N,01324.7969,E,11.32,307.11,270114,,,A*5C
ping
ping
$GPGGA,160925.000,5231.4416,N,01324.6158,E,1,8,1.35,24.6,M,44.7,M,,*61
$GPRMC,160924.000,A,5231.4412,N,01324.6238,E,17.97,273.27,270114,,,A*51
ping
ping
$GPGGA,161049.000,5231.4827,N,01324.4492,E,1,9,1.09,28.7,M,44.7,M,,*6F
$GPRMC,161048.000,A,5231.4802,N,01324.4561,E,17.37,303.43,270114,,,A*59
ping
$GPGGA,161145.000,5231.5329,N,01324.2908,E,1,9,1.02,37.7,M,44.7,M,,*6B
$GPRMC,161144.000,A,5231.5305,N,01324.2962,E,14.30,296.32,270114,,,A*5F
ping
ping
$GPGGA,161302.000,5231.6250,N,01324.1982,E,1,8,1.37,36.6,M,44.7,M,,*60
$GPRMC,161301.000,A,5231.6194,N,01324.2003,E,20.87,346.60,270114,,,A*5B
$GPGGA,161324.000,5231.7239,N,01324.1203,E,1,8,1.16,34.1,M,44.7,M,,*6E
$GPRMC,161323.000,A,5231.7202,N,01324.1235,E,15.63,333.10,270114,,,A*5B
ping
ping
$GPGGA,161445.000,5231.8238,N,01324.0430,E,1,7,1.53,28.7,M,44.7,M,,*62
$GPRMC,161444.000,A,5231.8196,N,01324.0467,E,17.11,332.63,270114,,,A*5E
$GPGGA,161507.000,5231.9216,N,01323.9591,E,1,8,1.38,24.6,M,44.7,M,,*63
$GPRMC,161506.000,A,5231.9169,N,01323.9636,E,18.94,332.02,270114,,,A*55
$GPGGA,161533.000,5231.9491,N,01323.7824,E,1,8,1.16,22.6,M,44.7,M,,*6A
$GPRMC,161532.000,A,5231.9493,N,01323.7894,E,15.98,266.62,270114,,,A*5D
$GPGGA,161554.000,5231.9296,N,01323.6014,E,1,10,1.02,23.6,M,44.7,M,,*5D
$GPRMC,161553.000,A,5231.9308,N,01323.6113,E,22.10,258.35,270114,,,A*53
$GPGGA,161612.000,5231.9130,N,01323.4256,E,1,9,1.30,25.2,M,44.7,M,,*6E
$GPRMC,161611.000,A,5231.9136,N,01323.4344,E,19.32,262.58,270114,,,A*51
ping
ping
$GPGGA,161737.000,5231.9818,N,01323.2851,E,1,14,0.75,23.6,M,44.7,M,,*5E
$GPRMC,161736.000,A,5231.9799,N,01323.2874,E,8.72,319.97,270114,,,A*62
ping
ping
$GPGGA,161906.000,5231.9511,N,01323.1140,E,1,11,0.89,23.3,M,44.7,M,,*5F
$GPRMC,161905.000,A,5231.9544,N,01323.1209,E,19.21,232.85,270114,,,A*50
$GPGGA,161931.000,5231.8898,N,01322.9656,E,1,11,0.84,22.1,M,44.7,M,,*51
$GPRMC,161930.000,A,5231.8911,N,01322.9684,E,8.55,245.14,270114,,,A*68
ping
$GPGGA,162015.000,5231.9611,N,01322.8275,E,1,9,1.11,27.6,M,44.7,M,,*61
$GPRMC,162014.000,A,5231.9579,N,01322.8312,E,13.70,325.66,270114,,,A*53
$GPGGA,162035.000,5232.0494,N,01322.7181,E,1,11,0.83,26.6,M,44.7,M,,*53
$GPRMC,162034.000,A,5232.0447,N,01322.7239,E,21.49,322.47,270114,,,A*5F
$GPGGA,162059.000,5232.1365,N,01322.6096,E,1,10,0.90,26.1,M,44.7,M,,*53
$GPRMC,162058.000,A,5232.1342,N,01322.6123,E,9.72,323.51,270114,,,A*6B
$GPGGA,162120.000,5232.2240,N,01322.4976,E,1,9,1.15,27.3,M,44.7,M,,*6B
$GPRMC,162119.000,A,5232.2208,N,01322.5024,E,15.51,319.88,270114,,,A*57
$GPGGA,162141.000,5232.3023,N,01322.3705,E,1,8,1.28,27.9,M,44.7,M,,*62
$GPRMC,162140.000,A,5232.2980,N,01322.3775,E,22.26,316.15,270114,,,A*5A
ping
ping
$GPGGA,162254.000,5232.3852,N,01322.2461,E,1,8,1.12,32.0,M,44.7,M,,*6F
$GPRMC,162253.000,A,5232.3814,N,01322.2515,E,16.48,319.44,270114,,,A*57
ping
ping
$GPGGA,162414.000,5232.4626,N,01322.1198,E,1,10,1.04,31.7,M,44.7,M,,*5D
$GPRMC,162413.000,A,5232.4605,N,01322.1248,E,11.71,311.16,270114,,,A*52
$GPGGA,162434.000,5232.5416,N,01321.9878,E,1,10,0.98,31.9,M,44.7,M,,*59
$GPRMC,162433.000,A,5232.5369,N,01321.9950,E,21.57,315.98,270114,,,A*52
$GPGGA,162450.000,5232.6174,N,01321.8495,E,1,9,1.18,31.0,M,44.7,M,,*6F
$GPRMC,162449.000,A,5232.6123,N,01321.8579,E,25.70,314.03,270114,,,A*54
ping
$GPGGA,162524.000,5232.6905,N,01321.7164,E,1,9,1.05,31.2,M,44.7,M,,*69
$GPRMC,162523.000,A,5232.6875,N,01321.7211,E,13.70,312.57,270114,,,A*57
ping
ping
$GPGGA,162629.000,5232.7654,N,01321.5879,E,1,9,0.99,34.3,M,44.7,M,,*6A
$GPRMC,162628.000,A,5232.7639,N,01321.5908,E,7.55,314.02,270114,,,A*6D
ping
$GPGGA,162700.000,5232.8379,N,01321.4569,E,1,6,2.85,32.5,M,44.7,M,,*68
$GPRMC,162659.000,A,5232.8349,N,01321.4624,E,17.29,312.68,270114,,,A*56
ping
$GPGGA,162802.000,5232.9121,N,01321.3267,E,1,9,1.04,33.6,M,44.7,M,,*62
$GPRMC,162801.000,A,5232.9096,N,01321.3314,E,13.18,311.36,270114,,,A*5A
$GPGGA,162822.000,5232.9869,N,01321.1966,E,1,8,1.43,33.1,M,44.7,M,,*68
$GPRMC,162821.000,A,5232.9841,N,01321.2019,E,16.65,312.47,270114,,,A*5F
ping
ping
$GPGGA,162943.000,5233.0606,N,01321.0650,E,1,10,1.22,31.7,M,44.7,M,,*50
$GPRMC,162942.000,A,5233.0593,N,01321.0672,E,6.96,312.65,270114,,,A*65
ping
$GPGGA,163030.000,5233.1335,N,01320.9337,E,1,11,0.87,31.0,M,44.7,M,,*5C
$GPRMC,163029.000,A,5233.1299,N,01320.9401,E,18.76,312.64,270114,,,A*52
$GPGGA,163050.000,5233.2083,N,01320.7976,E,1,8,1.42,35.8,M,44.7,M,,*6A
$GPRMC,163049.000,A,5233.2042,N,01320.8055,E,22.46,312.15,270114,,,A*5B
$GPGGA,163110.000,5233.2854,N,01320.6641,E,1,8,1.10,31.5,M,44.7,M,,*69
$GPRMC,163109.000,A,5233.2826,N,01320.6702,E,16.66,307.60,270114,,,A*5C
ping
$GPGGA,163153.000,5233.3607,N,01320.5330,E,1,9,0.94,34.8,M,44.7,M,,*63
$GPRMC,163152.000,A,5233.3578,N,01320.5385,E,15.20,313.43,270114,,,A*58
$GPGGA,163212.000,5233.4358,N,01320.3998,E,1,7,1.81,36.8,M,44.7,M,,*6A
$GPRMC,163211.000,A,5233.4321,N,01320.4068,E,21.07,312.49,270114,,,A*59
$GPGGA,163234.000,5233.5119,N,01320.2698,E,1,8,1.03,31.2,M,44.7,M,,*6E
$GPRMC,163233.000,A,5233.5090,N,01320.2750,E,15.44,312.38,270114,,,A*5D
$GPGGA,163254.000,5233.5866,N,01320.1378,E,1,8,1.40,30.9,M,44.7,M,,*6C
$GPRMC,163253.000,A,5233.5835,N,01320.1434,E,17.96,312.48,270114,,,A*54
$GPGGA,163316.000,5233.6620,N,01320.0026,E,1,12,0.83,34.9,M,44.7,M,,*5C
$GPRMC,163315.000,A,5233.6585,N,01320.0092,E,19.35,312.31,270114,,,A*52
ping
$GPGGA,163416.000,5233.7341,N,01319.8709,E,1,12,0.80,36.9,M,44.7,M,,*51
$GPRMC,163415.000,A,5233.7331,N,01319.8728,E,4.71,312.57,270114,,,A*65
ping
$GPGGA,163451.000,5233.8103,N,01319.7448,E,1,12,0.80,35.4,M,44.7,M,,*5E
$GPRMC,163450.000,A,5233.8087,N,01319.7468,E,6.93,320.66,270114,,,A*60
ping
$GPGGA,163549.000,5233.9196,N,01319.7194,E,1,12,0.80,29.7,M,44.7,M,,*51
$GPRMC,163548.000,A,5233.9136,N,01319.7174,E,21.14,13.04,270114,,,A*67
$GPGGA,163609.000,5234.0287,N,01319.7584,E,1,10,0.89,29.4,M,44.7,M,,*56
$GPRMC,163608.000,A,5234.0227,N,01319.7560,E,22.04,13.39,270114,,,A*60
ping
ping
ping
ping
$DeviceName=pironex_auto
$Software=0.1.3
$Hardware=1
$LastValidPosition=
$IMEI=359193030849087
$LocalIP=10.147.20.102
$CmdVersion=2
$SUCCESS
$<end>
$GPGGA,060628.000,5234.0822,N,01319.8415,E,1,9,1.01,38.9,M,44.7,M,,*60
$GPRMC,060627.000,V,,,,,0.02,0.00,280114,,,N*44
ping
ping
ping
ping
ping
ping
ping
ping
$GPGGA,061104.000,5233.9968,N,01319.7306,E,1,11,0.88,43.8,M,44.7,M,,*57
$GPRMC,061103.000,A,5234.0038,N,01319.7332,E,25.69,192.68,280114,,,A*5D
ping
$GPGGA,061159.000,5233.8913,N,01319.6909,E,1,11,0.84,38.5,M,44.7,M,,*5B
$GPRMC,061158.000,A,5233.8962,N,01319.6928,E,17.15,192.68,280114,,,A*50
$GPGGA,061227.000,5233.7936,N,01319.6144,E,1,13,0.73,36.2,M,44.7,M,,*5B
$GPRMC,061226.000,A,5233.7956,N,01319.6161,E,9.27,211.09,280114,,,A*66
ping
$GPGGA,061328.000,5233.6913,N,01319.5426,E,1,12,0.77,32.7,M,44.7,M,,*55
$GPRMC,061327.000,A,5233.6958,N,01319.5479,E,19.70,213.05,280114,,,A*5B
$GPGGA,061345.000,5233.6453,N,01319.3798,E,1,13,0.72,31.7,M,44.7,M,,*50
$GPRMC,061344.000,A,5233.6468,N,01319.3913,E,25.83,256.90,280114,,,A*59
$GPGGA,061400.000,5233.6234,N,01319.2024,E,1,13,0.72,33.0,M,44.7,M,,*55
$GPRMC,061359.000,A,5233.6251,N,01319.2158,E,29.76,258.03,280114,,,A*5D
$GPGGA,061413.000,5233.5964,N,01319.0250,E,1,13,0.72,33.9,M,44.7,M,,*50
$GPRMC,061412.000,A,5233.5988,N,01319.0383,E,30.46,253.91,280114,,,A*54
$GPGGA,061426.000,5233.5605,N,01318.8498,E,1,14,0.69,34.1,M,44.7,M,,*57
$GPRMC,061425.000,A,5233.5635,N,01318.8635,E,32.12,250.29,280114,,,A*5B
$GPGGA,061439.000,5233.5222,N,01318.6724,E,1,13,0.75,33.7,M,44.7,M,,*59
$GPRMC,061438.000,A,5233.5250,N,01318.6853,E,30.68,250.22,280114,,,A*54
$GPGGA,061459.000,5233.4531,N,01318.5288,E,1,13,0.76,32.7,M,44.7,M,,*59
$GPRMC,061458.000,A,5233.4574,N,01318.5327,E,17.03,210.90,280114,,,A*5C
$GPGGA,061519.000,5233.3554,N,01318.4373,E,1,12,0.79,30.5,M,44.7,M,,*52
$GPRMC,061518.000,A,5233.3600,N,01318.4416,E,18.75,210.25,280114,,,A*5A
$GPGGA,061537.000,5233.2573,N,01318.3459,E,1,11,0.84,31.4,M,44.7,M,,*53
$GPRMC,061536.000,A,5233.2630,N,01318.3512,E,23.57,210.36,280114,,,A*5C
$GPGGA,061554.000,5233.1581,N,01318.2553,E,1,13,0.76,31.4,M,44.8,M,,*52
$GPRMC,061553.000,A,5233.1640,N,01318.2606,E,24.77,208.63,280114,,,A*50
$GPGGA,061614.000,5233.0606,N,01318.1697,E,1,12,0.79,32.5,M,44.8,M,,*5C
$GPRMC,061613.000,A,5233.0657,N,01318.1740,E,20.14,207.93,280114,,,A*51
$GPGGA,061630.000,5232.9609,N,01318.0867,E,1,12,0.79,36.9,M,44.8,M,,*55
$GPRMC,061629.000,A,5232.9668,N,01318.0915,E,23.56,206.36,280114,,,A*58
$GPGGA,061646.000,5232.8586,N,01318.0026,E,1,13,0.76,37.2,M,44.8,M,,*58
$GPRMC,061645.000,A,5232.8649,N,01318.0079,E,25.79,207.90,280114,,,A*55
ping
ping
$GPGGA,061808.000,5232.8752,N,01317.8261,E,1,13,0.76,34.9,M,44.8,M,,*59
$GPRMC,061807.000,A,5232.8722,N,01317.8284,E,10.69,336.13,280114,,,A*59
$GPGGA,061830.000,5232.9755,N,01317.7542,E,1,12,0.79,30.2,M,44.8,M,,*5C
$GPRMC,061829.000,A,5232.9711,N,01317.7568,E,16.23,339.75,280114,,,A*59
$GPGGA,061851.000,5233.0768,N,01317.6813,E,1,8,1.05,23.8,M,44.8,M,,*6C
$GPRMC,061850.000,A,5233.0727,N,01317.6848,E,18.11,336.51,280114,,,A*52
$GPGGA,061918.000,5233.1861,N,01317.6632,E,1,12,0.79,24.0,M,44.8,M,,*54
$GPRMC,061917.000,A,5233.1820,N,01317.6604,E,16.27,21.00,280114,,,A*65
ping
ping
ping
ping
$DeviceName=pironex_auto
$Software=0.1.3
$Hardware=1
$LastValidPosition=
$IMEI=359193030849087
$LocalIP=10.145.28.84
$CmdVersion=2
$SUCCESS
$<end>
ping
ping
$GPGGA,200459.000,5233.2190,N,01317.6796,E,1,9,0.83,41.6,M,44.8,M,,*68
$GPRMC,200458.000,V,,,,,0.10,0.00,280114,,,N*49
ping
ping
$GPGGA,200623.000,5233.1148,N,01317.6319,E,1,9,0.83,24.1,M,44.8,M,,*66
$GPRMC,200622.000,A,5233.1204,N,01317.6278,E,21.83,156.62,280114,,,A*55
$GPGGA,200647.000,5233.0157,N,01317.7035,E,1,10,0.80,27.6,M,44.8,M,,*58
$GPRMC,200646.000,A,5233.0191,N,01317.7004,E,14.44,154.20,280114,,,A*58
ping
ping
ping
$GPGGA,200850.000,5232.9170,N,01317.7799,E,1,9,0.84,39.3,M,44.8,M,,*6A
$GPRMC,200849.000,A,5232.9206,N,01317.7772,E,13.63,155.72,280114,,,A*5E
ping
ping
$GPGGA,201014.000,5232.8791,N,01317.9475,E,1,10,0.77,33.0,M,44.8,M,,*59
$GPRMC,201013.000,A,5232.8793,N,01317.9345,E,28.16,91.87,280114,,,A*67
ping
$GPGGA,201104.000,5232.9503,N,01318.0976,E,1,9,0.80,39.9,M,44.8,M,,*6A
$GPRMC,201103.000,A,5232.9416,N,01318.0907,E,33.96,24.72,280114,,,A*64
$GPGGA,201114.000,5233.0466,N,01318.1797,E,1,8,1.33,35.9,M,44.8,M,,*65
$GPRMC,201113.000,A,5233.0372,N,01318.1714,E,38.59,27.94,280114,,,A*66
$GPGGA,201124.000,5233.1457,N,01318.2670,E,1,9,0.81,34.8,M,44.8,M,,*67
$GPRMC,201123.000,A,5233.1354,N,01318.2579,E,42.02,28.73,280114,,,A*6F
$GPGGA,201134.000,5233.2462,N,01318.3584,E,1,7,1.57,32.2,M,44.7,M,,*6D
$GPRMC,201133.000,A,5233.2365,N,01318.3494,E,40.00,29.57,280114,,,A*6B
$GPGGA,201144.000,5233.3412,N,01318.4573,E,1,8,0.85,30.0,M,44.7,M,,*62
$GPRMC,201143.000,A,5233.3324,N,01318.4465,E,40.38,31.76,280114,,,A*60
$GPGGA,201154.000,5233.4446,N,01318.5528,E,1,7,1.22,32.9,M,44.7,M,,*62
$GPRMC,201153.000,A,5233.4339,N,01318.5439,E,42.71,27.77,280114,,,A*6B
$GPGGA,201205.000,5233.5472,N,01318.6439,E,6,0,99.99,35.1,M,44.7,M,,*5F
$GPRMC,201204.000,V,,,,,33.39,33.77,280114,,,E*47
$GPGGA,201207.000,,,,,0,0,,,M,,M,,*4E
$GPRMC,201206.000,V,,,,,33.39,33.77,280114,,,E*45
ping
$GPGGA,201251.000,5233.9916,N,01318.5425,E,1,6,1.19,43.5,M,44.7,M,,*6E
$GPRMC,201250.000,V,,,,,37.72,301.22,280114,,,N*74
$GPGGA,201304.000,5234.0592,N,01318.3904,E,1,8,1.00,27.1,M,44.7,M,,*69
$GPRMC,201303.000,A,5234.0506,N,01318.3981,E,34.76,328.71,280114,,,A*51
$GPGGA,201315.000,5234.1732,N,01318.3432,E,1,9,0.82,28.0,M,44.7,M,,*6C
$GPRMC,201314.000,A,5234.1628,N,01318.3444,E,37.33,354.66,280114,,,A*52
$GPGGA,201325.000,5234.2844,N,01318.3410,E,1,10,0.77,32.7,M,44.7,M,,*5C
$GPRMC,201324.000,A,5234.2736,N,01318.3404,E,38.70,358.13,280114,,,A*5E
$GPGGA,201335.000,5234.3952,N,01318.3163,E,1,8,1.00,35.2,M,44.7,M,,*61
$GPRMC,201334.000,A,5234.3841,N,01318.3220,E,42.04,343.47,280114,,,A*54
$GPGGA,201345.000,5234.4941,N,01318.2142,E,1,8,1.00,37.3,M,44.7,M,,*62
$GPRMC,201344.000,A,5234.4854,N,01318.2271,E,42.01,319.57,280114,,,A*5E
$GPGGA,201355.000,5234.5697,N,01318.0615,E,1,9,0.82,37.6,M,44.7,M,,*6E
$GPRMC,201354.000,A,5234.5625,N,01318.0778,E,43.80,306.92,280114,,,A*57
$GPGGA,201404.000,5234.6382,N,01317.9183,E,1,10,0.77,39.2,M,44.7,M,,*59
$GPRMC,201403.000,A,5234.6302,N,01317.9329,E,43.39,311.26,280114,,,A*5C
$GPGGA,201414.000,5234.7276,N,01317.8013,E,1,10,0.76,34.8,M,44.7,M,,*5C
$GPRMC,201413.000,A,5234.7177,N,01317.8107,E,40.77,328.33,280114,,,A*54
$GPGGA,201423.000,5234.8286,N,01317.7286,E,1,8,0.90,26.1,M,44.7,M,,*62
$GPRMC,201422.000,A,5234.8169,N,01317.7363,E,45.11,337.82,280114,,,A*58
$GPGGA,201432.000,5234.9313,N,01317.6589,E,6,2,99.99,23.5,M,44.7,M,,*52
$GPRMC,201431.000,A,5234.9201,N,01317.6669,E,44.08,336.83,280114,,,A*51
$GPGGA,201442.000,5235.0381,N,01317.5879,E,1,8,0.86,25.3,M,44.7,M,,*64
$GPRMC,201441.000,A,5235.0259,N,01317.5929,E,42.15,335.78,280114,,,A*56
$GPGGA,201451.000,5235.1386,N,01317.5180,E,1,8,0.89,27.2,M,44.7,M,,*63
$GPRMC,201450.000,A,5235.1277,N,01317.5249,E,42.27,338.04,280114,,,A*51
$GPGGA,201501.000,5235.2421,N,01317.4466,E,1,3,3.15,17.1,M,44.7,M,,*6F
$GPRMC,201500.000,A,5235.2320,N,01317.4562,E,40.39,334.49,280114,,,A*52
$GPGGA,201506.000,,,,,0,1,,,M,,M,,*49
$GPRMC,201505.000,V,,,,,39.83,332.22,280114,,,E*78
$GPGGA,201537.000,5235.5810,N,01317.2160,E,1,6,1.19,28.9,M,44.7,M,,*69
$GPRMC,201536.000,V,,,,,3.19,340.30,280114,,,N*4F
$GPGGA,201548.000,5235.6884,N,01317.1507,E,1,8,0.96,38.1,M,44.7,M,,*68
$GPRMC,201547.000,A,5235.6782,N,01317.1568,E,38.10,340.58,280114,,,A*51
$GPGGA,201558.000,5235.7912,N,01317.0840,E,1,9,0.83,41.8,M,44.7,M,,*6B
$GPRMC,201557.000,A,5235.7805,N,01317.0925,E,42.94,334.91,280114,,,A*52
$GPGGA,201608.000,5235.8898,N,01316.9823,E,1,9,0.81,37.0,M,44.7,M,,*67
$GPRMC,201607.000,A,5235.8805,N,01316.9927,E,40.42,325.59,280114,,,A*5C
$GPGGA,201618.000,5235.9882,N,01316.8903,E,1,8,0.89,34.3,M,44.7,M,,*67
$GPRMC,201617.000,A,5235.9799,N,01316.8979,E,34.89,331.58,280114,,,A*5C
$GPGGA,201630.000,5236.0781,N,01316.7821,E,1,8,0.97,32.1,M,44.7,M,,*6E
$GPRMC,201629.000,A,5236.0711,N,01316.7932,E,34.72,316.93,280114,,,A*5D
$GPGGA,201642.000,5236.1446,N,01316.6241,E,1,8,0.97,31.4,M,44.7,M,,*69
$GPRMC,201641.000,A,5236.1412,N,01316.6392,E,35.28,289.17,280114,,,A*56
$GPGGA,201653.000,5236.1849,N,01316.4508,E,1,9,0.99,29.2,M,44.7,M,,*62
$GPRMC,201652.000,A,5236.1808,N,01316.4680,E,40.79,290.56,280114,,,A*5C
$GPGGA,201703.000,5236.2438,N,01316.2887,E,1,4,2.17,29.3,M,44.7,M,,*6B
$GPRMC,201702.000,A,5236.2374,N,01316.3045,E,40.56,306.37,280114,,,A*57
$GPGGA,201708.000,,,,,0,1,,,M,,M,,*45
$GPRMC,201707.000,V,,,,,43.53,292.77,280114,,,E*73
$GPGGA,201710.000,5236.2806,N,01316.1619,E,6,2,99.99,30.8,M,44.7,M,,*54
$GPRMC,201709.000,V,,,,,43.37,291.66,280114,,,N*77
$GPGGA,201719.000,5236.3660,N,01316.0393,E,1,8,0.97,36.4,M,44.7,M,,*6D
$GPRMC,201718.000,A,5236.3600,N,01316.0580,E,45.70,296.47,280114,,,A*5A
$GPGGA,201728.000,5236.4206,N,01315.8615,E,1,8,0.97,38.0,M,44.7,M,,*66
$GPRMC,201727.000,A,5236.4139,N,01315.8817,E,49.82,295.87,280114,,,A*5A
$GPGGA,201736.000,5236.4709,N,01315.7003,E,1,8,0.97,37.6,M,44.7,M,,*64
$GPRMC,201735.000,A,5236.4648,N,01315.7196,E,48.69,297.64,280114,,,A*5C
$GPGGA,201745.000,,,,,0,0,,,M,,M,,*4D
$GPRMC,201744.000,V,,,,,44.69,306.09,280114,,,E*7F
$GPGGA,201805.000,5236.6455,N,01315.2548,E,1,6,1.31,20.1,M,44.7,M,,*6E
$GPRMC,201804.000,V,,,,,41.96,301.30,280114,,,N*77
$GPGGA,201815.000,5236.7078,N,01315.0915,E,1,8,0.97,24.4,M,44.7,M,,*61
$GPRMC,201814.000,A,5236.7018,N,01315.1089,E,42.21,302.83,280114,,,A*5B
$GPGGA,201825.000,5236.7761,N,01314.9415,E,1,9,0.99,23.8,M,44.7,M,,*6C
$GPRMC,201824.000,A,5236.7686,N,01314.9539,E,39.95,313.65,280114,,,A*55
$GPGGA,201837.000,5236.8752,N,01314.8632,E,1,8,0.94,27.5,M,44.7,M,,*63
$GPRMC,201836.000,A,5236.8657,N,01314.8648,E,34.40,352.47,280114,,,A*51
$GPGGA,201848.000,5236.9730,N,01314.9574,E,1,7,1.04,31.4,M,44.7,M,,*6F
$GPRMC,201847.000,A,5236.9653,N,01314.9425,E,39.74,46.32,280114,,,A*64
$GPGGA,201859.000,5237.0529,N,01315.0865,E,1,6,1.13,33.7,M,44.7,M,,*6E
$GPRMC,201858.000,A,5237.0446,N,01315.0797,E,33.65,30.30,280114,,,A*6F
$GPGGA,201910.000,5237.1589,N,01315.0479,E,1,8,0.89,31.1,M,44.7,M,,*60
$GPRMC,201909.000,A,5237.1492,N,01315.0589,E,40.71,328.11,280114,,,A*57
$GPGGA,201920.000,5237.2502,N,01314.9315,E,1,8,0.99,26.8,M,44.7,M,,*68
$GPRMC,201919.000,A,5237.2400,N,01314.9378,E,39.52,335.87,280114,,,A*52
$GPGGA,201931.000,5237.3603,N,01314.9158,E,1,8,0.95,28.0,M,44.7,M,,*6A
$GPRMC,201930.000,A,5237.3510,N,01314.9245,E,37.72,338.00,280114,,,A*59
$GPGGA,201940.000,5237.4470,N,01314.7964,E,1,8,0.97,25.9,M,44.7,M,,*62
$GPRMC,201939.000,A,5237.4368,N,01314.8108,E,47.80,318.85,280114,,,A*50
$GPGGA,201949.000,5237.5368,N,01314.6681,E,1,8,0.99,25.6,M,44.7,M,,*60
$GPRMC,201948.000,A,5237.5267,N,01314.6824,E,47.11,319.12,280114,,,A*57
$GPGGA,201957.000,5237.6244,N,01314.5594,E,1,8,0.89,26.3,M,44.7,M,,*60
$GPRMC,201956.000,A,5237.6124,N,01314.5726,E,51.12,325.17,280114,,,A*5F
$GPGGA,202005.000,5237.7264,N,01314.4679,E,1,9,0.83,27.8,M,44.7,M,,*6E
$GPRMC,202004.000,A,5237.7129,N,01314.4769,E,52.02,335.47,280114,,,A*52
$GPGGA,202013.000,5237.8462,N,01314.4276,E,1,8,0.89,28.1,M,44.7,M,,*60
$GPRMC,202012.000,A,5237.8302,N,01314.4284,E,56.65,355.71,280114,,,A*51
$GPGGA,202020.000,5237.9639,N,01314.4427,E,1,8,0.89,28.0,M,44.7,M,,*6E
$GPRMC,202019.000,A,5237.9466,N,01314.4395,E,62.19,5.80,280114,,,A*5B
$GPGGA,202026.000,5238.0710,N,01314.4617,E,1,8,0.89,29.3,M,44.7,M,,*67
$GPRMC,202025.000,A,5238.0530,N,01314.4585,E,65.25,5.73,280114,,,A*53
$GPGGA,202032.000,5238.1800,N,01314.4813,E,1,9,0.83,30.7,M,44.7,M,,*60
$GPRMC,202031.000,A,5238.1618,N,01314.4782,E,66.37,5.91,280114,,,A*57
$GPGGA,202038.000,5238.2888,N,01314.5003,E,1,11,0.72,30.4,M,44.7,M,,*55
$GPRMC,202037.000,A,5238.2707,N,01314.4972,E,65.21,6.18,280114,,,A*5A
$GPGGA,202044.000,5238.3970,N,01314.5183,E,1,11,0.72,30.9,M,44.7,M,,*5D
$GPRMC,202043.000,A,5238.3787,N,01314.5154,E,65.89,5.58,280114,,,A*58
$GPGGA,202051.000,5238.5195,N,01314.5390,E,1,11,0.72,31.2,M,44.7,M,,*56
$GPRMC,202050.000,A,5238.5027,N,01314.5362,E,61.22,5.71,280114,,,A*58
$GPGGA,202058.000,5238.6371,N,01314.5569,E,1,11,0.72,31.2,M,44.7,M,,*54
$GPRMC,202057.000,A,5238.6197,N,01314.5546,E,62.22,4.58,280114,,,A*5F
$GPGGA,202104.000,5238.7452,N,01314.5742,E,1,10,0.80,30.9,M,44.7,M,,*56
$GPRMC,202103.000,A,5238.7270,N,01314.5707,E,65.43,5.75,280114,,,A*5D
$GPGGA,202110.000,5238.8562,N,01314.5928,E,1,11,0.72,30.4,M,44.7,M,,*5D
$GPRMC,202109.000,A,5238.8371,N,01314.5895,E,68.37,5.90,280114,,,A*59
$GPGGA,202116.000,5238.9736,N,01314.6148,E,1,9,0.83,30.1,M,44.7,M,,*66
$GPRMC,202115.000,A,5238.9542,N,01314.6111,E,70.65,6.40,280114,,,A*55
$GPGGA,202122.000,5239.0832,N,01314.6340,E,1,9,0.83,30.4,M,44.7,M,,*6D
$GPRMC,202121.000,A,5239.0656,N,01314.6311,E,64.11,5.77,280114,,,A*5F
$GPGGA,202129.000,5239.2068,N,01314.6481,E,1,9,0.95,29.8,M,44.7,M,,*6A
$GPRMC,202128.000,A,5239.1892,N,01314.6472,E,62.99,2.01,280114,,,A*53
$GPGGA,202135.000,5239.3144,N,01314.6477,E,1,10,0.75,31.0,M,44.7,M,,*57
$GPRMC,202134.000,A,5239.2963,N,01314.6487,E,64.98,358.37,280114,,,A*56
$GPGGA,202141.000,5239.4257,N,01314.6373,E,1,9,0.82,31.2,M,44.7,M,,*63
$GPRMC,202140.000,A,5239.4071,N,01314.6398,E,67.06,355.68,280114,,,A*53
$GPGGA,202147.000,5239.5375,N,01314.6146,E,1,9,0.82,30.3,M,44.7,M,,*61
$GPRMC,202146.000,A,5239.5190,N,01314.6191,E,68.22,352.52,280114,,,A*56
$GPGGA,202153.000,5239.6522,N,01314.5812,E,1,8,0.89,29.5,M,44.7,M,,*6C
$GPRMC,202152.000,A,5239.6330,N,01314.5876,E,70.93,349.14,280114,,,A*50
$GPGGA,202159.000,5239.7661,N,01314.5359,E,1,8,0.89,30.1,M,44.7,M,,*6B
$GPRMC,202158.000,A,5239.7471,N,01314.5441,E,70.20,345.79,280114,,,A*5E
$GPGGA,202205.000,5239.8802,N,01314.4771,E,1,9,0.83,28.3,M,44.7,M,,*6A
$GPRMC,202204.000,A,5239.8611,N,01314.4877,E,72.18,341.39,280114,,,A*5E
$GPGGA,202211.000,5239.9938,N,01314.4055,E,1,8,0.89,27.4,M,44.7,M,,*64
$GPRMC,202210.000,A,5239.9752,N,01314.4182,E,72.41,337.82,280114,,,A*52
$GPGGA,202217.000,5240.1021,N,01314.3223,E,1,8,0.89,25.4,M,44.7,M,,*63
$GPRMC,202216.000,A,5240.0847,N,01314.3366,E,70.29,333.76,280114,,,A*54
$GPGGA,202223.000,5240.2027,N,01314.2313,E,1,10,0.79,24.9,M,44.7,M,,*58
$GPRMC,202222.000,A,5240.1867,N,01314.2467,E,67.19,330.34,280114,,,A*57
$GPGGA,202229.000,5240.2963,N,01314.1330,E,1,10,0.75,27.6,M,44.7,M,,*59
$GPRMC,202228.000,A,5240.2810,N,01314.1499,E,66.91,326.81,280114,,,A*54
$GPGGA,202236.000,5240.3953,N,01314.0131,E,1,10,0.75,30.3,M,44.7,M,,*54
$GPRMC,202235.000,A,5240.3819,N,01314.0307,E,61.96,322.89,280114,,,A*5D
$GPGGA,202243.000,5240.4831,N,01313.8922,E,1,11,0.72,32.3,M,44.7,M,,*55
$GPRMC,202242.000,A,5240.4716,N,01313.9093,E,56.89,319.24,280114,,,A*5F
$GPGGA,202251.000,5240.5722,N,01313.7526,E,1,11,0.72,31.5,M,44.7,M,,*58
$GPRMC,202250.000,A,5240.5613,N,01313.7708,E,56.15,315.76,280114,,,A*5C
$GPGGA,202258.000,5240.6485,N,01313.6224,E,1,10,0.75,29.5,M,44.7,M,,*57
$GPRMC,202257.000,A,5240.6374,N,01313.6416,E,56.86,314.05,280114,,,A*5E
$GPGGA,202305.000,5240.7302,N,01313.4828,E,1,9,0.83,27.1,M,44.7,M,,*68
$GPRMC,202304.000,A,5240.7183,N,01313.5030,E,61.13,314.20,280114,,,A*5E
$GPGGA,202312.000,5240.8124,N,01313.3437,E,1,8,0.96,25.5,M,44.7,M,,*61
$GPRMC,202311.000,A,5240.8011,N,01313.3630,E,59.08,314.05,280114,,,A*59
$GPGGA,202319.000,5240.8906,N,01313.2109,E,1,10,0.79,25.7,M,44.7,M,,*51
$GPRMC,202318.000,A,5240.8792,N,01313.2302,E,58.36,314.12,280114,,,A*53
$GPGGA,202326.000,5240.9717,N,01313.0720,E,1,10,0.79,25.7,M,44.7,M,,*5D
$GPRMC,202325.000,A,5240.9604,N,01313.0916,E,59.30,314.00,280114,,,A*5B
$GPGGA,202333.000,5241.0485,N,01312.9391,E,1,10,0.75,26.0,M,44.7,M,,*57
$GPRMC,202332.000,A,5241.0374,N,01312.9584,E,57.98,314.00,280114,,,A*54
$GPGGA,202340.000,5241.1280,N,01312.8050,E,1,8,0.96,25.8,M,44.7,M,,*61
$GPRMC,202339.000,A,5241.1166,N,01312.8241,E,58.52,314.83,280114,,,A*52
$GPGGA,202347.000,5241.2060,N,01312.6741,E,1,10,0.79,25.3,M,44.7,M,,*53
$GPRMC,202346.000,A,5241.1950,N,01312.6923,E,56.64,314.84,280114,,,A*5A
$GPGGA,202354.000,5241.2867,N,01312.5499,E,1,9,0.83,25.7,M,44.7,M,,*62
$GPRMC,202353.000,A,5241.2747,N,01312.5674,E,57.86,317.75,280114,,,A*5B
$GPGGA,202401.000,5241.3751,N,01312.4288,E,1,10,0.75,26.3,M,44.7,M,,*5F
$GPRMC,202400.000,A,5241.3620,N,01312.4461,E,60.10,320.66,280114,,,A*51
$GPGGA,202408.000,5241.4676,N,01312.3135,E,1,9,0.83,26.9,M,44.7,M,,*6C
$GPRMC,202407.000,A,5241.4541,N,01312.3293,E,59.35,323.44,280114,,,A*57
$GPGGA,202415.000,5241.5653,N,01312.2036,E,1,10,0.78,26.9,M,44.7,M,,*59
$GPRMC,202414.000,A,5241.5509,N,01312.2188,E,61.02,326.63,280114,,,A*5F
$GPGGA,202422.000,5241.6733,N,01312.1000,E,1,10,0.79,26.3,M,44.7,M,,*54
$GPRMC,202421.000,A,5241.6572,N,01312.1144,E,65.82,330.91,280114,,,A*53
$GPGGA,202428.000,5241.7743,N,01312.0160,E,1,9,0.82,26.1,M,44.7,M,,*60
$GPRMC,202427.000,A,5241.7572,N,01312.0296,E,68.35,333.84,280114,,,A*5F
$GPGGA,202434.000,5241.8789,N,01311.9385,E,1,9,0.83,26.2,M,44.7,M,,*65
$GPRMC,202433.000,A,5241.8612,N,01311.9511,E,69.23,336.33,280114,,,A*5D
$GPGGA,202440.000,5241.9874,N,01311.8689,E,1,8,0.96,26.0,M,44.7,M,,*65
$GPRMC,202439.000,A,5241.9692,N,01311.8801,E,70.05,339.55,280114,,,A*50
$GPGGA,202446.000,5242.0989,N,01311.8068,E,1,9,0.82,26.4,M,44.7,M,,*63
$GPRMC,202445.000,A,5242.0806,N,01311.8168,E,70.30,341.64,280114,,,A*5F
$GPGGA,202452.000,5242.2052,N,01311.7487,E,1,8,0.99,27.3,M,44.7,M,,*6C
$GPRMC,202451.000,A,5242.1878,N,01311.7580,E,66.99,341.83,280114,,,A*52
$GPGGA,202459.000,5242.3121,N,01311.6913,E,1,10,0.78,29.7,M,44.7,M,,*5E
$GPRMC,202458.000,A,5242.2993,N,01311.6981,E,50.44,341.60,280114,,,A*58
$GPGGA,202508.000,5242.4148,N,01311.6078,E,1,10,0.79,32.8,M,44.7,M,,*53
$GPRMC,202507.000,A,5242.4043,N,01311.6204,E,46.99,326.22,280114,,,A*57
$GPGGA,202516.000,5242.4877,N,01311.4676,E,1,10,0.79,32.9,M,44.7,M,,*52
$GPRMC,202515.000,A,5242.4803,N,01311.4885,E,52.15,302.79,280114,,,A*50
$GPGGA,202524.000,5242.5218,N,01311.2800,E,1,10,0.78,30.6,M,44.7,M,,*54
$GPRMC,202523.000,A,5242.5203,N,01311.3046,E,53.45,277.89,280114,,,A*56
$GPGGA,202532.000,5242.5054,N,01311.0915,E,1,10,0.78,29.7,M,44.7,M,,*57
$GPRMC,202531.000,A,5242.5102,N,01311.1142,E,52.53,253.49,280114,,,A*5C
$GPGGA,202540.000,5242.4418,N,01310.9234,E,1,10,0.79,27.5,M,44.7,M,,*52
$GPRMC,202539.000,A,5242.4514,N,01310.9429,E,54.64,231.83,280114,,,A*57
$GPGGA,202548.000,5242.3757,N,01310.7699,E,1,9,1.07,26.1,M,44.7,M,,*6D
$GPRMC,202547.000,A,5242.3820,N,01310.7903,E,50.03,241.88,280114,,,A*51
$GPGGA,202556.000,5242.3519,N,01310.5840,E,1,8,0.85,28.8,M,44.7,M,,*6F
$GPRMC,202555.000,A,5242.3523,N,01310.6094,E,54.71,267.34,280114,,,A*58
$GPGGA,202603.000,5242.3501,N,01310.3894,E,1,8,0.86,33.5,M,44.7,M,,*6E
$GPRMC,202602.000,A,5242.3501,N,01310.4181,E,62.99,269.17,280114,,,A*52
$GPGGA,202610.000,5242.3485,N,01310.1930,E,1,8,0.86,38.1,M,44.7,M,,*63
$GPRMC,202609.000,A,5242.3485,N,01310.2217,E,62.29,269.54,280114,,,A*52
$GPGGA,202617.000,5242.3485,N,01309.9858,E,1,8,0.98,41.2,M,44.7,M,,*69
$GPRMC,202616.000,A,5242.3484,N,01310.0164,E,66.32,269.73,280114,,,A*53
$GPGGA,202623.000,5242.3481,N,01309.8000,E,1,9,0.82,42.6,M,44.7,M,,*63
$GPRMC,202622.000,A,5242.3484,N,01309.8314,E,68.78,269.67,280114,,,A*54
$GPGGA,202629.000,5242.3482,N,01309.6186,E,1,9,0.82,43.6,M,44.7,M,,*6A
$GPRMC,202628.000,A,5242.3482,N,01309.6478,E,64.14,269.48,280114,,,A*50
$GPGGA,202636.000,5242.3476,N,01309.4147,E,1,8,0.98,44.5,M,44.7,M,,*6E
$GPRMC,202635.000,A,5242.3477,N,01309.4435,E,63.56,269.53,280114,,,A*56
$GPGGA,202643.000,5242.3468,N,01309.2153,E,1,9,0.82,45.6,M,44.7,M,,*68
$GPRMC,202642.000,A,5242.3469,N,01309.2434,E,61.83,269.57,280114,,,A*50
$GPGGA,202650.000,5242.3464,N,01309.0181,E,1,10,0.79,48.2,M,44.7,M,,*5E
$GPRMC,202649.000,A,5242.3463,N,01309.0465,E,61.70,269.92,280114,,,A*52
$GPGGA,202657.000,5242.3473,N,01308.8215,E,1,10,0.79,51.1,M,44.7,M,,*53
$GPRMC,202656.000,A,5242.3471,N,01308.8491,E,60.55,270.67,280114,,,A*59
$GPGGA,202704.000,5242.3496,N,01308.6319,E,1,9,1.06,53.1,M,44.7,M,,*6F
$GPRMC,202703.000,A,5242.3491,N,01308.6587,E,58.94,271.61,280114,,,A*5F
$GPGGA,202711.000,5242.3548,N,01308.4464,E,1,10,0.79,53.6,M,44.7,M,,*50
$GPRMC,202710.000,A,5242.3538,N,01308.4725,E,57.77,273.36,280114,,,A*55
$GPGGA,202718.000,5242.3622,N,01308.2635,E,1,10,0.79,52.2,M,44.7,M,,*53
$GPRMC,202717.000,A,5242.3609,N,01308.2899,E,57.80,274.76,280114,,,A*56
$GPGGA,202725.000,5242.3732,N,01308.0838,E,1,8,1.10,49.9,M,44.8,M,,*65
$GPRMC,202724.000,A,5242.3716,N,01308.1086,E,55.04,276.10,280114,,,A*50
$GPGGA,202733.000,5242.3872,N,01307.8843,E,1,9,0.82,47.6,M,44.8,M,,*68
$GPRMC,202732.000,A,5242.3853,N,01307.9101,E,56.27,276.98,280114,,,A*52
$GPGGA,202740.000,5242.4016,N,01307.6964,E,1,9,0.82,46.3,M,44.8,M,,*6F
$GPRMC,202739.000,A,5242.3994,N,01307.7240,E,60.49,277.65,280114,,,A*55
$GPGGA,202747.000,5242.4181,N,01307.4928,E,1,10,0.79,46.2,M,44.8,M,,*50
$GPRMC,202746.000,A,5242.4156,N,01307.5230,E,66.14,277.50,280114,,,A*51
$GPGGA,202753.000,5242.4321,N,01307.3136,E,1,8,1.11,46.3,M,44.8,M,,*6A
$GPRMC,202752.000,A,5242.4300,N,01307.3427,E,64.33,276.94,280114,,,A*5D
$GPGGA,202800.000,5242.4444,N,01307.1179,E,1,9,0.82,46.3,M,44.8,M,,*64
$GPRMC,202759.000,A,5242.4429,N,01307.1459,E,61.50,275.08,280114,,,A*57
$GPGGA,202807.000,5242.4516,N,01306.9261,E,1,8,0.99,46.8,M,44.8,M,,*66
$GPRMC,202806.000,A,5242.4508,N,01306.9525,E,58.23,272.83,280114,,,A*59
$GPGGA,202814.000,5242.4537,N,01306.7356,E,1,9,0.82,47.4,M,44.8,M,,*6A
$GPRMC,202813.000,A,5242.4536,N,01306.7633,E,60.98,270.24,280114,,,A*5E
$GPGGA,202821.000,5242.4501,N,01306.5414,E,1,9,0.82,47.7,M,44.8,M,,*69
$GPRMC,202820.000,A,5242.4511,N,01306.5699,E,61.92,267.82,280114,,,A*58
$GPGGA,202828.000,5242.4416,N,01306.3436,E,1,8,1.08,47.8,M,44.8,M,,*6C
$GPRMC,202827.000,A,5242.4430,N,01306.3716,E,60.87,265.27,280114,,,A*55
$GPGGA,202835.000,5242.4259,N,01306.1366,E,1,11,0.71,46.0,M,44.8,M,,*53
$GPRMC,202834.000,A,5242.4285,N,01306.1675,E,68.05,262.21,280114,,,A*5A
$GPGGA,202841.000,5242.4070,N,01305.9491,E,1,9,0.80,45.1,M,44.8,M,,*68
$GPRMC,202840.000,A,5242.4104,N,01305.9808,E,69.85,260.47,280114,,,A*57
$GPGGA,202847.000,5242.3857,N,01305.7582,E,1,9,0.90,44.2,M,44.8,M,,*6A
$GPRMC,202846.000,A,5242.3893,N,01305.7903,E,71.55,259.49,280114,,,A*55
$GPGGA,202853.000,5242.3633,N,01305.5627,E,1,8,0.93,42.7,M,44.8,M,,*6C
$GPRMC,202852.000,A,5242.3671,N,01305.5956,E,73.50,259.50,280114,,,A*5F
$GPGGA,202859.000,5242.3403,N,01305.3662,E,1,10,0.78,42.0,M,44.8,M,,*5B
$GPRMC,202858.000,A,5242.3440,N,01305.3988,E,72.87,259.46,280114,,,A*5C
$GPGGA,202905.000,5242.3176,N,01305.1700,E,1,9,0.80,42.4,M,44.8,M,,*68
$GPRMC,202904.000,A,5242.3213,N,01305.2024,E,72.15,259.07,280114,,,A*54
$GPGGA,202911.000,5242.2959,N,01304.9769,E,1,8,0.94,44.1,M,44.8,M,,*68
$GPRMC,202910.000,A,5242.2994,N,01305.0094,E,72.45,259.53,280114,,,A*59
$GPGGA,202917.000,5242.2777,N,01304.7806,E,1,9,0.80,45.5,M,44.8,M,,*65
$GPRMC,202916.000,A,5242.2804,N,01304.8134,E,72.39,261.72,280114,,,A*56
$GPGGA,202923.000,5242.2640,N,01304.5802,E,1,9,0.82,46.3,M,44.8,M,,*66
$GPRMC,202922.000,A,5242.2659,N,01304.6141,E,74.11,264.50,280114,,,A*52
$GPGGA,202929.000,5242.2585,N,01304.3743,E,1,9,0.83,45.6,M,44.8,M,,*6D
$GPRMC,202928.000,A,5242.2586,N,01304.4086,E,74.80,269.49,280114,,,A*5C
$GPGGA,202935.000,5242.2602,N,01304.1682,E,1,10,0.79,44.5,M,44.8,M,,*5D
$GPRMC,202934.000,A,5242.2596,N,01304.2023,E,74.62,271.57,280114,,,A*53
$GPGGA,202941.000,5242.2680,N,01303.9728,E,1,10,0.79,44.0,M,44.8,M,,*5F
$GPRMC,202940.000,A,5242.2663,N,01304.0041,E,69.55,274.55,280114,,,A*50
$GPGGA,202948.000,5242.2834,N,01303.7720,E,1,10,0.79,43.7,M,44.8,M,,*51
$GPRMC,202947.000,A,5242.2811,N,01303.7974,E,57.71,277.90,280114,,,A*52
$GPGGA,202957.000,5242.3047,N,01303.5783,E,1,10,0.78,43.0,M,44.8,M,,*5F
$GPRMC,202956.000,A,5242.3022,N,01303.5982,E,45.44,281.20,280114,,,A*57
$GPGGA,203006.000,5242.3314,N,01303.3880,E,1,9,0.80,42.1,M,44.8,M,,*63
$GPRMC,203005.000,A,5242.3278,N,01303.4112,E,51.66,283.98,280114,,,A*50
$GPGGA,203014.000,5242.3611,N,01303.2156,E,1,10,0.79,42.0,M,44.8,M,,*5C
$GPRMC,203013.000,A,5242.3574,N,01303.2351,E,45.05,287.19,280114,,,A*52
$GPGGA,203023.000,5242.3924,N,01303.0389,E,1,9,0.80,41.9,M,44.8,M,,*67
$GPRMC,203022.000,A,5242.3888,N,01303.0595,E,46.43,285.60,280114,,,A*5F
$GPGGA,203032.000,5242.4239,N,01302.8551,E,1,9,0.91,40.7,M,44.8,M,,*62
$GPRMC,203031.000,A,5242.4205,N,01302.8748,E,45.27,285.84,280114,,,A*55
$GPGGA,203041.000,5242.4568,N,01302.6702,E,1,10,0.78,41.3,M,44.8,M,,*55
$GPRMC,203040.000,A,5242.4533,N,01302.6917,E,48.49,285.40,280114,,,A*56
$GPGGA,203049.000,5242.4873,N,01302.4885,E,1,10,0.79,42.1,M,44.9,M,,*59
$GPRMC,203048.000,A,5242.4834,N,01302.5119,E,52.97,285.67,280114,,,A*5C
$GPGGA,203056.000,5242.5164,N,01302.3168,E,1,10,0.79,41.9,M,44.9,M,,*5F
$GPRMC,203055.000,A,5242.5122,N,01302.3422,E,57.51,285.48,280114,,,A*56
$GPGGA,203103.000,5242.5449,N,01302.1455,E,1,10,0.79,41.7,M,44.9,M,,*53
$GPRMC,203102.000,A,5242.5411,N,01302.1688,E,52.84,285.61,280114,,,A*56
$GPGGA,203111.000,5242.5771,N,01301.9603,E,1,9,0.91,41.2,M,44.9,M,,*69
$GPRMC,203110.000,A,5242.5730,N,01301.9832,E,52.27,285.51,280114,,,A*5B
$GPGGA,203119.000,5242.6090,N,01301.7743,E,1,9,0.91,40.7,M,44.9,M,,*65
$GPRMC,203118.000,A,5242.6051,N,01301.7974,E,53.04,285.62,280114,,,A*5D
$GPGGA,203127.000,5242.6408,N,01301.5875,E,1,9,0.91,40.1,M,44.9,M,,*63
$GPRMC,203126.000,A,5242.6368,N,01301.6112,E,53.35,285.51,280114,,,A*52
$GPGGA,203135.000,5242.6737,N,01301.3938,E,1,10,0.79,39.4,M,44.9,M,,*54
$GPRMC,203134.000,A,5242.6695,N,01301.4190,E,57.07,285.51,280114,,,A*5B
$GPGGA,203144.000,5242.7053,N,01301.2079,E,1,9,0.91,39.0,M,44.9,M,,*61
$GPRMC,203143.000,A,5242.7020,N,01301.2263,E,43.18,285.54,280114,,,A*55
$GPGGA,203156.000,5242.7317,N,01301.0214,E,1,8,0.85,37.8,M,44.9,M,,*68
$GPRMC,203155.000,A,5242.7306,N,01301.0367,E,34.00,278.05,280114,,,A*5D
$GPGGA,203208.000,5242.7553,N,01300.8428,E,1,9,0.91,37.2,M,44.9,M,,*68
$GPRMC,203207.000,A,5242.7526,N,01300.8580,E,34.81,286.34,280114,,,A*51
$GPGGA,203220.000,5242.7838,N,01300.6638,E,1,9,0.79,38.9,M,44.9,M,,*6D
$GPRMC,203219.000,A,5242.7816,N,01300.6788,E,34.05,282.93,280114,,,A*51
$GPGGA,203231.000,5242.8112,N,01300.4906,E,1,10,0.79,39.8,M,44.9,M,,*5B
$GPRMC,203230.000,A,5242.8086,N,01300.5070,E,36.48,284.53,280114,,,A*56
$GPGGA,203242.000,5242.8396,N,01300.3099,E,1,10,0.78,39.0,M,44.9,M,,*50
$GPRMC,203241.000,A,5242.8368,N,01300.3269,E,37.96,284.15,280114,,,A*5F
$GPGGA,203252.000,5242.8656,N,01300.1349,E,1,9,0.90,39.0,M,44.9,M,,*6A
$GPRMC,203251.000,A,5242.8629,N,01300.1525,E,39.85,283.60,280114,,,A*5A
$GPGGA,203302.000,5242.8922,N,01259.9497,E,1,9,0.90,39.0,M,44.9,M,,*63
$GPRMC,203301.000,A,5242.8895,N,01259.9685,E,42.32,282.94,280114,,,A*51
$GPGGA,203311.000,5242.9162,N,01259.7733,E,1,9,0.82,39.2,M,44.9,M,,*6E
$GPRMC,203310.000,A,5242.9135,N,01259.7934,E,45.01,282.45,280114,,,A*53
$GPGGA,203320.000,5242.9399,N,01259.5897,E,1,8,0.93,39.7,M,44.9,M,,*6D
$GPRMC,203319.000,A,5242.9371,N,01259.6103,E,46.47,281.65,280114,,,A*55
$GPGGA,203329.000,5242.9631,N,01259.4029,E,1,9,0.82,40.7,M,44.9,M,,*60
$GPRMC,203328.000,A,5242.9606,N,01259.4245,E,47.94,281.24,280114,,,A*5B
$GPGGA,203337.000,5242.9847,N,01259.2215,E,1,10,0.79,40.7,M,44.9,M,,*57
$GPRMC,203336.000,A,5242.9821,N,01259.2446,E,51.51,280.87,280114,,,A*5A
$GPGGA,203345.000,5243.0053,N,01259.0386,E,1,10,0.79,40.1,M,44.9,M,,*58
$GPRMC,203344.000,A,5243.0027,N,01259.0616,E,51.08,280.52,280114,,,A*58
$GPGGA,203353.000,5243.0251,N,01258.8521,E,1,10,0.79,39.1,M,44.9,M,,*53
$GPRMC,203352.000,A,5243.0227,N,01258.8753,E,51.46,279.51,280114,,,A*5B
$GPGGA,203401.000,5243.0439,N,01258.6608,E,1,7,1.01,38.1,M,44.9,M,,*64
$GPRMC,203400.000,A,5243.0416,N,01258.6852,E,53.71,279.03,280114,,,A*5E
$GPGGA,203409.000,5243.0611,N,01258.4754,E,1,9,0.91,36.0,M,44.9,M,,*67
$GPRMC,203408.000,A,5243.0590,N,01258.4987,E,51.71,278.33,280114,,,A*52
$GPGGA,203417.000,5243.0765,N,01258.2935,E,1,8,1.07,38.2,M,44.9,M,,*66
$GPRMC,203416.000,A,5243.0747,N,01258.3159,E,49.78,278.21,280114,,,A*5A
$GPGGA,203426.000,5243.0937,N,01258.1047,E,1,8,0.90,40.3,M,44.9,M,,*63
$GPRMC,203425.000,A,5243.0918,N,01258.1249,E,44.97,278.62,280114,,,A*55
$GPGGA,203435.000,5243.1153,N,01257.9071,E,1,9,0.91,41.5,M,44.9,M,,*6F
$GPRMC,203434.000,A,5243.1125,N,01257.9305,E,51.37,280.76,280114,,,A*50
$GPGGA,203443.000,5243.1408,N,01257.7205,E,1,8,0.93,41.9,M,44.9,M,,*65
$GPRMC,203442.000,A,5243.1374,N,01257.7427,E,51.07,283.89,280114,,,A*5E
$GPGGA,203451.000,5243.1759,N,01257.5518,E,1,9,0.91,41.1,M,44.9,M,,*63
$GPRMC,203450.000,A,5243.1713,N,01257.5747,E,52.67,287.97,280114,,,A*51
$GPGGA,203458.000,5243.2139,N,01257.3700,E,1,9,0.91,38.9,M,44.9,M,,*62
$GPRMC,203457.000,A,5243.2076,N,01257.3981,E,64.07,289.55,280114,,,A*50
$GPGGA,203504.000,5243.2569,N,01257.1895,E,1,10,0.79,37.3,M,44.9,M,,*51
$GPRMC,203503.000,A,5243.2492,N,01257.2203,E,72.13,292.18,280114,,,A*5F
$GPGGA,203510.000,5243.3078,N,01257.0077,E,1,9,0.90,36.8,M,44.9,M,,*60
$GPRMC,203509.000,A,5243.2986,N,01257.0380,E,73.39,296.21,280114,,,A*52
$GPGGA,203516.000,5243.3677,N,01256.8204,E,1,9,0.82,36.2,M,44.9,M,,*69
$GPRMC,203515.000,A,5243.3571,N,01256.8517,E,77.77,299.08,280114,,,A*51
$GPGGA,203521.000,5243.4246,N,01256.6662,E,1,9,0.82,35.5,M,44.9,M,,*62
$GPRMC,203520.000,A,5243.4127,N,01256.6968,E,79.23,302.23,280114,,,A*58
$GPGGA,203527.000,5243.4976,N,01256.4924,E,1,8,0.89,33.6,M,44.9,M,,*6C
$GPRMC,203526.000,A,5243.4851,N,01256.5206,E,76.22,305.46,280114,,,A*5C
$GPGGA,203533.000,5243.5764,N,01256.3238,E,1,9,0.82,31.7,M,44.9,M,,*6D
$GPRMC,203532.000,A,5243.5630,N,01256.3516,E,77.13,308.15,280114,,,A*59
$GPGGA,203538.000,5243.6458,N,01256.1853,E,1,9,0.81,30.3,M,44.9,M,,*6A
$GPRMC,203537.000,A,5243.6318,N,01256.2128,E,78.65,309.58,280114,,,A*5E
$GPGGA,203544.000,5243.7287,N,01256.0232,E,1,8,0.93,29.9,M,44.9,M,,*68
$GPRMC,203543.000,A,5243.7150,N,01256.0503,E,76.99,309.71,280114,,,A*5B
$GPGGA,203550.000,5243.8110,N,01255.8611,E,1,8,0.93,29.6,M,44.9,M,,*6E
$GPRMC,203549.000,A,5243.7973,N,01255.8883,E,77.17,309.70,280114,,,A*50
$GPGGA,203556.000,5243.8926,N,01255.6998,E,1,8,0.98,29.2,M,44.9,M,,*6A
$GPRMC,203555.000,A,5243.8790,N,01255.7268,E,76.14,309.75,280114,,,A*56
$GPGGA,203601.000,5243.9622,N,01255.5630,E,1,9,0.82,29.2,M,44.9,M,,*65
$GPRMC,203600.000,A,5243.9483,N,01255.5908,E,78.78,309.67,280114,,,A*5D
$GPGGA,203606.000,5244.0318,N,01255.4237,E,1,9,0.91,29.2,M,44.9,M,,*60
$GPRMC,203605.000,A,5244.0177,N,01255.4521,E,79.55,308.94,280114,,,A*5D
$GPGGA,203611.000,5244.1030,N,01255.2788,E,1,10,0.79,29.1,M,44.9,M,,*54
$GPRMC,203610.000,A,5244.0885,N,01255.3079,E,82.16,309.16,280114,,,A*5A
$GPGGA,203616.000,5244.1758,N,01255.1328,E,1,10,0.79,28.6,M,45.0,M,,*59
$GPRMC,203615.000,A,5244.1611,N,01255.1623,E,83.18,309.53,280114,,,A*58
$GPGGA,203621.000,5244.2497,N,01254.9825,E,1,9,0.81,28.9,M,45.0,M,,*61
$GPRMC,203620.000,A,5244.2349,N,01255.0131,E,85.34,308.78,280114,,,A*50
$GPGGA,203626.000,5244.3221,N,01254.8299,E,1,10,0.79,29.2,M,45.0,M,,*55
$GPRMC,203625.000,A,5244.3080,N,01254.8604,E,84.12,307.71,280114,,,A*59
$GPGGA,203631.000,5244.3913,N,01254.6763,E,1,10,0.79,29.1,M,45.0,M,,*54
$GPRMC,203630.000,A,5244.3777,N,01254.7073,E,83.57,306.34,280114,,,A*5D
$GPGGA,203636.000,5244.4592,N,01254.5176,E,1,9,0.79,29.0,M,45.0,M,,*69
$GPRMC,203635.000,A,5244.4457,N,01254.5500,E,85.47,304.80,280114,,,A*57
$GPGGA,203641.000,5244.5243,N,01254.3536,E,1,10,0.79,29.4,M,45.0,M,,*59
$GPRMC,203640.000,A,5244.5116,N,01254.3859,E,85.17,302.77,280114,,,A*58
$GPGGA,203646.000,5244.5844,N,01254.1903,E,1,10,0.79,28.9,M,45.0,M,,*57
$GPRMC,203645.000,A,5244.5726,N,01254.2232,E,83.33,300.80,280114,,,A*54
$GPGGA,203651.000,5244.6422,N,01254.0225,E,1,10,0.79,29.3,M,45.0,M,,*5B
$GPRMC,203650.000,A,5244.6308,N,01254.0566,E,84.89,299.37,280114,,,A*54
$GPGGA,203656.000,5244.6975,N,01253.8496,E,1,10,0.79,29.9,M,45.0,M,,*58
$GPRMC,203655.000,A,5244.6867,N,01253.8840,E,85.27,297.38,280114,,,A*51
$GPGGA,203701.000,5244.7493,N,01253.6799,E,1,8,0.95,30.8,M,45.0,M,,*6F
$GPRMC,203700.000,A,5244.7391,N,01253.7138,E,82.63,296.46,280114,,,A*55
$GPGGA,203706.000,5244.7976,N,01253.5082,E,1,10,0.79,31.8,M,45.0,M,,*5A
$GPRMC,203705.000,A,5244.7886,N,01253.5425,E,82.28,293.99,280114,,,A*5E
$GPGGA,203711.000,5244.8400,N,01253.3411,E,1,10,0.79,32.0,M,45.0,M,,*5C
$GPRMC,203710.000,A,5244.8320,N,01253.3739,E,78.21,292.29,280114,,,A*5C
$GPGGA,203717.000,5244.8853,N,01253.1464,E,1,10,0.79,32.0,M,45.0,M,,*50
$GPRMC,203716.000,A,5244.8779,N,01253.1793,E,77.17,290.35,280114,,,A*55
$GPGGA,203722.000,5244.9211,N,01252.9764,E,1,10,0.79,31.4,M,45.0,M,,*56
$GPRMC,203721.000,A,5244.9140,N,01253.0111,E,80.12,288.96,280114,,,A*5C
$GPGGA,203727.000,5244.9554,N,01252.8017,E,1,9,0.80,31.0,M,45.0,M,,*6D
$GPRMC,203726.000,A,5244.9487,N,01252.8363,E,80.58,287.60,280114,,,A*53
$GPGGA,203732.000,5244.9878,N,01252.6266,E,1,10,0.79,31.3,M,45.0,M,,*5D
$GPRMC,203731.000,A,5244.9813,N,01252.6619,E,80.78,286.61,280114,,,A*50
$GPGGA,203737.000,5245.0191,N,01252.4492,E,1,10,0.78,32.2,M,45.0,M,,*52
$GPRMC,203736.000,A,5245.0130,N,01252.4850,E,81.19,285.81,280114,,,A*5D
$GPGGA,203742.000,5245.0493,N,01252.2704,E,1,10,0.79,33.9,M,45.0,M,,*56
$GPRMC,203741.000,A,5245.0433,N,01252.3060,E,80.21,285.38,280114,,,A*5F
$GPGGA,203747.000,5245.0784,N,01252.0932,E,1,10,0.79,34.5,M,45.0,M,,*54
$GPRMC,203746.000,A,5245.0726,N,01252.1289,E,80.60,285.24,280114,,,A*50
$GPGGA,203752.000,5245.1096,N,01251.9128,E,1,10,0.79,34.5,M,45.0,M,,*5C
$GPRMC,203751.000,A,5245.1033,N,01251.9492,E,82.92,286.02,280114,,,A*5B
$GPGGA,203757.000,5245.1414,N,01251.7330,E,1,10,0.78,33.9,M,45.0,M,,*58
$GPRMC,203756.000,A,5245.1350,N,01251.7684,E,81.51,286.44,280114,,,A*5F
$GPGGA,203802.000,5245.1753,N,01251.5548,E,1,10,0.79,32.9,M,45.0,M,,*5C
$GPRMC,203801.000,A,5245.1682,N,01251.5906,E,82.43,287.91,280114,,,A*56
$GPGGA,203807.000,5245.2108,N,01251.3780,E,1,10,0.79,32.0,M,45.0,M,,*5B
$GPRMC,203806.000,A,5245.2036,N,01251.4133,E,81.17,288.44,280114,,,A*51
$GPGGA,203812.000,5245.2479,N,01251.1999,E,1,10,0.79,31.0,M,45.0,M,,*5B
$GPRMC,203811.000,A,5245.2403,N,01251.2355,E,82.24,289.76,280114,,,A*52
$GPGGA,203817.000,5245.2862,N,01251.0296,E,1,10,0.79,29.9,M,45.0,M,,*5D
$GPRMC,203816.000,A,5245.2790,N,01251.0611,E,77.04,290.40,280114,,,A*5E
$GPGGA,203823.000,5245.3271,N,01250.8642,E,1,9,0.82,28.8,M,45.0,M,,*6B
$GPRMC,203822.000,A,5245.3199,N,01250.8917,E,64.53,293.31,280114,,,A*52
$GPGGA,203829.000,5245.3752,N,01250.6902,E,1,9,0.81,28.9,M,45.0,M,,*62
$GPRMC,203828.000,A,5245.3665,N,01250.7200,E,71.28,295.06,280114,,,A*54
$GPGGA,203835.000,5245.4306,N,01250.5088,E,1,9,0.82,30.4,M,45.0,M,,*62
$GPRMC,203834.000,A,5245.4210,N,01250.5388,E,74.34,297.45,280114,,,A*56
$GPGGA,203841.000,5245.4914,N,01250.3326,E,1,8,0.93,33.1,M,45.0,M,,*6E
$GPRMC,203840.000,A,5245.4808,N,01250.3615,E,73.82,300.56,280114,,,A*56
$GPGGA,203847.000,5245.5538,N,01250.1607,E,1,7,1.18,35.3,M,45.0,M,,*66
$GPRMC,203846.000,A,5245.5433,N,01250.1893,E,72.71,300.72,280114,,,A*5C
$GPGGA,203853.000,5245.6205,N,01249.9922,E,1,7,1.08,36.2,M,45.0,M,,*62
$GPRMC,203852.000,A,5245.6092,N,01250.0198,E,73.02,303.86,280114,,,A*5B
$GPGGA,203859.000,5245.6911,N,01249.8286,E,1,7,1.18,35.6,M,45.0,M,,*64
$GPRMC,203858.000,A,5245.6788,N,01249.8561,E,74.33,306.04,280114,,,A*55
$GPGGA,203905.000,5245.7692,N,01249.6636,E,1,7,1.08,34.8,M,45.0,M,,*66
$GPRMC,203904.000,A,5245.7558,N,01249.6909,E,76.70,308.69,280114,,,A*5F
$GPGGA,203911.000,5245.8523,N,01249.5035,E,1,8,0.93,33.8,M,45.0,M,,*68
$GPRMC,203910.000,A,5245.8382,N,01249.5298,E,77.06,310.76,280114,,,A*53
$GPGGA,203917.000,5245.9361,N,01249.3513,E,1,7,1.08,32.9,M,45.0,M,,*64
$GPRMC,203916.000,A,5245.9223,N,01249.3755,E,73.35,312.69,280114,,,A*54
$GPGGA,203923.000,5246.0205,N,01249.2091,E,1,8,0.93,31.7,M,45.0,M,,*65
$GPRMC,203922.000,A,5246.0063,N,01249.2321,E,72.18,314.87,280114,,,A*51
$GPGGA,203929.000,5246.1058,N,01249.0741,E,1,8,0.93,31.3,M,45.0,M,,*68
$GPRMC,203928.000,A,5246.0911,N,01249.0961,E,71.30,316.77,280114,,,A*5F
$GPGGA,203935.000,5246.1970,N,01248.9414,E,1,6,1.16,31.4,M,45.0,M,,*68
$GPRMC,203934.000,A,5246.1813,N,01248.9637,E,74.63,319.01,280114,,,A*59
$GPGGA,203941.000,5246.2949,N,01248.8090,E,1,7,1.08,32.5,M,45.0,M,,*67
$GPRMC,203940.000,A,5246.2784,N,01248.8305,E,75.90,321.25,280114,,,A*5D
$GPGGA,203947.000,5246.3948,N,01248.6827,E,1,8,0.93,33.6,M,45.0,M,,*65
$GPRMC,203946.000,A,5246.3779,N,01248.7038,E,76.50,322.78,280114,,,A*5E
$GPGGA,203953.000,5246.5005,N,01248.5601,E,1,9,0.91,35.0,M,45.0,M,,*6C
$GPRMC,203952.000,A,5246.4824,N,01248.5800,E,78.46,325.68,280114,,,A*55
$GPGGA,203958.000,5246.5938,N,01248.4624,E,1,7,0.99,35.2,M,45.0,M,,*62
$GPRMC,203957.000,A,5246.5749,N,01248.4817,E,80.03,327.77,280114,,,A*58
$GPGGA,204003.000,5246.6924,N,01248.3668,E,1,7,0.99,35.1,M,45.0,M,,*60
$GPRMC,204002.000,A,5246.6722,N,01248.3858,E,82.72,329.79,280114,,,A*50
$GPGGA,204008.000,5246.7963,N,01248.2733,E,1,7,0.99,35.2,M,45.0,M,,*64
$GPRMC,204007.000,A,5246.7753,N,01248.2913,E,84.94,332.11,280114,,,A*57
$GPGGA,204013.000,5246.9032,N,01248.1861,E,1,9,0.91,34.3,M,45.0,M,,*60
$GPRMC,204012.000,A,5246.8816,N,01248.2031,E,86.12,334.13,280114,,,A*53
$GPGGA,204018.000,5247.0073,N,01248.1081,E,1,8,0.93,33.6,M,45.0,M,,*61
$GPRMC,204017.000,A,5246.9865,N,01248.1233,E,81.94,335.70,280114,,,A*5D
$GPGGA,204023.000,5247.1143,N,01248.0348,E,1,8,0.93,32.3,M,45.0,M,,*69
$GPRMC,204022.000,A,5247.0926,N,01248.0491,E,84.16,337.97,280114,,,A*5E
$GPGGA,204028.000,5247.2234,N,01247.9681,E,1,9,0.91,31.7,M,45.0,M,,*60
$GPRMC,204027.000,A,5247.2015,N,01247.9808,E,84.19,340.06,280114,,,A*5D
$GPGGA,204033.000,5247.3332,N,01247.9084,E,1,8,0.93,31.5,M,45.0,M,,*6E
$GPRMC,204032.000,A,5247.3117,N,01247.9195,E,82.17,342.54,280114,,,A*5B
$GPGGA,204039.000,5247.4559,N,01247.8491,E,1,9,0.91,33.5,M,45.0,M,,*68
$GPRMC,204038.000,A,5247.4359,N,01247.8577,E,74.50,344.18,280114,,,A*53
$GPGGA,204045.000,5247.5740,N,01247.8005,E,1,7,1.00,34.4,M,45.0,M,,*60
$GPRMC,204044.000,A,5247.5548,N,01247.8080,E,72.52,346.90,280114,,,A*54
$GPGGA,204051.000,5247.6896,N,01247.7615,E,1,8,0.93,33.7,M,45.0,M,,*6A
$GPRMC,204050.000,A,5247.6700,N,01247.7674,E,71.51,349.44,280114,,,A*58
$GPGGA,204057.000,5247.8106,N,01247.7276,E,1,7,1.00,32.6,M,45.0,M,,*67
$GPRMC,204056.000,A,5247.7903,N,01247.7331,E,74.30,350.53,280114,,,A*5A
$GPGGA,204103.000,5247.9332,N,01247.7012,E,1,7,0.99,31.7,M,45.0,M,,*60
$GPRMC,204102.000,A,5247.9126,N,01247.7052,E,74.38,353.20,280114,,,A*52
$GPGGA,204109.000,5248.0591,N,01247.6813,E,1,6,1.10,31.0,M,45.0,M,,*6D
$GPRMC,204108.000,A,5248.0380,N,01247.6841,E,76.49,355.15,280114,,,A*5F
$GPGGA,204115.000,5248.1862,N,01247.6687,E,1,6,1.08,30.1,M,45.0,M,,*6A
$GPRMC,204114.000,A,5248.1651,N,01247.6701,E,76.42,357.88,280114,,,A*5C
$GPGGA,204120.000,5248.2937,N,01247.6625,E,1,8,0.96,29.5,M,45.0,M,,*62
$GPRMC,204119.000,A,5248.2717,N,01247.6631,E,78.48,357.75,280114,,,A*55
$GPGGA,204125.000,5248.4034,N,01247.6593,E,1,9,0.91,28.4,M,45.0,M,,*63
$GPRMC,204124.000,A,5248.3814,N,01247.6594,E,78.66,359.18,280114,,,A*53
$GPGGA,204130.000,5248.5140,N,01247.6586,E,1,8,0.96,27.9,M,45.0,M,,*64
$GPRMC,204129.000,A,5248.4920,N,01247.6589,E,79.34,359.20,280114,,,A*5E
$GPGGA,204135.000,5248.6224,N,01247.6583,E,1,7,0.99,28.0,M,45.0,M,,*60
$GPRMC,204134.000,A,5248.6011,N,01247.6584,E,77.56,359.62,280114,,,A*5A
$GPGGA,204141.000,5248.7474,N,01247.6582,E,1,7,1.00,28.8,M,45.0,M,,*69
$GPRMC,204140.000,A,5248.7264,N,01247.6583,E,75.61,0.17,280114,,,A*54
$GPGGA,204146.000,5248.8565,N,01247.6562,E,1,7,0.99,29.4,M,45.0,M,,*62
$GPRMC,204145.000,A,5248.8343,N,01247.6565,E,79.85,359.45,280114,,,A*5C
$GPGGA,204151.000,5248.9695,N,01247.6555,E,1,7,0.99,30.1,M,45.0,M,,*60
$GPRMC,204150.000,A,5248.9468,N,01247.6559,E,81.85,359.62,280114,,,A*5A
$GPGGA,204156.000,5249.0816,N,01247.6551,E,1,7,0.99,31.8,M,45.0,M,,*66
$GPRMC,204155.000,A,5249.0593,N,01247.6550,E,79.94,0.19,280114,,,A*5F
$GPGGA,204201.000,5249.1948,N,01247.6555,E,1,8,0.93,33.5,M,45.0,M,,*62
$GPRMC,204200.000,A,5249.1721,N,01247.6553,E,81.79,0.07,280114,,,A*5E
$GPGGA,204206.000,5249.3082,N,01247.6560,E,1,8,0.93,34.4,M,45.0,M,,*68
$GPRMC,204205.000,A,5249.2854,N,01247.6561,E,81.75,0.08,280114,,,A*57
$GPGGA,204211.000,5249.4204,N,01247.6549,E,1,7,0.99,34.5,M,45.0,M,,*6A
$GPRMC,204210.000,A,5249.3991,N,01247.6553,E,78.82,359.33,280114,,,A*52
$GPGGA,204217.000,5249.5391,N,01247.6456,E,1,8,0.93,33.8,M,45.0,M,,*60
$GPRMC,204216.000,A,5249.5201,N,01247.6477,E,69.28,357.18,280114,,,A*50
$GPGGA,204223.000,5249.6520,N,01247.6290,E,1,8,0.93,32.1,M,45.0,M,,*6C
$GPRMC,204222.000,A,5249.6329,N,01247.6324,E,69.41,354.11,280114,,,A*5B
$GPGGA,204229.000,5249.7708,N,01247.6008,E,1,8,0.93,30.1,M,45.0,M,,*6E
$GPRMC,204228.000,A,5249.7505,N,01247.6066,E,73.66,351.01,280114,,,A*57
$GPGGA,204235.000,5249.8965,N,01247.5594,E,1,8,0.93,28.8,M,45.0,M,,*6A
$GPRMC,204234.000,A,5249.8753,N,01247.5674,E,77.92,347.79,280114,,,A*55
$GPGGA,204240.000,5250.0029,N,01247.5135,E,1,8,0.94,28.4,M,45.0,M,,*6D
$GPRMC,204239.000,A,5249.9815,N,01247.5233,E,79.36,345.16,280114,,,A*58
$GPGGA,204245.000,5250.1087,N,01247.4591,E,1,8,0.94,28.1,M,45.0,M,,*63
$GPRMC,204244.000,A,5250.0879,N,01247.4707,E,79.26,341.69,280114,,,A*57
$GPGGA,204250.000,5250.2103,N,01247.3970,E,1,8,0.94,28.2,M,45.0,M,,*6E
$GPRMC,204249.000,A,5250.1903,N,01247.4100,E,77.67,339.04,280114,,,A*59
$GPGGA,204256.000,5250.3280,N,01247.3126,E,1,8,0.93,29.1,M,45.0,M,,*6F
$GPRMC,204255.000,A,5250.3088,N,01247.3274,E,76.78,335.36,280114,,,A*59
$GPGGA,204302.000,5250.4411,N,01247.2202,E,1,8,0.94,30.8,M,45.0,M,,*64
$GPRMC,204301.000,A,5250.4230,N,01247.2361,E,74.16,332.12,280114,,,A*50
$GPGGA,204308.000,5250.5439,N,01247.1226,E,1,8,0.94,31.7,M,45.0,M,,*6E
$GPRMC,204307.000,A,5250.5270,N,01247.1395,E,70.82,329.26,280114,,,A*5F
$GPGGA,204314.000,5250.6416,N,01247.0202,E,1,7,0.99,33.3,M,45.0,M,,*6E
$GPRMC,204313.000,A,5250.6268,N,01247.0361,E,64.25,327.29,280114,,,A*53
$GPGGA,204321.000,5250.7354,N,01246.9183,E,1,8,0.94,33.7,M,45.0,M,,*6C
$GPRMC,204320.000,A,5250.7229,N,01246.9320,E,55.19,326.67,280114,,,A*5C
$GPGGA,204329.000,5250.8287,N,01246.8181,E,1,8,0.94,33.6,M,45.0,M,,*66
$GPRMC,204328.000,A,5250.8177,N,01246.8296,E,47.47,327.96,280114,,,A*59
$GPGGA,204339.000,5250.9261,N,01246.7128,E,1,7,0.99,33.4,M,45.0,M,,*62
$GPRMC,204338.000,A,5250.9171,N,01246.7226,E,39.31,326.65,280114,,,A*5E
$GPGGA,204349.000,5251.0221,N,01246.6109,E,1,8,0.94,35.4,M,45.0,M,,*6F
$GPRMC,204348.000,A,5251.0119,N,01246.6215,E,44.14,327.14,280114,,,A*54
$GPGGA,204358.000,5251.1242,N,01246.5056,E,1,8,0.94,37.1,M,45.0,M,,*64
$GPRMC,204357.000,A,5251.1126,N,01246.5171,E,49.42,328.58,280114,,,A*5C
$GPGGA,204406.000,5251.2173,N,01246.4145,E,1,8,0.94,38.5,M,45.0,M,,*63
$GPRMC,204405.000,A,5251.2053,N,01246.4260,E,50.20,329.71,280114,,,A*58
$GPGGA,204414.000,5251.3178,N,01246.3222,E,1,8,0.94,39.0,M,45.0,M,,*6B
$GPRMC,204413.000,A,5251.3040,N,01246.3344,E,55.61,331.56,280114,,,A*50
$GPGGA,204421.000,5251.4258,N,01246.2289,E,1,7,0.99,39.4,M,45.0,M,,*6D
$GPRMC,204420.000,A,5251.4097,N,01246.2423,E,64.56,333.30,280114,,,A*5E
$GPGGA,204428.000,5251.5384,N,01246.1398,E,1,8,0.94,40.0,M,45.0,M,,*6F
$GPRMC,204427.000,A,5251.5219,N,01246.1523,E,64.63,335.33,280114,,,A*5D
$GPGGA,204434.000,5251.6374,N,01246.0680,E,1,7,1.00,40.5,M,45.0,M,,*65
$GPRMC,204433.000,A,5251.6214,N,01246.0793,E,63.15,336.76,280114,,,A*5A
$GPGGA,204441.000,5251.7430,N,01245.9989,E,1,8,0.94,41.4,M,45.0,M,,*6E
$GPRMC,204440.000,A,5251.7282,N,01246.0082,E,56.91,338.88,280114,,,A*52
$GPGGA,204448.000,5251.8497,N,01245.9356,E,1,8,0.94,41.7,M,45.0,M,,*6E
$GPRMC,204447.000,A,5251.8346,N,01245.9442,E,58.41,340.78,280114,,,A*52
$GPGGA,204455.000,5251.9559,N,01245.8758,E,1,8,0.94,41.1,M,45.0,M,,*6D
$GPRMC,204454.000,A,5251.9404,N,01245.8843,E,58.61,341.26,280114,,,A*54
$GPGGA,204502.000,5252.0684,N,01245.8147,E,1,7,1.00,39.8,M,45.0,M,,*6A
$GPRMC,204501.000,A,5252.0525,N,01245.8234,E,60.59,342.13,280114,,,A*52
$GPGGA,204509.000,5252.1832,N,01245.7553,E,1,8,0.94,37.9,M,45.0,M,,*61
$GPRMC,204508.000,A,5252.1663,N,01245.7637,E,62.63,342.90,280114,,,A*53
$GPGGA,204516.000,5252.3027,N,01245.6929,E,1,8,0.94,35.5,M,45.0,M,,*6F
$GPRMC,204515.000,A,5252.2855,N,01245.7019,E,64.94,342.61,280114,,,A*5D
$GPGGA,204523.000,5252.4190,N,01245.6320,E,1,8,0.94,34.3,M,45.0,M,,*67
$GPRMC,204522.000,A,5252.4031,N,01245.6402,E,60.69,342.63,280114,,,A*5E
$GPGGA,204530.000,5252.5312,N,01245.5731,E,1,8,0.94,34.4,M,45.0,M,,*6C
$GPRMC,204529.000,A,5252.5144,N,01245.5820,E,62.44,342.48,280114,,,A*5C
$GPGGA,204536.000,5252.6369,N,01245.5175,E,1,8,0.94,35.2,M,45.0,M,,*64
$GPRMC,204535.000,A,5252.6191,N,01245.5267,E,67.45,342.60,280114,,,A*5D
$GPGGA,204543.000,5252.7532,N,01245.4552,E,1,8,0.94,35.7,M,45.0,M,,*6A
$GPRMC,204542.000,A,5252.7367,N,01245.4643,E,62.54,341.37,280114,,,A*50
$GPGGA,204549.000,5252.8569,N,01245.4006,E,1,8,0.94,35.6,M,45.0,M,,*64
$GPRMC,204548.000,A,5252.8395,N,01245.4093,E,65.76,342.66,280114,,,A*53
$GPGGA,204555.000,5252.9626,N,01245.3458,E,1,7,1.15,35.5,M,45.0,M,,*6C
$GPRMC,204554.000,A,5252.9443,N,01245.3555,E,68.83,342.35,280114,,,A*5A
$GPGGA,204601.000,5253.0739,N,01245.2890,E,1,8,0.94,35.4,M,44.9,M,,*6E
$GPRMC,204600.000,A,5253.0549,N,01245.2987,E,71.47,342.46,280114,,,A*5D
$GPGGA,204607.000,5253.1867,N,01245.2307,E,1,8,0.94,35.6,M,44.9,M,,*6A
$GPRMC,204606.000,A,5253.1684,N,01245.2403,E,69.17,342.40,280114,,,A*53
$GPGGA,204613.000,5253.3000,N,01245.1723,E,1,8,0.94,36.1,M,44.9,M,,*61
$GPRMC,204612.000,A,5253.2810,N,01245.1819,E,71.88,342.88,280114,,,A*59
$GPGGA,204619.000,5253.4110,N,01245.1164,E,1,8,0.94,36.7,M,44.9,M,,*6F
$GPRMC,204618.000,A,5253.3928,N,01245.1257,E,69.05,343.11,280114,,,A*55
$GPGGA,204625.000,5253.5206,N,01245.0596,E,1,8,0.94,36.9,M,44.9,M,,*63
$GPRMC,204624.000,A,5253.5021,N,01245.0692,E,70.14,342.51,280114,,,A*5D
$GPGGA,204631.000,5253.6345,N,01244.9975,E,1,8,0.94,36.8,M,44.9,M,,*6B
$GPRMC,204630.000,A,5253.6153,N,01245.0084,E,73.23,341.22,280114,,,A*5E
$GPGGA,204637.000,5253.7504,N,01244.9231,E,1,8,0.94,36.1,M,44.9,M,,*6D
$GPRMC,204636.000,A,5253.7312,N,01244.9362,E,74.90,337.98,280114,,,A*52
$GPGGA,204643.000,5253.8631,N,01244.8402,E,1,7,1.00,35.5,M,44.9,M,,*67
$GPRMC,204642.000,A,5253.8447,N,01244.8547,E,73.32,334.82,280114,,,A*5E
$GPGGA,204649.000,5253.9677,N,01244.7518,E,1,8,0.94,35.6,M,44.9,M,,*6B
$GPRMC,204648.000,A,5253.9503,N,01244.7671,E,69.73,331.85,280114,,,A*51
$GPGGA,204655.000,5254.0720,N,01244.6522,E,1,8,0.94,35.5,M,44.9,M,,*60
$GPRMC,204654.000,A,5254.0546,N,01244.6697,E,72.77,328.81,280114,,,A*58
$GPGGA,204701.000,5254.1754,N,01244.5384,E,1,8,0.94,35.4,M,44.9,M,,*6A
$GPRMC,204700.000,A,5254.1583,N,01244.5582,E,75.31,325.32,280114,,,A*54
$GPGGA,204707.000,5254.2741,N,01244.4152,E,1,8,0.94,35.0,M,44.9,M,,*67
$GPRMC,204706.000,A,5254.2584,N,01244.4362,E,72.71,322.00,280114,,,A*5A
$GPGGA,204713.000,5254.3673,N,01244.2829,E,1,8,0.94,34.7,M,44.9,M,,*66
$GPRMC,204712.000,A,5254.3521,N,01244.3055,E,73.83,319.63,280114,,,A*50
$GPGGA,204719.000,5254.4546,N,01244.1483,E,1,8,0.94,34.5,M,44.9,M,,*63
$GPRMC,204718.000,A,5254.4403,N,01244.1710,E,71.39,316.30,280114,,,A*52
$GPGGA,204725.000,5254.5373,N,01244.0128,E,1,8,0.94,35.0,M,44.9,M,,*6C
$GPRMC,204724.000,A,5254.5240,N,01244.0350,E,68.50,314.86,280114,,,A*54
$GPGGA,204731.000,5254.6144,N,01243.8829,E,1,8,0.94,35.9,M,44.9,M,,*62
$GPRMC,204730.000,A,5254.6015,N,01243.9049,E,66.71,313.83,280114,,,A*5A
$GPGGA,204737.000,5254.6954,N,01243.7457,E,1,8,0.94,37.6,M,44.9,M,,*6A
$GPRMC,204736.000,A,5254.6815,N,01243.7693,E,71.05,314.59,280114,,,A*5E
$GPGGA,204743.000,5254.7840,N,01243.6019,E,1,8,0.94,39.6,M,44.9,M,,*6D
$GPRMC,204742.000,A,5254.7688,N,01243.6253,E,74.85,317.22,280114,,,A*5D
$GPGGA,204749.000,5254.8746,N,01243.4697,E,1,8,0.94,40.2,M,44.9,M,,*69
$GPRMC,204748.000,A,5254.8596,N,01243.4908,E,71.23,320.03,280114,,,A*5D
$GPGGA,204755.000,5254.9663,N,01243.3469,E,1,8,0.94,39.5,M,44.9,M,,*6E
$GPRMC,204754.000,A,5254.9507,N,01243.3669,E,70.61,322.00,280114,,,A*50
$GPGGA,204801.000,5255.0639,N,01243.2238,E,1,8,0.94,38.0,M,44.9,M,,*60
$GPRMC,204800.000,A,5255.0469,N,01243.2441,E,75.17,323.78,280114,,,A*5C
$GPGGA,204807.000,5255.1665,N,01243.1035,E,1,7,1.00,36.9,M,44.9,M,,*66
$GPRMC,204806.000,A,5255.1494,N,01243.1237,E,75.36,324.63,280114,,,A*53
$GPGGA,204813.000,5255.2723,N,01242.9813,E,1,8,0.94,36.7,M,44.9,M,,*6B
$GPRMC,204812.000,A,5255.2542,N,01243.0019,E,78.59,325.28,280114,,,A*5A
$GPGGA,204818.000,5255.3635,N,01242.8772,E,1,8,0.94,36.7,M,44.9,M,,*6E
$GPRMC,204817.000,A,5255.3453,N,01242.8982,E,79.78,325.21,280114,,,A*56
$GPGGA,204824.000,5255.4668,N,01242.7563,E,1,8,0.94,37.5,M,44.9,M,,*60
$GPRMC,204823.000,A,5255.4503,N,01242.7759,E,73.68,324.52,280114,,,A*5B
$GPGGA,204830.000,5255.5614,N,01242.6424,E,1,8,0.94,38.3,M,44.9,M,,*65
$GPRMC,204829.000,A,5255.5457,N,01242.6618,E,70.49,323.23,280114,,,A*54
$GPGGA,204836.000,5255.6552,N,01242.5202,E,1,8,0.94,38.8,M,44.9,M,,*6B
$GPRMC,204835.000,A,5255.6396,N,01242.5415,E,72.36,321.32,280114,,,A*54
$GPGGA,204842.000,5255.7488,N,01242.3839,E,1,8,0.94,38.8,M,44.9,M,,*6B
$GPRMC,204841.000,A,5255.7334,N,01242.4071,E,74.93,317.82,280114,,,A*5E
$GPGGA,204848.000,5255.8379,N,01242.2402,E,1,8,0.94,38.8,M,44.9,M,,*62
$GPRMC,204847.000,A,5255.8233,N,01242.2649,E,75.27,314.48,280114,,,A*51
$GPGGA,204854.000,5255.9241,N,01242.0829,E,1,8,0.94,38.5,M,44.9,M,,*6E
$GPRMC,204853.000,A,5255.9100,N,01242.1100,E,77.34,311.36,280114,,,A*53
$GPGGA,204900.000,5256.0037,N,01241.9174,E,1,8,0.94,38.4,M,45.0,M,,*65
$GPRMC,204859.000,A,5255.9912,N,01241.9449,E,75.51,307.74,280114,,,A*51
$GPGGA,204906.000,5256.0729,N,01241.7572,E,1,8,0.94,37.8,M,45.0,M,,*64
$GPRMC,204905.000,A,5256.0619,N,01241.7839,E,70.75,304.83,280114,,,A*5A
$GPGGA,204912.000,5256.1382,N,01241.5862,E,1,8,0.94,36.9,M,45.0,M,,*6B
$GPRMC,204911.000,A,5256.1274,N,01241.6157,E,74.81,301.44,280114,,,A*50
$GPGGA,204918.000,5256.2025,N,01241.4017,E,1,8,0.94,36.3,M,45.0,M,,*6D
$GPRMC,204917.000,A,5256.1918,N,01241.4331,E,77.88,299.67,280114,,,A*5C
$GPGGA,204923.000,5256.2551,N,01241.2440,E,1,8,0.94,36.2,M,45.0,M,,*62
$GPRMC,204922.000,A,5256.2446,N,01241.2754,E,78.23,299.10,280114,,,A*50
$GPGGA,204928.000,5256.3078,N,01241.0871,E,1,8,0.94,36.2,M,45.0,M,,*6A
$GPRMC,204927.000,A,5256.2972,N,01241.1185,E,78.30,299.06,280114,,,A*53
$GPGGA,204934.000,5256.3709,N,01240.9014,E,1,8,0.94,36.1,M,45.0,M,,*66
$GPRMC,204933.000,A,5256.3604,N,01240.9317,E,76.50,299.54,280114,,,A*56
$GPGGA,204940.000,5256.4352,N,01240.7228,E,1,8,0.94,36.1,M,45.0,M,,*6B
$GPRMC,204939.000,A,5256.4243,N,01240.7521,E,75.03,301.41,280114,,,A*50
$GPGGA,204946.000,5256.5045,N,01240.5505,E,1,8,0.94,36.7,M,45.0,M,,*65
$GPRMC,204945.000,A,5256.4926,N,01240.5790,E,75.37,304.59,280114,,,A*52
$GPGGA,204952.000,5256.5796,N,01240.3841,E,1,8,0.94,37.5,M,45.0,M,,*61
$GPRMC,204951.000,A,5256.5666,N,01240.4111,E,75.49,307.94,280114,,,A*58
$GPGGA,204958.000,5256.6566,N,01240.2313,E,1,8,0.94,38.8,M,45.0,M,,*6A
$GPRMC,204957.000,A,5256.6437,N,01240.2564,E,71.26,310.26,280114,,,A*59
$GPGGA,205004.000,5256.7375,N,01240.0889,E,1,8,0.94,40.1,M,45.0,M,,*62
$GPRMC,205003.000,A,5256.7235,N,01240.1122,E,71.27,314.24,280114,,,A*57
$GPGGA,205010.000,5256.8261,N,01239.9525,E,1,8,0.94,41.7,M,45.0,M,,*67
$GPRMC,205009.000,A,5256.8108,N,01239.9751,E,73.53,318.35,280114,,,A*56
$GPGGA,205016.000,5256.9216,N,01239.8184,E,1,8,0.94,42.8,M,45.0,M,,*62
$GPRMC,205015.000,A,5256.9055,N,01239.8400,E,75.19,320.44,280114,,,A*50
$GPGGA,205022.000,5257.0206,N,01239.6907,E,1,8,0.94,43.9,M,45.0,M,,*61
$GPRMC,205021.000,A,5257.0040,N,01239.7117,E,75.82,322.21,280114,,,A*54
$GPGGA,205028.000,5257.1208,N,01239.5657,E,1,8,0.94,45.1,M,45.0,M,,*63
$GPRMC,205027.000,A,5257.1040,N,01239.5866,E,75.36,323.20,280114,,,A*51
$GPGGA,205034.000,5257.2212,N,01239.4410,E,1,8,0.94,46.4,M,45.0,M,,*60
$GPRMC,205033.000,A,5257.2043,N,01239.4617,E,75.60,323.24,280114,,,A*5A
$GPGGA,205040.000,5257.3194,N,01239.3180,E,1,7,0.99,48.1,M,45.0,M,,*6D
$GPRMC,205039.000,A,5257.3032,N,01239.3387,E,73.95,322.68,280114,,,A*59
$GPGGA,205046.000,5257.4140,N,01239.1902,E,1,8,0.94,49.2,M,45.0,M,,*65
$GPRMC,205045.000,A,5257.3985,N,01239.2122,E,73.63,319.85,280114,,,A*59
$GPGGA,205052.000,5257.5054,N,01239.0560,E,1,8,0.94,49.8,M,45.0,M,,*66
$GPRMC,205051.000,A,5257.4905,N,01239.0784,E,72.42,317.97,280114,,,A*54
$GPGGA,205058.000,5257.5924,N,01238.9186,E,1,8,0.94,49.9,M,45.0,M,,*67
$GPRMC,205057.000,A,5257.5781,N,01238.9418,E,72.18,315.64,280114,,,A*5E
$GPGGA,205104.000,5257.6776,N,01238.7735,E,1,8,0.94,49.2,M,45.0,M,,*6E
$GPRMC,205103.000,A,5257.6635,N,01238.7985,E,73.91,313.22,280114,,,A*50
$GPGGA,205110.000,5257.7577,N,01238.6226,E,1,8,0.94,48.8,M,45.0,M,,*64
$GPRMC,205109.000,A,5257.7444,N,01238.6480,E,72.82,310.51,280114,,,A*52
$GPGGA,205116.000,5257.8387,N,01238.4734,E,1,8,0.94,48.3,M,45.0,M,,*6B
$GPRMC,205115.000,A,5257.8250,N,01238.4980,E,72.66,312.16,280114,,,A*57
$GPGGA,205122.000,5257.9244,N,01238.3227,E,1,8,0.94,48.0,M,45.0,M,,*60
$GPRMC,205121.000,A,5257.9095,N,01238.3481,E,76.58,314.14,280114,,,A*5C
$GPGGA,205127.000,5258.0043,N,01238.1951,E,1,8,0.94,47.7,M,45.0,M,,*66
$GPRMC,205126.000,A,5257.9878,N,01238.2209,E,80.94,317.07,280114,,,A*5F
$GPGGA,205132.000,5258.0896,N,01238.0692,E,1,8,0.94,47.2,M,45.0,M,,*66
$GPRMC,205131.000,A,5258.0723,N,01238.0936,E,81.85,319.40,280114,,,A*57
$GPGGA,205137.000,5258.1781,N,01237.9503,E,1,8,0.94,46.2,M,45.0,M,,*67
$GPRMC,205136.000,A,5258.1603,N,01237.9734,E,82.07,321.91,280114,,,A*56
$GPGGA,205142.000,5258.2694,N,01237.8415,E,1,7,0.99,45.2,M,45.0,M,,*65
$GPRMC,205141.000,A,5258.2511,N,01237.8623,E,80.52,325.07,280114,,,A*5A
$GPGGA,205147.000,5258.3605,N,01237.7441,E,1,7,0.99,44.6,M,45.0,M,,*62
$GPRMC,205146.000,A,5258.3425,N,01237.7630,E,76.93,327.23,280114,,,A*57
$GPGGA,205153.000,5258.4712,N,01237.6363,E,1,8,0.94,43.1,M,45.0,M,,*63
$GPRMC,205152.000,A,5258.4525,N,01237.6538,E,77.31,330.18,280114,,,A*59
$GPGGA,205158.000,5258.5660,N,01237.5509,E,1,8,0.94,42.5,M,45.0,M,,*61
$GPRMC,205157.000,A,5258.5470,N,01237.5677,E,77.51,332.08,280114,,,A*52
$GPGGA,205203.000,5258.6616,N,01237.4670,E,1,7,0.99,41.2,M,45.0,M,,*64
$GPRMC,205202.000,A,5258.6424,N,01237.4837,E,78.29,332.10,280114,,,A*51
$GPGGA,205209.000,5258.7714,N,01237.3728,E,1,7,0.99,40.3,M,45.0,M,,*67
$GPRMC,205208.000,A,5258.7536,N,01237.3879,E,72.30,332.64,280114,,,A*54
$GPGGA,205215.000,5258.8785,N,01237.2799,E,1,7,0.99,40.4,M,45.0,M,,*61
$GPRMC,205214.000,A,5258.8605,N,01237.2956,E,73.20,332.39,280114,,,A*50
$GPGGA,205221.000,5258.9883,N,01237.1835,E,1,8,0.94,40.8,M,45.0,M,,*6A
$GPRMC,205220.000,A,5258.9698,N,01237.2007,E,75.82,331.12,280114,,,A*5B
$GPGGA,205227.000,5259.0998,N,01237.0766,E,1,8,0.94,41.3,M,45.0,M,,*6D
$GPRMC,205226.000,A,5259.0814,N,01237.0947,E,76.82,329.64,280114,,,A*5B
$GPGGA,205232.000,5259.1918,N,01236.9829,E,1,8,0.94,42.2,M,45.0,M,,*6E
$GPRMC,205231.000,A,5259.1738,N,01237.0016,E,76.83,328.03,280114,,,A*51
$GPGGA,205238.000,5259.2923,N,01236.8741,E,1,7,1.00,43.0,M,45.0,M,,*6F
$GPRMC,205237.000,A,5259.2763,N,01236.8919,E,69.87,326.28,280114,,,A*58
$GPGGA,205244.000,5259.3849,N,01236.7659,E,1,8,0.94,44.5,M,45.0,M,,*6E
$GPRMC,205243.000,A,5259.3692,N,01236.7849,E,70.15,324.57,280114,,,A*57
$GPGGA,205250.000,5259.4797,N,01236.6509,E,1,8,0.94,45.3,M,45.0,M,,*60
$GPRMC,205249.000,A,5259.4645,N,01236.6697,E,69.96,323.42,280114,,,A*5C
$GPGGA,205256.000,5259.5730,N,01236.5351,E,1,8,0.94,46.5,M,45.0,M,,*67
$GPRMC,205255.000,A,5259.5571,N,01236.5547,E,71.49,323.37,280114,,,A*50
$GPGGA,205302.000,5259.6689,N,01236.4172,E,1,8,0.94,47.1,M,45.0,M,,*60
$GPRMC,205301.000,A,5259.6528,N,01236.4371,E,72.29,323.48,280114,,,A*50
$GPGGA,205308.000,5259.7663,N,01236.2975,E,1,8,0.94,47.8,M,45.0,M,,*6F
$GPRMC,205307.000,A,5259.7504,N,01236.3170,E,71.53,323.68,280114,,,A*51
$GPGGA,205314.000,5259.8589,N,01236.1833,E,1,8,0.94,48.5,M,45.0,M,,*68
$GPRMC,205313.000,A,5259.8440,N,01236.2019,E,67.79,323.03,280114,,,A*57
$GPGGA,205320.000,5259.9550,N,01236.0673,E,1,8,0.94,48.9,M,45.0,M,,*6D
$GPRMC,205319.000,A,5259.9383,N,01236.0874,E,73.69,324.22,280114,,,A*55
$GPGGA,205326.000,5300.0565,N,01235.9446,E,1,8,0.94,49.4,M,45.0,M,,*6B
$GPRMC,205325.000,A,5300.0396,N,01235.9651,E,74.99,323.79,280114,,,A*58
$GPGGA,205332.000,5300.1564,N,01235.8219,E,1,8,0.94,50.0,M,45.0,M,,*6F
$GPRMC,205331.000,A,5300.1399,N,01235.8422,E,74.46,323.22,280114,,,A*58
$GPGGA,205338.000,5300.2549,N,01235.6987,E,1,8,0.94,50.4,M,45.0,M,,*6F
$GPRMC,205337.000,A,5300.2385,N,01235.7195,E,74.18,322.64,280114,,,A*5E
$GPGGA,205344.000,5300.3547,N,01235.5746,E,1,8,0.94,51.0,M,45.0,M,,*6E
$GPRMC,205343.000,A,5300.3379,N,01235.5953,E,75.54,323.31,280114,,,A*57
$GPGGA,205350.000,5300.4536,N,01235.4534,E,1,8,0.94,51.4,M,45.0,M,,*68
$GPRMC,205349.000,A,5300.4385,N,01235.4720,E,70.77,323.21,280114,,,A*57
$GPGGA,205357.000,5300.5427,N,01235.3461,E,1,8,0.94,52.0,M,45.0,M,,*6E
$GPRMC,205356.000,A,5300.5302,N,01235.3608,E,55.43,324.49,280114,,,A*52
$GPGGA,205405.000,5300.6411,N,01235.2297,E,1,8,0.94,52.5,M,45.0,M,,*63
$GPRMC,205404.000,A,5300.6289,N,01235.2438,E,54.37,324.91,280114,,,A*54
$GPGGA,205413.000,5300.7370,N,01235.1194,E,1,8,0.94,53.2,M,45.0,M,,*60
$GPRMC,205412.000,A,5300.7251,N,01235.1328,E,51.98,325.79,280114,,,A*55
$GPGGA,205421.000,5300.8332,N,01235.0154,E,1,8,0.94,53.5,M,45.0,M,,*62
$GPRMC,205420.000,A,5300.8210,N,01235.0284,E,52.58,327.10,280114,,,A*5A
$GPGGA,205428.000,5300.9255,N,01234.9206,E,1,8,0.94,54.2,M,45.0,M,,*66
$GPRMC,205427.000,A,5300.9113,N,01234.9351,E,58.89,328.47,280114,,,A*56
$GPGGA,205435.000,5301.0317,N,01234.8153,E,1,8,0.94,54.6,M,45.0,M,,*63
$GPRMC,205434.000,A,5301.0159,N,01234.8304,E,65.16,329.48,280114,,,A*55
$GPGGA,205441.000,5301.1291,N,01234.7226,E,1,8,0.94,54.8,M,45.0,M,,*6E
$GPRMC,205440.000,A,5301.1126,N,01234.7380,E,67.91,330.55,280114,,,A*55
$GPGGA,205447.000,5301.2301,N,01234.6311,E,1,8,0.94,55.0,M,45.0,M,,*6E
$GPRMC,205446.000,A,5301.2131,N,01234.6460,E,69.30,331.92,280114,,,A*51
$GPGGA,205453.000,5301.3324,N,01234.5431,E,1,8,0.94,55.1,M,45.0,M,,*6A
$GPRMC,205452.000,A,5301.3148,N,01234.5581,E,70.16,333.10,280114,,,A*52
$GPGGA,205459.000,5301.4443,N,01234.4493,E,1,8,0.94,55.4,M,45.0,M,,*6D
$GPRMC,205458.000,A,5301.4249,N,01234.4650,E,77.58,333.67,280114,,,A*5E
$GPGGA,205504.000,5301.5424,N,01234.3723,E,1,8,0.94,55.7,M,45.0,M,,*68
$GPRMC,205503.000,A,5301.5226,N,01234.3878,E,78.91,334.81,280114,,,A*5F
$GPGGA,205509.000,5301.6427,N,01234.2943,E,1,8,0.94,56.0,M,45.0,M,,*68
$GPRMC,205508.000,A,5301.6225,N,01234.3099,E,79.73,334.81,280114,,,A*5E
$GPGGA,205514.000,5301.7462,N,01234.2143,E,1,8,0.94,56.1,M,45.0,M,,*6D
$GPRMC,205513.000,A,5301.7255,N,01234.2305,E,82.45,335.05,280114,,,A*59
$GPGGA,205519.000,5301.8458,N,01234.1319,E,1,8,0.94,56.3,M,45.0,M,,*6A
$GPRMC,205518.000,A,5301.8266,N,01234.1484,E,78.58,332.89,280114,,,A*5A
$GPGGA,205525.000,5301.9539,N,01234.0309,E,1,8,0.94,56.3,M,45.0,M,,*62
$GPRMC,205524.000,A,5301.9364,N,01234.0481,E,73.26,329.64,280114,,,A*58
$GPGGA,205531.000,5302.0579,N,01233.9213,E,1,8,0.94,56.7,M,45.0,M,,*69
$GPRMC,205530.000,A,5302.0405,N,01233.9406,E,75.14,326.44,280114,,,A*5C
$GPGGA,205537.000,5302.1604,N,01233.7973,E,1,8,0.94,55.9,M,45.0,M,,*69
$GPRMC,205536.000,A,5302.1435,N,01233.8189,E,77.40,322.87,280114,,,A*53
$GPGGA,205542.000,5302.2438,N,01233.6840,E,1,8,0.94,54.8,M,45.0,M,,*65
$GPRMC,205541.000,A,5302.2273,N,01233.7074,E,78.05,320.10,280114,,,A*5A
$GPGGA,205548.000,5302.3392,N,01233.5408,E,1,8,0.94,53.3,M,45.0,M,,*66
$GPRMC,205547.000,A,5302.3237,N,01233.5648,E,76.19,317.42,280114,,,A*56
$GPGGA,205554.000,5302.4303,N,01233.3929,E,1,8,0.94,51.6,M,45.0,M,,*6B
$GPRMC,205553.000,A,5302.4153,N,01233.4177,E,76.09,315.34,280114,,,A*5D
$GPGGA,205600.000,5302.5203,N,01233.2433,E,1,7,1.00,51.2,M,45.0,M,,*69
$GPRMC,205559.000,A,5302.5051,N,01233.2686,E,77.13,314.89,280114,,,A*57
$GPGGA,205606.000,5302.6095,N,01233.0937,E,1,8,0.94,49.8,M,45.0,M,,*6A
$GPRMC,205605.000,A,5302.5950,N,01233.1178,E,74.39,314.79,280114,,,A*54
$GPGGA,205612.000,5302.6968,N,01232.9467,E,1,8,0.94,48.5,M,45.0,M,,*68
$GPRMC,205611.000,A,5302.6818,N,01232.9712,E,75.55,314.91,280114,,,A*51
$GPGGA,205618.000,5302.7895,N,01232.8018,E,1,8,0.94,46.8,M,45.0,M,,*6E
$GPRMC,205617.000,A,5302.7740,N,01232.8253,E,75.69,317.32,280114,,,A*50
$GPGGA,205624.000,5302.8865,N,01232.6637,E,1,8,0.94,45.7,M,45.0,M,,*68
$GPRMC,205623.000,A,5302.8698,N,01232.6867,E,78.39,320.20,280114,,,A*50
$GPGGA,205629.000,5302.9740,N,01232.5506,E,1,8,0.94,46.1,M,45.0,M,,*6B
$GPRMC,205628.000,A,5302.9562,N,01232.5729,E,79.85,322.98,280114,,,A*5D
$GPGGA,205634.000,5303.0659,N,01232.4433,E,1,8,0.94,47.0,M,45.0,M,,*60
$GPRMC,205633.000,A,5303.0472,N,01232.4640,E,80.85,325.31,280114,,,A*52
$GPGGA,205639.000,5303.1607,N,01232.3445,E,1,7,1.00,47.7,M,45.0,M,,*65
$GPRMC,205638.000,A,5303.1419,N,01232.3634,E,79.24,328.28,280114,,,A*59
$GPGGA,205645.000,5303.2687,N,01232.2417,E,1,8,0.94,48.8,M,45.0,M,,*60
$GPRMC,205644.000,A,5303.2513,N,01232.2577,E,72.46,331.12,280114,,,A*51
$GPGGA,205651.000,5303.3705,N,01232.1559,E,1,8,0.94,49.6,M,45.0,M,,*68
$GPRMC,205650.000,A,5303.3536,N,01232.1696,E,68.04,334.11,280114,,,A*56
$GPGGA,205657.000,5303.4755,N,01232.0771,E,1,8,0.94,49.5,M,45.0,M,,*66
$GPRMC,205656.000,A,5303.4574,N,01232.0901,E,70.55,336.63,280114,,,A*5B
$GPGGA,205703.000,5303.5905,N,01232.0045,E,1,7,0.99,49.1,M,45.0,M,,*6A
$GPRMC,205702.000,A,5303.5710,N,01232.0161,E,74.83,340.38,280114,,,A*54
$GPGGA,205709.000,5303.7083,N,01231.9412,E,1,8,0.94,48.4,M,45.0,M,,*6F
$GPRMC,205708.000,A,5303.6886,N,01231.9512,E,73.97,342.59,280114,,,A*50
$GPGGA,205715.000,5303.8303,N,01231.8805,E,1,8,0.94,47.5,M,45.0,M,,*63
$GPRMC,205714.000,A,5303.8096,N,01231.8901,E,77.08,344.59,280114,,,A*51
$GPGGA,205720.000,5303.9352,N,01231.8337,E,1,8,0.94,47.6,M,45.0,M,,*69
$GPRMC,205719.000,A,5303.9138,N,01231.8428,E,79.13,345.33,280114,,,A*57
$GPGGA,205725.000,5304.0428,N,01231.7876,E,1,8,0.94,48.0,M,45.0,M,,*60
$GPRMC,205724.000,A,5304.0213,N,01231.7968,E,79.72,345.38,280114,,,A*57
$GPGGA,205730.000,5304.1492,N,01231.7419,E,1,8,0.94,49.1,M,45.0,M,,*61
$GPRMC,205729.000,A,5304.1281,N,01231.7508,E,78.53,345.54,280114,,,A*52
$GPGGA,205735.000,5304.2535,N,01231.6971,E,1,7,0.99,49.9,M,45.0,M,,*63
$GPRMC,205734.000,A,5304.2331,N,01231.7059,E,76.49,345.41,280114,,,A*57
$GPGGA,205741.000,5304.3721,N,01231.6440,E,1,7,0.99,49.9,M,45.0,M,,*69
$GPRMC,205740.000,A,5304.3523,N,01231.6531,E,73.76,344.80,280114,,,A*5F
$GPGGA,205747.000,5304.4942,N,01231.5843,E,1,8,0.94,50.9,M,45.0,M,,*65
$GPRMC,205746.000,A,5304.4740,N,01231.5948,E,76.83,342.80,280114,,,A*51
$GPGGA,205753.000,5304.6107,N,01231.5179,E,1,8,0.94,52.0,M,45.0,M,,*60
$GPRMC,205752.000,A,5304.5915,N,01231.5296,E,73.71,340.36,280114,,,A*54
$GPGGA,205759.000,5304.7280,N,01231.4415,E,1,8,0.94,53.2,M,45.0,M,,*6A
$GPRMC,205758.000,A,5304.7082,N,01231.4549,E,76.48,338.00,280114,,,A*5A
$GPGGA,205804.000,5304.8281,N,01231.3686,E,1,8,0.94,54.3,M,45.0,M,,*6A
$GPRMC,205803.000,A,5304.8079,N,01231.3836,E,79.42,335.84,280114,,,A*56
$GPGGA,205809.000,5304.9300,N,01231.2875,E,1,8,0.94,55.3,M,45.0,M,,*6C
$GPRMC,205808.000,A,5304.9096,N,01231.3046,E,82.06,333.52,280114,,,A*5B
$GPGGA,205814.000,5305.0304,N,01231.1968,E,1,8,0.94,56.4,M,45.0,M,,*66
$GPRMC,205813.000,A,5305.0104,N,01231.2158,E,82.53,330.64,280114,,,A*5A
$GPGGA,205819.000,5305.1299,N,01231.0971,E,1,8,0.94,57.7,M,45.0,M,,*64
$GPRMC,205818.000,A,5305.1101,N,01231.1177,E,83.60,328.07,280114,,,A*56
$GPGGA,205824.000,5305.2278,N,01230.9894,E,1,8,0.94,59.1,M,45.0,M,,*6C
$GPRMC,205823.000,A,5305.2085,N,01231.0116,E,84.41,325.77,280114,,,A*58
$GPGGA,205829.000,5305.3220,N,01230.8747,E,1,8,0.94,60.1,M,45.0,M,,*67
$GPRMC,205828.000,A,5305.3034,N,01230.8983,E,84.54,323.09,280114,,,A*5E
$GPGGA,205834.000,5305.4149,N,01230.7504,E,1,8,0.94,61.5,M,45.0,M,,*6F
$GPRMC,205833.000,A,5305.3964,N,01230.7759,E,86.50,320.94,280114,,,A*5F
$GPGGA,205839.000,5305.5050,N,01230.6184,E,1,8,0.94,63.0,M,45.0,M,,*60
$GPRMC,205838.000,A,5305.4873,N,01230.6454,E,86.69,317.99,280114,,,A*58
$GPGGA,205844.000,5305.5923,N,01230.4795,E,1,8,0.94,64.5,M,45.0,M,,*61
$GPRMC,205843.000,A,5305.5751,N,01230.5078,E,87.14,315.59,280114,,,A*56
$GPGGA,205849.000,5305.6739,N,01230.3374,E,1,8,0.94,65.7,M,45.0,M,,*65
$GPRMC,205848.000,A,5305.6581,N,01230.3658,E,84.26,313.05,280114,,,A*5E
$GPGGA,205854.000,5305.7517,N,01230.1896,E,1,8,0.94,65.6,M,45.0,M,,*62
$GPRMC,205853.000,A,5305.7362,N,01230.2197,E,85.71,310.50,280114,,,A*5B
$GPGGA,205859.000,5305.8274,N,01230.0326,E,1,8,0.94,65.6,M,45.0,M,,*63
$GPRMC,205858.000,A,5305.8125,N,01230.0646,E,86.92,308.06,280114,,,A*53
$GPGGA,205904.000,5305.8976,N,01229.8747,E,1,8,0.94,64.6,M,45.0,M,,*61
$GPRMC,205903.000,A,5305.8841,N,01229.9057,E,83.40,306.41,280114,,,A*57
$GPGGA,205909.000,5305.9622,N,01229.7237,E,1,8,0.94,64.2,M,45.0,M,,*6A
$GPRMC,205908.000,A,5305.9495,N,01229.7539,E,79.81,305.62,280114,,,A*51
$GPGGA,205914.000,5306.0270,N,01229.5695,E,1,8,0.94,62.6,M,45.0,M,,*63
$GPRMC,205913.000,A,5306.0137,N,01229.6004,E,82.35,305.46,280114,,,A*5B
$GPGGA,205919.000,5306.0949,N,01229.4132,E,1,8,0.94,61.7,M,45.0,M,,*66
$GPRMC,205918.000,A,5306.0812,N,01229.4446,E,84.26,305.59,280114,,,A*54
$GPGGA,205924.000,5306.1646,N,01229.2558,E,1,8,0.94,62.0,M,45.0,M,,*63
$GPRMC,205923.000,A,5306.1507,N,01229.2873,E,85.09,306.45,280114,,,A*5A
$GPGGA,205929.000,5306.2321,N,01229.1043,E,1,8,0.94,61.5,M,45.0,M,,*63
$GPRMC,205928.000,A,5306.2187,N,01229.1342,E,80.89,306.77,280114,,,A*58
$GPGGA,205934.000,5306.3013,N,01228.9572,E,1,8,0.94,63.1,M,45.0,M,,*64
$GPRMC,205933.000,A,5306.2872,N,01228.9866,E,81.49,308.18,280114,,,A*5F
$GPGGA,205939.000,5306.3746,N,01228.8137,E,1,8,0.94,64.5,M,45.0,M,,*69
$GPRMC,205938.000,A,5306.3598,N,01228.8417,E,81.34,310.67,280114,,,A*5C
$GPGGA,205944.000,5306.4485,N,01228.6808,E,1,8,0.94,65.7,M,45.0,M,,*60
$GPRMC,205943.000,A,5306.4336,N,01228.7063,E,77.74,313.46,280114,,,A*50
$GPGGA,205949.000,5306.5265,N,01228.5553,E,1,8,0.94,66.2,M,45.0,M,,*62
$GPRMC,205948.000,A,5306.5105,N,01228.5804,E,79.03,316.45,280114,,,A*5B
$GPGGA,205954.000,5306.6081,N,01228.4347,E,1,8,0.94,66.9,M,45.0,M,,*6C
$GPRMC,205953.000,A,5306.5916,N,01228.4583,E,78.91,319.09,280114,,,A*55
$GPGGA,210000.000,5306.7083,N,01228.3033,E,1,8,0.94,68.2,M,45.0,M,,*61
$GPRMC,205959.000,A,5306.6913,N,01228.3246,E,76.55,322.78,280114,,,A*58
$GPGGA,210006.000,5306.8108,N,01228.1856,E,1,8,0.94,69.4,M,45.0,M,,*64
$GPRMC,210005.000,A,5306.7935,N,01228.2045,E,74.53,326.18,280114,,,A*5F
$GPGGA,210012.000,5306.9176,N,01228.0774,E,1,8,0.94,69.8,M,45.0,M,,*6B
$GPRMC,210011.000,A,5306.8992,N,01228.0951,E,75.61,329.51,280114,,,A*54
$GPGGA,210018.000,5307.0304,N,01227.9763,E,1,8,0.94,70.5,M,45.0,M,,*6B
$GPRMC,210017.000,A,5307.0113,N,01227.9923,E,76.87,332.89,280114,,,A*5D
$GPGGA,210024.000,5307.1458,N,01227.8882,E,1,8,0.94,69.1,M,45.0,M,,*66
$GPRMC,210023.000,A,5307.1265,N,01227.9018,E,76.29,336.55,280114,,,A*59
$GPGGA,210030.000,5307.2641,N,01227.8112,E,1,8,0.94,67.1,M,45.0,M,,*64
$GPRMC,210029.000,A,5307.2442,N,01227.8237,E,77.45,339.61,280114,,,A*5E
$GPGGA,210036.000,5307.3842,N,01227.7455,E,1,7,1.01,65.8,M,45.0,M,,*6E
$GPRMC,210035.000,A,5307.3643,N,01227.7554,E,76.04,343.05,280114,,,A*57
$GPGGA,210042.000,5307.4998,N,01227.6951,E,1,8,0.94,63.2,M,45.0,M,,*6A
$GPRMC,210041.000,A,5307.4808,N,01227.7029,E,69.99,345.78,280114,,,A*5B
$GPGGA,210048.000,5307.6188,N,01227.6504,E,1,8,0.94,62.2,M,45.0,M,,*66
$GPRMC,210047.000,A,5307.5984,N,01227.6577,E,74.59,347.73,280114,,,A*5F
$GPGGA,210054.000,5307.7449,N,01227.6083,E,1,7,0.99,62.2,M,45.0,M,,*6A
$GPRMC,210053.000,A,5307.7235,N,01227.6152,E,77.93,348.70,280114,,,A*53
$GPGGA,210100.000,5307.8699,N,01227.5676,E,1,8,0.94,63.9,M,45.0,M,,*6D
$GPRMC,210059.000,A,5307.8496,N,01227.5744,E,74.99,348.86,280114,,,A*5B
$GPGGA,210106.000,5307.9843,N,01227.5270,E,1,7,1.01,66.6,M,45.0,M,,*69
$GPRMC,210105.000,A,5307.9658,N,01227.5339,E,68.55,347.54,280114,,,A*51
$GPGGA,210112.000,5308.1014,N,01227.4794,E,1,5,1.74,69.2,M,45.0,M,,*64
$GPRMC,210111.000,A,5308.0811,N,01227.4879,E,75.08,345.60,280114,,,A*5E
$GPGGA,210117.000,5308.2060,N,01227.4323,E,1,7,1.00,71.6,M,45.0,M,,*65
$GPRMC,210116.000,A,5308.1850,N,01227.4419,E,78.88,344.63,280114,,,A*50
$GPGGA,210122.000,5308.3128,N,01227.3811,E,1,8,0.94,72.5,M,45.0,M,,*61
$GPRMC,210121.000,A,5308.2912,N,01227.3917,E,80.84,343.88,280114,,,A*5D
$GPGGA,210127.000,5308.4216,N,01227.3249,E,1,8,0.94,74.1,M,45.0,M,,*68
$GPRMC,210126.000,A,5308.3995,N,01227.3362,E,82.91,342.46,280114,,,A*59
$GPGGA,210132.000,5308.5321,N,01227.2632,E,1,8,0.94,76.2,M,45.0,M,,*60
$GPRMC,210131.000,A,5308.5099,N,01227.2758,E,84.31,341.47,280114,,,A*5E
$GPGGA,210137.000,5308.6441,N,01227.1998,E,1,8,0.94,77.2,M,45.0,M,,*6A
$GPRMC,210136.000,A,5308.6217,N,01227.2127,E,85.47,341.37,280114,,,A*57
$GPGGA,210142.000,5308.7552,N,01227.1375,E,1,8,0.94,77.3,M,45.0,M,,*62
$GPRMC,210141.000,A,5308.7329,N,01227.1499,E,84.62,341.46,280114,,,A*59
$GPGGA,210147.000,5308.8667,N,01227.0755,E,1,8,0.94,76.2,M,45.0,M,,*6A
$GPRMC,210146.000,A,5308.8443,N,01227.0877,E,84.86,341.66,280114,,,A*5F
$GPGGA,210152.000,5308.9780,N,01227.0184,E,1,8,0.94,73.7,M,45.0,M,,*6D
$GPRMC,210151.000,A,5308.9561,N,01227.0293,E,82.85,343.19,280114,,,A*56
$GPGGA,210157.000,5309.0856,N,01226.9712,E,1,8,0.94,70.4,M,45.0,M,,*65
$GPRMC,210156.000,A,5309.0642,N,01226.9799,E,79.02,345.52,280114,,,A*5E
$GPGGA,210202.000,5309.1944,N,01226.9334,E,1,8,0.94,68.0,M,45.0,M,,*68
$GPRMC,210201.000,A,5309.1726,N,01226.9404,E,79.72,348.79,280114,,,A*59
$GPGGA,210207.000,5309.3036,N,01226.9049,E,1,8,0.94,66.7,M,44.9,M,,*6B
$GPRMC,210206.000,A,5309.2817,N,01226.9099,E,79.36,351.70,280114,,,A*51
$GPGGA,210212.000,5309.4115,N,01226.8865,E,1,7,1.01,65.4,M,44.9,M,,*6D
$GPRMC,210211.000,A,5309.3901,N,01226.8892,E,78.14,354.81,280114,,,A*58
$GPGGA,210217.000,5309.5193,N,01226.8776,E,1,7,1.00,66.6,M,44.9,M,,*6A
$GPRMC,210216.000,A,5309.4976,N,01226.8789,E,78.44,357.03,280114,,,A*51
$GPGGA,210222.000,5309.6288,N,01226.8750,E,1,8,0.94,65.8,M,44.9,M,,*6C
$GPRMC,210221.000,A,5309.6065,N,01226.8746,E,79.44,359.80,280114,,,A*5B
$GPGGA,210227.000,5309.7421,N,01226.8837,E,1,8,0.94,65.0,M,44.9,M,,*6B
$GPRMC,210226.000,A,5309.7192,N,01226.8812,E,82.65,3.28,280114,,,A*53
$GPGGA,210232.000,5309.8578,N,01226.9040,E,1,8,0.94,64.2,M,44.9,M,,*67
$GPRMC,210231.000,A,5309.8346,N,01226.8992,E,83.52,6.53,280114,,,A*54
$GPGGA,210237.000,5309.9739,N,01226.9344,E,1,8,0.94,63.3,M,44.9,M,,*65
$GPRMC,210236.000,A,5309.9506,N,01226.9272,E,84.66,9.72,280114,,,A*58
$GPGGA,210242.000,5310.0910,N,01226.9790,E,1,8,0.94,63.0,M,44.9,M,,*6D
$GPRMC,210241.000,A,5310.0675,N,01226.9691,E,87.21,13.78,280114,,,A*66
$GPGGA,210247.000,5310.2078,N,01227.0289,E,1,8,0.94,62.4,M,44.9,M,,*6D
$GPRMC,210246.000,A,5310.1849,N,01227.0187,E,85.93,14.76,280114,,,A*6B
$GPGGA,210252.000,5310.3171,N,01227.0809,E,1,8,0.94,61.2,M,44.9,M,,*67
$GPRMC,210251.000,A,5310.2954,N,01227.0705,E,81.11,15.94,280114,,,A*6C
$GPGGA,210257.000,5310.4257,N,01227.1325,E,1,8,0.94,60.5,M,44.9,M,,*60
$GPRMC,210256.000,A,5310.4041,N,01227.1222,E,81.21,15.95,280114,,,A*63
$GPGGA,210302.000,5310.5349,N,01227.1848,E,1,8,0.94,60.3,M,44.9,M,,*68
$GPRMC,210301.000,A,5310.5128,N,01227.1744,E,82.39,15.94,280114,,,A*61
$GPGGA,210307.000,5310.6452,N,01227.2371,E,1,8,0.94,60.4,M,44.9,M,,*66
$GPRMC,210306.000,A,5310.6235,N,01227.2268,E,82.00,15.87,280114,,,A*6A
$GPGGA,210313.000,5310.7690,N,01227.2945,E,1,8,0.94,60.6,M,44.9,M,,*61
$GPRMC,210312.000,A,5310.7486,N,01227.2852,E,75.96,15.58,280114,,,A*66
$GPGGA,210319.000,5310.8928,N,01227.3478,E,1,8,0.94,61.7,M,44.9,M,,*6A
$GPRMC,210318.000,A,5310.8718,N,01227.3393,E,77.52,13.90,280114,,,A*68
$GPGGA,210324.000,5311.0019,N,01227.3867,E,1,8,0.94,62.2,M,44.9,M,,*62
$GPRMC,210323.000,A,5310.9795,N,01227.3794,E,81.39,11.33,280114,,,A*68
$GPGGA,210329.000,5311.1163,N,01227.4159,E,1,8,0.94,62.6,M,44.9,M,,*65
$GPRMC,210328.000,A,5311.0932,N,01227.4109,E,83.15,7.81,280114,,,A*5F
$GPGGA,210334.000,5311.2303,N,01227.4344,E,1,8,0.94,62.7,M,44.9,M,,*61
$GPRMC,210333.000,A,5311.2075,N,01227.4314,E,82.63,5.25,280114,,,A*5F
$GPGGA,210339.000,5311.3467,N,01227.4430,E,1,8,0.94,63.4,M,44.9,M,,*6E
$GPRMC,210338.000,A,5311.3231,N,01227.4422,E,84.88,1.76,280114,,,A*54
$GPGGA,210344.000,5311.4639,N,01227.4404,E,1,8,0.94,64.3,M,44.9,M,,*6D
$GPRMC,210343.000,A,5311.4405,N,01227.4416,E,84.72,358.69,280114,,,A*5D
$GPGGA,210349.000,5311.5813,N,01227.4278,E,1,8,0.94,65.4,M,44.9,M,,*6C
$GPRMC,210348.000,A,5311.5579,N,01227.4311,E,84.85,355.64,280114,,,A*55
$GPGGA,210354.000,5311.6947,N,01227.4052,E,1,8,0.94,65.8,M,44.9,M,,*65
$GPRMC,210353.000,A,5311.6723,N,01227.4104,E,81.39,352.48,280114,,,A*5C
$GPGGA,210359.000,5311.8050,N,01227.3722,E,1,8,0.94,66.2,M,44.9,M,,*67
$GPRMC,210358.000,A,5311.7832,N,01227.3800,E,80.14,348.95,280114,,,A*56
$GPGGA,210404.000,5311.9131,N,01227.3302,E,1,8,0.94,67.2,M,44.9,M,,*68
$GPRMC,210403.000,A,5311.8920,N,01227.3387,E,78.79,346.69,280114,,,A*57
$GPGGA,210410.000,5312.0358,N,01227.2752,E,1,7,1.01,69.3,M,44.9,M,,*67
$GPRMC,210409.000,A,5312.0149,N,01227.2849,E,77.74,345.05,280114,,,A*52
$GPGGA,210415.000,5312.1422,N,01227.2247,E,1,8,0.94,70.7,M,44.9,M,,*66
$GPRMC,210414.000,A,5312.1210,N,01227.2348,E,79.54,344.42,280114,,,A*54
$GPGGA,210420.000,5312.2481,N,01227.1733,E,1,8,0.94,71.6,M,44.9,M,,*6F
$GPRMC,210419.000,A,5312.2272,N,01227.1834,E,78.98,344.28,280114,,,A*50
$GPGGA,210426.000,5312.3721,N,01227.1176,E,1,8,0.94,72.7,M,44.9,M,,*64
$GPRMC,210425.000,A,5312.3512,N,01227.1267,E,77.22,345.26,280114,,,A*52
$GPGGA,210431.000,5312.4811,N,01227.0759,E,1,8,0.94,73.0,M,44.9,M,,*65
$GPRMC,210430.000,A,5312.4589,N,01227.0837,E,81.67,347.56,280114,,,A*50
$GPGGA,210436.000,5312.5900,N,01227.0451,E,1,8,0.94,73.0,M,44.9,M,,*69
$GPRMC,210435.000,A,5312.5689,N,01227.0504,E,77.96,351.10,280114,,,A*58
$GPGGA,210441.000,5312.6986,N,01227.0222,E,1,8,0.94,72.5,M,44.9,M,,*62
$GPRMC,210440.000,A,5312.6762,N,01227.0261,E,80.83,353.20,280114,,,A*54
$GPGGA,210446.000,5312.8129,N,01227.0097,E,1,8,0.94,72.2,M,44.9,M,,*6D
$GPRMC,210445.000,A,5312.7899,N,01227.0115,E,82.62,356.76,280114,,,A*50
$GPGGA,210451.000,5312.9303,N,01227.0072,E,1,8,0.94,71.3,M,44.9,M,,*69
$GPRMC,210450.000,A,5312.9065,N,01227.0070,E,85.14,359.82,280114,,,A*51
$GPGGA,210456.000,5313.0515,N,01227.0147,E,1,8,0.94,70.5,M,44.9,M,,*67
$GPRMC,210455.000,A,5313.0271,N,01227.0125,E,88.10,2.70,280114,,,A*53
$GPGGA,210501.000,5313.1749,N,01227.0327,E,1,7,1.01,69.8,M,44.9,M,,*6D
$GPRMC,210500.000,A,5313.1505,N,01227.0285,E,88.04,5.29,280114,,,A*50
$GPGGA,210506.000,5313.2953,N,01227.0551,E,1,8,0.94,69.0,M,44.9,M,,*61
$GPRMC,210505.000,A,5313.2717,N,01227.0508,E,86.20,6.22,280114,,,A*55
$GPGGA,210511.000,5313.4098,N,01227.0731,E,1,8,0.94,67.8,M,44.9,M,,*6D
$GPRMC,210510.000,A,5313.3878,N,01227.0703,E,81.12,4.66,280114,,,A*5B
$GPGGA,210516.000,5313.5222,N,01227.0823,E,1,8,0.94,67.1,M,44.9,M,,*6D
$GPRMC,210515.000,A,5313.4993,N,01227.0810,E,82.49,2.21,280114,,,A*58
$GPGGA,210521.000,5313.6384,N,01227.0848,E,1,7,1.01,66.8,M,44.9,M,,*60
$GPRMC,210520.000,A,5313.6150,N,01227.0849,E,83.93,0.28,280114,,,A*5A
$GPGGA,210526.000,5313.7567,N,01227.0790,E,1,7,1.01,66.6,M,44.9,M,,*69
$GPRMC,210525.000,A,5313.7330,N,01227.0810,E,86.16,357.76,280114,,,A*54
$GPGGA,210531.000,5313.8755,N,01227.0654,E,1,8,0.94,66.5,M,44.9,M,,*6B
$GPRMC,210530.000,A,5313.8519,N,01227.0688,E,85.79,355.63,280114,,,A*51
$GPGGA,210536.000,5313.9921,N,01227.0432,E,1,8,0.94,66.3,M,44.9,M,,*64
$GPRMC,210535.000,A,5313.9689,N,01227.0482,E,84.05,353.33,280114,,,A*5E
$GPGGA,210542.000,5314.1159,N,01227.0127,E,1,8,0.94,65.6,M,44.9,M,,*68
$GPRMC,210541.000,A,5314.0979,N,01227.0175,E,67.59,350.87,280114,,,A*56
$GPGGA,210549.000,5314.2308,N,01226.9763,E,1,8,0.94,65.1,M,44.9,M,,*6F
$GPRMC,210548.000,A,5314.2149,N,01226.9813,E,58.38,349.45,280114,,,A*5A
$GPGGA,210556.000,5314.3372,N,01226.9437,E,1,8,0.94,65.1,M,44.8,M,,*6E
$GPRMC,210555.000,A,5314.3226,N,01226.9477,E,54.41,350.10,280114,,,A*59
$GPGGA,210604.000,5314.4482,N,01226.9135,E,1,8,0.94,65.6,M,44.8,M,,*65
$GPRMC,210603.000,A,5314.4350,N,01226.9168,E,48.97,351.01,280114,,,A*52
$GPGGA,210614.000,5314.5638,N,01226.8865,E,1,8,0.94,65.8,M,44.8,M,,*65
$GPRMC,210613.000,A,5314.5544,N,01226.8883,E,35.56,353.13,280114,,,A*5A
$GPGGA,210626.000,5314.6708,N,01226.8548,E,1,8,0.94,66.3,M,44.8,M,,*6F
$GPRMC,210625.000,A,5314.6613,N,01226.8564,E,33.51,353.57,280114,,,A*58
$GPGGA,210636.000,5314.7837,N,01226.8424,E,1,8,0.94,66.6,M,44.8,M,,*62
$GPRMC,210635.000,A,5314.7721,N,01226.8435,E,41.32,356.68,280114,,,A*54
$GPGGA,210646.000,5314.9003,N,01226.8352,E,1,8,0.94,66.1,M,44.8,M,,*65
$GPRMC,210645.000,A,5314.8891,N,01226.8353,E,41.40,358.92,280114,,,A*51
$GPGGA,210656.000,5315.0126,N,01226.8353,E,1,8,0.94,65.6,M,44.8,M,,*6F
$GPRMC,210655.000,A,5315.0018,N,01226.8351,E,39.57,0.96,280114,,,A*51
$GPGGA,210707.000,5315.1258,N,01226.8463,E,1,8,0.94,64.9,M,44.8,M,,*6B
$GPRMC,210706.000,A,5315.1151,N,01226.8434,E,37.67,6.61,280114,,,A*5C
$GPGGA,210716.000,5315.2373,N,01226.8651,E,1,8,0.94,64.8,M,44.8,M,,*62
$GPRMC,210715.000,A,5315.2239,N,01226.8633,E,47.86,4.42,280114,,,A*5E
$GPGGA,210724.000,5315.3530,N,01226.8885,E,1,8,0.94,65.0,M,44.8,M,,*6D
$GPRMC,210723.000,A,5315.3374,N,01226.8848,E,55.57,7.77,280114,,,A*5A
$GPGGA,210731.000,5315.4692,N,01226.9167,E,1,8,0.94,65.9,M,44.8,M,,*68
$GPRMC,210730.000,A,5315.4522,N,01226.9120,E,61.25,8.88,280114,,,A*51
$GPGGA,210738.000,5315.5932,N,01226.9539,E,1,8,0.94,67.5,M,44.8,M,,*64
$GPRMC,210737.000,A,5315.5750,N,01226.9480,E,66.33,10.94,280114,,,A*6B
$GPGGA,210744.000,5315.7041,N,01226.9935,E,1,8,0.94,68.2,M,44.8,M,,*68
$GPRMC,210743.000,A,5315.6856,N,01226.9864,E,68.70,12.94,280114,,,A*6F
$GPGGA,210750.000,5315.8161,N,01227.0412,E,1,8,0.94,68.4,M,44.8,M,,*67
$GPRMC,210749.000,A,5315.7973,N,01227.0324,E,69.92,14.95,280114,,,A*6F
$GPGGA,210756.000,5315.9273,N,01227.0971,E,1,7,1.01,69.0,M,44.8,M,,*6F
$GPRMC,210755.000,A,5315.9090,N,01227.0873,E,68.84,17.17,280114,,,A*6E
$GPGGA,210802.000,5316.0369,N,01227.1578,E,1,8,0.94,69.5,M,44.8,M,,*62
$GPRMC,210801.000,A,5316.0188,N,01227.1473,E,68.75,19.28,280114,,,A*63
$GPGGA,210808.000,5316.1447,N,01227.2235,E,1,8,0.94,70.4,M,44.8,M,,*66
$GPRMC,210807.000,A,5316.1268,N,01227.2121,E,68.95,20.89,280114,,,A*67
$GPGGA,210814.000,5316.2530,N,01227.2948,E,1,8,0.94,70.7,M,44.8,M,,*6B
$GPRMC,210813.000,A,5316.2349,N,01227.2830,E,69.89,21.78,280114,,,A*69
$GPGGA,210820.000,5316.3622,N,01227.3700,E,1,8,0.94,70.8,M,44.8,M,,*61
$GPRMC,210819.000,A,5316.3441,N,01227.3574,E,70.44,22.59,280114,,,A*68
$GPGGA,210826.000,5316.4733,N,01227.4464,E,1,7,1.00,71.0,M,44.8,M,,*6D
$GPRMC,210825.000,A,5316.4546,N,01227.4335,E,72.07,22.47,280114,,,A*68
$GPGGA,210832.000,5316.5835,N,01227.5231,E,1,7,1.00,71.4,M,44.8,M,,*63
$GPRMC,210831.000,A,5316.5657,N,01227.5106,E,70.14,22.48,280114,,,A*63
$GPGGA,210839.000,5316.6856,N,01227.5931,E,1,7,1.00,71.9,M,44.8,M,,*68
$GPRMC,210838.000,A,5316.6731,N,01227.5846,E,49.29,22.55,280114,,,A*6D
$GPGGA,210848.000,5316.7939,N,01227.6682,E,1,7,1.02,72.0,M,44.8,M,,*6B
$GPRMC,210847.000,A,5316.7821,N,01227.6598,E,47.12,22.60,280114,,,A*67
$GPGGA,210857.000,5316.8949,N,01227.7379,E,1,7,1.00,71.8,M,44.8,M,,*64
$GPRMC,210856.000,A,5316.8843,N,01227.7303,E,42.28,22.62,280114,,,A*67
$GPGGA,210907.000,5316.9956,N,01227.8078,E,1,7,1.00,71.0,M,44.8,M,,*6A
$GPRMC,210906.000,A,5316.9859,N,01227.8010,E,38.15,22.49,280114,,,A*6D
$GPGGA,210919.000,5317.1033,N,01227.8830,E,1,7,1.00,70.1,M,44.8,M,,*62
$GPRMC,210918.000,A,5317.0948,N,01227.8771,E,33.34,22.93,280114,,,A*64
$GPGGA,210931.000,5317.2040,N,01227.9558,E,1,7,1.00,69.0,M,44.8,M,,*64
$GPRMC,210930.000,A,5317.1953,N,01227.9497,E,34.08,23.00,280114,,,A*6C
$GPGGA,210944.000,5317.3098,N,01228.0270,E,1,7,1.02,68.4,M,44.8,M,,*6E
$GPRMC,210943.000,A,5317.3018,N,01228.0216,E,30.82,21.86,280114,,,A*6F
$GPGGA,210957.000,5317.4174,N,01228.0999,E,1,7,1.00,67.7,M,44.8,M,,*6A
$GPRMC,210956.000,A,5317.4084,N,01228.0942,E,34.07,20.11,280114,,,A*65
$GPGGA,211009.000,5317.5238,N,01228.1680,E,1,7,1.00,67.2,M,44.8,M,,*60
$GPRMC,211008.000,A,5317.5145,N,01228.1621,E,35.18,20.73,280114,,,A*6B
$GPGGA,211019.000,5317.6332,N,01228.2327,E,1,6,1.33,66.7,M,44.8,M,,*67
$GPRMC,211018.000,A,5317.6203,N,01228.2254,E,47.83,18.65,280114,,,A*66
$GPGGA,211026.000,5317.7360,N,01228.2922,E,1,7,1.02,66.2,M,44.8,M,,*64
$GPRMC,211025.000,A,5317.7203,N,01228.2834,E,58.34,18.41,280114,,,A*61
$GPGGA,211032.000,5317.8413,N,01228.3492,E,1,7,1.02,65.4,M,44.8,M,,*6F
$GPRMC,211031.000,A,5317.8225,N,01228.3393,E,69.46,17.88,280114,,,A*65
$GPGGA,211038.000,5317.9626,N,01228.4095,E,1,7,1.02,64.6,M,44.8,M,,*67
$GPRMC,211037.000,A,5317.9416,N,01228.3994,E,77.73,15.98,280114,,,A*63
$GPGGA,211043.000,5318.0683,N,01228.4577,E,1,7,1.02,64.1,M,44.7,M,,*63
$GPRMC,211042.000,A,5318.0474,N,01228.4485,E,78.13,14.95,280114,,,A*6C
$GPGGA,211049.000,5318.1831,N,01228.5045,E,1,7,1.02,64.5,M,44.7,M,,*6E
$GPRMC,211048.000,A,5318.1656,N,01228.4977,E,66.15,13.33,280114,,,A*67
$GPGGA,211056.000,5318.3064,N,01228.5464,E,1,7,1.02,66.7,M,44.7,M,,*6D
$GPRMC,211055.000,A,5318.2881,N,01228.5403,E,67.25,11.57,280114,,,A*61
$GPGGA,211102.000,5318.4133,N,01228.5804,E,1,7,1.02,67.9,M,44.7,M,,*6C
$GPRMC,211101.000,A,5318.3961,N,01228.5752,E,64.00,10.52,280114,,,A*68
$GPGGA,211109.000,5318.5233,N,01228.6131,E,1,7,1.00,67.8,M,44.7,M,,*6A
$GPRMC,211108.000,A,5318.5081,N,01228.6090,E,55.15,9.22,280114,,,A*53
$GPGGA,211116.000,5318.6300,N,01228.6390,E,1,7,1.02,66.6,M,44.7,M,,*62
$GPRMC,211115.000,A,5318.6151,N,01228.6356,E,54.33,8.08,280114,,,A*55
$GPGGA,211124.000,5318.7448,N,01228.6621,E,1,7,1.02,64.9,M,44.7,M,,*6B
$GPRMC,211123.000,A,5318.7307,N,01228.6595,E,52.08,6.54,280114,,,A*50
$GPGGA,211132.000,5318.8540,N,01228.6803,E,1,7,1.02,64.1,M,44.7,M,,*6C
$GPRMC,211131.000,A,5318.8409,N,01228.6786,E,48.11,5.16,280114,,,A*53
$GPGGA,211141.000,5318.9719,N,01228.6955,E,1,7,1.02,64.3,M,44.7,M,,*67
$GPRMC,211140.000,A,5318.9591,N,01228.6940,E,47.37,4.01,280114,,,A*5C
$GPGGA,211150.000,5319.0868,N,01228.7050,E,1,6,1.39,65.5,M,44.7,M,,*65
$GPRMC,211149.000,A,5319.0741,N,01228.7042,E,46.28,2.80,280114,,,A*58
$GPGGA,211159.000,5319.2008,N,01228.7094,E,1,7,1.02,66.3,M,44.7,M,,*64
$GPRMC,211158.000,A,5319.1881,N,01228.7089,E,45.81,1.68,280114,,,A*58
$GPGGA,211208.000,5319.3194,N,01228.7103,E,1,7,1.02,67.2,M,44.7,M,,*69
$GPRMC,211207.000,A,5319.3050,N,01228.7105,E,50.56,0.25,280114,,,A*54
$GPGGA,211215.000,5319.4326,N,01228.7064,E,1,7,1.02,68.2,M,44.7,M,,*66
$GPRMC,211214.000,A,5319.4152,N,01228.7074,E,61.91,358.66,280114,,,A*55
$GPGGA,211221.000,5319.5441,N,01228.6990,E,1,7,1.02,69.2,M,44.7,M,,*64
$GPRMC,211220.000,A,5319.5244,N,01228.7004,E,69.85,357.65,280114,,,A*51
$GPGGA,211227.000,5319.6659,N,01228.6873,E,1,7,1.02,70.2,M,44.7,M,,*6E
$GPRMC,211226.000,A,5319.6454,N,01228.6898,E,74.08,356.16,280114,,,A*53
$GPGGA,211233.000,5319.7895,N,01228.6683,E,1,7,1.00,71.6,M,44.7,M,,*62
$GPRMC,211232.000,A,5319.7688,N,01228.6716,E,73.89,354.38,280114,,,A*5D
$GPGGA,211239.000,5319.9147,N,01228.6442,E,1,7,1.00,72.7,M,44.7,M,,*6D
$GPRMC,211238.000,A,5319.8940,N,01228.6485,E,74.74,353.10,280114,,,A*52
$GPGGA,211245.000,5320.0377,N,01228.6126,E,1,7,1.00,72.9,M,44.7,M,,*6D
$GPRMC,211244.000,A,5320.0175,N,01228.6181,E,73.55,350.88,280114,,,A*52
$GPGGA,211251.000,5320.1592,N,01228.5795,E,1,7,1.02,72.1,M,44.7,M,,*63
$GPRMC,211250.000,A,5320.1389,N,01228.5850,E,73.84,350.74,280114,,,A*5E
$GPGGA,211257.000,5320.2820,N,01228.5435,E,1,7,1.02,71.2,M,44.7,M,,*6B
$GPRMC,211256.000,A,5320.2614,N,01228.5496,E,75.47,349.84,280114,,,A*52
$GPGGA,211303.000,5320.4079,N,01228.5049,E,1,7,1.00,70.4,M,44.7,M,,*63
$GPRMC,211302.000,A,5320.3868,N,01228.5116,E,77.54,349.38,280114,,,A*5C
$GPGGA,211309.000,5320.5338,N,01228.4664,E,1,7,1.02,69.5,M,44.7,M,,*6D
$GPRMC,211308.000,A,5320.5127,N,01228.4725,E,77.08,349.78,280114,,,A*58
$GPGGA,211314.000,5320.6414,N,01228.4393,E,1,7,1.00,69.0,M,44.7,M,,*61
$GPRMC,211313.000,A,5320.6195,N,01228.4442,E,78.77,352.08,280114,,,A*50
$GPGGA,211319.000,5320.7517,N,01228.4159,E,1,7,1.09,68.8,M,44.7,M,,*6B
$GPRMC,211318.000,A,5320.7299,N,01228.4201,E,79.48,352.98,280114,,,A*50
$GPGGA,211325.000,5320.8793,N,01228.3954,E,1,8,0.98,69.6,M,44.7,M,,*6E
$GPRMC,211324.000,A,5320.8584,N,01228.3980,E,76.49,355.58,280114,,,A*5B
$GPGGA,211331.000,5321.0016,N,01228.3832,E,1,8,0.98,72.5,M,44.7,M,,*60
$GPRMC,211330.000,A,5320.9814,N,01228.3845,E,73.42,357.54,280114,,,A*53
$GPGGA,211337.000,5321.1239,N,01228.3778,E,1,8,0.98,75.6,M,44.7,M,,*6D
$GPRMC,211336.000,A,5321.1037,N,01228.3781,E,72.93,359.15,280114,,,A*54
$GPGGA,211343.000,5321.2403,N,01228.3739,E,1,8,0.98,76.3,M,44.7,M,,*61
$GPRMC,211342.000,A,5321.2215,N,01228.3748,E,68.15,358.50,280114,,,A*56
$GPGGA,211349.000,5321.3546,N,01228.3633,E,1,8,0.98,75.6,M,44.7,M,,*67
$GPRMC,211348.000,A,5321.3352,N,01228.3659,E,70.00,355.32,280114,,,A*5A
$GPGGA,211355.000,5321.4774,N,01228.3427,E,1,8,0.98,73.2,M,44.7,M,,*6B
$GPRMC,211354.000,A,5321.4566,N,01228.3470,E,75.53,353.34,280114,,,A*5B
$GPGGA,211401.000,5321.6021,N,01228.3088,E,1,8,0.98,71.1,M,44.7,M,,*68
$GPRMC,211400.000,A,5321.5812,N,01228.3152,E,75.87,349.83,280114,,,A*59
$GPGGA,211406.000,5321.7080,N,01228.2716,E,1,8,0.98,71.1,M,44.7,M,,*64
$GPRMC,211405.000,A,5321.6867,N,01228.2798,E,78.72,347.47,280114,,,A*5D
$GPGGA,211411.000,5321.8126,N,01228.2251,E,1,7,1.23,71.4,M,44.7,M,,*6D
$GPRMC,211410.000,A,5321.7919,N,01228.2349,E,77.79,344.78,280114,,,A*53
$GPGGA,211416.000,5321.9170,N,01228.1687,E,1,7,0.99,70.3,M,44.7,M,,*62
$GPRMC,211415.000,A,5321.8959,N,01228.1810,E,79.99,341.49,280114,,,A*5E
$GPGGA,211421.000,5322.0220,N,01228.1018,E,1,8,0.98,70.3,M,44.7,M,,*64
$GPRMC,211420.000,A,5322.0012,N,01228.1158,E,80.93,338.73,280114,,,A*5B
$GPGGA,211426.000,5322.1225,N,01228.0271,E,1,8,0.98,70.1,M,44.7,M,,*69
$GPRMC,211425.000,A,5322.1033,N,01228.0420,E,77.93,335.21,280114,,,A*55
$GPGGA,211432.000,5322.2345,N,01227.9313,E,1,8,0.98,70.9,M,44.7,M,,*63
$GPRMC,211431.000,A,5322.2160,N,01227.9481,E,76.00,331.74,280114,,,A*56
$GPGGA,211438.000,5322.3459,N,01227.8233,E,1,8,0.98,71.0,M,44.7,M,,*68
$GPRMC,211437.000,A,5322.3273,N,01227.8423,E,78.14,329.35,280114,,,A*5E
$GPGGA,211443.000,5322.4387,N,01227.7273,E,1,8,0.98,71.4,M,44.7,M,,*68
$GPRMC,211442.000,A,5322.4202,N,01227.7465,E,78.40,328.56,280114,,,A*55
$GPGGA,211448.000,5322.5303,N,01227.6318,E,1,8,0.98,72.1,M,44.7,M,,*65
$GPRMC,211447.000,A,5322.5120,N,01227.6507,E,77.42,328.36,280114,,,A*5D
$GPGGA,211454.000,5322.6397,N,01227.5202,E,1,8,0.98,74.4,M,44.7,M,,*6C
$GPRMC,211453.000,A,5322.6215,N,01227.5386,E,76.77,328.72,280114,,,A*55
$GPGGA,211500.000,5322.7494,N,01227.4132,E,1,8,0.98,79.0,M,44.7,M,,*61
$GPRMC,211459.000,A,5322.7313,N,01227.4302,E,74.95,330.43,280114,,,A*51
$GPGGA,211506.000,5322.8565,N,01227.3169,E,1,8,0.98,83.4,M,44.7,M,,*6F
$GPRMC,211505.000,A,5322.8386,N,01227.3324,E,72.81,332.45,280114,,,A*5E
$GPGGA,211512.000,5322.9646,N,01227.2298,E,1,8,0.93,86.7,M,44.7,M,,*68
$GPRMC,211511.000,A,5322.9465,N,01227.2438,E,71.93,334.93,280114,,,A*56
$GPGGA,211518.000,5323.0762,N,01227.1495,E,1,8,0.98,88.6,M,44.7,M,,*61
$GPRMC,211517.000,A,5323.0575,N,01227.1624,E,72.93,337.52,280114,,,A*59
$GPGGA,211524.000,5323.1904,N,01227.0772,E,1,8,0.98,90.4,M,44.7,M,,*61
$GPRMC,211523.000,A,5323.1710,N,01227.0886,E,73.96,340.21,280114,,,A*59
$GPGGA,211530.000,5323.3084,N,01227.0151,E,1,7,0.99,91.8,M,44.7,M,,*63
$GPRMC,211529.000,A,5323.2887,N,01227.0249,E,74.19,343.01,280114,,,A*59
$GPGGA,211536.000,5323.4302,N,01226.9597,E,1,7,0.99,92.8,M,44.7,M,,*6A
$GPRMC,211535.000,A,5323.4093,N,01226.9684,E,76.93,345.54,280114,,,A*54
$GPGGA,211541.000,5323.5363,N,01226.9202,E,1,8,0.98,93.8,M,44.7,M,,*68
$GPRMC,211540.000,A,5323.5149,N,01226.9274,E,78.17,348.08,280114,,,A*5C
$GPGGA,211546.000,5323.6430,N,01226.8860,E,1,8,0.98,94.6,M,44.7,M,,*6B
$GPRMC,211545.000,A,5323.6215,N,01226.8927,E,78.40,348.79,280114,,,A*58
$GPGGA,211551.000,5323.7506,N,01226.8532,E,1,8,0.98,95.5,M,44.7,M,,*60
$GPRMC,211550.000,A,5323.7290,N,01226.8601,E,78.81,348.99,280114,,,A*58
$GPGGA,211556.000,5323.8612,N,01226.8201,E,1,8,0.98,96.2,M,44.7,M,,*6D
$GPRMC,211555.000,A,5323.8388,N,01226.8264,E,81.85,350.33,280114,,,A*56
$GPGGA,211601.000,5323.9740,N,01226.7879,E,1,8,0.98,96.7,M,44.7,M,,*64
$GPRMC,211600.000,A,5323.9515,N,01226.7948,E,82.26,349.94,280114,,,A*53
$GPGGA,211606.000,5324.0872,N,01226.7509,E,1,8,0.98,96.6,M,44.7,M,,*68
$GPRMC,211605.000,A,5324.0648,N,01226.7590,E,82.82,348.32,280114,,,A*59
$GPGGA,211611.000,5324.1955,N,01226.7064,E,1,8,0.98,95.3,M,44.7,M,,*63
$GPRMC,211610.000,A,5324.1744,N,01226.7159,E,79.36,345.88,280114,,,A*57
$GPGGA,211616.000,5324.3017,N,01226.6533,E,1,8,0.98,92.6,M,44.7,M,,*6D
$GPRMC,211615.000,A,5324.2802,N,01226.6647,E,80.77,342.84,280114,,,A*5D
$GPGGA,211621.000,5324.4101,N,01226.5884,E,1,7,1.22,90.0,M,44.7,M,,*61
$GPRMC,211620.000,A,5324.3882,N,01226.6023,E,83.78,339.75,280114,,,A*58
$GPGGA,211626.000,5324.5191,N,01226.5129,E,1,8,0.98,86.3,M,44.7,M,,*6B
$GPRMC,211625.000,A,5324.4974,N,01226.5287,E,85.08,336.97,280114,,,A*5F
$GPGGA,211631.000,5324.6263,N,01226.4284,E,1,7,1.09,83.6,M,44.7,M,,*63
$GPRMC,211630.000,A,5324.6051,N,01226.4464,E,85.01,333.96,280114,,,A*50
$GPGGA,211636.000,5324.7305,N,01226.3322,E,1,8,0.98,81.8,M,44.7,M,,*64
$GPRMC,211635.000,A,5324.7099,N,01226.3523,E,85.38,330.62,280114,,,A*57
$GPGGA,211641.000,5324.8289,N,01226.2271,E,1,7,1.09,80.0,M,44.6,M,,*66
$GPRMC,211640.000,A,5324.8097,N,01226.2490,E,83.65,326.36,280114,,,A*54
$GPGGA,211646.000,5324.9219,N,01226.1168,E,1,8,0.98,79.8,M,44.7,M,,*68
$GPRMC,211645.000,A,5324.9036,N,01226.1387,E,81.67,324.58,280114,,,A*53
$GPGGA,211651.000,5325.0122,N,01226.0059,E,1,8,0.98,80.1,M,44.7,M,,*60
$GPRMC,211650.000,A,5324.9941,N,01226.0283,E,80.93,323.49,280114,,,A*57
$GPGGA,211656.000,5325.1016,N,01225.8944,E,1,8,0.98,80.6,M,44.7,M,,*69
$GPRMC,211655.000,A,5325.0840,N,01225.9163,E,79.69,323.45,280114,,,A*52
$GPGGA,211701.000,5325.1912,N,01225.7878,E,1,8,0.98,82.3,M,44.7,M,,*61
$GPRMC,211700.000,A,5325.1731,N,01225.8088,E,79.29,324.95,280114,,,A*50
$GPGGA,211706.000,5325.2836,N,01225.6837,E,1,8,0.93,83.9,M,44.7,M,,*68
$GPRMC,211705.000,A,5325.2649,N,01225.7041,E,80.27,326.84,280114,,,A*58
$GPGGA,211711.000,5325.3800,N,01225.5825,E,1,8,0.98,85.4,M,44.7,M,,*6A
$GPRMC,211710.000,A,5325.3603,N,01225.6026,E,82.38,327.87,280114,,,A*5D
$GPGGA,211716.000,5325.4815,N,01225.4843,E,1,8,0.98,85.9,M,44.7,M,,*62
$GPRMC,211715.000,A,5325.4609,N,01225.5037,E,85.13,330.32,280114,,,A*50
$GPGGA,211721.000,5325.5866,N,01225.3903,E,1,8,0.98,85.0,M,44.6,M,,*69
$GPRMC,211720.000,A,5325.5653,N,01225.4085,E,85.83,332.36,280114,,,A*5F
$GPGGA,211726.000,5325.6928,N,01225.3039,E,1,8,0.93,84.1,M,44.6,M,,*6D
$GPRMC,211725.000,A,5325.6718,N,01225.3203,E,83.95,334.35,280114,,,A*58
$GPGGA,211731.000,5325.7923,N,01225.2210,E,1,8,0.98,82.9,M,44.6,M,,*6C
$GPRMC,211730.000,A,5325.7729,N,01225.2378,E,78.87,332.98,280114,,,A*55
$GPGGA,211736.000,5325.8878,N,01225.1339,E,1,8,0.93,81.9,M,44.6,M,,*6A
$GPRMC,211735.000,A,5325.8688,N,01225.1519,E,78.64,330.55,280114,,,A*59
$GPGGA,211741.000,5325.9832,N,01225.0367,E,1,8,0.98,81.2,M,44.6,M,,*6F
$GPRMC,211740.000,A,5325.9642,N,01225.0571,E,81.04,327.97,280114,,,A*5B
$GPGGA,211746.000,5326.0771,N,01224.9281,E,1,8,0.98,80.9,M,44.6,M,,*61
$GPRMC,211745.000,A,5326.0585,N,01224.9505,E,82.82,324.84,280114,,,A*5B
$GPGGA,211751.000,5326.1676,N,01224.8129,E,1,8,0.98,80.0,M,44.6,M,,*69
$GPRMC,211750.000,A,5326.1496,N,01224.8363,E,82.14,321.85,280114,,,A*51
$GPGGA,211756.000,5326.2566,N,01224.6875,E,1,8,0.98,78.6,M,44.6,M,,*60
$GPRMC,211755.000,A,5326.2391,N,01224.7130,E,83.87,319.06,280114,,,A*57
$GPGGA,211801.000,5326.3431,N,01224.5547,E,1,8,0.98,77.0,M,44.6,M,,*69
$GPRMC,211800.000,A,5326.3259,N,01224.5820,E,84.85,317.00,280114,,,A*5B
$GPGGA,211806.000,5326.4289,N,01224.4171,E,1,8,0.98,74.6,M,44.6,M,,*69
$GPRMC,211805.000,A,5326.4119,N,01224.4445,E,84.93,316.18,280114,,,A*5F
$GPGGA,211811.000,5326.5146,N,01224.2811,E,1,8,0.98,72.5,M,44.7,M,,*63
$GPRMC,211810.000,A,5326.4974,N,01224.3084,E,85.22,316.64,280114,,,A*56
$GPGGA,211816.000,5326.6000,N,01224.1456,E,1,8,0.98,71.4,M,44.7,M,,*6A
$GPRMC,211815.000,A,5326.5827,N,01224.1727,E,84.81,316.69,280114,,,A*5C
$GPGGA,211821.000,5326.6854,N,01224.0101,E,1,8,0.98,71.2,M,44.7,M,,*67
$GPRMC,211820.000,A,5326.6684,N,01224.0371,E,84.89,316.67,280114,,,A*5E
$GPGGA,211826.000,5326.7699,N,01223.8757,E,1,8,0.93,71.3,M,44.7,M,,*6E
$GPRMC,211825.000,A,5326.7532,N,01223.9022,E,83.07,316.43,280114,,,A*58
$GPGGA,211831.000,5326.8551,N,01223.7451,E,1,7,1.10,72.0,M,44.7,M,,*6F
$GPRMC,211830.000,A,5326.8378,N,01223.7709,E,84.16,317.88,280114,,,A*5A
$GPGGA,211836.000,5326.9433,N,01223.6214,E,1,8,0.93,72.5,M,44.7,M,,*6A
$GPRMC,211835.000,A,5326.9255,N,01223.6451,E,82.34,320.58,280114,,,A*50
$GPGGA,211841.000,5327.0332,N,01223.5070,E,1,8,0.98,72.6,M,44.7,M,,*6F
$GPRMC,211840.000,A,5327.0150,N,01223.5291,E,81.45,323.82,280114,,,A*54
$GPGGA,211846.000,5327.1243,N,01223.4019,E,1,8,0.98,71.7,M,44.7,M,,*62
$GPRMC,211845.000,A,5327.1063,N,01223.4222,E,79.25,326.44,280114,,,A*56
$GPGGA,211852.000,5327.2201,N,01223.3023,E,1,7,1.03,69.0,M,44.7,M,,*6E
$GPRMC,211851.000,A,5327.2054,N,01223.3167,E,62.02,329.32,280114,,,A*50
$GPGGA,211859.000,5327.3168,N,01223.2136,E,1,8,0.98,66.7,M,44.7,M,,*68
$GPRMC,211858.000,A,5327.3035,N,01223.2250,E,54.82,332.44,280114,,,A*5F
$GPGGA,211907.000,5327.4243,N,01223.1296,E,1,7,1.00,64.7,M,44.7,M,,*68
$GPRMC,211906.000,A,5327.4111,N,01223.1395,E,52.47,335.96,280114,,,A*59
$GPGGA,211915.000,5327.5352,N,01223.0546,E,1,8,0.98,61.3,M,44.7,M,,*6E
$GPRMC,211914.000,A,5327.5203,N,01223.0639,E,56.81,339.08,280114,,,A*5C
$GPGGA,211922.000,5327.6404,N,01222.9936,E,1,8,0.98,59.1,M,44.7,M,,*67
$GPRMC,211921.000,A,5327.6257,N,01223.0016,E,56.69,341.39,280114,,,A*58
$GPGGA,211930.000,5327.7573,N,01222.9385,E,1,8,0.98,57.0,M,44.6,M,,*68
$GPRMC,211929.000,A,5327.7429,N,01222.9446,E,53.93,345.29,280114,,,A*52
$GPGGA,211938.000,5327.8773,N,01222.8950,E,1,8,0.93,56.7,M,44.6,M,,*63
$GPRMC,211937.000,A,5327.8607,N,01222.9004,E,59.58,348.72,280114,,,A*50
$GPGGA,211944.000,5327.9873,N,01222.8654,E,1,7,1.03,58.0,M,44.6,M,,*63
$GPRMC,211943.000,A,5327.9677,N,01222.8699,E,69.69,351.51,280114,,,A*5E
$GPGGA,211950.000,5328.1126,N,01222.8413,E,1,8,0.98,60.9,M,44.6,M,,*67
$GPRMC,211949.000,A,5328.0908,N,01222.8445,E,77.95,354.67,280114,,,A*5A
$GPGGA,211955.000,5328.2237,N,01222.8311,E,1,8,0.93,63.0,M,44.6,M,,*66
$GPRMC,211954.000,A,5328.2013,N,01222.8323,E,79.80,357.53,280114,,,A*5E
$GPGGA,212000.000,5328.3368,N,01222.8306,E,1,8,0.98,65.6,M,44.6,M,,*6B
$GPRMC,211959.000,A,5328.3142,N,01222.8303,E,81.12,0.42,280114,,,A*58
$GPGGA,212005.000,5328.4506,N,01222.8377,E,1,8,0.93,67.9,M,44.6,M,,*67
$GPRMC,212004.000,A,5328.4279,N,01222.8354,E,82.21,2.97,280114,,,A*5D
$GPGGA,212010.000,5328.5612,N,01222.8513,E,1,7,1.00,68.4,M,44.6,M,,*66
$GPRMC,212009.000,A,5328.5397,N,01222.8487,E,77.96,4.23,280114,,,A*56
$GPGGA,212015.000,5328.6690,N,01222.8670,E,1,7,1.00,68.5,M,44.6,M,,*6D
$GPRMC,212014.000,A,5328.6473,N,01222.8640,E,78.36,4.72,280114,,,A*5C
$GPGGA,212020.000,5328.7773,N,01222.8829,E,1,7,1.03,68.9,M,44.6,M,,*6B
$GPRMC,212019.000,A,5328.7556,N,01222.8797,E,78.39,4.63,280114,,,A*52
$GPGGA,212025.000,5328.8891,N,01222.8978,E,1,7,1.00,69.8,M,44.6,M,,*64
$GPRMC,212024.000,A,5328.8665,N,01222.8947,E,81.84,4.55,280114,,,A*56
$GPGGA,212030.000,5329.0015,N,01222.9131,E,1,7,1.00,71.0,M,44.6,M,,*68
$GPRMC,212029.000,A,5328.9792,N,01222.9100,E,80.60,4.78,280114,,,A*5D
$GPGGA,212035.000,5329.1119,N,01222.9280,E,1,7,1.00,71.7,M,44.6,M,,*6F
$GPRMC,212034.000,A,5329.0903,N,01222.9248,E,78.66,4.55,280114,,,A*5E
$GPGGA,212040.000,5329.2193,N,01222.9421,E,1,7,1.00,72.6,M,44.6,M,,*63
$GPRMC,212039.000,A,5329.1976,N,01222.9395,E,77.96,4.19,280114,,,A*59
$GPGGA,212045.000,5329.3300,N,01222.9549,E,1,7,1.03,73.8,M,44.6,M,,*6C
$GPRMC,212044.000,A,5329.3077,N,01222.9520,E,79.99,3.79,280114,,,A*51
$GPGGA,212050.000,5329.4422,N,01222.9654,E,1,8,0.93,75.3,M,44.6,M,,*6D
$GPRMC,212049.000,A,5329.4199,N,01222.9639,E,80.56,2.83,280114,,,A*50
$GPGGA,212055.000,5329.5548,N,01222.9700,E,1,8,0.98,76.6,M,44.6,M,,*69
$GPRMC,212054.000,A,5329.5321,N,01222.9700,E,81.80,0.58,280114,,,A*59
$GPGGA,212100.000,5329.6668,N,01222.9627,E,1,8,0.93,76.5,M,44.6,M,,*66
$GPRMC,212059.000,A,5329.6444,N,01222.9654,E,80.44,356.95,280114,,,A*5B
$GPGGA,212105.000,5329.7781,N,01222.9414,E,1,8,0.98,74.1,M,44.6,M,,*6B
$GPRMC,212104.000,A,5329.7559,N,01222.9470,E,80.85,352.10,280114,,,A*5E
$GPGGA,212110.000,5329.8893,N,01222.9016,E,1,7,1.20,69.9,M,44.6,M,,*63
$GPRMC,212109.000,A,5329.8673,N,01222.9114,E,82.77,346.59,280114,,,A*57
$GPGGA,212115.000,5329.9958,N,01222.8429,E,1,9,0.82,64.8,M,44.6,M,,*63
$GPRMC,212114.000,A,5329.9749,N,01222.8560,E,80.60,340.61,280114,,,A*5D
$GPGGA,212120.000,5330.0996,N,01222.7662,E,1,9,0.82,60.8,M,44.6,M,,*60
$GPRMC,212119.000,A,5330.0792,N,01222.7827,E,81.59,334.95,280114,,,A*55
$GPGGA,212125.000,5330.1981,N,01222.6713,E,1,9,0.82,58.0,M,44.6,M,,*67
$GPRMC,212124.000,A,5330.1786,N,01222.6919,E,81.99,328.52,280114,,,A*58
$GPGGA,212130.000,5330.2940,N,01222.5564,E,1,8,0.93,57.9,M,44.6,M,,*6B
$GPRMC,212129.000,A,5330.2753,N,01222.5806,E,85.42,323.36,280114,,,A*59
$GPGGA,212135.000,5330.3845,N,01222.4274,E,1,8,0.93,56.4,M,44.6,M,,*60
$GPRMC,212134.000,A,5330.3666,N,01222.4543,E,85.88,319.10,280114,,,A*55
$GPGGA,212140.000,5330.4728,N,01222.2864,E,1,9,0.82,55.0,M,44.6,M,,*6A
$GPRMC,212139.000,A,5330.4553,N,01222.3154,E,88.45,316.14,280114,,,A*58
$GPGGA,212145.000,5330.5571,N,01222.1382,E,1,9,0.82,54.6,M,44.6,M,,*67
$GPRMC,212144.000,A,5330.5405,N,01222.1683,E,87.94,313.37,280114,,,A*59
$GPGGA,212150.000,5330.6392,N,01221.9877,E,1,9,0.82,54.6,M,44.6,M,,*61
$GPRMC,212149.000,A,5330.6229,N,01222.0180,E,87.80,312.43,280114,,,A*5D
$GPGGA,212155.000,5330.7220,N,01221.8394,E,1,9,0.82,54.4,M,44.6,M,,*68
$GPRMC,212154.000,A,5330.7052,N,01221.8682,E,86.72,314.40,280114,,,A*59
$GPGGA,212200.000,5330.8078,N,01221.7006,E,1,9,0.82,54.0,M,44.6,M,,*68
$GPRMC,212159.000,A,5330.7904,N,01221.7271,E,85.54,317.07,280114,,,A*5E
$GPGGA,212205.000,5330.9001,N,01221.5770,E,1,8,0.92,53.7,M,44.6,M,,*66
$GPRMC,212204.000,A,5330.8811,N,01221.6004,E,84.85,323.16,280114,,,A*54
$GPGGA,212210.000,5330.9985,N,01221.4768,E,1,8,0.98,53.9,M,44.6,M,,*6B
$GPRMC,212209.000,A,5330.9786,N,01221.4948,E,81.93,330.29,280114,,,A*56
$GPGGA,212215.000,5331.0983,N,01221.4005,E,1,9,0.82,54.8,M,44.6,M,,*60
$GPRMC,212214.000,A,5331.0780,N,01221.4139,E,78.94,337.39,280114,,,A*5D
$GPGGA,212220.000,5331.2030,N,01221.3441,E,1,9,0.82,55.8,M,44.6,M,,*67
$GPRMC,212219.000,A,5331.1816,N,01221.3539,E,79.80,343.81,280114,,,A*56
$GPGGA,212225.000,5331.3121,N,01221.3032,E,1,8,0.98,56.2,M,44.6,M,,*61
$GPRMC,212224.000,A,5331.2901,N,01221.3105,E,80.24,347.87,280114,,,A*5D
$GPGGA,212230.000,5331.4230,N,01221.2694,E,1,8,0.87,57.3,M,44.6,M,,*64
$GPRMC,212229.000,A,5331.4006,N,01221.2758,E,81.69,349.67,280114,,,A*5F
$GPGGA,212235.000,5331.5350,N,01221.2392,E,1,9,0.82,58.1,M,44.6,M,,*6D
$GPRMC,212234.000,A,5331.5125,N,01221.2454,E,82.01,350.38,280114,,,A*52
$GPGGA,212240.000,5331.6480,N,01221.2034,E,1,8,0.87,57.5,M,44.6,M,,*66
$GPRMC,212239.000,A,5331.6256,N,01221.2108,E,82.93,348.79,280114,,,A*50
$GPGGA,212245.000,5331.7562,N,01221.1613,E,1,9,0.81,57.2,M,44.6,M,,*6F
$GPRMC,212244.000,A,5331.7349,N,01221.1705,E,79.57,345.69,280114,,,A*5C
$GPGGA,212250.000,5331.8628,N,01221.1064,E,1,9,0.81,56.4,M,44.6,M,,*68
$GPRMC,212249.000,A,5331.8415,N,01221.1185,E,80.99,341.70,280114,,,A*56
$GPGGA,212255.000,5331.9698,N,01221.0345,E,1,9,0.82,55.1,M,44.6,M,,*63
$GPRMC,212254.000,A,5331.9483,N,01221.0503,E,83.58,336.54,280114,,,A*57
$GPGGA,212300.000,5332.0768,N,01220.9442,E,1,9,0.82,55.3,M,44.6,M,,*6C
$GPRMC,212259.000,A,5332.0557,N,01220.9638,E,86.61,331.91,280114,,,A*5A
$GPGGA,212305.000,5332.1799,N,01220.8351,E,1,9,0.81,55.9,M,44.6,M,,*6B
$GPRMC,212304.000,A,5332.1597,N,01220.8583,E,87.89,326.66,280114,,,A*55
$GPGGA,212310.000,5332.2783,N,01220.7104,E,1,9,0.82,56.9,M,44.6,M,,*6A
$GPRMC,212309.000,A,5332.2590,N,01220.7364,E,88.85,321.76,280114,,,A*59
$GPGGA,212315.000,5332.3699,N,01220.5764,E,1,8,0.94,57.9,M,44.6,M,,*61
$GPRMC,212314.000,A,5332.3523,N,01220.6029,E,85.96,318.42,280114,,,A*55
$GPGGA,212320.000,5332.4509,N,01220.4462,E,1,8,0.98,58.9,M,44.6,M,,*6D
$GPRMC,212319.000,A,5332.4354,N,01220.4717,E,78.67,316.23,280114,,,A*54
$GPGGA,212325.000,5332.5290,N,01220.3203,E,1,8,0.98,60.2,M,44.6,M,,*68
$GPRMC,212324.000,A,5332.5131,N,01220.3454,E,78.43,316.68,280114,,,A*50
$GPGGA,212330.000,5332.6078,N,01220.1948,E,1,8,0.98,61.2,M,44.6,M,,*6C
$GPRMC,212329.000,A,5332.5918,N,01220.2199,E,78.77,316.88,280114,,,A*52
$GPGGA,212335.000,5332.6882,N,01220.0666,E,1,8,0.98,61.4,M,44.6,M,,*60
$GPRMC,212334.000,A,5332.6719,N,01220.0925,E,81.16,316.61,280114,,,A*59
$GPGGA,212340.000,5332.7703,N,01219.9362,E,1,8,0.98,60.7,M,44.6,M,,*65
$GPRMC,212339.000,A,5332.7537,N,01219.9622,E,81.46,316.61,280114,,,A*55
$GPGGA,212345.000,5332.8529,N,01219.8040,E,1,8,0.98,60.1,M,44.6,M,,*61
$GPRMC,212344.000,A,5332.8362,N,01219.8308,E,83.31,316.46,280114,,,A*5D
$GPGGA,212350.000,5332.9385,N,01219.6674,E,1,9,0.82,59.2,M,44.6,M,,*68
$GPRMC,212349.000,A,5332.9214,N,01219.6951,E,85.27,316.48,280114,,,A*56
$GPGGA,212355.000,5333.0267,N,01219.5291,E,1,7,1.11,59.0,M,44.6,M,,*63
$GPRMC,212354.000,A,5333.0087,N,01219.5568,E,87.61,317.48,280114,,,A*5E
$GPGGA,212400.000,5333.1205,N,01219.3933,E,1,8,0.98,59.0,M,44.6,M,,*6B
$GPRMC,212359.000,A,5333.1012,N,01219.4195,E,89.15,319.98,280114,,,A*57
$GPGGA,212405.000,5333.2159,N,01219.2718,E,1,9,0.81,59.0,M,44.6,M,,*68
$GPRMC,212404.000,A,5333.1966,N,01219.2951,E,85.21,323.73,280114,,,A*53
$GPGGA,212410.000,5333.3166,N,01219.1660,E,1,8,0.92,58.6,M,44.6,M,,*68
$GPRMC,212409.000,A,5333.2961,N,01219.1856,E,85.52,329.81,280114,,,A*5C
$GPGGA,212415.000,5333.4216,N,01219.0825,E,1,9,0.82,58.0,M,44.6,M,,*66
$GPRMC,212414.000,A,5333.4003,N,01219.0976,E,83.42,336.09,280114,,,A*50
$GPGGA,212420.000,5333.5305,N,01219.0195,E,1,9,0.82,58.0,M,44.6,M,,*60
$GPRMC,212419.000,A,5333.5086,N,01219.0307,E,82.69,342.04,280114,,,A*5B
$GPGGA,212425.000,5333.6456,N,01218.9796,E,1,9,0.81,56.8,M,44.6,M,,*6F
$GPRMC,212424.000,A,5333.6221,N,01218.9856,E,85.32,349.93,280114,,,A*52
$GPGGA,212430.000,5333.7637,N,01218.9609,E,1,8,0.88,56.2,M,44.6,M,,*6A
$GPRMC,212429.000,A,5333.7402,N,01218.9631,E,85.15,356.21,280114,,,A*54
$GPGGA,212435.000,5333.8815,N,01218.9650,E,1,9,0.82,57.8,M,44.6,M,,*62
$GPRMC,212434.000,A,5333.8581,N,01218.9620,E,83.90,2.79,280114,,,A*59
$GPGGA,212440.000,5333.9976,N,01218.9908,E,1,7,1.01,59.4,M,44.6,M,,*61
$GPRMC,212439.000,A,5333.9745,N,01218.9841,E,84.34,8.94,280114,,,A*56
$GPGGA,212445.000,5334.1128,N,01219.0399,E,1,8,0.98,61.0,M,44.6,M,,*63
$GPRMC,212444.000,A,5334.0899,N,01219.0283,E,85.13,15.35,280114,,,A*63
$GPGGA,212450.000,5334.2242,N,01219.1107,E,1,8,0.94,62.7,M,44.6,M,,*67
$GPRMC,212449.000,A,5334.2025,N,01219.0950,E,85.08,22.49,280114,,,A*63
$GPGGA,212455.000,5334.3285,N,01219.2028,E,1,8,0.98,63.4,M,44.6,M,,*69
$GPRMC,212454.000,A,5334.3082,N,01219.1829,E,84.81,29.27,280114,,,A*6E
$GPGGA,212500.000,5334.4259,N,01219.3131,E,1,8,0.98,63.7,M,44.6,M,,*65
$GPRMC,212459.000,A,5334.4070,N,01219.2897,E,84.59,35.35,280114,,,A*64
$GPGGA,212505.000,5334.5163,N,01219.4415,E,1,8,0.98,63.4,M,44.6,M,,*6C
$GPRMC,212504.000,A,5334.4989,N,01219.4144,E,85.01,41.83,280114,,,A*61
$GPGGA,212510.000,5334.5995,N,01219.5848,E,1,8,0.98,62.9,M,44.6,M,,*60
$GPRMC,212509.000,A,5334.5834,N,01219.5557,E,84.95,46.00,280114,,,A*6D
$GPGGA,212515.000,5334.6781,N,01219.7361,E,1,9,0.81,62.5,M,44.6,M,,*6A
$GPRMC,212514.000,A,5334.6625,N,01219.7054,E,86.50,49.02,280114,,,A*6E
$GPGGA,212520.000,5334.7552,N,01219.8950,E,1,8,0.94,61.3,M,44.6,M,,*66
$GPRMC,212519.000,A,5334.7397,N,01219.8625,E,88.48,50.62,280114,,,A*68
$GPGGA,212525.000,5334.8321,N,01220.0563,E,1,8,0.94,60.8,M,44.6,M,,*6A
$GPRMC,212524.000,A,5334.8168,N,01220.0246,E,87.61,50.89,280114,,,A*69
$GPGGA,212530.000,5334.9084,N,01220.2152,E,1,9,0.82,61.7,M,44.6,M,,*6F
$GPRMC,212529.000,A,5334.8932,N,01220.1833,E,87.73,50.93,280114,,,A*62
$GPGGA,212535.000,5334.9854,N,01220.3753,E,1,8,0.98,63.2,M,44.5,M,,*67
$GPRMC,212534.000,A,5334.9699,N,01220.3434,E,88.37,50.57,280114,,,A*6F
$GPGGA,212540.000,5335.0636,N,01220.5367,E,1,8,0.98,64.6,M,44.5,M,,*61
$GPRMC,212539.000,A,5335.0478,N,01220.5043,E,89.80,50.56,280114,,,A*69
$GPGGA,212545.000,5335.1440,N,01220.6991,E,1,8,0.98,65.9,M,44.5,M,,*68
$GPRMC,212544.000,A,5335.1279,N,01220.6668,E,90.53,50.08,280114,,,A*64
$GPGGA,212550.000,5335.2259,N,01220.8591,E,1,8,0.94,67.4,M,44.5,M,,*60
$GPRMC,212549.000,A,5335.2094,N,01220.8272,E,90.35,49.08,280114,,,A*62
$GPGGA,212555.000,5335.3094,N,01221.0164,E,1,9,0.82,68.9,M,44.5,M,,*64
$GPRMC,212554.000,A,5335.2926,N,01220.9854,E,89.97,47.73,280114,,,A*63
$GPGGA,212600.000,5335.3949,N,01221.1686,E,1,9,0.82,70.3,M,44.5,M,,*67
$GPRMC,212559.000,A,5335.3776,N,01221.1385,E,89.53,46.23,280114,,,A*66
$GPGGA,212605.000,5335.4834,N,01221.3160,E,1,8,0.94,71.6,M,44.5,M,,*61
$GPRMC,212604.000,A,5335.4653,N,01221.2870,E,89.57,44.13,280114,,,A*6B
$GPGGA,212610.000,5335.5744,N,01221.4564,E,1,8,0.88,71.4,M,44.5,M,,*64
$GPRMC,212609.000,A,5335.5561,N,01221.4289,E,89.01,42.11,280114,,,A*68
$GPGGA,212615.000,5335.6683,N,01221.5884,E,1,8,1.01,70.3,M,44.5,M,,*6C
$GPRMC,212614.000,A,5335.6492,N,01221.5627,E,87.99,39.33,280114,,,A*68
$GPGGA,212620.000,5335.7657,N,01221.7135,E,1,8,0.99,68.5,M,44.5,M,,*6C
$GPRMC,212619.000,A,5335.7461,N,01221.6892,E,88.36,36.63,280114,,,A*6B
$GPGGA,212625.000,5335.8638,N,01221.8283,E,1,8,0.87,67.7,M,44.5,M,,*6C
$GPRMC,212624.000,A,5335.8439,N,01221.8059,E,86.30,34.65,280114,,,A*6A
$GPGGA,212630.000,5335.9659,N,01221.9345,E,1,8,1.01,65.6,M,44.5,M,,*68
$GPRMC,212629.000,A,5335.9453,N,01221.9138,E,87.48,31.89,280114,,,A*64
$GPGGA,212635.000,5336.0708,N,01222.0324,E,1,9,0.82,65.4,M,44.5,M,,*66
$GPRMC,212634.000,A,5336.0492,N,01222.0136,E,87.12,28.23,280114,,,A*6C
$GPGGA,212640.000,5336.1775,N,01222.1238,E,1,8,0.88,63.5,M,44.5,M,,*6E
$GPRMC,212639.000,A,5336.1561,N,01222.1062,E,85.93,26.74,280114,,,A*6B
$GPGGA,212645.000,5336.2850,N,01222.2073,E,1,9,0.81,62.0,M,44.5,M,,*62
$GPRMC,212644.000,A,5336.2633,N,01222.1912,E,85.44,23.98,280114,,,A*65
$GPGGA,212650.000,5336.3966,N,01222.2855,E,1,8,0.82,61.3,M,44.5,M,,*6D
$GPRMC,212649.000,A,5336.3742,N,01222.2704,E,87.68,22.24,280114,,,A*6E
$GPGGA,212655.000,5336.5097,N,01222.3553,E,1,9,0.82,60.0,M,44.5,M,,*60
$GPRMC,212654.000,A,5336.4872,N,01222.3422,E,86.27,19.07,280114,,,A*6C
$GPGGA,212700.000,5336.6219,N,01222.4138,E,1,9,0.82,59.0,M,44.5,M,,*62
$GPRMC,212659.000,A,5336.5995,N,01222.4029,E,83.99,16.42,280114,,,A*6E
$GPGGA,212705.000,5336.7357,N,01222.4633,E,1,9,0.82,59.0,M,44.5,M,,*61
$GPRMC,212704.000,A,5336.7128,N,01222.4540,E,84.93,13.93,280114,,,A*65
$GPGGA,212710.000,5336.8519,N,01222.5048,E,1,9,0.82,60.7,M,44.5,M,,*60
$GPRMC,212709.000,A,5336.8285,N,01222.4973,E,86.05,11.53,280114,,,A*6C
$GPGGA,212715.000,5336.9682,N,01222.5365,E,1,9,0.82,62.1,M,44.5,M,,*6D
$GPRMC,212714.000,A,5336.9453,N,01222.5307,E,84.69,9.12,280114,,,A*50
$GPGGA,212720.000,5337.0781,N,01222.5603,E,1,9,0.82,62.5,M,44.5,M,,*60
$GPRMC,212719.000,A,5337.0563,N,01222.5562,E,78.97,6.51,280114,,,A*58
$GPGGA,212725.000,5337.1879,N,01222.5762,E,1,9,0.82,61.3,M,44.5,M,,*6F
$GPRMC,212724.000,A,5337.1662,N,01222.5736,E,78.65,4.47,280114,,,A*5E
$GPGGA,212731.000,5337.3102,N,01222.5847,E,1,9,0.82,59.0,M,44.5,M,,*6D
$GPRMC,212730.000,A,5337.2907,N,01222.5840,E,70.56,1.48,280114,,,A*58
$GPGGA,212737.000,5337.4221,N,01222.5846,E,1,9,0.82,57.3,M,44.5,M,,*62
$GPRMC,212736.000,A,5337.4041,N,01222.5851,E,65.98,359.25,280114,,,A*50
$GPGGA,212744.000,5337.5345,N,01222.5769,E,1,9,0.81,54.0,M,44.5,M,,*65
$GPRMC,212743.000,A,5337.5214,N,01222.5780,E,50.26,357.16,280114,,,A*5F
$GPGGA,212755.000,5337.6447,N,01222.5620,E,1,9,0.82,51.5,M,44.5,M,,*6C
$GPRMC,212754.000,A,5337.6367,N,01222.5637,E,31.26,354.64,280114,,,A*53
$DeviceName=pironex_auto
$Software=0.1.3
$Hardware=1
$LastValidPosition=
$IMEI=359193030849087
$LocalIP=10.55.91.50
$CmdVersion=2
$SUCCESS
$<end>
$GPGGA,213413.000,5337.7273,N,01222.5657,E,1,4,1.21,38.4,M,44.5,M,,*67
$GPRMC,213412.000,V,,,,,16.08,355.42,280114,,,N*7E
$GPGGA,213435.000,5337.8325,N,01222.5165,E,1,8,1.06,55.0,M,44.4,M,,*6F
$GPRMC,213434.000,A,5337.8241,N,01222.5187,E,28.04,350.33,280114,,,A*5E
$GPGGA,213446.000,5337.9463,N,01222.4778,E,1,8,1.06,53.2,M,44.4,M,,*60
$GPRMC,213445.000,A,5337.9350,N,01222.4816,E,40.98,348.51,280114,,,A*5E
$GPGGA,213455.000,5338.0569,N,01222.4386,E,1,8,1.07,53.4,M,44.4,M,,*6D
$GPRMC,213454.000,A,5338.0433,N,01222.4435,E,49.45,348.00,280114,,,A*5A
$GPGGA,213503.000,5338.1767,N,01222.3906,E,1,8,1.07,53.0,M,44.4,M,,*63
$GPRMC,213502.000,A,5338.1605,N,01222.3975,E,57.29,344.97,280114,,,A*57
$GPGGA,213509.000,5338.2820,N,01222.3465,E,1,8,1.07,54.6,M,44.4,M,,*6F
$GPRMC,213508.000,A,5338.2639,N,01222.3542,E,66.33,345.99,280114,,,A*5F
$GPGGA,213515.000,5338.3958,N,01222.2965,E,1,8,1.07,56.2,M,44.4,M,,*67
$GPRMC,213514.000,A,5338.3763,N,01222.3051,E,71.83,345.46,280114,,,A*55
$GPGGA,213521.000,5338.5159,N,01222.2425,E,1,8,1.07,56.8,M,44.4,M,,*6C
$GPRMC,213520.000,A,5338.4956,N,01222.2516,E,75.40,345.20,280114,,,A*51
$GPGGA,213527.000,5338.6389,N,01222.1867,E,1,8,1.07,56.7,M,44.4,M,,*60
$GPRMC,213526.000,A,5338.6182,N,01222.1961,E,76.60,344.88,280114,,,A*59
$GPGGA,213532.000,5338.7444,N,01222.1389,E,1,8,1.07,55.9,M,44.4,M,,*65
$GPRMC,213531.000,A,5338.7231,N,01222.1488,E,79.09,344.63,280114,,,A*5A
$GPGGA,213537.000,5338.8525,N,01222.0899,E,1,8,1.07,55.1,M,44.4,M,,*6A
$GPRMC,213536.000,A,5338.8306,N,01222.0998,E,81.01,345.05,280114,,,A*54
$GPGGA,213542.000,5338.9634,N,01222.0397,E,1,8,1.07,54.5,M,44.4,M,,*6A
$GPRMC,213541.000,A,5338.9412,N,01222.0498,E,82.45,345.03,280114,,,A*5F
$GPGGA,213547.000,5339.0731,N,01221.9898,E,1,8,1.07,53.8,M,44.4,M,,*67
$GPRMC,213546.000,A,5339.0513,N,01221.9998,E,81.27,344.73,280114,,,A*56
$GPGGA,213552.000,5339.1818,N,01221.9413,E,1,8,1.07,53.6,M,44.4,M,,*67
$GPRMC,213551.000,A,5339.1599,N,01221.9511,E,81.08,345.12,280114,,,A*55
$GPGGA,213557.000,5339.2925,N,01221.8929,E,1,8,1.07,53.6,M,44.4,M,,*6B
$GPRMC,213556.000,A,5339.2702,N,01221.9021,E,82.86,345.61,280114,,,A*56
$GPGGA,213602.000,5339.4064,N,01221.8534,E,1,8,1.07,53.7,M,44.4,M,,*63
$GPRMC,213601.000,A,5339.3834,N,01221.8607,E,84.21,348.93,280114,,,A*54
$GPGGA,213607.000,5339.5224,N,01221.8231,E,1,8,1.07,54.2,M,44.4,M,,*61
$GPRMC,213606.000,A,5339.4990,N,01221.8284,E,84.41,352.01,280114,,,A*52
$GPGGA,213612.000,5339.6417,N,01221.8013,E,1,8,1.08,54.5,M,44.4,M,,*6A
$GPRMC,213611.000,A,5339.6176,N,01221.8047,E,87.08,354.62,280114,,,A*56
$GPGGA,213617.000,5339.7642,N,01221.7900,E,1,8,1.08,53.7,M,44.4,M,,*6D
$GPRMC,213616.000,A,5339.7395,N,01221.7916,E,88.93,357.51,280114,,,A*53
$GPGGA,213622.000,5339.8878,N,01221.7887,E,1,8,1.08,52.1,M,44.4,M,,*6A
$GPRMC,213621.000,A,5339.8631,N,01221.7881,E,88.68,0.31,280114,,,A*5F
$GPGGA,213627.000,5340.0109,N,01221.7981,E,1,8,1.08,50.6,M,44.4,M,,*64
$GPRMC,213626.000,A,5339.9863,N,01221.7952,E,88.36,3.55,280114,,,A*55
$GPGGA,213632.000,5340.1341,N,01221.8181,E,1,8,1.08,49.4,M,44.4,M,,*62
$GPRMC,213631.000,A,5340.1096,N,01221.8134,E,88.55,6.11,280114,,,A*50
$GPGGA,213637.000,5340.2572,N,01221.8484,E,1,8,1.08,48.1,M,44.4,M,,*66
$GPRMC,213636.000,A,5340.2327,N,01221.8415,E,89.32,9.21,280114,,,A*57
$GPGGA,213642.000,5340.3784,N,01221.8894,E,1,8,1.08,47.1,M,44.4,M,,*6C
$GPRMC,213641.000,A,5340.3543,N,01221.8803,E,88.72,11.99,280114,,,A*66
$GPGGA,213647.000,5340.4981,N,01221.9415,E,1,8,1.08,45.8,M,44.4,M,,*6A
$GPRMC,213646.000,A,5340.4743,N,01221.9305,E,88.80,15.06,280114,,,A*67
$GPGGA,213652.000,5340.6171,N,01222.0036,E,1,8,1.08,44.8,M,44.4,M,,*65
$GPRMC,213651.000,A,5340.5933,N,01221.9900,E,89.98,18.16,280114,,,A*62
$GPGGA,213657.000,5340.7361,N,01222.0760,E,1,7,1.63,43.8,M,44.4,M,,*63
$GPRMC,213656.000,A,5340.7123,N,01222.0611,E,91.38,20.25,280114,,,A*63
$GPGGA,213702.000,5340.8510,N,01222.1449,E,1,8,1.08,42.5,M,44.4,M,,*6A
$GPRMC,213701.000,A,5340.8283,N,01222.1317,E,86.39,19.06,280114,,,A*68
$GPGGA,213707.000,5340.9637,N,01222.1991,E,1,8,0.98,41.1,M,44.4,M,,*6F
$GPRMC,213706.000,A,5340.9414,N,01222.1905,E,82.40,13.81,280114,,,A*60
$GPGGA,213712.000,5341.0766,N,01222.2287,E,1,8,1.08,40.8,M,44.4,M,,*69
$GPRMC,213711.000,A,5341.0538,N,01222.2243,E,82.35,7.16,280114,,,A*52
$GPGGA,213717.000,5341.1926,N,01222.2369,E,1,8,1.08,39.9,M,44.4,M,,*69
$GPRMC,213716.000,A,5341.1692,N,01222.2371,E,83.93,0.31,280114,,,A*58
$GPGGA,213722.000,5341.3097,N,01222.2210,E,1,8,1.08,39.2,M,44.4,M,,*6A
$GPRMC,213721.000,A,5341.2863,N,01222.2261,E,84.78,353.49,280114,,,A*57
$GPGGA,213727.000,5341.4260,N,01222.1810,E,1,8,1.08,38.7,M,44.4,M,,*6F
$GPRMC,213726.000,A,5341.4029,N,01222.1911,E,86.36,346.42,280114,,,A*58
$GPGGA,213732.000,5341.5387,N,01222.1161,E,1,8,0.98,38.3,M,44.4,M,,*61
$GPRMC,213731.000,A,5341.5165,N,01222.1307,E,86.12,339.75,280114,,,A*51
$GPGGA,213737.000,5341.6469,N,01222.0284,E,1,8,1.09,38.7,M,44.4,M,,*64
$GPRMC,213736.000,A,5341.6257,N,01222.0475,E,86.70,332.71,280114,,,A*5F
$GPGGA,213742.000,5341.7510,N,01221.9304,E,1,8,1.09,40.2,M,44.4,M,,*61
$GPRMC,213741.000,A,5341.7305,N,01221.9500,E,85.22,330.82,280114,,,A*5B
$GPGGA,213747.000,5341.8517,N,01221.8347,E,1,8,1.09,41.9,M,44.4,M,,*60
$GPRMC,213746.000,A,5341.8316,N,01221.8532,E,82.77,331.25,280114,,,A*5A
$GPGGA,213752.000,5341.9536,N,01221.7485,E,1,8,1.09,43.5,M,44.4,M,,*6E
$GPRMC,213751.000,A,5341.9330,N,01221.7650,E,82.23,334.39,280114,,,A*58
$GPGGA,213757.000,5342.0592,N,01221.6710,E,1,8,1.09,45.3,M,44.4,M,,*61
$GPRMC,213756.000,A,5342.0378,N,01221.6860,E,83.50,337.35,280114,,,A*5F
$GPGGA,213802.000,5342.1692,N,01221.6031,E,1,8,1.09,46.6,M,44.4,M,,*6E
$GPRMC,213801.000,A,5342.1469,N,01221.6162,E,85.00,340.82,280114,,,A*50
$GPGGA,213807.000,5342.2833,N,01221.5438,E,1,8,1.09,46.7,M,44.4,M,,*62
$GPRMC,213806.000,A,5342.2602,N,01221.5549,E,86.77,343.84,280114,,,A*53
$GPGGA,213812.000,5342.4004,N,01221.4955,E,1,8,1.09,45.8,M,44.4,M,,*67
$GPRMC,213811.000,A,5342.3769,N,01221.5044,E,86.95,346.99,280114,,,A*55
$GPGGA,213817.000,5342.5178,N,01221.4591,E,1,8,1.09,44.9,M,44.4,M,,*6D
$GPRMC,213816.000,A,5342.4943,N,01221.4654,E,85.84,350.73,280114,,,A*55
$GPGGA,213822.000,5342.6354,N,01221.4336,E,1,8,1.09,44.2,M,44.4,M,,*64
$GPRMC,213821.000,A,5342.6118,N,01221.4378,E,85.37,353.12,280114,,,A*52
$GPGGA,213827.000,5342.7522,N,01221.4202,E,1,8,1.09,43.3,M,44.4,M,,*67
$GPRMC,213826.000,A,5342.7288,N,01221.4223,E,84.38,356.65,280114,,,A*5A
$GPGGA,213832.000,5342.8702,N,01221.4170,E,1,8,1.09,42.6,M,44.4,M,,*6E
$GPRMC,213831.000,A,5342.8465,N,01221.4167,E,85.09,359.89,280114,,,A*5B
$GPGGA,213837.000,5342.9893,N,01221.4247,E,1,8,1.09,41.3,M,44.4,M,,*6C
$GPRMC,213836.000,A,5342.9654,N,01221.4223,E,85.81,2.91,280114,,,A*5A
$GPGGA,213842.000,5343.1094,N,01221.4354,E,1,8,1.09,40.1,M,44.4,M,,*68
$GPRMC,213841.000,A,5343.0853,N,01221.4336,E,86.33,2.44,280114,,,A*5C
$GPGGA,213847.000,5343.2280,N,01221.4378,E,1,8,1.09,39.6,M,44.4,M,,*6E
$GPRMC,213846.000,A,5343.2049,N,01221.4385,E,83.80,359.37,280114,,,A*56
$GPGGA,213852.000,5343.3371,N,01221.4212,E,1,7,1.16,39.3,M,44.4,M,,*6D
$GPRMC,213851.000,A,5343.3160,N,01221.4262,E,77.02,353.01,280114,,,A*5D
$GPGGA,213857.000,5343.4425,N,01221.3821,E,1,8,0.98,39.6,M,44.4,M,,*69
$GPRMC,213856.000,A,5343.4214,N,01221.3920,E,78.66,345.38,280114,,,A*57
$GPGGA,213902.000,5343.5472,N,01221.3185,E,1,8,1.10,39.2,M,44.4,M,,*69
$GPRMC,213901.000,A,5343.5264,N,01221.3332,E,80.74,338.22,280114,,,A*5E
$GPGGA,213907.000,5343.6478,N,01221.2307,E,1,8,1.10,39.1,M,44.4,M,,*6F
$GPRMC,213906.000,A,5343.6281,N,01221.2500,E,81.68,330.83,280114,,,A*58
$GPGGA,213912.000,5343.7436,N,01221.1217,E,1,8,1.10,39.5,M,44.4,M,,*67
$GPRMC,213911.000,A,5343.7248,N,01221.1449,E,83.62,324.54,280114,,,A*52
$GPGGA,213917.000,5343.8372,N,01221.0018,E,1,8,1.10,39.5,M,44.4,M,,*66
$GPRMC,213916.000,A,5343.8186,N,01221.0261,E,84.75,322.43,280114,,,A*57
$GPGGA,213922.000,5343.9292,N,01220.8827,E,1,8,1.10,39.5,M,44.4,M,,*63
$GPRMC,213921.000,A,5343.9109,N,01220.9064,E,82.74,322.34,280114,,,A*5D
$GPGGA,213927.000,5344.0195,N,01220.7653,E,1,8,0.98,40.4,M,44.4,M,,*60
$GPRMC,213926.000,A,5344.0016,N,01220.7887,E,81.54,322.44,280114,,,A*56
$GPGGA,213932.000,5344.1086,N,01220.6503,E,1,7,1.20,41.2,M,44.4,M,,*6B
$GPRMC,213931.000,A,5344.0909,N,01220.6731,E,80.34,322.54,280114,,,A*52
$GPGGA,213937.000,5344.1982,N,01220.5360,E,1,7,1.13,42.5,M,44.4,M,,*67
$GPRMC,213936.000,A,5344.1801,N,01220.5589,E,81.49,322.89,280114,,,A*54
$GPGGA,213942.000,5344.2901,N,01220.4232,E,1,8,0.99,44.5,M,44.4,M,,*60
$GPRMC,213941.000,A,5344.2716,N,01220.4457,E,82.21,324.34,280114,,,A*50
$GPGGA,213947.000,5344.3846,N,01220.3141,E,1,7,1.33,47.2,M,44.4,M,,*6C
$GPRMC,213946.000,A,5344.3654,N,01220.3352,E,82.69,326.43,280114,,,A*5A
$GPGGA,213952.000,5344.4810,N,01220.2127,E,1,8,1.10,50.4,M,44.4,M,,*63
$GPRMC,213951.000,A,5344.4617,N,01220.2323,E,81.06,328.74,280114,,,A*5B
$GPGGA,213957.000,5344.5797,N,01220.1191,E,1,7,1.20,53.4,M,44.4,M,,*66
$GPRMC,213956.000,A,5344.5597,N,01220.1373,E,81.64,331.17,280114,,,A*59
$GPGGA,214002.000,5344.6812,N,01220.0315,E,1,8,0.99,56.2,M,44.4,M,,*69
$GPRMC,214001.000,A,5344.6606,N,01220.0485,E,82.28,333.57,280114,,,A*5F
$GPGGA,214007.000,5344.7855,N,01219.9510,E,1,8,0.99,57.4,M,44.4,M,,*69
$GPRMC,214006.000,A,5344.7644,N,01219.9665,E,83.01,336.47,280114,,,A*5E
$GPGGA,214012.000,5344.8940,N,01219.8767,E,1,8,1.10,58.0,M,44.4,M,,*6F
$GPRMC,214011.000,A,5344.8718,N,01219.8908,E,85.18,338.60,280114,,,A*5F
$GPGGA,214017.000,5345.0068,N,01219.8085,E,1,7,1.68,57.1,M,44.4,M,,*65
$GPRMC,214016.000,A,5344.9839,N,01219.8216,E,86.82,341.01,280114,,,A*58
$GPGGA,214022.000,5345.1225,N,01219.7486,E,1,7,1.14,54.5,M,44.3,M,,*6A
$GPRMC,214021.000,A,5345.0991,N,01219.7600,E,87.24,343.31,280114,,,A*57
$GPGGA,214027.000,5345.2408,N,01219.6981,E,1,6,1.27,51.7,M,44.3,M,,*68
$GPRMC,214026.000,A,5345.2169,N,01219.7075,E,88.01,346.31,280114,,,A*54
$GPGGA,214032.000,5345.3596,N,01219.6559,E,1,8,0.89,49.2,M,44.3,M,,*65
$GPRMC,214031.000,A,5345.3359,N,01219.6638,E,87.18,348.44,280114,,,A*57
$GPGGA,214037.000,5345.4773,N,01219.6190,E,1,9,0.81,47.2,M,44.3,M,,*68
$GPRMC,214036.000,A,5345.4538,N,01219.6259,E,85.94,349.80,280114,,,A*5A
$GPGGA,214042.000,5345.5959,N,01219.5848,E,1,9,0.81,45.1,M,44.3,M,,*63
$GPRMC,214041.000,A,5345.5720,N,01219.5916,E,87.23,350.34,280114,,,A*5A
$GPGGA,214047.000,5345.7168,N,01219.5510,E,1,9,0.81,42.3,M,44.3,M,,*6B
$GPRMC,214046.000,A,5345.6924,N,01219.5578,E,88.88,350.43,280114,,,A*5E
$GPGGA,214052.000,5345.8405,N,01219.5148,E,1,9,0.81,39.6,M,44.3,M,,*6E
$GPRMC,214051.000,A,5345.8156,N,01219.5222,E,90.94,349.90,280114,,,A*51
$GPGGA,214057.000,5345.9650,N,01219.4754,E,1,9,0.81,37.0,M,44.3,M,,*6A
$GPRMC,214056.000,A,5345.9402,N,01219.4837,E,91.10,348.86,280114,,,A*57
$GPGGA,214102.000,5346.0882,N,01219.4299,E,1,9,0.81,33.9,M,44.3,M,,*69
$GPRMC,214101.000,A,5346.0637,N,01219.4395,E,90.63,346.92,280114,,,A*57
$GPGGA,214107.000,5346.2094,N,01219.3758,E,1,6,1.35,31.2,M,44.3,M,,*66
$GPRMC,214106.000,A,5346.1852,N,01219.3872,E,89.94,344.47,280114,,,A*53
$GPGGA,214112.000,5346.3294,N,01219.3142,E,1,8,0.99,29.0,M,44.3,M,,*6E
$GPRMC,214111.000,A,5346.3056,N,01219.3272,E,90.05,342.35,280114,,,A*52
$GPGGA,214117.000,5346.4467,N,01219.2439,E,1,8,1.11,26.9,M,44.3,M,,*69
$GPRMC,214116.000,A,5346.4235,N,01219.2589,E,89.46,339.51,280114,,,A*56
$GPGGA,214122.000,5346.5589,N,01219.1664,E,1,9,0.81,24.7,M,44.3,M,,*63
$GPRMC,214121.000,A,5346.5370,N,01219.1818,E,86.09,337.81,280114,,,A*52
$GPGGA,214127.000,5346.6681,N,01219.0854,E,1,8,0.99,23.0,M,44.3,M,,*6A
$GPRMC,214126.000,A,5346.6461,N,01219.1023,E,86.52,335.92,280114,,,A*5F
$GPGGA,214132.000,5346.7781,N,01218.9968,E,1,8,1.11,22.2,M,44.3,M,,*6A
$GPRMC,214131.000,A,5346.7559,N,01219.0150,E,88.21,334.37,280114,,,A*52
$GPGGA,214137.000,5346.8885,N,01218.9004,E,1,9,0.81,22.0,M,44.3,M,,*63
$GPRMC,214136.000,A,5346.8667,N,01218.9205,E,89.52,331.79,280114,,,A*55
$GPGGA,214142.000,5346.9962,N,01218.7966,E,1,9,0.81,22.7,M,44.3,M,,*6C
$GPRMC,214141.000,A,5346.9749,N,01218.8179,E,89.30,329.64,280114,,,A*51
$GPGGA,214147.000,5347.1020,N,01218.6880,E,1,9,0.81,24.0,M,44.3,M,,*66
$GPRMC,214146.000,A,5347.0808,N,01218.7099,E,89.39,328.60,280114,,,A*58
$GPGGA,214152.000,5347.2071,N,01218.5768,E,1,9,0.81,26.3,M,44.3,M,,*6E
$GPRMC,214151.000,A,5347.1860,N,01218.5993,E,89.49,327.96,280114,,,A*51
$GPGGA,214157.000,5347.3123,N,01218.4645,E,1,9,0.81,28.6,M,44.3,M,,*68
$GPRMC,214156.000,A,5347.2914,N,01218.4869,E,89.39,327.75,280114,,,A*58
$GPGGA,214202.000,5347.4162,N,01218.3566,E,1,9,0.81,30.4,M,44.3,M,,*67
$GPRMC,214201.000,A,5347.3955,N,01218.3772,E,87.06,329.11,280114,,,A*51
$GPGGA,214207.000,5347.5209,N,01218.2605,E,1,9,0.81,30.2,M,44.3,M,,*6C
$GPRMC,214206.000,A,5347.4998,N,01218.2792,E,86.11,332.30,280114,,,A*51
$GPGGA,214212.000,5347.6297,N,01218.1733,E,1,9,0.81,28.6,M,44.3,M,,*66
$GPRMC,214211.000,A,5347.6076,N,01218.1900,E,87.34,335.83,280114,,,A*53
$GPGGA,214217.000,5347.7408,N,01218.0970,E,1,8,1.12,26.8,M,44.3,M,,*60
$GPRMC,214216.000,A,5347.7185,N,01218.1114,E,85.93,338.66,280114,,,A*5C
$GPGGA,214222.000,5347.8546,N,01218.0319,E,1,8,1.12,25.2,M,44.3,M,,*6E
$GPRMC,214221.000,A,5347.8315,N,01218.0443,E,86.91,341.93,280114,,,A*5F
$GPGGA,214227.000,5347.9710,N,01217.9770,E,1,9,0.81,24.0,M,44.3,M,,*6F
$GPRMC,214226.000,A,5347.9476,N,01217.9871,E,87.07,345.30,280114,,,A*53
$GPGGA,214232.000,5348.0898,N,01217.9336,E,1,9,0.81,22.8,M,44.3,M,,*6A
$GPRMC,214231.000,A,5348.0658,N,01217.9413,E,88.11,348.66,280114,,,A*53
$GPGGA,214237.000,5348.2110,N,01217.9004,E,1,8,0.86,21.8,M,44.3,M,,*63
$GPRMC,214236.000,A,5348.1868,N,01217.9061,E,88.21,351.42,280114,,,A*54
$GPGGA,214242.000,5348.3327,N,01217.8803,E,1,9,0.81,20.2,M,44.3,M,,*65
$GPRMC,214241.000,A,5348.3083,N,01217.8834,E,88.31,354.94,280114,,,A*5D
$GPGGA,214247.000,5348.4550,N,01217.8723,E,1,9,0.81,18.8,M,44.3,M,,*6D
$GPRMC,214246.000,A,5348.4305,N,01217.8730,E,88.02,358.39,280114,,,A*50
$GPGGA,214252.000,5348.5781,N,01217.8752,E,1,9,0.81,18.2,M,44.3,M,,*6A
$GPRMC,214251.000,A,5348.5535,N,01217.8738,E,88.52,1.37,280114,,,A*5E
$GPGGA,214257.000,5348.7012,N,01217.8901,E,1,9,0.81,18.8,M,44.3,M,,*62
$GPRMC,214256.000,A,5348.6766,N,01217.8862,E,88.70,4.74,280114,,,A*5C
$GPGGA,214302.000,5348.8232,N,01217.9156,E,1,9,0.81,19.2,M,44.3,M,,*6C
$GPRMC,214301.000,A,5348.7989,N,01217.9096,E,88.27,8.04,280114,,,A*5A
$GPGGA,214307.000,5348.9436,N,01217.9470,E,1,9,0.81,20.4,M,44.3,M,,*67
$GPRMC,214306.000,A,5348.9197,N,01217.9409,E,86.79,8.44,280114,,,A*57
$GPGGA,214312.000,5349.0636,N,01217.9773,E,1,9,0.81,23.6,M,44.3,M,,*68
$GPRMC,214311.000,A,5349.0395,N,01217.9716,E,87.32,8.13,280114,,,A*58
$GPGGA,214317.000,5349.1818,N,01218.0036,E,1,9,0.81,28.6,M,44.3,M,,*65
$GPRMC,214316.000,A,5349.1585,N,01217.9989,E,84.95,7.11,280114,,,A*52
$GPGGA,214322.000,5349.2976,N,01218.0213,E,1,9,0.81,32.3,M,44.3,M,,*62
$GPRMC,214321.000,A,5349.2747,N,01218.0185,E,83.30,4.56,280114,,,A*53
$GPGGA,214327.000,5349.4075,N,01218.0281,E,1,9,0.82,34.9,M,44.3,M,,*6F
$GPRMC,214326.000,A,5349.3862,N,01218.0276,E,78.01,1.10,280114,,,A*53
$GPGGA,214333.000,5349.5348,N,01218.0244,E,1,9,0.81,37.3,M,44.3,M,,*65
$GPRMC,214332.000,A,5349.5136,N,01218.0261,E,76.84,358.09,280114,,,A*5A
$GPGGA,214338.000,5349.6427,N,01218.0085,E,1,9,0.82,39.1,M,44.3,M,,*63
$GPRMC,214337.000,A,5349.6210,N,01218.0130,E,78.66,353.95,280114,,,A*50
$GPGGA,214342.000,5349.7514,N,01217.9760,E,1,9,0.81,40.0,M,44.3,M,,*68
$GPRMC,214341.000,A,5349.7298,N,01217.9839,E,81.01,348.82,280114,,,A*5D
$GPGGA,214347.000,5349.8598,N,01217.9268,E,1,9,0.82,38.8,M,44.3,M,,*6F
$GPRMC,214346.000,A,5349.8381,N,01217.9383,E,82.15,344.02,280114,,,A*54
$GPGGA,214352.000,5349.9685,N,01217.8598,E,1,9,0.82,34.9,M,44.3,M,,*61
$GPRMC,214351.000,A,5349.9468,N,01217.8746,E,83.79,339.00,280114,,,A*5C
$GPGGA,214357.000,5350.0729,N,01217.7777,E,1,9,0.82,30.7,M,44.3,M,,*64
$GPRMC,214356.000,A,5350.0528,N,01217.7947,E,81.45,334.41,280114,,,A*5A
$GPGGA,214402.000,5350.1675,N,01217.6871,E,1,9,0.82,27.6,M,44.3,M,,*65
$GPRMC,214401.000,A,5350.1493,N,01217.7058,E,77.15,329.52,280114,,,A*5A
$GPGGA,214408.000,5350.2711,N,01217.5667,E,1,9,0.82,22.9,M,44.3,M,,*6F
$GPRMC,214407.000,A,5350.2539,N,01217.5882,E,76.31,324.43,280114,,,A*59
$GPGGA,214413.000,5350.3584,N,01217.4505,E,1,9,0.82,19.1,M,44.3,M,,*6C
$GPRMC,214412.000,A,5350.3409,N,01217.4749,E,80.99,320.72,280114,,,A*5A
$GPGGA,214418.000,5350.4444,N,01217.3202,E,1,9,0.82,15.8,M,44.3,M,,*6F
$GPRMC,214417.000,A,5350.4274,N,01217.3472,E,83.38,317.21,280114,,,A*52
$GPGGA,214423.000,5350.5289,N,01217.1782,E,1,9,0.82,12.6,M,44.3,M,,*67
$GPRMC,214422.000,A,5350.5120,N,01217.2075,E,86.39,314.78,280114,,,A*5E
$GPGGA,214428.000,5350.6118,N,01217.0279,E,1,8,0.98,9.8,M,44.3,M,,*5A
$GPRMC,214427.000,A,5350.5954,N,01217.0585,E,87.65,312.48,280114,,,A*55
$GPGGA,214433.000,5350.6925,N,01216.8747,E,1,9,0.82,9.3,M,44.3,M,,*56
$GPRMC,214432.000,A,5350.6765,N,01216.9057,E,87.60,311.42,280114,,,A*50
$GPGGA,214438.000,5350.7739,N,01216.7178,E,1,9,0.82,9.3,M,44.3,M,,*5A
$GPRMC,214437.000,A,5350.7576,N,01216.7495,E,89.19,311.22,280114,,,A*56
$GPGGA,214443.000,5350.8582,N,01216.5572,E,1,9,0.82,9.1,M,44.3,M,,*55
$GPRMC,214442.000,A,5350.8409,N,01216.5894,E,91.84,311.81,280114,,,A*59
$GPGGA,214448.000,5350.9476,N,01216.3984,E,1,9,0.82,8.6,M,44.3,M,,*50
$GPRMC,214447.000,A,5350.9292,N,01216.4300,E,93.93,313.94,280114,,,A*5C
$GPGGA,214453.000,5351.0436,N,01216.2448,E,1,9,0.82,8.0,M,44.3,M,,*5C
$GPRMC,214452.000,A,5351.0239,N,01216.2749,E,94.98,317.50,280114,,,A*5E
$GPGGA,214458.000,5351.1469,N,01216.1034,E,1,9,0.82,9.0,M,44.3,M,,*51
$GPRMC,214457.000,A,5351.1257,N,01216.1305,E,95.60,322.29,280114,,,A*53
$GPGGA,214503.000,5351.2566,N,01215.9771,E,1,8,0.86,10.0,M,44.3,M,,*63
$GPRMC,214502.000,A,5351.2341,N,01216.0008,E,95.74,327.11,280114,,,A*53
$GPGGA,214508.000,5351.3719,N,01215.8673,E,1,9,0.82,11.3,M,44.3,M,,*66
$GPRMC,214507.000,A,5351.3487,N,01215.8879,E,95.16,331.58,280114,,,A*51
$GPGGA,214513.000,5351.4894,N,01215.7753,E,1,9,0.82,11.8,M,44.3,M,,*66
$GPRMC,214512.000,A,5351.4656,N,01215.7925,E,93.69,336.11,280114,,,A*5F
$GPGGA,214518.000,5351.6109,N,01215.6993,E,1,9,0.82,12.2,M,44.3,M,,*68
$GPRMC,214517.000,A,5351.5862,N,01215.7130,E,93.21,341.05,280114,,,A*57
$GPGGA,214523.000,5351.7345,N,01215.6413,E,1,9,0.82,12.4,M,44.3,M,,*68
$GPRMC,214522.000,A,5351.7097,N,01215.6513,E,92.27,345.62,280114,,,A*57
$GPGGA,214528.000,5351.8583,N,01215.5997,E,1,8,0.87,13.8,M,44.3,M,,*6B
$GPRMC,214527.000,A,5351.8335,N,01215.6072,E,91.05,349.39,280114,,,A*55
$GPGGA,214533.000,5351.9828,N,01215.5720,E,1,9,0.82,16.2,M,44.3,M,,*65
$GPRMC,214532.000,A,5351.9579,N,01215.5766,E,90.51,353.00,280114,,,A*5E
$GPGGA,214538.000,5352.1064,N,01215.5555,E,1,9,0.82,18.3,M,44.3,M,,*6A
$GPRMC,214537.000,A,5352.0819,N,01215.5579,E,88.41,355.97,280114,,,A*56
$GPGGA,214543.000,5352.2274,N,01215.5482,E,1,9,0.82,20.0,M,44.3,M,,*65
$GPRMC,214542.000,A,5352.2031,N,01215.5493,E,87.34,357.86,280114,,,A*5E
$GPGGA,214548.000,5352.3486,N,01215.5457,E,1,9,0.82,21.9,M,44.3,M,,*64
$GPRMC,214547.000,A,5352.3242,N,01215.5460,E,87.60,359.44,280114,,,A*51
$GPGGA,214553.000,5352.4696,N,01215.5466,E,1,9,0.82,22.3,M,44.3,M,,*61
$GPRMC,214552.000,A,5352.4455,N,01215.5464,E,87.17,0.19,280114,,,A*51
$GPGGA,214558.000,5352.5905,N,01215.5487,E,1,9,0.82,20.9,M,44.3,M,,*69
$GPRMC,214557.000,A,5352.5662,N,01215.5483,E,87.16,0.49,280114,,,A*5E
$GPGGA,214603.000,5352.7128,N,01215.5513,E,1,9,0.82,18.5,M,44.3,M,,*6A
$GPRMC,214602.000,A,5352.6881,N,01215.5511,E,88.49,0.40,280114,,,A*5B
$GPGGA,214608.000,5352.8382,N,01215.5511,E,1,9,0.82,17.0,M,44.3,M,,*64
$GPRMC,214607.000,A,5352.8130,N,01215.5515,E,90.69,359.57,280114,,,A*55
$GPGGA,214613.000,5352.9640,N,01215.5452,E,1,9,0.82,14.8,M,44.3,M,,*69
$GPRMC,214612.000,A,5352.9393,N,01215.5471,E,89.50,357.67,280114,,,A*57
$GPGGA,214618.000,5353.0809,N,01215.5309,E,1,9,0.82,13.1,M,44.3,M,,*6E
$GPRMC,214617.000,A,5353.0584,N,01215.5342,E,82.85,355.46,280114,,,A*5F
$GPGGA,214623.000,5353.1903,N,01215.5097,E,1,9,0.82,13.8,M,44.3,M,,*61
$GPRMC,214622.000,A,5353.1683,N,01215.5146,E,80.61,352.80,280114,,,A*5F
$GPGGA,214628.000,5353.3029,N,01215.4763,E,1,9,0.82,15.2,M,44.3,M,,*68
$GPRMC,214627.000,A,5353.2801,N,01215.4838,E,83.29,349.64,280114,,,A*53
$GPGGA,214633.000,5353.4159,N,01215.4334,E,1,9,0.82,16.3,M,44.3,M,,*67
$GPRMC,214632.000,A,5353.3934,N,01215.4430,E,83.80,346.33,280114,,,A*5B
$GPGGA,214638.000,5353.5292,N,01215.3790,E,1,9,0.82,18.0,M,44.3,M,,*69
$GPRMC,214637.000,A,5353.5065,N,01215.3909,E,85.81,343.49,280114,,,A*5A
$GPGGA,214643.000,5353.6445,N,01215.3116,E,1,8,0.86,18.9,M,44.3,M,,*6E
$GPRMC,214642.000,A,5353.6214,N,01215.3260,E,88.07,340.20,280114,,,A*54
$GPGGA,214648.000,5353.7589,N,01215.2318,E,1,9,0.82,19.3,M,44.3,M,,*66
$GPRMC,214647.000,A,5353.7360,N,01215.2488,E,89.54,337.03,280114,,,A*55
$GPGGA,214653.000,5353.8723,N,01215.1417,E,1,9,0.81,19.4,M,44.3,M,,*6E
$GPRMC,214652.000,A,5353.8496,N,01215.1605,E,90.73,334.47,280114,,,A*5A
$GPGGA,214658.000,5353.9858,N,01215.0419,E,1,8,1.16,19.7,M,44.3,M,,*65
$GPRMC,214657.000,A,5353.9630,N,01215.0623,E,92.30,332.64,280114,,,A*57
$GPGGA,214703.000,5354.0992,N,01214.9382,E,1,9,0.82,22.9,M,44.3,M,,*65
$GPRMC,214702.000,A,5354.0764,N,01214.9589,E,92.50,331.80,280114,,,A*5C
$GPGGA,214708.000,5354.2119,N,01214.8329,E,1,7,1.34,25.7,M,44.3,M,,*6C
$GPRMC,214707.000,A,5354.1894,N,01214.8541,E,92.54,331.05,280114,,,A*54
$GPGGA,214713.000,5354.3252,N,01214.7270,E,1,9,0.82,27.8,M,44.2,M,,*67
$GPRMC,214712.000,A,5354.3026,N,01214.7485,E,93.43,331.06,280114,,,A*51
$GPGGA,214718.000,5354.4389,N,01214.6206,E,1,8,0.86,30.0,M,44.2,M,,*67
$GPRMC,214717.000,A,5354.4161,N,01214.6419,E,93.31,331.23,280114,,,A*57
$GPGGA,214723.000,5354.5515,N,01214.5157,E,1,9,0.81,32.4,M,44.2,M,,*69
$GPRMC,214722.000,A,5354.5289,N,01214.5366,E,92.82,331.08,280114,,,A*59
$GPGGA,214728.000,5354.6612,N,01214.4152,E,1,9,0.82,35.1,M,44.2,M,,*60
$GPRMC,214727.000,A,5354.6398,N,01214.4344,E,87.64,331.82,280114,,,A*51
$GPGGA,214733.000,5354.7709,N,01214.3271,E,1,9,0.82,35.4,M,44.2,M,,*60
$GPRMC,214732.000,A,5354.7486,N,01214.3438,E,88.32,335.78,280114,,,A*5A
$GPGGA,214738.000,5354.8869,N,01214.2499,E,1,9,0.82,34.2,M,44.2,M,,*6B
$GPRMC,214737.000,A,5354.8633,N,01214.2645,E,89.95,339.43,280114,,,A*5D
$GPGGA,214743.000,5355.0043,N,01214.1832,E,1,9,0.82,32.1,M,44.2,M,,*65
$GPRMC,214742.000,A,5354.9808,N,01214.1954,E,88.98,342.54,280114,,,A*52
$GPGGA,214748.000,5355.1193,N,01214.1250,E,1,9,0.82,29.6,M,44.2,M,,*60
$GPRMC,214747.000,A,5355.0969,N,01214.1365,E,85.13,342.94,280114,,,A*53
$GPGGA,214753.000,5355.2325,N,01214.0612,E,1,9,0.82,29.9,M,44.2,M,,*6A
$GPRMC,214752.000,A,5355.2097,N,01214.0749,E,86.93,340.80,280114,,,A*5A
$GPGGA,214758.000,5355.3482,N,01213.9846,E,1,9,0.82,30.2,M,44.2,M,,*68
$GPRMC,214757.000,A,5355.3250,N,01214.0008,E,90.26,337.89,280114,,,A*55
$GPGGA,214803.000,5355.4641,N,01213.8947,E,1,8,0.91,29.9,M,44.2,M,,*62
$GPRMC,214802.000,A,5355.4411,N,01213.9139,E,92.58,334.10,280114,,,A*5B
$GPGGA,214808.000,5355.5768,N,01213.7905,E,1,9,0.81,28.3,M,44.2,M,,*60
$GPRMC,214807.000,A,5355.5547,N,01213.8120,E,92.07,330.62,280114,,,A*5F
$GPGGA,214813.000,5355.6861,N,01213.6750,E,1,8,0.91,25.9,M,44.2,M,,*67
$GPRMC,214812.000,A,5355.6645,N,01213.6991,E,92.69,327.28,280114,,,A*55
$GPGGA,214818.000,5355.7910,N,01213.5473,E,1,9,0.82,22.6,M,44.2,M,,*60
$GPRMC,214817.000,A,5355.7704,N,01213.5736,E,93.18,323.68,280114,,,A*52
$GPGGA,214823.000,5355.8930,N,01213.4100,E,1,9,0.82,23.5,M,44.2,M,,*67
$GPRMC,214822.000,A,5355.8730,N,01213.4383,E,93.55,320.34,280114,,,A*54
$GPGGA,214828.000,5355.9901,N,01213.2647,E,1,9,0.82,29.0,M,44.2,M,,*62
$GPRMC,214827.000,A,5355.9708,N,01213.2936,E,93.03,318.58,280114,,,A*5B
$GPGGA,214833.000,5356.0861,N,01213.1224,E,1,9,0.82,36.8,M,44.2,M,,*61
$GPRMC,214832.000,A,5356.0669,N,01213.1509,E,91.70,318.93,280114,,,A*51
$GPGGA,214838.000,5356.1805,N,01212.9820,E,1,9,0.82,41.0,M,44.2,M,,*66
$GPRMC,214837.000,A,5356.1617,N,01213.0096,E,89.71,319.08,280114,,,A*55
$GPGGA,214843.000,5356.2751,N,01212.8458,E,1,9,0.82,41.8,M,44.2,M,,*6D
$GPRMC,214842.000,A,5356.2561,N,01212.8732,E,89.56,319.82,280114,,,A*51
$GPGGA,214848.000,5356.3720,N,01212.7115,E,1,9,0.82,38.8,M,44.2,M,,*6C
$GPRMC,214847.000,A,5356.3521,N,01212.7381,E,90.34,321.18,280114,,,A*56
$GPGGA,214853.000,5356.4735,N,01212.5784,E,1,9,0.82,34.0,M,44.2,M,,*6D
$GPRMC,214852.000,A,5356.4531,N,01212.6046,E,92.62,322.51,280114,,,A*52
$GPGGA,214858.000,5356.5783,N,01212.4506,E,1,9,0.82,30.8,M,44.2,M,,*6F
$GPRMC,214857.000,A,5356.5569,N,01212.4759,E,93.60,324.86,280114,,,A*5F
$GPGGA,214903.000,5356.6848,N,01212.3304,E,1,9,0.82,30.3,M,44.2,M,,*63
$GPRMC,214902.000,A,5356.6637,N,01212.3532,E,91.53,326.68,280114,,,A*5D
$GPGGA,214908.000,5356.7893,N,01212.2243,E,1,8,0.87,31.5,M,44.2,M,,*6F
$GPRMC,214907.000,A,5356.7683,N,01212.2445,E,86.96,329.85,280114,,,A*55
$GPGGA,214913.000,5356.8955,N,01212.1288,E,1,9,0.81,32.9,M,44.2,M,,*6D
$GPRMC,214912.000,A,5356.8738,N,01212.1469,E,88.00,333.27,280114,,,A*50
$GPGGA,214918.000,5357.0090,N,01212.0447,E,1,9,0.82,32.8,M,44.2,M,,*69
$GPRMC,214917.000,A,5356.9860,N,01212.0607,E,89.53,337.46,280114,,,A*59
$GPGGA,214923.000,5357.1268,N,01211.9710,E,1,9,0.82,30.2,M,44.2,M,,*66
$GPRMC,214922.000,A,5357.1028,N,01211.9846,E,90.80,340.84,280114,,,A*5B
$GPGGA,214928.000,5357.2481,N,01211.9119,E,1,9,0.82,27.3,M,44.2,M,,*67
$GPRMC,214927.000,A,5357.2237,N,01211.9224,E,91.00,345.10,280114,,,A*5E
$GPGGA,214933.000,5357.3703,N,01211.8696,E,1,9,0.82,26.1,M,44.2,M,,*67
$GPRMC,214932.000,A,5357.3462,N,01211.8769,E,89.29,349.04,280114,,,A*5B
$GPGGA,214938.000,5357.4920,N,01211.8449,E,1,8,0.87,26.4,M,44.2,M,,*65
$GPRMC,214937.000,A,5357.4673,N,01211.8488,E,88.81,353.85,280114,,,A*56
$GPGGA,214943.000,5357.6168,N,01211.8356,E,1,9,0.82,28.3,M,44.2,M,,*6B
$GPRMC,214942.000,A,5357.5918,N,01211.8366,E,89.65,357.86,280114,,,A*5C
$GPGGA,214948.000,5357.7417,N,01211.8373,E,1,9,0.82,30.7,M,44.2,M,,*66
$GPRMC,214947.000,A,5357.7168,N,01211.8364,E,89.68,0.59,280114,,,A*58
$GPGGA,214953.000,5357.8662,N,01211.8461,E,1,9,0.82,34.1,M,44.2,M,,*65
$GPRMC,214952.000,A,5357.8413,N,01211.8439,E,89.78,2.56,280114,,,A*59
$GPGGA,214958.000,5357.9895,N,01211.8564,E,1,9,0.82,36.0,M,44.2,M,,*6E
$GPRMC,214957.000,A,5357.9649,N,01211.8546,E,89.13,2.53,280114,,,A*51
$GPGGA,215003.000,5358.1129,N,01211.8654,E,1,8,0.91,35.5,M,44.2,M,,*64
$GPRMC,215002.000,A,5358.0884,N,01211.8641,E,88.63,2.17,280114,,,A*52
$GPGGA,215008.000,5358.2357,N,01211.8672,E,1,8,0.91,33.6,M,44.2,M,,*66
$GPRMC,215007.000,A,5358.2111,N,01211.8672,E,88.49,0.34,280114,,,A*5B
$GPGGA,215013.000,5358.3601,N,01211.8619,E,1,8,0.87,30.0,M,44.2,M,,*64
$GPRMC,215012.000,A,5358.3352,N,01211.8634,E,89.98,357.82,280114,,,A*58
$GPGGA,215018.000,5358.4851,N,01211.8475,E,1,9,0.82,27.5,M,44.2,M,,*6C
$GPRMC,215017.000,A,5358.4598,N,01211.8511,E,91.03,355.71,280114,,,A*5B
$GPGGA,215023.000,5358.6118,N,01211.8260,E,1,8,0.91,26.8,M,44.2,M,,*6F
$GPRMC,215022.000,A,5358.5866,N,01211.8308,E,91.59,353.66,280114,,,A*51
$GPGGA,215028.000,5358.7315,N,01211.8026,E,1,9,0.82,27.1,M,44.2,M,,*61
$GPRMC,215027.000,A,5358.7081,N,01211.8070,E,85.21,353.43,280114,,,A*56
$GPGGA,215033.000,5358.8529,N,01211.7809,E,1,9,0.82,27.9,M,44.2,M,,*6F
$GPRMC,215032.000,A,5358.8281,N,01211.7846,E,89.24,354.52,280114,,,A*53
$GPGGA,215038.000,5358.9752,N,01211.7733,E,1,9,0.82,28.6,M,44.2,M,,*6D
$GPRMC,215037.000,A,5358.9510,N,01211.7733,E,87.33,359.34,280114,,,A*50
$GPGGA,215043.000,5359.0947,N,01211.7864,E,1,9,0.82,28.4,M,44.2,M,,*6C
$GPRMC,215042.000,A,5359.0712,N,01211.7821,E,85.59,5.37,280114,,,A*51
$GPGGA,215048.000,5359.2136,N,01211.8206,E,1,8,0.87,28.0,M,44.2,M,,*6A
$GPRMC,215047.000,A,5359.1895,N,01211.8128,E,88.76,10.67,280114,,,A*6B
$GPGGA,215053.000,5359.3364,N,01211.8641,E,1,9,0.82,25.9,M,44.2,M,,*63
$GPRMC,215052.000,A,5359.3116,N,01211.8551,E,90.86,12.04,280114,,,A*64
$GPGGA,215058.000,5359.4626,N,01211.9095,E,1,9,0.82,25.0,M,44.2,M,,*6B
$GPRMC,215057.000,A,5359.4372,N,01211.9004,E,93.16,11.28,280114,,,A*65
$GPGGA,215103.000,5359.5908,N,01211.9570,E,1,9,0.82,25.3,M,44.2,M,,*6B
$GPRMC,215102.000,A,5359.5651,N,01211.9477,E,94.33,11.75,280114,,,A*69
$GPGGA,215108.000,5359.7200,N,01212.0024,E,1,9,0.82,26.7,M,44.2,M,,*68
$GPRMC,215107.000,A,5359.6943,N,01211.9932,E,94.52,11.72,280114,,,A*6F
$GPGGA,215113.000,5359.8420,N,01212.0466,E,1,9,0.82,28.0,M,44.2,M,,*62
$GPRMC,215112.000,A,5359.8184,N,01212.0380,E,87.10,12.00,280114,,,A*6D
$GPGGA,215118.000,5359.9623,N,01212.0897,E,1,9,0.82,30.0,M,44.2,M,,*62
$GPRMC,215117.000,A,5359.9381,N,01212.0809,E,89.74,12.03,280114,,,A*6B
$GPGGA,215123.000,5400.0733,N,01212.1288,E,1,9,0.82,31.3,M,44.2,M,,*6F
$GPRMC,215122.000,A,5400.0530,N,01212.1222,E,75.02,11.35,280114,,,A*65
$GPGGA,215129.000,5400.1980,N,01212.1633,E,1,9,0.82,32.5,M,44.2,M,,*63
$GPRMC,215128.000,A,5400.1767,N,01212.1586,E,77.81,8.06,280114,,,A*56
$GPGGA,215134.000,5400.3087,N,01212.1845,E,1,9,0.82,31.6,M,44.2,M,,*6C
$GPRMC,215133.000,A,5400.2861,N,01212.1807,E,81.65,5.40,280114,,,A*5E
$GPGGA,215139.000,5400.4232,N,01212.1952,E,1,9,0.82,30.1,M,44.2,M,,*6B
$GPRMC,215138.000,A,5400.4004,N,01212.1942,E,82.92,2.29,280114,,,A*5B
$GPGGA,215145.000,5400.5446,N,01212.1939,E,1,9,0.82,29.3,M,44.2,M,,*63
$GPRMC,215144.000,A,5400.5259,N,01212.1951,E,68.23,358.82,280114,,,A*5A
$GPGGA,215152.000,5400.6689,N,01212.1806,E,1,9,0.82,27.5,M,44.2,M,,*62
$GPRMC,215151.000,A,5400.6519,N,01212.1829,E,62.43,355.88,280114,,,A*5B
$GPGGA,215159.000,5400.7907,N,01212.1615,E,1,8,0.87,26.0,M,44.2,M,,*6D
$GPRMC,215158.000,A,5400.7726,N,01212.1643,E,65.81,354.95,280114,,,A*5B
$GPGGA,215205.000,5400.9001,N,01212.1452,E,1,9,0.83,24.8,M,44.2,M,,*68
$GPRMC,215204.000,A,5400.8823,N,01212.1478,E,65.37,355.09,280114,,,A*57
$GPGGA,215211.000,5401.0121,N,01212.1281,E,1,9,0.83,24.6,M,44.2,M,,*60
$GPRMC,215210.000,A,5400.9925,N,01212.1312,E,70.30,355.01,280114,,,A*54
$GPGGA,215217.000,5401.1326,N,01212.1103,E,1,8,0.87,24.3,M,44.2,M,,*6B
$GPRMC,215216.000,A,5401.1121,N,01212.1134,E,74.17,354.82,280114,,,A*5A
$GPGGA,215223.000,5401.2604,N,01212.0908,E,1,9,0.83,24.2,M,44.2,M,,*6C
$GPRMC,215222.000,A,5401.2385,N,01212.0942,E,78.34,354.94,280114,,,A*50
$GPGGA,215228.000,5401.3700,N,01212.0742,E,1,9,0.83,24.6,M,44.2,M,,*67
$GPRMC,215227.000,A,5401.3484,N,01212.0774,E,78.39,354.94,280114,,,A*54
$GPGGA,215234.000,5401.4952,N,01212.0555,E,1,9,0.83,24.9,M,44.1,M,,*6C
$GPRMC,215233.000,A,5401.4744,N,01212.0586,E,75.24,355.00,280114,,,A*5B
$GPGGA,215240.000,5401.6201,N,01212.0373,E,1,9,0.83,25.1,M,44.1,M,,*6B
$GPRMC,215239.000,A,5401.5991,N,01212.0404,E,75.64,354.94,280114,,,A*55
$GPGGA,215246.000,5401.7459,N,01212.0181,E,1,9,0.82,24.2,M,44.1,M,,*6B
$GPRMC,215245.000,A,5401.7250,N,01212.0213,E,75.10,354.78,280114,,,A*5B
$GPGGA,215251.000,5401.8533,N,01212.0024,E,1,9,0.83,25.4,M,44.1,M,,*67
$GPRMC,215250.000,A,5401.8316,N,01212.0055,E,78.35,355.06,280114,,,A*51
$GPGGA,215256.000,5401.9651,N,01211.9853,E,1,9,0.83,28.2,M,44.1,M,,*6F
$GPRMC,215255.000,A,5401.9424,N,01211.9889,E,81.27,354.92,280114,,,A*59
$GPGGA,215301.000,5402.0757,N,01211.9682,E,1,8,0.87,30.5,M,44.1,M,,*68
$GPRMC,215300.000,A,5402.0544,N,01211.9714,E,78.21,354.81,280114,,,A*5C
$GPGGA,215307.000,5402.1985,N,01211.9501,E,1,9,0.83,33.5,M,44.1,M,,*60
$GPRMC,215306.000,A,5402.1780,N,01211.9529,E,73.65,355.13,280114,,,A*5C
$GPGGA,215313.000,5402.3254,N,01211.9383,E,1,9,0.83,34.9,M,44.1,M,,*67
$GPRMC,215312.000,A,5402.3041,N,01211.9395,E,77.02,357.68,280114,,,A*5B
$GPGGA,215319.000,5402.4541,N,01211.9344,E,1,9,0.83,35.2,M,44.1,M,,*68
$GPRMC,215318.000,A,5402.4326,N,01211.9348,E,77.15,359.38,280114,,,A*59
$GPGGA,215324.000,5402.5626,N,01211.9379,E,1,9,0.83,35.2,M,44.1,M,,*6B
$GPRMC,215323.000,A,5402.5408,N,01211.9367,E,78.28,1.71,280114,,,A*54
$GPGGA,215330.000,5402.6904,N,01211.9503,E,1,8,0.88,32.9,M,44.1,M,,*6F
$GPRMC,215329.000,A,5402.6695,N,01211.9478,E,75.28,3.77,280114,,,A*5B
$GPGGA,215336.000,5402.8168,N,01211.9576,E,1,9,0.83,29.7,M,44.1,M,,*69
$GPRMC,215335.000,A,5402.7957,N,01211.9573,E,75.92,0.80,280114,,,A*56
$GPGGA,215342.000,5402.9442,N,01211.9508,E,1,9,0.83,24.5,M,44.1,M,,*60
$GPRMC,215341.000,A,5402.9227,N,01211.9526,E,77.07,357.32,280114,,,A*51
$GPGGA,215348.000,5403.0686,N,01211.9317,E,1,9,0.83,18.1,M,44.1,M,,*6B
$GPRMC,215347.000,A,5403.0485,N,01211.9357,E,73.62,353.92,280114,,,A*58
$GPGGA,215354.000,5403.1883,N,01211.9018,E,1,9,0.83,11.4,M,44.1,M,,*6C
$GPRMC,215353.000,A,5403.1683,N,01211.9076,E,74.11,350.75,280114,,,A*51
$GPGGA,215400.000,5403.3115,N,01211.8605,E,1,9,0.83,5.0,M,44.1,M,,*54
$GPRMC,215359.000,A,5403.2901,N,01211.8678,E,77.86,349.08,280114,,,A*5B
$GPGGA,215405.000,5403.4197,N,01211.8265,E,1,9,0.83,1.5,M,44.1,M,,*5F
$GPRMC,215404.000,A,5403.3977,N,01211.8327,E,79.86,350.38,280114,,,A*5E
$GPGGA,215410.000,5403.5270,N,01211.7990,E,1,9,0.83,0.7,M,44.1,M,,*5D
$GPRMC,215409.000,A,5403.5062,N,01211.8040,E,76.72,351.45,280114,,,A*55
$GPGGA,215416.000,5403.6459,N,01211.7727,E,1,9,0.83,3.0,M,44.1,M,,*53
$GPRMC,215415.000,A,5403.6261,N,01211.7768,E,71.43,353.07,280114,,,A*59
$GPGGA,215422.000,5403.7679,N,01211.7504,E,1,8,0.88,7.9,M,44.1,M,,*51
$GPRMC,215421.000,A,5403.7475,N,01211.7539,E,74.03,354.00,280114,,,A*5B
$GPGGA,215428.000,5403.8877,N,01211.7286,E,1,9,0.83,13.6,M,44.1,M,,*69
$GPRMC,215427.000,A,5403.8683,N,01211.7321,E,70.76,354.10,280114,,,A*51
$GPGGA,215434.000,5404.0005,N,01211.7080,E,1,9,0.83,18.3,M,44.1,M,,*6C
$GPRMC,215433.000,A,5403.9815,N,01211.7115,E,68.65,353.85,280114,,,A*51
$GPGGA,215440.000,5404.1204,N,01211.6877,E,1,9,0.83,20.5,M,44.1,M,,*61
$GPRMC,215439.000,A,5404.1001,N,01211.6908,E,73.12,354.74,280114,,,A*5F
$GPGGA,215446.000,5404.2408,N,01211.6745,E,1,9,0.83,20.0,M,44.1,M,,*65
$GPRMC,215445.000,A,5404.2211,N,01211.6760,E,71.19,357.20,280114,,,A*5F
$GPGGA,215452.000,5404.3536,N,01211.6713,E,1,9,0.83,19.6,M,44.1,M,,*62
$GPRMC,215451.000,A,5404.3355,N,01211.6710,E,65.65,358.99,280114,,,A*5E
$GPGGA,215459.000,5404.4747,N,01211.6797,E,1,9,0.83,20.2,M,44.1,M,,*68
$GPRMC,215458.000,A,5404.4577,N,01211.6775,E,61.93,3.86,280114,,,A*5B
$GPGGA,215506.000,5404.5976,N,01211.6990,E,1,9,0.83,20.5,M,44.1,M,,*60
$GPRMC,215505.000,A,5404.5797,N,01211.6954,E,64.75,6.43,280114,,,A*53
$GPGGA,215512.000,5404.7090,N,01211.7282,E,1,9,0.83,21.8,M,44.1,M,,*63
$GPRMC,215511.000,A,5404.6899,N,01211.7224,E,69.19,9.41,280114,,,A*53
$GPGGA,215518.000,5404.8242,N,01211.7690,E,1,9,0.83,22.4,M,44.1,M,,*63
$GPRMC,215517.000,A,5404.8075,N,01211.7625,E,66.01,12.45,280114,,,A*6C
$GPGGA,215528.000,5404.9357,N,01211.8167,E,1,9,0.83,20.8,M,44.1,M,,*6A
$GPRMC,215527.000,A,5404.9263,N,01211.8130,E,37.00,13.26,280114,,,A*66
ping
$GPGGA,215620.000,5404.8555,N,01211.6868,E,1,8,0.87,21.6,M,44.1,M,,*66
$GPRMC,215619.000,A,5404.8550,N,01211.7030,E,34.10,271.90,280114,,,A*59
$GPGGA,215632.000,5404.8602,N,01211.4947,E,1,9,0.83,21.3,M,44.1,M,,*6A
$GPRMC,215631.000,A,5404.8599,N,01211.5108,E,34.67,271.15,280114,,,A*53
$GPGGA,215644.000,5404.8639,N,01211.3027,E,1,8,0.87,21.7,M,44.1,M,,*6A
$GPRMC,215643.000,A,5404.8635,N,01211.3191,E,34.75,271.61,280114,,,A*55
$GPGGA,215656.000,5404.8686,N,01211.1044,E,1,9,0.83,20.4,M,44.1,M,,*6D
$GPRMC,215655.000,A,5404.8683,N,01211.1217,E,36.52,271.94,280114,,,A*5D
$GPGGA,215707.000,5404.8729,N,01210.9128,E,1,9,0.82,19.1,M,44.1,M,,*60
$GPRMC,215706.000,A,5404.8726,N,01210.9301,E,36.35,272.11,280114,,,A*54
$GPGGA,215717.000,5404.8767,N,01210.7286,E,1,9,0.83,19.4,M,44.1,M,,*66
$GPRMC,215716.000,A,5404.8763,N,01210.7478,E,40.24,271.54,280114,,,A*50
$GPGGA,215727.000,5404.8822,N,01210.5410,E,1,9,0.83,18.2,M,44.1,M,,*67
$GPRMC,215726.000,A,5404.8817,N,01210.5592,E,38.29,272.18,280114,,,A*51
$GPGGA,215738.000,5404.8878,N,01210.3419,E,1,8,0.87,16.6,M,44.1,M,,*66
$GPRMC,215737.000,A,5404.8873,N,01210.3606,E,39.56,271.74,280114,,,A*5B
$GPGGA,215748.000,5404.8852,N,01210.1580,E,1,9,0.83,12.4,M,44.1,M,,*69
$GPRMC,215747.000,A,5404.8858,N,01210.1758,E,37.77,267.12,280114,,,A*57
$GPGGA,215806.000,5404.9061,N,01209.9773,E,1,9,0.82,3.6,M,44.1,M,,*58
$GPRMC,215805.000,A,5404.8996,N,01209.9810,E,22.48,339.55,280114,,,A*5F
$GPGGA,215819.000,5405.0157,N,01209.9212,E,1,9,0.82,-7.0,M,44.1,M,,*77
$GPRMC,215818.000,A,5405.0066,N,01209.9262,E,33.16,342.18,280114,,,A*5D
$GPGGA,215829.000,5405.1204,N,01209.8692,E,1,8,0.98,-7.6,M,44.1,M,,*71
$GPRMC,215828.000,A,5405.1095,N,01209.8746,E,40.32,343.60,280114,,,A*5D
$GPGGA,215840.000,5405.2326,N,01209.8160,E,1,8,0.95,-7.7,M,44.1,M,,*7A
$GPRMC,215839.000,A,5405.2228,N,01209.8208,E,37.05,343.42,280114,,,A*51
$GPGGA,215851.000,5405.3384,N,01209.7636,E,1,9,0.84,-6.6,M,44.1,M,,*79
$GPRMC,215850.000,A,5405.3286,N,01209.7682,E,36.19,344.12,280114,,,A*5C
ping
ping
ping
$GPGGA,220039.000,5405.4419,N,01209.7112,E,1,9,0.84,-3.3,M,44.1,M,,*7C
$GPRMC,220038.000,A,5405.4397,N,01209.7127,E,7.66,343.56,280114,,,A*6F
$GPGGA,220059.000,5405.4235,N,01209.5212,E,1,9,0.84,-3.3,M,44.1,M,,*73
$GPRMC,220058.000,A,5405.4241,N,01209.5357,E,29.90,264.37,280114,,,A*52
$GPGGA,220111.000,5405.4333,N,01209.3367,E,1,9,0.84,-1.4,M,44.1,M,,*79
$GPRMC,220110.000,A,5405.4322,N,01209.3521,E,32.95,276.31,280114,,,A*50
$GPGGA,220124.000,5405.4476,N,01209.1462,E,1,9,0.84,-2.1,M,44.1,M,,*7F
$GPRMC,220123.000,A,5405.4461,N,01209.1599,E,30.35,278.99,280114,,,A*55
$GPGGA,220137.000,5405.4828,N,01208.9694,E,1,9,0.84,-5.1,M,44.1,M,,*7F
$GPRMC,220136.000,A,5405.4791,N,01208.9820,E,29.72,295.30,280114,,,A*50
$GPGGA,220151.000,5405.5338,N,01208.7959,E,1,8,1.23,-5.8,M,44.1,M,,*70
$GPRMC,220150.000,A,5405.5309,N,01208.8082,E,28.34,292.84,280114,,,A*5E
$GPGGA,220207.000,5405.5420,N,01208.6075,E,1,8,1.24,-5.3,M,44.1,M,,*74
$GPRMC,220206.000,A,5405.5420,N,01208.6171,E,21.02,270.02,280114,,,A*5F
ping
$DeviceName=pironex_auto
$Software=0.1.3
$Hardware=1
$LastValidPosition=
$IMEI=359193030849087
$LocalIP=10.64.114.19
$CmdVersion=2
$SUCCESS
$<end>
$GPGGA,220924.000,5405.4844,N,01208.5116,E,1,6,1.49,2.7,M,44.1,M,,*5D
$GPRMC,220922.938,V,,,,,0.00,0.00,280114,,,N*48
ping
ping
ping
$DeviceName=pironex_auto
$Software=0.1.3
$Hardware=1
$LastValidPosition=
$IMEI=359193030849087
$LocalIP=10.32.94.12
$CmdVersion=2
$SUCCESS
$<end>
ping
$GPGGA,061405.000,5405.4242,N,01208.3138,E,1,6,1.59,6.9,M,44.1,M,,*59
$GPRMC,061404.000,V,,,,,12.39,262.87,290114,,,N*75
ping
ping
ping
$GPGGA,061556.000,5405.5259,N,01208.3780,E,1,11,0.91,2.7,M,44.1,M,,*69
$GPRMC,061555.000,A,5405.5259,N,01208.3729,E,10.01,101.01,290114,,,A*59
ping
$GPGGA,061639.000,5405.4291,N,01208.4606,E,1,10,1.00,16.6,M,44.1,M,,*52
$GPRMC,061638.000,A,5405.4326,N,01208.4596,E,12.17,169.79,290114,,,A*5C
ping
$GPGGA,061730.000,5405.3645,N,01208.6084,E,1,9,1.32,10.6,M,44.1,M,,*61
$GPRMC,061729.000,A,5405.3698,N,01208.6071,E,19.72,170.62,290114,,,A*5E
$GPGGA,061753.000,5405.2573,N,01208.6479,E,1,11,0.86,14.5,M,44.1,M,,*55
$GPRMC,061752.000,A,5405.2617,N,01208.6454,E,17.36,161.88,290114,,,A*5D
ping
$GPGGA,061826.000,5405.1479,N,01208.6642,E,1,9,1.19,15.3,M,44.1,M,,*63
$GPRMC,061825.000,A,5405.1527,N,01208.6649,E,17.71,177.75,290114,,,A*59
ping
ping
$GPGGA,061931.000,5405.1861,N,01208.8401,E,1,13,0.75,-1.0,M,44.1,M,,*41
$GPRMC,061930.000,A,5405.1889,N,01208.8331,E,17.96,125.04,290114,,,A*59
$GPGGA,061951.000,5405.1160,N,01208.9905,E,1,12,0.90,-2.7,M,44.1,M,,*49
$GPRMC,061950.000,A,5405.1202,N,01208.9818,E,23.71,129.04,290114,,,A*55
$GPGGA,062008.000,5405.0470,N,01209.1358,E,1,13,0.75,-3.4,M,44.1,M,,*49
$GPRMC,062007.000,A,5405.0506,N,01209.1280,E,21.10,127.67,290114,,,A*53
$GPGGA,062033.000,5404.9755,N,01209.2797,E,1,13,0.75,-3.3,M,44.1,M,,*4E
$GPRMC,062032.000,A,5404.9779,N,01209.2742,E,14.70,126.34,290114,,,A*58
$GPGGA,062101.000,5404.9157,N,01209.4407,E,1,13,0.74,-7.5,M,44.1,M,,*45
$GPRMC,062100.000,A,5404.9184,N,01209.4338,E,17.28,122.72,290114,,,A*5B
$GPGGA,062122.000,5404.8750,N,01209.6173,E,1,12,0.80,-7.1,M,44.1,M,,*4E
$GPRMC,062121.000,A,5404.8752,N,01209.6065,E,22.34,93.28,290114,,,A*62
$GPGGA,062138.000,5404.8748,N,01209.8095,E,1,13,0.75,-5.0,M,44.1,M,,*43
$GPRMC,062137.000,A,5404.8748,N,01209.7972,E,26.58,90.67,290114,,,A*66
$GPGGA,062154.000,5404.8745,N,01209.9943,E,1,13,0.75,1.1,M,44.1,M,,*6F
$GPRMC,062153.000,A,5404.8743,N,01209.9831,E,23.70,88.09,290114,,,A*69
$GPGGA,062210.000,5404.8796,N,01210.1839,E,1,12,0.79,7.5,M,44.1,M,,*61
$GPRMC,062209.000,A,5404.8793,N,01210.1715,E,25.52,87.05,290114,,,A*64
$GPGGA,062227.000,5404.8818,N,01210.3688,E,1,12,0.81,13.7,M,44.1,M,,*5A
$GPRMC,062226.000,A,5404.8819,N,01210.3593,E,20.16,91.85,290114,,,A*60
$GPGGA,062249.000,5404.8794,N,01210.5521,E,1,13,0.75,20.3,M,44.1,M,,*51
$GPRMC,062248.000,A,5404.8793,N,01210.5490,E,8.71,91.92,290114,,,A*5C
ping
$GPGGA,062334.000,5404.7951,N,01210.6737,E,1,13,0.75,23.0,M,44.1,M,,*54
$GPRMC,062333.000,A,5404.8018,N,01210.6697,E,25.65,160.91,290114,,,A*55
$GPGGA,062351.000,5404.6872,N,01210.7034,E,1,11,0.83,20.4,M,44.1,M,,*5F
$GPRMC,062350.000,A,5404.6933,N,01210.7039,E,22.06,183.73,290114,,,A*5E
$GPGGA,062410.000,5404.5775,N,01210.6768,E,1,12,0.77,18.3,M,44.1,M,,*5D
$GPRMC,062409.000,A,5404.5827,N,01210.6796,E,20.52,197.49,290114,,,A*5E
ping
$DeviceName=pironex_auto
$Software=0.1.3
$Hardware=1
$LastValidPosition=
$IMEI=359193030849087
$LocalIP=10.37.2.126
$CmdVersion=2
$SUCCESS
$<end>
$GPGGA,113053.000,5404.4934,N,01210.7723,E,1,9,0.82,24.4,M,44.1,M,,*65
$GPRMC,113052.000,V,,,,,0.08,0.00,290114,,,N*4E
ping
$GPGGA,113141.000,5404.5882,N,01210.6818,E,1,10,0.83,26.6,M,44.1,M,,*55
$GPRMC,113140.000,A,5404.5821,N,01210.6785,E,22.65,17.41,290114,,,A*62
$GPGGA,113156.000,5404.6984,N,01210.7079,E,1,9,0.91,30.5,M,44.1,M,,*66
$GPRMC,113155.000,A,5404.6908,N,01210.7070,E,26.93,3.36,290114,,,A*5B
$GPGGA,113211.000,5404.8051,N,01210.6722,E,1,10,0.80,31.5,M,44.1,M,,*58
$GPRMC,113210.000,A,5404.7979,N,01210.6758,E,27.14,340.60,290114,,,A*5B
ping
ping
ping
ping
$GPGGA,113425.000,5404.8720,N,01210.8184,E,1,10,0.82,38.4,M,44.1,M,,*56
$GPRMC,113424.000,A,5404.8721,N,01210.8073,E,22.47,91.69,290114,,,A*63
$GPGGA,113441.000,5404.8687,N,01211.0070,E,1,11,0.77,37.3,M,44.1,M,,*58
$GPRMC,113440.000,A,5404.8689,N,01210.9973,E,21.88,92.02,290114,,,A*64
$DeviceName=pironex_auto
$Software=0.1.3
$Hardware=1
$LastValidPosition=
$IMEI=359193030849087
$LocalIP=10.40.157.217
$CmdVersion=2
$SUCCESS
$<end>
ping
ping
$GPGGA,113704.000,5404.8624,N,01211.2176,E,1,11,0.76,34.1,M,44.1,M,,*56
$GPRMC,113703.000,A,5404.8628,N,01211.2088,E,19.33,93.52,290114,,,A*63
$<MSG.Info.ServerLogin>
$DeviceName=pironex_auto
$Software=0.1.3
$Hardware=1
$LastValidPosition=
$IMEI=359193030849087
$LocalIP=10.145.11.186
$CmdVersion=2
$SUCCESS
$<end>
$GPGGA,114637.000,5404.8379,N,01211.2541,E,1,5,2.24,71.6,M,44.1,M,,*6B
$GPRMC,114635.258,V,,,,,0.21,0.00,290114,,,N*4A
ping
ping
ping
ping
$GPGGA,114848.000,5404.8743,N,01211.0713,E,1,10,0.81,36.9,M,44.1,M,,*52
$GPRMC,114847.000,A,5404.8740,N,01211.0816,E,21.01,272.50,290114,,,A*5C
$GPGGA,114903.000,5404.8789,N,01210.8855,E,1,9,0.90,33.3,M,44.1,M,,*69
$GPRMC,114902.000,A,5404.8786,N,01210.8975,E,25.44,272.70,290114,,,A*5C
$GPGGA,114932.000,5404.8837,N,01210.6974,E,1,8,1.12,32.4,M,44.1,M,,*61
$GPRMC,114931.000,A,5404.8833,N,01210.7097,E,25.84,272.99,290114,,,A*5C
$GPGGA,115002.000,5404.9710,N,01210.5880,E,1,10,0.81,32.0,M,44.1,M,,*5E
$GPRMC,115001.000,A,5404.9677,N,01210.5894,E,12.90,347.58,290114,,,A*5A
$DeviceName=pironex_auto
$Software=0.1.3
$Hardware=1
$LastValidPosition=
$IMEI=359193030849087
$LocalIP=10.49.67.185
$CmdVersion=2
$SUCCESS
$<end>
ping
$GPGGA,150734.000,5404.9991,N,01210.7836,E,1,9,1.10,26.9,M,44.1,M,,*68
$GPRMC,150733.000,V,,,,,11.19,137.77,290114,,,N*7C
$GPGGA,150805.000,5404.8891,N,01210.7784,E,1,10,1.12,20.4,M,44.1,M,,*52
$GPRMC,150804.000,A,5404.8924,N,01210.7791,E,13.85,185.51,290114,,,A*56
$GPGGA,150823.000,5404.8841,N,01210.5942,E,1,11,0.97,16.4,M,44.1,M,,*55
$GPRMC,150822.000,A,5404.8838,N,01210.6093,E,31.16,272.03,290114,,,A*5C
$GPGGA,150835.000,5404.8867,N,01210.4023,E,1,10,1.00,13.7,M,44.1,M,,*51
$GPRMC,150834.000,A,5404.8865,N,01210.4188,E,34.35,271.03,290114,,,A*5D
$GPGGA,150846.000,5404.8887,N,01210.2088,E,1,12,0.80,9.4,M,44.1,M,,*6F
$GPRMC,150845.000,A,5404.8892,N,01210.2249,E,34.76,266.86,290114,,,A*57
$GPGGA,150901.000,5404.8861,N,01210.0252,E,1,11,0.97,5.1,M,44.1,M,,*6E
$GPRMC,150900.000,A,5404.8861,N,01210.0343,E,20.42,269.10,290114,,,A*50
$GPGGA,150924.000,5404.9876,N,01209.9365,E,1,12,0.81,-6.0,M,44.1,M,,*41
$GPRMC,150923.000,A,5404.9803,N,01209.9400,E,27.46,344.12,290114,,,A*5A
$GPGGA,150938.000,5405.0989,N,01209.8824,E,1,12,0.81,-9.6,M,44.1,M,,*43
$GPRMC,150937.000,A,5405.0906,N,01209.8862,E,30.98,344.21,290114,,,A*5F
$GPGGA,150952.000,5405.2050,N,01209.8323,E,1,12,0.81,-10.7,M,44.1,M,,*75
$GPRMC,150951.000,A,5405.1975,N,01209.8358,E,28.22,344.16,290114,,,A*54
$GPGGA,151006.000,5405.3136,N,01209.7800,E,1,12,0.81,-11.2,M,44.1,M,,*7D
$GPRMC,151005.000,A,5405.3058,N,01209.7842,E,29.48,343.97,290114,,,A*55
$GPGGA,151025.000,5405.4164,N,01209.7243,E,1,12,0.80,-6.5,M,44.1,M,,*41
$GPRMC,151024.000,A,5405.4160,N,01209.7246,E,3.08,343.37,290114,,,A*63
$GPGGA,151056.000,5405.4252,N,01209.5285,E,1,12,0.81,-2.3,M,44.1,M,,*48
$GPRMC,151055.000,A,5405.4261,N,01209.5443,E,32.68,262.26,290114,,,A*50
$GPGGA,151108.000,5405.4350,N,01209.3334,E,1,12,0.81,0.6,M,44.1,M,,*66
$GPRMC,151107.000,A,5405.4341,N,01209.3485,E,32.51,276.03,290114,,,A*51
$GPGGA,151124.000,5405.4478,N,01209.1483,E,1,12,0.81,0.7,M,44.1,M,,*6D
$GPRMC,151123.000,A,5405.4471,N,01209.1551,E,15.65,278.33,290114,,,A*56
ping
$GPGGA,151225.000,5405.4839,N,01208.9654,E,1,11,0.89,-2.5,M,44.1,M,,*41
$GPRMC,151224.000,A,5405.4812,N,01208.9750,E,22.92,296.12,290114,,,A*5E
$GPGGA,151242.000,5405.5331,N,01208.7954,E,1,11,1.27,-3.7,M,44.1,M,,*45
$GPRMC,151241.000,A,5405.5308,N,01208.8058,E,23.31,292.17,290114,,,A*5B
$GPGGA,151300.000,5405.5429,N,01208.6127,E,1,13,0.80,-2.0,M,44.1,M,,*49
$GPRMC,151259.000,A,5405.5430,N,01208.6168,E,9.78,270.88,290114,,,A*6D
ping
ping
ping
$GPGGA,151459.000,5405.4820,N,01208.4596,E,1,8,1.38,-2.5,M,44.1,M,,*77
$GPRMC,151458.000,A,5405.4822,N,01208.4627,E,7.21,279.20,290114,,,A*63
ping
ping
$DeviceName=pironex_auto
$Software=0.1.3
$Hardware=1
$LastValidPosition=
$IMEI=359193030849087
$LocalIP=10.152.196.172
$CmdVersion=2
$SUCCESS
$<end>
$GPGGA,062807.000,5405.5135,N,01208.4160,E,1,3,5.56,105.9,M,44.1,M,,*50
$GPRMC,062806.000,V,,,,,0.21,0.00,300114,,,N*43
ping
ping
$GPGGA,062926.000,5405.4459,N,01208.2706,E,1,3,5.29,98.3,M,44.1,M,,*6B
$GPRMC,062925.000,A,5405.4459,N,01208.2758,E,9.53,256.08,300114,,,A*6E
$GPGGA,062950.000,5405.4077,N,01208.0980,E,1,9,1.03,53.1,M,44.1,M,,*63
$GPRMC,062949.000,A,5405.4078,N,01208.1011,E,7.14,268.95,300114,,,A*6E
ping
$GPGGA,063040.000,5405.4038,N,01207.9123,E,1,9,1.05,36.2,M,44.1,M,,*60
$GPRMC,063039.000,A,5405.4039,N,01207.9214,E,19.16,269.45,300114,,,A*55
$GPGGA,063103.000,5405.4004,N,01207.7264,E,1,9,1.05,31.9,M,44.1,M,,*6B
$GPRMC,063102.000,A,5405.4005,N,01207.7293,E,6.58,267.76,300114,,,A*68
ping
ping
$GPGGA,063216.000,5405.4997,N,01207.7968,E,1,10,0.96,9.7,M,44.1,M,,*6E
$GPRMC,063215.000,A,5405.4971,N,01207.7950,E,8.63,24.08,300114,,,A*59
$GPGGA,063243.000,5405.5264,N,01207.6085,E,1,8,1.38,8.5,M,44.1,M,,*5C
$GPRMC,063242.000,A,5405.5263,N,01207.6202,E,25.23,270.88,300114,,,A*5F
$GPGGA,063259.000,5405.5296,N,01207.4191,E,1,10,0.96,8.2,M,44.2,M,,*64
$GPRMC,063258.000,A,5405.5287,N,01207.4315,E,26.15,276.24,300114,,,A*5D
$GPGGA,063313.000,5405.5553,N,01207.2377,E,1,10,0.96,6.0,M,44.2,M,,*65
$GPRMC,063312.000,A,5405.5528,N,01207.2499,E,27.92,288.81,300114,,,A*55
$GPGGA,063330.000,5405.5982,N,01207.0616,E,1,10,0.96,5.1,M,44.2,M,,*66
$GPRMC,063329.000,A,5405.5962,N,01207.0698,E,18.45,292.89,300114,,,A*5B
$GPGGA,063347.000,5405.6382,N,01206.8832,E,1,10,0.96,4.0,M,44.2,M,,*6E
$GPRMC,063346.000,A,5405.6368,N,01206.8940,E,23.68,284.00,300114,,,A*53
$GPGGA,063407.000,5405.6107,N,01206.7055,E,1,10,0.96,7.6,M,44.2,M,,*61
$GPRMC,063406.000,A,5405.6132,N,01206.7124,E,18.21,238.32,300114,,,A*5B
ping
$GPGGA,063509.000,5405.5799,N,01206.5234,E,1,11,0.82,11.0,M,44.2,M,,*5E
$GPRMC,063508.000,A,5405.5802,N,01206.5328,E,19.82,267.97,300114,,,A*5C
$GPGGA,063525.000,5405.5650,N,01206.3370,E,1,10,0.96,12.3,M,44.2,M,,*57
$GPRMC,063524.000,A,5405.5657,N,01206.3480,E,23.96,263.34,300114,,,A*5E
$GPGGA,063546.000,5405.5688,N,01206.1472,E,1,11,0.82,11.8,M,44.2,M,,*5C
$GPRMC,063545.000,A,5405.5687,N,01206.1553,E,16.32,271.80,300114,,,A*5D
$GPGGA,063605.000,5405.5549,N,01205.9641,E,1,11,0.82,10.0,M,44.2,M,,*56
$GPRMC,063604.000,A,5405.5560,N,01205.9751,E,23.39,259.61,300114,,,A*52
$GPGGA,063624.000,5405.5837,N,01205.7806,E,1,11,0.82,14.5,M,44.2,M,,*53
$GPRMC,063623.000,A,5405.5801,N,01205.7891,E,21.47,304.97,300114,,,A*5B
$GPGGA,063641.000,5405.6700,N,01205.6652,E,1,10,0.96,15.4,M,44.2,M,,*52
$GPRMC,063640.000,A,5405.6660,N,01205.6692,E,17.34,328.50,300114,,,A*5C
ping
$GPGGA,063720.000,5405.7672,N,01205.5649,E,1,10,0.96,17.4,M,44.2,M,,*5A
$GPRMC,063719.000,A,5405.7612,N,01205.5712,E,25.37,328.21,300114,,,A*5B
$GPGGA,063737.000,5405.8643,N,01205.4633,E,1,11,0.82,18.0,M,44.2,M,,*52
$GPRMC,063736.000,A,5405.8585,N,01205.4695,E,24.35,328.26,300114,,,A*5F
ping
$GPGGA,063830.000,5405.9388,N,01205.3236,E,1,11,0.82,19.2,M,44.2,M,,*5C
$GPRMC,063829.000,A,5405.9352,N,01205.3349,E,26.01,299.37,300114,,,A*5E
$GPGGA,063841.000,5405.9857,N,01205.1568,E,1,11,0.82,20.2,M,44.2,M,,*57
$GPRMC,063840.000,A,5405.9813,N,01205.1720,E,35.50,295.46,300114,,,A*5A
$GPGGA,063852.000,5406.0334,N,01204.9868,E,1,11,0.82,18.5,M,44.2,M,,*59
$GPRMC,063851.000,A,5406.0292,N,01205.0027,E,36.53,295.40,300114,,,A*54
$GPGGA,063904.000,5406.0805,N,01204.8183,E,1,11,0.82,15.9,M,44.2,M,,*5E
$GPRMC,063903.000,A,5406.0772,N,01204.8308,E,30.03,295.76,300114,,,A*58
$GPGGA,063918.000,5406.1283,N,01204.6475,E,1,11,0.81,14.6,M,44.2,M,,*59
$GPRMC,063917.000,A,5406.1244,N,01204.6617,E,32.50,295.26,300114,,,A*58
$GPGGA,063930.000,5406.1774,N,01204.4748,E,1,11,0.82,12.9,M,44.2,M,,*5B
$GPRMC,063929.000,A,5406.1732,N,01204.4895,E,34.27,295.80,300114,,,A*5D
$GPGGA,063942.000,5406.2241,N,01204.3082,E,1,11,0.82,11.7,M,44.2,M,,*55
$GPRMC,063941.000,A,5406.2205,N,01204.3209,E,30.36,295.55,300114,,,A*55
$GPGGA,063956.000,5406.2727,N,01204.1349,E,1,11,0.82,11.0,M,44.2,M,,*54
$GPRMC,063955.000,A,5406.2696,N,01204.1454,E,25.30,296.36,300114,,,A*56
$GPGGA,064017.000,5406.3123,N,01203.9608,E,1,11,0.82,8.4,M,44.2,M,,*6F
$GPRMC,064016.000,A,5406.3096,N,01203.9691,E,19.65,294.93,300114,,,A*5E
$GPGGA,064033.000,5406.4247,N,01203.9490,E,1,11,0.82,10.7,M,44.2,M,,*56
$GPRMC,064032.000,A,5406.4164,N,01203.9469,E,30.00,8.06,300114,,,A*55
$GPGGA,064047.000,5406.5362,N,01203.9777,E,1,11,0.82,9.4,M,44.2,M,,*63
$GPRMC,064046.000,A,5406.5283,N,01203.9754,E,28.84,9.37,300114,,,A*56
$GPGGA,064106.000,5406.6463,N,01204.0025,E,1,11,0.82,8.8,M,44.2,M,,*61
$GPRMC,064105.000,A,5406.6394,N,01204.0026,E,24.34,359.62,300114,,,A*59
$GPGGA,064126.000,5406.7561,N,01203.9970,E,1,10,0.83,7.1,M,44.2,M,,*60
$GPRMC,064125.000,A,5406.7517,N,01203.9976,E,16.17,355.01,300114,,,A*5C
ping
$GPGGA,064216.000,5406.8669,N,01203.9826,E,1,11,0.82,5.6,M,44.2,M,,*63
$GPRMC,064215.000,A,5406.8619,N,01203.9833,E,18.32,354.85,300114,,,A*5A
ping
ping
$GPGGA,064330.000,5406.9567,N,01203.8773,E,1,11,0.80,4.1,M,44.2,M,,*60
$GPRMC,064329.000,A,5406.9521,N,01203.8823,E,19.55,322.16,300114,,,A*56
ping
$GPGGA,064403.000,5407.0030,N,01203.7082,E,1,11,0.82,5.8,M,44.2,M,,*64
$GPRMC,064402.000,A,5407.0040,N,01203.7174,E,20.14,257.10,300114,,,A*5C
$GPGGA,064427.000,5406.9762,N,01203.5275,E,1,11,0.82,7.6,M,44.2,M,,*6E
$GPRMC,064426.000,A,5406.9783,N,01203.5378,E,22.50,252.31,300114,,,A*52
$GPGGA,064444.000,5406.9218,N,01203.3579,E,1,11,0.82,11.9,M,44.2,M,,*56
$GPRMC,064443.000,A,5406.9248,N,01203.3667,E,22.31,240.56,300114,,,A*5B
ping
$GPGGA,064523.000,5407.0082,N,01203.2477,E,1,11,0.82,8.7,M,44.2,M,,*67
$GPRMC,064522.000,A,5407.0029,N,01203.2515,E,19.94,337.05,300114,,,A*57
$GPGGA,064541.000,5407.1148,N,01203.2035,E,1,10,0.95,4.2,M,44.2,M,,*69
$GPRMC,064540.000,A,5407.1088,N,01203.2042,E,22.05,356.63,300114,,,A*59
$GPGGA,064559.000,5407.2251,N,01203.1725,E,1,11,0.82,1.4,M,44.2,M,,*69
$GPRMC,064558.000,A,5407.2198,N,01203.1761,E,20.42,338.21,300114,,,A*59
ping
ping
$DeviceName=pironex_auto
$Software=0.1.3
$Hardware=1
$LastValidPosition=
$IMEI=359193030849087
$LocalIP=10.34.107.19
$CmdVersion=2
$SUCCESS
$<end>
ping
$GPGGA,113506.000,5407.2350,N,01203.1538,E,1,11,0.75,-6.6,M,44.2,M,,*4C
$GPRMC,113505.000,V,,,,,0.82,85.67,300114,,,N*7F
$GPGGA,113523.000,5407.1244,N,01203.1920,E,1,10,0.82,37.1,M,44.2,M,,*58
$GPRMC,113522.000,A,5407.1302,N,01203.1913,E,23.42,175.96,300114,,,A*58
$GPGGA,113541.000,5407.0153,N,01203.2275,E,1,10,0.81,29.7,M,44.2,M,,*5A
$GPRMC,113540.000,A,5407.0205,N,01203.2236,E,20.95,157.92,300114,,,A*59
ping
$GPGGA,113618.000,5406.9165,N,01203.3003,E,1,10,0.81,37.5,M,44.2,M,,*57
$GPRMC,113617.000,A,5406.9201,N,01203.2977,E,15.34,154.29,300114,,,A*54
ping
$GPGGA,113707.000,5406.9576,N,01203.4790,E,1,9,0.91,27.3,M,44.2,M,,*6A
$GPRMC,113706.000,A,5406.9538,N,01203.4678,E,26.95,59.82,300114,,,A*68
$GPGGA,113722.000,5406.9831,N,01203.6606,E,1,10,0.81,21.3,M,44.2,M,,*50
$GPRMC,113721.000,A,5406.9812,N,01203.6480,E,26.97,76.72,300114,,,A*6F
$GPGGA,113737.000,5407.0041,N,01203.8417,E,1,10,0.81,20.9,M,44.2,M,,*54
$GPRMC,113736.000,A,5407.0065,N,01203.8331,E,20.08,105.39,300114,,,A*50
$GPGGA,113752.000,5406.9046,N,01203.9342,E,1,10,0.81,20.5,M,44.2,M,,*52
$GPRMC,113751.000,A,5406.9116,N,01203.9263,E,30.36,143.89,300114,,,A*5E
$GPGGA,113806.000,5406.7967,N,01203.9757,E,1,10,0.81,22.6,M,44.2,M,,*59
$GPRMC,113805.000,A,5406.8060,N,01203.9742,E,33.13,173.99,300114,,,A*51
$GPGGA,113817.000,5406.6886,N,01203.9877,E,1,10,0.81,24.6,M,44.2,M,,*5D
$GPRMC,113816.000,A,5406.6984,N,01203.9876,E,35.60,178.61,300114,,,A*58
$GPGGA,113828.000,5406.5808,N,01203.9690,E,1,10,0.81,26.0,M,44.2,M,,*57
$GPRMC,113827.000,A,5406.5904,N,01203.9720,E,35.23,189.99,300114,,,A*53
$GPGGA,113839.000,5406.4683,N,01203.9276,E,1,10,0.81,26.8,M,44.2,M,,*5F
$GPRMC,113839.000,A,5406.4770,N,01203.9315,E,34.30,194.82,300114,,,A*57
$GPGGA,113851.000,5406.3689,N,01203.8468,E,1,10,0.81,25.9,M,44.2,M,,*56
$GPRMC,113850.000,A,5406.3755,N,01203.8522,E,28.38,206.75,300114,,,A*5E
$GPGGA,113916.000,5406.2927,N,01203.9779,E,1,10,0.81,9.6,M,44.2,M,,*6D
$GPRMC,113915.000,A,5406.2938,N,01203.9622,E,31.83,98.70,300114,,,A*60
$GPGGA,113928.000,5406.2616,N,01204.1572,E,1,10,0.81,10.8,M,44.2,M,,*5D
$GPRMC,113927.000,A,5406.2654,N,01204.1440,E,31.36,114.43,300114,,,A*56
$GPGGA,113941.000,5406.2142,N,01204.3232,E,1,10,0.81,10.9,M,44.2,M,,*54
$GPRMC,113940.000,A,5406.2179,N,01204.3101,E,30.53,115.85,300114,,,A*54
$GPGGA,113955.000,5406.1644,N,01204.4994,E,1,10,0.81,10.2,M,44.2,M,,*58
$GPRMC,113954.000,A,5406.1680,N,01204.4866,E,29.83,115.48,300114,,,A*58
$GPGGA,114009.000,5406.1146,N,01204.6760,E,1,10,0.81,11.2,M,44.2,M,,*5C
$GPRMC,114008.000,A,5406.1181,N,01204.6634,E,29.17,115.28,300114,,,A*59
$GPGGA,114022.000,5406.0679,N,01204.8422,E,1,10,0.81,11.6,M,44.2,M,,*50
$GPRMC,114021.000,A,5406.0714,N,01204.8296,E,29.74,115.90,300114,,,A*5D
$GPGGA,114036.000,5406.0191,N,01205.0151,E,1,10,0.81,11.4,M,44.2,M,,*5E
$GPRMC,114035.000,A,5406.0226,N,01205.0026,E,29.35,115.59,300114,,,A*5C
$GPGGA,114050.000,5405.9711,N,01205.1856,E,1,10,0.81,9.6,M,44.2,M,,*6E
$GPRMC,114049.000,A,5405.9743,N,01205.1737,E,27.94,115.20,300114,,,A*56
$GPGGA,114104.000,5405.9201,N,01205.3580,E,1,10,0.81,6.6,M,44.2,M,,*61
$GPRMC,114103.000,A,5405.9244,N,01205.3464,E,29.00,121.55,300114,,,A*5A
$GPGGA,114119.000,5405.8338,N,01205.4845,E,1,9,0.98,6.3,M,44.2,M,,*51
$GPRMC,114118.000,A,5405.8401,N,01205.4781,E,26.32,148.97,300114,,,A*56
$GPGGA,114135.000,5405.7413,N,01205.5807,E,1,9,0.99,6.6,M,44.2,M,,*5D
$GPRMC,114134.000,A,5405.7469,N,01205.5750,E,23.12,148.20,300114,,,A*5F
$DeviceName=pironex_auto
$Software=0.1.3
$Hardware=1
$LastValidPosition=
$IMEI=359193030849087
$LocalIP=10.144.76.77
$CmdVersion=2
$SUCCESS
$<end>
ping
ping
$GPGGA,114751.000,5405.5573,N,01205.4699,E,1,9,0.90,34.9,M,44.2,M,,*63
$GPRMC,114750.000,A,5405.5616,N,01205.4656,E,17.52,148.99,300114,,,A*54
ping
$GPGGA,114824.000,5405.5660,N,01205.6561,E,1,10,0.81,31.3,M,44.2,M,,*5E
$GPRMC,114823.000,A,5405.5616,N,01205.6439,E,30.62,57.15,300114,,,A*6B
$GPGGA,114847.000,5405.5522,N,01205.8409,E,1,9,0.95,25.3,M,44.2,M,,*67
$GPRMC,114846.000,A,5405.5550,N,01205.8316,E,22.57,118.41,300114,,,A*53
ping
$GPGGA,114934.000,5405.5560,N,01206.0342,E,1,8,1.13,16.1,M,44.2,M,,*6B
$GPRMC,114933.000,A,5405.5547,N,01206.0215,E,26.17,80.82,300114,,,A*60
$GPGGA,114950.000,5405.5604,N,01206.2244,E,1,8,1.35,18.3,M,44.2,M,,*65
$GPRMC,114949.000,A,5405.5612,N,01206.2129,E,24.11,97.66,300114,,,A*68
$GPGGA,115015.000,5405.5652,N,01206.4082,E,1,9,0.95,19.5,M,44.2,M,,*6C
$GPRMC,115014.000,A,5405.5647,N,01206.4018,E,12.96,82.38,300114,,,A*68
$GPGGA,115034.000,5405.5795,N,01206.5988,E,1,8,1.12,18.3,M,44.2,M,,*6F
$GPRMC,115033.000,A,5405.5785,N,01206.5871,E,24.94,82.92,300114,,,A*63
$GPGGA,115050.000,5405.6255,N,01206.7748,E,1,8,1.12,11.9,M,44.2,M,,*64
$GPRMC,115049.000,A,5405.6226,N,01206.7633,E,26.52,65.36,300114,,,A*64
$GPGGA,115106.000,5405.6189,N,01206.9632,E,1,9,0.93,11.8,M,44.2,M,,*6E
$GPRMC,115105.000,A,5405.6211,N,01206.9522,E,24.36,109.15,300114,,,A*5E
$GPGGA,115122.000,5405.5779,N,01207.1444,E,1,9,0.94,11.8,M,44.2,M,,*6F
$GPRMC,115121.000,A,5405.5803,N,01207.1342,E,23.92,111.89,300114,,,A*5E
$GPGGA,115144.000,5405.5362,N,01207.3236,E,1,9,0.94,4.9,M,44.2,M,,*55
$GPRMC,115143.000,A,5405.5383,N,01207.3130,E,23.49,108.62,300114,,,A*57
$GPGGA,115201.000,5405.5224,N,01207.5104,E,1,9,0.94,0.3,M,44.2,M,,*5E
$GPRMC,115200.000,A,5405.5227,N,01207.5006,E,20.93,92.06,300114,,,A*6A
$GPGGA,115218.000,5405.5194,N,01207.6948,E,1,9,0.94,-2.0,M,44.1,M,,*72
$GPRMC,115217.000,A,5405.5196,N,01207.6829,E,24.87,91.24,300114,,,A*61
$GPGGA,115233.000,5405.5172,N,01207.8896,E,1,9,0.94,-3.7,M,44.1,M,,*79
$GPRMC,115232.000,A,5405.5173,N,01207.8756,E,29.92,91.39,300114,,,A*61
$GPGGA,115247.000,5405.5335,N,01208.0799,E,1,8,1.10,-4.7,M,44.1,M,,*77
$GPRMC,115246.000,A,5405.5316,N,01208.0659,E,30.41,76.55,300114,,,A*6F
$GPGGA,115302.000,5405.5473,N,01208.2712,E,1,8,1.13,-4.8,M,44.1,M,,*7F
$GPRMC,115301.000,A,5405.5476,N,01208.2589,E,26.15,88.83,300114,,,A*6C
$GPGGA,115315.000,5405.5436,N,01208.4564,E,1,8,1.36,-4.7,M,44.1,M,,*75
$GPRMC,115314.000,A,5405.5441,N,01208.4413,E,31.57,93.52,300114,,,A*6E
$GPGGA,115327.000,5405.5420,N,01208.6425,E,1,8,1.13,-3.6,M,44.1,M,,*74
$GPRMC,115326.000,A,5405.5420,N,01208.6275,E,32.41,90.51,300114,,,A*68
ping
$GPGGA,115402.000,5405.5257,N,01208.8249,E,1,8,1.36,1.0,M,44.1,M,,*5E
$GPRMC,115401.000,A,5405.5276,N,01208.8179,E,15.61,113.82,300114,,,A*5D
ping
$GPGGA,115441.000,5405.4712,N,01208.9920,E,1,10,0.81,-4.3,M,44.1,M,,*46
$GPRMC,115440.000,A,5405.4738,N,01208.9829,E,21.20,117.21,300114,,,A*54
$GPGGA,115457.000,5405.4424,N,01209.1800,E,1,10,0.81,-3.3,M,44.1,M,,*4A
$GPRMC,115456.000,A,5405.4432,N,01209.1671,E,27.07,96.91,300114,,,A*60
$GPGGA,115511.000,5405.4293,N,01209.3745,E,1,10,0.81,-8.0,M,44.1,M,,*47
$GPRMC,115510.000,A,5405.4304,N,01209.3599,E,31.27,96.81,300114,,,A*62
$GPGGA,115524.000,5405.4224,N,01209.5660,E,1,10,0.81,-10.0,M,44.1,M,,*74
$GPRMC,115523.000,A,5405.4220,N,01209.5537,E,26.31,86.50,300114,,,A*6B
$GPGGA,115547.000,5405.3809,N,01209.7404,E,1,10,0.81,-13.5,M,44.1,M,,*77
$GPRMC,115546.000,A,5405.3903,N,01209.7351,E,33.95,161.43,300114,,,A*51
$GPGGA,115558.000,5405.2723,N,01209.7912,E,1,10,0.80,-11.3,M,44.1,M,,*70
$GPRMC,115557.000,A,5405.2811,N,01209.7872,E,33.27,163.44,300114,,,A*54
$GPGGA,115614.000,5405.1636,N,01209.8426,E,1,10,0.80,-11.5,M,44.1,M,,*7E
$GPRMC,115613.000,A,5405.1709,N,01209.8389,E,27.34,164.08,300114,,,A*5A
$GPGGA,115629.000,5405.0540,N,01209.8968,E,1,10,0.81,-11.5,M,44.1,M,,*75
$GPRMC,115628.000,A,5405.0613,N,01209.8927,E,27.27,164.74,300114,,,A*5E
$GPGGA,115643.000,5404.9476,N,01209.9500,E,1,9,0.93,-7.0,M,44.1,M,,*7F
$GPRMC,115642.000,A,5404.9553,N,01209.9462,E,28.91,163.97,300114,,,A*58
ping
ping
ping
$GPGGA,115835.000,5404.8810,N,01210.1004,E,1,8,1.07,1.6,M,44.1,M,,*5C
$GPRMC,115834.000,A,5404.8802,N,01210.0835,E,34.42,86.14,300114,,,A*62
$GPGGA,115846.000,5404.8860,N,01210.2949,E,1,9,0.92,8.7,M,44.1,M,,*58
$GPRMC,115845.000,A,5404.8859,N,01210.2790,E,34.31,89.94,300114,,,A*6B
$GPGGA,115859.000,5404.8835,N,01210.4909,E,1,9,0.87,14.9,M,44.1,M,,*63
$GPRMC,115858.000,A,5404.8838,N,01210.4779,E,28.66,92.20,300114,,,A*6B
ping
ping
ping
ping
$GPGGA,120124.000,5404.9746,N,01210.5922,E,1,10,0.80,20.3,M,44.1,M,,*56
$GPRMC,120123.000,A,5404.9720,N,01210.5938,E,10.23,344.41,300114,,,A*50
$DeviceName=pironex_auto
$Software=0.1.3
$Hardware=1
$LastValidPosition=
$IMEI=359193030849087
$LocalIP=10.148.103.241
$CmdVersion=2
$SUCCESS
$<end>
ping
$GPGGA,152111.000,5404.9046,N,01210.7545,E,1,11,0.87,-15.9,M,44.1,M,,*7A
$GPRMC,152110.000,V,,,,,20.15,184.22,300114,,,N*77
ping
$GPGGA,152207.000,5404.8846,N,01210.5687,E,1,14,0.71,22.2,M,44.1,M,,*56
$GPRMC,152206.000,A,5404.8843,N,01210.5807,E,25.32,271.94,300114,,,A*5E
$GPGGA,152228.000,5404.8887,N,01210.3809,E,1,14,0.74,21.7,M,44.1,M,,*5B
$GPRMC,152227.000,A,5404.8884,N,01210.3910,E,20.88,271.96,300114,,,A*51
$GPGGA,152244.000,5404.8878,N,01210.1962,E,1,13,0.75,18.4,M,44.1,M,,*50
$GPRMC,152243.000,A,5404.8882,N,01210.2078,E,24.40,267.01,300114,,,A*5A
$GPGGA,152300.000,5404.8849,N,01210.0073,E,1,14,0.74,12.3,M,44.1,M,,*50
$GPRMC,152259.000,A,5404.8850,N,01210.0163,E,20.63,267.95,300114,,,A*5F
$GPGGA,152318.000,5404.9908,N,01209.9357,E,1,14,0.74,-0.6,M,44.1,M,,*43
$GPRMC,152317.000,A,5404.9834,N,01209.9393,E,27.63,343.76,300114,,,A*56
$GPGGA,152332.000,5405.0982,N,01209.8811,E,1,14,0.74,-3.1,M,44.1,M,,*4D
$GPRMC,152331.000,A,5405.0902,N,01209.8849,E,30.25,344.24,300114,,,A*57
$GPGGA,152345.000,5405.2051,N,01209.8319,E,1,14,0.71,-6.2,M,44.1,M,,*48
$GPRMC,152344.000,A,5405.1977,N,01209.8353,E,27.73,343.40,300114,,,A*56
$GPGGA,152358.000,5405.3087,N,01209.7821,E,1,14,0.74,-8.3,M,44.1,M,,*4B
$GPRMC,152357.000,A,5405.3010,N,01209.7857,E,28.86,344.28,300114,,,A*52
$GPGGA,152412.000,5405.4124,N,01209.7264,E,1,14,0.74,-14.1,M,44.1,M,,*79
$GPRMC,152411.000,A,5405.4074,N,01209.7293,E,21.08,341.45,300114,,,A*51
ping
$GPGGA,152443.000,5405.4262,N,01209.5357,E,1,14,0.74,-11.8,M,44.1,M,,*73
$GPRMC,152442.000,A,5405.4276,N,01209.5484,E,26.88,260.51,300114,,,A*5D
$GPGGA,152502.000,5405.4352,N,01209.3486,E,1,14,0.74,-11.4,M,44.1,M,,*74
$GPRMC,152501.000,A,5405.4344,N,01209.3620,E,26.29,277.16,300114,,,A*5F
$GPGGA,152518.000,5405.4471,N,01209.1594,E,1,14,0.73,-11.0,M,44.1,M,,*7A
$GPRMC,152517.000,A,5405.4465,N,01209.1671,E,17.88,276.95,300114,,,A*59
ping
$GPGGA,152616.000,5405.4802,N,01208.9735,E,1,11,0.87,-15.3,M,44.1,M,,*76
$GPRMC,152615.000,A,5405.4769,N,01208.9852,E,27.14,294.31,300114,,,A*55
$GPGGA,152629.000,5405.5310,N,01208.8017,E,1,13,0.88,-16.1,M,44.1,M,,*79
$GPRMC,152628.000,A,5405.5274,N,01208.8151,E,31.99,294.41,300114,,,A*5D
ping
ping
ping
$GPGGA,152819.000,5405.5429,N,01208.6191,E,1,12,0.77,-13.1,M,44.1,M,,*7C
$GPRMC,152818.000,A,5405.5430,N,01208.6230,E,7.28,271.05,300114,,,A*68
ping
$GPGGA,152907.000,5405.4826,N,01208.4667,E,1,12,0.75,-6.5,M,44.1,M,,*4E
$GPRMC,152906.000,A,5405.4825,N,01208.4694,E,6.18,272.56,300114,,,A*60
ping
$DeviceName=pironex_auto
$Software=0.1.3
$Hardware=1
$LastValidPosition=
$IMEI=359193030849087
$LocalIP=10.46.101.158
$CmdVersion=2
$SUCCESS
$<end>
ping
ping
ping
$GPGGA,062235.000,5405.4986,N,01208.5474,E,1,9,0.97,29.5,M,44.1,M,,*6A
$GPRMC,062234.000,V,,,,,0.21,0.00,310114,,,N*49
$GPGGA,062302.000,5405.5357,N,01208.7208,E,1,10,0.91,20.2,M,44.1,M,,*57
$GPRMC,062301.000,A,5405.5360,N,01208.7125,E,18.18,98.51,310114,,,A*65
$GPGGA,062330.000,5405.5002,N,01208.8941,E,1,10,0.97,7.6,M,44.1,M,,*6B
$GPRMC,062329.000,A,5405.5016,N,01208.8895,E,10.71,117.13,310114,,,A*57
$GPGGA,062357.000,5405.4546,N,01209.0630,E,1,11,0.82,-2.6,M,44.1,M,,*43
$GPRMC,062356.000,A,5405.4565,N,01209.0527,E,22.63,108.85,310114,,,A*51
$GPGGA,062412.000,5405.4364,N,01209.2441,E,1,11,0.82,1.3,M,44.1,M,,*6E
$GPRMC,062411.000,A,5405.4372,N,01209.2323,E,25.76,96.26,310114,,,A*69
$GPGGA,062427.000,5405.4232,N,01209.4395,E,1,11,0.82,-1.4,M,44.1,M,,*48
$GPRMC,062426.000,A,5405.4241,N,01209.4255,E,29.49,96.38,310114,,,A*65
$GPGGA,062441.000,5405.4255,N,01209.6238,E,1,11,0.82,-2.5,M,44.1,M,,*4F
$GPRMC,062440.000,A,5405.4241,N,01209.6094,E,30.75,80.95,310114,,,A*6F
$GPGGA,062503.000,5405.3497,N,01209.7563,E,1,11,0.82,-3.9,M,44.1,M,,*42
$GPRMC,062502.000,A,5405.3580,N,01209.7524,E,31.05,163.83,310114,,,A*57
$GPGGA,062518.000,5405.2433,N,01209.8068,E,1,11,0.82,-2.5,M,44.1,M,,*4B
$GPRMC,062517.000,A,5405.2501,N,01209.8034,E,25.22,163.73,310114,,,A*5F
$GPGGA,062533.000,5405.1349,N,01209.8589,E,1,11,0.82,-2.6,M,44.1,M,,*42
$GPRMC,062532.000,A,5405.1424,N,01209.8554,E,27.81,164.51,310114,,,A*52
$GPGGA,062547.000,5405.0299,N,01209.9105,E,1,11,0.82,-2.1,M,44.1,M,,*4A
$GPRMC,062546.000,A,5405.0370,N,01209.9070,E,27.20,163.96,310114,,,A*53
$GPGGA,062604.000,5404.9236,N,01209.9668,E,1,11,0.82,2.4,M,44.1,M,,*67
$GPRMC,062603.000,A,5404.9286,N,01209.9639,E,20.47,162.44,310114,,,A*52
ping
ping
$GPGGA,062737.000,5404.8799,N,01210.1400,E,1,11,0.82,7.7,M,44.1,M,,*6D
$GPRMC,062736.000,A,5404.8792,N,01210.1279,E,25.19,85.19,310114,,,A*6A
$GPGGA,062752.000,5404.8835,N,01210.3261,E,1,11,0.82,14.2,M,44.1,M,,*53
$GPRMC,062751.000,A,5404.8840,N,01210.3141,E,25.31,91.63,310114,,,A*63
$GPGGA,062807.000,5404.8794,N,01210.5095,E,1,11,0.81,17.6,M,44.1,M,,*53
$GPRMC,062806.000,A,5404.8796,N,01210.4977,E,24.84,91.65,310114,,,A*69
ping
ping
$GPGGA,062920.000,5404.8144,N,01210.6636,E,1,11,0.82,21.3,M,44.1,M,,*53
$GPRMC,062919.000,A,5404.8236,N,01210.6584,E,34.18,161.00,310114,,,A*52
$GPGGA,062932.000,5404.7095,N,01210.7066,E,1,11,0.82,15.7,M,44.1,M,,*53
$GPRMC,062931.000,A,5404.7169,N,01210.7077,E,25.49,184.95,310114,,,A*55
$GPGGA,062946.000,5404.5985,N,01210.6842,E,1,11,0.82,13.4,M,44.1,M,,*50
$GPRMC,062945.000,A,5404.6065,N,01210.6870,E,30.28,190.34,310114,,,A*59
ping
$GPGGA,063018.000,5404.4978,N,01210.7607,E,1,10,0.97,17.3,M,44.1,M,,*58
$GPRMC,063017.000,A,5404.4995,N,01210.7507,E,22.20,106.39,310114,,,A*57
ping
$DeviceName=pironex_auto
$Software=0.1.3
$Hardware=1
$LastValidPosition=
$IMEI=359193030849087
$LocalIP=10.33.33.171
$CmdVersion=2
$SUCCESS
$<end>
$GPGGA,103605.000,5404.5059,N,01210.7806,E,1,8,1.00,30.0,M,44.1,M,,*61
$GPRMC,103604.000,V,,,,,0.14,204.99,310114,,,N*48
ping
$GPGGA,103650.000,5404.5995,N,01210.6866,E,1,8,1.19,27.1,M,44.1,M,,*60
$GPRMC,103649.000,A,5404.5930,N,01210.6840,E,23.42,14.17,310114,,,A*67
$GPGGA,103706.000,5404.7088,N,01210.7076,E,1,8,1.19,31.3,M,44.1,M,,*68
$GPRMC,103705.000,A,5404.7021,N,01210.7070,E,23.28,4.96,310114,,,A*5B
$GPGGA,103722.000,5404.8167,N,01210.6611,E,1,8,1.13,30.0,M,44.1,M,,*6F
$GPRMC,103721.000,A,5404.8099,N,01210.6651,E,26.18,341.01,310114,,,A*5F
ping
$GPGGA,103812.000,5404.9200,N,01210.6066,E,1,9,0.94,29.7,M,44.1,M,,*66
$GPRMC,103811.000,A,5404.9172,N,01210.6079,E,10.42,345.65,310114,,,A*56
ping
$DeviceName=pironex_auto
$Software=0.1.3
$Hardware=1
$LastValidPosition=
$IMEI=359193030849087
$LocalIP=10.76.55.47
$CmdVersion=2
$SUCCESS
$<end>
ping
ping
ping
$GPGGA,152258.000,5404.8872,N,01210.7590,E,1,11,0.87,32.8,M,44.1,M,,*5B
$GPRMC,152257.000,V,,,,,0.10,204.76,310114,,,N*4B
ping
ping
$GPGGA,152418.000,5404.8854,N,01210.5661,E,1,11,1.02,34.9,M,44.1,M,,*59
$GPRMC,152417.000,A,5404.8851,N,01210.5787,E,26.60,273.45,310114,,,A*57
$GPGGA,152433.000,5404.8899,N,01210.3763,E,1,12,0.85,32.1,M,44.1,M,,*57
$GPRMC,152432.000,A,5404.8897,N,01210.3889,E,26.71,271.88,310114,,,A*5E
$GPGGA,152447.000,5404.8894,N,01210.1860,E,1,12,0.80,28.1,M,44.1,M,,*59
$GPRMC,152446.000,A,5404.8897,N,01210.2004,E,30.21,268.33,310114,,,A*5B
$GPGGA,152502.000,5404.8868,N,01209.9987,E,1,12,0.80,20.8,M,44.1,M,,*53
$GPRMC,152501.000,A,5404.8867,N,01210.0057,E,16.85,269.27,310114,,,A*5C
$GPGGA,152520.000,5404.9911,N,01209.9335,E,1,12,0.80,10.1,M,44.1,M,,*54
$GPRMC,152519.000,A,5404.9835,N,01209.9372,E,28.25,343.29,310114,,,A*56
$GPGGA,152533.000,5405.0955,N,01209.8815,E,1,12,0.80,7.1,M,44.1,M,,*60
$GPRMC,152532.000,A,5405.0866,N,01209.8857,E,32.92,343.96,310114,,,A*5F
$GPGGA,152544.000,5405.1997,N,01209.8324,E,1,11,0.88,5.9,M,44.1,M,,*67
$GPRMC,152543.000,A,5405.1900,N,01209.8370,E,35.80,343.62,310114,,,A*58
$GPGGA,152556.000,5405.3119,N,01209.7791,E,1,12,0.80,4.3,M,44.1,M,,*6D
$GPRMC,152555.000,A,5405.3027,N,01209.7834,E,34.53,344.29,310114,,,A*52
$GPGGA,152608.000,5405.4194,N,01209.7236,E,1,12,0.80,3.0,M,44.1,M,,*6B
$GPRMC,152607.000,A,5405.4118,N,01209.7277,E,30.27,341.91,310114,,,A*50
ping
ping
$GPGGA,152724.000,5405.4265,N,01209.5385,E,1,12,0.80,3.9,M,44.1,M,,*6B
$GPRMC,152723.000,A,5405.4280,N,01209.5526,E,29.92,258.26,310114,,,A*57
$GPGGA,152736.000,5405.4350,N,01209.3527,E,1,12,0.80,5.1,M,44.1,M,,*69
$GPRMC,152735.000,A,5405.4338,N,01209.3678,E,32.16,277.92,310114,,,A*58
$GPGGA,152749.000,5405.4475,N,01209.1673,E,1,12,0.80,5.2,M,44.1,M,,*62
$GPRMC,152748.000,A,5405.4466,N,01209.1803,E,28.17,276.32,310114,,,A*5F
$GPGGA,152802.000,5405.4788,N,01208.9836,E,1,11,0.88,1.3,M,44.1,M,,*6B
$GPRMC,152801.000,A,5405.4760,N,01208.9968,E,30.94,289.70,310114,,,A*59
ping
$GPGGA,152836.000,5405.5276,N,01208.8177,E,1,11,0.94,-0.3,M,44.1,M,,*45
$GPRMC,152835.000,A,5405.5251,N,01208.8270,E,22.10,294.98,310114,,,A*5E
ping
$GPGGA,152925.000,5405.5418,N,01208.6323,E,1,12,0.80,0.0,M,44.1,M,,*6D
$GPRMC,152924.000,A,5405.5416,N,01208.6373,E,9.18,271.22,310114,,,A*6D
ping
$GPGGA,153015.000,5405.4813,N,01208.4799,E,1,9,1.08,14.8,M,44.1,M,,*61
$GPRMC,153014.000,A,5405.4811,N,01208.4853,E,12.03,273.93,310114,,,A*5F
ping
$DeviceName=pironex_auto
$Software=0.1.3
$Hardware=1
$LastValidPosition=
$IMEI=359193030849087
$LocalIP=10.40.226.35
$CmdVersion=2
$SUCCESS
$<end>
ping
ping
ping
ping
ping
$GPGGA,153953.000,5405.4451,N,01208.5787,E,1,10,0.92,16.7,M,44.1,M,,*59
$GPRMC,153952.000,A,5405.4449,N,01208.5749,E,8.64,77.68,310114,,,A*58
ping
$GPGGA,154030.000,5405.3365,N,01208.6160,E,1,9,1.01,20.2,M,44.1,M,,*6A
$GPRMC,154029.000,A,5405.3403,N,01208.6159,E,16.69,169.03,310114,,,A*56
$GPGGA,154058.000,5405.2298,N,01208.6603,E,1,11,0.95,18.0,M,44.1,M,,*58
$GPRMC,154057.000,A,5405.2322,N,01208.6596,E,9.56,163.71,310114,,,A*60
$GPGGA,154126.000,5405.1178,N,01208.6664,E,1,11,0.95,15.1,M,44.1,M,,*53
$GPRMC,154125.000,A,5405.1226,N,01208.6652,E,17.15,172.16,310114,,,A*50
ping
$GPGGA,154228.000,5405.1960,N,01208.7947,E,1,8,1.13,10.8,M,44.1,M,,*6B
$GPRMC,154227.000,A,5405.1956,N,01208.7837,E,23.67,83.58,310114,,,A*66
$GPGGA,154244.000,5405.1331,N,01208.9463,E,1,11,0.95,7.2,M,44.1,M,,*61
$GPRMC,154243.000,A,5405.1373,N,01208.9377,E,23.45,128.84,310114,,,A*59
$GPGGA,154301.000,5405.0606,N,01209.0966,E,1,11,0.95,6.7,M,44.1,M,,*65
$GPRMC,154300.000,A,5405.0650,N,01209.0874,E,24.94,129.04,310114,,,A*58
$GPGGA,154319.000,5404.9889,N,01209.2405,E,1,10,0.96,7.0,M,44.1,M,,*63
$GPRMC,154318.000,A,5404.9930,N,01209.2330,E,21.29,140.31,310114,,,A*53
$GPGGA,154341.000,5404.9313,N,01209.3960,E,1,9,1.03,5.1,M,44.1,M,,*5F
$GPRMC,154340.000,A,5404.9331,N,01209.3877,E,18.21,95.53,310114,,,A*63
$GPGGA,154405.000,5404.8760,N,01209.5632,E,1,11,0.95,8.6,M,44.1,M,,*6A
$GPRMC,154404.000,A,5404.8773,N,01209.5531,E,21.48,104.89,310114,,,A*55
$GPGGA,154420.000,5404.8742,N,01209.7489,E,1,10,0.95,9.6,M,44.1,M,,*6D
$GPRMC,154419.000,A,5404.8742,N,01209.7360,E,27.22,90.30,310114,,,A*6F
$GPGGA,154441.000,5404.8733,N,01209.9331,E,1,11,0.95,15.6,M,44.1,M,,*5A
$GPRMC,154440.000,A,5404.8733,N,01209.9305,E,6.77,84.89,310114,,,A*5C
ping
$GPGGA,154521.000,5404.8803,N,01210.1216,E,1,12,0.79,18.0,M,44.1,M,,*5F
$GPRMC,154520.000,A,5404.8796,N,01210.1078,E,29.07,85.10,310114,,,A*66
$GPGGA,154540.000,5404.8837,N,01210.3061,E,1,13,0.77,24.3,M,44.1,M,,*5C
$GPRMC,154539.000,A,5404.8838,N,01210.3002,E,11.68,90.88,310114,,,A*6D
$GPGGA,154602.000,5404.8812,N,01210.4919,E,1,13,0.87,29.2,M,44.1,M,,*5C
$GPRMC,154601.000,A,5404.8812,N,01210.4888,E,6.70,91.01,310114,,,A*5F
ping
ping
$GPGGA,154718.000,5404.9600,N,01210.6216,E,1,13,0.77,16.8,M,44.1,M,,*55
$GPRMC,154717.000,A,5404.9599,N,01210.6146,E,14.34,89.45,310114,,,A*65
$GPGGA,154749.000,5404.9041,N,01210.7782,E,1,14,0.71,20.5,M,44.1,M,,*52
$GPRMC,154748.000,A,5404.9086,N,01210.7785,E,17.01,181.86,310114,,,A*5F
ping
ping
ping
$GPGGA,154931.000,5404.8826,N,01210.5935,E,1,13,0.79,20.1,M,44.1,M,,*50
$GPRMC,154930.000,A,5404.8825,N,01210.6066,E,26.25,269.63,310114,,,A*5F
$GPGGA,154944.000,5404.8866,N,01210.4054,E,1,13,0.76,16.3,M,44.1,M,,*51
$GPRMC,154943.000,A,5404.8863,N,01210.4209,E,32.12,272.01,310114,,,A*5F
$GPGGA,154956.000,5404.8868,N,01210.2220,E,1,13,0.79,8.7,M,44.1,M,,*6F
$GPRMC,154955.000,A,5404.8871,N,01210.2370,E,31.94,267.93,310114,,,A*50
$GPGGA,155009.000,5404.8844,N,01210.0371,E,1,13,0.75,-0.3,M,44.1,M,,*49
$GPRMC,155008.000,A,5404.8847,N,01210.0508,E,30.29,268.63,310114,,,A*59
$GPGGA,155028.000,5404.9813,N,01209.9404,E,1,14,0.75,-10.6,M,44.1,M,,*7E
$GPRMC,155027.000,A,5404.9734,N,01209.9441,E,29.03,343.67,310114,,,A*5F
$GPGGA,155042.000,5405.0895,N,01209.8863,E,1,14,0.75,-10.9,M,44.1,M,,*77
$GPRMC,155041.000,A,5405.0820,N,01209.8903,E,28.49,343.61,310114,,,A*5E
$GPGGA,155057.000,5405.1994,N,01209.8347,E,1,14,0.75,-11.0,M,44.1,M,,*77
$GPRMC,155056.000,A,5405.1920,N,01209.8378,E,27.01,343.67,310114,,,A*5B
$GPGGA,155111.000,5405.3029,N,01209.7836,E,1,14,0.75,-11.6,M,44.1,M,,*7D
$GPRMC,155110.000,A,5405.2956,N,01209.7872,E,27.39,343.98,310114,,,A*5F
$GPGGA,155125.000,5405.4083,N,01209.7297,E,1,14,0.75,-11.7,M,44.1,M,,*7D
$GPRMC,155124.000,A,5405.4014,N,01209.7336,E,27.23,341.89,310114,,,A*53
ping
ping
ping
$GPGGA,155304.000,5405.4266,N,01209.5374,E,1,14,0.75,-9.5,M,44.1,M,,*40
$GPRMC,155303.000,A,5405.4282,N,01209.5509,E,28.45,257.87,310114,,,A*56
$GPGGA,155316.000,5405.4329,N,01209.3490,E,1,14,0.75,-9.3,M,44.1,M,,*44
$GPRMC,155315.000,A,5405.4318,N,01209.3658,E,35.47,276.57,310114,,,A*52
$GPGGA,155328.000,5405.4457,N,01209.1614,E,1,14,0.75,-9.6,M,44.1,M,,*4E
$GPRMC,155327.000,A,5405.4445,N,01209.1759,E,31.30,276.63,310114,,,A*5D
$GPGGA,155342.000,5405.4808,N,01208.9753,E,1,12,0.82,-13.2,M,44.1,M,,*7E
$GPRMC,155341.000,A,5405.4778,N,01208.9866,E,27.03,294.55,310114,,,A*54
$GPGGA,155403.000,5405.5322,N,01208.8019,E,1,14,0.75,-14.2,M,44.1,M,,*7F
$GPRMC,155402.000,A,5405.5295,N,01208.8134,E,25.83,293.42,310114,,,A*57
ping
ping
$GPGGA,155509.000,5405.5423,N,01208.6193,E,1,12,0.87,-13.0,M,44.1,M,,*71
$GPRMC,155508.000,A,5405.5422,N,01208.6263,E,16.02,270.66,310114,,,A*5B
ping
$GPGGA,155553.000,5405.4825,N,01208.4652,E,1,9,2.25,-8.3,M,44.1,M,,*74
$GPRMC,155552.000,A,5405.4825,N,01208.4700,E,12.39,271.59,310114,,,A*5D
ping
$DeviceName=pironex_auto
$Software=0.1.3
$Hardware=1
$LastValidPosition=
$IMEI=359193030849087
$LocalIP=10.150.12.177
$CmdVersion=2
$SUCCESS
$<end>
ping
$GPGGA,050528.000,5245.1772,N,01251.4979,E,1,13,0.84,36.5,M,45.0,M,,*58
$GPRMC,050527.000,V,,,,,34.88,106.70,050214,,,N*7D
$GPGGA,050537.000,5245.1434,N,01251.6886,E,1,13,0.84,36.2,M,45.0,M,,*53
$GPRMC,050536.000,A,5245.1477,N,01251.6649,E,53.04,106.62,050214,,,A*51
$GPGGA,050544.000,5245.1107,N,01251.8719,E,1,13,0.84,37.1,M,45.0,M,,*57
$GPRMC,050543.000,A,5245.1154,N,01251.8441,E,62.38,105.86,050214,,,A*57
$GPGGA,050550.000,5245.0810,N,01252.0489,E,1,13,0.84,38.1,M,45.0,M,,*52
$GPRMC,050549.000,A,5245.0861,N,01252.0185,E,68.36,105.87,050214,,,A*50
$GPGGA,050556.000,5245.0484,N,01252.2383,E,1,14,0.74,38.0,M,45.0,M,,*53
$GPRMC,050555.000,A,5245.0540,N,01252.2061,E,72.85,105.69,050214,,,A*59
$GPGGA,050602.000,5245.0140,N,01252.4377,E,1,14,0.74,36.2,M,45.0,M,,*5D
$GPRMC,050601.000,A,5245.0198,N,01252.4036,E,76.66,105.98,050214,,,A*59
$GPGGA,050607.000,5244.9836,N,01252.6116,E,1,14,0.74,34.6,M,45.0,M,,*59
$GPRMC,050606.000,A,5244.9899,N,01252.5766,E,79.35,106.28,050214,,,A*5C
$GPGGA,050612.000,5244.9512,N,01252.7890,E,1,14,0.74,34.5,M,45.0,M,,*53
$GPRMC,050611.000,A,5244.9577,N,01252.7533,E,81.23,106.81,050214,,,A*54
$GPGGA,050617.000,5244.9173,N,01252.9653,E,1,14,0.74,35.0,M,45.0,M,,*5E
$GPRMC,050616.000,A,5244.9244,N,01252.9302,E,80.97,108.22,050214,,,A*57
$GPGGA,050622.000,5244.8819,N,01253.1371,E,1,14,0.74,36.5,M,45.0,M,,*56
$GPRMC,050621.000,A,5244.8890,N,01253.1032,E,78.41,108.94,050214,,,A*59
$GPGGA,050627.000,5244.8439,N,01253.3051,E,1,14,0.74,37.2,M,45.0,M,,*58
$GPRMC,050626.000,A,5244.8519,N,01253.2714,E,78.76,111.08,050214,,,A*5B
$GPGGA,050632.000,5244.8013,N,01253.4766,E,1,13,0.92,36.2,M,45.0,M,,*5A
$GPRMC,050631.000,A,5244.8103,N,01253.4419,E,81.72,112.87,050214,,,A*5C
$GPGGA,050637.000,5244.7542,N,01253.6520,E,1,14,0.74,34.7,M,45.0,M,,*5B
$GPRMC,050636.000,A,5244.7640,N,01253.6169,E,84.36,114.54,050214,,,A*59
$GPGGA,050642.000,5244.7033,N,01253.8267,E,1,14,0.74,32.9,M,45.0,M,,*58
$GPRMC,050641.000,A,5244.7137,N,01253.7922,E,84.36,116.16,050214,,,A*5C
$GPGGA,050647.000,5244.6503,N,01253.9926,E,1,14,0.74,31.7,M,45.0,M,,*58
$GPRMC,050646.000,A,5244.6609,N,01253.9603,E,80.54,117.99,050214,,,A*54
$GPGGA,050652.000,5244.5955,N,01254.1515,E,1,14,0.74,30.4,M,45.0,M,,*51
$GPRMC,050651.000,A,5244.6067,N,01254.1202,E,79.20,119.70,050214,,,A*5A
$GPGGA,050658.000,5244.5281,N,01254.3331,E,1,14,0.74,29.3,M,45.0,M,,*54
$GPRMC,050657.000,A,5244.5395,N,01254.3030,E,76.86,121.71,050214,,,A*59
$GPGGA,050703.000,5244.4695,N,01254.4830,E,1,14,0.74,28.9,M,45.0,M,,*5D
$GPRMC,050702.000,A,5244.4816,N,01254.4531,E,77.88,123.09,050214,,,A*58
$GPGGA,050708.000,5244.4062,N,01254.6336,E,1,14,0.74,28.1,M,45.0,M,,*5F
$GPRMC,050707.000,A,5244.4192,N,01254.6033,E,80.86,124.97,050214,,,A*5B
$GPGGA,050713.000,5244.3398,N,01254.7838,E,1,13,0.77,27.6,M,45.0,M,,*5C
$GPRMC,050712.000,A,5244.3534,N,01254.7539,E,81.46,126.51,050214,,,A*5B
$GPGGA,050718.000,5244.2705,N,01254.9310,E,1,14,0.74,26.9,M,45.0,M,,*53
$GPRMC,050717.000,A,5244.2842,N,01254.9022,E,80.55,128.02,050214,,,A*59
$GPGGA,050723.000,5244.2020,N,01255.0718,E,1,14,0.74,26.6,M,45.0,M,,*50
$GPRMC,050722.000,A,5244.2157,N,01255.0436,E,79.22,128.58,050214,,,A*52
$GPGGA,050729.000,5244.1216,N,01255.2331,E,1,13,0.91,26.3,M,44.9,M,,*52
$GPRMC,050728.000,A,5244.1346,N,01255.2073,E,73.74,129.58,050214,,,A*56
$GPGGA,050735.000,5244.0447,N,01255.3856,E,1,13,0.91,26.0,M,44.9,M,,*54
$GPRMC,050734.000,A,5244.0573,N,01255.3606,E,71.58,129.64,050214,,,A*5C
$GPGGA,050741.000,5243.9687,N,01255.5359,E,1,12,0.95,26.1,M,44.9,M,,*51
$GPRMC,050740.000,A,5243.9815,N,01255.5107,E,71.77,129.82,050214,,,A*59
$GPGGA,050747.000,5243.8930,N,01255.6855,E,1,11,0.98,26.8,M,44.9,M,,*56
$GPRMC,050746.000,A,5243.9057,N,01255.6604,E,71.04,129.47,050214,,,A*5B
$GPGGA,050753.000,5243.8151,N,01255.8401,E,1,11,0.94,26.8,M,44.9,M,,*53
$GPRMC,050752.000,A,5243.8284,N,01255.8137,E,74.53,129.68,050214,,,A*50
$GPGGA,050759.000,5243.7346,N,01255.9999,E,1,11,0.89,27.2,M,44.9,M,,*58
$GPRMC,050758.000,A,5243.7481,N,01255.9733,E,75.55,129.49,050214,,,A*51
$GPGGA,050805.000,5243.6530,N,01256.1593,E,1,12,0.83,29.0,M,44.9,M,,*50
$GPRMC,050804.000,A,5243.6668,N,01256.1328,E,77.49,131.43,050214,,,A*5A
$GPGGA,050811.000,5243.5766,N,01256.3123,E,1,11,0.89,30.8,M,44.9,M,,*53
$GPRMC,050810.000,A,5243.5892,N,01256.2868,E,71.95,129.14,050214,,,A*57
$GPGGA,050817.000,5243.5011,N,01256.4719,E,1,13,0.77,32.3,M,44.9,M,,*50
$GPRMC,050816.000,A,5243.5138,N,01256.4442,E,75.66,127.13,050214,,,A*5B
$GPGGA,050822.000,5243.4381,N,01256.6174,E,1,13,0.77,33.2,M,44.9,M,,*52
$GPRMC,050821.000,A,5243.4505,N,01256.5877,E,78.37,124.77,050214,,,A*57
$GPGGA,050827.000,5243.3785,N,01256.7722,E,1,13,0.77,33.8,M,44.9,M,,*5E
$GPRMC,050826.000,A,5243.3901,N,01256.7406,E,80.46,121.76,050214,,,A*52
$GPGGA,050832.000,5243.3231,N,01256.9325,E,1,13,0.77,34.3,M,44.9,M,,*51
$GPRMC,050831.000,A,5243.3337,N,01256.9008,E,79.43,118.71,050214,,,A*51
$GPGGA,050838.000,5243.2686,N,01257.1116,E,1,11,0.91,35.3,M,44.9,M,,*52
$GPRMC,050837.000,A,5243.2767,N,01257.0825,E,70.81,115.41,050214,,,A*51
$GPGGA,050844.000,5243.2235,N,01257.2871,E,1,12,0.84,37.0,M,44.9,M,,*58
$GPRMC,050843.000,A,5243.2306,N,01257.2578,E,69.74,112.34,050214,,,A*51
$GPGGA,050850.000,5243.1858,N,01257.4565,E,1,13,0.77,39.8,M,44.9,M,,*5A
$GPRMC,050849.000,A,5243.1914,N,01257.4291,E,64.77,109.36,050214,,,A*51
$GPGGA,050859.000,5243.1498,N,01257.6315,E,1,11,0.98,41.7,M,44.9,M,,*53
$GPRMC,050858.000,A,5243.1526,N,01257.6164,E,34.40,107.62,050214,,,A*59
$GPGGA,050910.000,5243.1222,N,01257.8077,E,1,11,0.98,42.4,M,44.9,M,,*51
$GPRMC,050909.000,A,5243.1246,N,01257.7915,E,37.00,103.22,050214,,,A*55
$GPGGA,050920.000,5243.1001,N,01257.9895,E,1,11,1.41,42.3,M,44.9,M,,*56
$GPRMC,050919.000,A,5243.1021,N,01257.9693,E,44.83,100.56,050214,,,A*57
$GPGGA,050928.000,5243.0829,N,01258.1672,E,1,13,0.77,43.2,M,44.9,M,,*5B
$GPRMC,050927.000,A,5243.0852,N,01258.1435,E,51.64,98.95,050214,,,A*6C
$GPGGA,050936.000,5243.0642,N,01258.3673,E,1,12,0.92,42.4,M,44.9,M,,*59
$GPRMC,050935.000,A,5243.0665,N,01258.3409,E,57.57,98.28,050214,,,A*68
$GPGGA,050943.000,5243.0477,N,01258.5557,E,1,13,0.77,41.9,M,44.9,M,,*58
$GPRMC,050942.000,A,5243.0500,N,01258.5290,E,59.28,98.23,050214,,,A*65
$GPGGA,050951.000,5243.0295,N,01258.7556,E,1,13,0.77,40.7,M,44.9,M,,*5D
$GPRMC,050950.000,A,5243.0320,N,01258.7310,E,54.08,99.19,050214,,,A*6E
$GPGGA,050959.000,5243.0105,N,01258.9380,E,1,12,0.92,42.2,M,44.9,M,,*51
$GPRMC,050958.000,A,5243.0127,N,01258.9175,E,46.19,99.91,050214,,,A*6F
$GPGGA,051009.000,5242.9928,N,01259.1164,E,1,13,0.77,44.0,M,44.9,M,,*5C
$GPRMC,051008.000,A,5242.9947,N,01259.0984,E,39.82,99.89,050214,,,A*69
$GPGGA,051019.000,5242.9704,N,01259.3025,E,1,13,0.77,44.0,M,44.9,M,,*5B
$GPRMC,051018.000,A,5242.9727,N,01259.2835,E,42.00,101.29,050214,,,A*55
$GPGGA,051028.000,5242.9487,N,01259.4831,E,1,12,0.92,43.7,M,44.9,M,,*51
$GPRMC,051027.000,A,5242.9514,N,01259.4611,E,48.47,101.34,050214,,,A*50
$GPGGA,051037.000,5242.9246,N,01259.6749,E,1,12,0.92,42.9,M,44.9,M,,*59
$GPRMC,051036.000,A,5242.9273,N,01259.6543,E,45.84,101.86,050214,,,A*5B
$GPGGA,051046.000,5242.8997,N,01259.8635,E,1,12,0.92,42.3,M,44.9,M,,*57
$GPRMC,051045.000,A,5242.9025,N,01259.8427,E,46.72,102.55,050214,,,A*54
$GPGGA,051055.000,5242.8730,N,01300.0559,E,1,12,0.92,41.3,M,44.9,M,,*59
$GPRMC,051054.000,A,5242.8759,N,01300.0349,E,47.55,103.31,050214,,,A*54
$GPGGA,051104.000,5242.8457,N,01300.2447,E,1,12,0.92,39.9,M,44.9,M,,*57
$GPRMC,051103.000,A,5242.8487,N,01300.2239,E,47.00,103.58,050214,,,A*5C
$GPGGA,051114.000,5242.8174,N,01300.4340,E,1,13,0.77,38.6,M,44.9,M,,*50
$GPRMC,051113.000,A,5242.8200,N,01300.4169,E,39.51,104.52,050214,,,A*54
$GPGGA,051126.000,5242.7877,N,01300.6201,E,1,12,0.84,37.9,M,44.9,M,,*5F
$GPRMC,051125.000,A,5242.7903,N,01300.6048,E,34.86,105.31,050214,,,A*55
$GPGGA,051138.000,5242.7597,N,01300.8028,E,1,12,0.77,37.6,M,44.9,M,,*57
$GPRMC,051137.000,A,5242.7624,N,01300.7872,E,35.71,105.17,050214,,,A*51
$GPGGA,051150.000,5242.7284,N,01300.9796,E,1,12,0.84,37.7,M,44.9,M,,*52
$GPRMC,051149.000,A,5242.7308,N,01300.9659,E,31.77,105.69,050214,,,A*51
$GPGGA,051203.000,5242.7074,N,01301.1634,E,1,13,0.77,38.2,M,44.9,M,,*5D
$GPRMC,051202.000,A,5242.7097,N,01301.1497,E,31.41,105.52,050214,,,A*5C
$GPGGA,051217.000,5242.6764,N,01301.3456,E,1,13,0.77,36.4,M,44.9,M,,*53
$GPRMC,051216.000,A,5242.6788,N,01301.3324,E,30.82,106.04,050214,,,A*52
$GPGGA,051229.000,5242.6450,N,01301.5265,E,1,13,0.77,36.7,M,44.9,M,,*59
$GPRMC,051228.000,A,5242.6478,N,01301.5099,E,37.72,105.53,050214,,,A*59
$GPGGA,051240.000,5242.6130,N,01301.7142,E,1,12,0.84,37.3,M,44.9,M,,*59
$GPRMC,051239.000,A,5242.6162,N,01301.6953,E,42.19,105.75,050214,,,A*50
$GPGGA,051249.000,5242.5834,N,01301.8889,E,1,13,0.77,37.9,M,44.9,M,,*58
$GPRMC,051248.000,A,5242.5866,N,01301.8702,E,42.82,105.60,050214,,,A*5A
$GPGGA,051258.000,5242.5541,N,01302.0619,E,1,13,0.77,38.3,M,44.9,M,,*5E
$GPRMC,051257.000,A,5242.5573,N,01302.0427,E,43.62,105.70,050214,,,A*5C
$GPGGA,051307.000,5242.5249,N,01302.2346,E,1,13,0.77,38.9,M,44.9,M,,*5D
$GPRMC,051306.000,A,5242.5282,N,01302.2156,E,43.38,105.57,050214,,,A*5B
$GPGGA,051316.000,5242.4948,N,01302.4123,E,1,13,0.77,39.2,M,44.9,M,,*5B
$GPRMC,051315.000,A,5242.4982,N,01302.3920,E,46.13,105.45,050214,,,A*54
$GPGGA,051325.000,5242.4628,N,01302.6016,E,1,13,0.77,39.5,M,44.9,M,,*50
$GPRMC,051324.000,A,5242.4664,N,01302.5807,E,47.76,105.87,050214,,,A*5F
$GPGGA,051334.000,5242.4324,N,01302.7824,E,1,13,0.77,38.6,M,44.8,M,,*52
$GPRMC,051333.000,A,5242.4357,N,01302.7625,E,45.17,105.62,050214,,,A*5E
$GPGGA,051342.000,5242.4019,N,01302.9613,E,1,13,0.77,38.3,M,44.8,M,,*5F
$GPRMC,051341.000,A,5242.4053,N,01302.9423,E,43.49,106.13,050214,,,A*5E
$GPGGA,051352.000,5242.3721,N,01303.1385,E,1,13,0.77,38.0,M,44.8,M,,*55
$GPRMC,051351.000,A,5242.3749,N,01303.1224,E,37.21,105.68,050214,,,A*5E
$GPGGA,051402.000,5242.3372,N,01303.3083,E,1,13,0.77,38.4,M,44.8,M,,*56
$GPRMC,051401.000,A,5242.3404,N,01303.2883,E,44.22,104.91,050214,,,A*52
$GPGGA,051410.000,5242.3099,N,01303.4840,E,1,13,0.77,37.4,M,44.8,M,,*5C
$GPRMC,051409.000,A,5242.3133,N,01303.4595,E,53.30,103.38,050214,,,A*56
$GPGGA,051417.000,5242.2856,N,01303.6839,E,1,13,0.77,37.5,M,44.8,M,,*5C
$GPRMC,051416.000,A,5242.2891,N,01303.6533,E,67.18,101.06,050214,,,A*54
$GPGGA,051423.000,5242.2676,N,01303.8783,E,1,13,0.77,38.1,M,44.8,M,,*5C
$GPRMC,051422.000,A,5242.2704,N,01303.8448,E,72.92,97.94,050214,,,A*60
$GPGGA,051429.000,5242.2560,N,01304.0808,E,1,13,0.77,38.5,M,44.8,M,,*55
$GPRMC,051428.000,A,5242.2574,N,01304.0461,E,75.08,94.43,050214,,,A*66
$GPGGA,051434.000,5242.2495,N,01304.2612,E,1,13,0.77,39.3,M,44.8,M,,*52
$GPRMC,051433.000,A,5242.2504,N,01304.2243,E,80.43,92.71,050214,,,A*6D
$GPGGA,051439.000,5242.2499,N,01304.4462,E,1,12,0.78,39.9,M,44.8,M,,*54
$GPRMC,051438.000,A,5242.2493,N,01304.4092,E,80.82,88.79,050214,,,A*6F
$GPGGA,051444.000,5242.2574,N,01304.6312,E,1,13,0.77,40.2,M,44.8,M,,*55
$GPRMC,051443.000,A,5242.2552,N,01304.5942,E,81.42,85.55,050214,,,A*64
$GPGGA,051449.000,5242.2705,N,01304.8170,E,1,13,0.77,39.1,M,44.8,M,,*59
$GPRMC,051448.000,A,5242.2674,N,01304.7801,E,81.61,82.69,050214,,,A*65
$GPGGA,051454.000,5242.2882,N,01304.9968,E,1,13,0.77,37.5,M,44.8,M,,*5F
$GPRMC,051453.000,A,5242.2842,N,01304.9610,E,79.04,80.14,050214,,,A*68
$GPGGA,051459.000,5242.3104,N,01305.1776,E,1,13,0.77,36.5,M,44.8,M,,*5D
$GPRMC,051458.000,A,5242.3060,N,01305.1417,E,80.47,78.60,050214,,,A*63
$GPGGA,051504.000,5242.3314,N,01305.3568,E,1,13,0.77,35.7,M,44.8,M,,*59
$GPRMC,051503.000,A,5242.3274,N,01305.3210,E,79.23,79.31,050214,,,A*69
$GPGGA,051509.000,5242.3524,N,01305.5356,E,1,13,0.77,36.3,M,44.8,M,,*5B
$GPRMC,051508.000,A,5242.3482,N,01305.5000,E,79.57,78.92,050214,,,A*63
$GPGGA,051514.000,5242.3726,N,01305.7123,E,1,13,0.77,37.5,M,44.8,M,,*52
$GPRMC,051513.000,A,5242.3686,N,01305.6766,E,79.09,79.60,050214,,,A*6C
$GPGGA,051520.000,5242.3961,N,01305.9155,E,1,12,0.77,37.6,M,44.8,M,,*55
$GPRMC,051519.000,A,5242.3924,N,01305.8820,E,73.61,79.71,050214,,,A*66
$GPGGA,051526.000,5242.4173,N,01306.1238,E,1,13,0.77,38.3,M,44.8,M,,*57
$GPRMC,051525.000,A,5242.4140,N,01306.0881,E,78.14,81.47,050214,,,A*6F
$GPGGA,051532.000,5242.4333,N,01306.3271,E,1,13,0.77,38.9,M,44.8,M,,*51
$GPRMC,051531.000,A,5242.4311,N,01306.2941,E,72.52,83.55,050214,,,A*6A
$GPGGA,051538.000,5242.4426,N,01306.5228,E,1,13,0.77,39.7,M,44.8,M,,*5D
$GPRMC,051537.000,A,5242.4416,N,01306.4905,E,71.25,86.31,050214,,,A*6E
$GPGGA,051544.000,5242.4458,N,01306.7222,E,1,13,0.77,39.8,M,44.8,M,,*58
$GPRMC,051543.000,A,5242.4458,N,01306.6884,E,73.94,88.76,050214,,,A*68
$GPGGA,051550.000,5242.4436,N,01306.9146,E,1,13,0.77,39.7,M,44.8,M,,*55
$GPRMC,051549.000,A,5242.4442,N,01306.8853,E,65.89,91.27,050214,,,A*6A
$GPGGA,051557.000,5242.4373,N,01307.1098,E,1,13,0.77,39.7,M,44.8,M,,*5F
$GPRMC,051556.000,A,5242.4384,N,01307.0822,E,61.13,93.81,050214,,,A*6F
$GPGGA,051604.000,5242.4266,N,01307.2986,E,1,13,0.77,39.3,M,44.8,M,,*5E
$GPRMC,051603.000,A,5242.4283,N,01307.2719,E,59.00,96.03,050214,,,A*69
$GPGGA,051611.000,5242.4122,N,01307.4907,E,1,13,0.77,40.3,M,44.8,M,,*58
$GPRMC,051610.000,A,5242.4144,N,01307.4626,E,61.67,97.34,050214,,,A*67
$GPGGA,051618.000,5242.3963,N,01307.6874,E,1,13,0.77,39.0,M,44.8,M,,*51
$GPRMC,051617.000,A,5242.3986,N,01307.6588,E,63.07,97.53,050214,,,A*61
$GPGGA,051625.000,5242.3802,N,01307.8901,E,1,12,0.78,41.0,M,44.8,M,,*55
$GPRMC,051624.000,A,5242.3824,N,01307.8603,E,64.73,97.26,050214,,,A*60
$GPGGA,051631.000,5242.3676,N,01308.0673,E,1,13,0.77,41.6,M,44.8,M,,*58
$GPRMC,051630.000,A,5242.3696,N,01308.0383,E,64.25,96.47,050214,,,A*6D
$GPGGA,051638.000,5242.3552,N,01308.2678,E,1,13,0.77,44.7,M,44.7,M,,*56
$GPRMC,051637.000,A,5242.3568,N,01308.2392,E,62.61,95.28,050214,,,A*66
$GPGGA,051645.000,5242.3461,N,01308.4632,E,1,13,0.77,46.6,M,44.7,M,,*56
$GPRMC,051644.000,A,5242.3474,N,01308.4355,E,60.82,93.66,050214,,,A*60
$GPGGA,051652.000,5242.3404,N,01308.6630,E,1,13,0.77,45.5,M,44.7,M,,*53
$GPRMC,051651.000,A,5242.3411,N,01308.6339,E,64.03,92.35,050214,,,A*65
$GPGGA,051658.000,5242.3381,N,01308.8411,E,1,12,0.81,43.8,M,44.7,M,,*5F
$GPRMC,051657.000,A,5242.3385,N,01308.8099,E,67.04,91.44,050214,,,A*6F
$GPGGA,051704.000,5242.3373,N,01309.0300,E,1,11,1.02,41.0,M,44.7,M,,*57
$GPRMC,051703.000,A,5242.3376,N,01308.9990,E,67.81,90.51,050214,,,A*6A
$GPGGA,051710.000,5242.3377,N,01309.2190,E,1,12,0.81,38.8,M,44.7,M,,*50
$GPRMC,051709.000,A,5242.3376,N,01309.1879,E,68.47,89.92,050214,,,A*6D
$GPGGA,051716.000,5242.3380,N,01309.4068,E,1,12,0.81,38.0,M,44.7,M,,*56
$GPRMC,051715.000,A,5242.3379,N,01309.3754,E,69.21,89.45,050214,,,A*66
$GPGGA,051722.000,5242.3384,N,01309.5952,E,1,12,0.81,37.2,M,44.7,M,,*59
$GPRMC,051721.000,A,5242.3383,N,01309.5633,E,70.25,89.81,050214,,,A*66
$GPGGA,051728.000,5242.3397,N,01309.7799,E,1,12,0.81,36.6,M,44.7,M,,*5F
$GPRMC,051727.000,A,5242.3395,N,01309.7495,E,66.60,89.46,050214,,,A*66
$GPGGA,051734.000,5242.3397,N,01309.9635,E,1,12,0.81,35.4,M,44.7,M,,*5A
$GPRMC,051733.000,A,5242.3396,N,01309.9328,E,66.99,89.81,050214,,,A*62
$GPGGA,051740.000,5242.3397,N,01310.1466,E,1,12,0.81,33.3,M,44.7,M,,*5C
$GPRMC,051739.000,A,5242.3396,N,01310.1161,E,66.85,90.14,050214,,,A*6E
$GPGGA,051747.000,5242.3404,N,01310.3517,E,1,11,0.83,30.0,M,44.7,M,,*52
$GPRMC,051746.000,A,5242.3402,N,01310.3233,E,62.78,89.84,050214,,,A*6D
$GPGGA,051754.000,5242.3406,N,01310.5458,E,1,12,0.81,25.1,M,44.7,M,,*5A
$GPRMC,051753.000,A,5242.3405,N,01310.5188,E,59.76,89.83,050214,,,A*6A
$GPGGA,051801.000,5242.3410,N,01310.7287,E,1,12,0.80,22.5,M,44.7,M,,*56
$GPRMC,051800.000,A,5242.3409,N,01310.7037,E,55.99,89.73,050214,,,A*6A
$GPGGA,051809.000,5242.3408,N,01310.9206,E,1,11,0.93,21.4,M,44.7,M,,*53
$GPRMC,051808.000,A,5242.3411,N,01310.8977,E,50.89,90.85,050214,,,A*6C
$GPGGA,051818.000,5242.3377,N,01311.1168,E,1,12,0.81,21.2,M,44.7,M,,*58
$GPRMC,051817.000,A,5242.3379,N,01311.0956,E,46.40,90.76,050214,,,A*6F
$GPGGA,051827.000,5242.3349,N,01311.3143,E,1,13,0.76,21.1,M,44.7,M,,*58
$GPRMC,051826.000,A,5242.3355,N,01311.2929,E,47.13,92.52,050214,,,A*6A
$GPGGA,051836.000,5242.3026,N,01311.5052,E,1,13,0.76,21.9,M,44.7,M,,*5D
$GPRMC,051835.000,A,5242.3085,N,01311.4842,E,50.10,113.57,050214,,,A*54
$GPGGA,051844.000,5242.2334,N,01311.6636,E,1,13,0.76,23.7,M,44.7,M,,*52
$GPRMC,051843.000,A,5242.2440,N,01311.6457,E,54.56,132.40,050214,,,A*50
$GPGGA,051851.000,5242.1453,N,01311.7663,E,1,13,0.76,23.5,M,44.7,M,,*50
$GPRMC,051850.000,A,5242.1592,N,01311.7543,E,55.91,149.50,050214,,,A*5D
$GPGGA,051858.000,5242.0418,N,01311.8326,E,1,13,0.76,23.1,M,44.7,M,,*58
$GPRMC,051857.000,A,5242.0565,N,01311.8249,E,55.30,161.50,050214,,,A*50
$GPGGA,051906.000,5241.9271,N,01311.8980,E,1,13,0.87,24.4,M,44.7,M,,*5B
$GPRMC,051905.000,A,5241.9414,N,01311.8895,E,53.59,159.52,050214,,,A*50
$GPGGA,051913.000,5241.8275,N,01311.9659,E,1,12,0.84,24.8,M,44.7,M,,*5E
$GPRMC,051912.000,A,5241.8416,N,01311.9555,E,55.50,156.42,050214,,,A*54
$GPGGA,051920.000,5241.7301,N,01312.0423,E,1,12,0.84,24.7,M,44.7,M,,*59
$GPRMC,051919.000,A,5241.7440,N,01312.0308,E,55.45,153.11,050214,,,A*50
$GPGGA,051927.000,5241.6344,N,01312.1262,E,1,13,0.79,26.8,M,44.7,M,,*52
$GPRMC,051926.000,A,5241.6476,N,01312.1143,E,53.85,150.19,050214,,,A*55
$GPGGA,051935.000,5241.5308,N,01312.2335,E,1,10,0.97,25.4,M,44.7,M,,*56
$GPRMC,051934.000,A,5241.5441,N,01312.2186,E,57.07,146.07,050214,,,A*5D
$GPGGA,051942.000,5241.4335,N,01312.3456,E,1,12,0.82,24.5,M,44.7,M,,*5C
$GPRMC,051941.000,A,5241.4475,N,01312.3290,E,62.28,144.43,050214,,,A*55
$GPGGA,051949.000,5241.3388,N,01312.4653,E,1,12,0.82,23.9,M,44.7,M,,*5D
$GPRMC,051948.000,A,5241.3524,N,01312.4474,E,62.50,141.11,050214,,,A*58
$GPGGA,051955.000,5241.2566,N,01312.5816,E,1,12,0.84,24.4,M,44.7,M,,*55
$GPRMC,051954.000,A,5241.2704,N,01312.5610,E,66.16,138.51,050214,,,A*59
$GPGGA,052001.000,5241.1747,N,01312.7144,E,1,10,1.02,26.3,M,44.7,M,,*58
$GPRMC,052000.000,A,5241.1882,N,01312.6913,E,69.81,135.07,050214,,,A*50
$GPGGA,052007.000,5241.0948,N,01312.8530,E,1,9,1.15,27.1,M,44.7,M,,*6B
$GPRMC,052006.000,A,5241.1081,N,01312.8300,E,69.59,133.66,050214,,,A*5F
$GPGGA,052013.000,5241.0185,N,01312.9844,E,1,11,0.83,28.0,M,44.7,M,,*51
$GPRMC,052012.000,A,5241.0308,N,01312.9628,E,64.34,134.13,050214,,,A*54
$GPGGA,052020.000,5240.9329,N,01313.1310,E,1,12,0.77,29.0,M,44.7,M,,*57
$GPRMC,052019.000,A,5240.9451,N,01313.1104,E,63.29,134.10,050214,,,A*54
$GPGGA,052027.000,5240.8499,N,01313.2727,E,1,11,0.89,29.4,M,44.7,M,,*58
$GPRMC,052026.000,A,5240.8619,N,01313.2525,E,62.03,134.44,050214,,,A*5B
$GPGGA,052034.000,5240.7661,N,01313.4170,E,1,12,0.83,30.3,M,44.7,M,,*54
$GPRMC,052033.000,A,5240.7782,N,01313.3965,E,63.04,133.77,050214,,,A*5B
$GPGGA,052041.000,5240.6841,N,01313.5546,E,1,12,0.88,31.6,M,44.7,M,,*54
$GPRMC,052040.000,A,5240.6954,N,01313.5357,E,58.74,134.21,050214,,,A*5D
$GPGGA,052048.000,5240.6045,N,01313.6877,E,1,13,0.75,33.3,M,44.7,M,,*59
$GPRMC,052047.000,A,5240.6165,N,01313.6684,E,60.25,134.01,050214,,,A*55
$GPGGA,052055.000,5240.5207,N,01313.8251,E,1,13,0.77,35.6,M,44.7,M,,*53
$GPRMC,052054.000,A,5240.5323,N,01313.8065,E,59.14,135.63,050214,,,A*5E
$GPGGA,052102.000,5240.4375,N,01313.9471,E,1,14,0.72,34.4,M,44.7,M,,*51
$GPRMC,052101.000,A,5240.4499,N,01313.9301,E,58.40,139.75,050214,,,A*53
$GPGGA,052109.000,5240.3462,N,01314.0630,E,1,13,0.73,29.8,M,44.7,M,,*53
$GPRMC,052108.000,A,5240.3600,N,01314.0468,E,61.62,143.80,050214,,,A*54
$GPGGA,052116.000,5240.2490,N,01314.1727,E,1,14,0.71,26.6,M,44.7,M,,*53
$GPRMC,052115.000,A,5240.2634,N,01314.1574,E,60.94,146.96,050214,,,A*59
$GPGGA,052122.000,5240.1561,N,01314.2641,E,1,13,0.75,24.9,M,44.7,M,,*54
$GPRMC,052121.000,A,5240.1723,N,01314.2490,E,66.02,148.94,050214,,,A*57
$GPGGA,052128.000,5240.0560,N,01314.3483,E,1,11,0.92,25.1,M,44.7,M,,*51
$GPRMC,052127.000,A,5240.0727,N,01314.3350,E,67.30,153.79,050214,,,A*57
$GPGGA,052134.000,5239.9546,N,01314.4208,E,1,12,0.80,25.9,M,44.7,M,,*55
$GPRMC,052133.000,A,5239.9719,N,01314.4090,E,66.90,156.86,050214,,,A*5E
$GPGGA,052140.000,5239.8453,N,01314.4877,E,1,10,0.84,26.0,M,44.7,M,,*5C
$GPRMC,052139.000,A,5239.8638,N,01314.4773,E,70.56,160.70,050214,,,A*5C
$GPGGA,052146.000,5239.7381,N,01314.5416,E,1,9,1.07,25.1,M,44.7,M,,*67
$GPRMC,052145.000,A,5239.7554,N,01314.5335,E,65.53,163.95,050214,,,A*5F
$GPGGA,052153.000,5239.6208,N,01314.5868,E,1,11,0.96,25.2,M,44.7,M,,*54
$GPRMC,052152.000,A,5239.6369,N,01314.5814,E,59.52,168.16,050214,,,A*56
$GPGGA,052200.000,5239.5052,N,01314.6183,E,1,11,0.83,23.6,M,44.7,M,,*56
$GPRMC,052159.000,A,5239.5223,N,01314.6148,E,62.55,172.21,050214,,,A*52
$GPGGA,052207.000,5239.3831,N,01314.6370,E,1,10,0.92,22.9,M,44.7,M,,*5B
$GPRMC,052206.000,A,5239.4012,N,01314.6352,E,64.17,175.80,050214,,,A*5F
$GPGGA,052213.000,5239.2709,N,01314.6428,E,1,9,1.03,23.8,M,44.7,M,,*60
$GPRMC,052212.000,A,5239.2896,N,01314.6427,E,67.07,179.26,050214,,,A*5F
$GPGGA,052219.000,5239.1595,N,01314.6380,E,1,9,1.13,23.8,M,44.7,M,,*6A
$GPRMC,052218.000,A,5239.1779,N,01314.6398,E,66.66,182.75,050214,,,A*5F
$GPGGA,052226.000,5239.0387,N,01314.6217,E,1,8,1.52,22.0,M,44.7,M,,*60
$GPRMC,052225.000,A,5239.0551,N,01314.6246,E,59.76,185.73,050214,,,A*56
$GPGGA,052233.000,5238.9293,N,01314.6028,E,1,9,1.16,22.3,M,44.7,M,,*64
$GPRMC,052232.000,A,5238.9446,N,01314.6054,E,55.44,185.72,050214,,,A*52
$GPGGA,052241.000,5238.8108,N,01314.5843,E,1,10,1.02,23.0,M,44.7,M,,*58
$GPRMC,052240.000,A,5238.8254,N,01314.5867,E,52.06,185.62,050214,,,A*58
$GPGGA,052248.000,5238.6991,N,01314.5647,E,1,12,0.80,22.6,M,44.7,M,,*53
$GPRMC,052247.000,A,5238.7154,N,01314.5675,E,59.15,185.69,050214,,,A*5C
$GPGGA,052255.000,5238.5891,N,01314.5464,E,1,12,0.80,23.4,M,44.7,M,,*5D
$GPRMC,052254.000,A,5238.6043,N,01314.5489,E,55.29,185.61,050214,,,A*52
$GPGGA,052302.000,5238.4772,N,01314.5263,E,1,12,0.80,23.8,M,44.7,M,,*50
$GPRMC,052301.000,A,5238.4938,N,01314.5295,E,60.24,185.98,050214,,,A*52
$GPGGA,052309.000,5238.3649,N,01314.5073,E,1,12,0.80,23.7,M,44.7,M,,*59
$GPRMC,052308.000,A,5238.3807,N,01314.5099,E,56.79,185.75,050214,,,A*51
$GPGGA,052316.000,5238.2461,N,01314.4876,E,1,11,0.89,22.7,M,44.7,M,,*59
$GPRMC,052315.000,A,5238.2635,N,01314.4908,E,62.95,185.40,050214,,,A*50
$GPGGA,052323.000,5238.1260,N,01314.4678,E,1,13,0.76,23.2,M,44.7,M,,*5D
$GPRMC,052322.000,A,5238.1426,N,01314.4708,E,60.34,186.07,050214,,,A*50
$GPGGA,052330.000,5238.0187,N,01314.4505,E,1,10,0.92,23.0,M,44.7,M,,*56
$GPRMC,052329.000,A,5238.0325,N,01314.4527,E,50.48,185.57,050214,,,A*5F
$GPGGA,052339.000,5237.9021,N,01314.4309,E,1,9,0.94,22.0,M,44.7,M,,*61
$GPRMC,052338.000,A,5237.9146,N,01314.4329,E,45.65,185.61,050214,,,A*58
$GPGGA,052348.000,5237.7907,N,01314.4314,E,1,10,0.92,22.6,M,44.7,M,,*50
$GPRMC,052347.000,A,5237.8033,N,01314.4285,E,45.82,172.84,050214,,,A*5F
$GPGGA,052357.000,5237.6804,N,01314.4938,E,1,11,0.81,23.8,M,44.7,M,,*55
$GPRMC,052356.000,A,5237.6923,N,01314.4841,E,46.92,153.96,050214,,,A*59
$GPGGA,052406.000,5237.5832,N,01314.5986,E,1,11,0.89,24.1,M,44.7,M,,*52
$GPRMC,052405.000,A,5237.5933,N,01314.5861,E,45.33,143.72,050214,,,A*5A
$GPGGA,052415.000,5237.4944,N,01314.7195,E,1,12,0.88,23.9,M,44.7,M,,*54
$GPRMC,052414.000,A,5237.5037,N,01314.7062,E,44.71,138.98,050214,,,A*51
$GPGGA,052425.000,5237.4060,N,01314.8479,E,1,13,0.79,23.1,M,44.7,M,,*57
$GPRMC,052424.000,A,5237.4150,N,01314.8351,E,42.28,139.23,050214,,,A*54
$GPGGA,052436.000,5237.3019,N,01314.9318,E,1,10,1.10,22.0,M,44.7,M,,*50
$GPRMC,052435.000,A,5237.3130,N,01314.9329,E,38.55,179.74,050214,,,A*5A
$GPGGA,052448.000,5237.1903,N,01314.9842,E,1,13,0.79,24.2,M,44.7,M,,*54
$GPRMC,052447.000,A,5237.1980,N,01314.9722,E,38.22,138.17,050214,,,A*51
$GPGGA,052500.000,5237.0919,N,01315.0866,E,1,12,0.88,25.3,M,44.7,M,,*52
$GPRMC,052459.000,A,5237.1015,N,01315.0835,E,34.01,165.75,050214,,,A*5B
$GPGGA,052512.000,5236.9960,N,01314.9947,E,1,9,1.11,26.6,M,44.7,M,,*60
$GPRMC,052511.000,A,5237.0027,N,01315.0087,E,37.35,228.16,050214,,,A*5C
$GPGGA,052522.000,5236.9153,N,01314.8712,E,1,9,1.11,24.6,M,44.7,M,,*66
$GPRMC,052521.000,A,5236.9246,N,01314.8784,E,38.07,208.35,050214,,,A*52
$GPGGA,052533.000,5236.8063,N,01314.8957,E,1,8,1.23,21.7,M,44.7,M,,*6E
$GPRMC,052532.000,A,5236.8155,N,01314.8874,E,37.98,153.06,050214,,,A*54
$GPGGA,052545.000,5236.7258,N,01315.0321,E,1,12,0.89,20.1,M,44.7,M,,*55
$GPRMC,052544.000,A,5236.7302,N,01315.0207,E,29.53,123.46,050214,,,A*56
$GPGGA,052559.000,5236.6649,N,01315.1886,E,1,10,1.05,16.3,M,44.7,M,,*5A
$GPRMC,052558.000,A,5236.6694,N,01315.1777,E,28.68,125.07,050214,,,A*59
$GPGGA,052612.000,5236.5985,N,01315.3351,E,6,1,99.99,14.7,M,44.7,M,,*5C
$GPRMC,052611.000,A,5236.6055,N,01315.3246,E,33.58,138.25,050214,,,A*5C
$GPGGA,052617.000,,,,,0,1,,,M,,M,,*4E
$GPRMC,052616.000,V,,,,,30.70,136.48,050214,,,E*7E
$GPGGA,052640.000,5236.4854,N,01315.6696,E,1,6,1.86,41.8,M,44.7,M,,*6C
$GPRMC,052639.000,V,,,,,25.74,103.12,050214,,,N*71
$GPGGA,052652.000,5236.4332,N,01315.8260,E,1,9,1.44,40.3,M,44.7,M,,*6C
$GPRMC,052651.000,A,5236.4370,N,01315.8134,E,31.16,116.74,050214,,,A*53
$GPGGA,052705.000,5236.3828,N,01315.9852,E,1,11,1.04,36.5,M,44.7,M,,*58
$GPRMC,052704.000,A,5236.3869,N,01315.9728,E,30.48,117.89,050214,,,A*55
$GPGGA,052719.000,5236.3254,N,01316.1476,E,1,10,1.16,29.2,M,44.7,M,,*5E
$GPRMC,052718.000,A,5236.3303,N,01316.1357,E,31.98,125.48,050214,,,A*58
$GPGGA,052732.000,5236.2612,N,01316.2932,E,6,3,1.87,28.7,M,44.7,M,,*67
$GPRMC,052731.000,V,,,,,28.55,130.57,050214,,,E*7C
$GPGGA,052735.000,,,,,0,2,,,M,,M,,*4C
$GPRMC,052734.000,V,,,,,29.85,138.17,050214,,,E*79
$GPGGA,052736.000,5236.2363,N,01316.3333,E,1,5,2.85,28.2,M,44.7,M,,*6F
$GPRMC,052735.000,V,,,,,31.16,137.42,050214,,,N*7F
$GPGGA,052749.000,5236.1741,N,01316.4805,E,1,9,1.26,29.7,M,44.7,M,,*6B
$GPRMC,052748.000,A,5236.1777,N,01316.4668,E,32.59,110.67,050214,,,A*51
$GPGGA,052802.000,5236.1340,N,01316.6448,E,1,10,1.06,28.2,M,44.7,M,,*57
$GPRMC,052801.000,A,5236.1380,N,01316.6318,E,30.89,116.03,050214,,,A*54
$GPGGA,052815.000,5236.0675,N,01316.7926,E,1,12,0.87,30.7,M,44.7,M,,*51
$GPRMC,052814.000,A,5236.0733,N,01316.7826,E,30.46,134.61,050214,,,A*5D
$GPGGA,052828.000,5235.9759,N,01316.8981,E,1,12,0.96,30.9,M,44.7,M,,*56
$GPRMC,052827.000,A,5235.9836,N,01316.8918,E,30.51,151.70,050214,,,A*5B
$GPGGA,052840.000,5235.8719,N,01316.9939,E,1,14,0.69,28.3,M,44.7,M,,*5A
$GPRMC,052839.000,A,5235.8819,N,01316.9835,E,42.31,147.72,050214,,,A*51
$GPGGA,052850.000,5235.7723,N,01317.0903,E,1,14,0.71,29.8,M,44.7,M,,*5F
$GPRMC,052849.000,A,5235.7827,N,01317.0819,E,41.51,153.81,050214,,,A*5E
$GPGGA,052900.000,5235.6682,N,01317.1565,E,1,14,0.71,27.7,M,44.7,M,,*5C
$GPRMC,052859.000,A,5235.6788,N,01317.1504,E,40.56,160.97,050214,,,A*55
$GPGGA,052912.000,5235.5648,N,01317.2188,E,1,13,0.75,18.8,M,44.7,M,,*5E
$GPRMC,052911.000,A,5235.5723,N,01317.2141,E,28.62,158.75,050214,,,A*52
$GPGGA,052923.000,,,,,0,1,,,M,,M,,*46
$GPRMC,052922.000,V,,,,,31.11,150.07,050214,,,E*7B
ping
$GPGGA,053004.000,5235.1793,N,01317.4931,E,1,8,1.32,29.4,M,44.7,M,,*68
$GPRMC,053003.000,V,,,,,26.28,145.15,050214,,,N*70
$GPGGA,053017.000,5235.0708,N,01317.5583,E,1,10,0.90,17.0,M,44.7,M,,*54
$GPRMC,053016.000,A,5235.0784,N,01317.5538,E,30.05,157.49,050214,,,A*50
$GPGGA,053030.000,5234.9642,N,01317.6287,E,1,8,1.06,15.9,M,44.7,M,,*6A
$GPRMC,053029.000,A,5234.9733,N,01317.6235,E,33.61,157.56,050214,,,A*5E
$GPGGA,053042.000,5234.8589,N,01317.7025,E,1,10,1.07,15.0,M,44.7,M,,*50
$GPRMC,053041.000,A,5234.8675,N,01317.6962,E,34.70,157.96,050214,,,A*50
$GPGGA,053053.000,5234.7569,N,01317.7720,E,1,12,0.80,25.4,M,44.7,M,,*58
$GPRMC,053052.000,A,5234.7658,N,01317.7661,E,33.72,157.04,050214,,,A*51
$GPGGA,053104.000,5234.6618,N,01317.8726,E,1,13,0.74,31.6,M,44.7,M,,*5B
$GPRMC,053103.000,A,5234.6702,N,01317.8603,E,39.62,140.84,050214,,,A*55
$GPGGA,053114.000,5234.5859,N,01318.0124,E,1,12,0.80,32.2,M,44.7,M,,*5C
$GPRMC,053113.000,A,5234.5927,N,01317.9971,E,41.31,127.66,050214,,,A*51
$GPGGA,053124.000,5234.5133,N,01318.1659,E,1,13,0.73,32.2,M,44.7,M,,*5B
$GPRMC,053123.000,A,5234.5211,N,01318.1504,E,43.45,128.80,050214,,,A*53
$GPGGA,053133.000,5234.4247,N,01318.2860,E,1,13,0.73,31.8,M,44.7,M,,*52
$GPRMC,053132.000,A,5234.4347,N,01318.2773,E,40.75,149.95,050214,,,A*52
$GPGGA,053143.000,5234.3184,N,01318.3332,E,1,13,0.73,30.5,M,44.7,M,,*5F
$GPRMC,053142.000,A,5234.3297,N,01318.3313,E,39.97,173.22,050214,,,A*5A
$GPGGA,053153.000,5234.2008,N,01318.3320,E,1,13,0.72,24.9,M,44.7,M,,*51
$GPRMC,053152.000,A,5234.2116,N,01318.3327,E,39.12,181.79,050214,,,A*59
$GPGGA,053204.000,5234.0888,N,01318.3513,E,1,11,0.69,18.4,M,44.7,M,,*5E
$GPRMC,053203.000,A,5234.0984,N,01318.3470,E,34.12,165.96,050214,,,A*5C
$GPGGA,053216.000,5233.9899,N,01318.4347,E,1,13,0.76,20.6,M,44.7,M,,*56
$GPRMC,053215.000,A,5233.9970,N,01318.4255,E,31.60,143.91,050214,,,A*5B
$GPGGA,053228.000,5233.9166,N,01318.5715,E,1,11,0.88,15.8,M,44.7,M,,*5B
$GPRMC,053227.000,A,5233.9238,N,01318.5608,E,35.04,134.97,050214,,,A*50
$GPGGA,053239.000,,,,,0,2,,,M,,M,,*44
$GPRMC,053238.000,V,,,,,43.14,144.32,050214,,,E*79
ping
$GPGGA,053313.000,5233.4409,N,01318.5450,E,1,8,1.61,22.5,M,44.7,M,,*66
$GPRMC,053312.000,V,,,,,36.72,190.10,050214,,,N*70
$GPGGA,053324.000,5233.3490,N,01318.4342,E,1,13,0.79,21.6,M,44.7,M,,*52
$GPRMC,053323.000,A,5233.3577,N,01318.4432,E,34.26,210.07,050214,,,A*54
$GPGGA,053334.000,5233.2553,N,01318.3464,E,1,12,0.84,23.9,M,44.7,M,,*56
$GPRMC,053333.000,A,5233.2646,N,01318.3552,E,38.80,210.09,050214,,,A*5B
$GPGGA,053345.000,5233.1549,N,01318.2566,E,1,14,0.69,26.4,M,44.8,M,,*58
$GPRMC,053344.000,A,5233.1646,N,01318.2654,E,40.38,209.05,050214,,,A*54
$GPGGA,053355.000,5233.0532,N,01318.1653,E,1,13,0.77,27.6,M,44.8,M,,*59
$GPRMC,053354.000,A,5233.0635,N,01318.1749,E,42.10,209.71,050214,,,A*55
$GPGGA,053405.000,5232.9561,N,01318.0821,E,1,14,0.69,30.4,M,44.8,M,,*53
$GPRMC,053404.000,A,5232.9653,N,01318.0896,E,36.47,206.62,050214,,,A*5F
$GPGGA,053416.000,5232.8546,N,01318.0005,E,1,14,0.69,30.8,M,44.8,M,,*57
$GPRMC,053415.000,A,5232.8625,N,01318.0077,E,33.88,207.14,050214,,,A*5E
ping
ping
$GPGGA,053523.000,5232.8733,N,01317.8259,E,1,13,0.72,29.3,M,44.8,M,,*52
$GPRMC,053522.000,A,5232.8694,N,01317.8287,E,15.18,335.10,050214,,,A*52
$GPGGA,053544.000,5232.9755,N,01317.7505,E,1,12,0.80,28.3,M,44.8,M,,*5E
$GPRMC,053543.000,A,5232.9697,N,01317.7536,E,21.41,339.46,050214,,,A*51
$GPGGA,053601.000,5233.0720,N,01317.6693,E,1,12,0.74,17.2,M,44.8,M,,*5D
$GPRMC,053600.000,A,5233.0655,N,01317.6752,E,26.45,325.59,050214,,,A*52
$GPGGA,053623.000,5233.1827,N,01317.6633,E,1,14,0.69,23.8,M,44.8,M,,*59
$GPRMC,053622.000,A,5233.1782,N,01317.6595,E,16.98,26.69,050214,,,A*61
ping
ping
ping
ping
ping
ping
$DeviceName=pironex_auto
$Software=0.1.3
$Hardware=1
$LastValidPosition=
$IMEI=359193030849087
$LocalIP=10.57.186.46
$CmdVersion=2
$SUCCESS
$<end>
ping
ping
$GPGGA,173028.000,5233.2200,N,01317.6804,E,1,4,2.10,42.0,M,44.8,M,,*63
$GPRMC,173027.000,V,,,,,0.85,125.51,050214,,,N*40
ping
ping
ping
ping
ping
ping
ping
ping
ping
ping
ping
ping
ping
$GPGGA,173744.000,5233.1160,N,01317.6337,E,1,9,0.94,26.9,M,44.8,M,,*6B
$GPRMC,173743.000,A,5233.1174,N,01317.6326,E,6.14,154.58,050214,,,A*66
ping
ping
ping
$GPGGA,173920.000,5233.0152,N,01317.7039,E,1,9,0.94,36.2,M,44.8,M,,*61
$GPRMC,173919.000,A,5233.0179,N,01317.7017,E,9.39,155.21,050214,,,A*64
ping
ping
$GPGGA,174029.000,5232.9163,N,01317.7760,E,1,9,0.92,35.4,M,44.8,M,,*64
$GPRMC,174028.000,A,5232.9206,N,01317.7730,E,16.16,156.27,050214,,,A*5F
$GPGGA,174044.000,5232.8165,N,01317.8514,E,1,9,0.92,33.2,M,44.8,M,,*66
$GPRMC,174043.000,A,5232.8245,N,01317.8456,E,31.37,156.21,050214,,,A*58
$GPGGA,174058.000,5232.7039,N,01317.8793,E,1,9,0.92,32.7,M,44.8,M,,*65
$GPRMC,174057.000,A,5232.7129,N,01317.8844,E,32.92,197.58,050214,,,A*5B
$GPGGA,174109.000,5232.6005,N,01317.8202,E,1,9,0.92,29.9,M,44.8,M,,*67
$GPRMC,174108.000,A,5232.6098,N,01317.8252,E,35.49,196.55,050214,,,A*5A
$GPGGA,174121.000,5232.4931,N,01317.7694,E,1,8,1.02,34.6,M,44.8,M,,*6F
$GPRMC,174120.000,A,5232.5018,N,01317.7732,E,30.18,195.64,050214,,,A*57
$GPGGA,174132.000,5232.3885,N,01317.7114,E,1,8,0.97,29.1,M,44.8,M,,*6D
$GPRMC,174131.000,A,5232.3989,N,01317.7172,E,39.97,198.31,050214,,,A*51
$GPGGA,174141.000,5232.2786,N,01317.6525,E,1,7,1.72,33.4,M,44.8,M,,*68
$GPRMC,174140.000,A,5232.2915,N,01317.6592,E,47.68,198.60,050214,,,A*55
$GPGGA,174150.000,5232.1748,N,01317.5949,E,1,9,0.92,36.2,M,44.8,M,,*6E
$GPRMC,174149.000,A,5232.1854,N,01317.6006,E,40.58,198.13,050214,,,A*53
$GPGGA,174201.000,5232.0725,N,01317.5283,E,1,9,0.94,40.6,M,44.8,M,,*6D
$GPRMC,174200.000,A,5232.0798,N,01317.5356,E,32.77,207.10,050214,,,A*58
$GPGGA,174214.000,5232.0023,N,01317.3832,E,1,9,0.92,42.8,M,44.8,M,,*64
$GPRMC,174213.000,A,5232.0054,N,01317.3964,E,31.14,246.80,050214,,,A*5A
$GPGGA,174226.000,5231.9515,N,01317.2226,E,1,9,0.94,40.5,M,44.8,M,,*68
$GPRMC,174225.000,A,5231.9567,N,01317.2352,E,34.14,236.20,050214,,,A*56
$GPGGA,174238.000,5231.8690,N,01317.0900,E,1,8,1.22,37.7,M,44.8,M,,*6A
$GPRMC,174237.000,A,5231.8777,N,01317.1006,E,39.45,217.84,050214,,,A*52
$GPGGA,174248.000,5231.7721,N,01317.0022,E,1,9,0.94,35.6,M,44.8,M,,*6E
$GPRMC,174247.000,A,5231.7828,N,01317.0103,E,42.41,205.68,050214,,,A*53
$GPGGA,174258.000,5231.6679,N,01316.9336,E,1,8,1.03,33.9,M,44.8,M,,*6B
$GPRMC,174257.000,A,5231.6778,N,01316.9393,E,37.35,199.51,050214,,,A*57
$GPGGA,174309.000,5231.5544,N,01316.8823,E,1,9,0.92,32.2,M,44.8,M,,*6C
$GPRMC,174308.000,A,5231.5657,N,01316.8864,E,40.70,192.95,050214,,,A*53
$GPGGA,174320.000,5231.4417,N,01316.8628,E,1,9,0.94,30.9,M,44.8,M,,*6B
$GPRMC,174319.000,A,5231.4498,N,01316.8624,E,28.79,180.52,050214,,,A*56
$GPGGA,174333.000,5231.3259,N,01316.8873,E,1,9,1.01,26.8,M,44.8,M,,*69
$GPRMC,174332.000,A,5231.3361,N,01316.8843,E,36.68,168.76,050214,,,A*59
$GPGGA,174343.000,5231.2178,N,01316.9349,E,1,9,0.94,24.0,M,44.8,M,,*6B
$GPRMC,174342.000,A,5231.2289,N,01316.9297,E,40.94,164.31,050214,,,A*57
$GPGGA,174352.000,5231.1126,N,01316.9845,E,1,7,1.01,24.4,M,44.8,M,,*63
$GPRMC,174351.000,A,5231.1253,N,01316.9770,E,47.21,164.35,050214,,,A*50
$GPGGA,174402.000,5231.0037,N,01317.0426,E,1,7,1.04,30.2,M,44.8,M,,*66
$GPRMC,174401.000,A,5231.0135,N,01317.0349,E,39.03,156.07,050214,,,A*5F
$GPGGA,174413.000,5230.8935,N,01317.1040,E,1,8,1.23,33.3,M,44.8,M,,*69
$GPRMC,174412.000,A,5230.9030,N,01317.1004,E,35.70,166.87,050214,,,A*59
$GPGGA,174424.000,5230.7826,N,01317.1319,E,1,7,1.39,30.8,M,44.8,M,,*62
$GPRMC,174423.000,A,5230.7935,N,01317.1309,E,39.24,174.58,050214,,,A*5B
$GPGGA,174434.000,5230.6738,N,01317.1229,E,1,8,0.99,33.0,M,44.8,M,,*6F
$GPRMC,174433.000,A,5230.6845,N,01317.1258,E,38.39,187.45,050214,,,A*55
$GPGGA,174445.000,5230.5642,N,01317.0564,E,1,7,1.38,34.4,M,44.8,M,,*6F
$GPRMC,174444.000,A,5230.5740,N,01317.0630,E,39.39,203.78,050214,,,A*57
$GPGGA,174456.000,5230.4613,N,01316.9720,E,1,9,0.94,36.2,M,44.8,M,,*6F
$GPRMC,174455.000,A,5230.4696,N,01316.9792,E,35.85,206.20,050214,,,A*5E
$GPGGA,174511.000,5230.3574,N,01316.9120,E,1,8,0.97,35.0,M,44.8,M,,*6D
$GPRMC,174510.000,A,5230.3659,N,01316.9157,E,26.09,193.80,050214,,,A*56
$GPGGA,174523.000,5230.2416,N,01316.8803,E,1,7,1.71,44.4,M,44.8,M,,*65
$GPRMC,174522.000,A,5230.2516,N,01316.8825,E,37.09,187.57,050214,,,A*5C
$GPGGA,174537.000,5230.1427,N,01316.7992,E,1,8,1.23,43.3,M,44.8,M,,*6F
$GPRMC,174536.000,A,5230.1468,N,01316.8096,E,26.45,232.54,050214,,,A*54
$GPGGA,174550.000,5230.1229,N,01316.6131,E,1,8,1.22,36.4,M,44.8,M,,*62
$GPRMC,174549.000,A,5230.1269,N,01316.6263,E,32.88,246.98,050214,,,A*5A
$GPGGA,174602.000,5230.0374,N,01316.4930,E,1,9,0.94,42.6,M,44.8,M,,*69
$GPRMC,174601.000,A,5230.0462,N,01316.5042,E,38.97,217.06,050214,,,A*5C
$GPGGA,174611.000,5229.9496,N,01316.3858,E,1,9,0.94,43.9,M,44.9,M,,*66
$GPRMC,174610.000,A,5229.9592,N,01316.3981,E,44.18,217.61,050214,,,A*5E
$GPGGA,174621.000,5229.8563,N,01316.2651,E,1,9,0.92,44.8,M,44.9,M,,*69
$GPRMC,174620.000,A,5229.8663,N,01316.2780,E,45.18,218.71,050214,,,A*50
$GPGGA,174630.000,5229.7671,N,01316.1492,E,1,9,0.94,45.3,M,44.9,M,,*64
$GPRMC,174629.000,A,5229.7775,N,01316.1624,E,46.47,217.93,050214,,,A*56
$GPGGA,174639.000,5229.6721,N,01316.0302,E,1,8,0.96,45.9,M,44.9,M,,*6E
$GPRMC,174638.000,A,5229.6823,N,01316.0428,E,46.08,217.35,050214,,,A*53
$GPGGA,174647.000,5229.5828,N,01315.9190,E,1,8,1.03,45.5,M,44.9,M,,*60
$GPRMC,174646.000,A,5229.5945,N,01315.9336,E,52.61,217.53,050214,,,A*50
$GPGGA,174655.000,5229.4926,N,01315.8043,E,1,9,0.94,45.2,M,44.9,M,,*6A
$GPRMC,174654.000,A,5229.5038,N,01315.8183,E,51.04,217.28,050214,,,A*51
$GPGGA,174704.000,5229.3997,N,01315.6862,E,1,9,0.92,43.9,M,44.9,M,,*6C
$GPRMC,174703.000,A,5229.4093,N,01315.6983,E,44.22,217.89,050214,,,A*5F
$GPGGA,174714.000,5229.3070,N,01315.5683,E,1,9,0.94,43.4,M,44.9,M,,*64
$GPRMC,174713.000,A,5229.3162,N,01315.5800,E,41.80,217.76,050214,,,A*52
$GPGGA,174724.000,5229.2142,N,01315.4514,E,1,9,0.94,43.5,M,44.9,M,,*6B
$GPRMC,174723.000,A,5229.2234,N,01315.4630,E,42.18,217.76,050214,,,A*5E
$GPGGA,174733.000,5229.1224,N,01315.3387,E,1,9,0.92,42.2,M,44.9,M,,*66
$GPRMC,174732.000,A,5229.1338,N,01315.3526,E,50.48,216.96,050214,,,A*5A
$GPGGA,174741.000,5229.0280,N,01315.2179,E,1,9,0.92,41.1,M,44.9,M,,*6E
$GPRMC,174740.000,A,5229.0398,N,01315.2330,E,53.75,217.63,050214,,,A*52
$GPGGA,174748.000,5228.9413,N,01315.1100,E,1,9,0.94,41.2,M,44.9,M,,*6B
$GPRMC,174747.000,A,5228.9536,N,01315.1254,E,55.72,217.23,050214,,,A*5A
$GPGGA,174756.000,5228.8419,N,01314.9958,E,1,9,0.92,44.3,M,44.9,M,,*61
$GPRMC,174755.000,A,5228.8544,N,01315.0095,E,53.62,214.12,050214,,,A*55
$GPGGA,174804.000,5228.7455,N,01314.8870,E,1,9,0.94,47.6,M,44.9,M,,*64
$GPRMC,174803.000,A,5228.7572,N,01314.9002,E,50.84,214.54,050214,,,A*5C
$GPGGA,174812.000,5228.6473,N,01314.7766,E,1,9,0.94,48.5,M,44.9,M,,*6D
$GPRMC,174811.000,A,5228.6599,N,01314.7909,E,54.78,214.84,050214,,,A*5D
$GPGGA,174820.000,5228.5487,N,01314.6642,E,1,9,0.94,48.6,M,44.9,M,,*61
$GPRMC,174819.000,A,5228.5607,N,01314.6783,E,53.85,214.56,050214,,,A*55
$GPGGA,174828.000,5228.4517,N,01314.5559,E,1,9,0.94,48.6,M,44.9,M,,*6A
$GPRMC,174827.000,A,5228.4642,N,01314.5700,E,53.99,214.48,050214,,,A*52
$GPGGA,174836.000,5228.3541,N,01314.4409,E,1,9,0.94,49.5,M,44.9,M,,*66
$GPRMC,174835.000,A,5228.3655,N,01314.4551,E,52.27,216.73,050214,,,A*59
$GPGGA,174845.000,5228.2674,N,01314.3309,E,1,9,0.94,49.8,M,44.9,M,,*6B
$GPRMC,174844.000,A,5228.2772,N,01314.3432,E,44.09,217.32,050214,,,A*56
$GPGGA,174854.000,5228.1780,N,01314.2174,E,1,9,0.94,50.4,M,44.9,M,,*6F
$GPRMC,174853.000,A,5228.1872,N,01314.2289,E,42.51,217.56,050214,,,A*52
$GPGGA,174903.000,5228.0928,N,01314.1090,E,1,9,0.94,50.6,M,44.9,M,,*6B
$GPRMC,174902.000,A,5228.1027,N,01314.1217,E,45.13,217.86,050214,,,A*57
$GPGGA,174912.000,5228.0001,N,01313.9906,E,1,9,0.92,50.0,M,44.9,M,,*60
$GPRMC,174911.000,A,5228.0102,N,01314.0033,E,46.37,217.45,050214,,,A*5D
$GPGGA,174920.000,5227.9127,N,01313.8802,E,1,9,0.94,50.4,M,44.9,M,,*64
$GPRMC,174919.000,A,5227.9241,N,01313.8946,E,52.79,217.27,050214,,,A*58
$GPGGA,174928.000,5227.8191,N,01313.7628,E,1,9,0.94,51.5,M,44.9,M,,*69
$GPRMC,174927.000,A,5227.8305,N,01313.7772,E,52.61,217.20,050214,,,A*5D
$GPGGA,174935.000,5227.7303,N,01313.6543,E,1,9,0.94,51.7,M,44.9,M,,*6E
$GPRMC,174934.000,A,5227.7441,N,01313.6716,E,61.42,216.86,050214,,,A*58
$GPGGA,174941.000,5227.6437,N,01313.5430,E,1,9,0.94,51.1,M,44.9,M,,*6C
$GPRMC,174940.000,A,5227.6586,N,01313.5620,E,66.85,218.03,050214,,,A*58
$GPGGA,174947.000,5227.5542,N,01313.4312,E,1,9,0.94,51.2,M,44.9,M,,*6F
$GPRMC,174946.000,A,5227.5686,N,01313.4494,E,65.80,217.42,050214,,,A*5E
$GPGGA,174953.000,5227.4683,N,01313.3202,E,1,9,0.94,50.0,M,45.0,M,,*69
$GPRMC,174952.000,A,5227.4829,N,01313.3387,E,66.47,217.62,050214,,,A*59
$GPGGA,174959.000,5227.3819,N,01313.2117,E,1,9,0.94,49.5,M,45.0,M,,*62
$GPRMC,174958.000,A,5227.3955,N,01313.2288,E,63.49,217.46,050214,,,A*5C
$GPGGA,175006.000,5227.2944,N,01313.1021,E,1,9,0.94,49.6,M,45.0,M,,*6C
$GPRMC,175005.000,A,5227.3065,N,01313.1170,E,54.78,216.83,050214,,,A*5F
$GPGGA,175013.000,5227.2066,N,01312.9911,E,1,9,0.94,49.5,M,45.0,M,,*61
$GPRMC,175012.000,A,5227.2197,N,01313.0079,E,59.54,217.56,050214,,,A*57
$GPGGA,175020.000,5227.1139,N,01312.8750,E,1,9,0.94,48.8,M,45.0,M,,*6F
$GPRMC,175019.000,A,5227.1273,N,01312.8920,E,61.21,217.56,050214,,,A*53
$GPGGA,175027.000,5227.0151,N,01312.7497,E,1,9,0.94,46.0,M,45.0,M,,*66
$GPRMC,175026.000,A,5227.0295,N,01312.7684,E,66.39,217.97,050214,,,A*5B
$GPGGA,175034.000,5226.9165,N,01312.6253,E,1,9,0.94,44.7,M,45.0,M,,*61
$GPRMC,175033.000,A,5226.9301,N,01312.6424,E,62.49,217.42,050214,,,A*59
$GPGGA,175041.000,5226.8164,N,01312.5016,E,1,10,0.81,41.3,M,45.0,M,,*5E
$GPRMC,175040.000,A,5226.8315,N,01312.5196,E,67.90,214.10,050214,,,A*53
$GPGGA,175047.000,5226.7304,N,01312.3914,E,1,10,0.80,39.4,M,45.0,M,,*57
$GPRMC,175046.000,A,5226.7444,N,01312.4093,E,63.95,217.88,050214,,,A*5F
$GPGGA,175054.000,5226.6369,N,01312.2722,E,1,10,0.81,39.4,M,45.0,M,,*54
$GPRMC,175053.000,A,5226.6499,N,01312.2885,E,59.64,217.54,050214,,,A*55
$GPGGA,175101.000,5226.5458,N,01312.1575,E,1,9,0.94,41.0,M,45.0,M,,*67
$GPRMC,175100.000,A,5226.5592,N,01312.1744,E,60.52,218.01,050214,,,A*5A
$GPGGA,175108.000,5226.4516,N,01312.0387,E,1,9,0.94,41.3,M,45.0,M,,*6D
$GPRMC,175107.000,A,5226.4651,N,01312.0557,E,60.72,217.54,050214,,,A*5C
$GPGGA,175115.000,5226.3535,N,01311.9147,E,1,8,1.27,39.7,M,45.0,M,,*60
$GPRMC,175114.000,A,5226.3678,N,01311.9329,E,65.46,217.51,050214,,,A*50
$GPGGA,175122.000,5226.2550,N,01311.7893,E,1,9,0.94,39.5,M,45.0,M,,*62
$GPRMC,175121.000,A,5226.2688,N,01311.8068,E,62.89,217.72,050214,,,A*5A
$GPGGA,175129.000,5226.1622,N,01311.6716,E,1,9,0.92,35.9,M,45.0,M,,*69
$GPRMC,175128.000,A,5226.1747,N,01311.6873,E,57.71,217.50,050214,,,A*5F
$GPGGA,175137.000,5226.0617,N,01311.5691,E,1,9,0.94,30.3,M,45.0,M,,*65
$GPRMC,175136.000,A,5226.0754,N,01311.5785,E,53.21,205.86,050214,,,A*5F
$GPGGA,175145.000,5225.9457,N,01311.5258,E,1,9,0.92,28.3,M,45.0,M,,*62
$GPRMC,175144.000,A,5225.9606,N,01311.5290,E,54.77,188.80,050214,,,A*53
$GPGGA,175153.000,5225.8294,N,01311.5002,E,1,8,1.21,29.5,M,45.0,M,,*6F
$GPRMC,175152.000,A,5225.8439,N,01311.5035,E,52.31,188.81,050214,,,A*53
$GPGGA,175201.000,5225.7078,N,01311.4722,E,1,9,0.92,32.1,M,45.0,M,,*66
$GPRMC,175200.000,A,5225.7231,N,01311.4757,E,54.47,188.85,050214,,,A*57
$GPGGA,175209.000,5225.5928,N,01311.4704,E,1,8,0.88,34.1,M,45.0,M,,*68
$GPRMC,175208.000,A,5225.6067,N,01311.4663,E,50.39,175.90,050214,,,A*52
$GPGGA,175217.000,5225.5011,N,01311.5716,E,1,10,0.81,30.8,M,45.0,M,,*5B
$GPRMC,175216.000,A,5225.5110,N,01311.5553,E,48.95,137.67,050214,,,A*5F
$GPGGA,175225.000,5225.4186,N,01311.6935,E,1,10,0.81,28.3,M,45.0,M,,*5A
$GPRMC,175224.000,A,5225.4306,N,01311.6812,E,49.88,144.72,050214,,,A*5C
$GPGGA,175233.000,5225.3130,N,01311.7416,E,1,10,0.81,28.5,M,45.0,M,,*5C
$GPRMC,175232.000,A,5225.3270,N,01311.7387,E,50.37,171.56,050214,,,A*56
$GPGGA,175241.000,5225.1992,N,01311.7637,E,1,8,0.97,28.7,M,45.0,M,,*66
$GPRMC,175240.000,A,5225.2136,N,01311.7604,E,51.82,171.87,050214,,,A*5E
$GPGGA,175249.000,5225.0770,N,01311.7901,E,1,10,0.81,28.4,M,45.0,M,,*5A
$GPRMC,175248.000,A,5225.0926,N,01311.7868,E,56.93,172.28,050214,,,A*58
$GPGGA,175256.000,5224.9702,N,01311.8139,E,1,8,1.22,30.7,M,45.0,M,,*6E
$GPRMC,175255.000,A,5224.9858,N,01311.8105,E,56.09,172.15,050214,,,A*54
$GPGGA,175303.000,5224.8609,N,01311.8362,E,1,10,0.81,34.0,M,45.0,M,,*5A
$GPRMC,175302.000,A,5224.8772,N,01311.8329,E,59.03,173.35,050214,,,A*5B
$GPGGA,175310.000,5224.7485,N,01311.8376,E,1,9,1.07,35.6,M,45.0,M,,*64
$GPRMC,175309.000,A,5224.7647,N,01311.8404,E,58.22,184.67,050214,,,A*5D
$GPGGA,175317.000,5224.6355,N,01311.7832,E,1,10,0.81,39.4,M,45.0,M,,*55
$GPRMC,175316.000,A,5224.6514,N,01311.7944,E,61.66,201.26,050214,,,A*50
$GPGGA,175324.000,5224.5342,N,01311.6803,E,1,9,0.94,40.4,M,45.0,M,,*61
$GPRMC,175323.000,A,5224.5483,N,01311.6967,E,61.67,214.18,050214,,,A*52
$GPGGA,175331.000,5224.4323,N,01311.5625,E,1,10,0.81,42.5,M,45.0,M,,*55
$GPRMC,175330.000,A,5224.4464,N,01311.5788,E,61.99,214.94,050214,,,A*51
$GPGGA,175338.000,5224.3360,N,01311.4518,E,1,10,0.81,42.2,M,45.0,M,,*57
$GPRMC,175337.000,A,5224.3499,N,01311.4674,E,60.03,214.70,050214,,,A*58
$GPGGA,175345.000,5224.2362,N,01311.3380,E,1,10,0.81,41.9,M,45.0,M,,*56
$GPRMC,175344.000,A,5224.2505,N,01311.3541,E,62.76,214.81,050214,,,A*55
$GPGGA,175352.000,5224.1389,N,01311.2280,E,1,10,0.81,40.1,M,45.1,M,,*5E
$GPRMC,175351.000,A,5224.1527,N,01311.2436,E,60.21,214.66,050214,,,A*5B
$GPGGA,175359.000,5224.0433,N,01311.1200,E,1,9,0.94,37.1,M,45.1,M,,*65
$GPRMC,175358.000,A,5224.0574,N,01311.1358,E,60.88,214.90,050214,,,A*53
$GPGGA,175406.000,5223.9432,N,01311.0062,E,1,10,0.81,34.3,M,45.1,M,,*5D
$GPRMC,175405.000,A,5223.9573,N,01311.0223,E,61.99,215.16,050214,,,A*57
$GPGGA,175413.000,5223.8490,N,01310.8952,E,1,9,1.08,33.1,M,45.1,M,,*6E
$GPRMC,175412.000,A,5223.8617,N,01310.9117,E,58.48,217.90,050214,,,A*57
$GPGGA,175421.000,5223.7611,N,01310.7561,E,1,9,0.94,37.7,M,45.1,M,,*6E
$GPRMC,175420.000,A,5223.7712,N,01310.7757,E,56.43,228.05,050214,,,A*54
$GPGGA,175428.000,5223.6947,N,01310.5961,E,1,8,1.29,37.3,M,45.1,M,,*66
$GPRMC,175427.000,A,5223.7031,N,01310.6206,E,61.57,239.58,050214,,,A*5C
$GPGGA,175435.000,5223.6435,N,01310.4136,E,1,8,1.30,33.2,M,45.1,M,,*64
$GPRMC,175434.000,A,5223.6499,N,01310.4405,E,63.44,247.75,050214,,,A*58
$GPGGA,175441.000,5223.6048,N,01310.2479,E,1,8,1.30,30.4,M,45.1,M,,*64
$GPRMC,175440.000,A,5223.6115,N,01310.2763,E,66.46,248.54,050214,,,A*54
$GPGGA,175447.000,5223.5640,N,01310.0756,E,1,8,1.25,30.5,M,45.1,M,,*66
$GPRMC,175446.000,A,5223.5707,N,01310.1040,E,67.38,248.54,050214,,,A*59
$GPGGA,175453.000,5223.5248,N,01309.9102,E,1,8,1.30,30.9,M,45.1,M,,*61
$GPRMC,175452.000,A,5223.5312,N,01309.9370,E,63.90,248.48,050214,,,A*57
$GPGGA,175500.000,5223.4790,N,01309.7193,E,1,8,1.30,31.8,M,45.1,M,,*61
$GPRMC,175459.000,A,5223.4856,N,01309.7470,E,65.44,248.40,050214,,,A*58
$GPGGA,175507.000,5223.4288,N,01309.5337,E,1,8,1.25,33.1,M,45.1,M,,*6B
$GPRMC,175506.000,A,5223.4374,N,01309.5591,E,63.78,242.72,050214,,,A*56
$GPGGA,175514.000,5223.3543,N,01309.3819,E,1,10,0.81,34.9,M,45.1,M,,*56
$GPRMC,175513.000,A,5223.3664,N,01309.4009,E,60.51,226.07,050214,,,A*5C
$GPGGA,175521.000,5223.2572,N,01309.2687,E,1,9,0.94,35.7,M,45.1,M,,*68
$GPRMC,175520.000,A,5223.2720,N,01309.2817,E,60.78,210.40,050214,,,A*50
$GPGGA,175528.000,5223.1517,N,01309.1971,E,1,10,0.81,34.7,M,45.1,M,,*59
$GPRMC,175527.000,A,5223.1665,N,01309.2065,E,57.30,201.53,050214,,,A*53
$GPGGA,175535.000,5223.0472,N,01309.1305,E,1,10,0.81,33.9,M,45.1,M,,*56
$GPRMC,175534.000,A,5223.0624,N,01309.1402,E,58.83,201.54,050214,,,A*53
$GPGGA,175542.000,5222.9438,N,01309.0636,E,1,10,0.81,34.5,M,45.1,M,,*5F
$GPRMC,175541.000,A,5222.9577,N,01309.0727,E,54.84,201.80,050214,,,A*5B
$GPGGA,175550.000,5222.8290,N,01309.0003,E,1,8,1.31,36.0,M,45.1,M,,*6D
$GPRMC,175549.000,A,5222.8444,N,01309.0065,E,56.61,195.37,050214,,,A*59
$GPGGA,175557.000,5222.7216,N,01308.9805,E,1,9,1.08,35.3,M,45.1,M,,*66
$GPRMC,175556.000,A,5222.7365,N,01308.9812,E,54.14,183.07,050214,,,A*58
$GPGGA,175605.000,5222.5992,N,01308.9840,E,1,8,1.25,32.6,M,45.1,M,,*6A
$GPRMC,175604.000,A,5222.6159,N,01308.9833,E,59.09,179.08,050214,,,A*58
$GPGGA,175612.000,5222.4831,N,01308.9877,E,1,8,1.31,30.9,M,45.1,M,,*69
$GPRMC,175611.000,A,5222.4985,N,01308.9872,E,57.07,179.05,050214,,,A*5F
$GPGGA,175620.000,5222.3631,N,01308.9906,E,1,8,1.26,26.6,M,45.1,M,,*68
$GPRMC,175619.000,A,5222.3795,N,01308.9903,E,57.88,179.16,050214,,,A*5D
$GPGGA,175627.000,5222.2418,N,01308.9915,E,1,10,0.81,26.6,M,45.1,M,,*50
$GPRMC,175626.000,A,5222.2593,N,01308.9922,E,63.99,180.85,050214,,,A*5C
$GPGGA,175634.000,5222.1215,N,01308.9527,E,1,10,0.81,25.8,M,45.1,M,,*5A
$GPRMC,175633.000,A,5222.1379,N,01308.9618,E,62.39,197.05,050214,,,A*5A
$GPGGA,175641.000,5222.0151,N,01308.8564,E,1,9,0.94,24.9,M,45.1,M,,*60
$GPRMC,175640.000,A,5222.0294,N,01308.8736,E,62.71,214.57,050214,,,A*52
$GPGGA,175648.000,5221.9311,N,01308.7252,E,1,9,0.94,26.3,M,45.1,M,,*60
$GPRMC,175647.000,A,5221.9422,N,01308.7444,E,58.58,226.07,050214,,,A*5B
$GPGGA,175655.000,5221.8517,N,01308.5946,E,1,9,0.94,28.4,M,45.1,M,,*68
$GPRMC,175654.000,A,5221.8642,N,01308.6138,E,60.93,223.48,050214,,,A*51
$GPGGA,175702.000,5221.7503,N,01308.4823,E,1,9,0.94,30.0,M,45.1,M,,*6F
$GPRMC,175701.000,A,5221.7661,N,01308.4952,E,63.59,208.22,050214,,,A*58
$GPGGA,175709.000,5221.6310,N,01308.4266,E,1,9,0.94,30.2,M,45.1,M,,*68
$GPRMC,175708.000,A,5221.6492,N,01308.4308,E,66.00,190.41,050214,,,A*55
$GPGGA,175715.000,5221.5162,N,01308.4248,E,1,9,1.23,28.8,M,45.2,M,,*60
$GPRMC,175714.000,A,5221.5350,N,01308.4240,E,67.83,179.00,050214,,,A*57
$GPGGA,175721.000,5221.4039,N,01308.4288,E,1,9,1.09,27.6,M,45.2,M,,*6C
$GPRMC,175720.000,A,5221.4227,N,01308.4280,E,67.92,178.93,050214,,,A*57
$GPGGA,175727.000,5221.2933,N,01308.4324,E,1,9,0.95,27.2,M,45.2,M,,*68
$GPRMC,175726.000,A,5221.3113,N,01308.4321,E,64.65,179.51,050214,,,A*5C
$GPGGA,175733.000,5221.1812,N,01308.4355,E,1,9,1.09,26.8,M,45.2,M,,*65
$GPRMC,175732.000,A,5221.2004,N,01308.4350,E,68.83,179.09,050214,,,A*50
$GPGGA,175739.000,5221.0630,N,01308.4379,E,1,9,1.23,26.4,M,45.2,M,,*6A
$GPRMC,175738.000,A,5221.0831,N,01308.4376,E,71.96,179.25,050214,,,A*50
$GPGGA,175745.000,5220.9453,N,01308.4408,E,1,9,1.09,26.6,M,45.2,M,,*65
$GPRMC,175744.000,A,5220.9650,N,01308.4403,E,70.16,179.30,050214,,,A*52
$GPGGA,175751.000,5220.8259,N,01308.4447,E,1,9,1.23,26.7,M,45.2,M,,*6F
$GPRMC,175750.000,A,5220.8460,N,01308.4442,E,72.43,179.13,050214,,,A*51
$GPGGA,175757.000,5220.7104,N,01308.4474,E,1,10,0.81,27.3,M,45.2,M,,*59
$GPRMC,175756.000,A,5220.7295,N,01308.4471,E,68.70,179.01,050214,,,A*5C
$GPGGA,175803.000,5220.5943,N,01308.4341,E,1,10,0.81,27.6,M,45.2,M,,*5A
$GPRMC,175802.000,A,5220.6138,N,01308.4390,E,70.70,187.10,050214,,,A*57
$GPGGA,175809.000,5220.4802,N,01308.3809,E,1,10,0.81,27.2,M,45.2,M,,*51
$GPRMC,175808.000,A,5220.4985,N,01308.3920,E,70.23,198.51,050214,,,A*5A
$GPGGA,175815.000,5220.3781,N,01308.2966,E,1,9,0.93,26.8,M,45.2,M,,*66
$GPRMC,175814.000,A,5220.3944,N,01308.3129,E,68.42,209.81,050214,,,A*54
$GPGGA,175821.000,5220.2871,N,01308.1801,E,1,10,0.81,27.6,M,45.2,M,,*57
$GPRMC,175820.000,A,5220.3013,N,01308.2013,E,69.51,220.75,050214,,,A*52
$GPGGA,175827.000,5220.2119,N,01308.0385,E,1,8,1.33,27.0,M,45.2,M,,*67
$GPRMC,175826.000,A,5220.2233,N,01308.0635,E,68.86,232.01,050214,,,A*5E
$GPGGA,175833.000,5220.1543,N,01307.8742,E,1,8,1.33,25.7,M,45.2,M,,*67
$GPRMC,175832.000,A,5220.1626,N,01307.9034,E,70.43,243.09,050214,,,A*57
$GPGGA,175839.000,5220.1073,N,01307.7046,E,1,8,1.33,24.3,M,45.2,M,,*62
$GPRMC,175838.000,A,5220.1151,N,01307.7323,E,66.78,244.80,050214,,,A*58
$GPGGA,175845.000,5220.0600,N,01307.5375,E,1,9,0.95,25.2,M,45.2,M,,*67
$GPRMC,175844.000,A,5220.0678,N,01307.5655,E,68.18,244.97,050214,,,A*56
$GPGGA,175851.000,5220.0122,N,01307.3689,E,1,10,0.81,25.7,M,45.2,M,,*5D
$GPRMC,175850.000,A,5220.0202,N,01307.3971,E,68.95,244.93,050214,,,A*54
$GPGGA,175857.000,5219.9645,N,01307.2030,E,1,10,0.81,26.0,M,45.2,M,,*5F
$GPRMC,175856.000,A,5219.9724,N,01307.2306,E,66.97,244.74,050214,,,A*5E
$GPGGA,175903.000,5219.9124,N,01307.0248,E,1,10,0.81,27.0,M,45.2,M,,*51
$GPRMC,175902.000,A,5219.9216,N,01307.0558,E,75.59,244.02,050214,,,A*54
$GPGGA,175909.000,5219.8587,N,01306.8377,E,1,10,0.81,28.0,M,45.2,M,,*5C
$GPRMC,175908.000,A,5219.8674,N,01306.8686,E,75.14,244.80,050214,,,A*55
$GPGGA,175915.000,5219.8079,N,01306.6613,E,1,8,1.34,26.0,M,45.2,M,,*64
$GPRMC,175914.000,A,5219.8166,N,01306.6904,E,71.05,244.83,050214,,,A*50
$GPGGA,175921.000,5219.7425,N,01306.4952,E,1,9,1.09,23.6,M,45.2,M,,*65
$GPRMC,175920.000,A,5219.7550,N,01306.5215,E,74.12,233.60,050214,,,A*5F
$GPGGA,175927.000,5219.6560,N,01306.3578,E,1,8,1.26,28.3,M,45.2,M,,*63
$GPRMC,175926.000,A,5219.6723,N,01306.3792,E,74.36,220.13,050214,,,A*52
$GPGGA,175933.000,5219.5513,N,01306.2437,E,1,9,0.95,34.7,M,45.2,M,,*6B
$GPRMC,175932.000,A,5219.5686,N,01306.2623,E,74.55,213.51,050214,,,A*53
$GPGGA,175939.000,5219.4522,N,01306.1403,E,1,9,0.95,39.0,M,45.2,M,,*6C
$GPRMC,175938.000,A,5219.4681,N,01306.1568,E,68.20,212.79,050214,,,A*54
$GPGGA,175945.000,5219.3575,N,01306.0432,E,1,9,0.82,40.6,M,45.2,M,,*6F
$GPRMC,175944.000,A,5219.3737,N,01306.0600,E,68.37,212.55,050214,,,A*50
$GPGGA,175951.000,5219.2589,N,01305.9396,E,1,10,0.81,37.5,M,45.2,M,,*53
$GPRMC,175950.000,A,5219.2751,N,01305.9568,E,69.95,212.90,050214,,,A*53
$GPGGA,175957.000,5219.1637,N,01305.8397,E,1,9,0.82,34.4,M,45.2,M,,*69
$GPRMC,175956.000,A,5219.1794,N,01305.8562,E,67.45,212.68,050214,,,A*50
$GPGGA,180003.000,5219.0681,N,01305.7398,E,1,10,0.81,33.6,M,45.2,M,,*59
$GPRMC,180002.000,A,5219.0842,N,01305.7564,E,69.00,212.50,050214,,,A*5A
$GPGGA,180009.000,5218.9729,N,01305.6441,E,1,9,0.93,36.5,M,45.2,M,,*67
$GPRMC,180008.000,A,5218.9894,N,01305.6590,E,68.08,210.69,050214,,,A*58
$GPGGA,180015.000,5218.8720,N,01305.5723,E,1,9,0.86,39.2,M,45.2,M,,*6A
$GPRMC,180014.000,A,5218.8886,N,01305.5834,E,64.66,202.21,050214,,,A*5C
$GPGGA,180022.000,5218.7570,N,01305.4976,E,1,10,0.81,44.3,M,45.3,M,,*5C
$GPRMC,180021.000,A,5218.7729,N,01305.5080,E,62.37,201.55,050214,,,A*5A
$GPGGA,180029.000,5218.6423,N,01305.4238,E,1,10,0.81,47.1,M,45.3,M,,*51
$GPRMC,180028.000,A,5218.6583,N,01305.4341,E,62.80,201.75,050214,,,A*51
$GPGGA,180036.000,5218.5283,N,01305.3486,E,1,9,0.95,49.2,M,45.3,M,,*64
$GPRMC,180035.000,A,5218.5444,N,01305.3591,E,63.32,201.84,050214,,,A*5E
$GPGGA,180043.000,5218.4155,N,01305.2764,E,1,10,0.81,50.5,M,45.3,M,,*53
$GPRMC,180042.000,A,5218.4323,N,01305.2872,E,64.40,201.85,050214,,,A*5B
$GPGGA,180049.000,5218.3129,N,01305.2098,E,1,10,0.81,51.8,M,45.3,M,,*5D
$GPRMC,180048.000,A,5218.3302,N,01305.2211,E,66.91,201.86,050214,,,A*57
$GPGGA,180056.000,5218.2030,N,01305.1208,E,1,10,0.81,52.1,M,45.3,M,,*59
$GPRMC,180055.000,A,5218.2178,N,01305.1364,E,63.03,211.36,050214,,,A*51
$GPGGA,180102.000,5218.1208,N,01305.0006,E,1,9,0.95,51.2,M,45.3,M,,*63
$GPRMC,180101.000,A,5218.1336,N,01305.0240,E,68.91,226.61,050214,,,A*5A
$GPGGA,180108.000,5218.0616,N,01304.8382,E,1,10,0.81,47.5,M,45.3,M,,*58
$GPRMC,180107.000,A,5218.0696,N,01304.8668,E,67.90,243.59,050214,,,A*53
$GPGGA,180114.000,5218.0335,N,01304.6556,E,1,10,0.81,45.9,M,45.3,M,,*5E
$GPRMC,180113.000,A,5218.0361,N,01304.6861,E,68.41,260.17,050214,,,A*5A
$GPGGA,180120.000,5218.0304,N,01304.4687,E,1,9,1.27,46.5,M,45.3,M,,*6C
$GPRMC,180119.000,A,5218.0301,N,01304.4995,E,69.34,269.79,050214,,,A*5C
$GPGGA,180127.000,5218.0355,N,01304.2658,E,1,8,1.20,48.2,M,45.3,M,,*64
$GPRMC,180126.000,A,5218.0347,N,01304.2949,E,64.80,272.29,050214,,,A*58
$GPGGA,180134.000,5218.0413,N,01304.0635,E,1,10,0.81,47.4,M,45.3,M,,*50
$GPRMC,180133.000,A,5218.0406,N,01304.0931,E,65.56,271.84,050214,,,A*5D
$GPGGA,180141.000,5218.0475,N,01303.8673,E,1,9,1.10,46.7,M,45.3,M,,*6C
$GPRMC,180140.000,A,5218.0464,N,01303.8937,E,59.03,273.18,050214,,,A*5C
$GPGGA,180148.000,5218.0542,N,01303.6899,E,1,9,0.83,45.4,M,45.3,M,,*6F
$GPRMC,180147.000,A,5218.0532,N,01303.7144,E,54.85,273.50,050214,,,A*55
$GPGGA,180156.000,5218.0612,N,01303.4950,E,1,8,1.30,41.1,M,45.3,M,,*69
$GPRMC,180155.000,A,5218.0602,N,01303.5204,E,56.15,273.13,050214,,,A*5F
$GPGGA,180203.000,5218.0676,N,01303.3166,E,1,9,1.28,37.4,M,45.3,M,,*6E
$GPRMC,180202.000,A,5218.0667,N,01303.3416,E,55.92,272.89,050214,,,A*50
$GPGGA,180211.000,5218.0748,N,01303.1162,E,1,9,1.10,36.3,M,45.3,M,,*6A
$GPRMC,180210.000,A,5218.0739,N,01303.1416,E,55.59,273.25,050214,,,A*5B
$GPGGA,180218.000,5218.0803,N,01302.9400,E,1,8,1.27,37.2,M,45.3,M,,*6E
$GPRMC,180217.000,A,5218.0797,N,01302.9643,E,53.95,272.61,050214,,,A*54
$GPGGA,180226.000,5218.0688,N,01302.7545,E,1,8,1.36,40.1,M,45.3,M,,*63
$GPRMC,180225.000,A,5218.0719,N,01302.7771,E,51.19,258.26,050214,,,A*50
$GPGGA,180234.000,5218.0243,N,01302.5769,E,1,9,1.10,45.2,M,45.3,M,,*6E
$GPRMC,180233.000,A,5218.0319,N,01302.5987,E,55.06,242.35,050214,,,A*55
$GPGGA,180241.000,5217.9678,N,01302.4224,E,1,9,1.28,48.2,M,45.3,M,,*6D
$GPRMC,180240.000,A,5217.9760,N,01302.4445,E,56.14,239.59,050214,,,A*59
$GPGGA,180248.000,5217.9205,N,01302.2587,E,1,8,1.27,48.6,M,45.3,M,,*68
$GPRMC,180247.000,A,5217.9253,N,01302.2822,E,54.92,250.13,050214,,,A*5D
$GPGGA,180256.000,5217.9006,N,01302.0607,E,1,9,1.10,46.6,M,45.3,M,,*64
$GPRMC,180255.000,A,5217.9010,N,01302.0859,E,55.72,267.27,050214,,,A*59
$GPGGA,180303.000,5217.9122,N,01301.8858,E,1,8,1.27,47.4,M,45.3,M,,*6B
$GPRMC,180302.000,A,5217.9088,N,01301.9119,E,57.49,281.10,050214,,,A*5A
$GPGGA,180310.000,5217.9548,N,01301.7009,E,1,8,1.27,49.8,M,45.3,M,,*60
$GPRMC,180309.000,A,5217.9479,N,01301.7268,E,62.88,294.31,050214,,,A*5C
$GPGGA,180317.000,5218.0025,N,01301.5328,E,1,9,1.29,51.8,M,45.3,M,,*6B
$GPRMC,180316.000,A,5217.9959,N,01301.5555,E,55.96,294.52,050214,,,A*58
$GPGGA,180325.000,5218.0519,N,01301.3621,E,1,9,1.29,48.7,M,45.3,M,,*6D
$GPRMC,180324.000,A,5218.0460,N,01301.3824,E,49.77,295.05,050214,,,A*54
$GPGGA,180333.000,5218.1010,N,01301.1908,E,1,9,1.29,43.3,M,45.3,M,,*6E
$GPRMC,180332.000,A,5218.0943,N,01301.2140,E,55.77,294.56,050214,,,A*5F
$GPGGA,180340.000,5218.1508,N,01301.0158,E,1,9,1.29,42.9,M,45.3,M,,*61
$GPRMC,180339.000,A,5218.1436,N,01301.0415,E,62.20,294.75,050214,,,A*5A
$GPGGA,180347.000,5218.1915,N,01300.8374,E,1,8,1.37,41.5,M,45.3,M,,*62
$GPRMC,180346.000,A,5218.1870,N,01300.8638,E,59.74,286.27,050214,,,A*55
$GPGGA,180354.000,5218.2079,N,01300.6505,E,1,8,1.37,39.1,M,45.3,M,,*65
$GPRMC,180353.000,A,5218.2070,N,01300.6765,E,58.39,273.75,050214,,,A*58
$GPGGA,180402.000,5218.2114,N,01300.4615,E,1,9,1.10,36.5,M,45.3,M,,*64
$GPRMC,180401.000,A,5218.2109,N,01300.4847,E,50.99,272.87,050214,,,A*54
$GPGGA,180410.000,5218.2134,N,01300.2787,E,1,8,1.27,37.7,M,45.3,M,,*6F
$GPRMC,180409.000,A,5218.2134,N,01300.3019,E,50.61,271.01,050214,,,A*5C
$GPGGA,180417.000,5218.2144,N,01300.0981,E,1,9,1.30,41.4,M,45.4,M,,*67
$GPRMC,180416.000,A,5218.2145,N,01300.1254,E,59.48,270.31,050214,,,A*5D
$GPGGA,180423.000,5218.2146,N,01259.9210,E,1,9,1.30,42.4,M,45.4,M,,*66
$GPRMC,180422.000,A,5218.2142,N,01259.9508,E,65.72,270.80,050214,,,A*5A
$GPGGA,180429.000,5218.2164,N,01259.7367,E,1,8,1.38,42.0,M,45.4,M,,*6E
$GPRMC,180428.000,A,5218.2161,N,01259.7677,E,68.72,271.06,050214,,,A*56
$GPGGA,180435.000,5218.2195,N,01259.5529,E,1,8,1.27,42.2,M,45.4,M,,*6F
$GPRMC,180434.000,A,5218.2189,N,01259.5842,E,68.64,272.03,050214,,,A*56
$GPGGA,180441.000,5218.2226,N,01259.3698,E,1,8,1.27,43.8,M,45.4,M,,*63
$GPRMC,180440.000,A,5218.2220,N,01259.3993,E,65.41,271.66,050214,,,A*54
$GPGGA,180447.000,5218.2244,N,01259.1900,E,1,9,1.30,44.7,M,45.4,M,,*62
$GPRMC,180446.000,A,5218.2240,N,01259.2212,E,68.25,270.84,050214,,,A*55
$GPGGA,180453.000,5218.2265,N,01259.0080,E,1,8,1.27,46.3,M,45.4,M,,*65
$GPRMC,180452.000,A,5218.2262,N,01259.0372,E,65.04,271.32,050214,,,A*57
$GPGGA,180500.000,5218.2281,N,01258.8139,E,1,8,1.38,46.3,M,45.4,M,,*6C
$GPRMC,180459.000,A,5218.2279,N,01258.8415,E,60.28,270.37,050214,,,A*56
$GPGGA,180507.000,5218.2253,N,01258.6160,E,1,8,1.38,46.4,M,45.4,M,,*61
$GPRMC,180506.000,A,5218.2272,N,01258.6447,E,62.65,265.45,050214,,,A*55
$GPGGA,180513.000,5218.2005,N,01258.4414,E,1,9,1.31,47.6,M,45.4,M,,*6A
$GPRMC,180512.000,A,5218.2061,N,01258.4704,E,66.84,253.99,050214,,,A*59
$GPGGA,180519.000,5218.1625,N,01258.2717,E,1,9,1.10,47.0,M,45.4,M,,*64
$GPRMC,180518.000,A,5218.1688,N,01258.2998,E,65.94,249.66,050214,,,A*55
$GPGGA,180525.000,5218.1231,N,01258.1003,E,1,9,1.10,42.8,M,45.4,M,,*66
$GPRMC,180524.000,A,5218.1299,N,01258.1299,E,69.03,249.53,050214,,,A*53
$GPGGA,180531.000,5218.0822,N,01257.9196,E,1,7,1.42,37.7,M,45.4,M,,*64
$GPRMC,180530.000,A,5218.0889,N,01257.9492,E,70.01,249.84,050214,,,A*56
$GPGGA,180537.000,5218.0415,N,01257.7428,E,1,8,1.39,36.5,M,45.4,M,,*64
$GPRMC,180536.000,A,5218.0481,N,01257.7726,E,69.22,249.69,050214,,,A*5C
$GPGGA,180543.000,5218.0000,N,01257.5614,E,1,7,1.39,41.4,M,45.4,M,,*66
$GPRMC,180542.000,A,5218.0069,N,01257.5918,E,71.54,249.66,050214,,,A*5B
$GPGGA,180549.000,5217.9591,N,01257.3823,E,1,7,1.29,47.4,M,45.4,M,,*6C
$GPRMC,180548.000,A,5217.9657,N,01257.4116,E,69.33,249.50,050214,,,A*56
$GPGGA,180555.000,5217.9197,N,01257.2084,E,1,7,1.39,53.1,M,45.4,M,,*66
$GPRMC,180554.000,A,5217.9259,N,01257.2369,E,66.83,249.41,050214,,,A*59
$GPGGA,180601.000,5217.8817,N,01257.0394,E,1,7,1.42,58.4,M,45.4,M,,*66
$GPRMC,180600.000,A,5217.8878,N,01257.0667,E,65.11,249.70,050214,,,A*50
$GPGGA,180608.000,5217.8405,N,01256.8609,E,1,8,1.34,61.3,M,45.4,M,,*6B
$GPRMC,180607.000,A,5217.8461,N,01256.8853,E,58.08,249.51,050214,,,A*56
$GPGGA,180615.000,5217.7998,N,01256.6851,E,1,7,1.42,60.3,M,45.4,M,,*63
$GPRMC,180614.000,A,5217.8058,N,01256.7111,E,61.59,249.74,050214,,,A*53
$GPGGA,180622.000,5217.7567,N,01256.4975,E,1,7,1.34,59.5,M,45.4,M,,*63
$GPRMC,180621.000,A,5217.7632,N,01256.5260,E,66.34,249.84,050214,,,A*54
$GPGGA,180628.000,5217.7157,N,01256.3195,E,1,8,1.27,60.5,M,45.4,M,,*68
$GPRMC,180627.000,A,5217.7229,N,01256.3503,E,71.67,249.17,050214,,,A*52
$GPGGA,180634.000,5217.6724,N,01256.1323,E,1,8,1.15,61.7,M,45.4,M,,*69
$GPRMC,180633.000,A,5217.6795,N,01256.1636,E,73.54,249.39,050214,,,A*5D
$GPGGA,180640.000,5217.6291,N,01255.9427,E,1,7,1.34,62.3,M,45.4,M,,*62
$GPRMC,180639.000,A,5217.6365,N,01255.9745,E,75.01,249.53,050214,,,A*58
$GPGGA,180646.000,5217.5845,N,01255.7487,E,1,8,1.34,62.4,M,45.4,M,,*68
$GPRMC,180645.000,A,5217.5918,N,01255.7811,E,76.52,249.71,050214,,,A*55
$GPGGA,180652.000,5217.5419,N,01255.5617,E,1,8,1.34,62.7,M,45.4,M,,*62
$GPRMC,180651.000,A,5217.5488,N,01255.5922,E,72.21,249.50,050214,,,A*54
$GPGGA,180658.000,5217.5019,N,01255.3868,E,1,8,1.34,62.4,M,45.4,M,,*6F
$GPRMC,180657.000,A,5217.5084,N,01255.4155,E,67.80,249.33,050214,,,A*59
$GPGGA,180704.000,5217.4638,N,01255.2196,E,1,8,1.34,60.7,M,45.4,M,,*6B
$GPRMC,180703.000,A,5217.4699,N,01255.2464,E,64.44,249.47,050214,,,A*5B
$GPGGA,180711.000,5217.4050,N,01255.0569,E,1,9,1.32,58.0,M,45.4,M,,*6A
$GPRMC,180710.000,A,5217.4158,N,01255.0778,E,60.00,232.43,050214,,,A*53
$GPGGA,180718.000,5217.3064,N,01254.9407,E,1,9,1.32,59.1,M,45.5,M,,*63
$GPRMC,180717.000,A,5217.3225,N,01254.9532,E,64.20,207.27,050214,,,A*5C
$GPGGA,180724.000,5217.2006,N,01254.8947,E,1,9,1.32,60.8,M,45.5,M,,*62
$GPRMC,180723.000,A,5217.2194,N,01254.9006,E,67.33,191.57,050214,,,A*5B
$GPGGA,180730.000,5217.0832,N,01254.8579,E,1,8,1.40,61.9,M,45.5,M,,*6F
$GPRMC,180729.000,A,5217.1030,N,01254.8642,E,71.74,191.78,050214,,,A*53
$GPGGA,180736.000,5216.9634,N,01254.8186,E,1,9,1.33,61.3,M,45.5,M,,*62
$GPRMC,180735.000,A,5216.9837,N,01254.8252,E,73.54,191.71,050214,,,A*54
$GPGGA,180742.000,5216.8420,N,01254.7779,E,1,9,1.11,59.9,M,45.5,M,,*6F
$GPRMC,180741.000,A,5216.8622,N,01254.7847,E,74.21,191.96,050214,,,A*51
$GPGGA,180748.000,5216.7192,N,01254.7370,E,1,9,1.11,58.7,M,45.5,M,,*64
$GPRMC,180747.000,A,5216.7400,N,01254.7439,E,75.83,191.56,050214,,,A*5A
$GPGGA,180754.000,5216.5990,N,01254.6969,E,1,8,1.27,57.7,M,45.5,M,,*69
$GPRMC,180753.000,A,5216.6187,N,01254.7037,E,72.34,191.68,050214,,,A*58
$GPGGA,180800.000,5216.4827,N,01254.6574,E,1,9,1.11,57.2,M,45.5,M,,*6A
$GPRMC,180759.000,A,5216.5020,N,01254.6637,E,71.04,191.66,050214,,,A*54
$GPGGA,180806.000,5216.3686,N,01254.6189,E,1,9,1.11,58.3,M,45.5,M,,*66
$GPRMC,180805.000,A,5216.3875,N,01254.6253,E,69.40,191.58,050214,,,A*5E
$GPGGA,180812.000,5216.2564,N,01254.5811,E,1,9,1.33,58.7,M,45.5,M,,*62
$GPRMC,180811.000,A,5216.2751,N,01254.5873,E,69.00,191.52,050214,,,A*56
$GPGGA,180818.000,5216.1468,N,01254.5428,E,1,8,1.28,60.2,M,45.5,M,,*65
$GPRMC,180817.000,A,5216.1649,N,01254.5490,E,66.90,191.79,050214,,,A*55
$GPGGA,180824.000,5216.0389,N,01254.5064,E,1,9,1.11,61.8,M,45.5,M,,*6F
$GPRMC,180823.000,A,5216.0564,N,01254.5126,E,65.46,192.05,050214,,,A*57
$GPGGA,180831.000,5215.9200,N,01254.4667,E,1,8,1.15,61.9,M,45.5,M,,*61
$GPRMC,180830.000,A,5215.9368,N,01254.4723,E,62.13,191.57,050214,,,A*54
$GPGGA,180838.000,5215.8002,N,01254.4345,E,1,8,1.28,64.2,M,45.5,M,,*6C
$GPRMC,180837.000,A,5215.8176,N,01254.4382,E,62.95,187.50,050214,,,A*5E
$GPGGA,180845.000,5215.6829,N,01254.4259,E,1,9,1.34,63.7,M,45.5,M,,*6B
$GPRMC,180844.000,A,5215.6992,N,01254.4259,E,58.82,180.69,050214,,,A*53
$GPGGA,180852.000,5215.5693,N,01254.4373,E,1,9,1.34,62.7,M,45.5,M,,*69
$GPRMC,180851.000,A,5215.5860,N,01254.4345,E,59.77,174.62,050214,,,A*5F
$GPGGA,180858.000,5215.4614,N,01254.4650,E,1,9,1.34,64.0,M,45.5,M,,*68
$GPRMC,180857.000,A,5215.4801,N,01254.4590,E,68.62,170.43,050214,,,A*50
$GPGGA,180904.000,5215.3489,N,01254.5146,E,1,9,1.34,67.2,M,45.5,M,,*61
$GPRMC,180903.000,A,5215.3679,N,01254.5048,E,71.18,163.15,050214,,,A*53
$GPGGA,180910.000,5215.2378,N,01254.5779,E,1,9,1.34,67.6,M,45.5,M,,*62
$GPRMC,180909.000,A,5215.2559,N,01254.5671,E,69.10,160.07,050214,,,A*54
$GPGGA,180916.000,5215.1269,N,01254.6431,E,1,9,1.11,65.4,M,45.5,M,,*6D
$GPRMC,180915.000,A,5215.1457,N,01254.6320,E,71.77,160.39,050214,,,A*52
$GPGGA,180922.000,5215.0116,N,01254.7121,E,1,9,1.11,60.6,M,45.5,M,,*62
$GPRMC,180921.000,A,5215.0311,N,01254.7006,E,74.03,160.48,050214,,,A*57
$GPGGA,180928.000,5214.8932,N,01254.7832,E,1,9,1.11,54.2,M,45.5,M,,*67
$GPRMC,180927.000,A,5214.9133,N,01254.7708,E,76.91,159.15,050214,,,A*59
$GPGGA,180933.000,5214.7896,N,01254.8439,E,1,9,1.34,50.7,M,45.5,M,,*63
$GPRMC,180932.000,A,5214.8107,N,01254.8318,E,80.29,160.37,050214,,,A*51
$GPGGA,180938.000,5214.6860,N,01254.9037,E,1,9,1.34,49.2,M,45.5,M,,*66
$GPRMC,180937.000,A,5214.7064,N,01254.8919,E,77.91,160.62,050214,,,A*5F
$GPGGA,180943.000,5214.5806,N,01254.9630,E,1,9,1.34,47.8,M,45.5,M,,*6C
$GPRMC,180942.000,A,5214.6023,N,01254.9516,E,81.68,161.47,050214,,,A*54
$GPGGA,180948.000,5214.4673,N,01255.0126,E,1,9,1.11,46.4,M,45.5,M,,*68
$GPRMC,180947.000,A,5214.4907,N,01255.0043,E,85.63,166.94,050214,,,A*57
$GPGGA,180953.000,5214.3484,N,01255.0396,E,1,9,1.11,46.4,M,45.5,M,,*66
$GPRMC,180952.000,A,5214.3724,N,01255.0360,E,86.06,173.69,050214,,,A*5F
$GPGGA,180958.000,5214.2321,N,01255.0468,E,1,9,1.11,44.0,M,45.5,M,,*64
$GPRMC,180957.000,A,5214.2552,N,01255.0469,E,82.92,179.46,050214,,,A*58
$GPGGA,181003.000,5214.1168,N,01255.0340,E,1,9,1.34,43.9,M,45.5,M,,*6A
$GPRMC,181002.000,A,5214.1394,N,01255.0376,E,81.80,184.70,050214,,,A*51
$GPGGA,181008.000,5214.0064,N,01255.0030,E,1,8,1.42,42.4,M,45.5,M,,*65
$GPRMC,181007.000,A,5214.0283,N,01255.0114,E,81.66,191.58,050214,,,A*52
$GPGGA,181013.000,5213.8962,N,01254.9491,E,1,9,1.35,42.0,M,45.5,M,,*6D
$GPRMC,181012.000,A,5213.9183,N,01254.9618,E,84.01,197.78,050214,,,A*58
$GPGGA,181018.000,5213.7873,N,01254.8749,E,1,8,1.28,44.4,M,45.5,M,,*60
$GPRMC,181017.000,A,5213.8090,N,01254.8913,E,85.87,204.02,050214,,,A*51
$GPGGA,181023.000,5213.6832,N,01254.7811,E,1,8,1.28,47.7,M,45.5,M,,*61
$GPRMC,181022.000,A,5213.7033,N,01254.8013,E,85.52,210.60,050214,,,A*51
$GPGGA,181028.000,5213.5858,N,01254.6752,E,1,8,1.42,49.8,M,45.5,M,,*61
$GPRMC,181027.000,A,5213.6054,N,01254.6967,E,84.58,213.47,050214,,,A*5D
$GPGGA,181033.000,5213.4860,N,01254.5649,E,1,8,1.42,49.3,M,45.5,M,,*62
$GPRMC,181032.000,A,5213.5062,N,01254.5873,E,87.65,214.00,050214,,,A*51
$GPGGA,181038.000,5213.3849,N,01254.4530,E,1,8,1.42,48.2,M,45.5,M,,*69
$GPRMC,181037.000,A,5213.4052,N,01254.4752,E,87.66,213.69,050214,,,A*50
$GPGGA,181043.000,5213.2835,N,01254.3429,E,1,8,1.28,46.4,M,45.5,M,,*65
$GPRMC,181042.000,A,5213.3038,N,01254.3651,E,87.89,213.73,050214,,,A*56
$GPGGA,181048.000,5213.1819,N,01254.2331,E,1,7,1.56,44.8,M,45.5,M,,*64
$GPRMC,181047.000,A,5213.2019,N,01254.2546,E,86.93,213.40,050214,,,A*5F
$GPGGA,181053.000,5213.0816,N,01254.1248,E,1,8,1.42,44.2,M,45.5,M,,*6C
$GPRMC,181052.000,A,5213.1017,N,01254.1469,E,87.61,213.49,050214,,,A*5C
$GPGGA,181058.000,5212.9803,N,01254.0163,E,1,8,1.42,45.9,M,45.5,M,,*6A
$GPRMC,181057.000,A,5213.0007,N,01254.0381,E,87.75,213.34,050214,,,A*56
$GPGGA,181103.000,5212.8784,N,01253.9055,E,1,9,1.35,47.3,M,45.5,M,,*67
$GPRMC,181102.000,A,5212.8990,N,01253.9277,E,88.40,213.43,050214,,,A*56
$GPGGA,181108.000,5212.7750,N,01253.7942,E,1,8,1.28,45.8,M,45.5,M,,*6F
$GPRMC,181107.000,A,5212.7961,N,01253.8167,E,90.14,213.29,050214,,,A*55
$GPGGA,181113.000,5212.6687,N,01253.6793,E,1,7,1.57,42.4,M,45.6,M,,*63
$GPRMC,181112.000,A,5212.6900,N,01253.7023,E,92.29,213.70,050214,,,A*59
$GPGGA,181118.000,5212.5617,N,01253.5630,E,1,8,1.28,40.4,M,45.6,M,,*6C
$GPRMC,181117.000,A,5212.5828,N,01253.5858,E,92.08,213.38,050214,,,A*5D
$GPGGA,181123.000,5212.4594,N,01253.4532,E,1,8,1.43,41.6,M,45.6,M,,*63
$GPRMC,181122.000,A,5212.4796,N,01253.4750,E,87.05,213.39,050214,,,A*5E
$GPGGA,181128.000,5212.3580,N,01253.3460,E,1,8,1.28,42.1,M,45.6,M,,*62
$GPRMC,181127.000,A,5212.3783,N,01253.3673,E,87.64,212.78,050214,,,A*5C
$GPGGA,181133.000,5212.2575,N,01253.2394,E,1,8,1.43,43.8,M,45.6,M,,*6B
$GPRMC,181132.000,A,5212.2775,N,01253.2608,E,86.30,213.49,050214,,,A*5E
$GPGGA,181138.000,5212.1593,N,01253.1341,E,1,9,1.35,43.6,M,45.6,M,,*6E
$GPRMC,181137.000,A,5212.1789,N,01253.1553,E,84.85,213.69,050214,,,A*5B
$GPGGA,181143.000,5212.0600,N,01253.0251,E,1,9,1.35,41.8,M,45.6,M,,*67
$GPRMC,181142.000,A,5212.0798,N,01253.0474,E,86.66,214.21,050214,,,A*59
$GPGGA,181148.000,5211.9668,N,01252.9018,E,1,8,1.43,41.1,M,45.6,M,,*66
$GPRMC,181147.000,A,5211.9849,N,01252.9279,E,86.67,220.60,050214,,,A*55
$GPGGA,181153.000,5211.8815,N,01252.7645,E,1,9,1.36,40.4,M,45.6,M,,*6E
$GPRMC,181152.000,A,5211.8976,N,01252.7929,E,86.06,226.28,050214,,,A*50
$GPGGA,181158.000,5211.8067,N,01252.6135,E,1,8,1.43,38.8,M,45.6,M,,*69
$GPRMC,181157.000,A,5211.8208,N,01252.6443,E,85.62,232.53,050214,,,A*5F
$GPGGA,181203.000,5211.7434,N,01252.4494,E,1,7,1.43,37.3,M,45.6,M,,*6E
$GPRMC,181202.000,A,5211.7555,N,01252.4835,E,86.82,239.11,050214,,,A*53
$GPGGA,181208.000,5211.6893,N,01252.2683,E,1,9,1.11,39.1,M,45.6,M,,*62
$GPRMC,181207.000,A,5211.6988,N,01252.3055,E,89.00,245.83,050214,,,A*57
$GPGGA,181213.000,5211.6462,N,01252.0797,E,1,9,1.36,42.0,M,45.6,M,,*64
$GPRMC,181212.000,A,5211.6545,N,01252.1180,E,88.99,249.96,050214,,,A*5C
$GPGGA,181218.000,5211.6043,N,01251.8900,E,1,9,1.11,42.2,M,45.6,M,,*64
$GPRMC,181217.000,A,5211.6127,N,01251.9279,E,89.11,249.89,050214,,,A*58
$GPGGA,181223.000,5211.5636,N,01251.7061,E,1,8,1.14,40.1,M,45.6,M,,*6F
$GPRMC,181222.000,A,5211.5718,N,01251.7428,E,85.97,250.13,050214,,,A*52
$GPGGA,181228.000,5211.5165,N,01251.5272,E,1,9,1.36,38.3,M,45.6,M,,*6B
$GPRMC,181227.000,A,5211.5268,N,01251.5623,E,86.16,245.29,050214,,,A*59
$GPGGA,181233.000,5211.4575,N,01251.3544,E,1,9,1.11,38.2,M,45.6,M,,*65
$GPRMC,181232.000,A,5211.4704,N,01251.3883,E,88.96,239.08,050214,,,A*5F
$GPGGA,181238.000,5211.3844,N,01251.1900,E,1,9,1.36,38.1,M,45.6,M,,*6E
$GPRMC,181237.000,A,5211.4002,N,01251.2220,E,90.99,232.24,050214,,,A*5A
$GPGGA,181243.000,5211.2973,N,01251.0369,E,1,9,1.36,38.1,M,45.6,M,,*62
$GPRMC,181242.000,A,5211.3156,N,01251.0668,E,93.43,225.72,050214,,,A*54
$GPGGA,181248.000,5211.2005,N,01250.9011,E,1,9,1.36,37.4,M,45.6,M,,*6F
$GPRMC,181247.000,A,5211.2202,N,01250.9269,E,91.78,219.32,050214,,,A*5E
$GPGGA,181253.000,5211.1005,N,01250.7753,E,1,9,1.36,36.9,M,45.6,M,,*65
$GPRMC,181252.000,A,5211.1200,N,01250.7997,E,88.68,217.75,050214,,,A*5B
$GPGGA,181258.000,5211.0037,N,01250.6542,E,1,9,1.36,37.0,M,45.6,M,,*65
$GPRMC,181257.000,A,5211.0231,N,01250.6785,E,87.87,217.87,050214,,,A*52
$GPGGA,181303.000,5210.9085,N,01250.5335,E,1,9,1.36,37.2,M,45.6,M,,*6C
$GPRMC,181302.000,A,5210.9274,N,01250.5574,E,86.52,218.14,050214,,,A*59
$GPGGA,181308.000,5210.8145,N,01250.4149,E,1,9,1.36,37.4,M,45.6,M,,*65
$GPRMC,181307.000,A,5210.8333,N,01250.4387,E,85.32,218.05,050214,,,A*51
$GPGGA,181313.000,5210.7209,N,01250.2926,E,1,9,1.36,39.4,M,45.6,M,,*62
$GPRMC,181312.000,A,5210.7392,N,01250.3184,E,87.00,219.70,050214,,,A*57
$GPGGA,181318.000,5210.6343,N,01250.1544,E,1,8,1.48,40.1,M,45.6,M,,*6F
$GPRMC,181317.000,A,5210.6508,N,01250.1833,E,87.84,226.40,050214,,,A*52
$GPGGA,181323.000,5210.5576,N,01250.0015,E,1,9,1.11,39.2,M,45.6,M,,*64
$GPRMC,181322.000,A,5210.5723,N,01250.0334,E,87.42,232.09,050214,,,A*53
$GPGGA,181328.000,5210.4911,N,01249.8389,E,1,8,1.37,38.2,M,45.6,M,,*61
$GPRMC,181327.000,A,5210.5034,N,01249.8721,E,85.90,237.56,050214,,,A*55
$GPGGA,181333.000,5210.4376,N,01249.6667,E,1,9,1.36,38.2,M,45.7,M,,*6A
$GPRMC,181332.000,A,5210.4475,N,01249.7013,E,84.20,244.14,050214,,,A*50
$GPGGA,181338.000,5210.3930,N,01249.4869,E,1,9,1.36,36.5,M,45.7,M,,*65
$GPRMC,181337.000,A,5210.4016,N,01249.5239,E,86.59,248.54,050214,,,A*58
$GPGGA,181343.000,5210.3489,N,01249.2976,E,1,9,1.11,36.2,M,45.7,M,,*6D
$GPRMC,181342.000,A,5210.3579,N,01249.3361,E,90.35,248.91,050214,,,A*5F
$GPGGA,181348.000,5210.3046,N,01249.1078,E,1,9,1.36,36.5,M,45.7,M,,*67
$GPRMC,181347.000,A,5210.3134,N,01249.1456,E,89.21,249.05,050214,,,A*57
$GPGGA,181353.000,5210.2608,N,01248.9159,E,1,9,1.11,36.9,M,45.7,M,,*62
$GPRMC,181352.000,A,5210.2697,N,01248.9545,E,91.02,249.51,050214,,,A*5F
$GPGGA,181358.000,5210.2156,N,01248.7225,E,1,9,1.37,37.5,M,45.7,M,,*6A
$GPRMC,181357.000,A,5210.2246,N,01248.7608,E,90.78,249.00,050214,,,A*5E
$GPGGA,181403.000,5210.1718,N,01248.5386,E,1,9,1.37,37.7,M,45.7,M,,*64
$GPRMC,181402.000,A,5210.1802,N,01248.5745,E,85.97,248.84,050214,,,A*52
$GPGGA,181408.000,5210.1319,N,01248.3678,E,1,9,1.37,37.6,M,45.7,M,,*69
$GPRMC,181407.000,A,5210.1397,N,01248.4008,E,79.29,249.10,050214,,,A*55
$GPGGA,181414.000,5210.0865,N,01248.1750,E,1,9,1.37,37.3,M,45.7,M,,*69
$GPRMC,181413.000,A,5210.0942,N,01248.2079,E,77.32,249.07,050214,,,A*51
$GPGGA,181420.000,5210.0410,N,01247.9814,E,1,9,1.37,36.8,M,45.7,M,,*62
$GPRMC,181419.000,A,5210.0485,N,01248.0135,E,75.87,249.13,050214,,,A*5F
$GPGGA,181426.000,5209.9945,N,01247.7878,E,1,8,1.38,37.9,M,45.7,M,,*62
$GPRMC,181425.000,A,5210.0023,N,01247.8188,E,75.08,248.21,050214,,,A*5E
$GPGGA,181432.000,5209.9439,N,01247.6144,E,1,9,1.37,38.7,M,45.7,M,,*69
$GPRMC,181431.000,A,5209.9531,N,01247.6424,E,70.69,243.14,050214,,,A*5E
$GPGGA,181438.000,5209.8828,N,01247.4532,E,1,9,1.37,38.8,M,45.7,M,,*66
$GPRMC,181437.000,A,5209.8935,N,01247.4787,E,69.95,236.21,050214,,,A*56
$GPGGA,181444.000,5209.8152,N,01247.3131,E,1,9,1.37,38.7,M,45.7,M,,*66
$GPRMC,181443.000,A,5209.8269,N,01247.3352,E,65.22,230.44,050214,,,A*59
$GPGGA,181450.000,5209.7385,N,01247.1842,E,1,9,1.37,39.3,M,45.7,M,,*6E
$GPRMC,181449.000,A,5209.7516,N,01247.2047,E,65.95,224.41,050214,,,A*59
$GPGGA,181457.000,5209.6466,N,01247.0580,E,1,9,1.37,41.8,M,45.7,M,,*64
$GPRMC,181456.000,A,5209.6583,N,01247.0725,E,54.93,217.87,050214,,,A*55
$GPGGA,181506.000,5209.5539,N,01246.9484,E,1,9,1.37,45.1,M,45.7,M,,*69
$GPRMC,181505.000,A,5209.5638,N,01246.9604,E,45.06,217.39,050214,,,A*51
$GPGGA,181518.000,5209.4638,N,01246.8453,E,1,9,1.37,46.2,M,45.7,M,,*6E
$GPRMC,181517.000,A,5209.4702,N,01246.8529,E,29.48,215.64,050214,,,A*5C
ping
ping
ping
ping
$GPGGA,181753.000,5209.5665,N,01246.9012,E,1,9,1.37,51.4,M,45.7,M,,*6A
$GPRMC,181752.000,A,5209.5646,N,01246.9017,E,7.49,351.67,050214,,,A*69
ping
ping
ping
ping
$DeviceName=pironex_auto
$Software=0.1.3
$Hardware=1
$LastValidPosition=
$IMEI=359193030849087
$LocalIP=10.145.6.165
$CmdVersion=2
$SUCCESS
$<end>
$GPGGA,182918.000,5209.5550,N,01246.9092,E,1,4,1.14,105.6,M,45.7,M,,*5B
$GPRMC,182916.766,V,,,,,3.58,42.36,050214,,,N*70
ping
ping
$GPGGA,183037.000,5209.4996,N,01246.7506,E,1,9,1.09,58.8,M,45.7,M,,*69
$GPRMC,183036.000,A,5209.5055,N,01246.7572,E,25.75,216.63,050214,,,A*5B
$GPGGA,183054.000,5209.3917,N,01246.7615,E,1,10,0.85,63.5,M,45.7,M,,*5B
$GPRMC,183053.000,A,5209.3988,N,01246.7667,E,27.58,201.14,050214,,,A*5B
$GPGGA,183104.000,5209.3011,N,01246.6663,E,1,10,0.84,61.3,M,45.7,M,,*55
$GPRMC,183103.000,A,5209.3129,N,01246.6795,E,49.71,213.63,050214,,,A*51
$GPGGA,183111.000,5209.2081,N,01246.5583,E,1,9,0.87,61.8,M,45.7,M,,*67
$GPRMC,183110.000,A,5209.2222,N,01246.5747,E,62.19,215.10,050214,,,A*53
$GPGGA,183118.000,5209.1060,N,01246.4400,E,1,9,1.29,62.6,M,45.7,M,,*61
$GPRMC,183117.000,A,5209.1212,N,01246.4577,E,66.41,215.33,050214,,,A*5C
$GPGGA,183124.000,5209.0106,N,01246.3288,E,1,8,0.95,63.6,M,45.7,M,,*69
$GPRMC,183123.000,A,5209.0270,N,01246.3479,E,71.63,215.91,050214,,,A*58
$GPGGA,183130.000,5208.9123,N,01246.2144,E,1,10,0.85,64.3,M,45.7,M,,*5B
$GPRMC,183129.000,A,5208.9290,N,01246.2336,E,73.02,215.40,050214,,,A*50
$GPGGA,183136.000,5208.8089,N,01246.0948,E,1,10,0.85,65.2,M,45.7,M,,*5B
$GPRMC,183135.000,A,5208.8266,N,01246.1153,E,77.49,215.34,050214,,,A*5F
$GPGGA,183141.000,5208.7181,N,01245.9901,E,1,10,0.85,65.7,M,45.7,M,,*5F
$GPRMC,183140.000,A,5208.7365,N,01246.0113,E,80.63,215.52,050214,,,A*55
$GPGGA,183146.000,5208.6258,N,01245.8843,E,1,10,0.85,64.5,M,45.7,M,,*5B
$GPRMC,183145.000,A,5208.6443,N,01245.9056,E,81.17,215.09,050214,,,A*54
$GPGGA,183151.000,5208.5334,N,01245.7782,E,1,9,0.87,63.9,M,45.7,M,,*69
$GPRMC,183150.000,A,5208.5517,N,01245.7991,E,80.51,215.34,050214,,,A*52
$GPGGA,183156.000,5208.4439,N,01245.6782,E,1,8,0.93,61.6,M,45.7,M,,*6D
$GPRMC,183155.000,A,5208.4620,N,01245.6981,E,78.21,214.17,050214,,,A*51
$GPGGA,183201.000,5208.3508,N,01245.5779,E,1,9,0.87,58.8,M,45.8,M,,*60
$GPRMC,183200.000,A,5208.3695,N,01245.5981,E,80.75,213.66,050214,,,A*5F
$GPGGA,183206.000,5208.2578,N,01245.4741,E,1,8,0.95,56.3,M,45.8,M,,*6C
$GPRMC,183205.000,A,5208.2759,N,01245.4947,E,80.33,214.91,050214,,,A*5C
$GPGGA,183211.000,5208.1692,N,01245.3716,E,1,10,0.84,55.6,M,45.8,M,,*54
$GPRMC,183210.000,A,5208.1869,N,01245.3921,E,78.27,215.69,050214,,,A*54
$GPGGA,183217.000,5208.0676,N,01245.2543,E,1,10,0.84,57.2,M,45.8,M,,*5C
$GPRMC,183216.000,A,5208.0843,N,01245.2734,E,73.33,215.23,050214,,,A*50
$GPGGA,183223.000,5207.9646,N,01245.1355,E,1,10,0.85,60.0,M,45.8,M,,*5B
$GPRMC,183222.000,A,5207.9821,N,01245.1558,E,77.28,215.39,050214,,,A*5B
$GPGGA,183229.000,5207.8615,N,01245.0164,E,1,10,0.85,66.4,M,45.8,M,,*55
$GPRMC,183228.000,A,5207.8779,N,01245.0355,E,73.02,215.50,050214,,,A*5B
$GPGGA,183235.000,5207.7602,N,01244.8994,E,1,10,0.85,72.8,M,45.8,M,,*56
$GPRMC,183234.000,A,5207.7776,N,01244.9190,E,76.02,214.74,050214,,,A*57
$GPGGA,183241.000,5207.6562,N,01244.7793,E,1,9,0.92,79.2,M,45.8,M,,*68
$GPRMC,183240.000,A,5207.6730,N,01244.7988,E,75.17,215.31,050214,,,A*5F
$GPGGA,183247.000,5207.5591,N,01244.6665,E,1,10,0.84,83.3,M,45.8,M,,*53
$GPRMC,183246.000,A,5207.5754,N,01244.6856,E,72.20,215.74,050214,,,A*59
$GPGGA,183253.000,5207.4599,N,01244.5446,E,1,8,0.88,85.2,M,45.8,M,,*6D
$GPRMC,183252.000,A,5207.4761,N,01244.5658,E,74.43,218.65,050214,,,A*56
$GPGGA,183259.000,5207.3654,N,01244.4026,E,1,10,0.85,85.5,M,45.8,M,,*52
$GPRMC,183258.000,A,5207.3809,N,01244.4281,E,79.29,224.91,050214,,,A*5E
$GPGGA,183304.000,5207.2941,N,01244.2698,E,1,10,0.85,81.6,M,45.8,M,,*53
$GPRMC,183303.000,A,5207.3076,N,01244.2966,E,76.84,230.13,050214,,,A*52
$GPGGA,183310.000,5207.2193,N,01244.1065,E,1,10,0.85,78.4,M,45.8,M,,*52
$GPRMC,183309.000,A,5207.2315,N,01244.1345,E,75.41,234.42,050214,,,A*5D
$GPGGA,183315.000,5207.1577,N,01243.9619,E,1,10,0.85,76.2,M,45.8,M,,*50
$GPRMC,183314.000,A,5207.1702,N,01243.9912,E,78.07,235.19,050214,,,A*57
$GPGGA,183320.000,5207.0949,N,01243.8140,E,1,8,0.95,74.8,M,45.8,M,,*6C
$GPRMC,183319.000,A,5207.1076,N,01243.8436,E,79.53,235.16,050214,,,A*5B
$GPGGA,183326.000,5207.0226,N,01243.6422,E,1,10,0.85,73.4,M,45.8,M,,*54
$GPRMC,183325.000,A,5207.0342,N,01243.6698,E,74.92,235.34,050214,,,A*59
$GPGGA,183332.000,5206.9523,N,01243.4773,E,1,9,1.00,77.7,M,45.8,M,,*6D
$GPRMC,183331.000,A,5206.9638,N,01243.5049,E,73.60,235.81,050214,,,A*51
$GPGGA,183338.000,5206.8824,N,01243.3119,E,1,10,0.85,81.7,M,45.8,M,,*5C
$GPRMC,183337.000,A,5206.8941,N,01243.3393,E,73.70,235.28,050214,,,A*57
$GPGGA,183343.000,5206.8125,N,01243.1480,E,1,10,0.84,79.4,M,45.8,M,,*5A
$GPRMC,183342.000,A,5206.8235,N,01243.1740,E,71.54,235.54,050214,,,A*5A
$GPGGA,183349.000,5206.7441,N,01242.9910,E,1,10,0.85,76.2,M,45.8,M,,*5D
$GPRMC,183348.000,A,5206.7563,N,01243.0174,E,72.28,233.44,050214,,,A*54
$GPGGA,183355.000,5206.6609,N,01242.8349,E,1,8,0.88,73.0,M,45.8,M,,*6B
$GPRMC,183354.000,A,5206.6758,N,01242.8605,E,77.86,226.83,050214,,,A*54
$GPGGA,183400.000,5206.5813,N,01242.7140,E,1,7,0.95,70.6,M,45.8,M,,*68
$GPRMC,183359.000,A,5206.5975,N,01242.7374,E,78.20,222.15,050214,,,A*5F
$GPGGA,183406.000,5206.4864,N,01242.5790,E,1,10,0.85,69.4,M,45.8,M,,*5B
$GPRMC,183405.000,A,5206.5025,N,01242.6018,E,76.22,221.15,050214,,,A*5A
$GPGGA,183411.000,5206.4032,N,01242.4599,E,1,7,1.03,69.0,M,45.8,M,,*61
$GPRMC,183410.000,A,5206.4202,N,01242.4840,E,80.82,221.40,050214,,,A*5C
$GPGGA,183416.000,5206.3180,N,01242.3400,E,1,10,0.84,67.4,M,45.8,M,,*5D
$GPRMC,183415.000,A,5206.3351,N,01242.3644,E,81.78,221.21,050214,,,A*57
$GPGGA,183421.000,5206.2314,N,01242.2166,E,1,7,0.95,67.4,M,45.8,M,,*65
$GPRMC,183420.000,A,5206.2487,N,01242.2409,E,82.93,221.28,050214,,,A*59
$GPGGA,183426.000,5206.1497,N,01242.0999,E,1,10,0.85,68.3,M,45.8,M,,*58
$GPRMC,183425.000,A,5206.1658,N,01242.1228,E,76.82,221.36,050214,,,A*5D
$GPGGA,183431.000,5206.0667,N,01241.9810,E,1,9,0.86,69.3,M,45.8,M,,*62
$GPRMC,183430.000,A,5206.0836,N,01242.0052,E,80.61,221.36,050214,,,A*54
$GPGGA,183436.000,5205.9806,N,01241.8571,E,1,10,0.84,68.1,M,45.8,M,,*54
$GPRMC,183435.000,A,5205.9978,N,01241.8822,E,83.31,221.63,050214,,,A*52
$GPGGA,183441.000,5205.8984,N,01241.7207,E,1,10,0.85,66.4,M,45.8,M,,*5D
$GPRMC,183440.000,A,5205.9145,N,01241.7494,E,86.02,226.82,050214,,,A*55
$GPGGA,183446.000,5205.8199,N,01241.5671,E,1,10,0.85,63.9,M,45.9,M,,*50
$GPRMC,183445.000,A,5205.8355,N,01241.5983,E,88.60,230.93,050214,,,A*56
$GPGGA,183451.000,5205.7430,N,01241.4137,E,1,9,0.88,62.8,M,45.9,M,,*6E
$GPRMC,183450.000,A,5205.7584,N,01241.4445,E,87.35,230.79,050214,,,A*5A
$GPGGA,183456.000,5205.6662,N,01241.2609,E,1,9,0.87,62.4,M,45.9,M,,*62
$GPRMC,183455.000,A,5205.6815,N,01241.2915,E,87.82,230.72,050214,,,A*52
$GPGGA,183501.000,5205.5892,N,01241.1156,E,1,10,0.85,65.1,M,45.9,M,,*55
$GPRMC,183500.000,A,5205.6050,N,01241.1435,E,84.56,228.51,050214,,,A*54
$GPGGA,183506.000,5205.5068,N,01240.9870,E,1,10,0.85,68.7,M,45.9,M,,*50
$GPRMC,183505.000,A,5205.5241,N,01241.0114,E,82.32,222.43,050214,,,A*5A
$GPGGA,183511.000,5205.4199,N,01240.8647,E,1,8,0.88,69.3,M,45.9,M,,*62
$GPRMC,183510.000,A,5205.4373,N,01240.8890,E,82.82,220.55,050214,,,A*5D
$GPGGA,183516.000,5205.3329,N,01240.7428,E,1,8,0.93,67.8,M,45.9,M,,*60
$GPRMC,183515.000,A,5205.3506,N,01240.7674,E,83.24,220.72,050214,,,A*58
$GPGGA,183521.000,5205.2428,N,01240.6167,E,1,7,0.94,64.4,M,45.9,M,,*6B
$GPRMC,183520.000,A,5205.2609,N,01240.6422,E,85.88,220.99,050214,,,A*56
$GPGGA,183526.000,5205.1521,N,01240.4897,E,1,8,0.95,64.1,M,45.9,M,,*68
$GPRMC,183525.000,A,5205.1703,N,01240.5148,E,86.32,220.71,050214,,,A*55
$GPGGA,183531.000,5205.0620,N,01240.3638,E,1,7,0.95,64.4,M,45.9,M,,*6B
$GPRMC,183530.000,A,5205.0803,N,01240.3890,E,85.90,220.70,050214,,,A*5F
$GPGGA,183536.000,5204.9700,N,01240.2382,E,1,9,0.86,65.9,M,45.9,M,,*62
$GPRMC,183535.000,A,5204.9887,N,01240.2628,E,86.60,219.39,050214,,,A*59
$GPGGA,183541.000,5204.8746,N,01240.1199,E,1,8,0.95,66.5,M,45.9,M,,*66
$GPRMC,183540.000,A,5204.8940,N,01240.1427,E,86.31,216.87,050214,,,A*50
$GPGGA,183546.000,5204.7757,N,01240.0084,E,1,10,0.85,65.0,M,45.9,M,,*5C
$GPRMC,183545.000,A,5204.7960,N,01240.0302,E,87.11,214.39,050214,,,A*5D
$GPGGA,183551.000,5204.6742,N,01239.9018,E,1,8,0.95,64.8,M,45.9,M,,*6C
$GPRMC,183550.000,A,5204.6948,N,01239.9225,E,87.76,212.31,050214,,,A*5E
$GPGGA,183556.000,5204.5707,N,01239.8021,E,1,10,0.86,68.2,M,45.9,M,,*5F
$GPRMC,183555.000,A,5204.5915,N,01239.8220,E,87.15,210.68,050214,,,A*5F
$GPGGA,183601.000,5204.4671,N,01239.7064,E,1,8,0.95,70.7,M,45.9,M,,*66
$GPRMC,183600.000,A,5204.4878,N,01239.7246,E,85.24,208.99,050214,,,A*5F
$GPGGA,183606.000,5204.3618,N,01239.6187,E,1,7,1.08,68.8,M,45.9,M,,*68
$GPRMC,183605.000,A,5204.3831,N,01239.6359,E,85.81,206.75,050214,,,A*5D
$GPGGA,183611.000,5204.2539,N,01239.5362,E,1,8,0.95,66.7,M,45.9,M,,*6E
$GPRMC,183610.000,A,5204.2756,N,01239.5518,E,86.08,204.42,050214,,,A*52
$GPGGA,183616.000,5204.1488,N,01239.4648,E,1,8,0.95,67.6,M,45.9,M,,*6D
$GPRMC,183615.000,A,5204.1693,N,01239.4783,E,80.27,202.40,050214,,,A*52
$GPGGA,183621.000,5204.0457,N,01239.3982,E,1,7,1.08,68.9,M,45.9,M,,*6E
$GPRMC,183620.000,A,5204.0664,N,01239.4117,E,80.63,201.87,050214,,,A*5E
$GPGGA,183626.000,5203.9387,N,01239.3307,E,1,7,0.98,70.0,M,45.9,M,,*62
$GPRMC,183625.000,A,5203.9602,N,01239.3449,E,83.35,202.08,050214,,,A*58
$GPGGA,183631.000,5203.8263,N,01239.2578,E,1,7,1.08,70.2,M,45.9,M,,*6B
$GPRMC,183630.000,A,5203.8489,N,01239.2727,E,87.02,202.05,050214,,,A*5B
$GPGGA,183636.000,5203.7142,N,01239.1846,E,1,7,1.07,71.1,M,45.9,M,,*6D
$GPRMC,183635.000,A,5203.7364,N,01239.1992,E,86.35,201.62,050214,,,A*51
$GPGGA,183641.000,5203.6034,N,01239.1130,E,1,8,1.02,72.0,M,45.9,M,,*6C
$GPRMC,183640.000,A,5203.6255,N,01239.1273,E,85.09,201.97,050214,,,A*53
$GPGGA,183646.000,5203.4982,N,01239.0443,E,1,7,1.34,72.9,M,45.9,M,,*6E
$GPRMC,183645.000,A,5203.5189,N,01239.0579,E,80.44,201.68,050214,,,A*57
$GPGGA,183651.000,5203.3946,N,01238.9763,E,1,7,1.08,73.8,M,45.9,M,,*61
$GPRMC,183650.000,A,5203.4153,N,01238.9897,E,80.29,201.77,050214,,,A*55
$GPGGA,183656.000,5203.2926,N,01238.9091,E,1,8,0.95,74.6,M,45.9,M,,*68
$GPRMC,183655.000,A,5203.3125,N,01238.9230,E,75.26,204.75,050214,,,A*53
$GPGGA,183701.000,5203.1895,N,01238.8300,E,1,10,0.84,77.9,M,45.9,M,,*5E
$GPRMC,183700.000,A,5203.2099,N,01238.8475,E,83.07,207.05,050214,,,A*5D
$GPGGA,183706.000,5203.0902,N,01238.7300,E,1,10,0.86,82.7,M,45.9,M,,*5E
$GPRMC,183705.000,A,5203.1097,N,01238.7517,E,84.72,213.54,050214,,,A*5B
$GPGGA,183711.000,5202.9977,N,01238.6115,E,1,10,0.86,84.1,M,45.9,M,,*55
$GPRMC,183710.000,A,5203.0159,N,01238.6367,E,84.99,219.60,050214,,,A*55
$GPGGA,183716.000,5202.9118,N,01238.4740,E,1,9,0.88,85.1,M,45.9,M,,*60
$GPRMC,183715.000,A,5202.9284,N,01238.5032,E,88.27,226.28,050214,,,A*52
$GPGGA,183721.000,5202.8359,N,01238.3177,E,1,8,0.95,85.3,M,45.9,M,,*68
$GPRMC,183720.000,A,5202.8504,N,01238.3498,E,88.60,232.96,050214,,,A*5B
$GPGGA,183726.000,5202.7651,N,01238.1536,E,1,10,0.86,86.7,M,45.9,M,,*52
$GPRMC,183725.000,A,5202.7792,N,01238.1866,E,88.27,235.14,050214,,,A*5D
$GPGGA,183731.000,5202.6951,N,01237.9927,E,1,10,0.86,91.0,M,46.0,M,,*5A
$GPRMC,183730.000,A,5202.7089,N,01238.0245,E,86.92,234.72,050214,,,A*5F
$GPGGA,183736.000,5202.6258,N,01237.8321,E,1,10,0.85,97.8,M,46.0,M,,*5F
$GPRMC,183735.000,A,5202.6397,N,01237.8645,E,87.51,234.99,050214,,,A*5F
$GPGGA,183741.000,5202.5590,N,01237.6805,E,1,10,0.86,103.9,M,46.0,M,,*62
$GPRMC,183740.000,A,5202.5721,N,01237.7096,E,81.00,233.74,050214,,,A*56
$GPGGA,183746.000,5202.4861,N,01237.5461,E,1,10,0.86,109.6,M,46.0,M,,*6F
$GPRMC,183745.000,A,5202.5020,N,01237.5710,E,79.55,225.93,050214,,,A*57
$GPGGA,183751.000,5202.3972,N,01237.4338,E,1,10,0.86,115.0,M,46.0,M,,*6C
$GPRMC,183750.000,A,5202.4162,N,01237.4544,E,82.21,214.86,050214,,,A*56
$GPGGA,183756.000,5202.3009,N,01237.3457,E,1,10,0.85,120.8,M,46.0,M,,*6A
$GPRMC,183755.000,A,5202.3199,N,01237.3628,E,78.40,209.93,050214,,,A*54
$GPGGA,183801.000,5202.2065,N,01237.2607,E,1,8,0.93,125.8,M,46.0,M,,*51
$GPRMC,183800.000,A,5202.2247,N,01237.2774,E,76.57,209.43,050214,,,A*56
$GPGGA,183807.000,5202.1062,N,01237.1468,E,1,8,0.95,130.4,M,46.0,M,,*55
$GPRMC,183806.000,A,5202.1219,N,01237.1687,E,73.48,219.32,050214,,,A*5A
$GPGGA,183813.000,5202.0241,N,01236.9952,E,1,9,0.87,131.5,M,46.0,M,,*5D
$GPRMC,183812.000,A,5202.0365,N,01237.0228,E,75.01,233.14,050214,,,A*53
$GPGGA,183818.000,5201.9713,N,01236.8418,E,1,10,0.86,130.0,M,46.0,M,,*61
$GPRMC,183817.000,A,5201.9801,N,01236.8740,E,78.62,243.86,050214,,,A*53
$GPGGA,183824.000,5201.9271,N,01236.6479,E,1,8,0.93,125.8,M,46.0,M,,*57
$GPRMC,183823.000,A,5201.9342,N,01236.6800,E,74.90,250.12,050214,,,A*53
$GPGGA,183830.000,5201.8766,N,01236.4578,E,1,8,0.95,125.6,M,46.0,M,,*5A
$GPRMC,183829.000,A,5201.8866,N,01236.4883,E,77.16,242.83,050214,,,A*5A
$GPGGA,183836.000,5201.8030,N,01236.2946,E,1,9,0.88,130.4,M,46.0,M,,*54
$GPRMC,183835.000,A,5201.8165,N,01236.3198,E,75.01,230.03,050214,,,A*50
$GPGGA,183842.000,5201.7112,N,01236.1600,E,1,7,1.08,135.1,M,46.0,M,,*50
$GPRMC,183841.000,A,5201.7277,N,01236.1803,E,74.47,218.60,050214,,,A*59
$GPGGA,183848.000,5201.6120,N,01236.0553,E,1,9,0.88,136.1,M,46.0,M,,*5A
$GPRMC,183847.000,A,5201.6285,N,01236.0720,E,70.38,212.44,050214,,,A*5C
$GPGGA,183854.000,5201.5110,N,01235.9476,E,1,9,0.88,135.4,M,46.0,M,,*5D
$GPRMC,183853.000,A,5201.5278,N,01235.9667,E,73.35,214.99,050214,,,A*58
$GPGGA,183900.000,5201.4170,N,01235.8157,E,1,7,1.07,132.1,M,46.0,M,,*57
$GPRMC,183859.000,A,5201.4315,N,01235.8397,E,74.43,224.16,050214,,,A*50
$GPGGA,183906.000,5201.3366,N,01235.6584,E,1,8,0.95,125.2,M,46.0,M,,*57
$GPRMC,183905.000,A,5201.3493,N,01235.6862,E,77.12,232.54,050214,,,A*5F
$GPGGA,183911.000,5201.2762,N,01235.5104,E,1,9,0.88,121.3,M,46.0,M,,*57
$GPRMC,183910.000,A,5201.2879,N,01235.5400,E,78.30,236.78,050214,,,A*5C
$GPGGA,183917.000,5201.2048,N,01235.3371,E,1,9,0.87,123.3,M,46.0,M,,*55
$GPRMC,183916.000,A,5201.2168,N,01235.3660,E,77.09,236.14,050214,,,A*5E
$GPGGA,183922.000,5201.1433,N,01235.1894,E,1,9,0.88,127.5,M,46.0,M,,*57
$GPRMC,183921.000,A,5201.1558,N,01235.2195,E,79.50,236.29,050214,,,A*5E
$GPGGA,183928.000,5201.0725,N,01235.0173,E,1,7,0.98,132.0,M,46.0,M,,*57
$GPRMC,183927.000,A,5201.0837,N,01235.0449,E,74.34,236.33,050214,,,A*5F
$GPGGA,183934.000,5201.0074,N,01234.8572,E,1,8,0.89,134.0,M,46.0,M,,*5C
$GPRMC,183933.000,A,5201.0183,N,01234.8841,E,71.54,236.48,050214,,,A*5E
$GPGGA,183940.000,5200.9370,N,01234.6867,E,1,9,0.87,134.1,M,46.0,M,,*59
$GPRMC,183939.000,A,5200.9492,N,01234.7166,E,79.24,236.33,050214,,,A*59
$GPGGA,183945.000,5200.8755,N,01234.5345,E,1,9,0.87,132.5,M,46.0,M,,*54
$GPRMC,183944.000,A,5200.8878,N,01234.5650,E,81.22,236.44,050214,,,A*5B
$GPGGA,183950.000,5200.8101,N,01234.3824,E,1,8,0.93,131.4,M,46.0,M,,*5B
$GPRMC,183949.000,A,5200.8238,N,01234.4123,E,83.18,234.27,050214,,,A*56
$GPGGA,183955.000,5200.7353,N,01234.2390,E,1,8,0.95,131.6,M,46.0,M,,*55
$GPRMC,183954.000,A,5200.7512,N,01234.2671,E,84.24,228.30,050214,,,A*5F
$GPGGA,184000.000,5200.6478,N,01234.1052,E,1,9,0.88,132.9,M,46.0,M,,*5B
$GPRMC,183959.000,A,5200.6664,N,01234.1310,E,87.66,221.67,050214,,,A*5E
$GPGGA,184005.000,5200.5479,N,01233.9820,E,1,8,0.93,130.6,M,46.0,M,,*58
$GPRMC,184004.000,A,5200.5686,N,01234.0060,E,91.29,216.01,050214,,,A*5A
$GPGGA,184010.000,5200.4435,N,01233.8639,E,1,8,0.95,129.9,M,46.0,M,,*53
$GPRMC,184009.000,A,5200.4640,N,01233.8868,E,90.39,215.22,050214,,,A*51
$GPGGA,184015.000,5200.3439,N,01233.7529,E,1,8,0.95,130.4,M,46.0,M,,*55
$GPRMC,184014.000,A,5200.3634,N,01233.7743,E,85.26,214.50,050214,,,A*5E
$GPGGA,184020.000,5200.2470,N,01233.6445,E,1,8,0.89,129.7,M,46.1,M,,*52
$GPRMC,184019.000,A,5200.2662,N,01233.6666,E,85.31,215.07,050214,,,A*53
$GPGGA,184025.000,5200.1534,N,01233.5331,E,1,7,1.07,125.9,M,46.1,M,,*58
$GPRMC,184024.000,A,5200.1717,N,01233.5560,E,83.05,216.99,050214,,,A*5E
$GPGGA,184030.000,5200.0618,N,01233.4118,E,1,8,0.95,121.9,M,46.1,M,,*59
$GPRMC,184029.000,A,5200.0802,N,01233.4365,E,86.00,219.51,050214,,,A*50
$GPGGA,184035.000,5159.9722,N,01233.2850,E,1,8,0.93,121.8,M,46.1,M,,*56
$GPRMC,184034.000,A,5159.9897,N,01233.3110,E,85.57,222.02,050214,,,A*5E
$GPGGA,184040.000,5159.8856,N,01233.1543,E,1,8,0.93,122.9,M,46.1,M,,*57
$GPRMC,184039.000,A,5159.9030,N,01233.1804,E,84.81,222.72,050214,,,A*55
$GPGGA,184045.000,5159.7975,N,01233.0236,E,1,8,0.95,124.1,M,46.1,M,,*51
$GPRMC,184044.000,A,5159.8152,N,01233.0497,E,86.34,222.42,050214,,,A*53
$GPGGA,184050.000,5159.7105,N,01232.8939,E,1,8,0.95,125.0,M,46.1,M,,*57
$GPRMC,184049.000,A,5159.7275,N,01232.9197,E,84.60,222.51,050214,,,A*5B
$GPGGA,184055.000,5159.6244,N,01232.7657,E,1,7,1.07,125.0,M,46.1,M,,*58
$GPRMC,184054.000,A,5159.6418,N,01232.7916,E,84.79,222.52,050214,,,A*5F
$GPGGA,184100.000,5159.5358,N,01232.6347,E,1,7,1.07,124.9,M,46.1,M,,*5B
$GPRMC,184059.000,A,5159.5534,N,01232.6608,E,86.29,222.43,050214,,,A*58
$GPGGA,184105.000,5159.4480,N,01232.5047,E,1,8,0.93,124.8,M,46.1,M,,*5F
$GPRMC,184104.000,A,5159.4655,N,01232.5307,E,85.32,222.38,050214,,,A*58
$GPGGA,184110.000,5159.3604,N,01232.3749,E,1,8,0.95,125.4,M,46.1,M,,*56
$GPRMC,184109.000,A,5159.3778,N,01232.4007,E,85.13,222.58,050214,,,A*5B
$GPGGA,184115.000,5159.2773,N,01232.2424,E,1,8,0.95,123.9,M,46.1,M,,*51
$GPRMC,184114.000,A,5159.2935,N,01232.2701,E,84.88,225.62,050214,,,A*5B
$GPGGA,184120.000,5159.1993,N,01232.0959,E,1,8,0.93,120.0,M,46.1,M,,*5D
$GPRMC,184119.000,A,5159.2145,N,01232.1261,E,86.31,230.18,050214,,,A*50
$GPGGA,184125.000,5159.1254,N,01231.9374,E,1,9,0.88,114.2,M,46.1,M,,*59
$GPRMC,184124.000,A,5159.1398,N,01231.9707,E,89.91,234.21,050214,,,A*5A
$GPGGA,184130.000,5159.0585,N,01231.7648,E,1,7,1.07,110.4,M,46.1,M,,*59
$GPRMC,184129.000,A,5159.0712,N,01231.7999,E,90.29,238.71,050214,,,A*55
$GPGGA,184135.000,5158.9967,N,01231.5860,E,1,7,1.07,108.6,M,46.1,M,,*59
$GPRMC,184134.000,A,5159.0092,N,01231.6218,E,91.35,240.18,050214,,,A*59
$GPGGA,184140.000,5158.9344,N,01231.4084,E,1,7,1.07,107.2,M,46.1,M,,*58
$GPRMC,184139.000,A,5158.9467,N,01231.4434,E,89.83,240.11,050214,,,A*55
$GPGGA,184145.000,5158.8745,N,01231.2366,E,1,7,1.07,105.5,M,46.1,M,,*55
$GPRMC,184144.000,A,5158.8863,N,01231.2704,E,86.79,240.34,050214,,,A*5D
$GPGGA,184150.000,5158.8170,N,01231.0731,E,1,7,1.07,104.0,M,46.1,M,,*51
$GPRMC,184149.000,A,5158.8282,N,01231.1049,E,82.08,240.39,050214,,,A*57
$GPGGA,184155.000,5158.7618,N,01230.9165,E,1,7,1.07,103.1,M,46.1,M,,*5B
$GPRMC,184154.000,A,5158.7730,N,01230.9481,E,80.31,240.13,050214,,,A*51
$GPGGA,184200.000,5158.7046,N,01230.7544,E,1,7,1.07,102.6,M,46.1,M,,*5A
$GPRMC,184159.000,A,5158.7161,N,01230.7872,E,83.88,240.39,050214,,,A*59
$GPGGA,184205.000,5158.6462,N,01230.5887,E,1,7,1.06,101.5,M,46.1,M,,*5D
$GPRMC,184204.000,A,5158.6579,N,01230.6223,E,85.31,240.23,050214,,,A*5E
$GPGGA,184210.000,5158.5874,N,01230.4142,E,1,7,1.07,99.5,M,46.1,M,,*61
$GPRMC,184209.000,A,5158.5989,N,01230.4500,E,89.41,242.29,050214,,,A*54
$GPGGA,184215.000,5158.5323,N,01230.2296,E,1,8,1.02,98.1,M,46.1,M,,*6E
$GPRMC,184214.000,A,5158.5431,N,01230.2669,E,92.02,244.71,050214,,,A*5A
$GPGGA,184220.000,5158.4822,N,01230.0461,E,1,9,0.87,97.7,M,46.1,M,,*6B
$GPRMC,184219.000,A,5158.4917,N,01230.0819,E,87.95,246.75,050214,,,A*58
$GPGGA,184225.000,5158.4354,N,01229.8672,E,1,8,0.95,97.6,M,46.1,M,,*67
$GPRMC,184224.000,A,5158.4448,N,01229.9035,E,87.20,247.01,050214,,,A*5A
$GPGGA,184230.000,5158.3869,N,01229.6819,E,1,9,0.87,97.6,M,46.1,M,,*6E
$GPRMC,184229.000,A,5158.3967,N,01229.7195,E,90.75,247.15,050214,,,A*56
$GPGGA,184235.000,5158.3374,N,01229.4927,E,1,8,0.93,98.0,M,46.1,M,,*6F
$GPRMC,184234.000,A,5158.3473,N,01229.5307,E,91.90,247.09,050214,,,A*5E
$GPGGA,184240.000,5158.2882,N,01229.3057,E,1,9,0.88,97.8,M,46.1,M,,*6B
$GPRMC,184239.000,A,5158.2981,N,01229.3429,E,90.21,246.81,050214,,,A*55
$GPGGA,184245.000,5158.2386,N,01229.1200,E,1,9,0.88,98.7,M,46.1,M,,*63
$GPRMC,184244.000,A,5158.2488,N,01229.1565,E,89.76,246.35,050214,,,A*55
$GPGGA,184250.000,5158.1792,N,01228.9469,E,1,8,0.89,98.9,M,46.1,M,,*6B
$GPRMC,184249.000,A,5158.1918,N,01228.9809,E,88.35,239.42,050214,,,A*5F
$GPGGA,184255.000,5158.1097,N,01228.7850,E,1,8,0.89,98.5,M,46.2,M,,*6B
$GPRMC,184254.000,A,5158.1246,N,01228.8167,E,89.18,233.69,050214,,,A*5E
$GPGGA,184300.000,5158.0378,N,01228.6246,E,1,8,0.89,99.7,M,46.2,M,,*66
$GPRMC,184259.000,A,5158.0523,N,01228.6564,E,88.35,233.95,050214,,,A*52
$GPGGA,184305.000,5157.9665,N,01228.4708,E,1,8,0.89,101.7,M,46.2,M,,*51
$GPRMC,184304.000,A,5157.9808,N,01228.5016,E,85.30,233.51,050214,,,A*5A
$GPGGA,184310.000,5157.8941,N,01228.3125,E,1,7,0.97,103.2,M,46.2,M,,*54
$GPRMC,184309.000,A,5157.9087,N,01228.3444,E,88.68,233.64,050214,,,A*5B
$GPGGA,184315.000,5157.8237,N,01228.1584,E,1,7,0.97,104.2,M,46.2,M,,*51
$GPRMC,184314.000,A,5157.8374,N,01228.1886,E,83.44,233.60,050214,,,A*58
$GPGGA,184320.000,5157.7555,N,01228.0086,E,1,9,0.87,105.5,M,46.2,M,,*54
$GPRMC,184319.000,A,5157.7688,N,01228.0379,E,81.99,233.52,050214,,,A*55
$GPGGA,184325.000,5157.6849,N,01227.8663,E,1,8,0.93,107.7,M,46.2,M,,*5E
$GPRMC,184324.000,A,5157.6999,N,01227.8943,E,82.07,229.99,050214,,,A*59
$GPGGA,184330.000,5157.6056,N,01227.7366,E,1,8,0.93,108.6,M,46.2,M,,*5D
$GPRMC,184329.000,A,5157.6217,N,01227.7611,E,80.09,223.65,050214,,,A*5B
$GPGGA,184335.000,5157.5186,N,01227.6240,E,1,8,0.95,109.1,M,46.2,M,,*53
$GPRMC,184334.000,A,5157.5369,N,01227.6453,E,80.70,216.76,050214,,,A*53
$GPGGA,184340.000,5157.4235,N,01227.5238,E,1,8,0.93,108.0,M,46.2,M,,*51
$GPRMC,184339.000,A,5157.4429,N,01227.5426,E,81.87,211.50,050214,,,A*57
$GPGGA,184345.000,5157.3211,N,01227.4388,E,1,8,0.97,104.2,M,46.2,M,,*54
$GPRMC,184344.000,A,5157.3424,N,01227.4545,E,83.46,205.75,050214,,,A*5F
$GPGGA,184350.000,5157.2095,N,01227.3691,E,1,8,0.95,104.7,M,46.2,M,,*52
$GPRMC,184349.000,A,5157.2325,N,01227.3814,E,86.48,199.57,050214,,,A*56
$GPGGA,184355.000,5157.0926,N,01227.3163,E,1,8,0.93,107.9,M,46.2,M,,*55
$GPRMC,184354.000,A,5157.1163,N,01227.3260,E,87.76,194.70,050214,,,A*54
$GPGGA,184400.000,5156.9737,N,01227.2672,E,1,8,0.93,110.9,M,46.2,M,,*54
$GPRMC,184359.000,A,5156.9974,N,01227.2768,E,88.13,194.51,050214,,,A*5D
$GPGGA,184405.000,5156.8552,N,01227.2182,E,1,7,0.99,114.4,M,46.2,M,,*55
$GPRMC,184404.000,A,5156.8789,N,01227.2280,E,88.45,194.31,050214,,,A*59
$GPGGA,184410.000,5156.7366,N,01227.1688,E,1,8,0.95,118.2,M,46.2,M,,*58
$GPRMC,184409.000,A,5156.7603,N,01227.1788,E,88.24,194.59,050214,,,A*5F
$GPGGA,184415.000,5156.6183,N,01227.1196,E,1,8,0.95,119.0,M,46.2,M,,*5E
$GPRMC,184414.000,A,5156.6420,N,01227.1296,E,87.73,194.36,050214,,,A*5F
$GPGGA,184420.000,5156.5003,N,01227.0718,E,1,7,1.07,118.0,M,46.2,M,,*57
$GPRMC,184419.000,A,5156.5239,N,01227.0814,E,87.35,194.19,050214,,,A*51
$GPGGA,184425.000,5156.3811,N,01227.0254,E,1,8,0.93,114.0,M,46.2,M,,*5D
$GPRMC,184424.000,A,5156.4051,N,01227.0350,E,89.01,193.82,050214,,,A*55
$GPGGA,184430.000,5156.2604,N,01226.9756,E,1,8,0.95,110.9,M,46.2,M,,*56
$GPRMC,184429.000,A,5156.2844,N,01226.9858,E,89.55,194.61,050214,,,A*52
$GPGGA,184435.000,5156.1404,N,01226.9237,E,1,8,0.95,109.0,M,46.2,M,,*51
$GPRMC,184434.000,A,5156.1643,N,01226.9347,E,89.18,195.82,050214,,,A*54
$GPGGA,184440.000,5156.0207,N,01226.8659,E,1,8,0.95,110.2,M,46.2,M,,*50
$GPRMC,184439.000,A,5156.0446,N,01226.8778,E,89.71,196.82,050214,,,A*5A
$GPGGA,184445.000,5155.9033,N,01226.8073,E,1,8,0.95,110.9,M,46.2,M,,*5F
$GPRMC,184444.000,A,5155.9266,N,01226.8186,E,87.87,196.76,050214,,,A*55
$GPGGA,184450.000,5155.7849,N,01226.7540,E,1,8,0.95,108.8,M,46.2,M,,*52
$GPRMC,184449.000,A,5155.8089,N,01226.7641,E,89.03,195.02,050214,,,A*5B
$GPGGA,184455.000,5155.6621,N,01226.7040,E,1,8,0.93,104.6,M,46.2,M,,*57
$GPRMC,184454.000,A,5155.6869,N,01226.7145,E,91.84,194.56,050214,,,A*5A
$GPGGA,184500.000,5155.5388,N,01226.6512,E,1,8,0.95,100.2,M,46.2,M,,*56
$GPRMC,184459.000,A,5155.5635,N,01226.6621,E,92.21,195.31,050214,,,A*5B
$GPGGA,184505.000,5155.4177,N,01226.5980,E,1,8,0.95,96.4,M,46.2,M,,*6C
$GPRMC,184504.000,A,5155.4412,N,01226.6083,E,88.57,195.13,050214,,,A*50
$GPGGA,184510.000,5155.3020,N,01226.5436,E,1,8,0.95,94.7,M,46.2,M,,*6D
$GPRMC,184509.000,A,5155.3252,N,01226.5551,E,87.11,196.53,050214,,,A*5B
$GPGGA,184515.000,5155.1889,N,01226.4737,E,1,8,0.93,93.2,M,46.2,M,,*66
$GPRMC,184514.000,A,5155.2112,N,01226.4895,E,87.40,203.01,050214,,,A*59
$GPGGA,184520.000,5155.0793,N,01226.3802,E,1,7,0.97,91.2,M,46.2,M,,*62
$GPRMC,184519.000,A,5155.1010,N,01226.4008,E,89.89,209.12,050214,,,A*5B
$GPGGA,184525.000,5154.9756,N,01226.2649,E,1,8,0.93,89.7,M,46.2,M,,*61
$GPRMC,184524.000,A,5154.9954,N,01226.2896,E,90.16,216.27,050214,,,A*5A
$GPGGA,184530.000,5154.8834,N,01226.1321,E,1,8,0.95,87.3,M,46.2,M,,*6B
$GPRMC,184529.000,A,5154.9010,N,01226.1597,E,88.71,222.73,050214,,,A*5F
$GPGGA,184535.000,5154.8021,N,01225.9850,E,1,8,0.95,83.2,M,46.2,M,,*61
$GPRMC,184534.000,A,5154.8176,N,01226.0157,E,87.95,229.59,050214,,,A*5C
$GPGGA,184540.000,5154.7250,N,01225.8299,E,1,7,0.97,80.1,M,46.2,M,,*6B
$GPRMC,184539.000,A,5154.7408,N,01225.8608,E,88.95,230.17,050214,,,A*59
$GPGGA,184545.000,5154.6474,N,01225.6737,E,1,8,0.95,77.4,M,46.2,M,,*60
$GPRMC,184544.000,A,5154.6628,N,01225.7051,E,89.23,231.38,050214,,,A*57
$GPGGA,184550.000,5154.5695,N,01225.5170,E,1,7,0.97,75.0,M,46.2,M,,*67
$GPRMC,184549.000,A,5154.5855,N,01225.5481,E,89.92,230.49,050214,,,A*5B
$GPGGA,184555.000,5154.4907,N,01225.3581,E,1,8,0.95,72.5,M,46.2,M,,*64
$GPRMC,184554.000,A,5154.5065,N,01225.3901,E,90.91,231.20,050214,,,A*5A
$GPGGA,184600.000,5154.4123,N,01225.1991,E,1,7,0.97,71.4,M,46.3,M,,*68
$GPRMC,184559.000,A,5154.4279,N,01225.2307,E,90.47,231.48,050214,,,A*51
$GPGGA,184605.000,5154.3353,N,01225.0421,E,1,8,0.95,73.6,M,46.3,M,,*65
$GPRMC,184604.000,A,5154.3506,N,01225.0736,E,89.98,231.74,050214,,,A*53
$GPGGA,184610.000,5154.2576,N,01224.8950,E,1,8,0.92,75.5,M,46.3,M,,*61
$GPRMC,184609.000,A,5154.2737,N,01224.9223,E,84.50,227.53,050214,,,A*5D
$GPGGA,184615.000,5154.1759,N,01224.7724,E,1,8,0.93,76.1,M,46.3,M,,*6C
$GPRMC,184614.000,A,5154.1927,N,01224.7958,E,79.62,221.48,050214,,,A*5B
$GPGGA,184620.000,5154.0846,N,01224.6616,E,1,8,0.93,75.3,M,46.3,M,,*6A
$GPRMC,184619.000,A,5154.1037,N,01224.6828,E,83.27,215.26,050214,,,A*52
$GPGGA,184625.000,5153.9825,N,01224.5640,E,1,8,0.95,73.9,M,46.3,M,,*6E
$GPRMC,184624.000,A,5154.0035,N,01224.5823,E,85.51,209.09,050214,,,A*50
$GPGGA,184630.000,5153.8744,N,01224.4725,E,1,7,0.97,72.2,M,46.3,M,,*67
$GPRMC,184629.000,A,5153.8960,N,01224.4908,E,87.72,208.10,050214,,,A*58
$GPGGA,184635.000,5153.7662,N,01224.3805,E,1,7,0.97,69.9,M,46.3,M,,*63
$GPRMC,184634.000,A,5153.7879,N,01224.3989,E,88.38,208.23,050214,,,A*5D
$GPGGA,184640.000,5153.6592,N,01224.2883,E,1,8,0.92,68.0,M,46.3,M,,*61
$GPRMC,184639.000,A,5153.6801,N,01224.3063,E,86.07,208.10,050214,,,A*51
$GPGGA,184645.000,5153.5559,N,01224.2000,E,1,7,0.97,65.1,M,46.3,M,,*65
$GPRMC,184644.000,A,5153.5767,N,01224.2180,E,85.05,208.19,050214,,,A*52
$GPGGA,184650.000,5153.4528,N,01224.1108,E,1,7,0.97,61.8,M,46.3,M,,*61
$GPRMC,184649.000,A,5153.4734,N,01224.1286,E,83.97,208.15,050214,,,A*5F
$GPGGA,184655.000,5153.3471,N,01224.0192,E,1,6,0.99,59.5,M,46.3,M,,*65
$GPRMC,184654.000,A,5153.3685,N,01224.0379,E,87.69,207.79,050214,,,A*5F
$GPGGA,184700.000,5153.2372,N,01223.9241,E,1,7,0.97,57.0,M,46.3,M,,*66
$GPRMC,184659.000,A,5153.2595,N,01223.9434,E,90.53,208.30,050214,,,A*5C
$GPGGA,184705.000,5153.1241,N,01223.8272,E,1,7,0.94,54.8,M,46.3,M,,*68
$GPRMC,184704.000,A,5153.1467,N,01223.8466,E,92.24,208.04,050214,,,A*59
$GPGGA,184710.000,5153.0122,N,01223.7301,E,1,7,0.94,52.7,M,46.3,M,,*68
$GPRMC,184709.000,A,5153.0344,N,01223.7495,E,90.87,208.35,050214,,,A*59
$GPGGA,184715.000,5152.9017,N,01223.6342,E,1,7,0.97,50.3,M,46.3,M,,*61
$GPRMC,184714.000,A,5152.9238,N,01223.6532,E,90.23,208.18,050214,,,A*5B
$GPGGA,184720.000,5152.7902,N,01223.5387,E,1,7,0.97,47.3,M,46.3,M,,*68
$GPRMC,184719.000,A,5152.8126,N,01223.5579,E,91.47,207.89,050214,,,A*53
$GPGGA,184725.000,5152.6785,N,01223.4396,E,1,7,0.97,46.0,M,46.3,M,,*6E
$GPRMC,184724.000,A,5152.7006,N,01223.4600,E,91.87,209.37,050214,,,A*5A
$GPGGA,184730.000,5152.5713,N,01223.3306,E,1,8,0.95,46.7,M,46.3,M,,*62
$GPRMC,184729.000,A,5152.5923,N,01223.3536,E,91.09,213.32,050214,,,A*52
$GPGGA,184735.000,5152.4710,N,01223.2065,E,1,8,0.95,47.3,M,46.3,M,,*67
$GPRMC,184734.000,A,5152.4902,N,01223.2327,E,91.11,218.77,050214,,,A*58
$GPGGA,184740.000,5152.3792,N,01223.0702,E,1,8,0.95,47.1,M,46.3,M,,*6E
$GPRMC,184739.000,A,5152.3973,N,01223.0984,E,90.39,223.29,050214,,,A*5D
$GPGGA,184745.000,5152.2964,N,01222.9217,E,1,7,0.94,46.2,M,46.3,M,,*68
$GPRMC,184744.000,A,5152.3121,N,01222.9520,E,87.77,229.33,050214,,,A*5F
$GPGGA,184750.000,5152.2231,N,01222.7646,E,1,7,0.96,46.3,M,46.3,M,,*6A
$GPRMC,184749.000,A,5152.2371,N,01222.7971,E,88.73,234.24,050214,,,A*53
$GPGGA,184755.000,5152.1598,N,01222.5962,E,1,8,0.95,45.2,M,46.3,M,,*6D
$GPRMC,184754.000,A,5152.1718,N,01222.6306,E,87.13,239.61,050214,,,A*59
$GPGGA,184800.000,5152.1034,N,01222.4193,E,1,8,0.92,44.1,M,46.3,M,,*63
$GPRMC,184759.000,A,5152.1147,N,01222.4550,E,88.86,242.38,050214,,,A*5C
$GPGGA,184805.000,5152.0463,N,01222.2399,E,1,8,0.92,43.6,M,46.3,M,,*6F
$GPRMC,184804.000,A,5152.0577,N,01222.2755,E,89.19,242.26,050214,,,A*54
$GPGGA,184810.000,5151.9872,N,01222.0648,E,1,8,0.92,43.9,M,46.3,M,,*69
$GPRMC,184809.000,A,5151.9995,N,01222.0992,E,88.89,240.59,050214,,,A*56
$GPGGA,184815.000,5151.9249,N,01221.8984,E,1,8,0.95,44.3,M,46.3,M,,*60
$GPRMC,184814.000,A,5151.9377,N,01221.9314,E,86.97,238.41,050214,,,A*55
$GPGGA,184820.000,5151.8595,N,01221.7380,E,1,7,0.94,46.5,M,46.3,M,,*6A
$GPRMC,184819.000,A,5151.8728,N,01221.7697,E,86.66,236.12,050214,,,A*51
$GPGGA,184825.000,5151.7912,N,01221.5817,E,1,8,0.92,49.9,M,46.3,M,,*6E
$GPRMC,184824.000,A,5151.8049,N,01221.6132,E,85.97,235.13,050214,,,A*59
$GPGGA,184830.000,5151.7237,N,01221.4262,E,1,8,0.95,53.2,M,46.3,M,,*68
$GPRMC,184829.000,A,5151.7371,N,01221.4570,E,84.34,235.03,050214,,,A*5A
$GPGGA,184835.000,5151.6601,N,01221.2741,E,1,8,0.92,56.1,M,46.3,M,,*6E
$GPRMC,184834.000,A,5151.6729,N,01221.3044,E,82.12,235.59,050214,,,A*56
$GPGGA,184840.000,5151.5935,N,01221.1205,E,1,8,0.95,58.5,M,46.3,M,,*6C
$GPRMC,184839.000,A,5151.6071,N,01221.1516,E,84.94,234.97,050214,,,A*5A
$GPGGA,184845.000,5151.5257,N,01220.9633,E,1,8,0.95,58.7,M,46.3,M,,*6C
$GPRMC,184844.000,A,5151.5393,N,01220.9948,E,85.67,234.97,050214,,,A*5F
$GPGGA,184850.000,5151.4584,N,01220.8083,E,1,8,0.95,56.6,M,46.4,M,,*64
$GPRMC,184849.000,A,5151.4716,N,01220.8387,E,83.50,235.04,050214,,,A*5B
$GPGGA,184855.000,5151.3925,N,01220.6593,E,1,7,0.96,53.8,M,46.4,M,,*6C
$GPRMC,184854.000,A,5151.4060,N,01220.6886,E,81.36,233.96,050214,,,A*5A
$GPGGA,184900.000,5151.3259,N,01220.5087,E,1,8,0.94,51.0,M,46.4,M,,*69
$GPRMC,184859.000,A,5151.3392,N,01220.5393,E,82.76,235.15,050214,,,A*58
$GPGGA,184905.000,5151.2615,N,01220.3605,E,1,8,0.95,48.7,M,46.4,M,,*65
$GPRMC,184904.000,A,5151.2742,N,01220.3894,E,79.56,235.05,050214,,,A*54
$GPGGA,184911.000,5151.1837,N,01220.1952,E,1,8,0.95,46.7,M,46.4,M,,*6C
$GPRMC,184910.000,A,5151.1977,N,01220.2222,E,78.89,230.77,050214,,,A*5F
$GPGGA,184916.000,5151.1076,N,01220.0598,E,1,8,0.95,47.1,M,46.4,M,,*6A
$GPRMC,184915.000,A,5151.1233,N,01220.0857,E,81.19,226.30,050214,,,A*50
$GPGGA,184921.000,5151.0258,N,01219.9375,E,1,8,0.94,46.9,M,46.4,M,,*6F
$GPRMC,184920.000,A,5151.0428,N,01219.9612,E,80.14,221.34,050214,,,A*58
$GPGGA,184926.000,5150.9332,N,01219.8209,E,1,8,0.92,46.5,M,46.4,M,,*6C
$GPRMC,184925.000,A,5150.9527,N,01219.8436,E,86.31,216.72,050214,,,A*59
$GPGGA,184931.000,5150.8315,N,01219.7170,E,1,8,0.92,46.5,M,46.4,M,,*6C
$GPRMC,184930.000,A,5150.8524,N,01219.7368,E,87.14,211.57,050214,,,A*5A
$GPGGA,184936.000,5150.7273,N,01219.6296,E,1,8,0.94,48.1,M,46.4,M,,*63
$GPRMC,184935.000,A,5150.7479,N,01219.6454,E,82.15,206.38,050214,,,A*5B
$GPGGA,184941.000,5150.6239,N,01219.5592,E,1,8,0.92,48.5,M,46.4,M,,*6E
$GPRMC,184940.000,A,5150.6444,N,01219.5721,E,79.62,201.80,050214,,,A*54
$GPGGA,184946.000,5150.5197,N,01219.4971,E,1,8,0.95,47.2,M,46.4,M,,*62
$GPRMC,184945.000,A,5150.5408,N,01219.5094,E,80.47,200.57,050214,,,A*59
$GPGGA,184951.000,5150.4152,N,01219.4349,E,1,8,0.94,47.0,M,46.4,M,,*6E
$GPRMC,184950.000,A,5150.4359,N,01219.4472,E,79.50,200.58,050214,,,A*5D
$GPGGA,184956.000,5150.3111,N,01219.3728,E,1,8,0.95,47.5,M,46.4,M,,*69
$GPRMC,184955.000,A,5150.3319,N,01219.3847,E,79.69,200.75,050214,,,A*53
$GPGGA,185002.000,5150.2005,N,01219.3063,E,1,8,0.94,46.8,M,46.4,M,,*60
$GPRMC,185001.000,A,5150.2176,N,01219.3164,E,66.47,200.46,050214,,,A*5A
$GPGGA,185009.000,5150.0868,N,01219.2377,E,1,9,0.89,46.3,M,46.4,M,,*6B
$GPRMC,185008.000,A,5150.1027,N,01219.2474,E,61.69,200.82,050214,,,A*53
$GPGGA,185016.000,5149.9785,N,01219.1668,E,1,9,0.89,46.5,M,46.4,M,,*66
$GPRMC,185015.000,A,5149.9933,N,01219.1779,E,59.17,203.62,050214,,,A*51
$GPGGA,185023.000,5149.8770,N,01219.0796,E,1,9,0.89,46.1,M,46.4,M,,*6E
$GPRMC,185022.000,A,5149.8908,N,01219.0927,E,58.47,209.73,050214,,,A*56
$GPGGA,185030.000,5149.7839,N,01218.9857,E,1,9,0.89,45.9,M,46.4,M,,*60
$GPRMC,185029.000,A,5149.7972,N,01218.9993,E,57.22,211.98,050214,,,A*58
$GPGGA,185037.000,5149.6863,N,01218.8880,E,1,9,0.89,46.3,M,46.4,M,,*6B
$GPRMC,185036.000,A,5149.7013,N,01218.9031,E,62.99,211.83,050214,,,A*55
$GPGGA,185043.000,5149.5924,N,01218.7931,E,1,9,0.89,47.4,M,46.4,M,,*6B
$GPRMC,185042.000,A,5149.6084,N,01218.8094,E,67.43,211.91,050214,,,A*56
$GPGGA,185049.000,5149.4931,N,01218.6937,E,1,9,0.89,50.7,M,46.4,M,,*66
$GPRMC,185048.000,A,5149.5098,N,01218.7104,E,70.25,211.58,050214,,,A*56
$GPGGA,185055.000,5149.3936,N,01218.5929,E,1,9,0.89,54.0,M,46.4,M,,*64
$GPRMC,185054.000,A,5149.4101,N,01218.6095,E,70.37,212.02,050214,,,A*5C
$GPGGA,185101.000,5149.2995,N,01218.4998,E,1,9,0.89,54.8,M,46.4,M,,*6F
$GPRMC,185100.000,A,5149.3153,N,01218.5153,E,66.17,211.54,050214,,,A*51
$GPGGA,185107.000,5149.1996,N,01218.3995,E,1,9,0.84,53.1,M,46.4,M,,*60
$GPRMC,185106.000,A,5149.2170,N,01218.4170,E,73.05,212.02,050214,,,A*50
$GPGGA,185113.000,5149.0919,N,01218.2902,E,1,9,0.89,50.0,M,46.4,M,,*63
$GPRMC,185112.000,A,5149.1101,N,01218.3090,E,77.53,212.40,050214,,,A*59
$GPGGA,185118.000,5148.9997,N,01218.1966,E,1,9,0.89,49.8,M,46.4,M,,*67
$GPRMC,185117.000,A,5149.0182,N,01218.2153,E,78.42,212.24,050214,,,A*54
$GPGGA,185123.000,5148.9102,N,01218.0982,E,1,9,0.89,50.0,M,46.4,M,,*60
$GPRMC,185122.000,A,5148.9275,N,01218.1184,E,76.79,215.62,050214,,,A*5B
$GPGGA,185128.000,5148.8268,N,01217.9880,E,1,8,0.85,49.8,M,46.4,M,,*6D
$GPRMC,185127.000,A,5148.8430,N,01218.0113,E,78.78,220.73,050214,,,A*5E
$GPGGA,185134.000,5148.7356,N,01217.8399,E,1,8,0.89,49.9,M,46.4,M,,*6C
$GPRMC,185133.000,A,5148.7507,N,01217.8653,E,77.88,225.99,050214,,,A*54
$GPGGA,185139.000,5148.6576,N,01217.7100,E,1,8,0.85,50.0,M,46.4,M,,*64
$GPRMC,185138.000,A,5148.6734,N,01217.7365,E,81.28,225.80,050214,,,A*58
$GPGGA,185144.000,5148.5780,N,01217.5772,E,1,9,0.89,51.0,M,46.4,M,,*6B
$GPRMC,185143.000,A,5148.5942,N,01217.6039,E,82.61,225.55,050214,,,A*55
$GPGGA,185149.000,5148.4966,N,01217.4411,E,1,8,0.89,52.3,M,46.4,M,,*67
$GPRMC,185148.000,A,5148.5129,N,01217.4685,E,84.80,226.06,050214,,,A*54
$GPGGA,185154.000,5148.4154,N,01217.3069,E,1,9,0.89,54.0,M,46.4,M,,*6A
$GPRMC,185153.000,A,5148.4316,N,01217.3326,E,83.05,224.81,050214,,,A*5D
$GPGGA,185159.000,5148.3320,N,01217.1890,E,1,9,0.89,55.8,M,46.4,M,,*64
$GPRMC,185158.000,A,5148.3495,N,01217.2117,E,80.39,219.32,050214,,,A*56
$GPGGA,185204.000,5148.2383,N,01217.0835,E,1,9,0.89,57.2,M,46.4,M,,*61
$GPRMC,185203.000,A,5148.2578,N,01217.1035,E,82.84,213.33,050214,,,A*55
$GPGGA,185209.000,5148.1359,N,01216.9914,E,1,9,0.89,58.4,M,46.4,M,,*6B
$GPRMC,185208.000,A,5148.1568,N,01217.0090,E,84.61,208.02,050214,,,A*57
$GPGGA,185214.000,5148.0320,N,01216.9050,E,1,9,0.89,58.4,M,46.4,M,,*61
$GPRMC,185213.000,A,5148.0525,N,01216.9219,E,83.52,207.57,050214,,,A*56
$GPGGA,185219.000,5147.9299,N,01216.8210,E,1,9,0.89,57.5,M,46.5,M,,*61
$GPRMC,185218.000,A,5147.9503,N,01216.8379,E,82.46,207.30,050214,,,A*5C
$GPGGA,185224.000,5147.8279,N,01216.7362,E,1,8,0.94,56.4,M,46.5,M,,*66
$GPRMC,185223.000,A,5147.8483,N,01216.7531,E,82.77,207.45,050214,,,A*59
$GPGGA,185229.000,5147.7260,N,01216.6511,E,1,9,0.89,55.9,M,46.5,M,,*6C
$GPRMC,185228.000,A,5147.7466,N,01216.6683,E,83.26,207.43,050214,,,A*5E
$GPGGA,185234.000,5147.6218,N,01216.5644,E,1,9,0.89,56.2,M,46.5,M,,*66
$GPRMC,185233.000,A,5147.6427,N,01216.5816,E,84.09,207.19,050214,,,A*54
$GPGGA,185239.000,5147.5166,N,01216.4767,E,1,9,0.89,54.8,M,46.5,M,,*6B
$GPRMC,185238.000,A,5147.5376,N,01216.4942,E,85.25,207.31,050214,,,A*5B
$GPGGA,185244.000,5147.4113,N,01216.3945,E,1,9,0.84,54.3,M,46.5,M,,*6D
$GPRMC,185243.000,A,5147.4320,N,01216.4097,E,82.64,205.08,050214,,,A*5E
$GPGGA,185249.000,5147.3059,N,01216.3282,E,1,9,0.89,54.8,M,46.5,M,,*6E
$GPRMC,185248.000,A,5147.3270,N,01216.3405,E,81.22,200.24,050214,,,A*54
$GPGGA,185254.000,5147.2016,N,01216.2657,E,1,9,0.89,55.1,M,46.5,M,,*6D
$GPRMC,185253.000,A,5147.2221,N,01216.2781,E,79.39,200.46,050214,,,A*5C
$GPGGA,185259.000,5147.1005,N,01216.2032,E,1,9,0.89,53.5,M,46.5,M,,*66
$GPRMC,185258.000,A,5147.1203,N,01216.2164,E,77.62,201.59,050214,,,A*56
$GPGGA,185304.000,5147.0030,N,01216.1299,E,1,9,0.89,51.6,M,46.5,M,,*69
$GPRMC,185303.000,A,5147.0222,N,01216.1458,E,77.71,206.65,050214,,,A*58
$GPGGA,185309.000,5146.9091,N,01216.0409,E,1,9,0.84,53.1,M,46.5,M,,*61
$GPRMC,185308.000,A,5146.9276,N,01216.0604,E,78.90,212.59,050214,,,A*5A
$GPGGA,185314.000,5146.8207,N,01215.9343,E,1,9,0.84,53.8,M,46.5,M,,*6B
$GPRMC,185313.000,A,5146.8378,N,01215.9567,E,79.31,218.06,050214,,,A*58
$GPGGA,185319.000,5146.7399,N,01215.8123,E,1,9,0.89,54.8,M,46.5,M,,*60
$GPRMC,185318.000,A,5146.7557,N,01215.8380,E,80.39,224.24,050214,,,A*58
$GPGGA,185324.000,5146.6634,N,01215.6726,E,1,8,1.07,54.5,M,46.5,M,,*6B
$GPRMC,185323.000,A,5146.6787,N,01215.7016,E,84.84,229.58,050214,,,A*59
$GPGGA,185329.000,5146.5872,N,01215.5309,E,1,8,1.07,55.8,M,46.5,M,,*6F
$GPRMC,185328.000,A,5146.6022,N,01215.5589,E,82.93,228.55,050214,,,A*57
$GPGGA,185334.000,5146.5129,N,01215.3903,E,1,9,0.89,58.6,M,46.5,M,,*67
$GPRMC,185333.000,A,5146.5277,N,01215.4185,E,82.06,229.36,050214,,,A*5D
$GPGGA,185339.000,5146.4389,N,01215.2491,E,1,8,1.07,62.8,M,46.5,M,,*65
$GPRMC,185338.000,A,5146.4536,N,01215.2772,E,82.93,229.44,050214,,,A*54
$GPGGA,185344.000,5146.3639,N,01215.1080,E,1,9,0.89,67.2,M,46.5,M,,*68
$GPRMC,185343.000,A,5146.3791,N,01215.1365,E,83.89,229.08,050214,,,A*53
$GPGGA,185349.000,5146.2887,N,01214.9666,E,1,9,0.89,71.0,M,46.5,M,,*6D
$GPRMC,185348.000,A,5146.3036,N,01214.9946,E,82.70,229.23,050214,,,A*5E
$GPGGA,185354.000,5146.2145,N,01214.8275,E,1,8,0.99,73.1,M,46.5,M,,*62
$GPRMC,185353.000,A,5146.2292,N,01214.8551,E,81.40,229.51,050214,,,A*57
$GPGGA,185359.000,5146.1424,N,01214.6919,E,1,9,0.89,72.8,M,46.5,M,,*69
$GPRMC,185358.000,A,5146.1567,N,01214.7190,E,79.19,229.74,050214,,,A*58
$GPGGA,185404.000,5146.0710,N,01214.5590,E,1,9,0.89,70.1,M,46.5,M,,*66
$GPRMC,185403.000,A,5146.0852,N,01214.5854,E,78.44,229.18,050214,,,A*5B
$GPGGA,185409.000,5145.9966,N,01214.4306,E,1,9,0.89,69.4,M,46.5,M,,*6B
$GPRMC,185408.000,A,5146.0121,N,01214.4552,E,79.67,225.36,050214,,,A*57
$GPGGA,185415.000,5145.8989,N,01214.2954,E,1,9,0.89,69.4,M,46.5,M,,*6D
$GPRMC,185414.000,A,5145.9159,N,01214.3167,E,77.17,218.89,050214,,,A*59
$GPGGA,185420.000,5145.8081,N,01214.1952,E,1,9,0.84,69.8,M,46.5,M,,*6E
$GPRMC,185419.000,A,5145.8269,N,01214.2143,E,79.87,213.13,050214,,,A*5D
$GPGGA,185425.000,5145.7110,N,01214.1103,E,1,9,0.89,69.2,M,46.5,M,,*66
$GPRMC,185424.000,A,5145.7308,N,01214.1262,E,79.60,207.40,050214,,,A*53
$GPGGA,185430.000,5145.6093,N,01214.0324,E,1,9,0.84,67.8,M,46.5,M,,*66
$GPRMC,185429.000,A,5145.6298,N,01214.0481,E,81.15,205.78,050214,,,A*51
$GPGGA,185435.000,5145.5064,N,01213.9494,E,1,9,0.89,67.2,M,46.5,M,,*6D
$GPRMC,185434.000,A,5145.5270,N,01213.9661,E,82.93,206.82,050214,,,A*51
$GPGGA,185440.000,5145.4033,N,01213.8686,E,1,9,0.89,67.0,M,46.5,M,,*6E
$GPRMC,185439.000,A,5145.4239,N,01213.8847,E,82.88,205.96,050214,,,A*57
$GPGGA,185445.000,5145.3004,N,01213.7883,E,1,9,0.89,67.0,M,46.5,M,,*6C
$GPRMC,185444.000,A,5145.3208,N,01213.8042,E,81.77,205.65,050214,,,A*5A
$GPGGA,185450.000,5145.1998,N,01213.7096,E,1,9,0.89,66.9,M,46.5,M,,*62
$GPRMC,185449.000,A,5145.2197,N,01213.7251,E,80.07,205.86,050214,,,A*57
$GPGGA,185455.000,5145.1027,N,01213.6342,E,1,9,0.89,66.9,M,46.5,M,,*61
$GPRMC,185454.000,A,5145.1218,N,01213.6488,E,76.17,205.31,050214,,,A*5B
$GPGGA,185501.000,5144.9865,N,01213.5457,E,1,9,0.89,66.9,M,46.5,M,,*66
$GPRMC,185500.000,A,5145.0063,N,01213.5606,E,78.07,204.58,050214,,,A*52
$GPGGA,185506.000,5144.8844,N,01213.4679,E,1,9,0.89,66.5,M,46.5,M,,*60
$GPRMC,185505.000,A,5144.9052,N,01213.4838,E,82.20,205.30,050214,,,A*50
$GPGGA,185511.000,5144.7795,N,01213.3910,E,1,9,0.84,66.7,M,46.5,M,,*62
$GPRMC,185510.000,A,5144.8005,N,01213.4062,E,82.80,204.08,050214,,,A*50
$GPGGA,185516.000,5144.6717,N,01213.3157,E,1,9,0.84,67.6,M,46.5,M,,*65
$GPRMC,185515.000,A,5144.6937,N,01213.3304,E,85.39,202.93,050214,,,A*56
$GPGGA,185521.000,5144.5634,N,01213.2482,E,1,9,0.89,68.5,M,46.5,M,,*6F
$GPRMC,185520.000,A,5144.5845,N,01213.2610,E,81.77,200.83,050214,,,A*5B
$GPGGA,185526.000,5144.4570,N,01213.1887,E,1,9,0.89,69.3,M,46.5,M,,*67
$GPRMC,185525.000,A,5144.4784,N,01213.2002,E,81.24,198.78,050214,,,A*58
$GPGGA,185531.000,5144.3523,N,01213.1400,E,1,9,0.89,70.2,M,46.5,M,,*6A
$GPRMC,185530.000,A,5144.3728,N,01213.1486,E,76.73,195.05,050214,,,A*5B
$GPGGA,185536.000,5144.2477,N,01213.0972,E,1,9,0.84,70.1,M,46.5,M,,*6B
$GPRMC,185535.000,A,5144.2691,N,01213.1054,E,78.73,193.75,050214,,,A*58
$GPGGA,185541.000,5144.1389,N,01213.0599,E,1,9,0.84,70.1,M,46.5,M,,*67
$GPRMC,185540.000,A,5144.1609,N,01213.0667,E,80.21,191.65,050214,,,A*5C
$GPGGA,185546.000,5144.0273,N,01213.0302,E,1,9,0.84,70.1,M,46.5,M,,*61
$GPRMC,185545.000,A,5144.0500,N,01213.0355,E,82.06,188.96,050214,,,A*55
$GPGGA,185551.000,5143.9123,N,01213.0063,E,1,9,0.84,70.3,M,46.5,M,,*69
$GPRMC,185550.000,A,5143.9354,N,01213.0105,E,84.08,187.07,050214,,,A*50
$GPGGA,185556.000,5143.7991,N,01212.9852,E,1,9,0.89,70.2,M,46.6,M,,*6C
$GPRMC,185555.000,A,5143.8215,N,01212.9896,E,81.22,186.75,050214,,,A*52
$GPGGA,185601.000,5143.6867,N,01212.9627,E,1,9,0.89,70.6,M,46.6,M,,*6C
$GPRMC,185600.000,A,5143.7088,N,01212.9672,E,80.62,187.11,050214,,,A*5A
$GPGGA,185606.000,5143.5778,N,01212.9408,E,1,9,0.89,71.3,M,46.6,M,,*62
$GPRMC,185605.000,A,5143.5990,N,01212.9450,E,77.46,187.05,050214,,,A*54
$GPGGA,185612.000,5143.4537,N,01212.9165,E,1,9,0.89,72.1,M,46.6,M,,*60
$GPRMC,185611.000,A,5143.4743,N,01212.9205,E,74.92,186.90,050214,,,A*51
$GPGGA,185618.000,5143.3297,N,01212.8928,E,1,9,0.89,72.2,M,46.6,M,,*63
$GPRMC,185617.000,A,5143.3506,N,01212.8966,E,75.65,186.59,050214,,,A*50
$GPGGA,185623.000,5143.2222,N,01212.8725,E,1,9,0.89,72.1,M,46.6,M,,*64
$GPRMC,185622.000,A,5143.2441,N,01212.8768,E,78.99,186.84,050214,,,A*5B
$GPGGA,185628.000,5143.1101,N,01212.8514,E,1,9,0.89,71.9,M,46.6,M,,*65
$GPRMC,185627.000,A,5143.1327,N,01212.8556,E,81.76,186.69,050214,,,A*51
$GPGGA,185633.000,5142.9960,N,01212.8297,E,1,9,0.89,71.4,M,46.6,M,,*68
$GPRMC,185632.000,A,5143.0185,N,01212.8342,E,82.16,186.77,050214,,,A*57
$GPGGA,185639.000,5142.8753,N,01212.8059,E,1,9,0.89,72.1,M,46.6,M,,*6B
$GPRMC,185638.000,A,5142.8933,N,01212.8093,E,66.38,186.85,050214,,,A*55
$GPGGA,185645.000,5142.7654,N,01212.7853,E,1,9,0.89,72.2,M,46.6,M,,*67
$GPRMC,185644.000,A,5142.7839,N,01212.7889,E,67.67,186.60,050214,,,A*56
$GPGGA,185651.000,5142.6513,N,01212.7635,E,1,9,0.89,72.4,M,46.6,M,,*6B
$GPRMC,185650.000,A,5142.6705,N,01212.7673,E,69.73,186.80,050214,,,A*5C
$GPGGA,185657.000,5142.5347,N,01212.7414,E,1,9,0.89,72.7,M,46.6,M,,*6B
$GPRMC,185656.000,A,5142.5542,N,01212.7450,E,71.04,186.62,050214,,,A*5E
$GPGGA,185703.000,5142.4211,N,01212.7200,E,1,9,0.89,73.0,M,46.6,M,,*6D
$GPRMC,185702.000,A,5142.4402,N,01212.7236,E,69.03,186.86,050214,,,A*58
$GPGGA,185709.000,5142.3053,N,01212.6980,E,1,9,0.89,73.9,M,46.6,M,,*6F
$GPRMC,185708.000,A,5142.3249,N,01212.7017,E,70.83,186.87,050214,,,A*5C
$GPGGA,185715.000,5142.1864,N,01212.6756,E,1,9,0.89,74.4,M,46.6,M,,*63
$GPRMC,185714.000,A,5142.2060,N,01212.6793,E,71.68,186.73,050214,,,A*5C
$GPGGA,185721.000,5142.0727,N,01212.6541,E,1,9,0.89,74.5,M,46.6,M,,*68
$GPRMC,185720.000,A,5142.0917,N,01212.6577,E,68.89,186.50,050214,,,A*5E
$GPGGA,185727.000,5141.9553,N,01212.6315,E,1,9,0.89,74.7,M,46.6,M,,*60
$GPRMC,185726.000,A,5141.9751,N,01212.6355,E,71.93,186.82,050214,,,A*54
$GPGGA,185733.000,5141.8340,N,01212.6085,E,1,8,1.10,74.8,M,46.6,M,,*65
$GPRMC,185732.000,A,5141.8543,N,01212.6122,E,73.22,186.48,050214,,,A*5D
$GPGGA,185739.000,5141.7062,N,01212.5844,E,1,9,0.89,73.9,M,46.6,M,,*63
$GPRMC,185738.000,A,5141.7281,N,01212.5886,E,79.47,186.71,050214,,,A*56
$GPGGA,185744.000,5141.5988,N,01212.5641,E,1,9,0.89,73.1,M,46.6,M,,*65
$GPRMC,185743.000,A,5141.6202,N,01212.5682,E,77.09,186.89,050214,,,A*59
$GPGGA,185749.000,5141.4889,N,01212.5431,E,1,9,0.89,71.8,M,46.6,M,,*67
$GPRMC,185748.000,A,5141.5112,N,01212.5473,E,80.20,186.66,050214,,,A*5D
$GPGGA,185754.000,5141.3760,N,01212.5219,E,1,9,0.89,70.6,M,46.6,M,,*67
$GPRMC,185753.000,A,5141.3986,N,01212.5263,E,82.03,186.72,050214,,,A*55
$GPGGA,185759.000,5141.2618,N,01212.5008,E,1,9,0.89,69.5,M,46.6,M,,*6C
$GPRMC,185758.000,A,5141.2848,N,01212.5051,E,82.92,186.76,050214,,,A*53
$GPGGA,185804.000,5141.1451,N,01212.4782,E,1,9,0.89,68.7,M,46.6,M,,*60
$GPRMC,185803.000,A,5141.1685,N,01212.4828,E,84.86,186.87,050214,,,A*54
$GPGGA,185809.000,5141.0273,N,01212.4561,E,1,9,0.89,68.6,M,46.6,M,,*64
$GPRMC,185808.000,A,5141.0508,N,01212.4605,E,85.13,186.77,050214,,,A*5B
$GPGGA,185814.000,5140.9103,N,01212.4338,E,1,9,0.89,68.8,M,46.6,M,,*60
$GPRMC,185813.000,A,5140.9335,N,01212.4381,E,84.88,186.80,050214,,,A*53
$GPGGA,185820.000,5140.7869,N,01212.4102,E,1,9,0.89,69.4,M,46.6,M,,*6A
$GPRMC,185819.000,A,5140.8066,N,01212.4140,E,71.89,186.87,050214,,,A*5E
$GPGGA,185826.000,5140.6683,N,01212.3881,E,1,8,1.11,70.4,M,46.6,M,,*6B
$GPRMC,185825.000,A,5140.6884,N,01212.3919,E,72.54,186.64,050214,,,A*56
$GPGGA,185832.000,5140.5420,N,01212.3642,E,1,9,0.89,71.0,M,46.6,M,,*63
$GPRMC,185831.000,A,5140.5637,N,01212.3682,E,78.00,186.69,050214,,,A*5D
$GPGGA,185837.000,5140.4337,N,01212.3436,E,1,9,0.89,71.6,M,46.6,M,,*61
$GPRMC,185836.000,A,5140.4555,N,01212.3478,E,78.57,186.76,050214,,,A*57
$GPGGA,185842.000,5140.3246,N,01212.3230,E,1,9,0.89,73.0,M,46.6,M,,*67
$GPRMC,185841.000,A,5140.3460,N,01212.3269,E,78.38,186.45,050214,,,A*58
$GPGGA,185848.000,5140.2032,N,01212.2996,E,1,9,0.89,74.0,M,46.6,M,,*6C
$GPRMC,185847.000,A,5140.2227,N,01212.3033,E,71.23,186.91,050214,,,A*5D
$GPGGA,185854.000,5140.0909,N,01212.2786,E,1,8,1.11,74.6,M,46.6,M,,*6A
$GPRMC,185853.000,A,5140.1099,N,01212.2820,E,68.33,186.71,050214,,,A*50
$GPGGA,185900.000,5139.9716,N,01212.2564,E,1,9,0.84,75.0,M,46.6,M,,*68
$GPRMC,185859.000,A,5139.9919,N,01212.2602,E,73.29,186.76,050214,,,A*55
$GPGGA,185906.000,5139.8553,N,01212.2341,E,1,9,0.89,74.9,M,46.6,M,,*68
$GPRMC,185905.000,A,5139.8744,N,01212.2377,E,69.33,186.68,050214,,,A*52
$GPGGA,185912.000,5139.7405,N,01212.2124,E,1,9,0.89,75.3,M,46.6,M,,*6A
$GPRMC,185911.000,A,5139.7594,N,01212.2161,E,69.09,186.88,050214,,,A*55
$GPGGA,185918.000,5139.6328,N,01212.1920,E,1,9,0.89,75.4,M,46.6,M,,*61
$GPRMC,185917.000,A,5139.6502,N,01212.1953,E,63.44,186.50,050214,,,A*51
$GPGGA,185925.000,5139.5116,N,01212.1697,E,1,9,0.89,75.4,M,46.6,M,,*60
$GPRMC,185924.000,A,5139.5292,N,01212.1728,E,63.66,186.38,050214,,,A*50
$GPGGA,185931.000,5139.4019,N,01212.1497,E,1,9,0.89,74.8,M,46.6,M,,*65
$GPRMC,185930.000,A,5139.4204,N,01212.1532,E,67.20,186.67,050214,,,A*5E
$GPGGA,185937.000,5139.2889,N,01212.1278,E,1,9,0.89,73.2,M,46.6,M,,*6E
$GPRMC,185936.000,A,5139.3078,N,01212.1314,E,68.32,187.07,050214,,,A*5F
$GPGGA,185943.000,5139.1808,N,01212.1063,E,1,9,0.89,73.6,M,46.6,M,,*6B
$GPRMC,185942.000,A,5139.1987,N,01212.1098,E,64.87,187.07,050214,,,A*52
$GPGGA,185949.000,5139.0703,N,01212.0849,E,1,9,0.89,73.6,M,46.6,M,,*65
$GPRMC,185948.000,A,5139.0891,N,01212.0885,E,67.64,186.76,050214,,,A*53
$GPGGA,185955.000,5138.9570,N,01212.0634,E,1,9,0.89,73.8,M,46.6,M,,*6C
$GPRMC,185954.000,A,5138.9757,N,01212.0670,E,68.12,186.73,050214,,,A*5C
$GPGGA,190001.000,5138.8451,N,01212.0407,E,1,9,0.89,73.9,M,46.6,M,,*60
$GPRMC,190000.000,A,5138.8633,N,01212.0448,E,66.78,187.76,050214,,,A*5D
$GPGGA,190007.000,5138.7375,N,01212.0139,E,1,9,0.89,73.5,M,46.6,M,,*6C
$GPRMC,190006.000,A,5138.7554,N,01212.0186,E,66.00,188.84,050214,,,A*5C
$GPGGA,190013.000,5138.6298,N,01211.9843,E,1,9,0.89,72.7,M,46.6,M,,*67
$GPRMC,190012.000,A,5138.6484,N,01211.9898,E,67.37,189.95,050214,,,A*5C
$GPGGA,190019.000,5138.5223,N,01211.9508,E,1,9,0.89,73.0,M,46.6,M,,*6A
$GPRMC,190018.000,A,5138.5397,N,01211.9565,E,64.27,191.20,050214,,,A*5A
$GPGGA,190025.000,5138.4164,N,01211.9150,E,1,9,0.89,73.6,M,46.6,M,,*6B
$GPRMC,190024.000,A,5138.4338,N,01211.9213,E,64.94,192.11,050214,,,A*5E
$GPGGA,190032.000,5138.2961,N,01211.8706,E,1,9,0.89,73.5,M,46.6,M,,*61
$GPRMC,190031.000,A,5138.3137,N,01211.8774,E,64.84,193.02,050214,,,A*57
$GPGGA,190038.000,5138.1917,N,01211.8290,E,1,9,0.89,73.5,M,46.6,M,,*63
$GPRMC,190037.000,A,5138.2089,N,01211.8358,E,63.25,193.65,050214,,,A*53
$GPGGA,190044.000,5138.0805,N,01211.7848,E,1,9,0.89,73.4,M,46.6,M,,*6A
$GPRMC,190043.000,A,5138.0999,N,01211.7930,E,71.83,194.20,050214,,,A*58
$GPGGA,190050.000,5137.9628,N,01211.7350,E,1,9,0.89,73.8,M,46.6,M,,*66
$GPRMC,190049.000,A,5137.9824,N,01211.7433,E,72.84,194.34,050214,,,A*5C
$GPGGA,190056.000,5137.8465,N,01211.6867,E,1,9,0.89,74.9,M,46.6,M,,*62
$GPRMC,190055.000,A,5137.8654,N,01211.6946,E,71.08,194.53,050214,,,A*51
$GPGGA,190102.000,5137.7334,N,01211.6400,E,1,9,0.89,77.2,M,46.6,M,,*6B
$GPRMC,190101.000,A,5137.7523,N,01211.6479,E,70.48,194.40,050214,,,A*5B
$GPGGA,190108.000,5137.6184,N,01211.5914,E,1,9,0.89,79.5,M,46.6,M,,*6B
$GPRMC,190107.000,A,5137.6376,N,01211.5995,E,71.80,194.48,050214,,,A*5B
$GPGGA,190114.000,5137.5079,N,01211.5468,E,1,9,0.89,81.3,M,46.6,M,,*61
$GPRMC,190113.000,A,5137.5259,N,01211.5539,E,66.49,194.05,050214,,,A*51
$GPGGA,190120.000,5137.4011,N,01211.5031,E,1,9,0.89,81.2,M,46.6,M,,*60
$GPRMC,190119.000,A,5137.4183,N,01211.5103,E,64.84,194.38,050214,,,A*5E
$GPGGA,190126.000,5137.2931,N,01211.4587,E,1,9,0.89,79.4,M,46.6,M,,*63
$GPRMC,190125.000,A,5137.3119,N,01211.4662,E,69.36,194.24,050214,,,A*5D
$GPGGA,190133.000,5137.1775,N,01211.4097,E,1,9,0.89,76.3,M,46.7,M,,*67
$GPRMC,190132.000,A,5137.1906,N,01211.4158,E,50.84,195.67,050214,,,A*54
$GPGGA,190142.000,5137.0666,N,01211.3614,E,1,9,0.89,74.9,M,46.7,M,,*61
$GPRMC,190141.000,A,5137.0791,N,01211.3666,E,46.67,194.60,050214,,,A*50
$GPGGA,190151.000,5136.9531,N,01211.3140,E,1,9,0.89,74.9,M,46.7,M,,*6C
$GPRMC,190150.000,A,5136.9658,N,01211.3195,E,47.35,194.59,050214,,,A*5B
$GPGGA,190200.000,5136.8435,N,01211.2682,E,1,9,0.89,74.6,M,46.7,M,,*68
$GPRMC,190159.000,A,5136.8555,N,01211.2731,E,44.93,194.25,050214,,,A*50
$GPGGA,190209.000,5136.7339,N,01211.2222,E,1,9,0.89,76.2,M,46.7,M,,*6D
$GPRMC,190208.000,A,5136.7459,N,01211.2271,E,44.40,194.43,050214,,,A*5A
$GPGGA,190219.000,5136.6242,N,01211.1743,E,1,9,0.89,76.6,M,46.7,M,,*65
$GPRMC,190218.000,A,5136.6340,N,01211.1785,E,37.23,194.67,050214,,,A*5F
$GPGGA,190236.000,5136.5253,N,01211.1015,E,1,9,0.89,77.5,M,46.7,M,,*6D
$GPRMC,190235.000,A,5136.5296,N,01211.1080,E,20.71,223.65,050214,,,A*57
$DeviceName=pironex_auto
$Software=0.1.3
$Hardware=1
$LastValidPosition=
$IMEI=359193030849087
$LocalIP=10.54.118.172
$CmdVersion=2
$SUCCESS
$<end>
ping
ping
$GPGGA,192437.000,5136.3652,N,01211.0012,E,1,10,0.81,84.2,M,46.7,M,,*56
$GPRMC,192436.000,A,5136.3698,N,01211.0031,E,16.97,193.85,050214,,,A*5C
$GPGGA,192507.000,5136.2561,N,01211.0192,E,1,10,0.81,82.9,M,46.7,M,,*52
$GPRMC,192506.000,A,5136.2638,N,01211.0192,E,26.16,178.93,050214,,,A*55
$GPGGA,192517.000,5136.1396,N,01210.9899,E,1,10,0.81,84.1,M,46.7,M,,*5A
$GPRMC,192516.000,A,5136.1544,N,01210.9928,E,51.61,187.24,050214,,,A*52
$GPGGA,192524.000,5136.0213,N,01210.9757,E,1,10,0.81,85.5,M,46.7,M,,*5F
$GPRMC,192523.000,A,5136.0395,N,01210.9767,E,64.08,182.34,050214,,,A*57
$GPGGA,192530.000,5135.9076,N,01210.9788,E,1,10,0.81,86.7,M,46.7,M,,*52
$GPRMC,192529.000,A,5135.9267,N,01210.9768,E,68.42,177.23,050214,,,A*5A
$GPGGA,192536.000,5135.7924,N,01211.0020,E,1,10,0.81,85.9,M,46.7,M,,*54
$GPRMC,192535.000,A,5135.8119,N,01210.9965,E,70.06,171.25,050214,,,A*56
$GPGGA,192542.000,5135.6697,N,01211.0479,E,1,10,0.81,84.6,M,46.7,M,,*57
$GPRMC,192541.000,A,5135.6906,N,01211.0391,E,77.08,165.82,050214,,,A*55
$GPGGA,192547.000,5135.5639,N,01211.0960,E,1,10,0.81,82.8,M,46.7,M,,*58
$GPRMC,192546.000,A,5135.5856,N,01211.0864,E,79.57,164.93,050214,,,A*51
$GPGGA,192552.000,5135.4528,N,01211.1436,E,1,10,0.77,83.5,M,46.7,M,,*54
$GPRMC,192551.000,A,5135.4753,N,01211.1337,E,83.26,165.52,050214,,,A*5F
$GPGGA,192557.000,5135.3394,N,01211.1950,E,1,10,0.81,83.1,M,46.7,M,,*57
$GPRMC,192556.000,A,5135.3622,N,01211.1847,E,84.68,164.25,050214,,,A*58
$GPGGA,192602.000,5135.2244,N,01211.2463,E,1,10,0.81,83.1,M,46.7,M,,*57
$GPRMC,192601.000,A,5135.2474,N,01211.2359,E,85.54,164.60,050214,,,A*51
$GPGGA,192607.000,5135.1066,N,01211.2985,E,1,10,0.81,82.8,M,46.7,M,,*5E
$GPRMC,192606.000,A,5135.1305,N,01211.2881,E,88.62,164.70,050214,,,A*53
$GPGGA,192612.000,5134.9851,N,01211.3519,E,1,10,0.81,82.9,M,46.7,M,,*56
$GPRMC,192611.000,A,5135.0096,N,01211.3410,E,91.39,164.62,050214,,,A*5D
$GPGGA,192617.000,5134.8629,N,01211.4049,E,1,10,0.81,83.9,M,46.7,M,,*55
$GPRMC,192616.000,A,5134.8873,N,01211.3952,E,90.36,165.27,050214,,,A*55
$GPGGA,192622.000,5134.7393,N,01211.4443,E,1,10,0.77,83.1,M,46.7,M,,*57
$GPRMC,192621.000,A,5134.7642,N,01211.4380,E,90.81,170.08,050214,,,A*55
$GPGGA,192627.000,5134.6154,N,01211.4583,E,1,10,0.81,82.6,M,46.7,M,,*58
$GPRMC,192626.000,A,5134.6399,N,01211.4574,E,88.85,177.69,050214,,,A*50
$GPGGA,192632.000,5134.4926,N,01211.4482,E,1,10,0.81,83.8,M,46.7,M,,*5C
$GPRMC,192631.000,A,5134.5171,N,01211.4521,E,88.93,184.03,050214,,,A*56
$GPGGA,192637.000,5134.3707,N,01211.4176,E,1,10,0.81,83.7,M,46.7,M,,*52
$GPRMC,192636.000,A,5134.3947,N,01211.4247,E,88.61,189.36,050214,,,A*5B
$GPGGA,192642.000,5134.2537,N,01211.3826,E,1,10,0.81,82.5,M,46.7,M,,*58
$GPRMC,192641.000,A,5134.2761,N,01211.3894,E,84.02,190.12,050214,,,A*54
$GPGGA,192648.000,5134.1292,N,01211.3464,E,1,10,0.81,81.9,M,46.7,M,,*5C
$GPRMC,192647.000,A,5134.1496,N,01211.3525,E,75.07,190.39,050214,,,A*5F
$GPGGA,192654.000,5134.0044,N,01211.3101,E,1,10,0.81,81.7,M,46.7,M,,*51
$GPRMC,192653.000,A,5134.0254,N,01211.3162,E,76.74,189.91,050214,,,A*59
$GPGGA,192659.000,5133.8979,N,01211.2798,E,1,10,0.77,82.2,M,46.7,M,,*5C
$GPRMC,192658.000,A,5133.9193,N,01211.2859,E,78.56,190.06,050214,,,A*5C
$GPGGA,192704.000,5133.7900,N,01211.2487,E,1,10,0.81,83.8,M,46.7,M,,*5B
$GPRMC,192703.000,A,5133.8116,N,01211.2550,E,78.75,190.31,050214,,,A*5E
$GPGGA,192709.000,5133.6816,N,01211.2237,E,1,10,0.81,85.6,M,46.7,M,,*54
$GPRMC,192708.000,A,5133.7035,N,01211.2276,E,78.78,186.70,050214,,,A*56
$GPGGA,192714.000,5133.5711,N,01211.2165,E,1,10,0.81,86.1,M,46.7,M,,*53
$GPRMC,192713.000,A,5133.5933,N,01211.2166,E,79.72,181.00,050214,,,A*58
$GPGGA,192719.000,5133.4579,N,01211.2291,E,1,10,0.81,84.8,M,46.7,M,,*50
$GPRMC,192718.000,A,5133.4809,N,01211.2246,E,82.45,174.57,050214,,,A*53
$GPGGA,192724.000,5133.3429,N,01211.2622,E,1,10,0.80,84.0,M,46.7,M,,*58
$GPRMC,192723.000,A,5133.3659,N,01211.2543,E,84.63,168.54,050214,,,A*59
$GPGGA,192729.000,5133.2313,N,01211.3057,E,1,10,0.81,86.2,M,46.7,M,,*5E
$GPRMC,192728.000,A,5133.2532,N,01211.2974,E,82.08,166.95,050214,,,A*5D
$GPGGA,192734.000,5133.1210,N,01211.3471,E,1,10,0.77,86.3,M,46.7,M,,*5B
$GPRMC,192733.000,A,5133.1433,N,01211.3388,E,81.74,166.84,050214,,,A*54
$GPGGA,192739.000,5133.0098,N,01211.3889,E,1,10,0.77,86.5,M,46.7,M,,*58
$GPRMC,192738.000,A,5133.0319,N,01211.3804,E,82.15,167.04,050214,,,A*53
$GPGGA,192744.000,5132.8983,N,01211.4321,E,1,10,0.80,87.8,M,46.7,M,,*52
$GPRMC,192743.000,A,5132.9208,N,01211.4236,E,83.10,166.92,050214,,,A*50
$GPGGA,192749.000,5132.7834,N,01211.4745,E,1,10,0.80,89.5,M,46.7,M,,*58
$GPRMC,192748.000,A,5132.8066,N,01211.4658,E,85.39,167.19,050214,,,A*53
$GPGGA,192754.000,5132.6695,N,01211.5173,E,1,10,0.80,92.1,M,46.7,M,,*5C
$GPRMC,192753.000,A,5132.6922,N,01211.5089,E,83.70,166.87,050214,,,A*58
$GPGGA,192759.000,5132.5578,N,01211.5595,E,1,10,0.80,93.8,M,46.7,M,,*56
$GPRMC,192758.000,A,5132.5799,N,01211.5511,E,82.36,166.93,050214,,,A*5C
$GPGGA,192804.000,5132.4487,N,01211.6011,E,1,10,0.80,93.1,M,46.7,M,,*52
$GPRMC,192803.000,A,5132.4707,N,01211.5928,E,80.93,166.85,050214,,,A*57
$GPGGA,192809.000,5132.3360,N,01211.6427,E,1,10,0.80,90.4,M,46.7,M,,*51
$GPRMC,192808.000,A,5132.3590,N,01211.6345,E,84.40,167.15,050214,,,A*57
$GPGGA,192814.000,5132.2205,N,01211.6853,E,1,10,0.80,87.9,M,46.7,M,,*5A
$GPRMC,192813.000,A,5132.2436,N,01211.6769,E,85.45,166.90,050214,,,A*53
$GPGGA,192819.000,5132.1043,N,01211.7277,E,1,10,0.80,88.2,M,46.7,M,,*5D
$GPRMC,192818.000,A,5132.1275,N,01211.7194,E,86.17,166.97,050214,,,A*5C
$GPGGA,192824.000,5131.9871,N,01211.7682,E,1,10,0.80,88.2,M,46.7,M,,*5F
$GPRMC,192823.000,A,5132.0109,N,01211.7608,E,86.58,168.70,050214,,,A*53
$GPGGA,192829.000,5131.8664,N,01211.7951,E,1,10,0.80,86.7,M,46.7,M,,*53
$GPRMC,192828.000,A,5131.8907,N,01211.7912,E,87.71,173.55,050214,,,A*56
$GPGGA,192834.000,5131.7432,N,01211.8061,E,1,10,0.80,87.3,M,46.7,M,,*51
$GPRMC,192833.000,A,5131.7679,N,01211.8052,E,88.52,177.73,050214,,,A*59
$GPGGA,192839.000,5131.6230,N,01211.8088,E,1,10,0.80,88.8,M,46.7,M,,*5A
$GPRMC,192838.000,A,5131.6467,N,01211.8083,E,85.53,179.08,050214,,,A*5C
$GPGGA,192844.000,5131.5036,N,01211.8113,E,1,10,0.77,89.1,M,46.7,M,,*54
$GPRMC,192843.000,A,5131.5276,N,01211.8107,E,86.04,179.11,050214,,,A*51
$GPGGA,192849.000,5131.3834,N,01211.8141,E,1,10,0.80,89.4,M,46.7,M,,*5F
$GPRMC,192848.000,A,5131.4074,N,01211.8135,E,86.80,178.94,050214,,,A*5A
$GPGGA,192854.000,5131.2631,N,01211.8167,E,1,9,0.84,89.3,M,46.7,M,,*66
$GPRMC,192853.000,A,5131.2873,N,01211.8163,E,87.08,179.16,050214,,,A*50
$GPGGA,192859.000,5131.1398,N,01211.8203,E,1,10,0.80,90.5,M,46.7,M,,*5D
$GPRMC,192858.000,A,5131.1645,N,01211.8192,E,88.98,178.58,050214,,,A*50
$GPGGA,192904.000,5131.0160,N,01211.8329,E,1,9,0.85,90.6,M,46.7,M,,*67
$GPRMC,192903.000,A,5131.0407,N,01211.8295,E,89.62,175.69,050214,,,A*55
$GPGGA,192909.000,5130.8946,N,01211.8544,E,1,10,0.77,90.2,M,46.7,M,,*53
$GPRMC,192908.000,A,5130.9186,N,01211.8498,E,87.01,173.32,050214,,,A*52
$GPGGA,192914.000,5130.7749,N,01211.8838,E,1,10,0.80,89.6,M,46.7,M,,*53
$GPRMC,192913.000,A,5130.7988,N,01211.8772,E,87.71,170.59,050214,,,A*5E
$GPGGA,192919.000,5130.6542,N,01211.9178,E,1,10,0.80,91.5,M,46.7,M,,*50
$GPRMC,192918.000,A,5130.6786,N,01211.9112,E,88.59,170.66,050214,,,A*5C
$GPGGA,192924.000,5130.5323,N,01211.9507,E,1,10,0.80,95.4,M,46.7,M,,*55
$GPRMC,192923.000,A,5130.5566,N,01211.9441,E,88.77,170.36,050214,,,A*51
$GPGGA,192929.000,5130.4132,N,01211.9829,E,1,10,0.80,98.6,M,46.7,M,,*55
$GPRMC,192928.000,A,5130.4367,N,01211.9765,E,86.26,170.45,050214,,,A*57
$GPGGA,192934.000,5130.2962,N,01212.0143,E,1,10,0.80,98.9,M,46.7,M,,*52
$GPRMC,192933.000,A,5130.3196,N,01212.0082,E,85.56,170.51,050214,,,A*53
$GPGGA,192939.000,5130.1791,N,01212.0464,E,1,10,0.80,96.9,M,46.7,M,,*50
$GPRMC,192938.000,A,5130.2025,N,01212.0399,E,85.45,170.33,050214,,,A*5F
$GPGGA,192944.000,5130.0619,N,01212.0781,E,1,10,0.80,93.2,M,46.7,M,,*5C
$GPRMC,192943.000,A,5130.0856,N,01212.0716,E,86.08,170.49,050214,,,A*59
$GPGGA,192949.000,5129.9410,N,01212.1116,E,1,10,0.80,91.1,M,46.7,M,,*53
$GPRMC,192948.000,A,5129.9652,N,01212.1052,E,88.58,170.63,050214,,,A*5C
$GPGGA,192954.000,5129.8222,N,01212.1438,E,1,10,0.77,93.2,M,46.7,M,,*59
$GPRMC,192953.000,A,5129.8454,N,01212.1369,E,85.44,169.50,050214,,,A*50
$GPGGA,192959.000,5129.7104,N,01212.1821,E,1,10,0.80,94.2,M,46.7,M,,*57
$GPRMC,192958.000,A,5129.7327,N,01212.1735,E,82.78,166.87,050214,,,A*57
$GPGGA,193004.000,5129.5986,N,01212.2407,E,1,10,0.77,94.6,M,46.7,M,,*50
$GPRMC,193003.000,A,5129.6210,N,01212.2270,E,85.91,160.59,050214,,,A*57
$GPGGA,193009.000,5129.4886,N,01212.3195,E,1,10,0.80,96.0,M,46.7,M,,*5E
$GPRMC,193008.000,A,5129.5103,N,01212.3031,E,86.45,155.49,050214,,,A*55
$GPGGA,193014.000,5129.3792,N,01212.4018,E,1,10,0.80,98.0,M,46.7,M,,*52
$GPRMC,193013.000,A,5129.4013,N,01212.3851,E,87.95,154.96,050214,,,A*5F
$GPGGA,193019.000,5129.2691,N,01212.4849,E,1,10,0.80,99.5,M,46.7,M,,*54
$GPRMC,193018.000,A,5129.2913,N,01212.4682,E,88.28,154.95,050214,,,A*56
$GPGGA,193024.000,5129.1572,N,01212.5685,E,1,10,0.80,101.2,M,46.7,M,,*6F
$GPRMC,193023.000,A,5129.1795,N,01212.5517,E,88.55,154.97,050214,,,A*5B
$GPGGA,193029.000,5129.0433,N,01212.6527,E,1,10,0.80,103.8,M,46.7,M,,*67
$GPRMC,193028.000,A,5129.0664,N,01212.6358,E,91.03,155.39,050214,,,A*5E
$GPGGA,193034.000,5128.9239,N,01212.7321,E,1,10,0.80,104.3,M,46.7,M,,*62
$GPRMC,193033.000,A,5128.9484,N,01212.7174,E,94.03,159.05,050214,,,A*5B
$GPGGA,193039.000,5128.8005,N,01212.7986,E,1,10,0.80,104.0,M,46.7,M,,*67
$GPRMC,193038.000,A,5128.8255,N,01212.7865,E,93.74,162.34,050214,,,A*5F
$GPGGA,193044.000,5128.6762,N,01212.8471,E,1,9,1.12,103.8,M,46.7,M,,*52
$GPRMC,193043.000,A,5128.7011,N,01212.8386,E,91.36,167.53,050214,,,A*57
$GPGGA,193049.000,5128.5521,N,01212.8799,E,1,10,0.80,103.2,M,46.7,M,,*64
$GPRMC,193048.000,A,5128.5768,N,01212.8743,E,89.97,171.36,050214,,,A*5C
$GPGGA,193054.000,5128.4285,N,01212.9041,E,1,10,0.80,103.1,M,46.7,M,,*60
$GPRMC,193053.000,A,5128.4529,N,01212.8993,E,89.11,172.69,050214,,,A*54
$GPGGA,193059.000,5128.3073,N,01212.9290,E,1,10,0.79,102.7,M,46.7,M,,*6E
$GPRMC,193058.000,A,5128.3313,N,01212.9241,E,87.60,172.41,050214,,,A*50
$GPGGA,193104.000,5128.1877,N,01212.9535,E,1,10,0.79,102.7,M,46.7,M,,*61
$GPRMC,193103.000,A,5128.2116,N,01212.9484,E,87.01,172.34,050214,,,A*53
$GPGGA,193109.000,5128.0690,N,01212.9774,E,1,10,0.79,102.6,M,46.7,M,,*6C
$GPRMC,193108.000,A,5128.0927,N,01212.9730,E,85.92,173.26,050214,,,A*56
$GPGGA,193114.000,5127.9495,N,01212.9941,E,1,10,0.79,103.4,M,46.7,M,,*6A
$GPRMC,193113.000,A,5127.9735,N,01212.9920,E,86.43,176.08,050214,,,A*5E
$GPGGA,193119.000,5127.8286,N,01212.9966,E,1,10,0.79,102.9,M,46.7,M,,*6B
$GPRMC,193118.000,A,5127.8528,N,01212.9975,E,87.54,180.13,050214,,,A*5E
$GPGGA,193124.000,5127.7075,N,01212.9834,E,1,10,0.79,104.0,M,46.7,M,,*6D
$GPRMC,193123.000,A,5127.7318,N,01212.9871,E,88.17,184.42,050214,,,A*51
$GPGGA,193129.000,5127.5861,N,01212.9553,E,1,10,0.79,105.3,M,46.7,M,,*61
$GPRMC,193128.000,A,5127.6102,N,01212.9624,E,88.51,189.40,050214,,,A*51
$GPGGA,193134.000,5127.4652,N,01212.9119,E,1,10,0.79,107.0,M,46.7,M,,*69
$GPRMC,193133.000,A,5127.4893,N,01212.9218,E,89.06,193.44,050214,,,A*5F
$GPGGA,193139.000,5127.3455,N,01212.8541,E,1,10,0.79,108.5,M,46.7,M,,*64
$GPRMC,193138.000,A,5127.3694,N,01212.8672,E,90.25,197.85,050214,,,A*53
$GPGGA,193144.000,5127.2268,N,01212.7852,E,1,10,0.79,108.2,M,46.7,M,,*60
$GPRMC,193143.000,A,5127.2505,N,01212.7994,E,90.68,199.82,050214,,,A*5D
$GPGGA,193149.000,5127.1107,N,01212.7170,E,1,10,0.79,108.5,M,46.7,M,,*6A
$GPRMC,193148.000,A,5127.1337,N,01212.7304,E,88.36,199.60,050214,,,A*5F
$GPGGA,193154.000,5126.9968,N,01212.6509,E,1,10,0.79,108.9,M,46.8,M,,*66
$GPRMC,193153.000,A,5127.0195,N,01212.6640,E,87.12,199.76,050214,,,A*54
$GPGGA,193159.000,5126.8834,N,01212.5853,E,1,10,0.79,109.8,M,46.8,M,,*63
$GPRMC,193158.000,A,5126.9060,N,01212.5983,E,86.49,199.67,050214,,,A*50
$GPGGA,193204.000,5126.7709,N,01212.5197,E,1,10,0.77,110.3,M,46.8,M,,*6A
$GPRMC,193203.000,A,5126.7935,N,01212.5328,E,86.45,200.04,050214,,,A*5B
$GPGGA,193209.000,5126.6580,N,01212.4549,E,1,10,0.79,111.0,M,46.8,M,,*6F
$GPRMC,193208.000,A,5126.6804,N,01212.4679,E,86.42,199.83,050214,,,A*59
$GPGGA,193214.000,5126.5495,N,01212.3929,E,1,10,0.79,112.0,M,46.8,M,,*6B
$GPRMC,193213.000,A,5126.5712,N,01212.4049,E,83.17,198.84,050214,,,A*5E
$GPGGA,193219.000,5126.4391,N,01212.3307,E,1,10,0.79,112.4,M,46.8,M,,*66
$GPRMC,193218.000,A,5126.4614,N,01212.3435,E,84.80,199.62,050214,,,A*5B
$GPGGA,193224.000,5126.3285,N,01212.2664,E,1,10,0.79,112.4,M,46.8,M,,*6A
$GPRMC,193223.000,A,5126.3506,N,01212.2791,E,84.29,199.62,050214,,,A*5B
$GPGGA,193229.000,5126.2162,N,01212.2016,E,1,10,0.79,111.5,M,46.8,M,,*6D
$GPRMC,193228.000,A,5126.2388,N,01212.2149,E,86.42,200.13,050214,,,A*58
$GPGGA,193234.000,5126.1024,N,01212.1332,E,1,10,0.79,111.6,M,46.8,M,,*64
$GPRMC,193233.000,A,5126.1251,N,01212.1464,E,87.71,200.08,050214,,,A*56
$GPGGA,193239.000,5125.9922,N,01212.0693,E,1,10,0.79,112.6,M,46.8,M,,*61
$GPRMC,193238.000,A,5126.0140,N,01212.0819,E,83.55,199.91,050214,,,A*59
$GPGGA,193244.000,5125.8825,N,01212.0066,E,1,10,0.79,113.3,M,46.8,M,,*64
$GPRMC,193243.000,A,5125.9046,N,01212.0193,E,84.62,199.58,050214,,,A*55
$GPGGA,193249.000,5125.7694,N,01211.9414,E,1,10,0.79,113.5,M,46.8,M,,*6F
$GPRMC,193248.000,A,5125.7926,N,01211.9543,E,88.19,199.30,050214,,,A*52
$GPGGA,193254.000,5125.6519,N,01211.8746,E,1,7,0.99,112.0,M,46.8,M,,*5D
$GPRMC,193253.000,A,5125.6755,N,01211.8888,E,91.79,199.47,050214,,,A*56
$GPGGA,193259.000,5125.5347,N,01211.8071,E,1,10,0.76,112.4,M,46.8,M,,*6E
$GPRMC,193258.000,A,5125.5580,N,01211.8205,E,89.17,199.65,050214,,,A*5A
$GPGGA,193304.000,5125.4185,N,01211.7417,E,1,10,0.79,113.3,M,46.8,M,,*68
$GPRMC,193303.000,A,5125.4420,N,01211.7551,E,88.98,199.70,050214,,,A*54
$GPGGA,193309.000,5125.3025,N,01211.6750,E,1,10,0.79,114.3,M,46.8,M,,*6F
$GPRMC,193308.000,A,5125.3257,N,01211.6881,E,88.58,199.70,050214,,,A*53
$GPGGA,193314.000,5125.1858,N,01211.6076,E,1,10,0.79,114.9,M,46.8,M,,*6A
$GPRMC,193313.000,A,5125.2090,N,01211.6212,E,89.33,199.91,050214,,,A*52
$GPGGA,193319.000,5125.0710,N,01211.5420,E,1,10,0.79,115.0,M,46.8,M,,*69
$GPRMC,193318.000,A,5125.0941,N,01211.5551,E,88.04,199.57,050214,,,A*52
$GPGGA,193324.000,5124.9547,N,01211.4752,E,1,10,0.79,115.2,M,46.8,M,,*6A
$GPRMC,193323.000,A,5124.9780,N,01211.4886,E,89.26,199.88,050214,,,A*54
$GPGGA,193329.000,5124.8387,N,01211.4085,E,1,10,0.79,115.5,M,46.8,M,,*66
$GPRMC,193328.000,A,5124.8620,N,01211.4220,E,88.92,199.85,050214,,,A*50
$GPGGA,193334.000,5124.7213,N,01211.3409,E,1,10,0.79,117.9,M,46.8,M,,*60
$GPRMC,193333.000,A,5124.7447,N,01211.3546,E,90.09,199.75,050214,,,A*52
$GPGGA,193339.000,5124.6045,N,01211.2738,E,1,10,0.79,122.1,M,46.8,M,,*63
$GPRMC,193338.000,A,5124.6277,N,01211.2873,E,89.35,199.66,050214,,,A*52
$GPGGA,193344.000,5124.4880,N,01211.2069,E,1,10,0.79,125.2,M,46.8,M,,*6D
$GPRMC,193343.000,A,5124.5113,N,01211.2201,E,88.80,199.64,050214,,,A*5E
$GPGGA,193349.000,5124.3760,N,01211.1427,E,1,10,0.79,126.0,M,46.8,M,,*6A
$GPRMC,193348.000,A,5124.3977,N,01211.1549,E,83.70,199.70,050214,,,A*50
$GPGGA,193354.000,5124.2676,N,01211.0794,E,1,10,0.79,125.0,M,46.8,M,,*68
$GPRMC,193353.000,A,5124.2896,N,01211.0920,E,84.24,199.77,050214,,,A*56
$GPGGA,193359.000,5124.1553,N,01211.0151,E,1,10,0.79,122.8,M,46.8,M,,*62
$GPRMC,193358.000,A,5124.1781,N,01211.0282,E,87.17,199.78,050214,,,A*58
$GPGGA,193404.000,5124.0377,N,01210.9451,E,1,10,0.79,120.9,M,46.8,M,,*62
$GPRMC,193403.000,A,5124.0616,N,01210.9592,E,91.41,200.70,050214,,,A*5E
$GPGGA,193409.000,5123.9208,N,01210.8816,E,1,10,0.79,119.1,M,46.8,M,,*64
$GPRMC,193408.000,A,5123.9444,N,01210.8923,E,88.61,196.77,050214,,,A*58
$GPGGA,193414.000,5123.7999,N,01210.8435,E,1,9,1.10,117.6,M,46.8,M,,*57
$GPRMC,193413.000,A,5123.8243,N,01210.8488,E,88.60,189.24,050214,,,A*57
$GPGGA,193419.000,5123.6780,N,01210.8250,E,1,10,0.79,114.8,M,46.8,M,,*63
$GPRMC,193418.000,A,5123.7022,N,01210.8272,E,87.82,184.08,050214,,,A*55
$GPGGA,193424.000,5123.5595,N,01210.8279,E,1,10,0.79,109.1,M,46.8,M,,*66
$GPRMC,193423.000,A,5123.5833,N,01210.8256,E,85.39,177.72,050214,,,A*52
$GPGGA,193429.000,5123.4420,N,01210.8524,E,1,10,0.79,103.0,M,46.8,M,,*61
$GPRMC,193428.000,A,5123.4652,N,01210.8464,E,84.47,172.03,050214,,,A*5D
$GPGGA,193434.000,5123.3249,N,01210.8911,E,1,10,0.79,97.1,M,46.8,M,,*54
$GPRMC,193433.000,A,5123.3488,N,01210.8830,E,87.77,168.07,050214,,,A*57
$GPGGA,193439.000,5123.2033,N,01210.9297,E,1,10,0.76,91.2,M,46.8,M,,*59
$GPRMC,193438.000,A,5123.2276,N,01210.9221,E,90.01,168.93,050214,,,A*5B
$GPGGA,193444.000,5123.0826,N,01210.9688,E,1,10,0.76,88.5,M,46.8,M,,*58
$GPRMC,193443.000,A,5123.1067,N,01210.9613,E,88.59,168.94,050214,,,A*50
$GPGGA,193449.000,5122.9620,N,01211.0061,E,1,10,0.79,88.1,M,46.8,M,,*57
$GPRMC,193448.000,A,5122.9858,N,01210.9986,E,87.82,168.77,050214,,,A*51
$GPGGA,193454.000,5122.8458,N,01211.0438,E,1,10,0.79,87.7,M,46.8,M,,*56
$GPRMC,193453.000,A,5122.8685,N,01211.0362,E,84.07,168.67,050214,,,A*53
$GPGGA,193459.000,5122.7358,N,01211.0796,E,1,10,0.79,88.1,M,46.8,M,,*5D
$GPRMC,193458.000,A,5122.7580,N,01211.0723,E,81.37,168.57,050214,,,A*55
$GPGGA,193504.000,5122.6213,N,01211.1170,E,1,10,0.79,88.2,M,46.8,M,,*57
$GPRMC,193503.000,A,5122.6446,N,01211.1094,E,85.72,168.44,050214,,,A*5D
$GPGGA,193509.000,5122.5082,N,01211.1538,E,1,9,0.81,88.0,M,46.8,M,,*66
$GPRMC,193508.000,A,5122.5302,N,01211.1467,E,81.33,168.77,050214,,,A*5B
$GPGGA,193514.000,5122.3987,N,01211.1893,E,1,10,0.78,88.1,M,46.8,M,,*53
$GPRMC,193513.000,A,5122.4208,N,01211.1822,E,80.68,168.68,050214,,,A*57
$GPGGA,193519.000,5122.2885,N,01211.2248,E,1,9,0.85,88.2,M,46.8,M,,*6A
$GPRMC,193518.000,A,5122.3101,N,01211.2179,E,79.96,168.64,050214,,,A*5E
$GPGGA,193525.000,5122.1648,N,01211.2650,E,1,10,0.78,88.4,M,46.8,M,,*58
$GPRMC,193524.000,A,5122.1853,N,01211.2583,E,75.05,168.66,050214,,,A*58
$GPGGA,193530.000,5122.0569,N,01211.3021,E,1,10,0.78,88.7,M,46.8,M,,*5F
$GPRMC,193529.000,A,5122.0791,N,01211.2944,E,81.34,167.77,050214,,,A*54
$GPGGA,193535.000,5121.9470,N,01211.3373,E,1,10,0.78,89.6,M,46.8,M,,*5D
$GPRMC,193534.000,A,5121.9687,N,01211.3310,E,79.99,168.92,050214,,,A*5A
$GPGGA,193540.000,5121.8378,N,01211.3577,E,1,10,0.78,91.3,M,46.8,M,,*5F
$GPRMC,193539.000,A,5121.8598,N,01211.3551,E,78.96,175.22,050214,,,A*51
$GPGGA,193546.000,5121.7207,N,01211.3583,E,1,10,0.78,92.4,M,46.8,M,,*50
$GPRMC,193545.000,A,5121.7382,N,01211.3601,E,64.50,182.57,050214,,,A*53
$GPGGA,193553.000,5121.6026,N,01211.3363,E,1,10,0.78,94.1,M,46.8,M,,*5F
$GPRMC,193552.000,A,5121.6191,N,01211.3398,E,60.90,186.87,050214,,,A*50
$GPGGA,193600.000,5121.4880,N,01211.3140,E,1,9,0.83,96.6,M,46.8,M,,*66
$GPRMC,193559.000,A,5121.5049,N,01211.3174,E,61.79,187.09,050214,,,A*5D
$GPGGA,193607.000,5121.3762,N,01211.2902,E,1,10,0.78,101.5,M,46.8,M,,*6A
$GPRMC,193606.000,A,5121.3915,N,01211.2934,E,56.30,187.91,050214,,,A*57
$GPGGA,193615.000,5121.2617,N,01211.2690,E,1,10,0.78,106.7,M,46.8,M,,*6A
$GPRMC,193614.000,A,5121.2750,N,01211.2716,E,49.01,186.74,050214,,,A*52
$GPGGA,193624.000,5121.1531,N,01211.2461,E,1,10,0.78,108.5,M,46.8,M,,*6C
$GPRMC,193623.000,A,5121.1640,N,01211.2484,E,40.94,187.41,050214,,,A*5F
$GPGGA,193634.000,5121.0457,N,01211.2181,E,1,9,0.82,107.3,M,46.8,M,,*52
$GPRMC,193633.000,A,5121.0560,N,01211.2219,E,38.79,192.53,050214,,,A*57
$GPGGA,193647.000,5120.9396,N,01211.1743,E,1,10,0.78,105.4,M,46.8,M,,*67
$GPRMC,193646.000,A,5120.9458,N,01211.1818,E,27.10,213.92,050214,,,A*59
$GPGGA,193702.000,5120.8569,N,01211.0605,E,1,10,0.78,108.0,M,46.8,M,,*6B
$GPRMC,193701.000,A,5120.8643,N,01211.0617,E,27.02,187.26,050214,,,A*50
$GPGGA,193720.000,5120.8109,N,01210.9017,E,1,10,0.78,106.3,M,46.8,M,,*69
$GPRMC,193719.000,A,5120.8100,N,01210.9208,E,40.91,272.29,050214,,,A*56
$GPGGA,193729.000,5120.8156,N,01210.7126,E,1,10,0.78,106.5,M,46.8,M,,*61
$GPRMC,193728.000,A,5120.8150,N,01210.7336,E,46.90,272.68,050214,,,A*51
$GPGGA,193739.000,5120.8213,N,01210.5351,E,1,10,0.78,107.3,M,46.8,M,,*65
$GPRMC,193738.000,A,5120.8207,N,01210.5522,E,38.17,273.22,050214,,,A*59
$GPGGA,193751.000,5120.8259,N,01210.3628,E,1,10,0.76,108.1,M,46.8,M,,*6B
$GPRMC,193750.000,A,5120.8255,N,01210.3748,E,27.48,272.39,050214,,,A*57
$GPGGA,193807.000,5120.8330,N,01210.1808,E,1,10,0.78,109.4,M,46.8,M,,*6D
$GPRMC,193806.000,A,5120.8328,N,01210.1941,E,29.37,271.34,050214,,,A*5D
$GPGGA,193819.000,5120.8379,N,01210.0031,E,1,10,0.78,109.0,M,46.8,M,,*68
$GPRMC,193818.000,A,5120.8375,N,01210.0160,E,30.38,273.03,050214,,,A*51
$GPGGA,193831.000,5120.7988,N,01209.8294,E,1,10,0.76,100.8,M,46.8,M,,*6B
$GPRMC,193830.000,A,5120.8040,N,01209.8472,E,42.80,245.30,050214,,,A*5B
$GPGGA,193840.000,5120.7485,N,01209.6541,E,1,10,0.78,100.0,M,46.9,M,,*6B
$GPRMC,193839.000,A,5120.7543,N,01209.6733,E,48.25,245.44,050214,,,A*55
$GPGGA,193849.000,5120.7053,N,01209.4955,E,1,10,0.78,103.7,M,46.9,M,,*62
$GPRMC,193848.000,A,5120.7081,N,01209.5118,E,38.55,251.95,050214,,,A*5D
$GPGGA,193901.000,5120.7452,N,01209.3230,E,1,10,0.78,108.0,M,46.9,M,,*69
$GPRMC,193900.000,A,5120.7376,N,01209.3339,E,37.23,312.67,050214,,,A*59
$GPGGA,193913.000,5120.8290,N,01209.1934,E,1,10,0.78,106.9,M,46.9,M,,*67
$GPRMC,193912.000,A,5120.8236,N,01209.2068,E,35.59,303.67,050214,,,A*59
$GPGGA,193922.000,5120.8752,N,01209.0344,E,1,10,0.78,107.5,M,46.9,M,,*6F
$GPRMC,193921.000,A,5120.8705,N,01209.0546,E,48.09,291.13,050214,,,A*51
$GPGGA,193930.000,5120.9054,N,01208.8634,E,1,10,0.78,107.7,M,46.9,M,,*65
$GPRMC,193929.000,A,5120.9018,N,01208.8846,E,49.75,284.69,050214,,,A*54
$GPGGA,193939.000,5120.9436,N,01208.6884,E,1,10,0.77,105.8,M,46.9,M,,*65
$GPRMC,193938.000,A,5120.9376,N,01208.7055,E,44.45,295.64,050214,,,A*59
$GPGGA,193948.000,5121.0183,N,01208.5422,E,1,10,0.77,101.6,M,46.9,M,,*69
$GPRMC,193947.000,A,5121.0104,N,01208.5578,E,46.79,308.58,050214,,,A*51
$GPGGA,193958.000,5121.0698,N,01208.3721,E,1,10,0.77,96.9,M,46.9,M,,*53
$GPRMC,193957.000,A,5121.0647,N,01208.3899,E,44.14,293.58,050214,,,A*5E
$GPGGA,194008.000,5121.1289,N,01208.2087,E,1,10,0.77,93.8,M,46.9,M,,*53
$GPRMC,194007.000,A,5121.1231,N,01208.2247,E,41.99,300.14,050214,,,A*5A
$GPGGA,194019.000,5121.2013,N,01208.0611,E,1,10,0.77,93.1,M,46.9,M,,*53
$GPRMC,194018.000,A,5121.1939,N,01208.0737,E,39.30,313.74,050214,,,A*5F
$GPGGA,194029.000,5121.2785,N,01207.9284,E,1,10,0.77,86.8,M,46.9,M,,*5B
$GPRMC,194028.000,A,5121.2713,N,01207.9425,E,41.64,310.37,050214,,,A*55
$GPGGA,194038.000,5121.3486,N,01207.7845,E,1,11,0.73,85.9,M,46.9,M,,*54
$GPRMC,194037.000,A,5121.3402,N,01207.8017,E,47.96,307.56,050214,,,A*57
$GPGGA,194046.000,5121.4157,N,01207.6478,E,1,10,0.77,84.7,M,46.9,M,,*5A
$GPRMC,194045.000,A,5121.4085,N,01207.6620,E,43.24,308.31,050214,,,A*51
$GPGGA,194101.000,5121.4422,N,01207.4782,E,1,10,0.76,84.6,M,46.9,M,,*5B
$GPRMC,194100.000,A,5121.4433,N,01207.4920,E,30.97,264.32,050214,,,A*51
$GPGGA,194113.000,5121.4321,N,01207.3028,E,1,9,0.82,85.2,M,46.9,M,,*6A
$GPRMC,194112.000,A,5121.4327,N,01207.3172,E,33.76,266.72,050214,,,A*52
$GPGGA,194127.000,5121.4157,N,01207.1321,E,1,10,0.93,86.7,M,46.9,M,,*58
$GPRMC,194126.000,A,5121.4176,N,01207.1434,E,26.43,254.31,050214,,,A*52
$GPGGA,194141.000,5121.4072,N,01206.9574,E,1,11,0.73,88.9,M,46.9,M,,*5E
$GPRMC,194140.000,A,5121.4072,N,01206.9708,E,29.67,269.40,050214,,,A*53
$GPGGA,194153.000,5121.3968,N,01206.7715,E,1,9,0.82,89.0,M,46.9,M,,*6C
$GPRMC,194152.000,A,5121.3988,N,01206.7872,E,36.45,257.53,050214,,,A*56
$GPGGA,194204.000,5121.3844,N,01206.5894,E,1,11,0.72,88.9,M,46.9,M,,*58
$GPRMC,194203.000,A,5121.3847,N,01206.6068,E,38.30,267.87,050214,,,A*57
$GPGGA,194213.000,5121.3942,N,01206.4003,E,1,11,0.73,87.6,M,46.9,M,,*5F
$GPRMC,194212.000,A,5121.3926,N,01206.4238,E,52.90,275.79,050214,,,A*50
$GPGGA,194221.000,5121.4026,N,01206.2172,E,1,11,0.72,87.9,M,46.9,M,,*5D
$GPRMC,194220.000,A,5121.4024,N,01206.2406,E,51.95,271.27,050214,,,A*59
$GPGGA,194229.000,5121.4050,N,01206.0378,E,1,11,0.73,87.9,M,46.9,M,,*5F
$GPRMC,194228.000,A,5121.4035,N,01206.0590,E,48.57,274.81,050214,,,A*52
$GPGGA,194238.000,5121.4109,N,01205.8477,E,1,11,0.73,87.8,M,46.9,M,,*50
$GPRMC,194237.000,A,5121.4100,N,01205.8692,E,48.56,273.38,050214,,,A*55
$GPGGA,194247.000,5121.4165,N,01205.6637,E,1,11,0.73,88.3,M,46.9,M,,*5E
$GPRMC,194246.000,A,5121.4160,N,01205.6828,E,44.53,272.28,050214,,,A*5D
$GPGGA,194257.000,5121.4384,N,01205.4818,E,1,11,0.72,88.3,M,46.9,M,,*52
$GPRMC,194256.000,A,5121.4347,N,01205.5001,E,44.08,287.13,050214,,,A*57
$GPGGA,194307.000,5121.4711,N,01205.3092,E,1,11,0.72,91.5,M,46.9,M,,*5D
$GPRMC,194306.000,A,5121.4695,N,01205.3263,E,39.04,280.61,050214,,,A*5D
$GPGGA,194318.000,5121.4872,N,01205.1373,E,1,11,0.73,97.3,M,46.9,M,,*56
$GPRMC,194317.000,A,5121.4849,N,01205.1517,E,33.89,282.50,050214,,,A*5B
$GPGGA,194330.000,5121.5171,N,01204.9567,E,1,9,0.81,95.1,M,46.9,M,,*69
$GPRMC,194329.000,A,5121.5153,N,01204.9722,E,35.78,281.34,050214,,,A*51
$GPGGA,194341.000,5121.5282,N,01204.7788,E,1,11,0.72,91.3,M,46.9,M,,*5E
$GPRMC,194340.000,A,5121.5278,N,01204.7955,E,37.27,271.46,050214,,,A*56
$GPGGA,194354.000,5121.5526,N,01204.6016,E,1,10,0.78,85.6,M,46.9,M,,*59
$GPRMC,194353.000,A,5121.5514,N,01204.6132,E,26.76,280.33,050214,,,A*59
$GPGGA,194407.000,5121.5663,N,01204.4261,E,1,10,0.78,87.2,M,46.9,M,,*5C
$GPRMC,194406.000,A,5121.5653,N,01204.4394,E,30.82,278.07,050214,,,A*5E
$GPGGA,194420.000,5121.5569,N,01204.2535,E,1,11,0.73,87.7,M,46.9,M,,*5F
$GPRMC,194419.000,A,5121.5566,N,01204.2679,E,31.50,271.28,050214,,,A*5F
$GPGGA,194432.000,5121.5687,N,01204.0714,E,1,9,0.95,86.4,M,46.9,M,,*6F
$GPRMC,194431.000,A,5121.5662,N,01204.0876,E,37.04,281.80,050214,,,A*5B
$GPGGA,194442.000,5121.6077,N,01203.9080,E,1,11,0.72,86.3,M,46.9,M,,*51
$GPRMC,194441.000,A,5121.6054,N,01203.9250,E,39.15,284.78,050214,,,A*50
$GPGGA,194452.000,5121.5881,N,01203.7235,E,1,11,0.73,86.7,M,46.9,M,,*55
$GPRMC,194451.000,A,5121.5916,N,01203.7417,E,42.77,254.01,050214,,,A*5D
$GPGGA,194501.000,5121.5556,N,01203.5494,E,1,10,0.78,85.2,M,46.9,M,,*56
$GPRMC,194500.000,A,5121.5589,N,01203.5709,E,50.05,255.50,050214,,,A*5F
$GPGGA,194509.000,5121.5305,N,01203.3788,E,1,10,0.78,84.3,M,46.9,M,,*56
$GPRMC,194508.000,A,5121.5331,N,01203.3977,E,45.90,257.34,050214,,,A*5B
$GPGGA,194520.000,5121.5391,N,01203.2026,E,1,11,0.72,83.9,M,46.9,M,,*54
$GPRMC,194519.000,A,5121.5367,N,01203.2188,E,38.16,283.20,050214,,,A*59
$GPGGA,194530.000,5121.5487,N,01203.0172,E,1,11,0.73,84.1,M,46.9,M,,*59
$GPRMC,194529.000,A,5121.5481,N,01203.0379,E,46.32,273.38,050214,,,A*52
$GPGGA,194539.000,5121.5546,N,01202.8344,E,1,9,0.88,83.1,M,46.9,M,,*68
$GPRMC,194538.000,A,5121.5538,N,01202.8539,E,44.45,273.43,050214,,,A*54
$GPGGA,194549.000,5121.5506,N,01202.6432,E,1,10,0.80,84.5,M,46.9,M,,*50
$GPRMC,194548.000,A,5121.5527,N,01202.6628,E,44.34,261.94,050214,,,A*5F
$GPGGA,194557.000,5121.5231,N,01202.4706,E,1,10,0.75,82.3,M,46.9,M,,*50
$GPRMC,194556.000,A,5121.5274,N,01202.4922,E,51.24,252.49,050214,,,A*53
$GPGGA,194606.000,5121.4843,N,01202.2898,E,1,11,0.72,82.8,M,46.9,M,,*5A
$GPRMC,194605.000,A,5121.4882,N,01202.3081,E,43.71,251.21,050214,,,A*5D
$GPGGA,194616.000,5121.4510,N,01202.1226,E,1,11,0.73,82.8,M,46.9,M,,*5D
$GPRMC,194615.000,A,5121.4532,N,01202.1370,E,33.88,254.62,050214,,,A*56
$GPGGA,194629.000,5121.4474,N,01201.9428,E,1,11,0.72,83.1,M,46.9,M,,*58
$GPRMC,194628.000,A,5121.4463,N,01201.9571,E,32.53,273.93,050214,,,A*5D
$GPGGA,194639.000,5121.4750,N,01201.7725,E,1,11,0.73,82.0,M,46.9,M,,*5D
$GPRMC,194638.000,A,5121.4719,N,01201.7903,E,41.62,285.43,050214,,,A*57
$GPGGA,194650.000,5121.5054,N,01201.5929,E,1,11,0.73,81.1,M,46.9,M,,*52
$GPRMC,194649.000,A,5121.5028,N,01201.6083,E,35.98,285.38,050214,,,A*5F
$GPGGA,194701.000,5121.5365,N,01201.4184,E,1,8,0.90,84.0,M,46.9,M,,*69
$GPRMC,194700.000,A,5121.5320,N,01201.4343,E,38.45,292.62,050214,,,A*51
$GPGGA,194712.000,5121.5880,N,01201.2644,E,1,9,1.00,86.2,M,46.9,M,,*6F
$GPRMC,194711.000,A,5121.5856,N,01201.2782,E,33.70,286.24,050214,,,A*5E
$GPGGA,194725.000,5121.5744,N,01201.0842,E,1,9,0.82,83.7,M,46.9,M,,*6D
$GPRMC,194724.000,A,5121.5769,N,01201.0971,E,30.81,252.83,050214,,,A*52
$GPGGA,194738.000,5121.5378,N,01200.9213,E,1,9,0.95,83.3,M,46.9,M,,*6E
$GPRMC,194737.000,A,5121.5409,N,01200.9334,E,30.00,250.22,050214,,,A*56
$GPGGA,194753.000,5121.4808,N,01200.7739,E,1,10,0.79,87.6,M,46.9,M,,*56
$GPRMC,194752.000,A,5121.4858,N,01200.7820,E,26.49,223.61,050214,,,A*55
$GPGGA,194808.000,5121.4421,N,01200.6124,E,1,10,0.78,87.1,M,46.9,M,,*5D
$GPRMC,194807.000,A,5121.4437,N,01200.6204,E,20.34,252.02,050214,,,A*5D
ping
$GPGGA,194843.000,5121.4336,N,01200.4355,E,1,8,1.07,86.2,M,46.9,M,,*67
$GPRMC,194842.000,A,5121.4337,N,01200.4429,E,15.94,263.91,050214,,,A*54
$GPGGA,194913.000,5121.4401,N,01200.2630,E,1,9,0.83,92.1,M,46.9,M,,*6A
$GPRMC,194912.000,A,5121.4393,N,01200.2674,E,7.76,280.44,050214,,,A*68
ping
$GPGGA,194946.000,5121.4027,N,01200.0989,E,1,6,1.31,87.0,M,47.0,M,,*6F
$GPRMC,194945.000,A,5121.4065,N,01200.1026,E,16.87,206.06,050214,,,A*54
ping
$GPGGA,195030.000,5121.4405,N,01159.9300,E,1,9,0.94,94.1,M,47.0,M,,*6D
$GPRMC,195029.000,A,5121.4408,N,01159.9384,E,14.60,255.50,050214,,,A*5B
ping
ping
ping
$GPGGA,195215.000,5121.5464,N,01159.8981,E,1,9,0.94,95.8,M,47.0,M,,*64
$GPRMC,195214.000,A,5121.5452,N,01159.8938,E,10.78,62.50,050214,,,A*6E
ping
$GPGGA,195301.000,5121.6561,N,01159.8777,E,1,7,1.19,91.6,M,47.0,M,,*60
$GPRMC,195300.000,A,5121.6529,N,01159.8767,E,10.35,5.62,050214,,,A*59
$GPGGA,195328.000,5121.7617,N,01159.9179,E,1,8,1.21,95.3,M,46.9,M,,*6C
$GPRMC,195327.000,A,5121.7567,N,01159.9180,E,19.35,354.11,050214,,,A*53
ping
ping
$GPGGA,195455.000,5121.6560,N,01159.8744,E,1,9,1.07,101.0,M,47.0,M,,*58
$GPRMC,195454.000,A,5121.6576,N,01159.8751,E,4.57,188.18,050214,,,A*68
ping
ping
ping
ping
$DeviceName=pironex_auto
$Software=0.1.3
$Hardware=1
$LastValidPosition=
$IMEI=359193030849087
$LocalIP=10.34.192.27
$CmdVersion=2
$SUCCESS
$<end>
ping
ping
ping
$GPGGA,200036.000,,,,,0,1,,,M,,M,,*4E
$GPRMC,200035.000,V,,,,,2.57,70.63,050214,,,E*72
ping
$GPGGA,200114.000,5121.5898,N,01159.9139,E,1,7,1.25,98.7,M,47.0,M,,*6B
$GPRMC,200113.000,V,,,,,1.12,207.26,050214,,,N*4D
ping
$<MSG.Info.ServerLogin>
$DeviceName=pironex_auto
$Software=0.1.3
$Hardware=1
$LastValidPosition=
$IMEI=359193030849087
$LocalIP=10.65.34.163
$CmdVersion=2
$SUCCESS
$<end>
$DeviceName=pironex_auto
$Software=0.1.3
$Hardware=1
$LastValidPosition=
$IMEI=359193030849087
$LocalIP=10.44.194.146
$CmdVersion=2
$SUCCESS
$<end>
ping
ping
$GPGGA,075403.000,5121.6093,N,01159.9266,E,1,9,0.91,102.0,M,47.0,M,,*54
$GPRMC,075402.000,V,,,,,0.20,74.21,060214,,,N*7A
ping
ping
$GPGGA,075514.000,5121.5227,N,01159.8239,E,1,10,0.83,86.0,M,47.0,M,,*50
$GPRMC,075513.000,A,5121.5240,N,01159.8275,E,9.77,239.92,060214,,,A*60
ping
$GPGGA,075603.000,5121.4359,N,01159.7215,E,1,8,1.04,95.3,M,47.0,M,,*6B
$GPRMC,075602.000,A,5121.4390,N,01159.7228,E,14.39,198.18,060214,,,A*55
ping
ping
ping
$GPGGA,075748.000,5121.3971,N,01159.5603,E,1,10,0.87,124.5,M,47.0,M,,*6D
$GPRMC,075747.000,A,5121.3980,N,01159.5632,E,7.08,261.45,060214,,,A*69
$GPGGA,075812.000,5121.2883,N,01159.5703,E,1,9,0.99,115.6,M,47.0,M,,*57
$GPRMC,075811.000,A,5121.2924,N,01159.5701,E,15.51,171.87,060214,,,A*58
ping
$GPGGA,075843.000,5121.2176,N,01159.4388,E,1,9,0.93,105.2,M,47.0,M,,*59
$GPRMC,075842.000,A,5121.2196,N,01159.4458,E,18.01,243.71,060214,,,A*52
$GPGGA,075913.000,5121.1407,N,01159.3107,E,1,9,0.97,98.5,M,47.0,M,,*69
$GPRMC,075912.000,A,5121.1447,N,01159.3160,E,15.81,212.38,060214,,,A*59
$GPGGA,075933.000,5121.0571,N,01159.2001,E,1,9,1.00,91.6,M,47.0,M,,*69
$GPRMC,075932.000,A,5121.0598,N,01159.2038,E,13.16,224.65,060214,,,A*51
$GPGGA,075952.000,5120.9694,N,01159.0828,E,1,9,1.00,87.3,M,47.0,M,,*6D
$GPRMC,075951.000,A,5120.9739,N,01159.0929,E,27.48,233.97,060214,,,A*59
ping
ping
ping
$GPGGA,080130.000,5120.9036,N,01158.9336,E,1,9,0.96,88.9,M,47.0,M,,*62
$GPRMC,080129.000,A,5120.9074,N,01158.9432,E,25.17,235.96,060214,,,A*5A
$GPGGA,080143.000,5120.8464,N,01158.7747,E,1,9,0.96,91.5,M,47.0,M,,*6C
$GPRMC,080142.000,A,5120.8506,N,01158.7866,E,31.62,240.52,060214,,,A*58
$GPGGA,080157.000,5120.7922,N,01158.6197,E,1,9,0.96,92.8,M,47.0,M,,*6D
$GPRMC,080156.000,A,5120.7965,N,01158.6320,E,31.90,241.38,060214,,,A*53
$GPGGA,080211.000,5120.7368,N,01158.4658,E,1,9,0.96,95.6,M,47.0,M,,*67
$GPRMC,080210.000,A,5120.7409,N,01158.4770,E,28.92,240.05,060214,,,A*53
$GPGGA,080225.000,5120.6842,N,01158.3100,E,1,9,0.97,99.9,M,47.0,M,,*6D
$GPRMC,080224.000,A,5120.6875,N,01158.3214,E,27.64,242.04,060214,,,A*57
$GPGGA,080250.000,5120.6594,N,01158.1418,E,1,9,0.99,98.6,M,47.0,M,,*67
$GPRMC,080249.000,A,5120.6556,N,01158.1448,E,15.31,330.60,060214,,,A*5A
ping
$DeviceName=pironex_auto
$Software=0.1.3
$Hardware=1
$LastValidPosition=
$IMEI=359193030849087
$LocalIP=10.161.96.64
$CmdVersion=2
$SUCCESS
$<end>
$DeviceName=pironex_auto
$Software=0.1.3
$Hardware=1
$LastValidPosition=
$IMEI=359193030849087
$LocalIP=10.167.78.200
$CmdVersion=2
$SUCCESS
$<end>
ping
ping
$GPGGA,104803.000,5120.6660,N,01158.2644,E,1,8,1.16,125.7,M,47.0,M,,*57
$GPRMC,104802.000,A,5120.6623,N,01158.2545,E,25.42,59.96,060214,,,A*6E
$GPGGA,104819.000,5120.7204,N,01158.4167,E,1,8,1.16,124.0,M,47.0,M,,*5D
$GPRMC,104818.000,A,5120.7169,N,01158.4074,E,24.15,59.85,060214,,,A*6D
$GPGGA,104835.000,5120.7768,N,01158.5742,E,1,8,1.16,121.3,M,47.0,M,,*5A
$GPRMC,104834.000,A,5120.7726,N,01158.5631,E,28.75,61.71,060214,,,A*62
$GPGGA,104847.000,5120.8270,N,01158.7296,E,1,8,1.16,116.6,M,47.0,M,,*53
$GPRMC,104846.000,A,5120.8227,N,01158.7174,E,31.12,61.29,060214,,,A*6C
$GPGGA,104900.000,5120.8802,N,01158.8847,E,1,7,1.27,111.5,M,47.0,M,,*5E
$GPRMC,104859.000,A,5120.8767,N,01158.8734,E,28.69,63.49,060214,,,A*6E
ping
ping
$GPGGA,105010.000,5120.8425,N,01159.0521,E,1,9,0.93,103.0,M,47.0,M,,*5C
$GPRMC,105009.000,A,5120.8481,N,01159.0459,E,23.40,145.34,060214,,,A*57
ping
ping
$GPGGA,105120.000,5120.8479,N,01159.2272,E,1,9,0.92,104.0,M,47.0,M,,*52
$GPRMC,105119.000,A,5120.8404,N,01159.2207,E,30.32,29.14,060214,,,A*6B
$GPGGA,105134.000,5120.9416,N,01159.3296,E,1,9,0.92,97.7,M,47.0,M,,*68
$GPRMC,105133.000,A,5120.9361,N,01159.3193,E,30.05,46.76,060214,,,A*60
$GPGGA,105146.000,5121.0006,N,01159.4865,E,1,8,1.00,95.9,M,47.0,M,,*66
$GPRMC,105145.000,A,5120.9956,N,01159.4748,E,32.12,57.16,060214,,,A*6A
$GPGGA,105200.000,5121.0590,N,01159.6342,E,1,9,0.92,93.4,M,47.0,M,,*61
$GPRMC,105159.000,A,5121.0568,N,01159.6270,E,20.09,62.54,060214,,,A*6B
$GPGGA,105226.000,5121.0796,N,01159.8125,E,1,9,0.92,93.0,M,47.0,M,,*68
$GPRMC,105225.000,A,5121.0795,N,01159.7987,E,30.17,88.61,060214,,,A*6D
$GPGGA,105239.000,5121.1125,N,01159.9894,E,1,9,0.92,89.9,M,47.0,M,,*69
$GPRMC,105238.000,A,5121.1073,N,01159.9773,E,32.97,57.48,060214,,,A*67
$GPGGA,105252.000,5121.1960,N,01200.1063,E,1,9,0.92,85.8,M,47.0,M,,*67
$GPRMC,105251.000,A,5121.1904,N,01200.0991,E,26.16,39.89,060214,,,A*6C
$GPGGA,105306.000,5121.2763,N,01200.2299,E,1,9,0.92,88.4,M,47.0,M,,*6C
$GPRMC,105305.000,A,5121.2705,N,01200.2201,E,30.19,46.45,060214,,,A*60
$GPGGA,105319.000,5121.3351,N,01200.3768,E,1,9,0.92,83.1,M,46.9,M,,*6A
$GPRMC,105318.000,A,5121.3323,N,01200.3647,E,29.48,68.84,060214,,,A*67
$GPGGA,105338.000,5121.3700,N,01200.5437,E,1,9,0.92,84.0,M,46.9,M,,*60
$GPRMC,105337.000,A,5121.3686,N,01200.5374,E,15.99,71.14,060214,,,A*61
$GPGGA,105407.000,5121.4513,N,01200.6608,E,1,9,0.92,88.4,M,46.9,M,,*69
$GPRMC,105406.000,A,5121.4496,N,01200.6529,E,17.97,72.86,060214,,,A*69
$GPGGA,105425.000,5121.5059,N,01200.8203,E,1,9,0.92,85.6,M,46.9,M,,*6D
$GPRMC,105424.000,A,5121.5012,N,01200.8133,E,23.65,41.51,060214,,,A*61
$GPGGA,105444.000,5121.5500,N,01200.9816,E,1,9,0.92,86.8,M,46.9,M,,*61
$GPRMC,105443.000,A,5121.5484,N,01200.9742,E,18.87,70.59,060214,,,A*64
ping
$GPGGA,105525.000,5121.5832,N,01201.1497,E,1,9,0.92,87.6,M,46.9,M,,*68
$GPRMC,105524.000,A,5121.5816,N,01201.1415,E,17.72,71.68,060214,,,A*6D
$GPGGA,105539.000,5121.5761,N,01201.3297,E,1,9,0.92,89.5,M,46.9,M,,*65
$GPRMC,105538.000,A,5121.5799,N,01201.3153,E,35.06,110.44,060214,,,A*56
$GPGGA,105549.000,5121.5228,N,01201.4793,E,1,9,0.92,88.1,M,46.9,M,,*69
$GPRMC,105548.000,A,5121.5267,N,01201.4618,E,41.20,110.69,060214,,,A*52
$GPGGA,105558.000,5121.4943,N,01201.6525,E,1,9,0.92,87.8,M,46.9,M,,*65
$GPRMC,105557.000,A,5121.4974,N,01201.6321,E,46.89,103.88,060214,,,A*50
$GPGGA,105607.000,5121.4669,N,01201.8229,E,1,9,0.92,88.7,M,46.9,M,,*6E
$GPRMC,105606.000,A,5121.4695,N,01201.8072,E,37.32,104.99,060214,,,A*5D
$GPGGA,105632.000,5121.4446,N,01201.9981,E,1,9,0.92,89.1,M,46.9,M,,*68
$GPRMC,105631.000,A,5121.4450,N,01201.9873,E,23.46,94.35,060214,,,A*62
$GPGGA,105644.000,5121.4591,N,01202.1816,E,1,9,0.92,87.9,M,46.9,M,,*60
$GPRMC,105643.000,A,5121.4559,N,01202.1640,E,40.42,74.69,060214,,,A*6C
$GPGGA,105654.000,5121.4960,N,01202.3562,E,1,9,0.91,88.3,M,46.9,M,,*69
$GPRMC,105653.000,A,5121.4923,N,01202.3386,E,40.95,71.43,060214,,,A*66
$GPGGA,105703.000,5121.5325,N,01202.5308,E,1,9,0.92,88.1,M,46.9,M,,*6D
$GPRMC,105702.000,A,5121.5285,N,01202.5110,E,47.16,72.47,060214,,,A*65
$GPGGA,105712.000,5121.5547,N,01202.7027,E,1,9,0.92,89.3,M,46.9,M,,*60
$GPRMC,105711.000,A,5121.5532,N,01202.6841,E,41.81,81.78,060214,,,A*6A
$GPGGA,105721.000,5121.5536,N,01202.8788,E,1,9,0.91,90.0,M,46.9,M,,*63
$GPRMC,105720.000,A,5121.5543,N,01202.8588,E,44.80,92.51,060214,,,A*65
$GPGGA,105730.000,5121.5481,N,01203.0526,E,1,9,0.91,91.2,M,46.9,M,,*62
$GPRMC,105729.000,A,5121.5486,N,01203.0342,E,41.78,92.27,060214,,,A*6E
$GPGGA,105741.000,5121.5362,N,01203.2373,E,1,9,0.91,92.0,M,46.9,M,,*6B
$GPRMC,105740.000,A,5121.5385,N,01203.2224,E,35.12,102.87,060214,,,A*5B
$GPGGA,105752.000,5121.5331,N,01203.4114,E,1,9,0.91,91.7,M,46.9,M,,*6E
$GPRMC,105751.000,A,5121.5307,N,01203.3938,E,40.08,78.22,060214,,,A*6C
$GPGGA,105802.000,5121.5592,N,01203.5839,E,1,9,0.91,91.5,M,46.9,M,,*6E
$GPRMC,105801.000,A,5121.5570,N,01203.5683,E,36.43,77.38,060214,,,A*63
$GPGGA,105813.000,5121.5909,N,01203.7557,E,1,9,0.91,91.7,M,46.9,M,,*65
$GPRMC,105812.000,A,5121.5873,N,01203.7393,E,38.96,70.74,060214,,,A*60
$GPGGA,105824.000,5121.6055,N,01203.9378,E,1,9,0.91,90.4,M,46.9,M,,*65
$GPRMC,105823.000,A,5121.6074,N,01203.9225,E,35.70,98.28,060214,,,A*66
$GPGGA,105836.000,5121.5644,N,01204.1056,E,1,9,0.91,91.1,M,46.9,M,,*67
$GPRMC,105835.000,A,5121.5662,N,01204.0933,E,29.16,104.21,060214,,,A*51
$GPGGA,105852.000,5121.5558,N,01204.2805,E,1,9,0.91,93.0,M,46.9,M,,*65
$GPRMC,105851.000,A,5121.5562,N,01204.2691,E,25.96,92.94,060214,,,A*61
$GPGGA,105910.000,5121.5630,N,01204.4618,E,1,9,0.91,93.0,M,46.9,M,,*6B
$GPRMC,105909.000,A,5121.5637,N,01204.4519,E,22.56,95.44,060214,,,A*6A
$GPGGA,105925.000,5121.5473,N,01204.6411,E,1,9,0.91,93.5,M,46.9,M,,*64
$GPRMC,105924.000,A,5121.5492,N,01204.6290,E,28.03,101.02,060214,,,A*58
$GPGGA,105940.000,5121.5270,N,01204.8232,E,1,9,0.91,98.0,M,46.9,M,,*65
$GPRMC,105939.000,A,5121.5272,N,01204.8102,E,29.16,91.91,060214,,,A*6D
$GPGGA,105954.000,5121.5115,N,01205.0047,E,1,9,0.91,101.7,M,46.9,M,,*5F
$GPRMC,105953.000,A,5121.5134,N,01204.9914,E,29.94,101.65,060214,,,A*57
$GPGGA,110007.000,5121.4814,N,01205.1843,E,1,9,0.91,101.5,M,46.9,M,,*52
$GPRMC,110006.000,A,5121.4833,N,01205.1698,E,33.48,103.07,060214,,,A*5B
$GPGGA,110019.000,5121.4638,N,01205.3710,E,1,9,0.91,95.8,M,46.9,M,,*67
$GPRMC,110018.000,A,5121.4666,N,01205.3535,E,39.55,102.62,060214,,,A*58
$GPGGA,110028.000,5121.4276,N,01205.5452,E,1,9,0.91,92.7,M,46.9,M,,*60
$GPRMC,110027.000,A,5121.4313,N,01205.5245,E,48.18,106.47,060214,,,A*59
$GPGGA,110036.000,5121.4138,N,01205.7172,E,1,9,0.91,92.2,M,46.9,M,,*66
$GPRMC,110035.000,A,5121.4143,N,01205.6952,E,49.43,92.53,060214,,,A*65
$GPGGA,110044.000,5121.4096,N,01205.8916,E,1,9,0.91,91.5,M,46.9,M,,*67
$GPRMC,110043.000,A,5121.4104,N,01205.8698,E,49.21,93.78,060214,,,A*6C
$GPGGA,110052.000,5121.4040,N,01206.0681,E,1,9,0.91,91.4,M,46.9,M,,*60
$GPRMC,110051.000,A,5121.4055,N,01206.0465,E,49.62,96.98,060214,,,A*6D
$GPGGA,110101.000,5121.4023,N,01206.2574,E,1,9,0.91,91.9,M,46.9,M,,*64
$GPRMC,110100.000,A,5121.4022,N,01206.2367,E,46.14,90.27,060214,,,A*63
$GPGGA,110110.000,5121.3933,N,01206.4291,E,1,9,0.91,91.7,M,46.9,M,,*6F
$GPRMC,110109.000,A,5121.3946,N,01206.4112,E,41.52,96.30,060214,,,A*65
$GPGGA,110121.000,5121.3848,N,01206.6084,E,1,10,0.84,91.4,M,46.9,M,,*5B
$GPRMC,110120.000,A,5121.3849,N,01206.5932,E,34.34,90.53,060214,,,A*6A
$GPGGA,110135.000,5121.3973,N,01206.7857,E,1,10,0.82,92.1,M,46.9,M,,*50
$GPRMC,110134.000,A,5121.3960,N,01206.7747,E,25.35,80.02,060214,,,A*6F
$GPGGA,110152.000,5121.4088,N,01206.9656,E,1,9,0.91,91.6,M,46.9,M,,*64
$GPRMC,110151.000,A,5121.4088,N,01206.9559,E,22.07,91.62,060214,,,A*67
$GPGGA,110208.000,5121.4171,N,01207.1497,E,1,9,0.91,90.6,M,46.9,M,,*68
$GPRMC,110207.000,A,5121.4153,N,01207.1373,E,29.05,77.46,060214,,,A*60
$GPGGA,110223.000,5121.4323,N,01207.3330,E,1,10,0.82,90.9,M,46.9,M,,*59
$GPRMC,110222.000,A,5121.4323,N,01207.3197,E,30.43,86.92,060214,,,A*65
$GPGGA,110235.000,5121.4421,N,01207.5083,E,1,10,0.82,91.3,M,46.9,M,,*5D
$GPRMC,110234.000,A,5121.4406,N,01207.4909,E,39.10,82.57,060214,,,A*68
$GPGGA,110247.000,5121.4044,N,01207.6783,E,1,10,0.83,90.2,M,46.9,M,,*5A
$GPRMC,110246.000,A,5121.4114,N,01207.6642,E,40.25,128.12,060214,,,A*51
$GPGGA,110258.000,5121.3351,N,01207.8187,E,1,10,0.83,89.5,M,46.9,M,,*57
$GPRMC,110257.000,A,5121.3408,N,01207.8070,E,32.99,127.56,060214,,,A*5A
$GPGGA,110309.000,5121.2612,N,01207.9623,E,1,10,0.83,90.6,M,46.9,M,,*52
$GPRMC,110308.000,A,5121.2681,N,01207.9490,E,39.23,128.81,060214,,,A*57
$GPGGA,110320.000,5121.1826,N,01208.0966,E,1,10,0.83,94.1,M,46.9,M,,*58
$GPRMC,110319.000,A,5121.1899,N,01208.0844,E,38.41,133.45,060214,,,A*57
$GPGGA,110331.000,5121.1145,N,01208.2487,E,1,10,0.83,94.3,M,46.9,M,,*56
$GPRMC,110330.000,A,5121.1200,N,01208.2331,E,40.43,119.91,060214,,,A*51
$GPGGA,110342.000,5121.0588,N,01208.4089,E,1,10,0.82,95.8,M,46.9,M,,*51
$GPRMC,110341.000,A,5121.0631,N,01208.3933,E,37.89,116.32,060214,,,A*59
$GPGGA,110352.000,5121.0092,N,01208.5666,E,1,10,0.83,98.7,M,46.9,M,,*5B
$GPRMC,110351.000,A,5121.0166,N,01208.5519,E,41.97,127.76,060214,,,A*53
$GPGGA,110402.000,5120.9378,N,01208.7081,E,1,10,0.83,102.8,M,46.9,M,,*66
$GPRMC,110401.000,A,5120.9438,N,01208.6942,E,38.83,126.50,060214,,,A*58
$GPGGA,110412.000,5120.9020,N,01208.8819,E,1,10,0.83,103.7,M,46.9,M,,*61
$GPRMC,110411.000,A,5120.9050,N,01208.8626,E,44.75,104.47,060214,,,A*54
$GPGGA,110422.000,5120.8694,N,01209.0656,E,1,10,0.83,104.8,M,46.9,M,,*6E
$GPRMC,110421.000,A,5120.8735,N,01209.0476,E,42.61,109.89,060214,,,A*50
$GPGGA,110432.000,5120.8192,N,01209.2238,E,1,10,0.83,105.1,M,46.9,M,,*68
$GPRMC,110431.000,A,5120.8251,N,01209.2098,E,38.30,122.51,060214,,,A*55
$GPGGA,110443.000,5120.7365,N,01209.3483,E,1,10,0.83,103.7,M,46.9,M,,*6C
$GPRMC,110442.000,A,5120.7438,N,01209.3378,E,35.91,138.52,060214,,,A*55
$GPGGA,110454.000,5120.7042,N,01209.5133,E,1,10,0.83,100.4,M,46.9,M,,*64
$GPRMC,110453.000,A,5120.7024,N,01209.4962,E,38.99,83.66,060214,,,A*69
$GPGGA,110504.000,5120.7481,N,01209.6712,E,1,10,0.83,94.5,M,46.9,M,,*50
$GPRMC,110503.000,A,5120.7437,N,01209.6563,E,36.91,65.41,060214,,,A*6F
$GPGGA,110515.000,5120.7936,N,01209.8277,E,1,10,0.83,93.3,M,46.8,M,,*59
$GPRMC,110514.000,A,5120.7901,N,01209.8153,E,31.18,65.59,060214,,,A*67
$GPGGA,110528.000,5120.8375,N,01209.9865,E,1,10,0.82,99.2,M,46.8,M,,*57
$GPRMC,110527.000,A,5120.8356,N,01209.9746,E,28.36,72.09,060214,,,A*64
$GPGGA,110543.000,5120.8334,N,01210.1707,E,1,10,0.83,104.3,M,46.8,M,,*61
$GPRMC,110542.000,A,5120.8338,N,01210.1579,E,29.08,92.71,060214,,,A*6C
$GPGGA,110558.000,5120.8274,N,01210.3543,E,1,10,0.82,106.0,M,46.8,M,,*6E
$GPRMC,110557.000,A,5120.8279,N,01210.3415,E,27.76,92.71,060214,,,A*62
$GPGGA,110611.000,5120.8193,N,01210.5380,E,1,10,0.83,105.7,M,46.8,M,,*60
$GPRMC,110610.000,A,5120.8200,N,01210.5228,E,34.48,93.39,060214,,,A*60
$GPGGA,110622.000,5120.8140,N,01210.7230,E,1,10,0.83,105.5,M,46.8,M,,*64
$GPRMC,110621.000,A,5120.8146,N,01210.7047,E,41.45,92.73,060214,,,A*6A
$GPGGA,110631.000,5120.8055,N,01210.8977,E,1,10,0.82,106.7,M,46.8,M,,*64
$GPRMC,110630.000,A,5120.8062,N,01210.8779,E,44.50,93.42,060214,,,A*6A
$GPGGA,110640.000,5120.8009,N,01211.0705,E,1,10,0.83,111.2,M,46.8,M,,*6B
$GPRMC,110639.000,A,5120.8010,N,01211.0522,E,40.74,91.87,060214,,,A*6A
$GPGGA,110650.000,5120.8026,N,01211.2446,E,1,10,0.83,114.1,M,46.8,M,,*67
$GPRMC,110649.000,A,5120.8020,N,01211.2309,E,33.83,86.21,060214,,,A*65
ping
$GPGGA,110731.000,5120.9105,N,01211.2301,E,1,10,0.82,110.8,M,46.8,M,,*68
$GPRMC,110730.000,A,5120.8958,N,01211.2285,E,51.42,3.64,060214,,,A*5C
$GPGGA,110738.000,5121.0246,N,01211.2474,E,1,10,0.82,110.0,M,46.8,M,,*60
$GPRMC,110737.000,A,5121.0078,N,01211.2444,E,60.39,6.52,060214,,,A*5C
$GPGGA,110745.000,5121.1488,N,01211.2679,E,1,10,0.82,109.0,M,46.8,M,,*68
$GPRMC,110744.000,A,5121.1299,N,01211.2647,E,67.17,5.52,060214,,,A*5D
$GPGGA,110751.000,5121.2720,N,01211.2937,E,1,10,0.82,105.1,M,46.8,M,,*67
$GPRMC,110750.000,A,5121.2504,N,01211.2890,E,76.99,7.53,060214,,,A*59
$GPGGA,110756.000,5121.3787,N,01211.3152,E,1,10,0.82,99.8,M,46.8,M,,*5B
$GPRMC,110755.000,A,5121.3576,N,01211.3112,E,76.14,6.71,060214,,,A*5E
$GPGGA,110802.000,5121.5024,N,01211.3385,E,1,10,0.82,93.8,M,46.8,M,,*5F
$GPRMC,110801.000,A,5121.4822,N,01211.3346,E,73.51,6.93,060214,,,A*50
$GPGGA,110808.000,5121.6206,N,01211.3608,E,1,9,0.85,91.2,M,46.8,M,,*63
$GPRMC,110807.000,A,5121.6014,N,01211.3571,E,69.92,6.68,060214,,,A*5B
$GPGGA,110814.000,5121.7315,N,01211.3773,E,1,10,0.82,91.9,M,46.8,M,,*55
$GPRMC,110813.000,A,5121.7135,N,01211.3763,E,65.17,3.27,060214,,,A*53
$GPGGA,110820.000,5121.8407,N,01211.3693,E,1,10,0.82,91.3,M,46.8,M,,*5C
$GPRMC,110819.000,A,5121.8229,N,01211.3716,E,64.81,356.30,060214,,,A*51
$GPGGA,110826.000,5121.9518,N,01211.3480,E,1,10,0.82,91.6,M,46.8,M,,*51
$GPRMC,110825.000,A,5121.9325,N,01211.3527,E,69.51,352.15,060214,,,A*51
$GPGGA,110832.000,5122.0688,N,01211.3119,E,1,10,0.82,91.2,M,46.8,M,,*55
$GPRMC,110831.000,A,5122.0493,N,01211.3181,E,71.84,348.63,060214,,,A*57
$GPGGA,110838.000,5122.1913,N,01211.2719,E,1,10,0.82,91.7,M,46.8,M,,*51
$GPRMC,110837.000,A,5122.1703,N,01211.2788,E,76.85,348.53,060214,,,A*51
$GPGGA,110843.000,5122.3010,N,01211.2360,E,1,10,0.82,92.1,M,46.8,M,,*5A
$GPRMC,110842.000,A,5122.2784,N,01211.2434,E,82.56,348.62,060214,,,A*5C
$GPGGA,110848.000,5122.4153,N,01211.1985,E,1,10,0.82,92.1,M,46.8,M,,*52
$GPRMC,110847.000,A,5122.3922,N,01211.2058,E,84.80,348.55,060214,,,A*5D
$GPGGA,110853.000,5122.5331,N,01211.1613,E,1,10,0.82,92.8,M,46.8,M,,*56
$GPRMC,110852.000,A,5122.5091,N,01211.1691,E,87.31,348.65,060214,,,A*54
$GPGGA,110858.000,5122.6563,N,01211.1225,E,1,10,0.82,93.6,M,46.8,M,,*51
$GPRMC,110857.000,A,5122.6313,N,01211.1300,E,91.52,349.19,060214,,,A*5E
$GPGGA,110903.000,5122.7770,N,01211.0845,E,1,10,0.82,93.6,M,46.8,M,,*52
$GPRMC,110902.000,A,5122.7534,N,01211.0921,E,87.33,348.74,060214,,,A*5F
$GPGGA,110908.000,5122.8933,N,01211.0456,E,1,10,0.82,93.5,M,46.8,M,,*52
$GPRMC,110907.000,A,5122.8706,N,01211.0536,E,84.20,348.05,060214,,,A*5B
$GPGGA,110913.000,5123.0043,N,01211.0081,E,1,10,0.82,93.4,M,46.8,M,,*50
$GPRMC,110912.000,A,5122.9822,N,01211.0151,E,81.85,348.63,060214,,,A*58
$GPGGA,110918.000,5123.1136,N,01210.9731,E,1,10,0.82,93.9,M,46.8,M,,*50
$GPRMC,110917.000,A,5123.0915,N,01210.9803,E,80.34,348.29,060214,,,A*53
$GPGGA,110923.000,5123.2276,N,01210.9366,E,1,10,0.82,96.4,M,46.8,M,,*52
$GPRMC,110922.000,A,5123.2045,N,01210.9439,E,84.34,348.52,060214,,,A*56
$GPGGA,110928.000,5123.3441,N,01210.8988,E,1,10,0.82,102.0,M,46.8,M,,*69
$GPRMC,110927.000,A,5123.3207,N,01210.9065,E,85.95,348.48,060214,,,A*5A
$GPGGA,110933.000,5123.4608,N,01210.8622,E,1,10,0.82,108.4,M,46.8,M,,*6A
$GPRMC,110932.000,A,5123.4376,N,01210.8689,E,84.92,349.28,060214,,,A*5A
$GPGGA,110938.000,5123.5776,N,01210.8409,E,1,10,0.82,114.5,M,46.8,M,,*6F
$GPRMC,110937.000,A,5123.5540,N,01210.8433,E,84.88,355.65,060214,,,A*51
$GPGGA,110943.000,5123.6911,N,01210.8409,E,1,10,0.82,119.0,M,46.8,M,,*67
$GPRMC,110942.000,A,5123.6692,N,01210.8394,E,79.79,1.55,060214,,,A*5B
$GPGGA,110949.000,5123.8177,N,01210.8601,E,1,10,0.82,121.1,M,46.8,M,,*6B
$GPRMC,110948.000,A,5123.7965,N,01210.8553,E,76.99,6.64,060214,,,A*5E
$GPGGA,110954.000,5123.9241,N,01210.8964,E,1,10,0.82,121.9,M,46.8,M,,*64
$GPRMC,110953.000,A,5123.9031,N,01210.8877,E,78.04,13.56,060214,,,A*66
$GPGGA,110959.000,5124.0304,N,01210.9520,E,1,10,0.82,124.4,M,46.8,M,,*62
$GPRMC,110958.000,A,5124.0090,N,01210.9396,E,81.88,19.85,060214,,,A*6B
$GPGGA,111004.000,5124.1370,N,01211.0157,E,1,10,0.82,126.7,M,46.8,M,,*6D
$GPRMC,111003.000,A,5124.1157,N,01211.0030,E,82.06,20.36,060214,,,A*66
$GPGGA,111009.000,5124.2408,N,01211.0748,E,1,10,0.82,128.6,M,46.8,M,,*6C
$GPRMC,111008.000,A,5124.2203,N,01211.0632,E,77.94,19.71,060214,,,A*60
$GPGGA,111014.000,5124.3454,N,01211.1343,E,1,10,0.81,130.3,M,46.8,M,,*69
$GPRMC,111013.000,A,5124.3243,N,01211.1222,E,80.88,19.66,060214,,,A*68
$GPGGA,111019.000,5124.4501,N,01211.1947,E,1,10,0.82,130.7,M,46.8,M,,*6B
$GPRMC,111018.000,A,5124.4296,N,01211.1827,E,78.99,19.93,060214,,,A*6E
$GPGGA,111024.000,5124.5520,N,01211.2541,E,1,10,0.81,129.9,M,46.8,M,,*6B
$GPRMC,111023.000,A,5124.5319,N,01211.2421,E,77.62,20.04,060214,,,A*67
$GPGGA,111030.000,5124.6655,N,01211.3184,E,1,10,0.81,127.2,M,46.8,M,,*65
$GPRMC,111029.000,A,5124.6463,N,01211.3078,E,73.22,18.66,060214,,,A*62
$GPGGA,111036.000,5124.7859,N,01211.3867,E,1,9,0.82,123.5,M,46.8,M,,*5C
$GPRMC,111035.000,A,5124.7658,N,01211.3752,E,77.21,19.76,060214,,,A*6C
$GPGGA,111042.000,5124.9059,N,01211.4559,E,1,10,0.82,122.0,M,46.8,M,,*62
$GPRMC,111041.000,A,5124.8852,N,01211.4442,E,78.57,19.60,060214,,,A*68
$GPGGA,111047.000,5125.0129,N,01211.5175,E,1,10,0.82,121.8,M,46.8,M,,*69
$GPRMC,111046.000,A,5124.9912,N,01211.5049,E,82.78,19.90,060214,,,A*62
$GPGGA,111052.000,5125.1235,N,01211.5812,E,1,10,0.82,121.7,M,46.8,M,,*65
$GPRMC,111051.000,A,5125.1011,N,01211.5682,E,85.40,19.44,060214,,,A*63
$GPGGA,111057.000,5125.2354,N,01211.6464,E,1,9,0.82,121.3,M,46.8,M,,*57
$GPRMC,111056.000,A,5125.2133,N,01211.6336,E,84.82,19.96,060214,,,A*6F
$GPGGA,111102.000,5125.3438,N,01211.7083,E,1,9,0.82,121.0,M,46.8,M,,*55
$GPRMC,111101.000,A,5125.3220,N,01211.6957,E,82.73,19.79,060214,,,A*68
$GPGGA,111107.000,5125.4548,N,01211.7722,E,1,10,0.82,120.8,M,46.8,M,,*6C
$GPRMC,111106.000,A,5125.4324,N,01211.7591,E,85.67,19.76,060214,,,A*67
$GPGGA,111112.000,5125.5684,N,01211.8386,E,1,10,0.82,121.1,M,46.8,M,,*67
$GPRMC,111111.000,A,5125.5456,N,01211.8250,E,86.24,20.63,060214,,,A*6D
$GPGGA,111117.000,5125.6856,N,01211.9070,E,1,9,0.84,120.5,M,46.8,M,,*50
$GPRMC,111116.000,A,5125.6621,N,01211.8934,E,89.70,19.98,060214,,,A*62
$GPGGA,111122.000,5125.8009,N,01211.9742,E,1,9,0.88,118.0,M,46.8,M,,*5E
$GPRMC,111121.000,A,5125.7781,N,01211.9607,E,87.70,20.38,060214,,,A*6C
$GPGGA,111127.000,5125.9149,N,01212.0403,E,1,10,0.81,119.3,M,46.8,M,,*60
$GPRMC,111126.000,A,5125.8920,N,01212.0272,E,87.34,19.84,060214,,,A*60
$GPGGA,111132.000,5126.0269,N,01212.1053,E,1,10,0.82,119.0,M,46.8,M,,*6F
$GPRMC,111131.000,A,5126.0045,N,01212.0923,E,85.44,20.18,060214,,,A*62
$GPGGA,111137.000,5126.1422,N,01212.1708,E,1,10,0.82,118.7,M,46.8,M,,*6D
$GPRMC,111136.000,A,5126.1189,N,01212.1576,E,89.10,19.70,060214,,,A*61
$GPGGA,111142.000,5126.2566,N,01212.2364,E,1,10,0.82,118.5,M,46.8,M,,*62
$GPRMC,111141.000,A,5126.2340,N,01212.2233,E,86.25,19.83,060214,,,A*65
$GPGGA,111147.000,5126.3712,N,01212.3022,E,1,10,0.82,118.8,M,46.8,M,,*6A
$GPRMC,111146.000,A,5126.3485,N,01212.2891,E,86.85,20.04,060214,,,A*60
$GPGGA,111152.000,5126.4868,N,01212.3667,E,1,10,0.82,118.5,M,46.8,M,,*61
$GPRMC,111151.000,A,5126.4633,N,01212.3534,E,89.36,19.42,060214,,,A*62
$GPGGA,111157.000,5126.6042,N,01212.4341,E,1,10,0.82,118.9,M,46.8,M,,*6C
$GPRMC,111156.000,A,5126.5806,N,01212.4204,E,89.97,19.82,060214,,,A*68
$GPGGA,111202.000,5126.7226,N,01212.5033,E,1,10,0.81,118.2,M,46.8,M,,*61
$GPRMC,111201.000,A,5126.6990,N,01212.4897,E,90.83,19.91,060214,,,A*6B
$GPGGA,111207.000,5126.8397,N,01212.5710,E,1,10,0.82,118.1,M,46.8,M,,*66
$GPRMC,111206.000,A,5126.8165,N,01212.5576,E,89.47,19.97,060214,,,A*65
$GPGGA,111212.000,5126.9552,N,01212.6375,E,1,10,0.82,117.6,M,46.8,M,,*60
$GPRMC,111211.000,A,5126.9325,N,01212.6244,E,87.85,19.84,060214,,,A*63
$GPGGA,111217.000,5127.0681,N,01212.7027,E,1,10,0.82,117.5,M,46.7,M,,*69
$GPRMC,111216.000,A,5127.0455,N,01212.6896,E,86.49,19.81,060214,,,A*6D
$GPGGA,111222.000,5127.1815,N,01212.7683,E,1,10,0.84,117.9,M,46.7,M,,*6F
$GPRMC,111221.000,A,5127.1587,N,01212.7552,E,87.05,19.77,060214,,,A*62
$GPGGA,111227.000,5127.2951,N,01212.8337,E,1,10,0.82,118.4,M,46.7,M,,*69
$GPRMC,111226.000,A,5127.2728,N,01212.8208,E,86.13,19.81,060214,,,A*69
$GPGGA,111232.000,5127.4029,N,01212.8937,E,1,10,0.82,117.7,M,46.7,M,,*6B
$GPRMC,111231.000,A,5127.3817,N,01212.8825,E,80.76,18.31,060214,,,A*67
$GPGGA,111237.000,5127.5119,N,01212.9421,E,1,10,0.81,116.6,M,46.7,M,,*65
$GPRMC,111236.000,A,5127.4894,N,01212.9332,E,82.76,14.28,060214,,,A*66
$GPGGA,111242.000,5127.6251,N,01212.9778,E,1,10,0.82,115.0,M,46.7,M,,*62
$GPRMC,111241.000,A,5127.6026,N,01212.9718,E,82.52,10.11,060214,,,A*61
$GPGGA,111247.000,5127.7371,N,01213.0000,E,1,10,0.82,114.2,M,46.7,M,,*66
$GPRMC,111246.000,A,5127.7147,N,01212.9966,E,80.59,6.26,060214,,,A*5C
$GPGGA,111252.000,5127.8517,N,01213.0097,E,1,10,0.82,113.3,M,46.7,M,,*63
$GPRMC,111251.000,A,5127.8283,N,01213.0087,E,83.32,2.26,060214,,,A*5A
$GPGGA,111257.000,5127.9690,N,01213.0059,E,1,10,0.82,112.5,M,46.7,M,,*6E
$GPRMC,111256.000,A,5127.9458,N,01213.0079,E,84.56,357.80,060214,,,A*57
$GPGGA,111302.000,5128.0830,N,01212.9896,E,1,10,0.82,110.6,M,46.7,M,,*6F
$GPRMC,111301.000,A,5128.0603,N,01212.9937,E,82.59,354.38,060214,,,A*5C
$GPGGA,111307.000,5128.1983,N,01212.9665,E,1,9,1.00,109.5,M,46.7,M,,*58
$GPRMC,111306.000,A,5128.1750,N,01212.9711,E,84.86,353.17,060214,,,A*59
$GPGGA,111312.000,5128.3145,N,01212.9436,E,1,10,0.81,107.9,M,46.7,M,,*6A
$GPRMC,111311.000,A,5128.2913,N,01212.9484,E,84.76,352.76,060214,,,A*53
$GPGGA,111317.000,5128.4319,N,01212.9188,E,1,10,0.82,106.3,M,46.7,M,,*6B
$GPRMC,111316.000,A,5128.4085,N,01212.9237,E,85.93,352.43,060214,,,A*56
$GPGGA,111322.000,5128.5458,N,01212.8949,E,1,10,0.81,105.1,M,46.7,M,,*68
$GPRMC,111321.000,A,5128.5233,N,01212.8995,E,82.09,352.87,060214,,,A*52
$GPGGA,111327.000,5128.6595,N,01212.8665,E,1,10,0.81,104.0,M,46.7,M,,*6F
$GPRMC,111326.000,A,5128.6366,N,01212.8729,E,83.32,350.58,060214,,,A*57
$GPGGA,111332.000,5128.7755,N,01212.8252,E,1,10,0.81,103.3,M,46.7,M,,*60
$GPRMC,111331.000,A,5128.7524,N,01212.8344,E,85.39,346.20,060214,,,A*5A
$GPGGA,111337.000,5128.8893,N,01212.7701,E,1,10,0.81,102.6,M,46.7,M,,*67
$GPRMC,111336.000,A,5128.8666,N,01212.7823,E,85.98,342.46,060214,,,A*5D
$GPGGA,111342.000,5128.9994,N,01212.7010,E,1,10,0.81,102.8,M,46.7,M,,*6B
$GPRMC,111341.000,A,5128.9781,N,01212.7157,E,84.73,337.68,060214,,,A*54
$GPGGA,111347.000,5129.1063,N,01212.6229,E,1,9,0.90,101.8,M,46.7,M,,*54
$GPRMC,111346.000,A,5129.0851,N,01212.6388,E,84.17,335.20,060214,,,A*54
$GPGGA,111352.000,5129.2145,N,01212.5416,E,1,10,0.81,101.3,M,46.7,M,,*6C
$GPRMC,111351.000,A,5129.1925,N,01212.5581,E,87.17,335.15,060214,,,A*58
$GPGGA,111357.000,5129.3255,N,01212.4580,E,1,10,0.81,101.1,M,46.7,M,,*67
$GPRMC,111356.000,A,5129.3033,N,01212.4748,E,88.17,334.92,060214,,,A*54
$GPGGA,111402.000,5129.4363,N,01212.3754,E,1,10,0.81,101.4,M,46.7,M,,*6A
$GPRMC,111401.000,A,5129.4141,N,01212.3918,E,87.64,335.15,060214,,,A*5B
$GPGGA,111407.000,5129.5469,N,01212.2935,E,1,10,0.81,100.3,M,46.7,M,,*6D
$GPRMC,111406.000,A,5129.5247,N,01212.3099,E,87.90,335.08,060214,,,A*5F
$GPGGA,111412.000,5129.6595,N,01212.2190,E,1,10,0.81,100.5,M,46.7,M,,*69
$GPRMC,111411.000,A,5129.6368,N,01212.2327,E,87.18,338.96,060214,,,A*5B
$GPGGA,111417.000,5129.7724,N,01212.1677,E,1,10,0.81,100.5,M,46.7,M,,*68
$GPRMC,111416.000,A,5129.7501,N,01212.1764,E,82.66,345.62,060214,,,A*59
$GPGGA,111422.000,5129.8863,N,01212.1335,E,1,9,0.82,99.7,M,46.7,M,,*66
$GPRMC,111421.000,A,5129.8631,N,01212.1396,E,83.93,349.86,060214,,,A*56
$GPGGA,111427.000,5130.0046,N,01212.1044,E,1,10,0.81,99.9,M,46.7,M,,*5C
$GPRMC,111426.000,A,5129.9806,N,01212.1101,E,86.87,351.42,060214,,,A*57
$GPGGA,111432.000,5130.1212,N,01212.0741,E,1,10,0.81,102.1,M,46.7,M,,*62
$GPRMC,111431.000,A,5130.0979,N,01212.0804,E,85.34,350.47,060214,,,A*5B
$GPGGA,111437.000,5130.2368,N,01212.0441,E,1,10,0.81,105.7,M,46.7,M,,*6A
$GPRMC,111436.000,A,5130.2139,N,01212.0501,E,83.66,350.75,060214,,,A*5A
$GPGGA,111442.000,5130.3502,N,01212.0135,E,1,10,0.81,107.2,M,46.7,M,,*62
$GPRMC,111441.000,A,5130.3279,N,01212.0195,E,81.20,350.36,060214,,,A*52
$GPGGA,111447.000,5130.4610,N,01211.9843,E,1,9,0.82,106.1,M,46.7,M,,*5B
$GPRMC,111446.000,A,5130.4384,N,01211.9902,E,81.58,350.49,060214,,,A*5A
$GPGGA,111452.000,5130.5773,N,01211.9535,E,1,8,0.86,102.7,M,46.7,M,,*51
$GPRMC,111451.000,A,5130.5538,N,01211.9596,E,85.15,350.69,060214,,,A*52
$GPGGA,111457.000,5130.6922,N,01211.9229,E,1,10,0.81,99.5,M,46.7,M,,*58
$GPRMC,111456.000,A,5130.6697,N,01211.9290,E,82.91,350.56,060214,,,A*56
$GPGGA,111503.000,5130.8145,N,01211.8901,E,1,10,0.81,98.5,M,46.7,M,,*5E
$GPRMC,111502.000,A,5130.7951,N,01211.8953,E,71.79,350.47,060214,,,A*5D
$GPGGA,111509.000,5130.9338,N,01211.8600,E,1,10,0.81,98.6,M,46.7,M,,*50
$GPRMC,111508.000,A,5130.9129,N,01211.8647,E,75.57,351.40,060214,,,A*5A
$GPGGA,111514.000,5131.0453,N,01211.8414,E,1,10,0.81,97.6,M,46.7,M,,*56
$GPRMC,111513.000,A,5131.0221,N,01211.8444,E,83.04,354.93,060214,,,A*56
$GPGGA,111519.000,5131.1657,N,01211.8307,E,1,10,0.81,96.2,M,46.7,M,,*5C
$GPRMC,111518.000,A,5131.1411,N,01211.8322,E,88.05,357.49,060214,,,A*50
$GPGGA,111524.000,5131.2890,N,01211.8269,E,1,10,0.81,95.3,M,46.7,M,,*5F
$GPRMC,111523.000,A,5131.2645,N,01211.8273,E,88.32,359.14,060214,,,A*5F
$GPGGA,111529.000,5131.4120,N,01211.8242,E,1,10,0.81,94.8,M,46.7,M,,*55
$GPRMC,111528.000,A,5131.3871,N,01211.8247,E,88.61,359.25,060214,,,A*5F
$GPGGA,111534.000,5131.5354,N,01211.8233,E,1,9,0.84,94.4,M,46.7,M,,*6E
$GPRMC,111533.000,A,5131.5109,N,01211.8235,E,88.07,359.93,060214,,,A*5D
$GPGGA,111539.000,5131.6579,N,01211.8202,E,1,9,0.84,94.3,M,46.7,M,,*6C
$GPRMC,111538.000,A,5131.6335,N,01211.8209,E,88.14,358.98,060214,,,A*5F
$GPGGA,111544.000,5131.7793,N,01211.8168,E,1,10,0.81,92.8,M,46.7,M,,*5E
$GPRMC,111543.000,A,5131.7553,N,01211.8178,E,86.49,358.56,060214,,,A*55
$GPGGA,111550.000,5131.9065,N,01211.8041,E,1,10,0.81,92.9,M,46.7,M,,*50
$GPRMC,111549.000,A,5131.8865,N,01211.8072,E,73.15,354.88,060214,,,A*5F
$GPGGA,111556.000,5132.0219,N,01211.7755,E,1,10,0.81,93.1,M,46.7,M,,*51
$GPRMC,111555.000,A,5132.0034,N,01211.7810,E,68.97,349.50,060214,,,A*5F
$GPGGA,111602.000,5132.1354,N,01211.7350,E,1,10,0.81,92.4,M,46.7,M,,*5F
$GPRMC,111601.000,A,5132.1157,N,01211.7429,E,72.63,346.76,060214,,,A*55
$GPGGA,111607.000,5132.2415,N,01211.6922,E,1,10,0.81,91.5,M,46.7,M,,*57
$GPRMC,111606.000,A,5132.2194,N,01211.7008,E,81.28,346.59,060214,,,A*57
$GPGGA,111612.000,5132.3569,N,01211.6486,E,1,10,0.81,93.3,M,46.7,M,,*5F
$GPRMC,111611.000,A,5132.3333,N,01211.6575,E,86.35,346.96,060214,,,A*59
$GPGGA,111617.000,5132.4760,N,01211.6060,E,1,10,0.81,97.0,M,46.7,M,,*5D
$GPRMC,111616.000,A,5132.4521,N,01211.6143,E,88.09,347.79,060214,,,A*5C
$GPGGA,111622.000,5132.5930,N,01211.5638,E,1,11,0.74,98.2,M,46.7,M,,*5F
$GPRMC,111621.000,A,5132.5703,N,01211.5723,E,84.53,346.86,060214,,,A*5A
$GPGGA,111627.000,5132.7073,N,01211.5202,E,1,11,0.74,96.2,M,46.7,M,,*55
$GPRMC,111626.000,A,5132.6840,N,01211.5289,E,85.61,346.69,060214,,,A*52
$GPGGA,111632.000,5132.8253,N,01211.4759,E,1,11,0.74,91.9,M,46.7,M,,*58
$GPRMC,111631.000,A,5132.8015,N,01211.4845,E,88.04,347.05,060214,,,A*5C
$GPGGA,111637.000,5132.9420,N,01211.4328,E,1,11,0.74,89.6,M,46.7,M,,*5A
$GPRMC,111636.000,A,5132.9191,N,01211.4411,E,84.97,346.97,060214,,,A*56
$GPGGA,111642.000,5133.0533,N,01211.3915,E,1,11,0.74,89.1,M,46.7,M,,*57
$GPRMC,111641.000,A,5133.0309,N,01211.3999,E,82.73,346.92,060214,,,A*5E
$GPGGA,111647.000,5133.1675,N,01211.3483,E,1,11,0.74,89.0,M,46.7,M,,*51
$GPRMC,111646.000,A,5133.1447,N,01211.3567,E,85.13,346.87,060214,,,A*5D
$GPGGA,111652.000,5133.2794,N,01211.3063,E,1,11,0.74,88.3,M,46.7,M,,*50
$GPRMC,111651.000,A,5133.2572,N,01211.3147,E,82.02,346.78,060214,,,A*5E
$GPGGA,111657.000,5133.3903,N,01211.2654,E,1,11,0.74,86.9,M,46.7,M,,*53
$GPRMC,111656.000,A,5133.3680,N,01211.2725,E,81.80,347.74,060214,,,A*51
$GPGGA,111703.000,5133.5162,N,01211.2372,E,1,11,0.74,86.2,M,46.7,M,,*50
$GPRMC,111702.000,A,5133.4960,N,01211.2397,E,73.92,354.11,060214,,,A*55
$GPGGA,111709.000,5133.6354,N,01211.2337,E,1,11,0.74,87.1,M,46.7,M,,*5D
$GPRMC,111708.000,A,5133.6157,N,01211.2328,E,70.90,0.86,060214,,,A*58
$GPGGA,111715.000,5133.7551,N,01211.2531,E,1,11,0.74,86.1,M,46.7,M,,*53
$GPRMC,111714.000,A,5133.7359,N,01211.2486,E,71.59,7.67,060214,,,A*57
$GPGGA,111721.000,5133.8619,N,01211.2834,E,1,11,0.74,86.7,M,46.7,M,,*5A
$GPRMC,111720.000,A,5133.8447,N,01211.2784,E,63.83,9.87,060214,,,A*52
$GPGGA,111728.000,5133.9814,N,01211.3181,E,1,11,0.74,87.6,M,46.7,M,,*57
$GPRMC,111727.000,A,5133.9643,N,01211.3133,E,63.21,9.82,060214,,,A*54
$GPGGA,111735.000,5134.1038,N,01211.3534,E,1,9,0.81,88.2,M,46.7,M,,*60
$GPRMC,111734.000,A,5134.0867,N,01211.3486,E,62.56,9.99,060214,,,A*50
$GPGGA,111741.000,5134.2107,N,01211.3837,E,1,11,0.74,88.8,M,46.7,M,,*5A
$GPRMC,111740.000,A,5134.1921,N,01211.3786,E,67.08,9.83,060214,,,A*57
$GPGGA,111747.000,5134.3307,N,01211.4182,E,1,11,0.74,89.6,M,46.7,M,,*50
$GPRMC,111746.000,A,5134.3098,N,01211.4122,E,75.30,10.12,060214,,,A*6F
$GPGGA,111753.000,5134.4570,N,01211.4516,E,1,11,0.74,90.6,M,46.7,M,,*55
$GPRMC,111752.000,A,5134.4364,N,01211.4469,E,74.94,8.58,060214,,,A*5F
$GPGGA,111759.000,5134.5849,N,01211.4704,E,1,11,0.74,89.6,M,46.7,M,,*50
$GPRMC,111758.000,A,5134.5633,N,01211.4688,E,78.14,3.17,060214,,,A*5A
$GPGGA,111805.000,5134.7131,N,01211.4629,E,1,10,0.77,89.1,M,46.7,M,,*59
$GPRMC,111804.000,A,5134.6919,N,01211.4661,E,76.78,356.01,060214,,,A*5F
$GPGGA,111810.000,5134.8223,N,01211.4330,E,1,11,0.74,89.2,M,46.7,M,,*5E
$GPRMC,111809.000,A,5134.8000,N,01211.4401,E,81.34,349.68,060214,,,A*58
$GPGGA,111815.000,5134.9374,N,01211.3889,E,1,11,0.74,88.8,M,46.7,M,,*5C
$GPRMC,111814.000,A,5134.9140,N,01211.3986,E,86.62,346.09,060214,,,A*59
$GPGGA,111820.000,5135.0573,N,01211.3370,E,1,11,0.74,86.6,M,46.7,M,,*5E
$GPRMC,111819.000,A,5135.0331,N,01211.3477,E,89.88,344.73,060214,,,A*5F
$GPGGA,111825.000,5135.1789,N,01211.2823,E,1,11,0.74,85.7,M,46.7,M,,*53
$GPRMC,111824.000,A,5135.1547,N,01211.2932,E,91.24,344.51,060214,,,A*55
$GPGGA,111830.000,5135.2974,N,01211.2292,E,1,11,0.74,84.9,M,46.7,M,,*57
$GPRMC,111829.000,A,5135.2741,N,01211.2396,E,87.39,344.55,060214,,,A*54
$GPGGA,111835.000,5135.4081,N,01211.1786,E,1,11,0.74,84.1,M,46.7,M,,*5C
$GPRMC,111834.000,A,5135.3867,N,01211.1892,E,81.16,343.53,060214,,,A*54
$GPGGA,111840.000,5135.5146,N,01211.1302,E,1,11,0.74,83.3,M,46.7,M,,*58
$GPRMC,111839.000,A,5135.4930,N,01211.1397,E,80.60,344.45,060214,,,A*53
$GPGGA,111845.000,5135.6277,N,01211.0808,E,1,11,0.74,83.4,M,46.7,M,,*58
$GPRMC,111844.000,A,5135.6045,N,01211.0909,E,86.36,344.91,060214,,,A*50
$GPGGA,111850.000,5135.7457,N,01211.0338,E,1,11,0.74,84.0,M,46.7,M,,*52
$GPRMC,111849.000,A,5135.7220,N,01211.0426,E,88.11,346.43,060214,,,A*5B
$GPGGA,111855.000,5135.8639,N,01211.0001,E,1,11,0.74,83.0,M,46.7,M,,*5C
$GPRMC,111854.000,A,5135.8406,N,01211.0050,E,85.31,351.64,060214,,,A*53
$GPGGA,111900.000,5135.9797,N,01210.9883,E,1,11,0.74,82.2,M,46.7,M,,*50
$GPRMC,111859.000,A,5135.9565,N,01210.9892,E,83.44,357.65,060214,,,A*56
$GPGGA,111905.000,5136.0973,N,01210.9976,E,1,10,0.76,81.8,M,46.7,M,,*5A
$GPRMC,111904.000,A,5136.0739,N,01210.9939,E,84.89,4.98,060214,,,A*5F
$GPGGA,111910.000,5136.2123,N,01211.0263,E,1,11,0.74,82.9,M,46.7,M,,*57
$GPRMC,111909.000,A,5136.1894,N,01211.0190,E,84.06,10.07,060214,,,A*6C
$GPGGA,111915.000,5136.3220,N,01211.0676,E,1,11,0.74,83.7,M,46.7,M,,*5C
$GPRMC,111914.000,A,5136.3006,N,01211.0590,E,79.35,13.18,060214,,,A*6A
$GPGGA,111920.000,5136.4312,N,01211.1135,E,1,11,0.74,84.6,M,46.7,M,,*5A
$GPRMC,111919.000,A,5136.4088,N,01211.1040,E,82.47,14.55,060214,,,A*60
$GPGGA,111925.000,5136.5444,N,01211.1613,E,1,11,0.74,85.0,M,46.7,M,,*5E
$GPRMC,111924.000,A,5136.5221,N,01211.1518,E,83.61,14.43,060214,,,A*64
$GPGGA,111930.000,5136.6547,N,01211.2077,E,1,11,0.74,84.9,M,46.7,M,,*54
$GPRMC,111929.000,A,5136.6323,N,01211.1983,E,82.63,14.51,060214,,,A*67
$GPGGA,111935.000,5136.7705,N,01211.2572,E,1,11,0.74,84.3,M,46.7,M,,*5E
$GPRMC,111934.000,A,5136.7469,N,01211.2470,E,87.30,15.13,060214,,,A*65
$GPGGA,111940.000,5136.8880,N,01211.3072,E,1,11,0.74,83.4,M,46.7,M,,*55
$GPRMC,111939.000,A,5136.8647,N,01211.2975,E,87.01,14.55,060214,,,A*60
$GPGGA,111945.000,5137.0051,N,01211.3552,E,1,11,0.74,83.8,M,46.7,M,,*56
$GPRMC,111944.000,A,5136.9814,N,01211.3453,E,87.71,14.48,060214,,,A*60
$GPGGA,111950.000,5137.1242,N,01211.4041,E,1,11,0.74,84.6,M,46.7,M,,*5A
$GPRMC,111949.000,A,5137.1004,N,01211.3941,E,88.77,14.40,060214,,,A*62
$GPGGA,111955.000,5137.2447,N,01211.4548,E,1,11,0.74,86.9,M,46.6,M,,*5F
$GPRMC,111954.000,A,5137.2208,N,01211.4447,E,89.59,14.65,060214,,,A*65
$GPGGA,112000.000,5137.3574,N,01211.5023,E,1,11,0.74,90.0,M,46.6,M,,*52
$GPRMC,111959.000,A,5137.3357,N,01211.4932,E,81.80,14.55,060214,,,A*62
$GPGGA,112005.000,5137.4628,N,01211.5453,E,1,11,0.74,91.3,M,46.6,M,,*5B
$GPRMC,112004.000,A,5137.4419,N,01211.5367,E,78.29,14.44,060214,,,A*64
$GPGGA,112011.000,5137.5859,N,01211.5964,E,1,11,0.74,90.6,M,46.6,M,,*5A
$GPRMC,112010.000,A,5137.5655,N,01211.5879,E,76.43,14.61,060214,,,A*6B
$GPGGA,112016.000,5137.6908,N,01211.6377,E,1,11,0.74,88.6,M,46.6,M,,*59
$GPRMC,112015.000,A,5137.6694,N,01211.6294,E,79.38,13.49,060214,,,A*64
$GPGGA,112021.000,5137.8006,N,01211.6830,E,1,11,0.74,86.5,M,46.6,M,,*51
$GPRMC,112020.000,A,5137.7782,N,01211.6735,E,82.42,14.64,060214,,,A*6A
$GPGGA,112026.000,5137.9147,N,01211.7318,E,1,11,0.74,85.0,M,46.6,M,,*55
$GPRMC,112025.000,A,5137.8916,N,01211.7218,E,85.80,14.84,060214,,,A*6F
$GPGGA,112031.000,5138.0302,N,01211.7809,E,1,11,0.74,84.6,M,46.6,M,,*5A
$GPRMC,112030.000,A,5138.0072,N,01211.7711,E,86.09,14.88,060214,,,A*65
$GPGGA,112036.000,5138.1420,N,01211.8273,E,1,11,0.74,84.2,M,46.6,M,,*57
$GPRMC,112035.000,A,5138.1197,N,01211.8178,E,83.08,14.11,060214,,,A*69
$GPGGA,112041.000,5138.2571,N,01211.8728,E,1,11,0.74,84.1,M,46.6,M,,*59
$GPRMC,112040.000,A,5138.2341,N,01211.8641,E,85.46,13.74,060214,,,A*64
$GPGGA,112046.000,5138.3673,N,01211.9138,E,1,11,0.74,84.1,M,46.6,M,,*58
$GPRMC,112045.000,A,5138.3458,N,01211.9059,E,79.82,12.89,060214,,,A*69
$GPGGA,112051.000,5138.4762,N,01211.9522,E,1,11,0.74,84.2,M,46.6,M,,*54
$GPRMC,112050.000,A,5138.4543,N,01211.9448,E,80.72,11.81,060214,,,A*67
$GPGGA,112056.000,5138.5878,N,01211.9877,E,1,11,0.74,84.2,M,46.6,M,,*5B
$GPRMC,112055.000,A,5138.5651,N,01211.9806,E,83.14,11.15,060214,,,A*6B
$GPGGA,112101.000,5138.7022,N,01212.0206,E,1,11,0.74,83.8,M,46.6,M,,*56
$GPRMC,112100.000,A,5138.6792,N,01212.0143,E,83.99,9.94,060214,,,A*50
$GPGGA,112106.000,5138.8205,N,01212.0495,E,1,10,0.79,83.4,M,46.6,M,,*55
$GPRMC,112105.000,A,5138.7963,N,01212.0439,E,87.49,8.51,060214,,,A*5D
$GPGGA,112111.000,5138.9433,N,01212.0757,E,1,11,0.74,82.9,M,46.6,M,,*5C
$GPRMC,112110.000,A,5138.9185,N,01212.0708,E,89.97,7.60,060214,,,A*56
$GPGGA,112116.000,5139.0643,N,01212.0980,E,1,11,0.74,82.8,M,46.6,M,,*53
$GPRMC,112115.000,A,5139.0407,N,01212.0937,E,86.14,6.58,060214,,,A*58
$GPGGA,112121.000,5139.1777,N,01212.1193,E,1,11,0.74,82.7,M,46.6,M,,*54
$GPRMC,112120.000,A,5139.1555,N,01212.1151,E,80.69,6.76,060214,,,A*50
$GPGGA,112126.000,5139.2862,N,01212.1395,E,1,11,0.74,82.7,M,46.6,M,,*5F
$GPRMC,112125.000,A,5139.2649,N,01212.1356,E,77.75,6.52,060214,,,A*5E
$GPGGA,112132.000,5139.4059,N,01212.1619,E,1,11,0.74,83.4,M,46.6,M,,*5F
$GPRMC,112131.000,A,5139.3873,N,01212.1584,E,68.97,6.90,060214,,,A*58
$GPGGA,112138.000,5139.5133,N,01212.1818,E,1,11,0.74,83.4,M,46.6,M,,*56
$GPRMC,112137.000,A,5139.4954,N,01212.1787,E,65.00,6.48,060214,,,A*5A
$GPGGA,112144.000,5139.6255,N,01212.2014,E,1,11,0.74,83.8,M,46.6,M,,*56
$GPRMC,112143.000,A,5139.6060,N,01212.1978,E,69.84,6.49,060214,,,A*5A
$GPGGA,112150.000,5139.7459,N,01212.2269,E,1,11,0.74,83.3,M,46.6,M,,*5B
$GPRMC,112149.000,A,5139.7259,N,01212.2226,E,72.90,7.56,060214,,,A*5A
$GPGGA,112156.000,5139.8671,N,01212.2509,E,1,11,0.75,82.9,M,46.6,M,,*51
$GPRMC,112155.000,A,5139.8470,N,01212.2470,E,73.58,6.84,060214,,,A*5B
$GPGGA,112202.000,5139.9881,N,01212.2732,E,1,11,0.75,82.3,M,46.6,M,,*53
$GPRMC,112201.000,A,5139.9677,N,01212.2694,E,74.07,6.60,060214,,,A*52
$GPGGA,112208.000,5140.1102,N,01212.2966,E,1,11,0.75,82.0,M,46.6,M,,*51
$GPRMC,112207.000,A,5140.0896,N,01212.2926,E,74.27,6.83,060214,,,A*5B
$GPGGA,112214.000,5140.2326,N,01212.3199,E,1,11,0.75,81.1,M,46.6,M,,*50
$GPRMC,112213.000,A,5140.2127,N,01212.3162,E,72.58,6.71,060214,,,A*55
$GPGGA,112220.000,5140.3480,N,01212.3414,E,1,11,0.75,79.4,M,46.6,M,,*5F
$GPRMC,112219.000,A,5140.3291,N,01212.3378,E,69.29,6.63,060214,,,A*56
$GPGGA,112226.000,5140.4568,N,01212.3619,E,1,11,0.75,78.1,M,46.6,M,,*52
$GPRMC,112225.000,A,5140.4388,N,01212.3584,E,64.63,6.89,060214,,,A*55
$GPGGA,112232.000,5140.5717,N,01212.3814,E,1,11,0.75,77.3,M,46.6,M,,*52
$GPRMC,112231.000,A,5140.5515,N,01212.3780,E,72.35,5.64,060214,,,A*51
$GPGGA,112238.000,5140.6921,N,01212.4037,E,1,11,0.75,76.1,M,46.6,M,,*5D
$GPRMC,112237.000,A,5140.6726,N,01212.4001,E,71.07,6.65,060214,,,A*5F
$GPGGA,112244.000,5140.8088,N,01212.4261,E,1,11,0.75,75.1,M,46.6,M,,*50
$GPRMC,112243.000,A,5140.7897,N,01212.4223,E,69.90,6.82,060214,,,A*54
$GPGGA,112250.000,5140.9192,N,01212.4483,E,1,11,0.75,74.3,M,46.6,M,,*57
$GPRMC,112249.000,A,5140.9013,N,01212.4447,E,65.43,7.28,060214,,,A*53
$GPGGA,112257.000,5141.0388,N,01212.4725,E,1,11,0.75,73.9,M,46.6,M,,*53
$GPRMC,112256.000,A,5141.0222,N,01212.4693,E,60.85,7.08,060214,,,A*53
$GPGGA,112304.000,5141.1548,N,01212.4942,E,1,11,0.75,74.4,M,46.6,M,,*5A
$GPRMC,112303.000,A,5141.1383,N,01212.4910,E,59.63,6.54,060214,,,A*57
$GPGGA,112311.000,5141.2709,N,01212.5168,E,1,11,0.75,75.9,M,46.6,M,,*57
$GPRMC,112310.000,A,5141.2548,N,01212.5136,E,59.07,7.09,060214,,,A*51
$GPGGA,112318.000,5141.3897,N,01212.5397,E,1,11,0.75,77.5,M,46.6,M,,*5B
$GPRMC,112317.000,A,5141.3721,N,01212.5365,E,63.16,6.59,060214,,,A*53
$GPGGA,112325.000,5141.5117,N,01212.5625,E,1,11,0.75,79.0,M,46.6,M,,*55
$GPRMC,112324.000,A,5141.4943,N,01212.5590,E,62.77,6.82,060214,,,A*52
$GPGGA,112331.000,5141.6213,N,01212.5832,E,1,11,0.75,80.1,M,46.6,M,,*5B
$GPRMC,112330.000,A,5141.6027,N,01212.5797,E,67.06,6.69,060214,,,A*5D
$GPGGA,112337.000,5141.7310,N,01212.6038,E,1,11,0.75,81.2,M,46.6,M,,*5D
$GPRMC,112336.000,A,5141.7126,N,01212.6003,E,66.86,6.72,060214,,,A*50
$GPGGA,112344.000,5141.8546,N,01212.6274,E,1,11,0.75,81.9,M,46.6,M,,*52
$GPRMC,112343.000,A,5141.8377,N,01212.6241,E,62.11,6.70,060214,,,A*57
$GPGGA,112351.000,5141.9721,N,01212.6504,E,1,11,0.75,82.2,M,46.6,M,,*5C
$GPRMC,112350.000,A,5141.9546,N,01212.6470,E,62.47,6.73,060214,,,A*54
$GPGGA,112358.000,5142.0945,N,01212.6736,E,1,11,0.75,82.1,M,46.6,M,,*53
$GPRMC,112357.000,A,5142.0774,N,01212.6702,E,62.23,6.76,060214,,,A*5B
$GPGGA,112405.000,5142.2106,N,01212.6955,E,1,11,0.75,81.6,M,46.6,M,,*5E
$GPRMC,112404.000,A,5142.1938,N,01212.6924,E,60.72,6.53,060214,,,A*56
$GPGGA,112412.000,5142.3306,N,01212.7177,E,1,11,0.75,80.7,M,46.6,M,,*52
$GPRMC,112411.000,A,5142.3136,N,01212.7146,E,62.16,6.48,060214,,,A*51
$GPGGA,112419.000,5142.4468,N,01212.7406,E,1,11,0.75,79.8,M,46.6,M,,*5B
$GPRMC,112418.000,A,5142.4299,N,01212.7373,E,60.87,6.95,060214,,,A*57
$GPGGA,112426.000,5142.5691,N,01212.7641,E,1,11,0.75,79.2,M,46.6,M,,*59
$GPRMC,112425.000,A,5142.5508,N,01212.7606,E,65.54,6.86,060214,,,A*59
$GPGGA,112433.000,5142.6926,N,01212.7868,E,1,11,0.75,79.4,M,46.6,M,,*5E
$GPRMC,112432.000,A,5142.6755,N,01212.7837,E,62.07,6.52,060214,,,A*52
$GPGGA,112440.000,5142.8155,N,01212.8097,E,1,11,0.75,79.7,M,46.6,M,,*5C
$GPRMC,112439.000,A,5142.7982,N,01212.8064,E,63.10,6.73,060214,,,A*59
$GPGGA,112447.000,5142.9344,N,01212.8329,E,1,11,0.75,79.1,M,46.6,M,,*58
$GPRMC,112446.000,A,5142.9176,N,01212.8298,E,61.36,6.63,060214,,,A*5A
$GPGGA,112454.000,5143.0475,N,01212.8529,E,1,11,0.75,78.6,M,46.6,M,,*57
$GPRMC,112453.000,A,5143.0317,N,01212.8499,E,56.99,6.43,060214,,,A*57
$GPGGA,112501.000,5143.1546,N,01212.8738,E,1,11,0.75,78.3,M,46.6,M,,*51
$GPRMC,112500.000,A,5143.1393,N,01212.8708,E,55.70,6.87,060214,,,A*5A
$GPGGA,112509.000,5143.2752,N,01212.8967,E,1,11,0.75,78.5,M,46.6,M,,*5F
$GPRMC,112508.000,A,5143.2602,N,01212.8939,E,54.12,6.63,060214,,,A*5F
$GPGGA,112517.000,5143.3947,N,01212.9198,E,1,11,0.75,78.5,M,46.6,M,,*52
$GPRMC,112516.000,A,5143.3797,N,01212.9169,E,54.48,6.71,060214,,,A*5C
$GPGGA,112525.000,5143.5114,N,01212.9421,E,1,11,0.75,77.8,M,46.6,M,,*5E
$GPRMC,112524.000,A,5143.4969,N,01212.9394,E,52.36,6.62,060214,,,A*58
$GPGGA,112533.000,5143.6287,N,01212.9645,E,1,11,0.75,76.9,M,46.6,M,,*53
$GPRMC,112532.000,A,5143.6137,N,01212.9616,E,54.12,6.75,060214,,,A*57
$GPGGA,112540.000,5143.7364,N,01212.9847,E,1,11,0.75,76.2,M,46.6,M,,*5D
$GPRMC,112539.000,A,5143.7210,N,01212.9818,E,56.04,6.49,060214,,,A*51
$GPGGA,112547.000,5143.8455,N,01213.0053,E,1,11,0.75,76.1,M,46.5,M,,*55
$GPRMC,112546.000,A,5143.8296,N,01213.0022,E,57.48,6.80,060214,,,A*5D
$GPGGA,112554.000,5143.9625,N,01213.0278,E,1,8,0.95,74.9,M,46.5,M,,*64
$GPRMC,112553.000,A,5143.9454,N,01213.0245,E,61.43,6.80,060214,,,A*5D
$GPGGA,112600.000,5144.0703,N,01213.0536,E,1,9,0.89,75.2,M,46.5,M,,*66
$GPRMC,112559.000,A,5144.0517,N,01213.0488,E,67.06,9.12,060214,,,A*5B
$GPGGA,112606.000,5144.1818,N,01213.0869,E,1,8,0.97,75.8,M,46.5,M,,*67
$GPRMC,112605.000,A,5144.1633,N,01213.0811,E,67.42,11.01,060214,,,A*62
$GPGGA,112612.000,5144.2912,N,01213.1273,E,1,8,1.11,76.7,M,46.5,M,,*69
$GPRMC,112611.000,A,5144.2728,N,01213.1199,E,67.39,13.76,060214,,,A*69
$GPGGA,112618.000,5144.4024,N,01213.1769,E,1,9,0.88,77.2,M,46.5,M,,*63
$GPRMC,112617.000,A,5144.3839,N,01213.1678,E,69.55,16.00,060214,,,A*69
$GPGGA,112624.000,5144.5134,N,01213.2344,E,1,10,0.81,77.2,M,46.5,M,,*54
$GPRMC,112623.000,A,5144.4953,N,01213.2245,E,69.37,18.43,060214,,,A*60
$GPGGA,112631.000,5144.6262,N,01213.3016,E,1,10,0.79,77.2,M,46.5,M,,*51
$GPRMC,112630.000,A,5144.6110,N,01213.2920,E,59.48,20.94,060214,,,A*6D
$GPGGA,112638.000,5144.7284,N,01213.3699,E,1,9,0.95,76.9,M,46.5,M,,*60
$GPRMC,112637.000,A,5144.7142,N,01213.3602,E,55.92,22.77,060214,,,A*66
$GPGGA,112645.000,5144.8271,N,01213.4395,E,1,9,0.88,76.2,M,46.5,M,,*66
$GPRMC,112644.000,A,5144.8125,N,01213.4290,E,56.35,23.78,060214,,,A*64
$GPGGA,112652.000,5144.9419,N,01213.5261,E,1,10,0.79,75.6,M,46.5,M,,*53
$GPRMC,112651.000,A,5144.9241,N,01213.5126,E,69.77,25.27,060214,,,A*69
$GPGGA,112658.000,5145.0535,N,01213.6122,E,1,11,0.75,75.1,M,46.5,M,,*53
$GPRMC,112657.000,A,5145.0344,N,01213.5975,E,75.40,25.84,060214,,,A*6D
$GPGGA,112704.000,5145.1654,N,01213.7007,E,1,10,0.79,72.9,M,46.5,M,,*5B
$GPRMC,112703.000,A,5145.1474,N,01213.6861,E,72.70,26.28,060214,,,A*6E
$GPGGA,112711.000,5145.2773,N,01213.7879,E,1,10,0.79,72.2,M,46.5,M,,*52
$GPRMC,112710.000,A,5145.2616,N,01213.7757,E,61.91,25.90,060214,,,A*6F
$GPGGA,112717.000,5145.3820,N,01213.8693,E,1,10,0.76,71.8,M,46.5,M,,*5F
$GPRMC,112716.000,A,5145.3634,N,01213.8547,E,73.27,26.02,060214,,,A*62
$GPGGA,112722.000,5145.4792,N,01213.9456,E,1,8,0.90,71.1,M,46.5,M,,*6A
$GPRMC,112721.000,A,5145.4596,N,01213.9302,E,79.14,25.85,060214,,,A*6A
$GPGGA,112728.000,5145.5942,N,01214.0360,E,1,10,0.76,70.1,M,46.5,M,,*5E
$GPRMC,112727.000,A,5145.5750,N,01214.0210,E,75.91,26.00,060214,,,A*66
$GPGGA,112733.000,5145.6939,N,01214.1137,E,1,8,0.90,69.9,M,46.5,M,,*6B
$GPRMC,112732.000,A,5145.6736,N,01214.0978,E,80.94,25.84,060214,,,A*64
$GPGGA,112738.000,5145.7950,N,01214.1982,E,1,8,1.10,69.7,M,46.5,M,,*6F
$GPRMC,112737.000,A,5145.7752,N,01214.1801,E,81.90,28.90,060214,,,A*61
$GPGGA,112743.000,5145.8906,N,01214.2988,E,1,10,0.79,69.2,M,46.5,M,,*54
$GPRMC,112742.000,A,5145.8719,N,01214.2773,E,82.56,34.76,060214,,,A*66
$GPGGA,112748.000,5145.9789,N,01214.4157,E,1,11,0.75,69.7,M,46.5,M,,*53
$GPRMC,112747.000,A,5145.9621,N,01214.3914,E,81.87,41.17,060214,,,A*6C
$GPGGA,112753.000,5146.0558,N,01214.5417,E,1,9,0.93,71.4,M,46.5,M,,*66
$GPRMC,112752.000,A,5146.0410,N,01214.5157,E,78.74,46.72,060214,,,A*65
$GPGGA,112759.000,5146.1389,N,01214.6939,E,1,9,0.93,74.1,M,46.5,M,,*65
$GPRMC,112758.000,A,5146.1254,N,01214.6690,E,73.30,48.48,060214,,,A*6B
$GPGGA,112805.000,5146.2231,N,01214.8516,E,1,10,0.80,74.8,M,46.5,M,,*5E
$GPRMC,112804.000,A,5146.2085,N,01214.8245,E,79.38,48.76,060214,,,A*6D
$GPGGA,112810.000,5146.2976,N,01214.9930,E,1,10,0.80,73.0,M,46.5,M,,*54
$GPRMC,112809.000,A,5146.2825,N,01214.9647,E,83.79,48.97,060214,,,A*6A
$GPGGA,112815.000,5146.3714,N,01215.1314,E,1,11,0.75,69.3,M,46.5,M,,*5C
$GPRMC,112814.000,A,5146.3569,N,01215.1042,E,80.19,49.51,060214,,,A*66
$GPGGA,112820.000,5146.4472,N,01215.2745,E,1,11,0.75,65.8,M,46.5,M,,*5A
$GPRMC,112819.000,A,5146.4317,N,01215.2450,E,85.74,49.47,060214,,,A*6E
$GPGGA,112825.000,5146.5247,N,01215.4226,E,1,11,0.75,62.6,M,46.5,M,,*51
$GPRMC,112824.000,A,5146.5093,N,01215.3936,E,85.56,49.63,060214,,,A*64
$GPGGA,112830.000,5146.6016,N,01215.5672,E,1,9,0.88,60.6,M,46.5,M,,*6D
$GPRMC,112829.000,A,5146.5859,N,01215.5377,E,86.21,49.27,060214,,,A*6D
$GPGGA,112835.000,5146.6821,N,01215.7186,E,1,8,1.04,59.6,M,46.5,M,,*64
$GPRMC,112834.000,A,5146.6660,N,01215.6884,E,89.31,49.27,060214,,,A*6C
$GPGGA,112840.000,5146.7633,N,01215.8599,E,1,8,1.04,60.1,M,46.5,M,,*62
$GPRMC,112839.000,A,5146.7466,N,01215.8327,E,85.95,45.67,060214,,,A*62
$GPGGA,112845.000,5146.8496,N,01215.9821,E,1,10,0.79,58.8,M,46.5,M,,*5A
$GPRMC,112844.000,A,5146.8320,N,01215.9594,E,81.75,39.73,060214,,,A*69
$GPGGA,112850.000,5146.9411,N,01216.0859,E,1,10,0.79,57.9,M,46.5,M,,*5B
$GPRMC,112849.000,A,5146.9224,N,01216.0664,E,80.52,34.07,060214,,,A*6C
$GPGGA,112855.000,5147.0418,N,01216.1740,E,1,9,0.87,58.4,M,46.5,M,,*62
$GPRMC,112854.000,A,5147.0212,N,01216.1575,E,83.30,27.37,060214,,,A*69
$GPGGA,112900.000,5147.1504,N,01216.2495,E,1,10,0.79,60.4,M,46.5,M,,*54
$GPRMC,112859.000,A,5147.1279,N,01216.2351,E,86.49,21.97,060214,,,A*6C
$GPGGA,112905.000,5147.2649,N,01216.3203,E,1,11,0.75,61.9,M,46.5,M,,*51
$GPRMC,112904.000,A,5147.2422,N,01216.3063,E,87.83,21.18,060214,,,A*6D
$GPGGA,112910.000,5147.3786,N,01216.3884,E,1,11,0.75,62.0,M,46.5,M,,*59
$GPRMC,112909.000,A,5147.3559,N,01216.3749,E,87.47,20.43,060214,,,A*64
$GPGGA,112915.000,5147.4849,N,01216.4611,E,1,9,0.87,62.5,M,46.5,M,,*63
$GPRMC,112914.000,A,5147.4648,N,01216.4456,E,81.04,24.99,060214,,,A*64
$GPGGA,112920.000,5147.5839,N,01216.5445,E,1,9,0.87,64.4,M,46.5,M,,*66
$GPRMC,112919.000,A,5147.5642,N,01216.5278,E,80.04,27.62,060214,,,A*6F
$GPGGA,112925.000,5147.6846,N,01216.6306,E,1,10,0.79,64.4,M,46.5,M,,*52
$GPRMC,112924.000,A,5147.6639,N,01216.6133,E,83.68,27.65,060214,,,A*6F
$GPGGA,112930.000,5147.7892,N,01216.7175,E,1,10,0.79,63.6,M,46.5,M,,*5C
$GPRMC,112929.000,A,5147.7685,N,01216.7003,E,84.74,27.19,060214,,,A*66
$GPGGA,112935.000,5147.8909,N,01216.8034,E,1,9,0.87,63.6,M,46.5,M,,*67
$GPRMC,112934.000,A,5147.8704,N,01216.7860,E,83.43,27.46,060214,,,A*69
$GPGGA,112940.000,5147.9959,N,01216.8905,E,1,10,0.79,63.9,M,46.4,M,,*5D
$GPRMC,112939.000,A,5147.9748,N,01216.8731,E,85.24,27.17,060214,,,A*6A
$GPGGA,112945.000,5148.0985,N,01216.9756,E,1,11,0.75,63.7,M,46.4,M,,*55
$GPRMC,112944.000,A,5148.0782,N,01216.9584,E,82.72,27.41,060214,,,A*6A
$GPGGA,112950.000,5148.2001,N,01217.0613,E,1,11,0.75,62.3,M,46.4,M,,*5B
$GPRMC,112949.000,A,5148.1798,N,01217.0435,E,82.93,28.04,060214,,,A*6F
$GPGGA,112955.000,5148.2953,N,01217.1580,E,1,11,0.75,60.5,M,46.4,M,,*5C
$GPRMC,112954.000,A,5148.2770,N,01217.1378,E,79.73,33.69,060214,,,A*62
$GPGGA,113000.000,5148.3848,N,01217.2716,E,1,11,0.75,59.2,M,46.4,M,,*5D
$GPRMC,112959.000,A,5148.3673,N,01217.2474,E,82.47,39.68,060214,,,A*6C
$GPGGA,113005.000,5148.4674,N,01217.4011,E,1,11,0.75,57.4,M,46.4,M,,*50
$GPRMC,113004.000,A,5148.4515,N,01217.3748,E,81.70,45.36,060214,,,A*62
$GPGGA,113010.000,5148.5473,N,01217.5320,E,1,11,0.75,55.5,M,46.4,M,,*53
$GPRMC,113009.000,A,5148.5311,N,01217.5053,E,82.68,45.16,060214,,,A*6F
$GPGGA,113015.000,5148.6278,N,01217.6673,E,1,11,0.75,54.6,M,46.4,M,,*5A
$GPRMC,113014.000,A,5148.6120,N,01217.6405,E,82.86,46.23,060214,,,A*61
$GPGGA,113020.000,5148.7043,N,01217.7955,E,1,11,0.75,53.6,M,46.4,M,,*5A
$GPRMC,113019.000,A,5148.6894,N,01217.7706,E,78.02,45.63,060214,,,A*65
$GPGGA,113026.000,5148.7906,N,01217.9434,E,1,11,0.75,53.8,M,46.4,M,,*5E
$GPRMC,113025.000,A,5148.7762,N,01217.9189,E,75.56,46.51,060214,,,A*6C
$GPGGA,113032.000,5148.8836,N,01218.0844,E,1,11,0.75,54.5,M,46.4,M,,*51
$GPRMC,113031.000,A,5148.8669,N,01218.0619,E,78.28,40.85,060214,,,A*6F
$GPGGA,113037.000,5148.9733,N,01218.1893,E,1,11,0.75,54.4,M,46.4,M,,*55
$GPRMC,113036.000,A,5148.9549,N,01218.1697,E,79.21,34.45,060214,,,A*68
$GPGGA,113042.000,5149.0688,N,01218.2850,E,1,11,0.75,54.1,M,46.4,M,,*57
$GPRMC,113041.000,A,5149.0493,N,01218.2658,E,81.99,31.85,060214,,,A*6B
$GPGGA,113047.000,5149.1663,N,01218.3821,E,1,11,0.75,55.9,M,46.4,M,,*58
$GPRMC,113046.000,A,5149.1468,N,01218.3627,E,82.34,31.89,060214,,,A*68
$GPGGA,113052.000,5149.2636,N,01218.4792,E,1,11,0.75,58.4,M,46.4,M,,*5F
$GPRMC,113051.000,A,5149.2445,N,01218.4601,E,81.18,31.69,060214,,,A*62
$GPGGA,113057.000,5149.3593,N,01218.5745,E,1,11,0.75,59.0,M,46.4,M,,*59
$GPRMC,113056.000,A,5149.3400,N,01218.5553,E,81.72,31.95,060214,,,A*6F
$GPGGA,113102.000,5149.4555,N,01218.6699,E,1,11,0.75,57.7,M,46.4,M,,*5F
$GPRMC,113101.000,A,5149.4360,N,01218.6506,E,81.99,31.77,060214,,,A*60
$GPGGA,113107.000,5149.5560,N,01218.7677,E,1,11,0.75,54.3,M,46.4,M,,*5B
$GPRMC,113106.000,A,5149.5358,N,01218.7475,E,85.14,31.47,060214,,,A*6B
$GPGGA,113112.000,5149.6593,N,01218.8725,E,1,11,0.75,53.0,M,46.4,M,,*5D
$GPRMC,113111.000,A,5149.6384,N,01218.8510,E,88.84,32.69,060214,,,A*69
$GPGGA,113117.000,5149.7651,N,01218.9794,E,1,11,0.75,52.7,M,46.4,M,,*59
$GPRMC,113116.000,A,5149.7438,N,01218.9580,E,90.24,32.03,060214,,,A*68
$GPGGA,113122.000,5149.8713,N,01219.0858,E,1,10,0.76,53.2,M,46.4,M,,*56
$GPRMC,113121.000,A,5149.8500,N,01219.0646,E,90.01,31.77,060214,,,A*6F
$GPGGA,113127.000,5149.9800,N,01219.1807,E,1,8,1.12,53.6,M,46.4,M,,*6A
$GPRMC,113126.000,A,5149.9575,N,01219.1633,E,89.38,26.62,060214,,,A*68
$GPGGA,113132.000,5150.0934,N,01219.2541,E,1,9,0.87,53.3,M,46.4,M,,*6C
$GPRMC,113131.000,A,5150.0709,N,01219.2410,E,87.20,19.76,060214,,,A*68
$GPGGA,113137.000,5150.2033,N,01219.3197,E,1,10,0.81,53.4,M,46.4,M,,*52
$GPRMC,113136.000,A,5150.1814,N,01219.3064,E,84.46,20.48,060214,,,A*6F
$GPGGA,113142.000,5150.3142,N,01219.3868,E,1,11,0.75,54.5,M,46.4,M,,*53
$GPRMC,113141.000,A,5150.2919,N,01219.3733,E,85.87,20.76,060214,,,A*64
$GPGGA,113147.000,5150.4263,N,01219.4545,E,1,10,0.81,54.6,M,46.4,M,,*5D
$GPRMC,113146.000,A,5150.4037,N,01219.4408,E,86.86,20.71,060214,,,A*69
$GPGGA,113152.000,5150.5388,N,01219.5228,E,1,9,0.87,54.9,M,46.4,M,,*60
$GPRMC,113151.000,A,5150.5164,N,01219.5091,E,86.29,20.80,060214,,,A*67
$GPGGA,113157.000,5150.6501,N,01219.5905,E,1,10,0.79,55.6,M,46.4,M,,*52
$GPRMC,113156.000,A,5150.6280,N,01219.5769,E,85.20,20.76,060214,,,A*69
$GPGGA,113202.000,5150.7583,N,01219.6681,E,1,10,0.79,55.7,M,46.4,M,,*5B
$GPRMC,113201.000,A,5150.7371,N,01219.6507,E,85.66,25.97,060214,,,A*67
$GPGGA,113207.000,5150.8618,N,01219.7629,E,1,9,0.87,55.4,M,46.4,M,,*69
$GPRMC,113206.000,A,5150.8417,N,01219.7434,E,84.87,30.28,060214,,,A*66
$GPGGA,113212.000,5150.9579,N,01219.8661,E,1,9,0.82,55.3,M,46.4,M,,*69
$GPRMC,113211.000,A,5150.9392,N,01219.8452,E,82.33,34.32,060214,,,A*62
$GPGGA,113217.000,5151.0471,N,01219.9784,E,1,9,0.87,55.3,M,46.4,M,,*63
$GPRMC,113216.000,A,5151.0299,N,01219.9549,E,81.68,39.92,060214,,,A*67
$GPGGA,113222.000,5151.1301,N,01220.1094,E,1,10,0.79,54.7,M,46.4,M,,*5C
$GPRMC,113221.000,A,5151.1140,N,01220.0813,E,84.37,46.32,060214,,,A*69
$GPGGA,113227.000,5151.2088,N,01220.2555,E,1,11,0.75,55.0,M,46.4,M,,*58
$GPRMC,113226.000,A,5151.1938,N,01220.2252,E,86.19,50.04,060214,,,A*68
$GPGGA,113232.000,5151.2797,N,01220.4138,E,1,11,0.75,57.0,M,46.4,M,,*5E
$GPRMC,113231.000,A,5151.2659,N,01220.3816,E,87.73,54.37,060214,,,A*67
$GPGGA,113237.000,5151.3482,N,01220.5754,E,1,11,0.75,59.4,M,46.4,M,,*5A
$GPRMC,113236.000,A,5151.3347,N,01220.5441,E,86.53,55.07,060214,,,A*62
$GPGGA,113242.000,5151.4130,N,01220.7291,E,1,11,0.75,62.0,M,46.4,M,,*51
$GPRMC,113241.000,A,5151.4003,N,01220.6982,E,82.73,56.17,060214,,,A*63
$GPGGA,113247.000,5151.4780,N,01220.8823,E,1,11,0.75,64.5,M,46.4,M,,*56
$GPRMC,113246.000,A,5151.4648,N,01220.8516,E,82.96,55.00,060214,,,A*6C
$GPGGA,113252.000,5151.5451,N,01221.0384,E,1,11,0.75,65.5,M,46.3,M,,*55
$GPRMC,113251.000,A,5151.5315,N,01221.0068,E,85.63,55.13,060214,,,A*6C
$GPGGA,113257.000,5151.6148,N,01221.1998,E,1,11,0.75,64.0,M,46.3,M,,*5C
$GPRMC,113256.000,A,5151.6007,N,01221.1671,E,88.53,54.95,060214,,,A*66
$GPGGA,113302.000,5151.6863,N,01221.3644,E,1,11,0.75,61.0,M,46.3,M,,*54
$GPRMC,113301.000,A,5151.6718,N,01221.3318,E,89.47,54.46,060214,,,A*6E
$GPGGA,113307.000,5151.7587,N,01221.5268,E,1,11,0.75,57.9,M,46.3,M,,*57
$GPRMC,113306.000,A,5151.7443,N,01221.4939,E,89.54,54.65,060214,,,A*68
$GPGGA,113312.000,5151.8305,N,01221.6927,E,1,11,0.75,54.6,M,46.3,M,,*5F
$GPRMC,113311.000,A,5151.8161,N,01221.6595,E,90.19,55.06,060214,,,A*69
$GPGGA,113317.000,5151.9007,N,01221.8586,E,1,11,0.75,52.1,M,46.3,M,,*52
$GPRMC,113316.000,A,5151.8870,N,01221.8257,E,88.71,56.09,060214,,,A*6B
$GPGGA,113322.000,5151.9669,N,01222.0259,E,1,11,0.75,52.1,M,46.3,M,,*54
$GPRMC,113321.000,A,5151.9542,N,01221.9918,E,88.24,58.30,060214,,,A*67
$GPGGA,113327.000,5152.0262,N,01222.2003,E,1,11,0.75,52.5,M,46.3,M,,*5F
$GPRMC,113326.000,A,5152.0148,N,01222.1658,E,87.78,61.81,060214,,,A*62
$GPGGA,113332.000,5152.0806,N,01222.3664,E,1,11,0.75,52.5,M,46.3,M,,*55
$GPRMC,113331.000,A,5152.0699,N,01222.3336,E,83.06,62.26,060214,,,A*63
$GPGGA,113337.000,5152.1342,N,01222.5317,E,1,11,0.75,52.6,M,46.3,M,,*5E
$GPRMC,113336.000,A,5152.1234,N,01222.4985,E,83.60,62.37,060214,,,A*63
$GPGGA,113342.000,5152.1905,N,01222.6971,E,1,11,0.75,54.5,M,46.3,M,,*59
$GPRMC,113341.000,A,5152.1784,N,01222.6647,E,84.28,59.74,060214,,,A*6A
$GPGGA,113347.000,5152.2552,N,01222.8527,E,1,10,0.79,54.6,M,46.3,M,,*5E
$GPRMC,113346.000,A,5152.2416,N,01222.8221,E,83.95,54.68,060214,,,A*6D
$GPGGA,113352.000,5152.3296,N,01223.0023,E,1,9,0.83,53.8,M,46.3,M,,*68
$GPRMC,113351.000,A,5152.3138,N,01222.9729,E,85.83,50.01,060214,,,A*65
$GPGGA,113357.000,5152.4133,N,01223.1423,E,1,10,0.79,53.2,M,46.3,M,,*54
$GPRMC,113356.000,A,5152.3960,N,01223.1152,E,86.28,44.85,060214,,,A*6F
$GPGGA,113402.000,5152.5058,N,01223.2731,E,1,10,0.79,52.8,M,46.3,M,,*56
$GPRMC,113401.000,A,5152.4865,N,01223.2477,E,89.52,40.13,060214,,,A*61
$GPGGA,113407.000,5152.6082,N,01223.3895,E,1,10,0.79,52.3,M,46.3,M,,*5C
$GPRMC,113406.000,A,5152.5871,N,01223.3674,E,90.17,33.97,060214,,,A*63
$GPGGA,113412.000,5152.7163,N,01223.4910,E,1,10,0.79,51.7,M,46.3,M,,*5B
$GPRMC,113411.000,A,5152.6943,N,01223.4721,E,89.57,29.08,060214,,,A*61
$GPGGA,113417.000,5152.8259,N,01223.5828,E,1,10,0.79,53.3,M,46.3,M,,*56
$GPRMC,113416.000,A,5152.8039,N,01223.5643,E,88.89,28.15,060214,,,A*67
$GPGGA,113422.000,5152.9351,N,01223.6757,E,1,10,0.79,56.6,M,46.3,M,,*5C
$GPRMC,113421.000,A,5152.9134,N,01223.6573,E,88.29,28.14,060214,,,A*66
$GPGGA,113427.000,5153.0419,N,01223.7673,E,1,10,0.79,58.9,M,46.3,M,,*5D
$GPRMC,113426.000,A,5153.0205,N,01223.7491,E,86.96,28.09,060214,,,A*62
$GPGGA,113432.000,5153.1467,N,01223.8568,E,1,9,0.87,60.8,M,46.3,M,,*64
$GPRMC,113431.000,A,5153.1262,N,01223.8393,E,83.78,27.98,060214,,,A*6C
$GPGGA,113437.000,5153.2484,N,01223.9422,E,1,10,0.79,62.7,M,46.3,M,,*55
$GPRMC,113436.000,A,5153.2278,N,01223.9251,E,83.15,27.42,060214,,,A*61
$GPGGA,113442.000,5153.3509,N,01224.0301,E,1,9,0.81,65.2,M,46.3,M,,*67
$GPRMC,113441.000,A,5153.3305,N,01224.0122,E,83.99,28.19,060214,,,A*67
$GPGGA,113447.000,5153.4528,N,01224.1185,E,1,10,0.79,66.4,M,46.3,M,,*53
$GPRMC,113446.000,A,5153.4327,N,01224.1006,E,81.46,27.55,060214,,,A*66
$GPGGA,113452.000,5153.5562,N,01224.2079,E,1,10,0.79,69.0,M,46.3,M,,*52
$GPRMC,113451.000,A,5153.5354,N,01224.1899,E,84.79,28.34,060214,,,A*6A
$GPGGA,113457.000,5153.6591,N,01224.2967,E,1,10,0.79,71.4,M,46.3,M,,*53
$GPRMC,113456.000,A,5153.6387,N,01224.2789,E,83.50,28.05,060214,,,A*63
$GPGGA,113502.000,5153.7622,N,01224.3866,E,1,10,0.80,73.9,M,46.3,M,,*50
$GPRMC,113501.000,A,5153.7416,N,01224.3684,E,85.14,28.52,060214,,,A*67
$GPGGA,113507.000,5153.8681,N,01224.4788,E,1,9,0.87,76.5,M,46.3,M,,*6D
$GPRMC,113506.000,A,5153.8467,N,01224.4602,E,86.90,28.31,060214,,,A*6A
$GPGGA,113512.000,5153.9750,N,01224.5735,E,1,10,0.79,78.5,M,46.3,M,,*55
$GPRMC,113511.000,A,5153.9535,N,01224.5545,E,87.82,28.76,060214,,,A*6B
$GPGGA,113517.000,5154.0817,N,01224.6733,E,1,9,0.87,79.5,M,46.3,M,,*6F
$GPRMC,113516.000,A,5154.0610,N,01224.6521,E,88.57,31.56,060214,,,A*6A
$GPGGA,113522.000,5154.1808,N,01224.7909,E,1,9,0.87,80.2,M,46.3,M,,*61
$GPRMC,113521.000,A,5154.1616,N,01224.7658,E,89.10,38.09,060214,,,A*64
$GPGGA,113527.000,5154.2722,N,01224.9293,E,1,10,0.79,79.5,M,46.3,M,,*5E
$GPRMC,113526.000,A,5154.2545,N,01224.8997,E,90.43,45.04,060214,,,A*6F
$GPGGA,113532.000,5154.3540,N,01225.0844,E,1,10,0.80,78.5,M,46.3,M,,*52
$GPRMC,113531.000,A,5154.3384,N,01225.0526,E,89.96,50.70,060214,,,A*6B
$GPGGA,113537.000,5154.4303,N,01225.2423,E,1,10,0.79,76.9,M,46.3,M,,*5A
$GPRMC,113536.000,A,5154.4149,N,01225.2107,E,89.05,51.44,060214,,,A*61
$GPGGA,113542.000,5154.5072,N,01225.3996,E,1,9,0.87,78.4,M,46.2,M,,*65
$GPRMC,113541.000,A,5154.4920,N,01225.3684,E,88.83,51.45,060214,,,A*65
$GPGGA,113547.000,5154.5808,N,01225.5504,E,1,9,0.83,81.2,M,46.2,M,,*60
$GPRMC,113546.000,A,5154.5665,N,01225.5213,E,83.47,51.68,060214,,,A*6D
$GPGGA,113552.000,5154.6506,N,01225.6914,E,1,10,0.80,83.6,M,46.2,M,,*57
$GPRMC,113551.000,A,5154.6363,N,01225.6635,E,80.03,50.35,060214,,,A*62
$GPGGA,113557.000,5154.7226,N,01225.8367,E,1,10,0.80,86.5,M,46.2,M,,*50
$GPRMC,113556.000,A,5154.7082,N,01225.8067,E,83.81,51.51,060214,,,A*6D
$GPGGA,113602.000,5154.7959,N,01225.9897,E,1,10,0.80,89.5,M,46.2,M,,*5A
$GPRMC,113601.000,A,5154.7812,N,01225.9590,E,86.64,52.06,060214,,,A*6E
$GPGGA,113607.000,5154.8767,N,01226.1397,E,1,9,0.87,92.2,M,46.2,M,,*61
$GPRMC,113606.000,A,5154.8597,N,01226.1113,E,88.38,46.62,060214,,,A*62
$GPGGA,113612.000,5154.9661,N,01226.2710,E,1,9,0.87,94.8,M,46.2,M,,*67
$GPRMC,113611.000,A,5154.9476,N,01226.2463,E,86.99,40.42,060214,,,A*6B
$GPGGA,113617.000,5155.0634,N,01226.3837,E,1,8,1.02,95.9,M,46.2,M,,*6C
$GPRMC,113616.000,A,5155.0431,N,01226.3624,E,86.76,33.82,060214,,,A*6E
$GPGGA,113622.000,5155.1704,N,01226.4802,E,1,9,0.87,97.2,M,46.2,M,,*6C
$GPRMC,113621.000,A,5155.1484,N,01226.4625,E,88.73,27.66,060214,,,A*67
$GPGGA,113627.000,5155.2862,N,01226.5578,E,1,9,0.87,98.6,M,46.2,M,,*6F
$GPRMC,113626.000,A,5155.2629,N,01226.5440,E,90.48,21.02,060214,,,A*63
$GPGGA,113632.000,5155.4024,N,01226.6105,E,1,10,0.80,100.2,M,46.2,M,,*61
$GPRMC,113631.000,A,5155.3792,N,01226.6015,E,85.61,14.67,060214,,,A*68
$GPGGA,113637.000,5155.5184,N,01226.6575,E,1,10,0.80,103.5,M,46.2,M,,*69
$GPRMC,113636.000,A,5155.4950,N,01226.6481,E,86.60,14.55,060214,,,A*62
$GPGGA,113642.000,5155.6343,N,01226.7044,E,1,9,0.87,107.0,M,46.2,M,,*59
$GPRMC,113641.000,A,5155.6111,N,01226.6952,E,86.02,14.55,060214,,,A*6A
$GPGGA,113647.000,5155.7539,N,01226.7516,E,1,9,0.87,111.5,M,46.2,M,,*56
$GPRMC,113646.000,A,5155.7297,N,01226.7418,E,89.79,14.22,060214,,,A*60
$GPGGA,113652.000,5155.8767,N,01226.8046,E,1,9,0.87,115.8,M,46.2,M,,*52
$GPRMC,113651.000,A,5155.8522,N,01226.7932,E,91.98,15.71,060214,,,A*64
$GPGGA,113657.000,5155.9981,N,01226.8631,E,1,9,0.87,116.3,M,46.2,M,,*5E
$GPRMC,113656.000,A,5155.9737,N,01226.8509,E,92.43,17.01,060214,,,A*6F
$GPGGA,113702.000,5156.1224,N,01226.9239,E,1,10,0.79,115.3,M,46.2,M,,*67
$GPRMC,113701.000,A,5156.0977,N,01226.9124,E,93.44,16.23,060214,,,A*61
$GPGGA,113707.000,5156.2410,N,01226.9785,E,1,9,0.87,115.9,M,46.2,M,,*51
$GPRMC,113706.000,A,5156.2178,N,01226.9682,E,86.88,15.55,060214,,,A*6E
$GPGGA,113712.000,5156.3574,N,01227.0274,E,1,9,0.87,118.9,M,46.2,M,,*59
$GPRMC,113711.000,A,5156.3339,N,01227.0177,E,87.24,14.55,060214,,,A*6D
$GPGGA,113717.000,5156.4770,N,01227.0770,E,1,9,0.87,121.9,M,46.2,M,,*56
$GPRMC,113716.000,A,5156.4530,N,01227.0670,E,89.40,14.51,060214,,,A*6A
$GPGGA,113722.000,5156.5940,N,01227.1251,E,1,9,0.87,124.1,M,46.2,M,,*56
$GPRMC,113721.000,A,5156.5708,N,01227.1155,E,86.36,14.51,060214,,,A*69
$GPGGA,113727.000,5156.7111,N,01227.1731,E,1,9,0.87,123.6,M,46.2,M,,*5E
$GPRMC,113726.000,A,5156.6876,N,01227.1635,E,87.36,14.34,060214,,,A*68
$GPGGA,113732.000,5156.8259,N,01227.2209,E,1,10,0.80,121.6,M,46.2,M,,*6A
$GPRMC,113731.000,A,5156.8031,N,01227.2113,E,84.62,14.65,060214,,,A*6D
$GPGGA,113737.000,5156.9423,N,01227.2695,E,1,8,0.97,118.9,M,46.2,M,,*5E
$GPRMC,113736.000,A,5156.9188,N,01227.2597,E,87.82,14.45,060214,,,A*6F
$GPGGA,113742.000,5157.0621,N,01227.3199,E,1,9,0.87,116.2,M,46.2,M,,*5B
$GPRMC,113741.000,A,5157.0381,N,01227.3097,E,89.63,14.39,060214,,,A*62
$GPGGA,113747.000,5157.1812,N,01227.3707,E,1,9,0.87,113.3,M,46.2,M,,*54
$GPRMC,113746.000,A,5157.1576,N,01227.3604,E,88.51,14.74,060214,,,A*6F
$GPGGA,113752.000,5157.2968,N,01227.4351,E,1,9,0.87,112.4,M,46.2,M,,*59
$GPRMC,113751.000,A,5157.2740,N,01227.4205,E,87.75,20.86,060214,,,A*6C
$GPGGA,113757.000,5157.4056,N,01227.5202,E,1,9,0.87,115.9,M,46.2,M,,*52
$GPRMC,113756.000,A,5157.3842,N,01227.5013,E,86.25,27.59,060214,,,A*62
$GPGGA,113802.000,5157.5074,N,01227.6228,E,1,9,0.87,117.6,M,46.2,M,,*5A
$GPRMC,113801.000,A,5157.4878,N,01227.6014,E,84.40,33.42,060214,,,A*6B
$GPGGA,113807.000,5157.6001,N,01227.7411,E,1,9,0.87,116.5,M,46.2,M,,*51
$GPRMC,113806.000,A,5157.5820,N,01227.7160,E,86.11,39.79,060214,,,A*67
$GPGGA,113812.000,5157.6852,N,01227.8775,E,1,9,0.81,112.6,M,46.2,M,,*54
$GPRMC,113811.000,A,5157.6689,N,01227.8485,E,86.94,46.68,060214,,,A*6B
$GPGGA,113817.000,5157.7603,N,01228.0296,E,1,9,0.93,110.7,M,46.2,M,,*55
$GPRMC,113816.000,A,5157.7458,N,01227.9984,E,86.60,52.51,060214,,,A*6A
$GPGGA,113822.000,5157.8342,N,01228.1934,E,1,10,0.79,110.1,M,46.2,M,,*64
$GPRMC,113821.000,A,5157.8192,N,01228.1599,E,91.44,53.81,060214,,,A*69
$GPGGA,113827.000,5157.9086,N,01228.3580,E,1,9,0.87,108.8,M,46.2,M,,*53
$GPRMC,113826.000,A,5157.8939,N,01228.3254,E,89.56,53.62,060214,,,A*64
$GPGGA,113832.000,5157.9821,N,01228.5201,E,1,10,0.79,107.7,M,46.2,M,,*63
$GPRMC,113831.000,A,5157.9674,N,01228.4885,E,88.62,53.38,060214,,,A*6D
$GPGGA,113837.000,5158.0534,N,01228.6734,E,1,9,0.87,106.2,M,46.2,M,,*54
$GPRMC,113836.000,A,5158.0393,N,01228.6428,E,84.95,53.04,060214,,,A*62
$GPGGA,113842.000,5158.1209,N,01228.8206,E,1,10,0.79,106.5,M,46.2,M,,*6A
$GPRMC,113841.000,A,5158.1077,N,01228.7919,E,80.40,53.24,060214,,,A*6A
$GPGGA,113847.000,5158.1840,N,01228.9720,E,1,10,0.80,106.6,M,46.1,M,,*6E
$GPRMC,113846.000,A,5158.1719,N,01228.9402,E,82.47,57.73,060214,,,A*68
$GPGGA,113852.000,5158.2378,N,01229.1360,E,1,10,0.80,106.2,M,46.1,M,,*64
$GPRMC,113851.000,A,5158.2277,N,01229.1029,E,81.83,62.55,060214,,,A*6D
$GPGGA,113857.000,5158.2834,N,01229.3134,E,1,10,0.80,104.3,M,46.1,M,,*60
$GPRMC,113856.000,A,5158.2741,N,01229.2768,E,87.06,67.10,060214,,,A*64
$GPGGA,113902.000,5158.3305,N,01229.4962,E,1,9,0.87,103.4,M,46.1,M,,*5A
$GPRMC,113901.000,A,5158.3211,N,01229.4599,E,87.47,66.71,060214,,,A*6F
$GPGGA,113907.000,5158.3777,N,01229.6769,E,1,10,0.80,103.0,M,46.1,M,,*62
$GPRMC,113906.000,A,5158.3683,N,01229.6407,E,87.18,66.84,060214,,,A*63
$GPGGA,113912.000,5158.4243,N,01229.8565,E,1,10,0.79,102.8,M,46.1,M,,*6C
$GPRMC,113911.000,A,5158.4150,N,01229.8203,E,86.50,67.01,060214,,,A*66
$GPGGA,113917.000,5158.4707,N,01230.0347,E,1,10,0.80,103.6,M,46.1,M,,*63
$GPRMC,113916.000,A,5158.4615,N,01230.0000,E,84.61,66.68,060214,,,A*68
$GPGGA,113922.000,5158.5176,N,01230.2079,E,1,10,0.79,103.3,M,46.1,M,,*6B
$GPRMC,113921.000,A,5158.5079,N,01230.1722,E,85.94,66.12,060214,,,A*61
$GPGGA,113927.000,5158.5705,N,01230.3904,E,1,10,0.80,104.0,M,46.1,M,,*6C
$GPRMC,113926.000,A,5158.5592,N,01230.3534,E,91.38,63.92,060214,,,A*6F
$GPGGA,113932.000,5158.6293,N,01230.5696,E,1,9,0.87,105.6,M,46.1,M,,*5B
$GPRMC,113931.000,A,5158.6172,N,01230.5341,E,89.63,61.52,060214,,,A*6B
$GPGGA,113937.000,5158.6918,N,01230.7490,E,1,9,0.87,107.1,M,46.1,M,,*55
$GPRMC,113936.000,A,5158.6792,N,01230.7127,E,92.22,60.78,060214,,,A*62
$GPGGA,113942.000,5158.7557,N,01230.9337,E,1,9,0.87,107.4,M,46.1,M,,*50
$GPRMC,113941.000,A,5158.7427,N,01230.8965,E,95.05,60.55,060214,,,A*62
$GPGGA,113947.000,5158.8193,N,01231.1125,E,1,10,0.80,108.9,M,46.1,M,,*63
$GPRMC,113946.000,A,5158.8070,N,01231.0778,E,89.74,60.10,060214,,,A*6D
$GPGGA,113952.000,5158.8810,N,01231.2867,E,1,9,0.87,110.6,M,46.1,M,,*50
$GPRMC,113951.000,A,5158.8687,N,01231.2516,E,89.59,60.30,060214,,,A*60
$GPGGA,113957.000,5158.9431,N,01231.4619,E,1,8,1.04,111.8,M,46.1,M,,*5E
$GPRMC,113956.000,A,5158.9306,N,01231.4269,E,89.81,60.25,060214,,,A*62
$GPGGA,114002.000,5159.0053,N,01231.6377,E,1,9,0.87,113.0,M,46.1,M,,*56
$GPRMC,114001.000,A,5158.9929,N,01231.6023,E,90.47,60.35,060214,,,A*64
$GPGGA,114007.000,5159.0688,N,01231.8145,E,1,8,1.03,115.1,M,46.1,M,,*55
$GPRMC,114006.000,A,5159.0560,N,01231.7790,E,91.13,59.92,060214,,,A*63
$GPGGA,114012.000,5159.1361,N,01231.9835,E,1,9,0.87,118.0,M,46.1,M,,*5D
$GPRMC,114011.000,A,5159.1224,N,01231.9515,E,86.62,55.65,060214,,,A*66
$GPGGA,114017.000,5159.2066,N,01232.1360,E,1,9,0.87,123.0,M,46.1,M,,*57
$GPRMC,114016.000,A,5159.1922,N,01232.1067,E,83.40,51.86,060214,,,A*6B
$GPGGA,114022.000,5159.2809,N,01232.2726,E,1,9,0.87,125.5,M,46.1,M,,*56
$GPRMC,114021.000,A,5159.2657,N,01232.2469,E,79.95,47.73,060214,,,A*68
$GPGGA,114028.000,5159.3720,N,01232.4163,E,1,9,0.87,125.6,M,46.1,M,,*5B
$GPRMC,114027.000,A,5159.3565,N,01232.3935,E,76.47,43.16,060214,,,A*6F
$GPGGA,114034.000,5159.4668,N,01232.5558,E,1,10,0.80,124.7,M,46.1,M,,*6E
$GPRMC,114033.000,A,5159.4509,N,01232.5321,E,77.50,42.37,060214,,,A*6B
$GPGGA,114039.000,5159.5472,N,01232.6743,E,1,8,0.90,125.0,M,46.1,M,,*5E
$GPRMC,114038.000,A,5159.5313,N,01232.6509,E,78.31,42.64,060214,,,A*6D
$GPGGA,114044.000,5159.6280,N,01232.7915,E,1,8,0.89,125.5,M,46.1,M,,*5D
$GPRMC,114043.000,A,5159.6117,N,01232.7680,E,78.43,42.22,060214,,,A*60
$GPGGA,114049.000,5159.7103,N,01232.9127,E,1,8,0.90,125.5,M,46.1,M,,*56
$GPRMC,114048.000,A,5159.6937,N,01232.8885,E,81.13,42.41,060214,,,A*63
$GPGGA,114054.000,5159.7931,N,01233.0352,E,1,9,0.87,124.5,M,46.1,M,,*5D
$GPRMC,114053.000,A,5159.7762,N,01233.0102,E,81.99,42.56,060214,,,A*6D
$GPGGA,114059.000,5159.8808,N,01233.1663,E,1,9,0.87,123.1,M,46.1,M,,*51
$GPRMC,114058.000,A,5159.8629,N,01233.1395,E,87.15,42.79,060214,,,A*65
$GPGGA,114104.000,5159.9731,N,01233.3024,E,1,9,0.87,121.9,M,46.1,M,,*51
$GPRMC,114103.000,A,5159.9542,N,01233.2749,E,90.72,42.16,060214,,,A*6D
$GPGGA,114109.000,5200.0659,N,01233.4328,E,1,9,0.87,122.1,M,46.1,M,,*56
$GPRMC,114108.000,A,5200.0470,N,01233.4075,E,87.27,40.26,060214,,,A*69
$GPGGA,114114.000,5200.1627,N,01233.5573,E,1,9,0.87,126.6,M,46.1,M,,*58
$GPRMC,114113.000,A,5200.1431,N,01233.5327,E,88.90,38.02,060214,,,A*68
$GPGGA,114119.000,5200.2628,N,01233.6769,E,1,9,0.87,131.2,M,46.1,M,,*51
$GPRMC,114118.000,A,5200.2426,N,01233.6535,E,89.25,35.76,060214,,,A*61
$GPGGA,114124.000,5200.3649,N,01233.7934,E,1,9,0.87,132.8,M,46.0,M,,*56
$GPRMC,114123.000,A,5200.3445,N,01233.7700,E,90.25,35.22,060214,,,A*61
$GPGGA,114129.000,5200.4680,N,01233.9116,E,1,9,0.87,134.9,M,46.0,M,,*58
$GPRMC,114128.000,A,5200.4472,N,01233.8879,E,91.66,35.41,060214,,,A*64
$GPGGA,114134.000,5200.5720,N,01234.0309,E,1,8,0.88,136.7,M,46.0,M,,*5E
$GPRMC,114133.000,A,5200.5516,N,01234.0072,E,90.90,35.49,060214,,,A*60
$GPGGA,114139.000,5200.6690,N,01234.1547,E,1,9,0.87,138.0,M,46.0,M,,*50
$GPRMC,114138.000,A,5200.6502,N,01234.1284,E,88.89,40.20,060214,,,A*6B
$GPGGA,114144.000,5200.7587,N,01234.2991,E,1,9,0.87,137.3,M,46.0,M,,*56
$GPRMC,114143.000,A,5200.7415,N,01234.2688,E,90.95,46.84,060214,,,A*66
$GPGGA,114149.000,5200.8353,N,01234.4567,E,1,9,0.87,137.3,M,46.0,M,,*58
$GPRMC,114148.000,A,5200.8210,N,01234.4245,E,88.35,53.35,060214,,,A*6F
$GPGGA,114154.000,5200.9019,N,01234.6166,E,1,9,0.87,139.1,M,46.0,M,,*53
$GPRMC,114153.000,A,5200.8891,N,01234.5855,E,83.76,56.31,060214,,,A*61
$GPGGA,114159.000,5200.9644,N,01234.7698,E,1,9,0.87,139.9,M,46.0,M,,*5F
$GPRMC,114158.000,A,5200.9518,N,01234.7392,E,81.45,56.37,060214,,,A*61
$GPGGA,114204.000,5201.0283,N,01234.9259,E,1,10,0.80,139.2,M,46.0,M,,*60
$GPRMC,114203.000,A,5201.0156,N,01234.8946,E,82.94,56.33,060214,,,A*6D
$GPGGA,114209.000,5201.0926,N,01235.0823,E,1,9,0.87,137.1,M,46.0,M,,*54
$GPRMC,114208.000,A,5201.0797,N,01235.0511,E,83.32,56.36,060214,,,A*62
$GPGGA,114214.000,5201.1589,N,01235.2439,E,1,10,0.80,133.2,M,46.0,M,,*6D
$GPRMC,114213.000,A,5201.1454,N,01235.2109,E,87.91,56.49,060214,,,A*6F
$GPGGA,114219.000,5201.2263,N,01235.4081,E,1,9,0.87,129.2,M,46.0,M,,*55
$GPRMC,114218.000,A,5201.2129,N,01235.3754,E,87.45,56.14,060214,,,A*66
$GPGGA,114224.000,5201.2912,N,01235.5665,E,1,10,0.80,128.3,M,46.0,M,,*64
$GPRMC,114223.000,A,5201.2785,N,01235.5357,E,82.57,56.34,060214,,,A*6B
$GPGGA,114229.000,5201.3528,N,01235.7143,E,1,9,0.87,130.7,M,46.0,M,,*5E
$GPRMC,114228.000,A,5201.3403,N,01235.6857,E,78.36,54.98,060214,,,A*62
$GPGGA,114235.000,5201.4359,N,01235.8689,E,1,9,0.87,135.5,M,46.0,M,,*5D
$GPRMC,114234.000,A,5201.4209,N,01235.8447,E,76.41,45.87,060214,,,A*67
$GPGGA,114241.000,5201.5311,N,01235.9967,E,1,10,0.80,139.4,M,46.0,M,,*6F
$GPRMC,114240.000,A,5201.5144,N,01235.9772,E,74.77,37.12,060214,,,A*65
$GPGGA,114247.000,5201.6310,N,01236.1009,E,1,9,0.90,140.5,M,46.0,M,,*57
$GPRMC,114246.000,A,5201.6146,N,01236.0843,E,69.84,32.54,060214,,,A*62
$GPGGA,114253.000,5201.7246,N,01236.2009,E,1,8,0.98,138.6,M,46.0,M,,*57
$GPRMC,114252.000,A,5201.7098,N,01236.1835,E,66.63,35.91,060214,,,A*6C
$GPGGA,114259.000,5201.8074,N,01236.3235,E,1,9,0.87,134.8,M,46.0,M,,*50
$GPRMC,114258.000,A,5201.7942,N,01236.3006,E,69.32,46.18,060214,,,A*6C
$GPGGA,114305.000,5201.8773,N,01236.4754,E,1,10,0.80,129.9,M,46.0,M,,*6F
$GPRMC,114304.000,A,5201.8674,N,01236.4481,E,70.26,57.51,060214,,,A*6D
$GPGGA,114311.000,5201.9249,N,01236.6507,E,1,9,0.87,127.9,M,46.0,M,,*50
$GPRMC,114310.000,A,5201.9181,N,01236.6205,E,70.80,69.23,060214,,,A*68
$GPGGA,114317.000,5201.9664,N,01236.8371,E,1,8,1.23,130.8,M,46.0,M,,*5D
$GPRMC,114316.000,A,5201.9592,N,01236.8062,E,72.84,70.04,060214,,,A*6E
$GPGGA,114323.000,5202.0247,N,01237.0171,E,1,10,0.80,132.8,M,46.0,M,,*6D
$GPRMC,114322.000,A,5202.0129,N,01236.9879,E,76.32,57.91,060214,,,A*64
$GPGGA,114328.000,5202.0954,N,01237.1543,E,1,10,0.80,132.6,M,46.0,M,,*65
$GPRMC,114327.000,A,5202.0797,N,01237.1285,E,80.33,46.66,060214,,,A*62
$GPGGA,114333.000,5202.1841,N,01237.2656,E,1,9,0.87,130.0,M,46.0,M,,*54
$GPRMC,114332.000,A,5202.1654,N,01237.2458,E,80.72,34.62,060214,,,A*68
$GPGGA,114338.000,5202.2810,N,01237.3524,E,1,8,0.98,126.1,M,46.0,M,,*56
$GPRMC,114337.000,A,5202.2617,N,01237.3357,E,79.66,28.98,060214,,,A*6B
$GPGGA,114343.000,5202.3758,N,01237.4368,E,1,10,0.80,121.0,M,46.0,M,,*67
$GPRMC,114342.000,A,5202.3572,N,01237.4202,E,76.34,29.18,060214,,,A*6F
$GPGGA,114349.000,5202.4805,N,01237.5533,E,1,9,0.92,116.4,M,46.0,M,,*5F
$GPRMC,114348.000,A,5202.4644,N,01237.5310,E,76.94,39.10,060214,,,A*64
$GPGGA,114354.000,5202.5535,N,01237.6819,E,1,10,0.80,111.4,M,46.0,M,,*66
$GPRMC,114353.000,A,5202.5399,N,01237.6539,E,78.39,50.36,060214,,,A*66
$GPGGA,114359.000,5202.6183,N,01237.8306,E,1,10,0.80,104.5,M,46.0,M,,*6F
$GPRMC,114358.000,A,5202.6055,N,01237.8007,E,81.03,54.94,060214,,,A*68
$GPGGA,114404.000,5202.6833,N,01237.9806,E,1,9,0.87,98.1,M,46.0,M,,*67
$GPRMC,114403.000,A,5202.6703,N,01237.9503,E,81.50,55.08,060214,,,A*67
$GPGGA,114409.000,5202.7496,N,01238.1339,E,1,10,0.80,92.8,M,45.9,M,,*5E
$GPRMC,114408.000,A,5202.7363,N,01238.1033,E,82.71,54.72,060214,,,A*62
$GPGGA,114414.000,5202.8162,N,01238.2860,E,1,9,0.87,89.9,M,45.9,M,,*63
$GPRMC,114413.000,A,5202.8028,N,01238.2558,E,83.33,53.94,060214,,,A*68
$GPGGA,114420.000,5202.8935,N,01238.4502,E,1,9,0.87,86.8,M,45.9,M,,*6F
$GPRMC,114419.000,A,5202.8802,N,01238.4240,E,74.97,50.81,060214,,,A*6B
$GPGGA,114425.000,5202.9686,N,01238.5804,E,1,9,0.87,84.9,M,45.9,M,,*65
$GPRMC,114424.000,A,5202.9526,N,01238.5541,E,81.54,46.53,060214,,,A*65
$GPGGA,114430.000,5203.0583,N,01238.7042,E,1,10,0.80,84.5,M,45.9,M,,*54
$GPRMC,114429.000,A,5203.0394,N,01238.6806,E,85.71,38.67,060214,,,A*6F
$GPGGA,114435.000,5203.1578,N,01238.8146,E,1,8,0.98,81.6,M,45.9,M,,*68
$GPRMC,114434.000,A,5203.1369,N,01238.7937,E,87.59,32.84,060214,,,A*6D
$GPGGA,114440.000,5203.2694,N,01238.9096,E,1,9,0.87,79.0,M,45.9,M,,*6B
$GPRMC,114439.000,A,5203.2465,N,01238.8924,E,91.14,25.93,060214,,,A*6B
$GPGGA,114445.000,5203.3860,N,01238.9862,E,1,8,0.98,76.8,M,45.9,M,,*61
$GPRMC,114444.000,A,5203.3624,N,01238.9713,E,90.15,21.51,060214,,,A*66
$GPGGA,114450.000,5203.5010,N,01239.0606,E,1,8,0.98,75.9,M,45.9,M,,*6A
$GPRMC,114449.000,A,5203.4783,N,01239.0458,E,88.65,22.11,060214,,,A*6D
$GPGGA,114455.000,5203.6175,N,01239.1341,E,1,9,0.93,75.8,M,45.9,M,,*62
$GPRMC,114454.000,A,5203.5943,N,01239.1193,E,90.17,21.90,060214,,,A*67
$GPGGA,114500.000,5203.7347,N,01239.2095,E,1,8,0.96,75.6,M,45.9,M,,*62
$GPRMC,114459.000,A,5203.7110,N,01239.1943,E,90.99,21.85,060214,,,A*61
$GPGGA,114505.000,5203.8527,N,01239.2854,E,1,8,0.96,75.1,M,45.9,M,,*6A
$GPRMC,114504.000,A,5203.8291,N,01239.2703,E,91.05,21.79,060214,,,A*63
$GPGGA,114510.000,5203.9701,N,01239.3617,E,1,8,0.96,74.7,M,45.9,M,,*66
$GPRMC,114509.000,A,5203.9465,N,01239.3465,E,91.59,21.85,060214,,,A*6A
$GPGGA,114515.000,5204.0880,N,01239.4382,E,1,8,0.96,73.8,M,45.9,M,,*6D
$GPRMC,114514.000,A,5204.0646,N,01239.4231,E,90.96,22.04,060214,,,A*63
$GPGGA,114520.000,5204.2044,N,01239.5142,E,1,8,0.96,72.8,M,45.9,M,,*67
$GPRMC,114519.000,A,5204.1812,N,01239.4982,E,90.31,22.07,060214,,,A*6D
$GPGGA,114525.000,5204.3191,N,01239.5976,E,1,8,0.98,74.0,M,45.9,M,,*65
$GPRMC,114524.000,A,5204.2964,N,01239.5803,E,90.82,24.49,060214,,,A*6D
$GPGGA,114530.000,5204.4314,N,01239.6890,E,1,8,0.98,75.4,M,45.9,M,,*66
$GPRMC,114529.000,A,5204.4089,N,01239.6703,E,90.77,27.27,060214,,,A*61
$GPGGA,114535.000,5204.5427,N,01239.7910,E,1,8,0.98,73.9,M,45.9,M,,*66
$GPRMC,114534.000,A,5204.5205,N,01239.7701,E,92.06,29.96,060214,,,A*69
$GPGGA,114540.000,5204.6528,N,01239.8977,E,1,8,0.98,70.3,M,45.9,M,,*6E
$GPRMC,114539.000,A,5204.6309,N,01239.8766,E,91.91,31.02,060214,,,A*6D
$GPGGA,114545.000,5204.7606,N,01240.0075,E,1,8,0.98,68.2,M,45.9,M,,*60
$GPRMC,114544.000,A,5204.7395,N,01239.9848,E,91.61,32.77,060214,,,A*6F
$GPGGA,114550.000,5204.8628,N,01240.1244,E,1,8,0.96,67.3,M,45.9,M,,*66
$GPRMC,114549.000,A,5204.8432,N,01240.1009,E,88.63,35.66,060214,,,A*61
$GPGGA,114555.000,5204.9575,N,01240.2397,E,1,8,0.96,66.8,M,45.9,M,,*6F
$GPRMC,114554.000,A,5204.9392,N,01240.2167,E,83.88,37.15,060214,,,A*63
$GPGGA,114600.000,5205.0431,N,01240.3545,E,1,8,0.98,65.2,M,45.9,M,,*6A
$GPRMC,114559.000,A,5205.0267,N,01240.3318,E,78.86,39.83,060214,,,A*6D
$GPGGA,114606.000,5205.1361,N,01240.4848,E,1,7,1.11,64.5,M,45.9,M,,*61
$GPRMC,114605.000,A,5205.1218,N,01240.4647,E,69.22,41.04,060214,,,A*68
$GPGGA,114613.000,5205.2302,N,01240.6179,E,1,7,1.33,63.3,M,45.9,M,,*6B
$GPRMC,114612.000,A,5205.2167,N,01240.5990,E,63.53,41.25,060214,,,A*6D
$GPGGA,114619.000,5205.3148,N,01240.7352,E,1,8,0.98,66.1,M,45.9,M,,*6E
$GPRMC,114618.000,A,5205.3003,N,01240.7150,E,68.55,40.60,060214,,,A*6E
$GPGGA,114625.000,5205.4059,N,01240.8635,E,1,7,1.29,68.0,M,45.9,M,,*67
$GPRMC,114624.000,A,5205.3904,N,01240.8413,E,74.87,40.72,060214,,,A*63
$GPGGA,114631.000,5205.5020,N,01240.9985,E,1,8,0.96,67.8,M,45.9,M,,*65
$GPRMC,114630.000,A,5205.4860,N,01240.9757,E,76.66,40.97,060214,,,A*66
$GPGGA,114637.000,5205.5925,N,01241.1396,E,1,9,0.93,63.7,M,45.9,M,,*61
$GPRMC,114636.000,A,5205.5785,N,01241.1157,E,73.54,45.79,060214,,,A*6B
$GPGGA,114643.000,5205.6702,N,01241.2860,E,1,9,0.90,60.5,M,45.9,M,,*69
$GPRMC,114642.000,A,5205.6575,N,01241.2608,E,71.52,50.36,060214,,,A*63
$GPGGA,114649.000,5205.7503,N,01241.4474,E,1,8,0.97,59.4,M,45.9,M,,*63
$GPRMC,114648.000,A,5205.7365,N,01241.4196,E,78.46,50.84,060214,,,A*6C
$GPGGA,114654.000,5205.8214,N,01241.5908,E,1,8,0.98,58.4,M,45.9,M,,*68
$GPRMC,114653.000,A,5205.8068,N,01241.5615,E,82.70,50.75,060214,,,A*64
$GPGGA,114659.000,5205.8943,N,01241.7334,E,1,9,0.93,60.5,M,45.8,M,,*6A
$GPRMC,114658.000,A,5205.8798,N,01241.7059,E,80.50,49.84,060214,,,A*6D
$GPGGA,114704.000,5205.9703,N,01241.8615,E,1,8,0.97,62.1,M,45.8,M,,*62
$GPRMC,114703.000,A,5205.9546,N,01241.8368,E,79.00,44.50,060214,,,A*6B
$GPGGA,114710.000,5206.0661,N,01242.0000,E,1,7,1.33,64.3,M,45.8,M,,*65
$GPRMC,114709.000,A,5206.0503,N,01241.9776,E,75.58,41.47,060214,,,A*62
$GPGGA,114715.000,5206.1480,N,01242.1162,E,1,7,1.33,64.0,M,45.8,M,,*6B
$GPRMC,114714.000,A,5206.1312,N,01242.0924,E,79.60,41.39,060214,,,A*64
$GPGGA,114720.000,5206.2332,N,01242.2373,E,1,8,0.97,62.4,M,45.8,M,,*63
$GPRMC,114719.000,A,5206.2160,N,01242.2127,E,81.92,41.45,060214,,,A*65
$GPGGA,114725.000,5206.3195,N,01242.3612,E,1,7,1.33,60.9,M,45.8,M,,*64
$GPRMC,114724.000,A,5206.3020,N,01242.3364,E,83.37,41.63,060214,,,A*62
$GPGGA,114730.000,5206.4068,N,01242.4850,E,1,8,0.99,61.0,M,45.8,M,,*6D
$GPRMC,114729.000,A,5206.3894,N,01242.4602,E,83.60,41.29,060214,,,A*66
$GPGGA,114735.000,5206.4948,N,01242.6113,E,1,7,1.29,60.7,M,45.8,M,,*6C
$GPRMC,114734.000,A,5206.4771,N,01242.5858,E,85.39,41.63,060214,,,A*6D
$GPGGA,114740.000,5206.5836,N,01242.7377,E,1,8,0.99,61.6,M,45.8,M,,*63
$GPRMC,114739.000,A,5206.5658,N,01242.7125,E,85.40,41.19,060214,,,A*69
$GPGGA,114745.000,5206.6694,N,01242.8689,E,1,8,0.99,63.3,M,45.8,M,,*6F
$GPRMC,114744.000,A,5206.6528,N,01242.8420,E,84.00,44.32,060214,,,A*62
$GPGGA,114750.000,5206.7452,N,01243.0102,E,1,8,0.99,65.2,M,45.8,M,,*68
$GPRMC,114749.000,A,5206.7309,N,01242.9810,E,82.75,50.67,060214,,,A*64
$GPGGA,114755.000,5206.8113,N,01243.1618,E,1,8,0.99,66.1,M,45.8,M,,*6F
$GPRMC,114754.000,A,5206.7985,N,01243.1311,E,82.11,55.32,060214,,,A*62
$GPGGA,114800.000,5206.8765,N,01243.3178,E,1,8,0.97,65.5,M,45.8,M,,*6D
$GPRMC,114759.000,A,5206.8633,N,01243.2864,E,83.97,55.37,060214,,,A*62
$GPGGA,114805.000,5206.9429,N,01243.4743,E,1,8,0.99,62.2,M,45.8,M,,*65
$GPRMC,114804.000,A,5206.9296,N,01243.4431,E,83.96,55.19,060214,,,A*68
$GPGGA,114810.000,5207.0088,N,01243.6305,E,1,8,0.99,58.1,M,45.8,M,,*68
$GPRMC,114809.000,A,5206.9956,N,01243.5993,E,83.83,55.60,060214,,,A*6C
$GPGGA,114815.000,5207.0719,N,01243.7796,E,1,8,0.99,57.8,M,45.8,M,,*6B
$GPRMC,114814.000,A,5207.0599,N,01243.7515,E,77.06,55.31,060214,,,A*65
$GPGGA,114821.000,5207.1381,N,01243.9371,E,1,7,1.32,58.8,M,45.8,M,,*6B
$GPRMC,114820.000,A,5207.1276,N,01243.9120,E,67.85,55.42,060214,,,A*67
$GPGGA,114827.000,5207.2000,N,01244.0820,E,1,7,1.29,61.0,M,45.8,M,,*6D
$GPRMC,114826.000,A,5207.1895,N,01244.0576,E,65.72,55.13,060214,,,A*61
$GPGGA,114833.000,5207.2663,N,01244.2313,E,1,7,1.29,64.8,M,45.8,M,,*6F
$GPRMC,114832.000,A,5207.2547,N,01244.2060,E,69.95,53.60,060214,,,A*62
$GPGGA,114839.000,5207.3364,N,01244.3729,E,1,9,0.90,69.7,M,45.8,M,,*65
$GPRMC,114838.000,A,5207.3250,N,01244.3513,E,64.02,49.70,060214,,,A*61
$GPGGA,114846.000,5207.4198,N,01244.5100,E,1,8,0.99,73.6,M,45.8,M,,*62
$GPRMC,114845.000,A,5207.4074,N,01244.4914,E,60.71,43.62,060214,,,A*6D
$GPGGA,114853.000,5207.5161,N,01244.6384,E,1,9,0.99,73.9,M,45.8,M,,*62
$GPRMC,114852.000,A,5207.5014,N,01244.6204,E,66.77,38.24,060214,,,A*6A
$GPGGA,114900.000,5207.6147,N,01244.7537,E,1,8,0.97,71.5,M,45.8,M,,*6C
$GPRMC,114859.000,A,5207.6011,N,01244.7379,E,60.40,35.69,060214,,,A*6B
$GPGGA,114907.000,5207.7128,N,01244.8668,E,1,9,0.94,66.5,M,45.8,M,,*61
$GPRMC,114906.000,A,5207.6985,N,01244.8503,E,63.19,35.52,060214,,,A*67
$GPGGA,114914.000,5207.8128,N,01244.9807,E,1,8,1.10,61.0,M,45.8,M,,*64
$GPRMC,114913.000,A,5207.7983,N,01244.9647,E,63.84,34.44,060214,,,A*64
$GPGGA,114920.000,5207.9018,N,01245.0806,E,1,9,0.90,56.1,M,45.8,M,,*64
$GPRMC,114919.000,A,5207.8865,N,01245.0632,E,66.50,35.10,060214,,,A*6E
$GPGGA,114926.000,5207.9986,N,01245.1946,E,1,9,0.94,51.1,M,45.8,M,,*6B
$GPRMC,114925.000,A,5207.9823,N,01245.1750,E,72.72,36.36,060214,,,A*64
$GPGGA,114932.000,5208.0928,N,01245.3044,E,1,8,1.00,48.7,M,45.8,M,,*66
$GPRMC,114931.000,A,5208.0778,N,01245.2870,E,67.09,35.35,060214,,,A*60
$GPGGA,114939.000,5208.1933,N,01245.4200,E,1,8,1.08,47.7,M,45.8,M,,*64
$GPRMC,114938.000,A,5208.1792,N,01245.4037,E,63.00,35.53,060214,,,A*6C
$GPGGA,114945.000,5208.2849,N,01245.5254,E,1,8,0.97,48.5,M,45.8,M,,*6A
$GPRMC,114944.000,A,5208.2688,N,01245.5070,E,70.64,35.05,060214,,,A*6F
$GPGGA,114951.000,5208.3885,N,01245.6392,E,1,9,0.99,51.2,M,45.7,M,,*69
$GPRMC,114950.000,A,5208.3702,N,01245.6200,E,77.26,33.80,060214,,,A*64
$GPGGA,114956.000,5208.4796,N,01245.7372,E,1,8,0.97,53.3,M,45.7,M,,*67
$GPRMC,114955.000,A,5208.4614,N,01245.7175,E,78.65,33.39,060214,,,A*6A
$GPGGA,115001.000,5208.5678,N,01245.8380,E,1,8,0.99,53.5,M,45.7,M,,*67
$GPRMC,115000.000,A,5208.5500,N,01245.8180,E,77.31,34.91,060214,,,A*6B
$GPGGA,115006.000,5208.6573,N,01245.9412,E,1,9,0.94,54.3,M,45.7,M,,*6B
$GPRMC,115005.000,A,5208.6393,N,01245.9204,E,79.53,35.46,060214,,,A*6E
$GPGGA,115011.000,5208.7482,N,01246.0457,E,1,8,1.08,53.9,M,45.7,M,,*60
$GPRMC,115010.000,A,5208.7301,N,01246.0249,E,80.26,35.11,060214,,,A*65
$GPGGA,115017.000,5208.8507,N,01246.1649,E,1,8,1.10,52.5,M,45.7,M,,*6D
$GPRMC,115016.000,A,5208.8343,N,01246.1461,E,73.30,35.31,060214,,,A*6E
$GPGGA,115023.000,5208.9462,N,01246.2752,E,1,8,0.99,51.8,M,45.7,M,,*6F
$GPRMC,115022.000,A,5208.9303,N,01246.2568,E,70.24,35.59,060214,,,A*6F
$GPGGA,115029.000,5209.0421,N,01246.3851,E,1,8,0.99,51.1,M,45.7,M,,*6E
$GPRMC,115028.000,A,5209.0257,N,01246.3666,E,71.29,35.51,060214,,,A*65
$GPGGA,115035.000,5209.1395,N,01246.4976,E,1,8,0.99,50.3,M,45.7,M,,*6A
$GPRMC,115034.000,A,5209.1235,N,01246.4792,E,70.58,35.32,060214,,,A*62
$GPGGA,115041.000,5209.2390,N,01246.6111,E,1,8,0.99,49.6,M,45.7,M,,*69
$GPRMC,115040.000,A,5209.2225,N,01246.5923,E,72.59,34.96,060214,,,A*6A
$GPGGA,115047.000,5209.3361,N,01246.7238,E,1,8,0.99,47.3,M,45.7,M,,*62
$GPRMC,115046.000,A,5209.3200,N,01246.7053,E,71.93,35.48,060214,,,A*61
$GPGGA,115053.000,5209.4327,N,01246.8360,E,1,9,0.90,46.7,M,45.7,M,,*6C
$GPRMC,115052.000,A,5209.4161,N,01246.8167,E,73.66,35.68,060214,,,A*64
$GPGGA,115059.000,5209.5317,N,01246.9497,E,1,8,1.02,45.5,M,45.7,M,,*60
$GPRMC,115058.000,A,5209.5156,N,01246.9310,E,71.53,35.61,060214,,,A*65
$GPGGA,115105.000,5209.6276,N,01247.0600,E,1,9,0.94,42.3,M,45.7,M,,*67
$GPRMC,115104.000,A,5209.6114,N,01247.0410,E,70.57,35.53,060214,,,A*63
$GPGGA,115111.000,5209.7230,N,01247.1843,E,1,9,0.95,39.5,M,45.7,M,,*62
$GPRMC,115110.000,A,5209.7079,N,01247.1626,E,73.34,40.99,060214,,,A*69
$GPGGA,115117.000,5209.8083,N,01247.3253,E,1,9,0.95,37.6,M,45.7,M,,*65
$GPRMC,115116.000,A,5209.7946,N,01247.3003,E,73.86,47.60,060214,,,A*61
$GPGGA,115123.000,5209.8825,N,01247.4803,E,1,9,0.90,35.9,M,45.7,M,,*66
$GPRMC,115122.000,A,5209.8713,N,01247.4540,E,70.80,53.87,060214,,,A*6B
$GPGGA,115129.000,5209.9463,N,01247.6500,E,1,8,1.10,33.9,M,45.7,M,,*61
$GPRMC,115128.000,A,5209.9364,N,01247.6206,E,74.51,60.22,060214,,,A*64
$GPGGA,115135.000,5209.9966,N,01247.8223,E,1,8,1.10,33.0,M,45.7,M,,*65
$GPRMC,115134.000,A,5209.9891,N,01247.7932,E,69.25,66.51,060214,,,A*68
$GPGGA,115141.000,5210.0397,N,01248.0032,E,1,8,1.08,32.0,M,45.7,M,,*6E
$GPRMC,115140.000,A,5210.0324,N,01247.9731,E,71.81,68.88,060214,,,A*61
$GPGGA,115147.000,5210.0821,N,01248.1843,E,1,8,1.10,32.2,M,45.7,M,,*6A
$GPRMC,115146.000,A,5210.0746,N,01248.1526,E,73.95,68.90,060214,,,A*6A
$GPGGA,115152.000,5210.1221,N,01248.3529,E,1,8,1.10,32.6,M,45.7,M,,*62
$GPRMC,115151.000,A,5210.1141,N,01248.3181,E,82.01,68.84,060214,,,A*61
$GPGGA,115157.000,5210.1636,N,01248.5311,E,1,8,1.10,32.6,M,45.7,M,,*6E
$GPRMC,115156.000,A,5210.1551,N,01248.4950,E,85.18,69.10,060214,,,A*63
$GPGGA,115202.000,5210.2072,N,01248.7160,E,1,8,1.10,32.8,M,45.7,M,,*60
$GPRMC,115201.000,A,5210.1986,N,01248.6788,E,87.96,68.96,060214,,,A*66
$GPGGA,115207.000,5210.2506,N,01248.9018,E,1,7,1.29,32.5,M,45.7,M,,*6B
$GPRMC,115206.000,A,5210.2420,N,01248.8649,E,87.85,68.96,060214,,,A*63
$GPGGA,115212.000,5210.2935,N,01249.0846,E,1,7,1.29,32.5,M,45.7,M,,*68
$GPRMC,115211.000,A,5210.2848,N,01249.0476,E,87.01,69.17,060214,,,A*64
$GPGGA,115217.000,5210.3369,N,01249.2680,E,1,8,1.10,32.9,M,45.7,M,,*60
$GPRMC,115216.000,A,5210.3283,N,01249.2312,E,86.88,69.08,060214,,,A*66
$GPGGA,115222.000,5210.3800,N,01249.4497,E,1,8,1.08,33.2,M,45.7,M,,*63
$GPRMC,115221.000,A,5210.3717,N,01249.4137,E,85.70,68.73,060214,,,A*60
$GPGGA,115227.000,5210.4226,N,01249.6316,E,1,8,1.08,33.8,M,45.7,M,,*69
$GPRMC,115226.000,A,5210.4139,N,01249.5951,E,86.28,68.80,060214,,,A*61
$GPGGA,115232.000,5210.4725,N,01249.8129,E,1,8,1.10,34.0,M,45.7,M,,*6D
$GPRMC,115231.000,A,5210.4613,N,01249.7773,E,88.67,63.61,060214,,,A*65
$GPGGA,115237.000,5210.5353,N,01249.9832,E,1,8,1.10,35.0,M,45.6,M,,*6E
$GPRMC,115236.000,A,5210.5220,N,01249.9501,E,87.58,57.73,060214,,,A*69
$GPGGA,115242.000,5210.6109,N,01250.1409,E,1,8,1.10,34.7,M,45.6,M,,*60
$GPRMC,115241.000,A,5210.5942,N,01250.1106,E,88.98,49.70,060214,,,A*6A
$GPGGA,115247.000,5210.7005,N,01250.2856,E,1,8,1.08,33.8,M,45.6,M,,*6D
$GPRMC,115246.000,A,5210.6815,N,01250.2578,E,91.01,43.82,060214,,,A*6C
$GPGGA,115252.000,5210.7997,N,01250.4179,E,1,8,1.10,32.8,M,45.6,M,,*61
$GPRMC,115251.000,A,5210.7794,N,01250.3919,E,92.57,38.99,060214,,,A*61
$GPGGA,115257.000,5210.9008,N,01250.5452,E,1,8,1.10,32.4,M,45.6,M,,*64
$GPRMC,115256.000,A,5210.8811,N,01250.5203,E,90.56,38.36,060214,,,A*6B
$GPGGA,115302.000,5210.9986,N,01250.6689,E,1,8,1.10,32.3,M,45.6,M,,*6A
$GPRMC,115301.000,A,5210.9788,N,01250.6441,E,89.93,38.10,060214,,,A*60
$GPGGA,115307.000,5211.0974,N,01250.7938,E,1,8,1.10,32.2,M,45.6,M,,*6F
$GPRMC,115306.000,A,5211.0776,N,01250.7689,E,90.07,37.87,060214,,,A*6D
$GPGGA,115312.000,5211.1962,N,01250.9191,E,1,8,1.10,32.5,M,45.6,M,,*6F
$GPRMC,115311.000,A,5211.1765,N,01250.8943,E,90.07,37.92,060214,,,A*6A
$GPGGA,115317.000,5211.2913,N,01251.0496,E,1,8,1.10,33.1,M,45.6,M,,*60
$GPRMC,115316.000,A,5211.2730,N,01251.0221,E,89.98,41.79,060214,,,A*62
$GPGGA,115322.000,5211.3752,N,01251.1949,E,1,6,1.31,33.5,M,45.6,M,,*6B
$GPRMC,115321.000,A,5211.3592,N,01251.1648,E,87.69,48.51,060214,,,A*64
$GPGGA,115327.000,5211.4491,N,01251.3566,E,1,8,1.10,32.1,M,45.6,M,,*6E
$GPRMC,115326.000,A,5211.4352,N,01251.3228,E,89.51,54.85,060214,,,A*6F
$GPGGA,115332.000,5211.5123,N,01251.5371,E,1,8,1.08,31.6,M,45.6,M,,*6C
$GPRMC,115331.000,A,5211.5005,N,01251.4993,E,92.91,61.74,060214,,,A*6B
$GPGGA,115337.000,5211.5638,N,01251.7321,E,1,8,1.10,33.0,M,45.6,M,,*6E
$GPRMC,115336.000,A,5211.5548,N,01251.6931,E,93.40,68.45,060214,,,A*6C
$GPGGA,115342.000,5211.6052,N,01251.9215,E,1,8,1.08,34.8,M,45.6,M,,*6B
$GPRMC,115341.000,A,5211.5970,N,01251.8842,E,88.39,69.83,060214,,,A*6F
$GPGGA,115347.000,5211.6461,N,01252.1066,E,1,8,1.10,34.5,M,45.6,M,,*63
$GPRMC,115346.000,A,5211.6381,N,01252.0697,E,87.30,70.15,060214,,,A*63
$GPGGA,115352.000,5211.6876,N,01252.2885,E,1,8,1.10,32.0,M,45.6,M,,*68
$GPRMC,115351.000,A,5211.6789,N,01252.2529,E,85.17,68.69,060214,,,A*68
$GPGGA,115357.000,5211.7377,N,01252.4648,E,1,8,1.10,30.1,M,45.6,M,,*6C
$GPRMC,115356.000,A,5211.7268,N,01252.4304,E,85.73,63.21,060214,,,A*6E
$GPGGA,115402.000,5211.8001,N,01252.6284,E,1,8,1.08,32.3,M,45.6,M,,*69
$GPRMC,115401.000,A,5211.7866,N,01252.5967,E,84.84,55.96,060214,,,A*61
$GPGGA,115407.000,5211.8750,N,01252.7818,E,1,8,1.10,33.3,M,45.6,M,,*69
$GPRMC,115406.000,A,5211.8592,N,01252.7525,E,86.38,49.82,060214,,,A*6A
$GPGGA,115412.000,5211.9588,N,01252.9191,E,1,7,1.31,33.7,M,45.6,M,,*65
$GPRMC,115411.000,A,5211.9413,N,01252.8928,E,85.34,43.66,060214,,,A*64
$GPGGA,115417.000,5212.0521,N,01253.0398,E,1,8,1.10,35.2,M,45.6,M,,*65
$GPRMC,115416.000,A,5212.0329,N,01253.0170,E,85.54,37.21,060214,,,A*6D
$GPGGA,115422.000,5212.1522,N,01253.1466,E,1,8,1.08,36.7,M,45.6,M,,*69
$GPRMC,115421.000,A,5212.1319,N,01253.1254,E,86.63,32.84,060214,,,A*62
$GPGGA,115427.000,5212.2541,N,01253.2534,E,1,8,1.10,37.1,M,45.6,M,,*61
$GPRMC,115426.000,A,5212.2337,N,01253.2324,E,87.52,32.99,060214,,,A*60
$GPGGA,115432.000,5212.3513,N,01253.3573,E,1,7,1.28,36.5,M,45.6,M,,*60
$GPRMC,115431.000,A,5212.3324,N,01253.3370,E,82.41,33.69,060214,,,A*6C
$GPGGA,115437.000,5212.4459,N,01253.4598,E,1,7,1.28,35.6,M,45.6,M,,*6F
$GPRMC,115436.000,A,5212.4266,N,01253.4389,E,82.95,33.78,060214,,,A*63
$GPGGA,115442.000,5212.5428,N,01253.5637,E,1,7,1.31,34.8,M,45.6,M,,*6A
$GPRMC,115441.000,A,5212.5237,N,01253.5430,E,82.82,33.49,060214,,,A*66
$GPGGA,115447.000,5212.6389,N,01253.6665,E,1,7,1.31,35.8,M,45.6,M,,*65
$GPRMC,115446.000,A,5212.6198,N,01253.6458,E,82.43,33.43,060214,,,A*6E
$GPGGA,115452.000,5212.7362,N,01253.7713,E,1,7,1.28,37.8,M,45.5,M,,*6D
$GPRMC,115451.000,A,5212.7166,N,01253.7502,E,84.94,33.25,060214,,,A*6B
$GPGGA,115457.000,5212.8354,N,01253.8790,E,1,7,1.31,39.3,M,45.5,M,,*6B
$GPRMC,115456.000,A,5212.8153,N,01253.8573,E,86.01,33.65,060214,,,A*66
$GPGGA,115502.000,5212.9368,N,01253.9870,E,1,8,1.10,40.4,M,45.5,M,,*61
$GPRMC,115501.000,A,5212.9165,N,01253.9653,E,86.86,33.40,060214,,,A*69
$GPGGA,115507.000,5213.0389,N,01254.0967,E,1,8,1.08,40.0,M,45.5,M,,*67
$GPRMC,115506.000,A,5213.0185,N,01254.0750,E,88.39,33.38,060214,,,A*61
$GPGGA,115512.000,5213.1385,N,01254.2037,E,1,7,1.28,38.3,M,45.5,M,,*61
$GPRMC,115511.000,A,5213.1189,N,01254.1826,E,84.88,33.53,060214,,,A*6E
$GPGGA,115517.000,5213.2355,N,01254.3086,E,1,7,1.31,37.7,M,45.5,M,,*62
$GPRMC,115516.000,A,5213.2162,N,01254.2877,E,83.67,33.52,060214,,,A*6F
$GPGGA,115522.000,5213.3320,N,01254.4135,E,1,7,1.31,38.5,M,45.5,M,,*64
$GPRMC,115521.000,A,5213.3128,N,01254.3926,E,83.14,33.92,060214,,,A*68
$GPGGA,115527.000,5213.4287,N,01254.5183,E,1,7,1.31,39.1,M,45.5,M,,*63
$GPRMC,115526.000,A,5213.4093,N,01254.4974,E,84.15,33.50,060214,,,A*61
$GPGGA,115532.000,5213.5278,N,01254.6244,E,1,7,1.31,41.3,M,45.5,M,,*60
$GPRMC,115531.000,A,5213.5080,N,01254.6031,E,85.69,33.51,060214,,,A*65
$GPGGA,115537.000,5213.6247,N,01254.7288,E,1,7,1.31,41.7,M,45.5,M,,*6F
$GPRMC,115536.000,A,5213.6058,N,01254.7083,E,82.20,33.49,060214,,,A*6F
$GPGGA,115542.000,5213.7201,N,01254.8280,E,1,7,1.31,40.7,M,45.5,M,,*68
$GPRMC,115541.000,A,5213.7008,N,01254.8091,E,80.71,31.49,060214,,,A*63
$GPGGA,115547.000,5213.8200,N,01254.9127,E,1,7,1.31,38.1,M,45.5,M,,*65
$GPRMC,115546.000,A,5213.7994,N,01254.8970,E,81.43,25.89,060214,,,A*67
$GPGGA,115552.000,5213.9252,N,01254.9786,E,1,7,1.31,36.2,M,45.5,M,,*67
$GPRMC,115551.000,A,5213.9039,N,01254.9671,E,80.69,20.03,060214,,,A*60
$GPGGA,115557.000,5214.0296,N,01255.0237,E,1,7,1.31,37.3,M,45.5,M,,*63
$GPRMC,115556.000,A,5214.0091,N,01255.0164,E,76.60,13.72,060214,,,A*66
$GPGGA,115603.000,5214.1512,N,01255.0550,E,1,7,1.31,39.7,M,45.5,M,,*67
$GPRMC,115602.000,A,5214.1304,N,01255.0517,E,74.56,6.75,060214,,,A*5E
$GPGGA,115608.000,5214.2601,N,01255.0611,E,1,7,1.31,42.3,M,45.5,M,,*60
$GPRMC,115607.000,A,5214.2377,N,01255.0607,E,80.31,1.59,060214,,,A*5D
$GPGGA,115613.000,5214.3725,N,01255.0520,E,1,7,1.28,44.0,M,45.5,M,,*60
$GPRMC,115612.000,A,5214.3500,N,01255.0553,E,81.55,355.92,060214,,,A*5A
$GPGGA,115618.000,5214.4850,N,01255.0248,E,1,8,1.08,44.4,M,45.5,M,,*61
$GPRMC,115617.000,A,5214.4623,N,01255.0317,E,82.62,350.52,060214,,,A*52
$GPGGA,115623.000,5214.5984,N,01254.9771,E,1,8,1.10,45.1,M,45.5,M,,*6A
$GPRMC,115622.000,A,5214.5763,N,01254.9882,E,83.21,343.89,060214,,,A*5D
$GPGGA,115628.000,5214.7057,N,01254.9139,E,1,7,1.31,46.7,M,45.5,M,,*67
$GPRMC,115627.000,A,5214.6842,N,01254.9272,E,82.20,339.26,060214,,,A*5A
$GPGGA,115633.000,5214.8149,N,01254.8482,E,1,7,1.28,47.7,M,45.5,M,,*61
$GPRMC,115632.000,A,5214.7927,N,01254.8613,E,84.63,340.31,060214,,,A*56
$GPGGA,115638.000,5214.9283,N,01254.7841,E,1,7,1.31,51.8,M,45.5,M,,*62
$GPRMC,115637.000,A,5214.9054,N,01254.7970,E,86.89,340.97,060214,,,A*5F
$GPGGA,115643.000,5215.0427,N,01254.7175,E,1,8,1.10,58.3,M,45.5,M,,*6E
$GPRMC,115642.000,A,5215.0198,N,01254.7309,E,87.82,340.30,060214,,,A*57
$GPGGA,115648.000,5215.1571,N,01254.6506,E,1,7,1.31,62.7,M,45.5,M,,*66
$GPRMC,115647.000,A,5215.1345,N,01254.6638,E,87.59,340.21,060214,,,A*51
$GPGGA,115653.000,5215.2677,N,01254.5851,E,1,8,1.10,64.4,M,45.5,M,,*6F
$GPRMC,115652.000,A,5215.2461,N,01254.5979,E,83.97,340.25,060214,,,A*5C
$GPGGA,115658.000,5215.3763,N,01254.5225,E,1,8,1.10,63.3,M,45.5,M,,*68
$GPRMC,115657.000,A,5215.3543,N,01254.5346,E,82.94,341.03,060214,,,A*58
$GPGGA,115703.000,5215.4903,N,01254.4743,E,1,7,1.31,61.4,M,45.5,M,,*65
$GPRMC,115702.000,A,5215.4671,N,01254.4821,E,84.64,347.49,060214,,,A*56
$GPGGA,115708.000,5215.6055,N,01254.4461,E,1,8,1.08,61.2,M,45.5,M,,*66
$GPRMC,115707.000,A,5215.5826,N,01254.4500,E,83.55,353.47,060214,,,A*5E
$GPGGA,115713.000,5215.7231,N,01254.4392,E,1,7,1.31,64.2,M,45.5,M,,*66
$GPRMC,115712.000,A,5215.6995,N,01254.4386,E,85.54,359.69,060214,,,A*59
$GPGGA,115718.000,5215.8395,N,01254.4546,E,1,7,1.28,66.6,M,45.5,M,,*6C
$GPRMC,115717.000,A,5215.8169,N,01254.4498,E,82.63,6.29,060214,,,A*5F
$GPGGA,115723.000,5215.9477,N,01254.4868,E,1,7,1.31,66.2,M,45.5,M,,*63
$GPRMC,115722.000,A,5215.9268,N,01254.4795,E,78.58,11.16,060214,,,A*63
$GPGGA,115729.000,5216.0692,N,01254.5295,E,1,7,1.31,64.9,M,45.5,M,,*6A
$GPRMC,115728.000,A,5216.0498,N,01254.5228,E,72.19,11.57,060214,,,A*62
$GPGGA,115735.000,5216.1835,N,01254.5692,E,1,7,1.28,65.2,M,45.5,M,,*64
$GPRMC,115734.000,A,5216.1651,N,01254.5626,E,68.28,11.30,060214,,,A*6B
$GPGGA,115741.000,5216.2955,N,01254.6076,E,1,7,1.28,64.9,M,45.5,M,,*66
$GPRMC,115740.000,A,5216.2765,N,01254.6010,E,69.99,11.67,060214,,,A*64
$GPGGA,115747.000,5216.4062,N,01254.6468,E,1,7,1.31,65.0,M,45.5,M,,*60
$GPRMC,115746.000,A,5216.3882,N,01254.6405,E,66.71,11.86,060214,,,A*63
$GPGGA,115754.000,5216.5254,N,01254.6896,E,1,7,1.31,64.5,M,45.5,M,,*6D
$GPRMC,115753.000,A,5216.5092,N,01254.6836,E,60.46,12.81,060214,,,A*62
$GPGGA,115802.000,5216.6309,N,01254.7294,E,1,7,1.31,64.7,M,45.5,M,,*60
$GPRMC,115801.000,A,5216.6181,N,01254.7240,E,47.31,14.41,060214,,,A*6F
$GPGGA,115810.000,5216.7458,N,01254.7715,E,1,7,1.31,65.4,M,45.5,M,,*6F
$GPRMC,115809.000,A,5216.7311,N,01254.7661,E,54.50,13.04,060214,,,A*69
$GPGGA,115818.000,5216.8583,N,01254.8111,E,1,7,1.31,65.9,M,45.5,M,,*6F
$GPRMC,115817.000,A,5216.8446,N,01254.8065,E,50.49,11.69,060214,,,A*64
$GPGGA,115826.000,5216.9643,N,01254.8572,E,1,7,1.31,66.5,M,45.5,M,,*62
$GPRMC,115825.000,A,5216.9512,N,01254.8495,E,49.92,18.87,060214,,,A*68
$GPGGA,115834.000,5217.0689,N,01254.9282,E,1,7,1.31,68.3,M,45.5,M,,*6E
$GPRMC,115833.000,A,5217.0562,N,01254.9196,E,49.76,22.31,060214,,,A*69
$GPGGA,115843.000,5217.1831,N,01254.9748,E,1,7,1.28,69.8,M,45.5,M,,*63
$GPRMC,115842.000,A,5217.1699,N,01254.9721,E,47.13,7.75,060214,,,A*59
$GPGGA,115851.000,5217.2993,N,01254.9732,E,1,8,1.08,72.9,M,45.5,M,,*61
$GPRMC,115850.000,A,5217.2843,N,01254.9762,E,55.45,354.49,060214,,,A*5D
$GPGGA,115859.000,5217.4158,N,01254.9217,E,1,7,1.14,75.4,M,45.5,M,,*6A
$GPRMC,115858.000,A,5217.4021,N,01254.9307,E,53.10,339.99,060214,,,A*58
$GPGGA,115907.000,5217.5175,N,01254.8224,E,1,8,1.08,72.5,M,45.5,M,,*6B
$GPRMC,115906.000,A,5217.5056,N,01254.8370,E,53.75,324.24,060214,,,A*5B
$GPGGA,115915.000,5217.6010,N,01254.6851,E,1,8,1.08,68.9,M,45.5,M,,*68
$GPRMC,115914.000,A,5217.5919,N,01254.7039,E,52.44,309.50,060214,,,A*54
$GPGGA,115923.000,5217.6635,N,01254.5255,E,1,8,1.10,66.4,M,45.5,M,,*6B
$GPRMC,115922.000,A,5217.6562,N,01254.5456,E,50.72,300.60,060214,,,A*50
$GPGGA,115931.000,5217.7316,N,01254.3706,E,1,8,1.10,65.3,M,45.5,M,,*6C
$GPRMC,115930.000,A,5217.7226,N,01254.3893,E,51.85,308.85,060214,,,A*5C
$GPGGA,115939.000,5217.8067,N,01254.2159,E,1,8,1.10,64.8,M,45.5,M,,*69
$GPRMC,115938.000,A,5217.7968,N,01254.2363,E,56.06,309.08,060214,,,A*58
$GPGGA,115946.000,5217.8829,N,01254.0581,E,1,7,1.30,63.1,M,45.5,M,,*63
$GPRMC,115945.000,A,5217.8720,N,01254.0811,E,63.23,307.53,060214,,,A*52
$GPGGA,115952.000,5217.9529,N,01253.9145,E,1,8,1.10,59.2,M,45.5,M,,*6F
$GPRMC,115951.000,A,5217.9407,N,01253.9391,E,68.91,308.89,060214,,,A*57
$GPGGA,115958.000,5218.0265,N,01253.7652,E,1,8,1.08,55.0,M,45.5,M,,*64
$GPRMC,115957.000,A,5218.0143,N,01253.7899,E,69.94,309.14,060214,,,A*5E
$GPGGA,120004.000,5218.1007,N,01253.6156,E,1,8,1.10,50.7,M,45.5,M,,*6C
$GPRMC,120003.000,A,5218.0882,N,01253.6407,E,71.32,309.03,060214,,,A*5D
$GPGGA,120010.000,5218.1737,N,01253.4673,E,1,8,1.10,46.3,M,45.5,M,,*6C
$GPRMC,120009.000,A,5218.1615,N,01253.4920,E,69.81,309.07,060214,,,A*59
$GPGGA,120016.000,5218.2454,N,01253.3231,E,1,8,1.08,41.0,M,45.5,M,,*67
$GPRMC,120015.000,A,5218.2337,N,01253.3468,E,67.49,309.01,060214,,,A*58
$GPGGA,120022.000,5218.3146,N,01253.1837,E,1,8,1.08,36.4,M,45.5,M,,*6D
$GPRMC,120021.000,A,5218.3032,N,01253.2067,E,65.64,308.91,060214,,,A*57
$GPGGA,120029.000,5218.3917,N,01253.0291,E,1,8,1.08,35.0,M,45.5,M,,*6A
$GPRMC,120028.000,A,5218.3810,N,01253.0509,E,62.46,308.72,060214,,,A*53
$GPGGA,120036.000,5218.4689,N,01252.8740,E,1,8,1.10,40.0,M,45.5,M,,*60
$GPRMC,120035.000,A,5218.4575,N,01252.8968,E,65.08,309.08,060214,,,A*55
$GPGGA,120042.000,5218.5395,N,01252.7324,E,1,8,1.08,45.7,M,45.5,M,,*68
$GPRMC,120041.000,A,5218.5276,N,01252.7566,E,68.61,309.08,060214,,,A*5C
$GPGGA,120048.000,5218.6099,N,01252.5894,E,1,8,1.08,49.5,M,45.5,M,,*62
$GPRMC,120047.000,A,5218.5982,N,01252.6133,E,67.26,308.98,060214,,,A*5B
$GPGGA,120054.000,5218.6776,N,01252.4512,E,1,8,1.08,50.4,M,45.5,M,,*62
$GPRMC,120053.000,A,5218.6666,N,01252.4739,E,63.12,308.67,060214,,,A*55
$GPGGA,120100.000,5218.7462,N,01252.3098,E,1,7,1.30,49.2,M,45.5,M,,*6F
$GPRMC,120059.000,A,5218.7346,N,01252.3335,E,67.39,308.64,060214,,,A*58
$GPGGA,120107.000,5218.8197,N,01252.1598,E,1,8,1.10,50.1,M,45.5,M,,*69
$GPRMC,120106.000,A,5218.8095,N,01252.1806,E,58.67,308.69,060214,,,A*52
$GPGGA,120114.000,5218.8924,N,01252.0130,E,1,8,1.10,50.4,M,45.5,M,,*69
$GPRMC,120113.000,A,5218.8821,N,01252.0335,E,58.66,309.09,060214,,,A*5D
$GPGGA,120121.000,5218.9605,N,01251.8745,E,1,8,1.08,50.8,M,45.5,M,,*68
$GPRMC,120120.000,A,5218.9512,N,01251.8936,E,54.50,308.69,060214,,,A*5D
$GPGGA,120128.000,5219.0286,N,01251.7379,E,1,7,1.30,51.9,M,45.5,M,,*66
$GPRMC,120127.000,A,5219.0186,N,01251.7578,E,57.42,308.46,060214,,,A*5F
$GPGGA,120135.000,5219.0982,N,01251.5945,E,1,8,1.08,53.1,M,45.5,M,,*6C
$GPRMC,120134.000,A,5219.0877,N,01251.6155,E,58.66,308.10,060214,,,A*5A
$GPGGA,120141.000,5219.1619,N,01251.4487,E,1,8,1.10,54.0,M,45.5,M,,*6E
$GPRMC,120140.000,A,5219.1514,N,01251.4748,E,69.14,304.07,060214,,,A*55
$GPGGA,120147.000,5219.2191,N,01251.2823,E,1,8,1.08,52.9,M,45.5,M,,*6E
$GPRMC,120146.000,A,5219.2101,N,01251.3119,E,71.92,296.56,060214,,,A*5C
$GPGGA,120153.000,5219.2741,N,01251.1007,E,1,8,1.10,52.2,M,45.5,M,,*6F
$GPRMC,120152.000,A,5219.2653,N,01251.1306,E,73.61,295.95,060214,,,A*55
$GPGGA,120159.000,5219.3230,N,01250.9306,E,1,8,1.10,53.0,M,45.5,M,,*6F
$GPRMC,120158.000,A,5219.3151,N,01250.9578,E,67.01,295.42,060214,,,A*54
$GPGGA,120205.000,5219.3701,N,01250.7679,E,1,8,1.08,51.9,M,45.5,M,,*63
$GPRMC,120204.000,A,5219.3624,N,01250.7944,E,65.14,295.74,060214,,,A*55
$GPGGA,120211.000,5219.4166,N,01250.6071,E,1,7,1.27,49.6,M,45.5,M,,*6D
$GPRMC,120210.000,A,5219.4088,N,01250.6338,E,65.49,295.43,060214,,,A*5B
$GPGGA,120218.000,5219.4704,N,01250.4253,E,1,7,1.27,46.9,M,45.5,M,,*66
$GPRMC,120217.000,A,5219.4627,N,01250.4508,E,62.90,296.35,060214,,,A*59
$GPGGA,120225.000,5219.5181,N,01250.2637,E,1,8,1.08,46.8,M,45.5,M,,*61
$GPRMC,120224.000,A,5219.5124,N,01250.2841,E,50.46,295.22,060214,,,A*55
$GPGGA,120234.000,5219.5675,N,01250.0916,E,1,8,1.10,49.2,M,45.5,M,,*6F
$GPRMC,120233.000,A,5219.5619,N,01250.1110,E,47.06,295.36,060214,,,A*53
$GPGGA,120243.000,5219.6192,N,01249.9142,E,1,8,1.08,49.0,M,45.5,M,,*61
$GPRMC,120242.000,A,5219.6136,N,01249.9332,E,47.32,295.17,060214,,,A*5A
$GPGGA,120252.000,5219.6732,N,01249.7422,E,1,7,1.08,47.2,M,45.5,M,,*63
$GPRMC,120251.000,A,5219.6672,N,01249.7617,E,48.44,296.42,060214,,,A*5E
$GPGGA,120301.000,5219.7253,N,01249.5648,E,1,8,1.08,45.3,M,45.5,M,,*67
$GPRMC,120300.000,A,5219.7197,N,01249.5844,E,47.88,295.87,060214,,,A*59
$GPGGA,120309.000,5219.7763,N,01249.4081,E,1,8,1.10,43.0,M,45.5,M,,*67
$GPRMC,120308.000,A,5219.7688,N,01249.4275,E,50.64,301.19,060214,,,A*5E
$GPGGA,120316.000,5219.8408,N,01249.2668,E,1,8,1.10,42.1,M,45.5,M,,*6F
$GPRMC,120315.000,A,5219.8297,N,01249.2872,E,59.10,310.77,060214,,,A*5E
$GPGGA,120323.000,5219.9346,N,01249.1353,E,1,7,1.27,41.4,M,45.5,M,,*66
$GPRMC,120322.000,A,5219.9196,N,01249.1521,E,65.44,324.41,060214,,,A*5D
$GPGGA,120329.000,5220.0303,N,01249.0490,E,1,7,1.11,40.7,M,45.5,M,,*60
$GPRMC,120328.000,A,5220.0140,N,01249.0609,E,64.22,333.57,060214,,,A*57
$GPGGA,120336.000,5220.1439,N,01248.9884,E,1,8,1.10,39.6,M,45.5,M,,*61
$GPRMC,120335.000,A,5220.1277,N,01248.9948,E,59.42,344.79,060214,,,A*5B
$GPGGA,120343.000,5220.2535,N,01248.9651,E,1,8,1.10,40.0,M,45.5,M,,*63
$GPRMC,120342.000,A,5220.2379,N,01248.9661,E,56.07,355.62,060214,,,A*57
$GPGGA,120350.000,5220.3680,N,01248.9613,E,1,8,1.10,38.5,M,45.5,M,,*61
$GPRMC,120349.000,A,5220.3511,N,01248.9619,E,59.92,357.99,060214,,,A*5F
$GPGGA,120357.000,5220.4891,N,01248.9564,E,1,8,1.10,35.7,M,45.5,M,,*63
$GPRMC,120356.000,A,5220.4717,N,01248.9573,E,62.41,357.65,060214,,,A*58
$GPGGA,120404.000,5220.6054,N,01248.9515,E,1,8,1.10,34.9,M,45.5,M,,*68
$GPRMC,120403.000,A,5220.5891,N,01248.9522,E,58.44,358.49,060214,,,A*56
$GPGGA,120411.000,5220.7303,N,01248.9447,E,1,8,1.08,35.9,M,45.5,M,,*62
$GPRMC,120410.000,A,5220.7115,N,01248.9457,E,67.93,358.34,060214,,,A*5C
$GPGGA,120417.000,5220.8397,N,01248.9393,E,1,7,1.27,36.6,M,45.5,M,,*66
$GPRMC,120416.000,A,5220.8221,N,01248.9402,E,63.98,357.94,060214,,,A*5B
$GPGGA,120424.000,5220.9591,N,01248.9327,E,1,8,1.10,37.5,M,45.5,M,,*61
$GPRMC,120423.000,A,5220.9425,N,01248.9336,E,60.38,358.06,060214,,,A*53
$GPGGA,120431.000,5221.0781,N,01248.9258,E,1,8,1.10,37.8,M,45.5,M,,*6A
$GPRMC,120430.000,A,5221.0608,N,01248.9266,E,62.58,358.41,060214,,,A*57
$GPGGA,120438.000,5221.1951,N,01248.9196,E,1,8,1.08,35.8,M,45.5,M,,*6B
$GPRMC,120437.000,A,5221.1788,N,01248.9207,E,59.04,357.82,060214,,,A*5E
$GPGGA,120445.000,5221.3076,N,01248.9131,E,1,8,1.08,34.7,M,45.5,M,,*6C
$GPRMC,120444.000,A,5221.2916,N,01248.9142,E,58.06,357.91,060214,,,A*53
$GPGGA,120452.000,5221.4191,N,01248.9066,E,1,8,1.08,33.8,M,45.5,M,,*6E
$GPRMC,120451.000,A,5221.4033,N,01248.9074,E,57.28,358.10,060214,,,A*5E
$GPGGA,120500.000,5221.5401,N,01248.9047,E,1,8,1.10,33.3,M,45.5,M,,*64
$GPRMC,120459.000,A,5221.5251,N,01248.9038,E,53.58,1.29,060214,,,A*5F
$GPGGA,120507.000,5221.6512,N,01248.9137,E,1,7,1.27,32.2,M,45.5,M,,*6E
$GPRMC,120506.000,A,5221.6351,N,01248.9123,E,57.67,3.13,060214,,,A*5E
$GPGGA,120514.000,5221.7641,N,01248.9200,E,1,8,1.08,32.3,M,45.5,M,,*6C
$GPRMC,120513.000,A,5221.7477,N,01248.9196,E,58.82,1.88,060214,,,A*52
$GPGGA,120521.000,5221.8839,N,01248.9292,E,1,8,1.08,32.8,M,45.5,M,,*64
$GPRMC,120520.000,A,5221.8662,N,01248.9279,E,63.57,3.25,060214,,,A*5C
$GPGGA,120527.000,5221.9941,N,01248.9385,E,1,8,1.08,34.8,M,45.5,M,,*6C
$GPRMC,120526.000,A,5221.9752,N,01248.9370,E,67.67,3.12,060214,,,A*52
$GPGGA,120533.000,5222.1114,N,01248.9484,E,1,8,1.08,36.5,M,45.5,M,,*63
$GPRMC,120532.000,A,5222.0915,N,01248.9466,E,71.67,3.19,060214,,,A*5C
$GPGGA,120539.000,5222.2303,N,01248.9593,E,1,7,1.27,37.5,M,45.5,M,,*6A
$GPRMC,120538.000,A,5222.2103,N,01248.9576,E,71.42,3.13,060214,,,A*56
$GPGGA,120545.000,5222.3501,N,01248.9700,E,1,8,1.08,40.2,M,45.5,M,,*69
$GPRMC,120544.000,A,5222.3301,N,01248.9682,E,71.44,3.37,060214,,,A*54
$GPGGA,120551.000,5222.4711,N,01248.9808,E,1,8,1.10,42.2,M,45.5,M,,*64
$GPRMC,120550.000,A,5222.4511,N,01248.9791,E,72.37,3.22,060214,,,A*51
$GPGGA,120557.000,5222.5894,N,01248.9917,E,1,8,1.10,44.2,M,45.5,M,,*68
$GPRMC,120556.000,A,5222.5698,N,01248.9896,E,70.71,3.59,060214,,,A*50
$GPGGA,120603.000,5222.7098,N,01249.0148,E,1,8,1.10,44.1,M,45.5,M,,*65
$GPRMC,120602.000,A,5222.6898,N,01249.0093,E,73.15,8.69,060214,,,A*53
$GPGGA,120609.000,5222.8269,N,01249.0600,E,1,8,1.08,44.2,M,45.5,M,,*6D
$GPRMC,120608.000,A,5222.8075,N,01249.0512,E,72.04,14.74,060214,,,A*60
$GPGGA,120615.000,5222.9391,N,01249.1250,E,1,8,1.10,44.5,M,45.4,M,,*68
$GPRMC,120614.000,A,5222.9210,N,01249.1129,E,70.32,21.36,060214,,,A*67
$GPGGA,120621.000,5223.0472,N,01249.2118,E,1,8,1.08,44.4,M,45.4,M,,*69
$GPRMC,120620.000,A,5223.0290,N,01249.1954,E,74.21,27.85,060214,,,A*6A
$GPGGA,120627.000,5223.1556,N,01249.3244,E,1,8,1.08,42.5,M,45.4,M,,*65
$GPRMC,120626.000,A,5223.1381,N,01249.3041,E,77.17,34.64,060214,,,A*68
$GPGGA,120633.000,5223.2532,N,01249.4495,E,1,8,1.08,40.7,M,45.4,M,,*6C
$GPRMC,120632.000,A,5223.2374,N,01249.4287,E,72.85,38.71,060214,,,A*6D
$GPGGA,120639.000,5223.3470,N,01249.5718,E,1,8,1.08,41.6,M,45.4,M,,*67
$GPRMC,120638.000,A,5223.3313,N,01249.5512,E,72.53,38.68,060214,,,A*6E
$GPGGA,120645.000,5223.4399,N,01249.6938,E,1,8,1.08,43.8,M,45.4,M,,*68
$GPRMC,120644.000,A,5223.4247,N,01249.6738,E,71.71,38.36,060214,,,A*63
$GPGGA,120651.000,5223.5243,N,01249.8207,E,1,8,1.10,45.1,M,45.4,M,,*65
$GPRMC,120650.000,A,5223.5110,N,01249.7970,E,69.55,46.27,060214,,,A*63
$GPGGA,120657.000,5223.5899,N,01249.9761,E,1,8,1.10,42.9,M,45.4,M,,*65
$GPRMC,120656.000,A,5223.5806,N,01249.9489,E,68.46,58.39,060214,,,A*6D
$GPGGA,120703.000,5223.6343,N,01250.1484,E,1,8,1.10,35.0,M,45.4,M,,*6B
$GPRMC,120702.000,A,5223.6276,N,01250.1187,E,69.83,69.39,060214,,,A*62
$GPGGA,120709.000,5223.6737,N,01250.3228,E,1,8,1.10,29.0,M,45.4,M,,*69
$GPRMC,120708.000,A,5223.6674,N,01250.2947,E,67.89,68.74,060214,,,A*65
$GPGGA,120716.000,5223.7173,N,01250.5111,E,1,8,1.10,26.0,M,45.4,M,,*60
$GPRMC,120715.000,A,5223.7106,N,01250.4839,E,63.96,68.08,060214,,,A*65
$GPGGA,120722.000,5223.7593,N,01250.6868,E,1,8,1.10,24.6,M,45.4,M,,*6D
$GPRMC,120721.000,A,5223.7524,N,01250.6569,E,70.43,69.06,060214,,,A*69
$GPGGA,120728.000,5223.8030,N,01250.8725,E,1,8,1.10,23.3,M,45.4,M,,*6E
$GPRMC,120727.000,A,5223.7955,N,01250.8407,E,74.89,68.81,060214,,,A*6E
$GPGGA,120734.000,5223.8468,N,01251.0660,E,1,8,1.10,21.9,M,45.4,M,,*6B
$GPRMC,120733.000,A,5223.8396,N,01251.0337,E,75.85,69.80,060214,,,A*61
$GPGGA,120740.000,5223.8900,N,01251.2535,E,1,8,1.10,20.3,M,45.4,M,,*61
$GPRMC,120739.000,A,5223.8828,N,01251.2232,E,72.16,68.88,060214,,,A*67
$GPGGA,120746.000,5223.9323,N,01251.4345,E,1,8,1.10,19.4,M,45.4,M,,*67
$GPRMC,120745.000,A,5223.9253,N,01251.4046,E,71.58,68.94,060214,,,A*68
$GPGGA,120752.000,5223.9735,N,01251.6088,E,1,8,1.10,19.3,M,45.4,M,,*66
$GPRMC,120751.000,A,5223.9667,N,01251.5803,E,67.23,68.94,060214,,,A*6D
$GPGGA,120758.000,5224.0151,N,01251.7838,E,1,8,1.10,19.4,M,45.4,M,,*63
$GPRMC,120757.000,A,5224.0082,N,01251.7545,E,69.56,68.90,060214,,,A*6D
$GPGGA,120804.000,5224.0571,N,01251.9584,E,1,8,1.10,22.0,M,45.4,M,,*6B
$GPRMC,120803.000,A,5224.0500,N,01251.9296,E,68.04,68.55,060214,,,A*64
$GPGGA,120810.000,5224.1129,N,01252.1229,E,1,8,1.10,24.2,M,45.4,M,,*69
$GPRMC,120809.000,A,5224.1019,N,01252.0969,E,69.31,56.45,060214,,,A*68
$GPGGA,120816.000,5224.1860,N,01252.2688,E,1,8,1.10,26.6,M,45.4,M,,*61
$GPRMC,120815.000,A,5224.1739,N,01252.2455,E,67.02,51.01,060214,,,A*69
$GPGGA,120822.000,5224.2570,N,01252.4041,E,1,8,1.10,27.8,M,45.4,M,,*63
$GPRMC,120821.000,A,5224.2452,N,01252.3816,E,65.40,49.92,060214,,,A*6E
$GPGGA,120828.000,5224.3271,N,01252.5443,E,1,8,1.08,26.9,M,45.4,M,,*60
$GPRMC,120827.000,A,5224.3159,N,01252.5200,E,66.41,53.11,060214,,,A*6E
$GPGGA,120834.000,5224.3824,N,01252.7061,E,1,8,1.10,26.0,M,45.4,M,,*61
$GPRMC,120833.000,A,5224.3744,N,01252.6776,E,68.65,64.06,060214,,,A*6C
$GPGGA,120840.000,5224.4154,N,01252.8827,E,1,8,1.10,26.4,M,45.4,M,,*6A
$GPRMC,120839.000,A,5224.4109,N,01252.8533,E,67.57,75.50,060214,,,A*6E
$GPGGA,120846.000,5224.4416,N,01253.0560,E,1,8,1.10,30.4,M,45.4,M,,*6F
$GPRMC,120845.000,A,5224.4372,N,01253.0270,E,65.44,75.55,060214,,,A*67
$GPGGA,120852.000,5224.4677,N,01253.2296,E,1,8,1.10,30.8,M,45.4,M,,*6F
$GPRMC,120851.000,A,5224.4633,N,01253.2005,E,66.08,75.70,060214,,,A*6C
$GPGGA,120858.000,5224.4951,N,01253.4100,E,1,8,1.10,28.3,M,45.4,M,,*66
$GPRMC,120857.000,A,5224.4905,N,01253.3799,E,68.52,75.84,060214,,,A*69
$GPGGA,120904.000,5224.5331,N,01253.5846,E,1,7,1.26,26.9,M,45.3,M,,*60
$GPRMC,120903.000,A,5224.5253,N,01253.5568,E,67.47,66.44,060214,,,A*6F
$GPGGA,120910.000,5224.5921,N,01253.7407,E,1,8,1.10,27.5,M,45.3,M,,*62
$GPRMC,120909.000,A,5224.5809,N,01253.7154,E,68.51,54.97,060214,,,A*6E
$GPGGA,120916.000,5224.6593,N,01253.8951,E,1,8,1.08,27.8,M,45.3,M,,*67
$GPRMC,120915.000,A,5224.6478,N,01253.8691,E,69.90,54.47,060214,,,A*6A
$GPGGA,120922.000,5224.7287,N,01254.0554,E,1,8,1.10,28.6,M,45.3,M,,*6D
$GPRMC,120921.000,A,5224.7174,N,01254.0284,E,72.08,55.30,060214,,,A*60
$GPGGA,120928.000,5224.7972,N,01254.2164,E,1,8,1.08,30.2,M,45.3,M,,*67
$GPRMC,120927.000,A,5224.7858,N,01254.1895,E,72.09,54.99,060214,,,A*69
$GPGGA,120934.000,5224.8657,N,01254.3761,E,1,8,1.10,30.3,M,45.3,M,,*67
$GPRMC,120933.000,A,5224.8543,N,01254.3496,E,71.18,55.16,060214,,,A*6C
$GPGGA,120940.000,5224.9299,N,01254.5423,E,1,8,1.08,30.9,M,45.3,M,,*63
$GPRMC,120939.000,A,5224.9195,N,01254.5139,E,72.36,58.95,060214,,,A*67
$GPGGA,120946.000,5224.9903,N,01254.7152,E,1,8,1.10,31.6,M,45.3,M,,*6B
$GPRMC,120945.000,A,5224.9806,N,01254.6871,E,71.57,59.82,060214,,,A*6A
$GPGGA,120952.000,5225.0485,N,01254.8780,E,1,8,1.08,32.6,M,45.3,M,,*69
$GPRMC,120951.000,A,5225.0387,N,01254.8506,E,69.39,59.76,060214,,,A*6C
$GPGGA,120958.000,5225.1086,N,01255.0446,E,1,8,1.10,34.0,M,45.3,M,,*6C
$GPRMC,120957.000,A,5225.0984,N,01255.0167,E,70.81,59.36,060214,,,A*66
$GPGGA,121004.000,5225.1680,N,01255.2102,E,1,8,1.11,35.4,M,45.3,M,,*6E
$GPRMC,121003.000,A,5225.1590,N,01255.1835,E,69.23,60.66,060214,,,A*67
$GPGGA,121014.000,5225.2185,N,01255.3764,E,1,8,1.10,35.8,M,45.3,M,,*64
$GPRMC,121013.000,A,5225.2171,N,01255.3669,E,23.51,74.97,060214,,,A*6B
ping
$DeviceName=pironex_auto
$Software=0.1.3
$Hardware=1
$LastValidPosition=
$IMEI=359193030849087
$LocalIP=10.164.250.89
$CmdVersion=2
$SUCCESS
$<end>
ping
ping
$GPGGA,121741.000,5225.3102,N,01255.5719,E,1,7,1.24,46.5,M,45.3,M,,*60
$GPRMC,121740.000,A,5225.3053,N,01255.5633,E,24.94,47.02,060214,,,A*61
$GPGGA,121753.000,5225.3969,N,01255.6847,E,1,8,1.11,48.8,M,45.3,M,,*6B
$GPRMC,121752.000,A,5225.3865,N,01255.6740,E,42.51,33.63,060214,,,A*64
$GPGGA,121802.000,5225.5028,N,01255.7621,E,1,8,1.11,47.9,M,45.3,M,,*6B
$GPRMC,121801.000,A,5225.4905,N,01255.7557,E,46.68,18.29,060214,,,A*61
$GPGGA,121811.000,5225.6163,N,01255.7926,E,1,7,1.24,46.4,M,45.3,M,,*69
$GPRMC,121810.000,A,5225.6036,N,01255.7916,E,45.34,3.40,060214,,,A*5C
$GPGGA,121819.000,5225.7248,N,01255.7980,E,1,7,1.24,45.5,M,45.3,M,,*64
$GPRMC,121818.000,A,5225.7108,N,01255.7972,E,50.64,2.08,060214,,,A*57
$GPGGA,121827.000,5225.8341,N,01255.8025,E,1,8,1.11,45.2,M,45.3,M,,*69
$GPRMC,121826.000,A,5225.8206,N,01255.8020,E,48.40,1.83,060214,,,A*56
$GPGGA,121835.000,5225.9418,N,01255.8073,E,1,8,1.08,45.8,M,45.3,M,,*61
$GPRMC,121834.000,A,5225.9286,N,01255.8065,E,47.74,1.72,060214,,,A*5B
$GPGGA,121844.000,5226.0567,N,01255.8129,E,1,8,1.08,46.8,M,45.3,M,,*69
$GPRMC,121843.000,A,5226.0438,N,01255.8124,E,46.71,1.58,060214,,,A*5A
$GPGGA,121853.000,5226.1724,N,01255.8175,E,1,8,1.11,49.2,M,45.3,M,,*6F
$GPRMC,121852.000,A,5226.1593,N,01255.8169,E,47.30,1.78,060214,,,A*54
$GPGGA,121902.000,5226.2854,N,01255.8229,E,1,8,1.11,50.0,M,45.3,M,,*61
$GPRMC,121901.000,A,5226.2726,N,01255.8223,E,45.06,2.11,060214,,,A*5A
$GPGGA,121910.000,5226.4041,N,01255.8423,E,1,8,1.11,50.0,M,45.3,M,,*64
$GPRMC,121909.000,A,5226.3881,N,01255.8375,E,57.53,9.54,060214,,,A*5A
$GPGGA,121917.000,5226.5167,N,01255.8885,E,1,8,1.11,50.4,M,45.3,M,,*63
$GPRMC,121916.000,A,5226.5006,N,01255.8818,E,59.48,13.85,060214,,,A*66
$GPGGA,121924.000,5226.6267,N,01255.9341,E,1,7,1.24,50.5,M,45.3,M,,*69
$GPRMC,121923.000,A,5226.6105,N,01255.9279,E,58.56,13.10,060214,,,A*6F
$GPGGA,121931.000,5226.7479,N,01255.9825,E,1,8,1.11,49.6,M,45.3,M,,*6E
$GPRMC,121930.000,A,5226.7298,N,01255.9749,E,66.69,14.00,060214,,,A*6A
$GPGGA,121937.000,5226.8601,N,01256.0296,E,1,8,1.11,46.7,M,45.3,M,,*6C
$GPRMC,121936.000,A,5226.8415,N,01256.0218,E,69.18,14.17,060214,,,A*64
$GPGGA,121943.000,5226.9708,N,01256.0744,E,1,8,1.11,46.0,M,45.3,M,,*6B
$GPRMC,121942.000,A,5226.9521,N,01256.0669,E,68.85,13.92,060214,,,A*6D
$GPGGA,121949.000,5227.0824,N,01256.1209,E,1,8,1.11,47.1,M,45.3,M,,*65
$GPRMC,121948.000,A,5227.0637,N,01256.1130,E,69.10,14.21,060214,,,A*63
$GPGGA,121955.000,5227.1956,N,01256.1677,E,1,8,1.11,47.8,M,45.3,M,,*69
$GPRMC,121954.000,A,5227.1768,N,01256.1599,E,69.90,13.96,060214,,,A*60
$GPGGA,122001.000,5227.3076,N,01256.2137,E,1,8,1.11,49.5,M,45.3,M,,*68
$GPRMC,122000.000,A,5227.2888,N,01256.2061,E,70.22,13.94,060214,,,A*6B
$GPGGA,122007.000,5227.4255,N,01256.2622,E,1,8,1.11,51.2,M,45.2,M,,*66
$GPRMC,122006.000,A,5227.4056,N,01256.2539,E,74.00,14.32,060214,,,A*67
$GPGGA,122013.000,5227.5458,N,01256.3108,E,1,8,1.11,52.3,M,45.2,M,,*65
$GPRMC,122012.000,A,5227.5258,N,01256.3028,E,74.04,14.01,060214,,,A*6F
$GPGGA,122019.000,5227.6668,N,01256.3595,E,1,8,1.11,52.9,M,45.2,M,,*67
$GPRMC,122018.000,A,5227.6464,N,01256.3513,E,75.16,13.93,060214,,,A*6C
$GPGGA,122025.000,5227.7893,N,01256.4107,E,1,8,1.11,53.2,M,45.2,M,,*61
$GPRMC,122024.000,A,5227.7691,N,01256.4024,E,75.47,14.32,060214,,,A*64
$GPGGA,122031.000,5227.9033,N,01256.4670,E,1,8,1.11,52.2,M,45.2,M,,*6E
$GPRMC,122030.000,A,5227.8853,N,01256.4556,E,69.91,19.50,060214,,,A*61
$GPGGA,122037.000,5228.0055,N,01256.5593,E,1,8,1.11,52.9,M,45.2,M,,*6A
$GPRMC,122036.000,A,5227.9892,N,01256.5412,E,70.92,32.63,060214,,,A*69
$GPGGA,122043.000,5228.0983,N,01256.6855,E,1,8,1.11,53.0,M,45.2,M,,*67
$GPRMC,122042.000,A,5228.0831,N,01256.6637,E,72.93,40.97,060214,,,A*6E
$GPGGA,122049.000,5228.1888,N,01256.8158,E,1,8,1.11,54.6,M,45.2,M,,*6D
$GPRMC,122048.000,A,5228.1737,N,01256.7944,E,71.91,40.80,060214,,,A*61
$GPGGA,122055.000,5228.2796,N,01256.9422,E,1,8,1.11,53.1,M,45.2,M,,*6A
$GPRMC,122054.000,A,5228.2646,N,01256.9211,E,71.42,40.59,060214,,,A*67
$GPGGA,122101.000,5228.3709,N,01257.0696,E,1,8,1.11,53.0,M,45.2,M,,*69
$GPRMC,122100.000,A,5228.3555,N,01257.0484,E,72.36,40.39,060214,,,A*63
$GPGGA,122107.000,5228.4618,N,01257.1975,E,1,8,1.11,52.7,M,45.2,M,,*6C
$GPRMC,122106.000,A,5228.4467,N,01257.1763,E,71.75,40.55,060214,,,A*67
$GPGGA,122113.000,5228.5519,N,01257.3247,E,1,8,1.11,52.0,M,45.2,M,,*65
$GPRMC,122112.000,A,5228.5370,N,01257.3038,E,70.66,40.41,060214,,,A*6F
$GPGGA,122119.000,5228.6403,N,01257.4459,E,1,8,1.11,50.2,M,45.2,M,,*68
$GPRMC,122118.000,A,5228.6258,N,01257.4260,E,68.14,39.59,060214,,,A*6E
$GPGGA,122125.000,5228.7307,N,01257.5711,E,1,8,1.11,47.1,M,45.2,M,,*6E
$GPRMC,122124.000,A,5228.7154,N,01257.5499,E,72.35,40.38,060214,,,A*6F
$GPGGA,122131.000,5228.8291,N,01257.6896,E,1,8,1.11,43.8,M,45.2,M,,*64
$GPRMC,122130.000,A,5228.8116,N,01257.6715,E,74.45,33.12,060214,,,A*6A
$GPGGA,122137.000,5228.9422,N,01257.7778,E,1,8,1.11,42.1,M,45.2,M,,*6B
$GPRMC,122136.000,A,5228.9224,N,01257.7655,E,75.93,21.85,060214,,,A*6C
$GPGGA,122143.000,5229.0658,N,01257.8296,E,1,9,0.94,41.2,M,45.2,M,,*68
$GPRMC,122142.000,A,5229.0447,N,01257.8236,E,76.99,10.96,060214,,,A*63
$GPGGA,122149.000,5229.1944,N,01257.8397,E,1,9,1.00,40.7,M,45.2,M,,*69
$GPRMC,122148.000,A,5229.1727,N,01257.8413,E,77.99,358.99,060214,,,A*5D
$GPGGA,122155.000,5229.3220,N,01257.8189,E,1,9,0.94,40.9,M,45.2,M,,*60
$GPRMC,122154.000,A,5229.3010,N,01257.8227,E,75.97,354.32,060214,,,A*51
$GPGGA,122201.000,5229.4437,N,01257.7969,E,1,9,0.94,41.5,M,45.2,M,,*61
$GPRMC,122200.000,A,5229.4241,N,01257.8004,E,71.53,354.21,060214,,,A*5F
$GPGGA,122207.000,5229.5601,N,01257.7766,E,1,9,1.00,41.9,M,45.2,M,,*60
$GPRMC,122206.000,A,5229.5404,N,01257.7802,E,70.61,353.80,060214,,,A*52
$GPGGA,122213.000,5229.6772,N,01257.7585,E,1,9,1.00,41.7,M,45.2,M,,*62
$GPRMC,122212.000,A,5229.6577,N,01257.7614,E,70.40,354.85,060214,,,A*59
$GPGGA,122219.000,5229.7945,N,01257.7392,E,1,9,0.94,41.8,M,45.2,M,,*60
$GPRMC,122218.000,A,5229.7750,N,01257.7425,E,70.53,354.40,060214,,,A*5E
$GPGGA,122225.000,5229.9085,N,01257.7190,E,1,9,0.94,42.3,M,45.2,M,,*6C
$GPRMC,122224.000,A,5229.8898,N,01257.7223,E,67.86,353.94,060214,,,A*55
$GPGGA,122231.000,5230.0190,N,01257.6999,E,1,9,1.00,43.1,M,45.2,M,,*62
$GPRMC,122230.000,A,5230.0008,N,01257.7032,E,66.47,353.87,060214,,,A*5D
$GPGGA,122237.000,5230.1287,N,01257.6813,E,1,9,1.00,42.9,M,45.2,M,,*6A
$GPRMC,122236.000,A,5230.1101,N,01257.6844,E,67.04,354.42,060214,,,A*52
$GPGGA,122243.000,5230.2401,N,01257.6623,E,1,9,1.00,42.8,M,45.2,M,,*6E
$GPRMC,122242.000,A,5230.2216,N,01257.6655,E,67.00,353.99,060214,,,A*5C
$GPGGA,122249.000,5230.3505,N,01257.6437,E,1,9,0.94,42.8,M,45.2,M,,*6B
$GPRMC,122248.000,A,5230.3321,N,01257.6468,E,66.82,353.96,060214,,,A*5A
$GPGGA,122255.000,5230.4616,N,01257.6250,E,1,9,1.00,42.8,M,45.2,M,,*6B
$GPRMC,122254.000,A,5230.4433,N,01257.6282,E,66.46,354.26,060214,,,A*52
$GPGGA,122301.000,5230.5706,N,01257.6066,E,1,9,1.00,43.7,M,45.2,M,,*63
$GPRMC,122300.000,A,5230.5524,N,01257.6097,E,65.84,353.92,060214,,,A*57
$GPGGA,122307.000,5230.6788,N,01257.6015,E,1,9,1.00,44.1,M,45.2,M,,*65
$GPRMC,122306.000,A,5230.6610,N,01257.6003,E,64.94,1.36,060214,,,A*51
$GPGGA,122314.000,5230.8022,N,01257.6327,E,1,8,1.10,44.5,M,45.2,M,,*68
$GPRMC,122313.000,A,5230.7851,N,01257.6255,E,64.01,12.43,060214,,,A*62
$GPGGA,122321.000,5230.9199,N,01257.6967,E,1,9,0.94,44.6,M,45.2,M,,*6F
$GPRMC,122320.000,A,5230.9035,N,01257.6871,E,63.40,19.16,060214,,,A*63
$GPGGA,122328.000,5231.0347,N,01257.7634,E,1,9,0.94,47.2,M,45.2,M,,*60
$GPRMC,122327.000,A,5231.0181,N,01257.7539,E,63.46,18.96,060214,,,A*6D
$GPGGA,122334.000,5231.1379,N,01257.8195,E,1,9,1.00,48.3,M,45.2,M,,*60
$GPRMC,122333.000,A,5231.1205,N,01257.8098,E,66.09,18.16,060214,,,A*61
$GPGGA,122340.000,5231.2442,N,01257.8754,E,1,9,1.00,48.0,M,45.2,M,,*67
$GPRMC,122339.000,A,5231.2265,N,01257.8668,E,66.88,16.75,060214,,,A*65
$GPGGA,122347.000,5231.3549,N,01257.9219,E,1,9,1.00,47.5,M,45.1,M,,*6F
$GPRMC,122346.000,A,5231.3401,N,01257.9162,E,54.90,13.21,060214,,,A*68
$GPGGA,122355.000,5231.4649,N,01257.9592,E,1,9,0.94,45.8,M,45.1,M,,*6F
$GPRMC,122354.000,A,5231.4510,N,01257.9550,E,50.37,10.65,060214,,,A*62
$GPGGA,122403.000,5231.5738,N,01257.9853,E,1,9,0.94,43.4,M,45.1,M,,*67
$GPRMC,122402.000,A,5231.5610,N,01257.9827,E,47.13,7.60,060214,,,A*5A
$GPGGA,122412.000,5231.6878,N,01258.0025,E,1,9,1.00,42.0,M,45.1,M,,*69
$GPRMC,122411.000,A,5231.6748,N,01258.0009,E,47.11,4.75,060214,,,A*50
$GPGGA,122420.000,5231.7977,N,01258.0084,E,1,9,1.00,42.9,M,45.1,M,,*65
$GPRMC,122419.000,A,5231.7828,N,01258.0082,E,53.03,1.14,060214,,,A*57
$GPGGA,122427.000,5231.9128,N,01258.0059,E,1,9,1.00,43.9,M,45.1,M,,*6F
$GPRMC,122426.000,A,5231.8958,N,01258.0070,E,61.87,358.37,060214,,,A*5C
$GPGGA,122434.000,5232.0362,N,01257.9920,E,1,8,1.12,44.9,M,45.1,M,,*6F
$GPRMC,122433.000,A,5232.0178,N,01257.9948,E,66.18,355.00,060214,,,A*55
$GPGGA,122440.000,5232.1472,N,01257.9694,E,1,9,1.01,45.7,M,45.1,M,,*67
$GPRMC,122439.000,A,5232.1282,N,01257.9739,E,68.19,352.13,060214,,,A*5A
$GPGGA,122446.000,5232.2612,N,01257.9365,E,1,9,1.00,47.1,M,45.1,M,,*68
$GPRMC,122445.000,A,5232.2425,N,01257.9426,E,69.06,349.23,060214,,,A*52
$GPGGA,122452.000,5232.3706,N,01257.8973,E,1,9,1.01,49.0,M,45.1,M,,*6A
$GPRMC,122451.000,A,5232.3520,N,01257.9040,E,68.05,347.70,060214,,,A*5C
$GPGGA,122458.000,5232.4841,N,01257.8585,E,1,9,1.01,51.6,M,45.1,M,,*61
$GPRMC,122457.000,A,5232.4647,N,01257.8646,E,70.63,349.26,060214,,,A*5A
$GPGGA,122504.000,5232.6040,N,01257.8267,E,1,9,1.01,53.7,M,45.1,M,,*6A
$GPRMC,122503.000,A,5232.5840,N,01257.8311,E,73.02,351.95,060214,,,A*50
$GPGGA,122510.000,5232.7268,N,01257.8069,E,1,9,1.01,55.5,M,45.1,M,,*6E
$GPRMC,122509.000,A,5232.7062,N,01257.8095,E,74.45,355.33,060214,,,A*53
$GPGGA,122516.000,5232.8503,N,01257.8010,E,1,9,1.01,59.1,M,45.1,M,,*6B
$GPRMC,122515.000,A,5232.8301,N,01257.8005,E,73.65,0.20,060214,,,A*5A
$GPGGA,122522.000,5232.9683,N,01257.8089,E,1,9,1.01,61.1,M,45.1,M,,*6D
$GPRMC,122521.000,A,5232.9489,N,01257.8080,E,70.36,1.52,060214,,,A*57
$GPGGA,122528.000,5233.0865,N,01257.8237,E,1,9,0.95,58.1,M,45.1,M,,*68
$GPRMC,122527.000,A,5233.0663,N,01257.8202,E,72.60,5.27,060214,,,A*50
$GPGGA,122534.000,5233.2117,N,01257.8528,E,1,9,1.01,54.7,M,45.1,M,,*64
$GPRMC,122533.000,A,5233.1907,N,01257.8464,E,76.74,9.44,060214,,,A*57
$GPGGA,122540.000,5233.3317,N,01257.8968,E,1,9,1.01,51.8,M,45.1,M,,*66
$GPRMC,122539.000,A,5233.3127,N,01257.8894,E,70.67,13.14,060214,,,A*6C
$GPGGA,122546.000,5233.4391,N,01257.9345,E,1,9,0.95,49.0,M,45.1,M,,*60
$GPRMC,122545.000,A,5233.4216,N,01257.9288,E,64.12,11.07,060214,,,A*60
$GPGGA,122552.000,5233.5447,N,01257.9809,E,1,9,1.01,47.2,M,45.1,M,,*6B
$GPRMC,122551.000,A,5233.5268,N,01257.9715,E,67.09,16.94,060214,,,A*68
$GPGGA,122558.000,5233.6532,N,01258.0414,E,1,9,1.01,45.3,M,45.1,M,,*64
$GPRMC,122557.000,A,5233.6350,N,01258.0314,E,69.24,18.24,060214,,,A*60
$GPGGA,122604.000,5233.7615,N,01258.1009,E,1,9,0.95,44.8,M,45.1,M,,*66
$GPRMC,122603.000,A,5233.7433,N,01258.0910,E,68.65,18.16,060214,,,A*6A
$GPGGA,122610.000,5233.8714,N,01258.1601,E,1,9,1.01,44.9,M,45.1,M,,*6F
$GPRMC,122609.000,A,5233.8534,N,01258.1508,E,68.33,17.58,060214,,,A*6B
$GPGGA,122616.000,5233.9792,N,01258.2134,E,1,9,1.01,45.3,M,45.1,M,,*6F
$GPRMC,122615.000,A,5233.9608,N,01258.2045,E,68.67,16.38,060214,,,A*62
$GPGGA,122622.000,5234.0906,N,01258.2628,E,1,9,1.01,45.4,M,45.1,M,,*68
$GPRMC,122621.000,A,5234.0723,N,01258.2553,E,67.82,14.27,060214,,,A*69
$GPGGA,122628.000,5234.2030,N,01258.3049,E,1,9,1.01,45.6,M,45.1,M,,*6E
$GPRMC,122627.000,A,5234.1840,N,01258.2983,E,69.73,12.09,060214,,,A*6F
$GPGGA,122634.000,5234.3158,N,01258.3382,E,1,8,1.05,45.4,M,45.1,M,,*6E
$GPRMC,122633.000,A,5234.2972,N,01258.3332,E,68.09,9.48,060214,,,A*5B
$GPGGA,122640.000,5234.4280,N,01258.3639,E,1,9,0.95,44.7,M,45.1,M,,*62
$GPRMC,122639.000,A,5234.4094,N,01258.3601,E,67.92,7.29,060214,,,A*57
$GPGGA,122646.000,5234.5430,N,01258.3813,E,1,9,1.01,44.6,M,45.1,M,,*63
$GPRMC,122645.000,A,5234.5237,N,01258.3790,E,70.58,4.66,060214,,,A*57
$GPGGA,122652.000,5234.6566,N,01258.3901,E,1,8,1.16,45.5,M,45.1,M,,*60
$GPRMC,122651.000,A,5234.6381,N,01258.3892,E,67.75,2.18,060214,,,A*56
$GPGGA,122658.000,5234.7658,N,01258.3907,E,1,8,1.04,46.8,M,45.1,M,,*6E
$GPRMC,122657.000,A,5234.7477,N,01258.3913,E,65.58,359.77,060214,,,A*5E
$GPGGA,122704.000,5234.8760,N,01258.3891,E,1,9,1.01,48.4,M,45.1,M,,*6B
$GPRMC,122703.000,A,5234.8575,N,01258.3886,E,66.83,0.71,060214,,,A*53
$GPGGA,122710.000,5234.9863,N,01258.3837,E,1,9,1.01,50.7,M,45.1,M,,*65
$GPRMC,122709.000,A,5234.9678,N,01258.3862,E,66.56,355.83,060214,,,A*5A
$GPGGA,122717.000,5235.1055,N,01258.3600,E,1,8,1.03,52.5,M,45.1,M,,*6F
$GPRMC,122716.000,A,5235.0899,N,01258.3640,E,57.49,351.44,060214,,,A*50
$GPGGA,122725.000,5235.2261,N,01258.3289,E,1,8,1.03,54.0,M,45.1,M,,*6E
$GPRMC,122724.000,A,5235.2116,N,01258.3330,E,53.04,350.76,060214,,,A*52
$GPGGA,122732.000,5235.3387,N,01258.2951,E,1,9,1.01,55.6,M,45.1,M,,*6B
$GPRMC,122731.000,A,5235.3212,N,01258.3002,E,63.34,350.24,060214,,,A*55
$GPGGA,122738.000,5235.4479,N,01258.2626,E,1,9,1.01,57.6,M,45.1,M,,*6D
$GPRMC,122737.000,A,5235.4293,N,01258.2683,E,68.10,349.76,060214,,,A*51
$GPGGA,122744.000,5235.5593,N,01258.2311,E,1,9,1.01,57.7,M,45.1,M,,*62
$GPRMC,122743.000,A,5235.5408,N,01258.2363,E,67.58,350.57,060214,,,A*54
$GPGGA,122750.000,5235.6720,N,01258.1981,E,1,9,1.01,55.1,M,45.1,M,,*6A
$GPRMC,122749.000,A,5235.6529,N,01258.2018,E,68.78,352.27,060214,,,A*58
$GPGGA,122756.000,5235.7871,N,01258.1844,E,1,9,1.01,49.9,M,45.1,M,,*6B
$GPRMC,122755.000,A,5235.7680,N,01258.1862,E,69.04,356.32,060214,,,A*58
$GPGGA,122802.000,5235.8996,N,01258.1792,E,1,9,0.95,47.2,M,45.1,M,,*6F
$GPRMC,122801.000,A,5235.8806,N,01258.1796,E,68.03,359.13,060214,,,A*57
$GPGGA,122808.000,5236.0171,N,01258.1830,E,1,9,1.01,45.9,M,45.1,M,,*6D
$GPRMC,122807.000,A,5235.9973,N,01258.1817,E,71.44,1.85,060214,,,A*5F
$GPGGA,122814.000,5236.1367,N,01258.1964,E,1,9,0.95,45.2,M,45.1,M,,*63
$GPRMC,122813.000,A,5236.1167,N,01258.1934,E,72.24,4.46,060214,,,A*53
$GPGGA,122820.000,5236.2562,N,01258.2188,E,1,8,1.03,44.4,M,45.0,M,,*64
$GPRMC,122819.000,A,5236.2361,N,01258.2143,E,73.07,7.51,060214,,,A*50
$GPGGA,122826.000,5236.3775,N,01258.2511,E,1,9,1.01,44.4,M,45.0,M,,*60
$GPRMC,122825.000,A,5236.3571,N,01258.2452,E,74.20,9.64,060214,,,A*56
$GPGGA,122832.000,5236.5018,N,01258.2943,E,1,9,1.02,44.6,M,45.0,M,,*65
$GPRMC,122831.000,A,5236.4810,N,01258.2864,E,76.69,12.70,060214,,,A*67
$GPGGA,122838.000,5236.6213,N,01258.3453,E,1,9,1.02,44.6,M,45.0,M,,*68
$GPRMC,122837.000,A,5236.6018,N,01258.3362,E,73.12,15.24,060214,,,A*60
$GPGGA,122843.000,5236.7344,N,01258.4064,E,1,9,1.02,43.2,M,45.0,M,,*62
$GPRMC,122842.000,A,5236.7153,N,01258.3959,E,72.97,17.50,060214,,,A*62
$GPGGA,122849.000,5236.8507,N,01258.4753,E,1,9,1.02,42.0,M,45.0,M,,*66
$GPRMC,122848.000,A,5236.8315,N,01258.4634,E,74.40,20.63,060214,,,A*6C
$GPGGA,122855.000,5236.9655,N,01258.5535,E,1,9,1.02,40.3,M,45.0,M,,*6C
$GPRMC,122854.000,A,5236.9464,N,01258.5395,E,75.27,23.74,060214,,,A*6B
$GPGGA,122901.000,5237.0794,N,01258.6364,E,1,9,1.02,37.2,M,45.0,M,,*68
$GPRMC,122900.000,A,5237.0605,N,01258.6228,E,74.56,23.54,060214,,,A*67
$GPGGA,122907.000,5237.1938,N,01258.7166,E,1,9,1.02,34.9,M,45.0,M,,*6E
$GPRMC,122906.000,A,5237.1746,N,01258.7034,E,74.75,23.17,060214,,,A*6E
$GPGGA,122913.000,5237.3056,N,01258.7922,E,1,8,1.22,33.4,M,45.0,M,,*69
$GPRMC,122912.000,A,5237.2874,N,01258.7799,E,71.16,22.49,060214,,,A*6C
$GPGGA,122919.000,5237.4112,N,01258.8619,E,1,9,1.02,32.6,M,45.0,M,,*6D
$GPRMC,122918.000,A,5237.3942,N,01258.8512,E,66.50,21.38,060214,,,A*6C
$GPGGA,122926.000,5237.5213,N,01258.9280,E,1,9,0.95,30.5,M,45.0,M,,*69
$GPRMC,122925.000,A,5237.5064,N,01258.9192,E,57.77,20.17,060214,,,A*6F
$GPGGA,122933.000,5237.6229,N,01258.9868,E,1,9,0.95,28.4,M,45.0,M,,*63
$GPRMC,122932.000,A,5237.6079,N,01258.9786,E,56.53,18.79,060214,,,A*61
$GPGGA,122940.000,5237.7302,N,01259.0461,E,1,10,0.81,26.7,M,45.0,M,,*53
$GPRMC,122939.000,A,5237.7148,N,01259.0376,E,58.97,18.81,060214,,,A*6A
$GPGGA,122947.000,5237.8357,N,01259.1089,E,1,9,1.02,25.5,M,45.0,M,,*6B
$GPRMC,122946.000,A,5237.8211,N,01259.1000,E,56.18,20.24,060214,,,A*6C
$GPGGA,122954.000,5237.9382,N,01259.1737,E,1,9,1.02,24.5,M,45.0,M,,*63
$GPRMC,122953.000,A,5237.9234,N,01259.1642,E,57.15,21.30,060214,,,A*66
$GPGGA,123001.000,5238.0387,N,01259.2368,E,1,9,1.02,23.4,M,45.0,M,,*63
$GPRMC,123000.000,A,5238.0244,N,01259.2274,E,55.34,21.00,060214,,,A*69
$GPGGA,123008.000,5238.1445,N,01259.3097,E,1,9,0.95,22.0,M,45.0,M,,*6A
$GPRMC,123007.000,A,5238.1290,N,01259.2988,E,60.93,23.23,060214,,,A*66
$GPGGA,123015.000,5238.2528,N,01259.3898,E,1,10,0.82,21.0,M,45.0,M,,*55
$GPRMC,123014.000,A,5238.2376,N,01259.3781,E,60.69,24.41,060214,,,A*6E
$GPGGA,123022.000,5238.3611,N,01259.4756,E,1,10,0.82,20.7,M,45.0,M,,*55
$GPRMC,123021.000,A,5238.3454,N,01259.4628,E,63.06,26.12,060214,,,A*65
$GPGGA,123029.000,5238.4693,N,01259.5675,E,1,10,0.82,20.5,M,45.0,M,,*50
$GPRMC,123028.000,A,5238.4537,N,01259.5541,E,63.12,27.31,060214,,,A*67
$GPGGA,123035.000,5238.5676,N,01259.6527,E,1,10,0.82,20.5,M,45.0,M,,*50
$GPRMC,123034.000,A,5238.5509,N,01259.6380,E,68.21,27.90,060214,,,A*6E
$GPGGA,123041.000,5238.6688,N,01259.7419,E,1,10,0.82,21.0,M,45.0,M,,*58
$GPRMC,123040.000,A,5238.6520,N,01259.7273,E,68.41,28.04,060214,,,A*6D
$GPGGA,123047.000,5238.7693,N,01259.8240,E,1,10,0.82,21.4,M,45.0,M,,*54
$GPRMC,123046.000,A,5238.7527,N,01259.8110,E,66.60,25.84,060214,,,A*6C
$GPGGA,123054.000,5238.8833,N,01259.9061,E,1,10,0.82,22.2,M,45.0,M,,*58
$GPRMC,123053.000,A,5238.8672,N,01259.8952,E,62.86,22.73,060214,,,A*69
$GPGGA,123101.000,5238.9959,N,01259.9808,E,1,10,0.81,23.4,M,45.0,M,,*56
$GPRMC,123100.000,A,5238.9792,N,01259.9700,E,63.79,21.83,060214,,,A*65
$GPGGA,123107.000,5239.1009,N,01300.0457,E,1,10,0.82,23.2,M,45.0,M,,*52
$GPRMC,123106.000,A,5239.0829,N,01300.0352,E,68.29,19.97,060214,,,A*63
$GPGGA,123113.000,5239.2130,N,01300.1067,E,1,10,0.82,24.2,M,45.0,M,,*5E
$GPRMC,123112.000,A,5239.1941,N,01300.0970,E,70.73,17.82,060214,,,A*6E
$GPGGA,123119.000,5239.3284,N,01300.1611,E,1,10,0.82,25.5,M,45.0,M,,*58
$GPRMC,123118.000,A,5239.3088,N,01300.1524,E,72.49,15.59,060214,,,A*69
$GPGGA,123125.000,5239.4469,N,01300.2088,E,1,10,0.82,27.6,M,45.0,M,,*51
$GPRMC,123124.000,A,5239.4274,N,01300.2016,E,72.28,13.04,060214,,,A*6E
$GPGGA,123131.000,5239.5623,N,01300.2479,E,1,10,0.82,29.0,M,44.9,M,,*53
$GPRMC,123130.000,A,5239.5430,N,01300.2418,E,70.09,11.09,060214,,,A*68
$GPGGA,123137.000,5239.6795,N,01300.2808,E,1,10,0.82,30.2,M,44.9,M,,*5A
$GPRMC,123136.000,A,5239.6600,N,01300.2758,E,71.14,9.08,060214,,,A*5E
$GPGGA,123143.000,5239.7956,N,01300.3055,E,1,9,0.86,30.7,M,44.9,M,,*61
$GPRMC,123142.000,A,5239.7765,N,01300.3020,E,69.57,7.04,060214,,,A*5B
$GPGGA,123149.000,5239.9097,N,01300.3238,E,1,11,0.77,30.8,M,44.9,M,,*50
$GPRMC,123148.000,A,5239.8906,N,01300.3209,E,68.49,5.58,060214,,,A*59
$GPGGA,123155.000,5240.0224,N,01300.3400,E,1,11,0.77,31.0,M,44.9,M,,*54
$GPRMC,123154.000,A,5240.0042,N,01300.3371,E,66.19,5.49,060214,,,A*5E
$GPGGA,123201.000,5240.1310,N,01300.3564,E,1,11,0.77,31.2,M,44.9,M,,*50
$GPRMC,123200.000,A,5240.1126,N,01300.3536,E,66.05,5.38,060214,,,A*50
$GPGGA,123207.000,5240.2439,N,01300.3719,E,1,10,0.82,32.1,M,44.9,M,,*5A
$GPRMC,123206.000,A,5240.2251,N,01300.3691,E,68.24,4.94,060214,,,A*52
$GPGGA,123213.000,5240.3568,N,01300.3879,E,1,11,0.77,32.1,M,44.9,M,,*59
$GPRMC,123212.000,A,5240.3381,N,01300.3851,E,68.16,5.07,060214,,,A*52
$GPGGA,123219.000,5240.4714,N,01300.4053,E,1,11,0.77,32.3,M,44.9,M,,*58
$GPRMC,123218.000,A,5240.4522,N,01300.4026,E,69.46,5.26,060214,,,A*58
$GPGGA,123225.000,5240.5845,N,01300.4232,E,1,11,0.77,33.3,M,44.9,M,,*59
$GPRMC,123224.000,A,5240.5659,N,01300.4204,E,67.76,5.29,060214,,,A*59
$GPGGA,123231.000,5240.6958,N,01300.4401,E,1,11,0.77,33.7,M,44.9,M,,*50
$GPRMC,123230.000,A,5240.6772,N,01300.4373,E,67.60,5.35,060214,,,A*5C
$GPGGA,123237.000,5240.8072,N,01300.4575,E,1,11,0.77,34.1,M,44.9,M,,*5A
$GPRMC,123236.000,A,5240.7891,N,01300.4546,E,66.50,5.36,060214,,,A*58
$GPGGA,123243.000,5240.9152,N,01300.4740,E,1,11,0.77,35.2,M,44.9,M,,*5D
$GPRMC,123242.000,A,5240.8969,N,01300.4712,E,65.91,5.31,060214,,,A*58
$GPGGA,123249.000,5241.0244,N,01300.4916,E,1,11,0.77,36.4,M,44.9,M,,*53
$GPRMC,123248.000,A,5241.0065,N,01300.4884,E,65.28,5.81,060214,,,A*57
$GPGGA,123255.000,5241.1341,N,01300.5089,E,1,10,0.80,37.4,M,44.9,M,,*5D
$GPRMC,123254.000,A,5241.1156,N,01300.5060,E,66.51,5.04,060214,,,A*59
$GPGGA,123301.000,5241.2439,N,01300.5259,E,1,11,0.77,38.3,M,44.9,M,,*58
$GPRMC,123300.000,A,5241.2257,N,01300.5232,E,66.48,5.13,060214,,,A*53
$GPGGA,123307.000,5241.3534,N,01300.5427,E,1,11,0.77,39.0,M,44.9,M,,*5E
$GPRMC,123306.000,A,5241.3351,N,01300.5399,E,66.24,5.31,060214,,,A*59
$GPGGA,123314.000,5241.4774,N,01300.5624,E,1,11,0.77,40.1,M,44.9,M,,*53
$GPRMC,123313.000,A,5241.4600,N,01300.5598,E,62.66,5.28,060214,,,A*56
$GPGGA,123320.000,5241.5857,N,01300.5790,E,1,11,0.77,41.1,M,44.9,M,,*54
$GPRMC,123319.000,A,5241.5675,N,01300.5765,E,65.87,5.14,060214,,,A*58
$GPGGA,123327.000,5241.6971,N,01300.5958,E,1,11,0.77,41.4,M,44.9,M,,*5A
$GPRMC,123326.000,A,5241.6828,N,01300.5937,E,52.16,5.20,060214,,,A*53
$GPGGA,123335.000,5241.8097,N,01300.6131,E,1,11,0.77,41.7,M,44.9,M,,*51
$GPRMC,123334.000,A,5241.7955,N,01300.6107,E,51.09,5.24,060214,,,A*5B
$GPGGA,123343.000,5241.9242,N,01300.6311,E,1,11,0.77,40.9,M,44.9,M,,*54
$GPRMC,123342.000,A,5241.9103,N,01300.6289,E,50.90,5.50,060214,,,A*58
$GPGGA,123353.000,5242.0347,N,01300.6440,E,1,11,0.77,41.9,M,44.9,M,,*59
$GPRMC,123352.000,A,5242.0242,N,01300.6432,E,38.25,1.21,060214,,,A*51
$GPGGA,123403.000,5242.1426,N,01300.6527,E,1,10,0.82,39.8,M,44.9,M,,*5F
$GPRMC,123402.000,A,5242.1315,N,01300.6528,E,39.88,359.54,060214,,,A*51
$GPGGA,123413.000,5242.2542,N,01300.6686,E,1,10,0.91,38.7,M,44.9,M,,*5A
$GPRMC,123412.000,A,5242.2430,N,01300.6667,E,41.31,5.37,060214,,,A*59
$GPGGA,123422.000,5242.3615,N,01300.6859,E,1,10,1.00,38.0,M,44.9,M,,*5A
$GPRMC,123421.000,A,5242.3493,N,01300.6838,E,44.27,6.08,060214,,,A*58
$GPGGA,123431.000,5242.4718,N,01300.7274,E,1,10,1.01,36.3,M,44.9,M,,*5B
$GPRMC,123430.000,A,5242.4600,N,01300.7200,E,45.33,19.79,060214,,,A*6B
$GPGGA,123440.000,5242.5694,N,01300.8275,E,1,9,1.03,35.4,M,44.9,M,,*69
$GPRMC,123439.000,A,5242.5597,N,01300.8132,E,46.83,39.32,060214,,,A*66
$GPGGA,123449.000,5242.6474,N,01300.9772,E,1,11,0.77,37.7,M,44.9,M,,*56
$GPRMC,123448.000,A,5242.6401,N,01300.9594,E,46.90,54.56,060214,,,A*6F
$GPGGA,123458.000,5242.6972,N,01301.1395,E,1,9,0.91,41.5,M,44.9,M,,*6B
$GPRMC,123457.000,A,5242.6931,N,01301.1212,E,42.62,68.24,060214,,,A*6C
$GPGGA,123508.000,5242.7134,N,01301.3261,E,1,10,1.01,42.0,M,44.9,M,,*5A
$GPRMC,123507.000,A,5242.7137,N,01301.3075,E,40.49,89.14,060214,,,A*61
$GPGGA,123519.000,5242.6894,N,01301.5064,E,1,10,1.01,38.8,M,44.9,M,,*5C
$GPRMC,123518.000,A,5242.6924,N,01301.4945,E,30.07,110.07,060214,,,A*57
$GPGGA,123544.000,5242.6855,N,01301.3229,E,1,10,0.82,35.1,M,44.9,M,,*5A
$GPRMC,123543.000,A,5242.6828,N,01301.3397,E,37.37,285.78,060214,,,A*55
$GPGGA,123555.000,5242.7161,N,01301.1424,E,1,11,0.77,34.0,M,44.9,M,,*57
$GPRMC,123554.000,A,5242.7133,N,01301.1591,E,37.23,284.84,060214,,,A*54
$GPGGA,123607.000,5242.7381,N,01300.9560,E,1,9,1.04,34.2,M,44.9,M,,*69
$GPRMC,123606.000,A,5242.7365,N,01300.9702,E,31.04,279.64,060214,,,A*5F
$GPGGA,123619.000,5242.7676,N,01300.7741,E,1,10,1.01,33.6,M,44.9,M,,*5A
$GPRMC,123618.000,A,5242.7651,N,01300.7898,E,35.35,285.27,060214,,,A*52
$GPGGA,123630.000,5242.7972,N,01300.5948,E,1,11,0.77,35.0,M,44.9,M,,*5E
$GPRMC,123629.000,A,5242.7943,N,01300.6119,E,38.97,285.81,060214,,,A*54
$GPGGA,123641.000,5242.8258,N,01300.4160,E,1,9,0.83,34.3,M,44.9,M,,*67
$GPRMC,123640.000,A,5242.8234,N,01300.4318,E,35.30,284.03,060214,,,A*55
$GPGGA,123652.000,5242.8526,N,01300.2346,E,1,8,0.87,34.5,M,44.9,M,,*68
$GPRMC,123651.000,A,5242.8502,N,01300.2513,E,37.03,283.56,060214,,,A*59
$GPGGA,123702.000,5242.8792,N,01300.0490,E,1,9,1.04,35.1,M,44.9,M,,*61
$GPRMC,123701.000,A,5242.8765,N,01300.0688,E,43.90,283.12,060214,,,A*54
$GPGGA,123711.000,5242.9034,N,01259.8749,E,1,11,0.76,36.3,M,44.9,M,,*57
$GPRMC,123710.000,A,5242.9010,N,01259.8935,E,41.99,282.60,060214,,,A*53
$GPGGA,123721.000,5242.9269,N,01259.6974,E,1,10,0.77,37.0,M,44.9,M,,*52
$GPRMC,123720.000,A,5242.9246,N,01259.7153,E,39.41,282.09,060214,,,A*53
$GPGGA,123731.000,5242.9496,N,01259.5165,E,1,9,0.92,38.1,M,44.9,M,,*63
$GPRMC,123730.000,A,5242.9473,N,01259.5343,E,39.91,282.06,060214,,,A*51
$GPGGA,123742.000,5242.9714,N,01259.3342,E,1,11,0.72,38.4,M,44.9,M,,*5D
$GPRMC,123741.000,A,5242.9695,N,01259.3500,E,35.43,280.89,060214,,,A*5C
$GPGGA,123753.000,5242.9934,N,01259.1439,E,1,10,0.89,37.8,M,44.9,M,,*5E
$GPRMC,123752.000,A,5242.9913,N,01259.1619,E,40.07,280.75,060214,,,A*57
$GPGGA,123803.000,5243.0130,N,01258.9621,E,1,8,1.00,37.2,M,44.9,M,,*61
$GPRMC,123802.000,A,5243.0110,N,01258.9806,E,41.34,279.71,060214,,,A*54
$GPGGA,123813.000,5243.0316,N,01258.7816,E,1,11,0.72,36.9,M,44.9,M,,*54
$GPRMC,123812.000,A,5243.0299,N,01258.7975,E,36.52,279.40,060214,,,A*5E
$GPGGA,123825.000,5243.0488,N,01258.6033,E,1,10,0.80,36.5,M,44.9,M,,*5F
$GPRMC,123824.000,A,5243.0475,N,01258.6193,E,34.52,277.53,060214,,,A*50
$GPGGA,123835.000,5243.0649,N,01258.4215,E,1,9,0.92,37.7,M,44.9,M,,*6D
$GPRMC,123834.000,A,5243.0632,N,01258.4404,E,41.74,278.48,060214,,,A*5A
$GPGGA,123845.000,5243.0810,N,01258.2345,E,1,9,0.87,39.2,M,44.9,M,,*65
$GPRMC,123844.000,A,5243.0793,N,01258.2529,E,40.65,278.11,060214,,,A*52
$GPGGA,123855.000,5243.0983,N,01258.0517,E,1,9,0.91,40.0,M,44.9,M,,*67
$GPRMC,123854.000,A,5243.0965,N,01258.0693,E,39.28,279.14,060214,,,A*57
$GPGGA,123905.000,5243.1184,N,01257.8748,E,1,11,0.80,40.7,M,44.9,M,,*5C
$GPRMC,123904.000,A,5243.1161,N,01257.8926,E,39.58,281.14,060214,,,A*58
$GPGGA,123915.000,5243.1444,N,01257.6949,E,1,11,0.76,41.3,M,44.9,M,,*59
$GPRMC,123914.000,A,5243.1414,N,01257.7130,E,41.05,284.34,060214,,,A*5E
$GPGGA,123924.000,5243.1834,N,01257.5123,E,1,12,0.71,40.9,M,44.9,M,,*58
$GPRMC,123923.000,A,5243.1790,N,01257.5347,E,51.15,287.57,060214,,,A*53
$GPGGA,123932.000,5243.2221,N,01257.3330,E,1,11,0.77,39.6,M,44.9,M,,*50
$GPRMC,123931.000,A,5243.2168,N,01257.3557,E,52.60,290.62,060214,,,A*52
$GPGGA,123940.000,5243.2680,N,01257.1498,E,1,11,0.72,38.6,M,44.9,M,,*59
$GPRMC,123939.000,A,5243.2618,N,01257.1726,E,54.35,293.68,060214,,,A*53
$GPGGA,123947.000,5243.3158,N,01256.9850,E,1,11,0.79,38.6,M,44.9,M,,*57
$GPRMC,123946.000,A,5243.3084,N,01257.0092,E,58.82,296.43,060214,,,A*5C
$GPGGA,123954.000,5243.3750,N,01256.7999,E,1,12,0.71,37.4,M,44.9,M,,*57
$GPRMC,123953.000,A,5243.3654,N,01256.8276,E,68.68,299.08,060214,,,A*55
$GPGGA,124000.000,5243.4406,N,01256.6269,E,1,11,0.76,35.5,M,44.9,M,,*5D
$GPRMC,123959.000,A,5243.4289,N,01256.6565,E,76.74,302.78,060214,,,A*51
$GPGGA,124005.000,5243.5041,N,01256.4773,E,1,11,0.76,33.4,M,44.9,M,,*55
$GPRMC,124004.000,A,5243.4910,N,01256.5069,E,80.16,305.76,060214,,,A*52
$GPGGA,124010.000,5243.5719,N,01256.3340,E,1,10,0.86,31.4,M,44.9,M,,*54
$GPRMC,124009.000,A,5243.5582,N,01256.3621,E,79.25,308.24,060214,,,A*59
$GPGGA,124015.000,5243.6421,N,01256.1966,E,1,11,0.76,28.9,M,44.9,M,,*5D
$GPRMC,124014.000,A,5243.6280,N,01256.2237,E,78.47,310.30,060214,,,A*58
$GPGGA,124021.000,5243.7230,N,01256.0395,E,1,10,0.85,27.1,M,44.9,M,,*50
$GPRMC,124020.000,A,5243.7098,N,01256.0657,E,74.44,309.82,060214,,,A*5B
$GPGGA,124027.000,5243.8031,N,01255.8814,E,1,10,0.84,25.7,M,44.9,M,,*56
$GPRMC,124026.000,A,5243.7896,N,01255.9081,E,75.96,309.85,060214,,,A*55
$GPGGA,124033.000,5243.8852,N,01255.7197,E,1,10,0.84,24.3,M,44.9,M,,*56
$GPRMC,124032.000,A,5243.8715,N,01255.7467,E,76.84,309.79,060214,,,A*5A
$GPGGA,124039.000,5243.9666,N,01255.5585,E,1,11,0.80,23.4,M,44.9,M,,*54
$GPRMC,124038.000,A,5243.9530,N,01255.5852,E,75.84,309.67,060214,,,A*50
$GPGGA,124045.000,5244.0495,N,01255.3960,E,1,11,0.79,22.6,M,44.9,M,,*5B
$GPRMC,124044.000,A,5244.0355,N,01255.4236,E,78.07,309.95,060214,,,A*52
$GPGGA,124050.000,5244.1195,N,01255.2565,E,1,12,0.71,22.1,M,44.9,M,,*5F
$GPRMC,124049.000,A,5244.1055,N,01255.2844,E,79.33,309.55,060214,,,A*5E
$GPGGA,124055.000,5244.1889,N,01255.1183,E,1,12,0.71,21.6,M,45.0,M,,*5D
$GPRMC,124054.000,A,5244.1753,N,01255.1460,E,78.42,309.23,060214,,,A*5C
$GPGGA,124101.000,5244.2693,N,01254.9543,E,1,12,0.71,21.3,M,45.0,M,,*5F
$GPRMC,124100.000,A,5244.2561,N,01254.9813,E,76.20,308.51,060214,,,A*53
$GPGGA,124107.000,5244.3460,N,01254.7913,E,1,12,0.71,21.3,M,45.0,M,,*51
$GPRMC,124106.000,A,5244.3335,N,01254.8186,E,75.04,307.45,060214,,,A*58
$GPGGA,124113.000,5244.4180,N,01254.6245,E,1,12,0.71,21.0,M,45.0,M,,*52
$GPRMC,124112.000,A,5244.4063,N,01254.6530,E,75.04,304.49,060214,,,A*52
$GPGGA,124119.000,5244.4874,N,01254.4530,E,1,11,0.77,20.8,M,45.0,M,,*51
$GPRMC,124118.000,A,5244.4763,N,01254.4810,E,73.52,303.56,060214,,,A*5E
$GPGGA,124125.000,5244.5557,N,01254.2761,E,1,12,0.71,20.3,M,45.0,M,,*5D
$GPRMC,124124.000,A,5244.5443,N,01254.3068,E,78.56,301.94,060214,,,A*52
$GPGGA,124130.000,5244.6122,N,01254.1187,E,1,12,0.71,20.3,M,45.0,M,,*51
$GPRMC,124129.000,A,5244.6010,N,01254.1506,E,80.39,300.18,060214,,,A*5A
$GPGGA,124135.000,5244.6665,N,01253.9599,E,1,12,0.71,21.0,M,45.0,M,,*56
$GPRMC,124134.000,A,5244.6559,N,01253.9917,E,79.00,298.88,060214,,,A*58
$GPGGA,124141.000,5244.7250,N,01253.7781,E,1,11,0.72,22.7,M,45.0,M,,*57
$GPRMC,124140.000,A,5244.7156,N,01253.8082,E,73.82,297.28,060214,,,A*50
$GPGGA,124147.000,5244.7789,N,01253.5915,E,1,11,0.72,24.8,M,45.0,M,,*58
$GPRMC,124146.000,A,5244.7701,N,01253.6231,E,76.47,294.70,060214,,,A*54
$GPGGA,124153.000,5244.8272,N,01253.4069,E,1,12,0.71,26.1,M,45.0,M,,*5B
$GPRMC,124152.000,A,5244.8194,N,01253.4376,E,72.99,292.96,060214,,,A*5D
$GPGGA,124159.000,5244.8711,N,01253.2245,E,1,11,0.77,27.1,M,45.0,M,,*5F
$GPRMC,124158.000,A,5244.8640,N,01253.2550,E,71.44,291.14,060214,,,A*57
$GPGGA,124205.000,5244.9089,N,01253.0549,E,1,12,0.71,27.3,M,45.0,M,,*5C
$GPRMC,124204.000,A,5244.9032,N,01253.0816,E,62.34,289.66,060214,,,A*5B
$GPGGA,124212.000,5244.9454,N,01252.8719,E,1,12,0.71,27.6,M,45.0,M,,*55
$GPRMC,124211.000,A,5244.9403,N,01252.8978,E,60.44,288.02,060214,,,A*5F
$GPGGA,124219.000,5244.9779,N,01252.6990,E,1,12,0.71,28.2,M,45.0,M,,*58
$GPRMC,124218.000,A,5244.9734,N,01252.7232,E,54.90,287.08,060214,,,A*50
$GPGGA,124226.000,5245.0100,N,01252.5204,E,1,12,0.71,29.8,M,45.0,M,,*5A
$GPRMC,124225.000,A,5245.0052,N,01252.5468,E,60.02,286.50,060214,,,A*5A
$GPGGA,124233.000,5245.0417,N,01252.3355,E,1,12,0.71,31.7,M,45.0,M,,*58
$GPRMC,124232.000,A,5245.0373,N,01252.3613,E,59.15,285.71,060214,,,A*58
$GPGGA,124240.000,5245.0723,N,01252.1545,E,1,12,0.71,33.4,M,45.0,M,,*5C
$GPRMC,124239.000,A,5245.0679,N,01252.1804,E,59.18,285.84,060214,,,A*51
$GPGGA,124247.000,5245.1041,N,01251.9705,E,1,11,0.81,33.9,M,45.0,M,,*55
$GPRMC,124246.000,A,5245.0993,N,01251.9973,E,60.77,285.90,060214,,,A*5E
$GPGGA,124254.000,5245.1383,N,01251.7759,E,1,11,0.72,33.6,M,45.0,M,,*5E
$GPRMC,124253.000,A,5245.1334,N,01251.8037,E,63.61,286.33,060214,,,A*5A
$GPGGA,124301.000,5245.1738,N,01251.5884,E,1,10,0.76,33.4,M,45.0,M,,*51
$GPRMC,124300.000,A,5245.1688,N,01251.6136,E,59.30,288.07,060214,,,A*55
$GPGGA,124311.000,5245.2107,N,01251.4123,E,1,10,0.73,32.9,M,45.0,M,,*55
$GPRMC,124310.000,A,5245.2075,N,01251.4247,E,30.25,291.12,060214,,,A*53
$GPGGA,124335.000,5245.2752,N,01251.2680,E,1,11,0.73,30.4,M,45.0,M,,*53
$GPRMC,124334.000,A,5245.2731,N,01251.2731,E,12.06,311.23,060214,,,A*5A
$DeviceName=pironex_auto
$Software=0.1.3
$Hardware=1
$LastValidPosition=
$IMEI=359193030849087
$LocalIP=10.157.64.1
$CmdVersion=2
$SUCCESS
$<end>
$GPGGA,130433.000,5245.3019,N,01251.1891,E,1,4,2.74,68.6,M,45.0,M,,*6D
$GPRMC,130432.000,V,,,,,0.68,225.76,060214,,,N*41
ping
$GPGGA,130506.000,5245.2986,N,01251.0017,E,1,12,0.72,49.7,M,45.0,M,,*52
$GPRMC,130505.000,A,5245.2949,N,01251.0176,E,35.39,291.45,060214,,,A*5D
$GPGGA,130514.000,5245.3393,N,01250.8335,E,1,12,0.72,49.6,M,45.0,M,,*55
$GPRMC,130513.000,A,5245.3331,N,01250.8577,E,55.49,292.90,060214,,,A*58
$GPGGA,130521.000,5245.3910,N,01250.6503,E,1,11,0.80,50.8,M,45.0,M,,*57
$GPRMC,130520.000,A,5245.3829,N,01250.6775,E,65.03,295.95,060214,,,A*5B
$GPGGA,130527.000,5245.4420,N,01250.4892,E,1,12,0.72,51.8,M,45.0,M,,*50
$GPRMC,130526.000,A,5245.4335,N,01250.5153,E,64.95,297.85,060214,,,A*50
$GPGGA,130534.000,5245.4990,N,01250.3209,E,1,11,0.80,53.5,M,45.0,M,,*5A
$GPRMC,130533.000,A,5245.4912,N,01250.3436,E,57.41,299.55,060214,,,A*51
$GPGGA,130541.000,5245.5548,N,01250.1620,E,1,11,0.80,56.5,M,45.0,M,,*58
$GPRMC,130540.000,A,5245.5462,N,01250.1856,E,59.44,300.27,060214,,,A*59
$GPGGA,130547.000,5245.6135,N,01250.0122,E,1,11,0.80,57.2,M,45.0,M,,*51
$GPRMC,130546.000,A,5245.6029,N,01250.0382,E,67.58,303.83,060214,,,A*59
$GPGGA,130553.000,5245.6827,N,01249.8514,E,1,11,0.80,56.7,M,45.0,M,,*5B
$GPRMC,130552.000,A,5245.6705,N,01249.8788,E,73.61,305.79,060214,,,A*57
$GPGGA,130559.000,5245.7616,N,01249.6845,E,1,11,0.80,56.9,M,45.0,M,,*55
$GPRMC,130558.000,A,5245.7478,N,01249.7125,E,78.45,308.66,060214,,,A*55
$GPGGA,130604.000,5245.8319,N,01249.5444,E,1,12,0.72,57.6,M,45.0,M,,*55
$GPRMC,130603.000,A,5245.8178,N,01249.5721,E,78.48,309.52,060214,,,A*59
$GPGGA,130609.000,5245.9039,N,01249.4108,E,1,11,0.80,57.2,M,45.0,M,,*5E
$GPRMC,130608.000,A,5245.8897,N,01249.4365,E,76.19,311.94,060214,,,A*56
$GPGGA,130614.000,5245.9877,N,01249.2557,E,1,11,0.79,56.2,M,45.0,M,,*5F
$GPRMC,130613.000,A,5245.9728,N,01249.2810,E,74.87,313.79,060214,,,A*5D
$GPGGA,130620.000,5246.0776,N,01249.1132,E,1,11,0.80,56.1,M,45.0,M,,*5D
$GPRMC,130619.000,A,5246.0622,N,01249.1369,E,76.00,316.35,060214,,,A*50
$GPGGA,130626.000,5246.1736,N,01248.9733,E,1,10,0.87,53.0,M,45.0,M,,*52
$GPRMC,130625.000,A,5246.1571,N,01248.9971,E,76.86,318.59,060214,,,A*5B
$GPGGA,130631.000,5246.2571,N,01248.8577,E,1,12,0.72,51.5,M,45.0,M,,*5A
$GPRMC,130630.000,A,5246.2403,N,01248.8805,E,77.45,320.40,060214,,,A*56
$GPGGA,130636.000,5246.3426,N,01248.7453,E,1,11,0.80,50.7,M,45.0,M,,*5A
$GPRMC,130635.000,A,5246.3252,N,01248.7674,E,77.89,321.67,060214,,,A*53
$GPGGA,130641.000,5246.4313,N,01248.6393,E,1,11,0.80,48.8,M,45.0,M,,*50
$GPRMC,130640.000,A,5246.4134,N,01248.6598,E,78.09,324.50,060214,,,A*53
$GPGGA,130647.000,5246.5354,N,01248.5239,E,1,12,0.72,45.9,M,45.0,M,,*54
$GPRMC,130646.000,A,5246.5179,N,01248.5429,E,75.26,326.46,060214,,,A*50
$GPGGA,130653.000,5246.6449,N,01248.4125,E,1,12,0.72,43.6,M,45.0,M,,*5F
$GPRMC,130652.000,A,5246.6258,N,01248.4309,E,79.23,328.86,060214,,,A*59
$GPGGA,130658.000,5246.7425,N,01248.3212,E,1,12,0.72,41.6,M,45.0,M,,*5D
$GPRMC,130657.000,A,5246.7229,N,01248.3391,E,81.28,330.82,060214,,,A*5C
$GPGGA,130703.000,5246.8426,N,01248.2358,E,1,12,0.72,39.6,M,45.0,M,,*5F
$GPRMC,130702.000,A,5246.8220,N,01248.2525,E,82.06,333.10,060214,,,A*54
$GPGGA,130708.000,5246.9472,N,01248.1526,E,1,12,0.72,38.0,M,45.0,M,,*5F
$GPRMC,130707.000,A,5246.9259,N,01248.1691,E,84.14,334.56,060214,,,A*51
$GPGGA,130713.000,5247.0545,N,01248.0744,E,1,12,0.72,36.9,M,45.0,M,,*58
$GPRMC,130712.000,A,5247.0329,N,01248.0893,E,84.03,336.92,060214,,,A*5A
$GPGGA,130718.000,5247.1615,N,01248.0049,E,1,11,0.80,35.7,M,45.0,M,,*5D
$GPRMC,130717.000,A,5247.1405,N,01248.0180,E,81.25,339.00,060214,,,A*59
$GPGGA,130724.000,5247.2824,N,01247.9369,E,1,11,0.80,36.1,M,45.0,M,,*5F
$GPRMC,130723.000,A,5247.2627,N,01247.9473,E,74.49,342.19,060214,,,A*54
$GPGGA,130730.000,5247.4004,N,01247.8779,E,1,11,0.77,37.0,M,45.0,M,,*5A
$GPRMC,130729.000,A,5247.3804,N,01247.8875,E,74.84,343.68,060214,,,A*5D
$GPGGA,130736.000,5247.5233,N,01247.8231,E,1,12,0.72,38.5,M,45.0,M,,*5E
$GPRMC,130735.000,A,5247.5025,N,01247.8318,E,77.71,345.33,060214,,,A*5C
$GPGGA,130742.000,5247.6487,N,01247.7745,E,1,12,0.72,39.1,M,45.0,M,,*5B
$GPRMC,130741.000,A,5247.6278,N,01247.7816,E,76.83,347.30,060214,,,A*51
$GPGGA,130747.000,5247.7555,N,01247.7424,E,1,11,0.80,38.2,M,45.0,M,,*59
$GPRMC,130746.000,A,5247.7337,N,01247.7487,E,79.27,349.83,060214,,,A*5E
$GPGGA,130752.000,5247.8677,N,01247.7158,E,1,11,0.80,36.8,M,45.0,M,,*5B
$GPRMC,130751.000,A,5247.8451,N,01247.7208,E,81.82,351.81,060214,,,A*52
$GPGGA,130757.000,5247.9811,N,01247.6941,E,1,10,0.87,35.9,M,45.0,M,,*54
$GPRMC,130756.000,A,5247.9581,N,01247.6978,E,82.73,353.93,060214,,,A*59
$GPGGA,130802.000,5248.0975,N,01247.6773,E,1,10,0.87,34.9,M,45.0,M,,*50
$GPRMC,130801.000,A,5248.0741,N,01247.6802,E,83.89,355.60,060214,,,A*5E
$GPGGA,130807.000,5248.2134,N,01247.6667,E,1,11,0.78,34.5,M,45.0,M,,*53
$GPRMC,130806.000,A,5248.1902,N,01247.6683,E,82.88,357.38,060214,,,A*59
$GPGGA,130812.000,5248.3315,N,01247.6601,E,1,11,0.80,33.6,M,45.0,M,,*54
$GPRMC,130811.000,A,5248.3076,N,01247.6613,E,85.64,358.11,060214,,,A*5F
$GPGGA,130817.000,5248.4477,N,01247.6559,E,1,11,0.80,32.6,M,45.0,M,,*5A
$GPRMC,130816.000,A,5248.4252,N,01247.6564,E,82.10,359.18,060214,,,A*54
$GPGGA,130823.000,5248.5746,N,01247.6546,E,1,11,0.80,32.5,M,45.0,M,,*50
$GPRMC,130822.000,A,5248.5536,N,01247.6545,E,74.99,359.91,060214,,,A*5D
$GPGGA,130828.000,5248.6841,N,01247.6540,E,1,11,0.80,32.7,M,45.0,M,,*54
$GPRMC,130827.000,A,5248.6616,N,01247.6541,E,80.59,359.56,060214,,,A*52
$GPGGA,130833.000,5248.7988,N,01247.6539,E,1,11,0.80,33.2,M,45.0,M,,*51
$GPRMC,130832.000,A,5248.7756,N,01247.6540,E,83.32,359.99,060214,,,A*5E
$GPGGA,130838.000,5248.9163,N,01247.6541,E,1,11,0.80,33.3,M,45.0,M,,*57
$GPRMC,130837.000,A,5248.8927,N,01247.6540,E,84.96,0.10,060214,,,A*5B
$GPGGA,130843.000,5249.0364,N,01247.6544,E,1,11,0.80,34.1,M,45.0,M,,*56
$GPRMC,130842.000,A,5249.0122,N,01247.6544,E,87.27,0.02,060214,,,A*53
$GPGGA,130848.000,5249.1554,N,01247.6548,E,1,11,0.80,35.2,M,45.0,M,,*57
$GPRMC,130847.000,A,5249.1316,N,01247.6547,E,85.51,0.04,060214,,,A*54
$GPGGA,130853.000,5249.2714,N,01247.6543,E,1,11,0.80,36.5,M,45.0,M,,*57
$GPRMC,130852.000,A,5249.2487,N,01247.6542,E,81.92,359.84,060214,,,A*55
$GPGGA,130858.000,5249.3841,N,01247.6537,E,1,11,0.80,36.7,M,45.0,M,,*53
$GPRMC,130857.000,A,5249.3616,N,01247.6544,E,80.83,359.22,060214,,,A*50
$GPGGA,130903.000,5249.4954,N,01247.6497,E,1,11,0.80,36.5,M,45.0,M,,*57
$GPRMC,130902.000,A,5249.4732,N,01247.6510,E,79.80,358.40,060214,,,A*50
$GPGGA,130908.000,5249.6066,N,01247.6378,E,1,11,0.80,34.9,M,45.0,M,,*5E
$GPRMC,130907.000,A,5249.5843,N,01247.6409,E,80.23,355.81,060214,,,A*5B
$GPGGA,130913.000,5249.7170,N,01247.6176,E,1,11,0.80,33.4,M,45.0,M,,*55
$GPRMC,130912.000,A,5249.6950,N,01247.6223,E,80.59,352.47,060214,,,A*51
$GPGGA,130918.000,5249.8266,N,01247.5888,E,1,11,0.80,32.1,M,45.0,M,,*5A
$GPRMC,130917.000,A,5249.8048,N,01247.5954,E,80.10,350.01,060214,,,A*5F
$GPGGA,130923.000,5249.9342,N,01247.5496,E,1,11,0.80,31.7,M,45.0,M,,*52
$GPRMC,130922.000,A,5249.9129,N,01247.5582,E,79.39,346.72,060214,,,A*57
$GPGGA,130928.000,5250.0399,N,01247.5012,E,1,11,0.80,31.1,M,45.0,M,,*50
$GPRMC,130927.000,A,5250.0189,N,01247.5115,E,79.41,344.12,060214,,,A*58
$GPGGA,130933.000,5250.1448,N,01247.4437,E,1,11,0.80,31.2,M,45.0,M,,*51
$GPRMC,130932.000,A,5250.1241,N,01247.4560,E,79.99,340.97,060214,,,A*51
$GPGGA,130938.000,5250.2482,N,01247.3773,E,1,11,0.80,31.3,M,45.0,M,,*5A
$GPRMC,130937.000,A,5250.2280,N,01247.3912,E,79.97,338.10,060214,,,A*5A
$GPGGA,130944.000,5250.3591,N,01247.2928,E,1,11,0.78,32.2,M,45.0,M,,*57
$GPRMC,130943.000,A,5250.3413,N,01247.3072,E,71.52,334.53,060214,,,A*51
$GPGGA,130950.000,5250.4650,N,01247.2012,E,1,11,0.80,33.1,M,45.0,M,,*5E
$GPRMC,130949.000,A,5250.4475,N,01247.2172,E,72.06,331.78,060214,,,A*52
$GPGGA,130957.000,5250.5706,N,01247.0996,E,1,10,0.87,33.6,M,45.0,M,,*5C
$GPRMC,130956.000,A,5250.5576,N,01247.1122,E,55.95,329.83,060214,,,A*5B
$GPGGA,131005.000,5250.6648,N,01247.0011,E,1,11,0.80,34.5,M,45.0,M,,*5F
$GPRMC,131004.000,A,5250.6541,N,01247.0129,E,46.95,326.66,060214,,,A*5F
$GPGGA,131015.000,5250.7610,N,01246.8944,E,1,11,0.80,34.4,M,45.0,M,,*53
$GPRMC,131014.000,A,5250.7519,N,01246.9044,E,39.30,326.51,060214,,,A*53
$GPGGA,131026.000,5250.8586,N,01246.7868,E,1,11,0.80,33.7,M,45.0,M,,*54
$GPRMC,131025.000,A,5250.8498,N,01246.7963,E,38.59,326.88,060214,,,A*5E
$GPGGA,131037.000,5250.9505,N,01246.6880,E,1,11,0.80,33.0,M,45.0,M,,*5E
$GPRMC,131036.000,A,5250.9426,N,01246.6965,E,34.42,327.41,060214,,,A*5D
$GPGGA,131047.000,5251.0449,N,01246.5872,E,1,11,0.80,34.2,M,45.0,M,,*53
$GPRMC,131046.000,A,5251.0342,N,01246.5983,E,45.34,327.55,060214,,,A*5E
$GPGGA,131056.000,5251.1397,N,01246.4909,E,1,11,0.80,36.0,M,45.0,M,,*5A
$GPRMC,131055.000,A,5251.1294,N,01246.5011,E,43.45,329.07,060214,,,A*5C
$GPGGA,131105.000,5251.2400,N,01246.3927,E,1,11,0.80,37.5,M,45.0,M,,*58
$GPRMC,131104.000,A,5251.2282,N,01246.4041,E,48.82,329.66,060214,,,A*5E
$GPGGA,131113.000,5251.3471,N,01246.2951,E,1,11,0.80,38.3,M,45.0,M,,*51
$GPRMC,131112.000,A,5251.3328,N,01246.3077,E,58.53,331.50,060214,,,A*5A
$GPGGA,131120.000,5251.4454,N,01246.2128,E,1,10,0.88,39.2,M,45.0,M,,*5E
$GPRMC,131119.000,A,5251.4316,N,01246.2239,E,54.77,334.10,060214,,,A*59
$GPGGA,131127.000,5251.5460,N,01246.1362,E,1,11,0.81,40.8,M,45.0,M,,*5C
$GPRMC,131126.000,A,5251.5314,N,01246.1469,E,57.13,335.70,060214,,,A*50
$GPGGA,131134.000,5251.6553,N,01246.0578,E,1,11,0.81,42.6,M,45.0,M,,*5C
$GPRMC,131133.000,A,5251.6387,N,01246.0694,E,63.82,336.56,060214,,,A*54
$GPGGA,131140.000,5251.7621,N,01245.9872,E,1,11,0.81,44.3,M,45.0,M,,*56
$GPRMC,131139.000,A,5251.7434,N,01245.9987,E,71.25,339.29,060214,,,A*5E
$GPGGA,131146.000,5251.8771,N,01245.9198,E,1,11,0.81,44.5,M,45.0,M,,*50
$GPRMC,131145.000,A,5251.8579,N,01245.9308,E,73.41,340.63,060214,,,A*5F
$GPGGA,131152.000,5251.9918,N,01245.8555,E,1,11,0.81,43.8,M,45.0,M,,*5B
$GPRMC,131151.000,A,5251.9726,N,01245.8659,E,72.54,341.53,060214,,,A*54
$GPGGA,131158.000,5252.1040,N,01245.7957,E,1,11,0.81,42.4,M,45.0,M,,*52
$GPRMC,131157.000,A,5252.0857,N,01245.8051,E,69.28,342.33,060214,,,A*5B
$GPGGA,131204.000,5252.2133,N,01245.7389,E,1,11,0.81,40.4,M,45.0,M,,*55
$GPRMC,131203.000,A,5252.1947,N,01245.7485,E,69.63,342.45,060214,,,A*54
$GPGGA,131210.000,5252.3249,N,01245.6813,E,1,10,0.88,38.3,M,45.0,M,,*56
$GPRMC,131209.000,A,5252.3063,N,01245.6906,E,70.15,342.80,060214,,,A*54
$GPGGA,131216.000,5252.4322,N,01245.6256,E,1,11,0.81,36.8,M,45.0,M,,*5D
$GPRMC,131215.000,A,5252.4147,N,01245.6347,E,66.06,342.65,060214,,,A*58
$GPGGA,131222.000,5252.5365,N,01245.5720,E,1,11,0.81,36.8,M,45.0,M,,*5F
$GPRMC,131221.000,A,5252.5194,N,01245.5807,E,64.88,342.88,060214,,,A*5B
$GPGGA,131229.000,5252.6528,N,01245.5111,E,1,11,0.81,36.8,M,45.0,M,,*5C
$GPRMC,131228.000,A,5252.6367,N,01245.5197,E,61.60,342.31,060214,,,A*5E
$GPGGA,131236.000,5252.7690,N,01245.4515,E,1,11,0.81,36.8,M,45.0,M,,*52
$GPRMC,131235.000,A,5252.7519,N,01245.4604,E,64.73,342.76,060214,,,A*54
$GPGGA,131242.000,5252.8728,N,01245.3971,E,1,11,0.81,36.3,M,45.0,M,,*5E
$GPRMC,131241.000,A,5252.8553,N,01245.4061,E,66.18,342.77,060214,,,A*5D
$GPGGA,131248.000,5252.9799,N,01245.3436,E,1,11,0.81,35.2,M,44.9,M,,*5B
$GPRMC,131247.000,A,5252.9622,N,01245.3519,E,66.89,343.68,060214,,,A*55
$GPGGA,131255.000,5253.0971,N,01245.2842,E,1,11,0.81,34.3,M,44.9,M,,*59
$GPRMC,131254.000,A,5253.0811,N,01245.2926,E,61.38,342.65,060214,,,A*51
$GPGGA,131302.000,5253.2012,N,01245.2301,E,1,11,0.81,34.0,M,44.9,M,,*5B
$GPRMC,131301.000,A,5253.1874,N,01245.2374,E,53.26,342.45,060214,,,A*53
$GPGGA,131310.000,5253.3132,N,01245.1715,E,1,11,0.81,34.2,M,44.9,M,,*5A
$GPRMC,131309.000,A,5253.2986,N,01245.1792,E,55.14,342.49,060214,,,A*50
$GPGGA,131317.000,5253.4181,N,01245.1172,E,1,11,0.81,34.0,M,44.9,M,,*57
$GPRMC,131316.000,A,5253.4033,N,01245.1248,E,56.19,342.69,060214,,,A*51
$GPGGA,131325.000,5253.5299,N,01245.0583,E,1,11,0.81,34.3,M,44.9,M,,*55
$GPRMC,131324.000,A,5253.5165,N,01245.0656,E,50.88,342.18,060214,,,A*51
$GPGGA,131333.000,5253.6407,N,01244.9955,E,1,11,0.81,34.4,M,44.9,M,,*58
$GPRMC,131332.000,A,5253.6257,N,01245.0046,E,56.34,340.25,060214,,,A*5D
$GPGGA,131340.000,5253.7574,N,01244.9188,E,1,11,0.81,35.1,M,44.9,M,,*54
$GPRMC,131339.000,A,5253.7399,N,01244.9304,E,67.49,338.50,060214,,,A*5C
$GPGGA,131346.000,5253.8607,N,01244.8416,E,1,11,0.81,35.3,M,44.9,M,,*5B
$GPRMC,131345.000,A,5253.8434,N,01244.8549,E,67.87,335.22,060214,,,A*5C
$GPGGA,131352.000,5253.9608,N,01244.7569,E,1,11,0.81,34.8,M,44.9,M,,*5C
$GPRMC,131351.000,A,5253.9449,N,01244.7715,E,65.44,331.57,060214,,,A*5D
$GPGGA,131358.000,5254.0566,N,01244.6658,E,1,11,0.81,34.6,M,44.9,M,,*5D
$GPRMC,131357.000,A,5254.0409,N,01244.6814,E,66.28,329.25,060214,,,A*5B
$GPGGA,131404.000,5254.1534,N,01244.5609,E,1,11,0.81,34.8,M,44.9,M,,*5C
$GPRMC,131403.000,A,5254.1371,N,01244.5796,E,71.50,325.83,060214,,,A*5B
$GPGGA,131410.000,5254.2487,N,01244.4457,E,1,11,0.81,34.6,M,44.9,M,,*55
$GPRMC,131409.000,A,5254.2327,N,01244.4656,E,71.53,323.26,060214,,,A*57
$GPGGA,131416.000,5254.3436,N,01244.3162,E,1,11,0.81,35.1,M,44.9,M,,*5A
$GPRMC,131415.000,A,5254.3284,N,01244.3380,E,73.73,319.41,060214,,,A*52
$GPGGA,131422.000,5254.4261,N,01244.1927,E,1,11,0.81,35.3,M,44.9,M,,*57
$GPRMC,131421.000,A,5254.4133,N,01244.2124,E,63.58,317.28,060214,,,A*59
$GPGGA,131429.000,5254.5143,N,01244.0505,E,1,11,0.81,34.7,M,44.9,M,,*56
$GPRMC,131428.000,A,5254.5014,N,01244.0715,E,65.67,315.37,060214,,,A*55
$GPGGA,131435.000,5254.5907,N,01243.9222,E,1,11,0.81,36.4,M,44.9,M,,*5E
$GPRMC,131434.000,A,5254.5775,N,01243.9446,E,67.56,315.00,060214,,,A*57
$GPGGA,131441.000,5254.6737,N,01243.7839,E,1,10,0.88,38.0,M,44.9,M,,*5F
$GPRMC,131440.000,A,5254.6596,N,01243.8071,E,71.93,315.07,060214,,,A*50
$GPGGA,131447.000,5254.7614,N,01243.6404,E,1,11,0.81,40.2,M,44.9,M,,*5E
$GPRMC,131446.000,A,5254.7464,N,01243.6645,E,75.47,315.63,060214,,,A*5B
$GPGGA,131453.000,5254.8538,N,01243.5018,E,1,11,0.81,41.8,M,44.9,M,,*58
$GPRMC,131452.000,A,5254.8384,N,01243.5241,E,74.52,318.40,060214,,,A*52
$GPGGA,131459.000,5254.9410,N,01243.3819,E,1,11,0.81,41.0,M,44.9,M,,*5F
$GPRMC,131458.000,A,5254.9276,N,01243.3996,E,62.80,321.19,060214,,,A*5C
$GPGGA,131506.000,5255.0342,N,01243.2645,E,1,11,0.81,39.0,M,44.9,M,,*55
$GPRMC,131505.000,A,5255.0202,N,01243.2813,E,62.06,323.59,060214,,,A*5B
$GPGGA,131513.000,5255.1346,N,01243.1455,E,1,11,0.81,37.0,M,44.9,M,,*5A
$GPRMC,131512.000,A,5255.1197,N,01243.1629,E,64.74,324.66,060214,,,A*5F
$GPGGA,131519.000,5255.2231,N,01243.0411,E,1,11,0.81,36.4,M,44.9,M,,*56
$GPRMC,131518.000,A,5255.2082,N,01243.0588,E,65.57,324.66,060214,,,A*5A
$GPGGA,131525.000,5255.3136,N,01242.9353,E,1,11,0.81,36.2,M,44.9,M,,*53
$GPRMC,131524.000,A,5255.2987,N,01242.9528,E,65.88,324.43,060214,,,A*5E
$GPGGA,131531.000,5255.4074,N,01242.8255,E,1,11,0.81,35.9,M,44.9,M,,*58
$GPRMC,131530.000,A,5255.3910,N,01242.8447,E,71.59,324.82,060214,,,A*59
$GPGGA,131537.000,5255.5077,N,01242.7064,E,1,11,0.81,36.5,M,44.9,M,,*5C
$GPRMC,131536.000,A,5255.4912,N,01242.7262,E,73.80,324.24,060214,,,A*5E
$GPGGA,131543.000,5255.6062,N,01242.5843,E,1,11,0.81,37.2,M,44.9,M,,*51
$GPRMC,131542.000,A,5255.5897,N,01242.6052,E,74.75,322.42,060214,,,A*5B
$GPGGA,131548.000,5255.6902,N,01242.4724,E,1,11,0.81,38.1,M,44.9,M,,*56
$GPRMC,131547.000,A,5255.6735,N,01242.4957,E,78.88,320.03,060214,,,A*5D
$GPGGA,131553.000,5255.7720,N,01242.3491,E,1,11,0.81,38.6,M,44.9,M,,*5E
$GPRMC,131552.000,A,5255.7558,N,01242.3745,E,79.87,316.85,060214,,,A*5E
$GPGGA,131558.000,5255.8526,N,01242.2149,E,1,11,0.79,37.7,M,44.9,M,,*56
$GPRMC,131557.000,A,5255.8366,N,01242.2428,E,82.64,314.23,060214,,,A*51
$GPGGA,131603.000,5255.9302,N,01242.0700,E,1,11,0.81,37.0,M,44.9,M,,*53
$GPRMC,131602.000,A,5255.9148,N,01242.0994,E,84.26,311.35,060214,,,A*57
$GPGGA,131608.000,5256.0038,N,01241.9170,E,1,10,0.82,35.9,M,45.0,M,,*52
$GPRMC,131607.000,A,5255.9896,N,01241.9480,E,84.72,307.81,060214,,,A*53
$GPGGA,131613.000,5256.0710,N,01241.7599,E,1,11,0.81,34.3,M,45.0,M,,*51
$GPRMC,131612.000,A,5256.0581,N,01241.7916,E,83.62,304.53,060214,,,A*50
$GPGGA,131618.000,5256.1315,N,01241.6017,E,1,11,0.81,32.2,M,45.0,M,,*5F
$GPRMC,131617.000,A,5256.1200,N,01241.6332,E,81.14,301.87,060214,,,A*58
$GPGGA,131623.000,5256.1863,N,01241.4445,E,1,11,0.81,32.1,M,45.0,M,,*5F
$GPRMC,131622.000,A,5256.1756,N,01241.4756,E,78.59,300.15,060214,,,A*59
$GPGGA,131629.000,5256.2472,N,01241.2633,E,1,10,0.89,32.2,M,45.0,M,,*55
$GPRMC,131628.000,A,5256.2372,N,01241.2932,E,74.02,299.04,060214,,,A*5B
$GPGGA,131635.000,5256.3085,N,01241.0801,E,1,11,0.81,32.5,M,45.0,M,,*56
$GPRMC,131634.000,A,5256.2984,N,01241.1109,E,76.62,298.93,060214,,,A*5D
$GPGGA,131641.000,5256.3655,N,01240.9112,E,1,11,0.81,32.8,M,45.0,M,,*50
$GPRMC,131640.000,A,5256.3568,N,01240.9368,E,64.84,299.33,060214,,,A*5D
$GPGGA,131648.000,5256.4301,N,01240.7313,E,1,11,0.79,33.2,M,45.0,M,,*5B
$GPRMC,131647.000,A,5256.4199,N,01240.7584,E,69.25,301.37,060214,,,A*5F
$GPGGA,131654.000,5256.4961,N,01240.5651,E,1,11,0.81,33.4,M,45.0,M,,*5A
$GPRMC,131653.000,A,5256.4848,N,01240.5924,E,71.89,304.13,060214,,,A*57
$GPGGA,131700.000,5256.5691,N,01240.4029,E,1,11,0.81,33.6,M,45.0,M,,*51
$GPRMC,131659.000,A,5256.5564,N,01240.4296,E,73.82,307.52,060214,,,A*53
$GPGGA,131706.000,5256.6464,N,01240.2502,E,1,11,0.81,33.2,M,45.0,M,,*52
$GPRMC,131705.000,A,5256.6335,N,01240.2747,E,70.20,310.18,060214,,,A*56
$GPGGA,131712.000,5256.7268,N,01240.1079,E,1,11,0.81,34.1,M,45.0,M,,*52
$GPRMC,131711.000,A,5256.7132,N,01240.1311,E,69.98,313.49,060214,,,A*5F
$GPGGA,131718.000,5256.8090,N,01239.9766,E,1,11,0.81,35.6,M,45.0,M,,*5B
$GPRMC,131717.000,A,5256.7951,N,01239.9976,E,68.18,316.94,060214,,,A*55
$GPGGA,131724.000,5256.8931,N,01239.8574,E,1,11,0.81,37.4,M,45.0,M,,*56
$GPRMC,131723.000,A,5256.8790,N,01239.8768,E,66.05,319.87,060214,,,A*51
$GPGGA,131730.000,5256.9795,N,01239.7440,E,1,11,0.81,38.4,M,45.0,M,,*54
$GPRMC,131729.000,A,5256.9645,N,01239.7631,E,68.02,322.01,060214,,,A*5E
$GPGGA,131736.000,5257.0697,N,01239.6308,E,1,11,0.82,39.5,M,45.0,M,,*50
$GPRMC,131735.000,A,5257.0550,N,01239.6487,E,66.95,323.34,060214,,,A*55
$GPGGA,131743.000,5257.1625,N,01239.5139,E,1,11,0.82,41.2,M,45.0,M,,*51
$GPRMC,131742.000,A,5257.1497,N,01239.5300,E,58.33,323.02,060214,,,A*51
$GPGGA,131750.000,5257.2558,N,01239.3977,E,1,11,0.82,42.4,M,45.0,M,,*58
$GPRMC,131749.000,A,5257.2416,N,01239.4154,E,63.15,322.90,060214,,,A*54
$GPGGA,131757.000,5257.3549,N,01239.2719,E,1,11,0.82,44.0,M,45.0,M,,*5B
$GPRMC,131756.000,A,5257.3410,N,01239.2899,E,64.02,321.42,060214,,,A*5E
$GPGGA,131803.000,5257.4387,N,01239.1565,E,1,11,0.82,45.4,M,45.0,M,,*59
$GPRMC,131802.000,A,5257.4245,N,01239.1768,E,66.46,319.53,060214,,,A*5A
$GPGGA,131809.000,5257.5252,N,01239.0268,E,1,11,0.82,45.8,M,45.0,M,,*5C
$GPRMC,131808.000,A,5257.5108,N,01239.0492,E,71.20,317.24,060214,,,A*54
$GPGGA,131815.000,5257.6089,N,01238.8905,E,1,10,0.89,46.3,M,45.0,M,,*5D
$GPRMC,131814.000,A,5257.5955,N,01238.9133,E,69.21,314.74,060214,,,A*51
$GPGGA,131821.000,5257.6898,N,01238.7484,E,1,10,0.89,45.4,M,45.0,M,,*5D
$GPRMC,131820.000,A,5257.6764,N,01238.7727,E,71.39,312.76,060214,,,A*50
$GPGGA,131827.000,5257.7683,N,01238.6022,E,1,10,0.89,45.3,M,45.0,M,,*50
$GPRMC,131826.000,A,5257.7550,N,01238.6267,E,71.01,311.75,060214,,,A*59
$GPGGA,131833.000,5257.8497,N,01238.4535,E,1,11,0.79,45.0,M,45.0,M,,*51
$GPRMC,131832.000,A,5257.8364,N,01238.4776,E,71.46,312.25,060214,,,A*50
$GPGGA,131839.000,5257.9305,N,01238.3124,E,1,11,0.82,44.4,M,45.0,M,,*54
$GPRMC,131838.000,A,5257.9169,N,01238.3352,E,70.06,314.19,060214,,,A*5D
$GPGGA,131845.000,5258.0122,N,01238.1808,E,1,10,0.89,44.1,M,45.0,M,,*54
$GPRMC,131844.000,A,5257.9980,N,01238.2027,E,68.61,316.70,060214,,,A*5C
$GPGGA,131851.000,5258.1021,N,01238.0499,E,1,10,0.89,43.6,M,45.0,M,,*57
$GPRMC,131850.000,A,5258.0865,N,01238.0714,E,73.10,319.66,060214,,,A*54
$GPGGA,131857.000,5258.1969,N,01237.9269,E,1,10,0.91,41.8,M,45.0,M,,*5E
$GPRMC,131856.000,A,5258.1813,N,01237.9464,E,70.74,322.71,060214,,,A*5F
$GPGGA,131903.000,5258.2910,N,01237.8173,E,1,11,0.82,41.9,M,45.0,M,,*58
$GPRMC,131902.000,A,5258.2750,N,01237.8352,E,69.88,325.92,060214,,,A*56
$GPGGA,131909.000,5258.3895,N,01237.7146,E,1,11,0.82,40.4,M,45.0,M,,*5A
$GPRMC,131908.000,A,5258.3729,N,01237.7312,E,69.72,328.31,060214,,,A*59
$GPGGA,131915.000,5258.4895,N,01237.6207,E,1,11,0.82,39.6,M,45.0,M,,*5B
$GPRMC,131914.000,A,5258.4726,N,01237.6361,E,68.77,330.90,060214,,,A*5F
$GPGGA,131921.000,5258.5914,N,01237.5302,E,1,11,0.82,38.7,M,45.0,M,,*52
$GPRMC,131920.000,A,5258.5747,N,01237.5447,E,68.41,332.01,060214,,,A*51
$GPGGA,131927.000,5258.6929,N,01237.4437,E,1,11,0.82,37.1,M,45.0,M,,*50
$GPRMC,131926.000,A,5258.6758,N,01237.4583,E,69.19,332.48,060214,,,A*53
$GPGGA,131933.000,5258.7948,N,01237.3572,E,1,11,0.82,36.5,M,45.0,M,,*51
$GPRMC,131932.000,A,5258.7781,N,01237.3713,E,67.42,332.54,060214,,,A*52
$GPGGA,131939.000,5258.8947,N,01237.2695,E,1,11,0.82,37.9,M,45.0,M,,*5D
$GPRMC,131938.000,A,5258.8781,N,01237.2840,E,68.07,332.35,060214,,,A*56
$GPGGA,131945.000,5258.9969,N,01237.1769,E,1,11,0.82,39.0,M,45.0,M,,*5D
$GPRMC,131944.000,A,5258.9796,N,01237.1931,E,71.08,330.88,060214,,,A*5D
$GPGGA,131951.000,5259.1037,N,01237.0751,E,1,10,0.88,38.8,M,45.0,M,,*5B
$GPRMC,131950.000,A,5259.0857,N,01237.0930,E,75.30,329.36,060214,,,A*50
$GPGGA,131957.000,5259.2088,N,01236.9673,E,1,11,0.82,37.5,M,45.0,M,,*5A
$GPRMC,131956.000,A,5259.1917,N,01236.9855,E,73.80,327.51,060214,,,A*5A
$GPGGA,132003.000,5259.3120,N,01236.8544,E,1,11,0.82,36.8,M,45.0,M,,*59
$GPRMC,132002.000,A,5259.2948,N,01236.8736,E,74.80,326.15,060214,,,A*55
$GPGGA,132009.000,5259.4156,N,01236.7333,E,1,10,0.86,37.0,M,45.0,M,,*50
$GPRMC,132008.000,A,5259.3983,N,01236.7541,E,76.87,324.44,060214,,,A*57
$GPGGA,132014.000,5259.5040,N,01236.6269,E,1,10,0.89,37.2,M,45.0,M,,*59
$GPRMC,132013.000,A,5259.4861,N,01236.6487,E,79.57,323.68,060214,,,A*56
$GPGGA,132019.000,5259.5926,N,01236.5167,E,1,11,0.82,38.2,M,45.0,M,,*56
$GPRMC,132018.000,A,5259.5751,N,01236.5385,E,78.88,323.45,060214,,,A*5A
$GPGGA,132025.000,5259.6953,N,01236.3903,E,1,11,0.82,40.7,M,45.0,M,,*5E
$GPRMC,132024.000,A,5259.6784,N,01236.4107,E,75.67,323.62,060214,,,A*5E
$GPGGA,132031.000,5259.7931,N,01236.2702,E,1,11,0.82,42.5,M,45.0,M,,*50
$GPRMC,132030.000,A,5259.7770,N,01236.2901,E,72.59,323.72,060214,,,A*52
$GPGGA,132037.000,5259.8900,N,01236.1509,E,1,10,0.89,42.3,M,45.0,M,,*5D
$GPRMC,132036.000,A,5259.8737,N,01236.1709,E,73.06,323.24,060214,,,A*55
$GPGGA,132043.000,5259.9882,N,01236.0294,E,1,11,0.79,41.9,M,45.0,M,,*51
$GPRMC,132042.000,A,5259.9714,N,01236.0498,E,74.52,323.41,060214,,,A*59
$GPGGA,132049.000,5300.0870,N,01235.9087,E,1,11,0.82,43.5,M,45.0,M,,*52
$GPRMC,132048.000,A,5300.0705,N,01235.9287,E,73.26,323.67,060214,,,A*55
$GPGGA,132055.000,5300.1871,N,01235.7861,E,1,11,0.82,43.1,M,45.0,M,,*55
$GPRMC,132054.000,A,5300.1704,N,01235.8068,E,75.26,323.34,060214,,,A*5A
$GPGGA,132101.000,5300.2866,N,01235.6642,E,1,11,0.82,43.9,M,45.0,M,,*56
$GPRMC,132100.000,A,5300.2702,N,01235.6845,E,73.89,323.34,060214,,,A*55
$GPGGA,132107.000,5300.3840,N,01235.5443,E,1,10,0.87,43.6,M,45.0,M,,*5E
$GPRMC,132106.000,A,5300.3678,N,01235.5646,E,72.83,323.51,060214,,,A*58
$GPGGA,132113.000,5300.4803,N,01235.4263,E,1,11,0.82,43.6,M,45.0,M,,*5A
$GPRMC,132112.000,A,5300.4651,N,01235.4449,E,68.83,323.34,060214,,,A*55
$GPGGA,132120.000,5300.5786,N,01235.3082,E,1,11,0.82,43.9,M,45.0,M,,*5C
$GPRMC,132119.000,A,5300.5654,N,01235.3243,E,59.90,324.00,060214,,,A*51
$GPGGA,132127.000,5300.6670,N,01235.2042,E,1,11,0.82,44.1,M,45.0,M,,*52
$GPRMC,132126.000,A,5300.6545,N,01235.2186,E,55.06,324.92,060214,,,A*5E
$GPGGA,132135.000,5300.7660,N,01235.0919,E,1,11,0.82,44.5,M,45.0,M,,*50
$GPRMC,132134.000,A,5300.7534,N,01235.1058,E,54.38,326.43,060214,,,A*59
$GPGGA,132142.000,5300.8578,N,01234.9924,E,1,11,0.82,45.1,M,45.0,M,,*56
$GPRMC,132141.000,A,5300.8443,N,01235.0070,E,57.75,327.29,060214,,,A*59
$GPGGA,132149.000,5300.9597,N,01234.8869,E,1,11,0.82,45.4,M,45.0,M,,*51
$GPRMC,132148.000,A,5300.9444,N,01234.9025,E,63.90,328.60,060214,,,A*50
$GPGGA,132155.000,5301.0556,N,01234.7924,E,1,11,0.82,45.5,M,45.0,M,,*5F
$GPRMC,132154.000,A,5301.0392,N,01234.8079,E,67.16,329.80,060214,,,A*54
$GPGGA,132201.000,5301.1562,N,01234.6983,E,1,11,0.82,45.6,M,45.0,M,,*54
$GPRMC,132200.000,A,5301.1391,N,01234.7143,E,70.52,330.58,060214,,,A*58
$GPGGA,132207.000,5301.2595,N,01234.6034,E,1,11,0.82,46.2,M,45.0,M,,*5B
$GPRMC,132206.000,A,5301.2424,N,01234.6188,E,70.05,331.31,060214,,,A*5E
$GPGGA,132214.000,5301.3676,N,01234.5127,E,1,10,0.90,46.1,M,45.0,M,,*57
$GPRMC,132213.000,A,5301.3526,N,01234.5249,E,60.46,333.43,060214,,,A*54
$GPGGA,132221.000,5301.4708,N,01234.4318,E,1,11,0.82,46.8,M,45.0,M,,*5A
$GPRMC,132220.000,A,5301.4561,N,01234.4429,E,58.78,334.51,060214,,,A*53
$GPGGA,132228.000,5301.5745,N,01234.3520,E,1,10,0.89,47.0,M,45.0,M,,*52
$GPRMC,132227.000,A,5301.5597,N,01234.3635,E,59.11,334.74,060214,,,A*5D
$GPGGA,132235.000,5301.6773,N,01234.2722,E,1,11,0.79,47.3,M,45.0,M,,*54
$GPRMC,132234.000,A,5301.6625,N,01234.2838,E,58.59,334.91,060214,,,A*52
$GPGGA,132242.000,5301.7849,N,01234.1858,E,1,10,0.87,47.9,M,45.0,M,,*58
$GPRMC,132241.000,A,5301.7686,N,01234.1994,E,64.63,333.70,060214,,,A*52
$GPGGA,132248.000,5301.8825,N,01234.1003,E,1,11,0.82,47.7,M,45.0,M,,*5B
$GPRMC,132247.000,A,5301.8664,N,01234.1153,E,65.07,331.47,060214,,,A*51
$GPGGA,132254.000,5301.9787,N,01234.0060,E,1,11,0.82,47.3,M,45.0,M,,*50
$GPRMC,132253.000,A,5301.9629,N,01234.0223,E,66.67,329.08,060214,,,A*5E
$GPGGA,132300.000,5302.0721,N,01233.9027,E,1,11,0.82,46.9,M,45.0,M,,*50
$GPRMC,132259.000,A,5302.0566,N,01233.9204,E,67.60,326.08,060214,,,A*54
$GPGGA,132306.000,5302.1644,N,01233.7896,E,1,11,0.79,46.7,M,45.0,M,,*53
$GPRMC,132305.000,A,5302.1490,N,01233.8093,E,69.88,322.83,060214,,,A*57
$GPGGA,132312.000,5302.2580,N,01233.6618,E,1,10,0.87,45.8,M,45.0,M,,*5B
$GPRMC,132311.000,A,5302.2424,N,01233.6841,E,73.83,319.67,060214,,,A*55
$GPGGA,132318.000,5302.3506,N,01233.5216,E,1,11,0.82,44.7,M,45.0,M,,*5D
$GPRMC,132317.000,A,5302.3351,N,01233.5459,E,76.98,316.68,060214,,,A*5E
$GPGGA,132323.000,5302.4278,N,01233.3960,E,1,11,0.82,43.8,M,45.0,M,,*58
$GPRMC,132322.000,A,5302.4126,N,01233.4212,E,78.15,315.54,060214,,,A*52
$GPGGA,132329.000,5302.5149,N,01233.2509,E,1,11,0.82,43.4,M,45.0,M,,*5C
$GPRMC,132328.000,A,5302.5011,N,01233.2739,E,70.99,315.05,060214,,,A*5E
$GPGGA,132335.000,5302.5945,N,01233.1172,E,1,11,0.82,43.0,M,45.0,M,,*5A
$GPRMC,132334.000,A,5302.5815,N,01233.1395,E,67.39,314.74,060214,,,A*55
$GPGGA,132341.000,5302.6772,N,01232.9791,E,1,11,0.82,42.1,M,45.0,M,,*52
$GPRMC,132340.000,A,5302.6632,N,01233.0025,E,71.40,314.84,060214,,,A*51
$GPGGA,132347.000,5302.7666,N,01232.8387,E,1,11,0.82,40.7,M,45.0,M,,*57
$GPRMC,132346.000,A,5302.7516,N,01232.8623,E,74.81,316.73,060214,,,A*58
$GPGGA,132353.000,5302.8597,N,01232.7019,E,1,11,0.82,40.6,M,45.0,M,,*5A
$GPRMC,132352.000,A,5302.8438,N,01232.7242,E,74.28,319.58,060214,,,A*56
$GPGGA,132359.000,5302.9576,N,01232.5721,E,1,10,0.89,40.5,M,45.0,M,,*59
$GPRMC,132358.000,A,5302.9409,N,01232.5933,E,75.89,322.55,060214,,,A*5F
$GPGGA,132405.000,5303.0619,N,01232.4480,E,1,11,0.83,40.9,M,45.0,M,,*5B
$GPRMC,132404.000,A,5303.0441,N,01232.4679,E,76.98,325.23,060214,,,A*50
$GPGGA,132410.000,5303.1536,N,01232.3512,E,1,11,0.83,41.4,M,45.0,M,,*51
$GPRMC,132409.000,A,5303.1352,N,01232.3702,E,78.03,327.67,060214,,,A*5D
$GPGGA,132416.000,5303.2616,N,01232.2480,E,1,11,0.83,41.8,M,45.0,M,,*52
$GPRMC,132415.000,A,5303.2439,N,01232.2641,E,72.69,330.87,060214,,,A*50
$GPGGA,132422.000,5303.3743,N,01232.1540,E,1,10,0.91,42.4,M,45.0,M,,*56
$GPRMC,132421.000,A,5303.3549,N,01232.1694,E,77.52,333.74,060214,,,A*59
$GPGGA,132427.000,5303.4737,N,01232.0810,E,1,11,0.83,42.3,M,45.0,M,,*5B
$GPRMC,132426.000,A,5303.4536,N,01232.0951,E,78.76,336.59,060214,,,A*55
$GPGGA,132432.000,5303.5754,N,01232.0148,E,1,11,0.83,41.8,M,45.0,M,,*57
$GPRMC,132431.000,A,5303.5551,N,01232.0271,E,78.71,339.01,060214,,,A*5F
$GPGGA,132438.000,5303.6923,N,01231.9494,E,1,11,0.83,40.8,M,45.0,M,,*5F
$GPRMC,132437.000,A,5303.6733,N,01231.9594,E,72.30,341.74,060214,,,A*58
$GPGGA,132444.000,5303.8073,N,01231.8953,E,1,11,0.83,40.2,M,45.0,M,,*5B
$GPRMC,132443.000,A,5303.7878,N,01231.9040,E,72.90,344.45,060214,,,A*5B
$GPGGA,132450.000,5303.9242,N,01231.8441,E,1,11,0.83,40.9,M,45.0,M,,*5A
$GPRMC,132449.000,A,5303.9048,N,01231.8524,E,72.59,345.12,060214,,,A*54
$GPGGA,132456.000,5304.0371,N,01231.7960,E,1,11,0.83,42.2,M,45.0,M,,*5B
$GPRMC,132455.000,A,5304.0181,N,01231.8043,E,70.50,345.32,060214,,,A*5E
$GPGGA,132502.000,5304.1535,N,01231.7456,E,1,10,0.90,43.9,M,45.0,M,,*5D
$GPRMC,132501.000,A,5304.1345,N,01231.7538,E,71.08,345.34,060214,,,A*59
$GPGGA,132508.000,5304.2675,N,01231.6968,E,1,11,0.83,45.1,M,45.0,M,,*5F
$GPRMC,132507.000,A,5304.2483,N,01231.7050,E,71.62,345.59,060214,,,A*5D
$GPGGA,132514.000,5304.3828,N,01231.6473,E,1,11,0.83,44.2,M,45.0,M,,*50
$GPRMC,132513.000,A,5304.3630,N,01231.6566,E,73.66,344.63,060214,,,A*5C
$GPGGA,132520.000,5304.5029,N,01231.5881,E,1,11,0.83,44.7,M,45.0,M,,*5F
$GPRMC,132519.000,A,5304.4828,N,01231.5984,E,75.67,343.01,060214,,,A*51
$GPGGA,132526.000,5304.6233,N,01231.5187,E,1,11,0.83,44.9,M,45.0,M,,*52
$GPRMC,132525.000,A,5304.6033,N,01231.5313,E,76.63,339.94,060214,,,A*5C
$GPGGA,132531.000,5304.7235,N,01231.4517,E,1,10,0.91,45.4,M,45.0,M,,*51
$GPRMC,132530.000,A,5304.7033,N,01231.4656,E,77.97,338.02,060214,,,A*58
$GPGGA,132536.000,5304.8235,N,01231.3795,E,1,10,0.91,45.8,M,45.0,M,,*5A
$GPRMC,132535.000,A,5304.8037,N,01231.3945,E,78.60,335.63,060214,,,A*51
$GPGGA,132541.000,5304.9227,N,01231.2978,E,1,11,0.80,46.6,M,45.0,M,,*58
$GPRMC,132540.000,A,5304.9028,N,01231.3148,E,80.92,333.24,060214,,,A*56
$GPGGA,132546.000,5305.0216,N,01231.2080,E,1,11,0.83,46.7,M,45.0,M,,*59
$GPRMC,132545.000,A,5305.0020,N,01231.2266,E,81.09,330.81,060214,,,A*52
$GPGGA,132551.000,5305.1195,N,01231.1086,E,1,11,0.83,48.1,M,45.0,M,,*5B
$GPRMC,132550.000,A,5305.1000,N,01231.1291,E,82.30,328.51,060214,,,A*53
$GPGGA,132556.000,5305.2145,N,01231.0042,E,1,11,0.83,50.1,M,45.0,M,,*52
$GPRMC,132555.000,A,5305.1959,N,01231.0256,E,81.35,326.16,060214,,,A*52
$GPGGA,132601.000,5305.3047,N,01230.8946,E,1,11,0.83,51.8,M,45.0,M,,*5D
$GPRMC,132600.000,A,5305.2870,N,01230.9170,E,80.57,323.59,060214,,,A*5C
$GPGGA,132606.000,5305.3922,N,01230.7789,E,1,11,0.80,53.1,M,45.0,M,,*5A
$GPRMC,132605.000,A,5305.3749,N,01230.8028,E,80.63,321.20,060214,,,A*5B
$GPGGA,132611.000,5305.4772,N,01230.6583,E,1,11,0.83,54.6,M,45.0,M,,*5A
$GPRMC,132610.000,A,5305.4605,N,01230.6826,E,80.44,319.04,060214,,,A*51
$GPGGA,132616.000,5305.5567,N,01230.5358,E,1,11,0.83,55.9,M,45.0,M,,*57
$GPRMC,132615.000,A,5305.5411,N,01230.5605,E,77.94,316.56,060214,,,A*53
$GPGGA,132621.000,5305.6329,N,01230.4085,E,1,10,0.90,57.1,M,45.0,M,,*57
$GPRMC,132620.000,A,5305.6178,N,01230.4345,E,78.41,314.24,060214,,,A*5C
$GPGGA,132626.000,5305.7074,N,01230.2761,E,1,10,0.91,57.9,M,45.0,M,,*58
$GPRMC,132625.000,A,5305.6927,N,01230.3031,E,78.48,312.80,060214,,,A*5D
$GPGGA,132631.000,5305.7772,N,01230.1386,E,1,11,0.83,58.5,M,45.0,M,,*50
$GPRMC,132630.000,A,5305.7637,N,01230.1663,E,77.05,309.36,060214,,,A*54
$GPGGA,132637.000,5305.8564,N,01229.9692,E,1,11,0.83,58.5,M,45.0,M,,*5C
$GPRMC,132636.000,A,5305.8434,N,01229.9978,E,77.37,306.94,060214,,,A*5F
$GPGGA,132642.000,5305.9206,N,01229.8234,E,1,10,0.90,58.0,M,45.0,M,,*53
$GPRMC,132641.000,A,5305.9079,N,01229.8526,E,77.92,306.06,060214,,,A*51
$GPGGA,132648.000,5305.9956,N,01229.6494,E,1,11,0.83,57.5,M,45.0,M,,*5C
$GPRMC,132647.000,A,5305.9834,N,01229.6783,E,77.05,305.30,060214,,,A*5D
$GPGGA,132654.000,5306.0695,N,01229.4749,E,1,10,0.91,56.9,M,45.0,M,,*55
$GPRMC,132653.000,A,5306.0571,N,01229.5038,E,77.20,305.80,060214,,,A*56
$GPGGA,132700.000,5306.1447,N,01229.3009,E,1,11,0.80,56.9,M,45.0,M,,*5C
$GPRMC,132659.000,A,5306.1319,N,01229.3301,E,78.17,306.08,060214,,,A*52
$GPGGA,132706.000,5306.2172,N,01229.1360,E,1,10,0.91,57.3,M,45.0,M,,*5E
$GPRMC,132705.000,A,5306.2059,N,01229.1617,E,69.06,305.21,060214,,,A*56
$GPGGA,132712.000,5306.2833,N,01228.9939,E,1,10,0.91,58.0,M,45.0,M,,*54
$GPRMC,132711.000,A,5306.2726,N,01229.0164,E,61.25,307.92,060214,,,A*5D
$GPGGA,132718.000,5306.3521,N,01228.8539,E,1,10,0.91,58.8,M,45.0,M,,*54
$GPRMC,132717.000,A,5306.3398,N,01228.8778,E,68.50,310.27,060214,,,A*5A
$GPGGA,132724.000,5306.4278,N,01228.7129,E,1,10,0.91,59.1,M,45.0,M,,*55
$GPRMC,132723.000,A,5306.4153,N,01228.7351,E,66.41,312.63,060214,,,A*53
$GPGGA,132730.000,5306.5061,N,01228.5834,E,1,11,0.83,59.8,M,45.0,M,,*57
$GPRMC,132729.000,A,5306.4927,N,01228.6045,E,66.93,316.01,060214,,,A*5A
$GPGGA,132736.000,5306.5890,N,01228.4596,E,1,11,0.83,60.2,M,45.0,M,,*53
$GPRMC,132735.000,A,5306.5746,N,01228.4805,E,67.80,318.68,060214,,,A*53
$GPGGA,132742.000,5306.6808,N,01228.3375,E,1,11,0.80,60.2,M,45.0,M,,*5D
$GPRMC,132741.000,A,5306.6649,N,01228.3573,E,71.45,323.14,060214,,,A*5B
$GPGGA,132748.000,5306.7732,N,01228.2266,E,1,11,0.83,60.4,M,45.0,M,,*57
$GPRMC,132747.000,A,5306.7582,N,01228.2440,E,66.33,324.81,060214,,,A*54
$GPGGA,132754.000,5306.8664,N,01228.1276,E,1,11,0.83,60.2,M,45.0,M,,*53
$GPRMC,132753.000,A,5306.8504,N,01228.1437,E,66.96,327.82,060214,,,A*5C
$GPGGA,132800.000,5306.9667,N,01228.0331,E,1,11,0.83,60.1,M,45.0,M,,*5F
$GPRMC,132759.000,A,5306.9496,N,01228.0486,E,70.05,330.79,060214,,,A*59
$GPGGA,132806.000,5307.0689,N,01227.9473,E,1,11,0.83,60.2,M,45.0,M,,*55
$GPRMC,132805.000,A,5307.0521,N,01227.9602,E,67.12,334.67,060214,,,A*59
$GPGGA,132812.000,5307.1693,N,01227.8745,E,1,11,0.83,59.6,M,45.0,M,,*53
$GPRMC,132811.000,A,5307.1523,N,01227.8868,E,66.07,335.78,060214,,,A*56
$GPGGA,132818.000,5307.2754,N,01227.8069,E,1,11,0.83,58.1,M,45.0,M,,*5F
$GPRMC,132817.000,A,5307.2573,N,01227.8172,E,69.01,340.24,060214,,,A*56
$GPGGA,132824.000,5307.3861,N,01227.7481,E,1,11,0.83,56.2,M,45.0,M,,*58
$GPRMC,132823.000,A,5307.3672,N,01227.7573,E,70.11,342.98,060214,,,A*54
$GPGGA,132830.000,5307.5026,N,01227.6962,E,1,11,0.83,55.5,M,45.0,M,,*55
$GPRMC,132829.000,A,5307.4829,N,01227.7044,E,72.71,345.69,060214,,,A*55
$GPGGA,132836.000,5307.6235,N,01227.6511,E,1,11,0.83,55.9,M,45.0,M,,*54
$GPRMC,132835.000,A,5307.6031,N,01227.6583,E,75.07,347.50,060214,,,A*5A
$GPGGA,132842.000,5307.7450,N,01227.6102,E,1,11,0.83,56.8,M,45.0,M,,*57
$GPRMC,132841.000,A,5307.7248,N,01227.6167,E,73.81,348.81,060214,,,A*51
$GPGGA,132848.000,5307.8670,N,01227.5727,E,1,11,0.83,59.1,M,45.0,M,,*56
$GPRMC,132847.000,A,5307.8469,N,01227.5792,E,73.87,349.07,060214,,,A*5B
$GPGGA,132854.000,5307.9842,N,01227.5307,E,1,10,0.91,61.8,M,45.0,M,,*53
$GPRMC,132853.000,A,5307.9648,N,01227.5381,E,71.48,347.27,060214,,,A*55
$GPGGA,132900.000,5308.0986,N,01227.4852,E,1,10,0.91,64.3,M,45.0,M,,*58
$GPRMC,132859.000,A,5308.0796,N,01227.4932,E,70.66,346.04,060214,,,A*55
$GPGGA,132906.000,5308.2150,N,01227.4335,E,1,11,0.83,65.9,M,45.0,M,,*5C
$GPRMC,132905.000,A,5308.1953,N,01227.4424,E,73.52,344.55,060214,,,A*53
$GPGGA,132912.000,5308.3330,N,01227.3780,E,1,11,0.83,66.4,M,45.0,M,,*5F
$GPRMC,132911.000,A,5308.3134,N,01227.3875,E,73.37,343.93,060214,,,A*5C
$GPGGA,132918.000,5308.4518,N,01227.3147,E,1,10,0.89,66.9,M,45.0,M,,*55
$GPRMC,132917.000,A,5308.4314,N,01227.3261,E,76.69,341.97,060214,,,A*5A
$GPGGA,132923.000,5308.5583,N,01227.2534,E,1,11,0.83,68.0,M,45.0,M,,*53
$GPRMC,132922.000,A,5308.5362,N,01227.2662,E,83.21,340.77,060214,,,A*53
$GPGGA,132928.000,5308.6716,N,01227.1896,E,1,11,0.83,68.4,M,45.0,M,,*57
$GPRMC,132927.000,A,5308.6486,N,01227.2025,E,86.89,341.40,060214,,,A*5F
$GPGGA,132933.000,5308.7909,N,01227.1232,E,1,11,0.83,67.6,M,45.0,M,,*55
$GPRMC,132932.000,A,5308.7665,N,01227.1365,E,91.54,341.84,060214,,,A*5F
$GPGGA,132938.000,5308.9136,N,01227.0585,E,1,11,0.83,65.6,M,45.0,M,,*5C
$GPRMC,132937.000,A,5308.8893,N,01227.0713,E,91.82,342.57,060214,,,A*50
$GPGGA,132943.000,5309.0305,N,01226.9982,E,1,11,0.83,63.2,M,45.0,M,,*5B
$GPRMC,132942.000,A,5309.0074,N,01227.0096,E,86.94,343.20,060214,,,A*50
$GPGGA,132948.000,5309.1483,N,01226.9504,E,1,11,0.83,60.7,M,45.0,M,,*5C
$GPRMC,132947.000,A,5309.1243,N,01226.9588,E,88.01,347.48,060214,,,A*58
$GPGGA,132953.000,5309.2723,N,01226.9161,E,1,11,0.83,58.3,M,44.9,M,,*5C
$GPRMC,132952.000,A,5309.2471,N,01226.9221,E,91.61,351.42,060214,,,A*5F
$GPGGA,132958.000,5309.3975,N,01226.8917,E,1,11,0.83,56.6,M,44.9,M,,*58
$GPRMC,132957.000,A,5309.3728,N,01226.8958,E,90.03,353.57,060214,,,A*53
$GPGGA,133003.000,5309.5216,N,01226.8797,E,1,11,0.83,55.5,M,44.9,M,,*50
$GPRMC,133002.000,A,5309.4969,N,01226.8812,E,89.31,357.03,060214,,,A*54
$GPGGA,133008.000,5309.6453,N,01226.8790,E,1,11,0.83,55.1,M,44.9,M,,*5C
$GPRMC,133007.000,A,5309.6206,N,01226.8782,E,88.89,0.72,060214,,,A*52
$GPGGA,133013.000,5309.7684,N,01226.8899,E,1,11,0.83,54.4,M,44.9,M,,*5D
$GPRMC,133012.000,A,5309.7439,N,01226.8868,E,89.04,3.67,060214,,,A*55
$GPGGA,133018.000,5309.8883,N,01226.9113,E,1,11,0.83,54.1,M,44.9,M,,*5F
$GPRMC,133017.000,A,5309.8644,N,01226.9066,E,86.78,6.16,060214,,,A*57
$GPGGA,133023.000,5310.0040,N,01226.9418,E,1,10,0.89,53.3,M,44.9,M,,*50
$GPRMC,133022.000,A,5309.9816,N,01226.9347,E,83.36,10.03,060214,,,A*65
$GPGGA,133028.000,5310.1149,N,01226.9838,E,1,11,0.83,52.4,M,44.9,M,,*51
$GPRMC,133027.000,A,5310.0929,N,01226.9745,E,82.08,13.46,060214,,,A*64
$GPGGA,133033.000,5310.2229,N,01227.0322,E,1,11,0.83,51.2,M,44.9,M,,*50
$GPRMC,133032.000,A,5310.2019,N,01227.0226,E,79.22,15.04,060214,,,A*6C
$GPGGA,133039.000,5310.3435,N,01227.0900,E,1,11,0.83,50.3,M,44.9,M,,*5A
$GPRMC,133038.000,A,5310.3238,N,01227.0802,E,73.91,16.10,060214,,,A*6E
$GPGGA,133045.000,5310.4655,N,01227.1493,E,1,11,0.83,50.1,M,44.9,M,,*56
$GPRMC,133044.000,A,5310.4445,N,01227.1392,E,78.43,15.71,060214,,,A*6D
$GPGGA,133050.000,5310.5746,N,01227.2023,E,1,11,0.83,50.2,M,44.9,M,,*5F
$GPRMC,133049.000,A,5310.5523,N,01227.1916,E,83.07,16.12,060214,,,A*64
$GPGGA,133055.000,5310.6890,N,01227.2593,E,1,11,0.83,50.5,M,44.9,M,,*54
$GPRMC,133054.000,A,5310.6659,N,01227.2480,E,86.73,16.58,060214,,,A*6C
$GPGGA,133100.000,5310.8055,N,01227.3138,E,1,11,0.83,51.4,M,44.9,M,,*5E
$GPRMC,133059.000,A,5310.7821,N,01227.3035,E,87.11,15.24,060214,,,A*67
$GPGGA,133105.000,5310.9219,N,01227.3611,E,1,11,0.83,51.7,M,44.9,M,,*5F
$GPRMC,133104.000,A,5310.8986,N,01227.3521,E,86.50,13.34,060214,,,A*6E
$GPGGA,133110.000,5311.0407,N,01227.3990,E,1,10,0.89,52.0,M,44.9,M,,*53
$GPRMC,133109.000,A,5311.0167,N,01227.3923,E,87.35,9.87,060214,,,A*52
$GPGGA,133115.000,5311.1624,N,01227.4267,E,1,11,0.83,52.4,M,44.9,M,,*5F
$GPRMC,133114.000,A,5311.1380,N,01227.4222,E,88.44,7.06,060214,,,A*57
$GPGGA,133120.000,5311.2813,N,01227.4421,E,1,11,0.83,52.9,M,44.9,M,,*59
$GPRMC,133119.000,A,5311.2580,N,01227.4399,E,83.98,3.86,060214,,,A*58
$GPGGA,133125.000,5311.3982,N,01227.4454,E,1,11,0.83,53.8,M,44.9,M,,*56
$GPRMC,133124.000,A,5311.3748,N,01227.4456,E,83.80,0.45,060214,,,A*50
$GPGGA,133130.000,5311.5153,N,01227.4392,E,1,11,0.83,54.5,M,44.9,M,,*57
$GPRMC,133129.000,A,5311.4918,N,01227.4412,E,85.11,357.43,060214,,,A*58
$GPGGA,133135.000,5311.6334,N,01227.4225,E,1,11,0.83,54.8,M,44.9,M,,*52
$GPRMC,133134.000,A,5311.6098,N,01227.4266,E,85.74,354.58,060214,,,A*58
$GPGGA,133140.000,5311.7507,N,01227.3951,E,1,10,0.91,55.0,M,44.9,M,,*53
$GPRMC,133139.000,A,5311.7273,N,01227.4016,E,84.90,351.35,060214,,,A*53
$GPGGA,133145.000,5311.8656,N,01227.3562,E,1,11,0.83,56.4,M,44.9,M,,*57
$GPRMC,133144.000,A,5311.8430,N,01227.3646,E,83.67,348.26,060214,,,A*56
$GPGGA,133150.000,5311.9774,N,01227.3091,E,1,11,0.84,58.1,M,44.9,M,,*56
$GPRMC,133149.000,A,5311.9551,N,01227.3191,E,83.13,345.64,060214,,,A*59
$GPGGA,133155.000,5312.0886,N,01227.2589,E,1,11,0.84,61.7,M,44.9,M,,*5A
$GPRMC,133154.000,A,5312.0664,N,01227.2694,E,82.87,344.78,060214,,,A*59
$GPGGA,133200.000,5312.1983,N,01227.2047,E,1,11,0.84,63.5,M,44.9,M,,*5B
$GPRMC,133159.000,A,5312.1765,N,01227.2158,E,82.16,343.47,060214,,,A*51
$GPGGA,133205.000,5312.3058,N,01227.1517,E,1,11,0.84,65.1,M,44.9,M,,*52
$GPRMC,133204.000,A,5312.2846,N,01227.1617,E,79.62,344.09,060214,,,A*52
$GPGGA,133210.000,5312.4128,N,01227.1058,E,1,11,0.84,66.5,M,44.9,M,,*5E
$GPRMC,133209.000,A,5312.3912,N,01227.1145,E,79.87,346.19,060214,,,A*56
$GPGGA,133215.000,5312.5208,N,01227.0663,E,1,11,0.84,67.3,M,44.9,M,,*53
$GPRMC,133214.000,A,5312.4992,N,01227.0732,E,79.30,348.75,060214,,,A*5A
$GPGGA,133220.000,5312.6289,N,01227.0378,E,1,10,0.89,66.7,M,44.9,M,,*59
$GPRMC,133219.000,A,5312.6072,N,01227.0427,E,79.25,351.65,060214,,,A*58
$GPGGA,133225.000,5312.7390,N,01227.0188,E,1,11,0.84,65.1,M,44.9,M,,*50
$GPRMC,133224.000,A,5312.7167,N,01227.0217,E,80.88,354.67,060214,,,A*51
$GPGGA,133230.000,5312.8529,N,01227.0089,E,1,11,0.84,63.9,M,44.9,M,,*51
$GPRMC,133229.000,A,5312.8299,N,01227.0101,E,82.54,357.64,060214,,,A*56
$GPGGA,133235.000,5312.9677,N,01227.0092,E,1,11,0.84,63.0,M,44.9,M,,*5E
$GPRMC,133234.000,A,5312.9446,N,01227.0081,E,82.98,1.03,060214,,,A*57
$GPGGA,133240.000,5313.0847,N,01227.0208,E,1,11,0.84,62.2,M,44.9,M,,*5B
$GPRMC,133239.000,A,5313.0612,N,01227.0178,E,84.91,3.95,060214,,,A*54
$GPGGA,133245.000,5313.2019,N,01227.0378,E,1,11,0.84,61.4,M,44.9,M,,*5C
$GPRMC,133244.000,A,5313.1788,N,01227.0347,E,83.87,4.62,060214,,,A*5C
$GPGGA,133250.000,5313.3163,N,01227.0558,E,1,11,0.84,60.8,M,44.9,M,,*5C
$GPRMC,133249.000,A,5313.2935,N,01227.0518,E,82.41,5.69,060214,,,A*57
$GPGGA,133255.000,5313.4306,N,01227.0728,E,1,11,0.84,60.2,M,44.9,M,,*50
$GPRMC,133254.000,A,5313.4077,N,01227.0702,E,82.69,4.13,060214,,,A*5D
$GPGGA,133300.000,5313.5454,N,01227.0815,E,1,10,0.92,60.0,M,44.9,M,,*55
$GPRMC,133259.000,A,5313.5224,N,01227.0802,E,82.97,2.28,060214,,,A*55
$GPGGA,133305.000,5313.6600,N,01227.0818,E,1,10,0.92,59.8,M,44.9,M,,*5F
$GPRMC,133304.000,A,5313.6372,N,01227.0823,E,82.45,359.51,060214,,,A*52
$GPGGA,133310.000,5313.7741,N,01227.0761,E,1,11,0.84,59.4,M,44.9,M,,*55
$GPRMC,133309.000,A,5313.7513,N,01227.0778,E,82.49,357.71,060214,,,A*5E
$GPGGA,133315.000,5313.8881,N,01227.0632,E,1,11,0.84,58.8,M,44.9,M,,*56
$GPRMC,133314.000,A,5313.8653,N,01227.0666,E,82.62,355.31,060214,,,A*5B
$GPGGA,133320.000,5314.0015,N,01227.0420,E,1,11,0.84,58.0,M,44.9,M,,*53
$GPRMC,133319.000,A,5313.9788,N,01227.0465,E,82.37,353.40,060214,,,A*51
$GPGGA,133326.000,5314.1210,N,01227.0132,E,1,10,0.89,57.3,M,44.9,M,,*55
$GPRMC,133325.000,A,5314.1043,N,01227.0177,E,63.47,351.28,060214,,,A*53
$GPGGA,133334.000,5314.2345,N,01226.9781,E,1,11,0.84,56.8,M,44.9,M,,*54
$GPRMC,133333.000,A,5314.2211,N,01226.9824,E,49.81,349.46,060214,,,A*56
$GPGGA,133343.000,5314.3510,N,01226.9424,E,1,11,0.84,56.3,M,44.8,M,,*55
$GPRMC,133342.000,A,5314.3384,N,01226.9459,E,46.73,350.22,060214,,,A*52
$GPGGA,133352.000,5314.4597,N,01226.9120,E,1,10,0.89,56.0,M,44.8,M,,*53
$GPRMC,133351.000,A,5314.4482,N,01226.9150,E,42.91,350.93,060214,,,A*58
$GPGGA,133402.000,5314.5688,N,01226.8870,E,1,11,0.84,55.1,M,44.8,M,,*5E
$GPRMC,133401.000,A,5314.5584,N,01226.8893,E,38.43,352.48,060214,,,A*5D
$GPGGA,133413.000,5314.6759,N,01226.8560,E,1,11,0.84,55.2,M,44.8,M,,*5F
$GPRMC,133412.000,A,5314.6663,N,01226.8574,E,34.96,353.97,060214,,,A*55
$GPGGA,133424.000,5314.7900,N,01226.8426,E,1,11,0.84,55.5,M,44.8,M,,*5C
$GPRMC,133423.000,A,5314.7789,N,01226.8436,E,39.53,357.05,060214,,,A*5F
$GPGGA,133434.000,5314.9030,N,01226.8361,E,1,11,0.84,56.0,M,44.8,M,,*5B
$GPRMC,133433.000,A,5314.8912,N,01226.8363,E,42.07,358.96,060214,,,A*52
$GPGGA,133443.000,5315.0114,N,01226.8358,E,1,11,0.84,56.6,M,44.8,M,,*58
$GPRMC,133442.000,A,5314.9993,N,01226.8356,E,43.62,0.85,060214,,,A*54
$GPGGA,133452.000,5315.1199,N,01226.8437,E,1,11,0.84,56.5,M,44.8,M,,*51
$GPRMC,133451.000,A,5315.1081,N,01226.8419,E,42.24,4.46,060214,,,A*51
$GPGGA,133500.000,5315.2300,N,01226.8662,E,1,11,0.84,56.8,M,44.8,M,,*59
$GPRMC,133459.000,A,5315.2138,N,01226.8638,E,56.73,4.86,060214,,,A*53
$GPGGA,133506.000,5315.3392,N,01226.8862,E,1,10,0.84,56.8,M,44.8,M,,*5A
$GPRMC,133505.000,A,5315.3198,N,01226.8822,E,68.96,6.71,060214,,,A*59
$GPGGA,133512.000,5315.4601,N,01226.9141,E,1,10,0.84,57.6,M,44.8,M,,*51
$GPRMC,133511.000,A,5315.4397,N,01226.9089,E,73.83,8.19,060214,,,A*50
$GPGGA,133518.000,5315.5832,N,01226.9516,E,1,10,0.84,58.2,M,44.8,M,,*59
$GPRMC,133517.000,A,5315.5625,N,01226.9449,E,75.83,10.56,060214,,,A*67
$GPGGA,133524.000,5315.7086,N,01226.9970,E,1,11,0.84,58.8,M,44.8,M,,*54
$GPRMC,133523.000,A,5315.6875,N,01226.9885,E,77.87,13.09,060214,,,A*6B
$GPGGA,133529.000,5315.8152,N,01227.0430,E,1,10,0.92,59.4,M,44.8,M,,*54
$GPRMC,133528.000,A,5315.7937,N,01227.0334,E,79.93,14.73,060214,,,A*6E
$GPGGA,133534.000,5315.9231,N,01227.0960,E,1,11,0.84,59.8,M,44.8,M,,*5D
$GPRMC,133533.000,A,5315.9015,N,01227.0850,E,81.04,16.96,060214,,,A*6A
$GPGGA,133539.000,5316.0294,N,01227.1545,E,1,11,0.84,59.8,M,44.8,M,,*5F
$GPRMC,133538.000,A,5316.0083,N,01227.1424,E,80.32,18.88,060214,,,A*6F
$GPGGA,133544.000,5316.1326,N,01227.2186,E,1,10,0.92,60.0,M,44.8,M,,*50
$GPRMC,133543.000,A,5316.1121,N,01227.2055,E,79.12,20.86,060214,,,A*6B
$GPGGA,133549.000,5316.2334,N,01227.2841,E,1,10,0.93,60.3,M,44.8,M,,*5D
$GPRMC,133548.000,A,5316.2135,N,01227.2710,E,78.00,21.43,060214,,,A*6A
$GPGGA,133554.000,5316.3332,N,01227.3535,E,1,10,0.93,60.8,M,44.8,M,,*52
$GPRMC,133553.000,A,5316.3131,N,01227.3395,E,79.05,22.26,060214,,,A*69
$GPGGA,133559.000,5316.4339,N,01227.4230,E,1,10,0.93,61.2,M,44.8,M,,*5D
$GPRMC,133558.000,A,5316.4137,N,01227.4092,E,78.78,22.50,060214,,,A*6A
$GPGGA,133604.000,5316.5361,N,01227.4912,E,1,11,0.80,61.7,M,44.8,M,,*57
$GPRMC,133603.000,A,5316.5155,N,01227.4777,E,79.88,21.88,060214,,,A*66
$GPGGA,133609.000,5316.6375,N,01227.5596,E,1,10,0.85,62.3,M,44.8,M,,*5E
$GPRMC,133608.000,A,5316.6177,N,01227.5461,E,77.56,22.47,060214,,,A*66
$GPGGA,133615.000,5316.7499,N,01227.6390,E,1,10,0.85,62.1,M,44.8,M,,*56
$GPRMC,133614.000,A,5316.7318,N,01227.6259,E,71.77,23.41,060214,,,A*6D
$GPGGA,133622.000,5316.8591,N,01227.7155,E,1,11,0.84,62.2,M,44.8,M,,*5D
$GPRMC,133621.000,A,5316.8461,N,01227.7067,E,52.16,22.29,060214,,,A*6A
$GPGGA,133631.000,5316.9651,N,01227.7881,E,1,11,0.84,61.2,M,44.8,M,,*52
$GPRMC,133630.000,A,5316.9539,N,01227.7803,E,44.54,22.49,060214,,,A*6A
$GPGGA,133642.000,5317.0686,N,01227.8596,E,1,10,0.92,59.8,M,44.8,M,,*57
$GPRMC,133641.000,A,5317.0593,N,01227.8530,E,35.78,23.01,060214,,,A*63
$GPGGA,133653.000,5317.1762,N,01227.9366,E,1,11,0.84,58.8,M,44.8,M,,*52
$GPRMC,133652.000,A,5317.1664,N,01227.9292,E,38.93,24.47,060214,,,A*68
$GPGGA,133704.000,5317.2813,N,01228.0095,E,1,10,0.93,58.2,M,44.8,M,,*5F
$GPRMC,133703.000,A,5317.2722,N,01228.0033,E,35.25,22.10,060214,,,A*66
$GPGGA,133715.000,5317.3814,N,01228.0794,E,1,10,0.92,56.9,M,44.8,M,,*5B
$GPRMC,133714.000,A,5317.3722,N,01228.0732,E,35.94,21.78,060214,,,A*60
$GPGGA,133726.000,5317.4821,N,01228.1437,E,1,9,0.93,56.1,M,44.8,M,,*60
$GPRMC,133725.000,A,5317.4730,N,01228.1378,E,35.49,21.39,060214,,,A*68
$GPGGA,133738.000,5317.5889,N,01228.2112,E,1,10,0.93,56.5,M,44.8,M,,*51
$GPRMC,133737.000,A,5317.5810,N,01228.2062,E,30.78,20.75,060214,,,A*62
ping
ping
ping
ping
ping
ping
ping
ping
ping
ping
$DeviceName=pironex_auto
$Software=0.1.3
$Hardware=1
$LastValidPosition=
$IMEI=359193030849087
$LocalIP=10.39.197.167
$CmdVersion=2
$SUCCESS
$<end>
$GPGGA,134954.000,5317.6757,N,01228.3515,E,1,10,0.95,84.9,M,44.8,M,,*5A
$GPRMC,134952.523,V,,,,,9.99,37.14,060214,,,N*78
$GPGGA,135014.000,5317.7835,N,01228.3304,E,1,10,0.95,77.4,M,44.8,M,,*5B
$GPRMC,135013.000,A,5317.7748,N,01228.3321,E,30.15,351.20,060214,,,A*5E
$GPGGA,135023.000,5317.8898,N,01228.3738,E,1,10,0.95,76.5,M,44.8,M,,*5C
$GPRMC,135022.000,A,5317.8754,N,01228.3672,E,52.23,15.51,060214,,,A*69
$GPGGA,135030.000,5317.9979,N,01228.4245,E,1,10,0.95,76.1,M,44.7,M,,*52
$GPRMC,135029.000,A,5317.9824,N,01228.4173,E,57.99,15.61,060214,,,A*6D
$GPGGA,135037.000,5318.1099,N,01228.4710,E,1,10,0.95,75.9,M,44.7,M,,*5B
$GPRMC,135036.000,A,5318.0929,N,01228.4646,E,61.28,12.56,060214,,,A*64
$GPGGA,135043.000,5318.2172,N,01228.5128,E,1,11,0.90,76.6,M,44.7,M,,*5B
$GPRMC,135042.000,A,5318.1985,N,01228.5057,E,67.90,12.97,060214,,,A*6F
$GPGGA,135049.000,5318.3345,N,01228.5564,E,1,11,0.90,78.4,M,44.7,M,,*56
$GPRMC,135048.000,A,5318.3145,N,01228.5491,E,73.18,12.41,060214,,,A*63
$GPGGA,135055.000,5318.4570,N,01228.5959,E,1,11,0.90,79.1,M,44.7,M,,*5A
$GPRMC,135054.000,A,5318.4362,N,01228.5898,E,75.43,10.13,060214,,,A*66
$GPGGA,135100.000,5318.5649,N,01228.6249,E,1,11,0.90,78.5,M,44.7,M,,*5F
$GPRMC,135059.000,A,5318.5429,N,01228.6193,E,79.46,8.82,060214,,,A*5B
$GPGGA,135105.000,5318.6778,N,01228.6511,E,1,11,0.90,77.8,M,44.7,M,,*52
$GPRMC,135104.000,A,5318.6547,N,01228.6462,E,82.98,7.54,060214,,,A*50
$GPGGA,135110.000,5318.7950,N,01228.6735,E,1,11,0.90,76.8,M,44.7,M,,*56
$GPRMC,135109.000,A,5318.7714,N,01228.6694,E,85.22,6.18,060214,,,A*5C
$GPGGA,135115.000,5318.9139,N,01228.6914,E,1,11,0.90,76.1,M,44.7,M,,*5E
$GPRMC,135114.000,A,5318.8900,N,01228.6883,E,86.02,4.63,060214,,,A*53
$GPGGA,135120.000,5319.0348,N,01228.7036,E,1,11,0.90,76.5,M,44.7,M,,*58
$GPRMC,135119.000,A,5319.0104,N,01228.7014,E,87.40,3.34,060214,,,A*5E
$GPGGA,135125.000,5319.1565,N,01228.7115,E,1,10,0.90,77.0,M,44.7,M,,*50
$GPRMC,135124.000,A,5319.1322,N,01228.7105,E,87.76,1.82,060214,,,A*5C
$GPGGA,135130.000,5319.2781,N,01228.7150,E,1,11,0.90,77.2,M,44.7,M,,*5D
$GPRMC,135129.000,A,5319.2538,N,01228.7146,E,87.71,0.59,060214,,,A*58
$GPGGA,135135.000,5319.3995,N,01228.7128,E,1,11,0.90,77.8,M,44.7,M,,*57
$GPRMC,135134.000,A,5319.3753,N,01228.7137,E,87.29,358.94,060214,,,A*5E
$GPGGA,135140.000,5319.5196,N,01228.7048,E,1,11,0.90,78.3,M,44.7,M,,*5B
$GPRMC,135139.000,A,5319.4958,N,01228.7066,E,86.11,357.72,060214,,,A*59
$GPGGA,135145.000,5319.6370,N,01228.6923,E,1,11,0.90,78.9,M,44.7,M,,*58
$GPRMC,135144.000,A,5319.6137,N,01228.6953,E,84.37,356.02,060214,,,A*5E
$GPGGA,135150.000,5319.7524,N,01228.6759,E,1,11,0.90,79.4,M,44.7,M,,*55
$GPRMC,135149.000,A,5319.7293,N,01228.6794,E,83.29,354.96,060214,,,A*5D
$GPGGA,135155.000,5319.8665,N,01228.6559,E,1,11,0.90,79.6,M,44.7,M,,*59
$GPRMC,135154.000,A,5319.8439,N,01228.6602,E,81.94,353.72,060214,,,A*5F
$GPGGA,135200.000,5319.9809,N,01228.6304,E,1,11,0.90,79.7,M,44.7,M,,*50
$GPRMC,135159.000,A,5319.9578,N,01228.6359,E,83.45,351.93,060214,,,A*5F
$GPGGA,135205.000,5320.0965,N,01228.6012,E,1,11,0.90,79.2,M,44.7,M,,*5C
$GPRMC,135204.000,A,5320.0734,N,01228.6072,E,84.13,351.36,060214,,,A*5C
$GPGGA,135210.000,5320.2129,N,01228.5664,E,1,11,0.90,78.4,M,44.7,M,,*59
$GPRMC,135209.000,A,5320.1896,N,01228.5735,E,85.29,349.53,060214,,,A*52
$GPGGA,135215.000,5320.3296,N,01228.5309,E,1,11,0.90,77.6,M,44.7,M,,*59
$GPRMC,135214.000,A,5320.3062,N,01228.5380,E,85.74,349.79,060214,,,A*55
$GPGGA,135220.000,5320.4476,N,01228.4961,E,1,11,0.90,76.8,M,44.7,M,,*5A
$GPRMC,135219.000,A,5320.4240,N,01228.5030,E,86.18,350.21,060214,,,A*59
$GPGGA,135225.000,5320.5628,N,01228.4620,E,1,11,0.90,76.3,M,44.7,M,,*56
$GPRMC,135224.000,A,5320.5401,N,01228.4687,E,83.26,349.88,060214,,,A*5D
$GPGGA,135230.000,5320.6746,N,01228.4339,E,1,11,0.90,75.5,M,44.7,M,,*50
$GPRMC,135229.000,A,5320.6523,N,01228.4391,E,81.00,351.96,060214,,,A*50
$GPGGA,135235.000,5320.7868,N,01228.4108,E,1,11,0.90,75.4,M,44.7,M,,*56
$GPRMC,135234.000,A,5320.7643,N,01228.4149,E,81.75,353.67,060214,,,A*51
$GPGGA,135240.000,5320.9008,N,01228.3937,E,1,11,0.90,77.2,M,44.7,M,,*53
$GPRMC,135239.000,A,5320.8779,N,01228.3965,E,82.86,355.55,060214,,,A*52
$GPGGA,135245.000,5321.0154,N,01228.3839,E,1,10,0.94,80.2,M,44.7,M,,*54
$GPRMC,135244.000,A,5320.9927,N,01228.3855,E,82.50,357.56,060214,,,A*54
$GPGGA,135250.000,5321.1271,N,01228.3789,E,1,11,0.90,82.4,M,44.7,M,,*50
$GPRMC,135249.000,A,5321.1049,N,01228.3795,E,80.01,359.11,060214,,,A*59
$GPGGA,135255.000,5321.2379,N,01228.3747,E,1,11,0.90,83.5,M,44.7,M,,*5D
$GPRMC,135254.000,A,5321.2158,N,01228.3758,E,79.91,358.54,060214,,,A*59
$GPGGA,135300.000,5321.3493,N,01228.3659,E,1,11,0.90,83.3,M,44.7,M,,*56
$GPRMC,135259.000,A,5321.3268,N,01228.3683,E,81.10,356.76,060214,,,A*52
$GPGGA,135305.000,5321.4603,N,01228.3490,E,1,11,0.90,81.4,M,44.7,M,,*5D
$GPRMC,135304.000,A,5321.4383,N,01228.3531,E,79.95,353.78,060214,,,A*53
$GPGGA,135310.000,5321.5688,N,01228.3233,E,1,11,0.90,79.4,M,44.7,M,,*53
$GPRMC,135309.000,A,5321.5474,N,01228.3292,E,78.19,350.90,060214,,,A*5E
$GPGGA,135316.000,5321.6953,N,01228.2804,E,1,10,1.12,78.9,M,44.7,M,,*56
$GPRMC,135315.000,A,5321.6742,N,01228.2887,E,78.19,347.55,060214,,,A*56
$GPGGA,135321.000,5321.8027,N,01228.2309,E,1,11,0.90,79.9,M,44.7,M,,*5B
$GPRMC,135320.000,A,5321.7808,N,01228.2415,E,81.70,344.10,060214,,,A*5C
$GPGGA,135326.000,5321.9120,N,01228.1721,E,1,11,0.90,80.9,M,44.7,M,,*50
$GPRMC,135325.000,A,5321.8903,N,01228.1845,E,83.07,341.61,060214,,,A*57
$GPGGA,135331.000,5322.0191,N,01228.1039,E,1,10,0.95,81.6,M,44.7,M,,*52
$GPRMC,135330.000,A,5321.9978,N,01228.1183,E,82.95,338.67,060214,,,A*5F
$GPGGA,135336.000,5322.1259,N,01228.0250,E,1,11,0.90,83.0,M,44.7,M,,*5F
$GPRMC,135335.000,A,5322.1045,N,01228.0418,E,84.82,335.41,060214,,,A*59
$GPGGA,135341.000,5322.2318,N,01227.9367,E,1,11,0.90,84.2,M,44.7,M,,*5E
$GPRMC,135340.000,A,5322.2108,N,01227.9552,E,85.46,332.81,060214,,,A*5B
$GPGGA,135346.000,5322.3341,N,01227.8388,E,1,11,0.90,85.4,M,44.7,M,,*53
$GPRMC,135345.000,A,5322.3138,N,01227.8592,E,85.04,329.58,060214,,,A*59
$GPGGA,135351.000,5322.4350,N,01227.7343,E,1,11,0.90,86.7,M,44.7,M,,*5A
$GPRMC,135350.000,A,5322.4149,N,01227.7554,E,85.35,328.28,060214,,,A*5D
$GPGGA,135356.000,5322.5354,N,01227.6290,E,1,10,0.90,88.2,M,44.7,M,,*5C
$GPRMC,135355.000,A,5322.5153,N,01227.6499,E,85.12,328.35,060214,,,A*5A
$GPGGA,135401.000,5322.6359,N,01227.5256,E,1,10,0.90,90.8,M,44.7,M,,*5D
$GPRMC,135400.000,A,5322.6159,N,01227.5460,E,84.67,328.71,060214,,,A*52
$GPGGA,135406.000,5322.7351,N,01227.4279,E,1,10,0.94,95.1,M,44.7,M,,*57
$GPRMC,135405.000,A,5322.7153,N,01227.4470,E,82.75,330.01,060214,,,A*57
$GPGGA,135411.000,5322.8336,N,01227.3372,E,1,10,0.89,99.5,M,44.7,M,,*56
$GPRMC,135410.000,A,5322.8141,N,01227.3549,E,80.32,331.67,060214,,,A*53
$GPGGA,135416.000,5322.9323,N,01227.2520,E,1,9,1.10,102.9,M,44.7,M,,*52
$GPRMC,135415.000,A,5322.9124,N,01227.2681,E,79.82,333.76,060214,,,A*5D
$GPGGA,135421.000,5323.0335,N,01227.1766,E,1,10,0.95,105.5,M,44.7,M,,*65
$GPRMC,135420.000,A,5323.0130,N,01227.1908,E,79.82,336.92,060214,,,A*54
$GPGGA,135426.000,5323.1396,N,01227.1094,E,1,10,0.95,107.4,M,44.7,M,,*63
$GPRMC,135425.000,A,5323.1182,N,01227.1226,E,82.17,339.64,060214,,,A*50
$GPGGA,135431.000,5323.2482,N,01227.0462,E,1,10,0.95,108.7,M,44.7,M,,*64
$GPRMC,135430.000,A,5323.2263,N,01227.0581,E,82.73,341.39,060214,,,A*55
$GPGGA,135436.000,5323.3575,N,01226.9921,E,1,11,0.90,109.8,M,44.7,M,,*63
$GPRMC,135435.000,A,5323.3355,N,01227.0022,E,82.09,344.20,060214,,,A*59
$GPGGA,135441.000,5323.4687,N,01226.9451,E,1,11,0.90,110.2,M,44.7,M,,*62
$GPRMC,135440.000,A,5323.4463,N,01226.9539,E,82.85,346.27,060214,,,A*58
$GPGGA,135446.000,5323.5831,N,01226.9047,E,1,10,0.95,111.4,M,44.7,M,,*67
$GPRMC,135445.000,A,5323.5598,N,01226.9123,E,84.97,348.63,060214,,,A*5D
$GPGGA,135451.000,5323.7008,N,01226.8678,E,1,11,0.90,112.3,M,44.7,M,,*6A
$GPRMC,135450.000,A,5323.6771,N,01226.8749,E,86.54,349.49,060214,,,A*50
$GPGGA,135456.000,5323.8209,N,01226.8337,E,1,11,0.90,113.4,M,44.7,M,,*69
$GPRMC,135455.000,A,5323.7967,N,01226.8404,E,87.95,350.42,060214,,,A*58
$GPGGA,135501.000,5323.9414,N,01226.7999,E,1,11,0.90,114.3,M,44.7,M,,*60
$GPRMC,135500.000,A,5323.9174,N,01226.8067,E,87.66,350.35,060214,,,A*50
$GPGGA,135506.000,5324.0618,N,01226.7627,E,1,11,0.90,114.3,M,44.7,M,,*6D
$GPRMC,135505.000,A,5324.0376,N,01226.7706,E,88.80,349.09,060214,,,A*54
$GPGGA,135511.000,5324.1824,N,01226.7164,E,1,11,0.90,113.3,M,44.7,M,,*6C
$GPRMC,135510.000,A,5324.1584,N,01226.7266,E,89.21,346.11,060214,,,A*55
$GPGGA,135516.000,5324.3017,N,01226.6588,E,1,11,0.90,111.3,M,44.7,M,,*64
$GPRMC,135515.000,A,5324.2779,N,01226.6713,E,89.63,343.12,060214,,,A*55
$GPGGA,135521.000,5324.4196,N,01226.5899,E,1,11,0.90,108.0,M,44.7,M,,*6A
$GPRMC,135520.000,A,5324.3961,N,01226.6047,E,90.35,339.80,060214,,,A*5E
$GPGGA,135526.000,5324.5364,N,01226.5071,E,1,11,0.90,103.4,M,44.7,M,,*62
$GPRMC,135525.000,A,5324.5131,N,01226.5248,E,92.21,336.26,060214,,,A*5A
$GPGGA,135531.000,5324.6517,N,01226.4117,E,1,11,0.90,99.6,M,44.7,M,,*55
$GPRMC,135530.000,A,5324.6289,N,01226.4317,E,92.77,332.83,060214,,,A*5F
$GPGGA,135536.000,5324.7637,N,01226.3044,E,1,11,0.90,96.9,M,44.6,M,,*53
$GPRMC,135535.000,A,5324.7416,N,01226.3268,E,92.98,329.50,060214,,,A*50
$GPGGA,135541.000,5324.8718,N,01226.1855,E,1,11,0.90,96.1,M,44.6,M,,*52
$GPRMC,135540.000,A,5324.8505,N,01226.2101,E,92.95,325.96,060214,,,A*58
$GPGGA,135546.000,5324.9760,N,01226.0594,E,1,9,1.07,95.9,M,44.7,M,,*66
$GPRMC,135545.000,A,5324.9554,N,01226.0850,E,92.49,323.96,060214,,,A*50
$GPGGA,135551.000,5325.0759,N,01225.9326,E,1,11,0.90,96.6,M,44.7,M,,*5D
$GPRMC,135550.000,A,5325.0565,N,01225.9575,E,88.65,322.92,060214,,,A*5E
$GPGGA,135556.000,5325.1733,N,01225.8117,E,1,10,0.96,98.4,M,44.7,M,,*5D
$GPRMC,135555.000,A,5325.1537,N,01225.8353,E,87.12,324.47,060214,,,A*5F
$GPGGA,135601.000,5325.2713,N,01225.6980,E,1,8,1.20,100.4,M,44.7,M,,*50
$GPRMC,135600.000,A,5325.2519,N,01225.7202,E,84.37,325.70,060214,,,A*58
$GPGGA,135606.000,5325.3702,N,01225.5914,E,1,11,0.90,102.1,M,44.7,M,,*6D
$GPRMC,135605.000,A,5325.3502,N,01225.6121,E,85.10,328.22,060214,,,A*5B
$GPGGA,135610.000,5325.4740,N,01225.4889,E,1,9,1.11,103.9,M,44.7,M,,*57
$GPRMC,135609.000,A,5325.4532,N,01225.5089,E,87.11,330.21,060214,,,A*5A
$GPGGA,135615.000,5325.5810,N,01225.3940,E,1,10,0.96,104.4,M,44.6,M,,*67
$GPRMC,135614.000,A,5325.5591,N,01225.4123,E,87.76,332.80,060214,,,A*56
$GPGGA,135620.000,5325.6920,N,01225.3031,E,1,11,0.90,102.7,M,44.6,M,,*6D
$GPRMC,135619.000,A,5325.6699,N,01225.3211,E,89.20,334.16,060214,,,A*52
$GPGGA,135625.000,5325.8031,N,01225.2108,E,1,10,1.06,100.9,M,44.6,M,,*66
$GPRMC,135624.000,A,5325.7811,N,01225.2297,E,89.36,332.91,060214,,,A*52
$GPGGA,135630.000,5325.9119,N,01225.1116,E,1,10,1.06,96.7,M,44.6,M,,*54
$GPRMC,135629.000,A,5325.8904,N,01225.1320,E,89.61,330.64,060214,,,A*51
$GPGGA,135635.000,5326.0174,N,01225.0003,E,1,11,0.90,96.5,M,44.6,M,,*59
$GPRMC,135634.000,A,5325.9968,N,01225.0239,E,89.67,326.59,060214,,,A*51
$GPGGA,135640.000,5326.1164,N,01224.8792,E,1,11,0.90,95.4,M,44.6,M,,*5F
$GPRMC,135639.000,A,5326.0969,N,01224.9036,E,88.09,323.45,060214,,,A*53
$GPGGA,135645.000,5326.2117,N,01224.7512,E,1,11,0.90,93.3,M,44.6,M,,*59
$GPRMC,135644.000,A,5326.1928,N,01224.7778,E,87.53,319.76,060214,,,A*57
$GPGGA,135650.000,5326.3073,N,01224.6125,E,1,11,0.90,89.7,M,44.6,M,,*51
$GPRMC,135649.000,A,5326.2884,N,01224.6408,E,91.03,318.66,060214,,,A*59
$GPGGA,135655.000,5326.3997,N,01224.4670,E,1,11,0.90,85.0,M,44.6,M,,*59
$GPRMC,135654.000,A,5326.3815,N,01224.4960,E,90.53,316.68,060214,,,A*59
$GPGGA,135700.000,5326.4901,N,01224.3235,E,1,11,0.90,81.2,M,44.7,M,,*55
$GPRMC,135659.000,A,5326.4722,N,01224.3521,E,89.31,316.63,060214,,,A*51
$GPGGA,135705.000,5326.5790,N,01224.1817,E,1,10,1.02,78.3,M,44.7,M,,*53
$GPRMC,135704.000,A,5326.5614,N,01224.2100,E,87.06,316.52,060214,,,A*53
$GPGGA,135710.000,5326.6669,N,01224.0409,E,1,11,0.90,76.6,M,44.7,M,,*51
$GPRMC,135709.000,A,5326.6494,N,01224.0687,E,86.90,316.50,060214,,,A*51
$GPGGA,135715.000,5326.7542,N,01223.9019,E,1,10,0.96,75.6,M,44.7,M,,*50
$GPRMC,135714.000,A,5326.7368,N,01223.9296,E,86.54,316.56,060214,,,A*5C
$GPGGA,135720.000,5326.8407,N,01223.7659,E,1,9,1.08,75.5,M,44.7,M,,*68
$GPRMC,135719.000,A,5326.8234,N,01223.7931,E,85.44,316.82,060214,,,A*55
$GPGGA,135725.000,5326.9290,N,01223.6353,E,1,11,0.89,75.2,M,44.7,M,,*5C
$GPRMC,135724.000,A,5326.9109,N,01223.6607,E,84.99,319.56,060214,,,A*5B
$GPGGA,135730.000,5327.0224,N,01223.5138,E,1,9,1.08,75.2,M,44.7,M,,*62
$GPRMC,135729.000,A,5327.0033,N,01223.5375,E,85.31,323.00,060214,,,A*5C
$GPGGA,135735.000,5327.1194,N,01223.4016,E,1,11,0.89,74.9,M,44.7,M,,*59
$GPRMC,135734.000,A,5327.1001,N,01223.4231,E,84.66,326.24,060214,,,A*50
$GPGGA,135740.000,5327.2136,N,01223.3040,E,1,9,0.97,73.5,M,44.7,M,,*69
$GPRMC,135739.000,A,5327.1951,N,01223.3222,E,79.29,329.15,060214,,,A*50
$GPGGA,135746.000,5327.3252,N,01223.2053,E,1,9,1.05,71.5,M,44.7,M,,*64
$GPRMC,135745.000,A,5327.3065,N,01223.2205,E,75.36,333.71,060214,,,A*58
$GPGGA,135753.000,5327.4360,N,01223.1182,E,1,9,1.10,68.8,M,44.7,M,,*68
$GPRMC,135752.000,A,5327.4213,N,01223.1301,E,62.76,330.96,060214,,,A*54
$GPGGA,135801.000,5327.5495,N,01223.0431,E,1,10,1.02,66.3,M,44.7,M,,*5E
$GPRMC,135800.000,A,5327.5351,N,01223.0524,E,55.46,338.64,060214,,,A*58
$GPGGA,135808.000,5327.6558,N,01222.9827,E,1,11,0.90,64.4,M,44.7,M,,*59
$GPRMC,135807.000,A,5327.6407,N,01222.9905,E,58.15,341.62,060214,,,A*5C
$GPGGA,135816.000,5327.7741,N,01222.9299,E,1,11,0.90,62.0,M,44.6,M,,*51
$GPRMC,135815.000,A,5327.7595,N,01222.9359,E,54.73,345.54,060214,,,A*5A
$GPGGA,135823.000,5327.8859,N,01222.8919,E,1,9,1.27,61.6,M,44.6,M,,*6D
$GPRMC,135822.000,A,5327.8684,N,01222.8967,E,62.81,350.22,060214,,,A*59
$GPGGA,135829.000,5327.9961,N,01222.8632,E,1,11,0.90,63.1,M,44.6,M,,*5B
$GPRMC,135828.000,A,5327.9773,N,01222.8678,E,67.74,351.29,060214,,,A*5F
$GPGGA,135835.000,5328.1076,N,01222.8424,E,1,10,0.96,64.8,M,44.6,M,,*52
$GPRMC,135834.000,A,5328.0893,N,01222.8451,E,66.13,354.75,060214,,,A*50
$GPGGA,135841.000,5328.2182,N,01222.8316,E,1,10,0.96,66.3,M,44.6,M,,*57
$GPRMC,135840.000,A,5328.1996,N,01222.8325,E,66.85,357.66,060214,,,A*5C
$GPGGA,135847.000,5328.3303,N,01222.8309,E,1,11,0.90,67.8,M,44.6,M,,*58
$GPRMC,135846.000,A,5328.3116,N,01222.8304,E,67.28,0.05,060214,,,A*59
$GPGGA,135853.000,5328.4460,N,01222.8394,E,1,10,0.96,68.6,M,44.6,M,,*5A
$GPRMC,135852.000,A,5328.4264,N,01222.8373,E,70.46,2.89,060214,,,A*55
$GPGGA,135859.000,5328.5648,N,01222.8543,E,1,10,0.96,68.6,M,44.6,M,,*55
$GPRMC,135858.000,A,5328.5447,N,01222.8517,E,72.04,4.32,060214,,,A*5F
$GPGGA,135905.000,5328.6882,N,01222.8715,E,1,10,0.97,68.4,M,44.6,M,,*54
$GPRMC,135904.000,A,5328.6674,N,01222.8685,E,74.75,4.56,060214,,,A*5C
$GPGGA,135911.000,5328.8127,N,01222.8879,E,1,10,0.96,69.2,M,44.6,M,,*5A
$GPRMC,135910.000,A,5328.7918,N,01222.8851,E,75.02,4.82,060214,,,A*52
$GPGGA,135917.000,5328.9399,N,01222.9053,E,1,9,1.07,70.3,M,44.6,M,,*63
$GPRMC,135916.000,A,5328.9185,N,01222.9025,E,76.90,4.57,060214,,,A*5C
$GPGGA,135923.000,5329.0683,N,01222.9223,E,1,11,0.89,72.0,M,44.6,M,,*58
$GPRMC,135922.000,A,5329.0468,N,01222.9191,E,77.59,4.85,060214,,,A*50
$GPGGA,135929.000,5329.1955,N,01222.9399,E,1,10,1.02,73.4,M,44.6,M,,*51
$GPRMC,135928.000,A,5329.1744,N,01222.9370,E,76.27,4.73,060214,,,A*5A
$GPGGA,135935.000,5329.3219,N,01222.9545,E,1,9,1.07,74.3,M,44.6,M,,*67
$GPRMC,135934.000,A,5329.3008,N,01222.9523,E,76.03,3.38,060214,,,A*54
$GPGGA,135940.000,5329.4298,N,01222.9655,E,1,9,1.07,75.5,M,44.6,M,,*6E
$GPRMC,135939.000,A,5329.4079,N,01222.9634,E,78.68,3.15,060214,,,A*51
$GPGGA,135945.000,5329.5394,N,01222.9737,E,1,11,0.90,76.8,M,44.6,M,,*5A
$GPRMC,135944.000,A,5329.5177,N,01222.9730,E,78.51,1.56,060214,,,A*5F
$GPGGA,135950.000,5329.6477,N,01222.9691,E,1,11,0.90,77.1,M,44.6,M,,*52
$GPRMC,135949.000,A,5329.6261,N,01222.9711,E,77.88,357.64,060214,,,A*5C
$GPGGA,135955.000,5329.7554,N,01222.9509,E,1,11,0.90,75.4,M,44.6,M,,*53
$GPRMC,135954.000,A,5329.7336,N,01222.9558,E,78.63,353.20,060214,,,A*53
$GPGGA,140000.000,5329.8647,N,01222.9168,E,1,11,0.90,71.1,M,44.6,M,,*54
$GPRMC,135959.000,A,5329.8427,N,01222.9250,E,80.88,348.38,060214,,,A*58
$GPGGA,140005.000,5329.9754,N,01222.8615,E,1,11,0.90,66.0,M,44.6,M,,*58
$GPRMC,140004.000,A,5329.9534,N,01222.8743,E,83.60,341.68,060214,,,A*56
$GPGGA,140010.000,5330.0829,N,01222.7849,E,1,10,1.01,61.1,M,44.6,M,,*5E
$GPRMC,140009.000,A,5330.0617,N,01222.8027,E,85.08,334.93,060214,,,A*53
$GPGGA,140015.000,5330.1860,N,01222.6863,E,1,8,1.35,57.8,M,44.6,M,,*6C
$GPRMC,140014.000,A,5330.1657,N,01222.7073,E,85.77,329.40,060214,,,A*5E
$GPGGA,140020.000,5330.2830,N,01222.5721,E,1,11,0.90,56.4,M,44.6,M,,*5D
$GPRMC,140019.000,A,5330.2642,N,01222.5958,E,84.65,324.01,060214,,,A*5C
$GPGGA,140025.000,5330.3745,N,01222.4460,E,1,11,0.90,55.6,M,44.6,M,,*52
$GPRMC,140024.000,A,5330.3566,N,01222.4723,E,84.90,319.90,060214,,,A*59
$GPGGA,140030.000,5330.4621,N,01222.3069,E,1,11,0.90,54.4,M,44.6,M,,*5B
$GPRMC,140029.000,A,5330.4446,N,01222.3357,E,87.52,316.09,060214,,,A*52
$GPGGA,140035.000,5330.5486,N,01222.1571,E,1,11,0.90,53.0,M,44.6,M,,*5D
$GPRMC,140034.000,A,5330.5316,N,01222.1876,E,89.42,313.90,060214,,,A*5D
$GPGGA,140040.000,5330.6325,N,01222.0054,E,1,11,0.90,51.4,M,44.6,M,,*57
$GPRMC,140039.000,A,5330.6157,N,01222.0356,E,88.44,312.92,060214,,,A*58
$GPGGA,140045.000,5330.7173,N,01221.8550,E,1,10,1.02,50.2,M,44.6,M,,*54
$GPRMC,140044.000,A,5330.7003,N,01221.8847,E,88.46,313.71,060214,,,A*5D
$GPGGA,140050.000,5330.8053,N,01221.7119,E,1,11,0.90,48.8,M,44.6,M,,*52
$GPRMC,140049.000,A,5330.7872,N,01221.7398,E,88.48,317.03,060214,,,A*57
$GPGGA,140055.000,5330.9001,N,01221.5833,E,1,11,0.90,49.1,M,44.6,M,,*5A
$GPRMC,140054.000,A,5330.8806,N,01221.6075,E,87.24,322.47,060214,,,A*55
$GPGGA,140100.000,5331.0029,N,01221.4761,E,1,11,0.90,50.1,M,44.6,M,,*58
$GPRMC,140059.000,A,5330.9815,N,01221.4956,E,87.46,330.02,060214,,,A*57
$GPGGA,140105.000,5331.1158,N,01221.3935,E,1,11,0.89,51.8,M,44.6,M,,*53
$GPRMC,140104.000,A,5331.0927,N,01221.4082,E,88.80,338.19,060214,,,A*51
$GPGGA,140110.000,5331.2336,N,01221.3333,E,1,10,1.01,53.7,M,44.6,M,,*5F
$GPRMC,140109.000,A,5331.2098,N,01221.3440,E,89.01,344.47,060214,,,A*56
$GPGGA,140115.000,5331.3527,N,01221.2871,E,1,9,1.07,55.1,M,44.6,M,,*6F
$GPRMC,140114.000,A,5331.3287,N,01221.2951,E,88.19,348.02,060214,,,A*5E
$GPGGA,140120.000,5331.4730,N,01221.2533,E,1,11,0.90,56.4,M,44.6,M,,*51
$GPRMC,140119.000,A,5331.4490,N,01221.2594,E,87.31,351.13,060214,,,A*5C
$GPGGA,140125.000,5331.5925,N,01221.2203,E,1,10,1.01,57.3,M,44.6,M,,*55
$GPRMC,140124.000,A,5331.5687,N,01221.2274,E,87.26,349.99,060214,,,A*53
$GPGGA,140130.000,5331.7101,N,01221.1801,E,1,10,0.96,57.3,M,44.6,M,,*59
$GPRMC,140129.000,A,5331.6867,N,01221.1892,E,86.31,347.14,060214,,,A*50
$GPGGA,140135.000,5331.8285,N,01221.1256,E,1,10,0.96,56.0,M,44.6,M,,*56
$GPRMC,140134.000,A,5331.8048,N,01221.1381,E,89.30,343.40,060214,,,A*55
$GPGGA,140140.000,5331.9435,N,01221.0544,E,1,11,0.89,55.0,M,44.6,M,,*51
$GPRMC,140139.000,A,5331.9209,N,01221.0700,E,88.22,338.28,060214,,,A*52
$GPGGA,140145.000,5332.0551,N,01220.9652,E,1,11,0.89,54.8,M,44.6,M,,*58
$GPRMC,140144.000,A,5332.0331,N,01220.9847,E,89.73,333.09,060214,,,A*51
$GPGGA,140150.000,5332.1626,N,01220.8561,E,1,11,0.89,55.2,M,44.6,M,,*57
$GPRMC,140149.000,A,5332.1414,N,01220.8796,E,90.67,327.77,060214,,,A*5E
$GPGGA,140155.000,5332.2634,N,01220.7283,E,1,11,0.89,56.5,M,44.6,M,,*52
$GPRMC,140154.000,A,5332.2436,N,01220.7546,E,90.43,321.88,060214,,,A*51
$GPGGA,140200.000,5332.3597,N,01220.5899,E,1,11,0.89,57.8,M,44.6,M,,*55
$GPRMC,140159.000,A,5332.3408,N,01220.6185,E,91.22,318.98,060214,,,A*57
$GPGGA,140205.000,5332.4529,N,01220.4433,E,1,11,0.89,58.8,M,44.6,M,,*50
$GPRMC,140204.000,A,5332.4344,N,01220.4728,E,91.53,316.82,060214,,,A*54
$GPGGA,140210.000,5332.5442,N,01220.2973,E,1,11,0.89,60.2,M,44.6,M,,*57
$GPRMC,140209.000,A,5332.5260,N,01220.3264,E,90.59,316.76,060214,,,A*55
$GPGGA,140215.000,5332.6354,N,01220.1519,E,1,11,0.89,60.9,M,44.6,M,,*59
$GPRMC,140214.000,A,5332.6172,N,01220.1810,E,90.38,316.51,060214,,,A*53
$GPGGA,140220.000,5332.7278,N,01220.0067,E,1,11,0.89,60.6,M,44.6,M,,*53
$GPRMC,140219.000,A,5332.7090,N,01220.0356,E,91.68,317.39,060214,,,A*51
$GPGGA,140225.000,5332.8221,N,01219.8595,E,1,10,1.03,59.4,M,44.6,M,,*55
$GPRMC,140224.000,A,5332.8033,N,01219.8894,E,92.90,316.75,060214,,,A*53
$GPGGA,140230.000,5332.9166,N,01219.7095,E,1,11,0.89,57.7,M,44.6,M,,*55
$GPRMC,140229.000,A,5332.8976,N,01219.7397,E,94.06,316.44,060214,,,A*5A
$GPGGA,140235.000,5333.0117,N,01219.5595,E,1,10,1.07,57.1,M,44.6,M,,*59
$GPRMC,140234.000,A,5332.9928,N,01219.5892,E,93.55,316.97,060214,,,A*5F
$GPGGA,140240.000,5333.1078,N,01219.4158,E,1,10,1.02,57.4,M,44.6,M,,*56
$GPRMC,140239.000,A,5333.0884,N,01219.4438,E,91.99,319.14,060214,,,A*56
$GPGGA,140245.000,5333.2053,N,01219.2872,E,1,10,1.07,57.8,M,44.6,M,,*57
$GPRMC,140244.000,A,5333.1855,N,01219.3113,E,89.10,323.29,060214,,,A*55
$GPGGA,140250.000,5333.3071,N,01219.1768,E,1,11,0.89,58.0,M,44.6,M,,*54
$GPRMC,140249.000,A,5333.2862,N,01219.1973,E,87.45,328.51,060214,,,A*59
$GPGGA,140255.000,5333.4165,N,01219.0880,E,1,10,1.07,56.8,M,44.6,M,,*5A
$GPRMC,140254.000,A,5333.3940,N,01219.1039,E,88.20,335.66,060214,,,A*56
$GPGGA,140300.000,5333.5306,N,01219.0215,E,1,11,0.89,55.4,M,44.6,M,,*52
$GPRMC,140259.000,A,5333.5078,N,01219.0328,E,86.04,342.52,060214,,,A*52
$GPGGA,140305.000,5333.6466,N,01218.9786,E,1,10,1.07,53.8,M,44.6,M,,*5E
$GPRMC,140304.000,A,5333.6234,N,01218.9851,E,85.54,349.14,060214,,,A*50
$GPGGA,140310.000,5333.7655,N,01218.9591,E,1,9,1.33,53.0,M,44.6,M,,*6A
$GPRMC,140309.000,A,5333.7416,N,01218.9612,E,86.27,355.79,060214,,,A*52
$GPGGA,140315.000,5333.8852,N,01218.9615,E,1,11,0.89,53.4,M,44.6,M,,*5B
$GPRMC,140314.000,A,5333.8613,N,01218.9588,E,86.22,2.22,060214,,,A*5C
$GPGGA,140320.000,5334.0042,N,01218.9890,E,1,10,1.01,55.0,M,44.6,M,,*5A
$GPRMC,140319.000,A,5333.9807,N,01218.9817,E,85.47,9.31,060214,,,A*59
$GPGGA,140325.000,5334.1201,N,01219.0424,E,1,11,0.89,56.3,M,44.6,M,,*50
$GPRMC,140324.000,A,5334.0973,N,01219.0300,E,85.95,16.78,060214,,,A*62
$GPGGA,140330.000,5334.2295,N,01219.1134,E,1,11,0.89,57.6,M,44.6,M,,*5B
$GPRMC,140329.000,A,5334.2081,N,01219.0979,E,84.05,22.69,060214,,,A*62
$GPGGA,140335.000,5334.3343,N,01219.2036,E,1,11,0.89,59.8,M,44.6,M,,*55
$GPRMC,140334.000,A,5334.3139,N,01219.1842,E,84.37,28.76,060214,,,A*60
$GPGGA,140340.000,5334.4327,N,01219.3151,E,1,10,0.96,60.6,M,44.6,M,,*58
$GPRMC,140339.000,A,5334.4136,N,01219.2909,E,85.31,36.05,060214,,,A*64
$GPGGA,140345.000,5334.5235,N,01219.4462,E,1,10,0.96,60.9,M,44.6,M,,*53
$GPRMC,140344.000,A,5334.5059,N,01219.4183,E,86.36,42.22,060214,,,A*69
$GPGGA,140350.000,5334.6081,N,01219.5930,E,1,10,0.96,60.7,M,44.6,M,,*5C
$GPRMC,140349.000,A,5334.5916,N,01219.5632,E,87.19,45.99,060214,,,A*61
$GPGGA,140355.000,5334.6883,N,01219.7461,E,1,10,0.96,59.7,M,44.6,M,,*52
$GPRMC,140354.000,A,5334.6727,N,01219.7154,E,87.14,49.13,060214,,,A*64
$GPGGA,140400.000,5334.7618,N,01219.8957,E,1,10,1.07,58.7,M,44.6,M,,*57
$GPRMC,140359.000,A,5334.7475,N,01219.8659,E,81.23,50.64,060214,,,A*63
$GPGGA,140405.000,5334.8360,N,01220.0487,E,1,9,1.12,58.3,M,44.6,M,,*6D
$GPRMC,140404.000,A,5334.8208,N,01220.0175,E,86.26,50.69,060214,,,A*6B
$GPGGA,140410.000,5334.9114,N,01220.2069,E,1,10,0.96,59.3,M,44.6,M,,*5B
$GPRMC,140409.000,A,5334.8964,N,01220.1751,E,86.97,50.94,060214,,,A*6E
$GPGGA,140415.000,5334.9885,N,01220.3658,E,1,10,0.96,60.6,M,44.5,M,,*56
$GPRMC,140414.000,A,5334.9728,N,01220.3340,E,88.54,50.83,060214,,,A*64
$GPGGA,140420.000,5335.0659,N,01220.5253,E,1,9,1.12,61.9,M,44.5,M,,*65
$GPRMC,140419.000,A,5335.0504,N,01220.4934,E,88.64,50.69,060214,,,A*64
$GPGGA,140425.000,5335.1442,N,01220.6847,E,1,11,0.89,63.3,M,44.5,M,,*57
$GPRMC,140424.000,A,5335.1285,N,01220.6529,E,88.63,50.08,060214,,,A*67
$GPGGA,140430.000,5335.2223,N,01220.8388,E,1,9,1.28,64.1,M,44.5,M,,*61
$GPRMC,140429.000,A,5335.2068,N,01220.8084,E,86.17,49.07,060214,,,A*6E
$GPGGA,140435.000,5335.3012,N,01220.9897,E,1,10,0.96,65.4,M,44.5,M,,*59
$GPRMC,140434.000,A,5335.2851,N,01220.9591,E,87.04,48.34,060214,,,A*62
$GPGGA,140440.000,5335.3846,N,01221.1430,E,1,9,0.98,66.3,M,44.5,M,,*68
$GPRMC,140439.000,A,5335.3674,N,01221.1123,E,89.80,46.88,060214,,,A*68
$GPGGA,140445.000,5335.4743,N,01221.2948,E,1,9,0.98,67.2,M,44.5,M,,*61
$GPRMC,140444.000,A,5335.4559,N,01221.2647,E,92.18,44.57,060214,,,A*64
$GPGGA,140450.000,5335.5680,N,01221.4407,E,1,10,0.96,67.3,M,44.5,M,,*5D
$GPRMC,140449.000,A,5335.5489,N,01221.4124,E,91.47,42.02,060214,,,A*6F
$GPGGA,140455.000,5335.6668,N,01221.5776,E,1,10,0.96,66.0,M,44.5,M,,*5B
$GPRMC,140454.000,A,5335.6469,N,01221.5505,E,92.01,39.39,060214,,,A*6D
$GPGGA,140500.000,5335.7689,N,01221.7087,E,1,9,1.06,63.6,M,44.5,M,,*6C
$GPRMC,140459.000,A,5335.7480,N,01221.6832,E,92.55,37.01,060214,,,A*68
$GPGGA,140505.000,5335.8759,N,01221.8315,E,1,10,0.96,61.0,M,44.5,M,,*59
$GPRMC,140504.000,A,5335.8542,N,01221.8076,E,93.74,34.02,060214,,,A*65
$GPGGA,140510.000,5335.9856,N,01221.9454,E,1,10,0.96,58.5,M,44.5,M,,*50
$GPRMC,140509.000,A,5335.9634,N,01221.9233,E,93.21,31.46,060214,,,A*6C
$GPGGA,140515.000,5336.0973,N,01222.0505,E,1,11,0.89,56.1,M,44.5,M,,*53
$GPRMC,140514.000,A,5336.0748,N,01222.0304,E,91.95,28.48,060214,,,A*64
$GPGGA,140520.000,5336.2115,N,01222.1466,E,1,10,0.91,54.1,M,44.5,M,,*50
$GPRMC,140519.000,A,5336.1885,N,01222.1280,E,92.12,25.97,060214,,,A*69
$GPGGA,140525.000,5336.3291,N,01222.2349,E,1,11,0.89,52.3,M,44.5,M,,*5E
$GPRMC,140524.000,A,5336.3053,N,01222.2180,E,93.07,23.19,060214,,,A*63
$GPGGA,140530.000,5336.4495,N,01222.3137,E,1,10,0.92,51.1,M,44.5,M,,*5F
$GPRMC,140529.000,A,5336.4253,N,01222.2989,E,93.24,20.56,060214,,,A*63
$GPGGA,140535.000,5336.5714,N,01222.3824,E,1,10,1.07,49.7,M,44.5,M,,*58
$GPRMC,140534.000,A,5336.5469,N,01222.3693,E,92.56,17.86,060214,,,A*69
$GPGGA,140540.000,5336.6938,N,01222.4430,E,1,10,1.07,48.9,M,44.5,M,,*58
$GPRMC,140539.000,A,5336.6694,N,01222.4318,E,91.39,15.52,060214,,,A*67
$GPGGA,140545.000,5336.8156,N,01222.4917,E,1,11,0.89,49.4,M,44.5,M,,*51
$GPRMC,140544.000,A,5336.7913,N,01222.4831,E,89.66,12.24,060214,,,A*69
$GPGGA,140550.000,5336.9357,N,01222.5262,E,1,10,0.91,51.9,M,44.5,M,,*53
$GPRMC,140549.000,A,5336.9120,N,01222.5205,E,87.10,8.51,060214,,,A*58
$GPGGA,140555.000,5337.0532,N,01222.5522,E,1,11,0.88,55.3,M,44.5,M,,*5F
$GPRMC,140554.000,A,5337.0298,N,01222.5477,E,84.97,7.15,060214,,,A*5C
$GPGGA,140600.000,5337.1699,N,01222.5715,E,1,11,0.89,56.4,M,44.5,M,,*5C
$GPRMC,140559.000,A,5337.1466,N,01222.5680,E,84.67,5.63,060214,,,A*51
$GPGGA,140605.000,5337.2861,N,01222.5829,E,1,11,0.89,56.6,M,44.5,M,,*51
$GPRMC,140604.000,A,5337.2628,N,01222.5816,E,83.92,2.41,060214,,,A*5A
$GPGGA,140610.000,5337.4048,N,01222.5817,E,1,11,0.89,55.4,M,44.5,M,,*5C
$GPRMC,140609.000,A,5337.3807,N,01222.5833,E,86.66,358.42,060214,,,A*53
$GPGGA,140615.000,5337.5258,N,01222.5726,E,1,11,0.89,53.2,M,44.5,M,,*56
$GPRMC,140614.000,A,5337.5014,N,01222.5748,E,88.03,357.39,060214,,,A*5E
$GPGGA,140620.000,5337.6478,N,01222.5551,E,1,11,0.89,50.6,M,44.5,M,,*52
$GPRMC,140619.000,A,5337.6236,N,01222.5593,E,87.87,354.56,060214,,,A*5F
$GPGGA,140625.000,5337.7676,N,01222.5291,E,1,9,1.06,48.2,M,44.5,M,,*63
$GPRMC,140624.000,A,5337.7439,N,01222.5349,E,86.71,352.06,060214,,,A*53
$GPGGA,140630.000,5337.8842,N,01222.4970,E,1,10,0.91,46.9,M,44.4,M,,*57
$GPRMC,140629.000,A,5337.8609,N,01222.5039,E,84.78,350.36,060214,,,A*5E
$GPGGA,140635.000,5338.0004,N,01222.4583,E,1,10,0.91,46.7,M,44.4,M,,*51
$GPRMC,140634.000,A,5337.9772,N,01222.4665,E,85.42,348.53,060214,,,A*52
$GPGGA,140640.000,5338.1141,N,01222.4161,E,1,11,0.89,47.6,M,44.4,M,,*52
$GPRMC,140639.000,A,5338.0916,N,01222.4247,E,83.70,347.39,060214,,,A*55
$GPGGA,140645.000,5338.2275,N,01222.3703,E,1,10,0.91,49.7,M,44.4,M,,*52
$GPRMC,140644.000,A,5338.2050,N,01222.3796,E,84.18,346.23,060214,,,A*5B
$GPGGA,140650.000,5338.3401,N,01222.3219,E,1,11,0.89,51.3,M,44.4,M,,*59
$GPRMC,140649.000,A,5338.3176,N,01222.3318,E,84.07,345.49,060214,,,A*51
$GPGGA,140655.000,5338.4520,N,01222.2719,E,1,10,0.91,52.2,M,44.4,M,,*57
$GPRMC,140654.000,A,5338.4295,N,01222.2821,E,83.65,344.91,060214,,,A*53
$GPGGA,140700.000,5338.5657,N,01222.2221,E,1,11,0.89,52.3,M,44.4,M,,*53
$GPRMC,140659.000,A,5338.5427,N,01222.2318,E,85.51,345.70,060214,,,A*5E
$GPGGA,140705.000,5338.6798,N,01222.1726,E,1,11,0.89,51.5,M,44.4,M,,*53
$GPRMC,140704.000,A,5338.6573,N,01222.1826,E,84.40,345.43,060214,,,A*50
$GPGGA,140710.000,5338.7917,N,01222.1221,E,1,10,1.00,50.9,M,44.4,M,,*51
$GPRMC,140709.000,A,5338.7692,N,01222.1321,E,83.59,345.14,060214,,,A*51
$GPGGA,140715.000,5338.9043,N,01222.0710,E,1,10,1.00,49.6,M,44.4,M,,*53
$GPRMC,140714.000,A,5338.8820,N,01222.0812,E,83.73,344.83,060214,,,A*58
$GPGGA,140720.000,5339.0145,N,01222.0208,E,1,10,0.96,48.8,M,44.4,M,,*57
$GPRMC,140719.000,A,5338.9925,N,01222.0308,E,82.34,344.90,060214,,,A*50
$GPGGA,140725.000,5339.1258,N,01221.9701,E,1,11,0.88,47.9,M,44.4,M,,*5A
$GPRMC,140724.000,A,5339.1035,N,01221.9802,E,82.89,345.08,060214,,,A*52
$GPGGA,140730.000,5339.2376,N,01221.9196,E,1,11,0.89,48.0,M,44.4,M,,*5F
$GPRMC,140729.000,A,5339.2154,N,01221.9295,E,83.10,344.97,060214,,,A*58
$GPGGA,140735.000,5339.3477,N,01221.8766,E,1,11,0.89,48.0,M,44.4,M,,*55
$GPRMC,140734.000,A,5339.3260,N,01221.8842,E,80.13,347.79,060214,,,A*53
$GPGGA,140740.000,5339.4574,N,01221.8397,E,1,11,0.89,48.3,M,44.4,M,,*5B
$GPRMC,140739.000,A,5339.4353,N,01221.8469,E,80.93,348.75,060214,,,A*56
$GPGGA,140745.000,5339.5700,N,01221.8116,E,1,11,0.89,48.5,M,44.4,M,,*53
$GPRMC,140744.000,A,5339.5472,N,01221.8164,E,82.30,352.61,060214,,,A*54
$GPGGA,140750.000,5339.6826,N,01221.7949,E,1,10,0.91,48.1,M,44.4,M,,*5E
$GPRMC,140749.000,A,5339.6599,N,01221.7976,E,81.63,355.49,060214,,,A*52
$GPGGA,140755.000,5339.7973,N,01221.7876,E,1,10,0.91,47.0,M,44.4,M,,*58
$GPRMC,140754.000,A,5339.7741,N,01221.7882,E,83.17,358.27,060214,,,A*56
$GPGGA,140800.000,5339.9116,N,01221.7914,E,1,11,0.89,45.8,M,44.4,M,,*55
$GPRMC,140759.000,A,5339.8889,N,01221.7898,E,81.79,1.82,060214,,,A*5E
$GPGGA,140805.000,5340.0252,N,01221.8020,E,1,10,0.91,44.5,M,44.4,M,,*51
$GPRMC,140804.000,A,5340.0026,N,01221.7992,E,81.61,3.47,060214,,,A*5B
$GPGGA,140810.000,5340.1415,N,01221.8207,E,1,11,0.89,43.8,M,44.4,M,,*54
$GPRMC,140809.000,A,5340.1176,N,01221.8166,E,85.89,5.56,060214,,,A*5B
$GPGGA,140815.000,5340.2619,N,01221.8486,E,1,10,0.91,42.4,M,44.4,M,,*56
$GPRMC,140814.000,A,5340.2377,N,01221.8417,E,87.88,8.91,060214,,,A*51
$GPGGA,140820.000,5340.3806,N,01221.8889,E,1,11,0.89,41.1,M,44.4,M,,*5C
$GPRMC,140819.000,A,5340.3574,N,01221.8802,E,85.82,11.96,060214,,,A*67
$GPGGA,140825.000,5340.4940,N,01221.9379,E,1,11,0.89,40.0,M,44.4,M,,*58
$GPRMC,140824.000,A,5340.4715,N,01221.9275,E,84.42,14.75,060214,,,A*65
$GPGGA,140830.000,5340.6053,N,01221.9951,E,1,11,0.89,38.7,M,44.4,M,,*5D
$GPRMC,140829.000,A,5340.5831,N,01221.9828,E,84.40,17.59,060214,,,A*6D
$GPGGA,140835.000,5340.7166,N,01222.0614,E,1,11,0.89,37.3,M,44.4,M,,*51
$GPRMC,140834.000,A,5340.6945,N,01222.0476,E,84.88,20.07,060214,,,A*66
$GPGGA,140840.000,5340.8273,N,01222.1295,E,1,11,0.89,35.9,M,44.4,M,,*5F
$GPRMC,140839.000,A,5340.8051,N,01222.1162,E,84.95,19.71,060214,,,A*6F
$GPGGA,140845.000,5340.9394,N,01222.1892,E,1,11,0.89,34.6,M,44.4,M,,*50
$GPRMC,140844.000,A,5340.9168,N,01222.1785,E,84.78,16.43,060214,,,A*6D
$GPGGA,140850.000,5341.0526,N,01222.2266,E,1,11,0.89,34.1,M,44.4,M,,*56
$GPRMC,140849.000,A,5341.0300,N,01222.2213,E,82.62,8.84,060214,,,A*54
$GPGGA,140855.000,5341.1672,N,01222.2388,E,1,10,0.91,33.0,M,44.4,M,,*5F
$GPRMC,140854.000,A,5341.1439,N,01222.2380,E,83.15,2.25,060214,,,A*5F
$GPGGA,140900.000,5341.2841,N,01222.2272,E,1,11,0.89,32.2,M,44.4,M,,*5C
$GPRMC,140859.000,A,5341.2608,N,01222.2314,E,84.82,355.15,060214,,,A*57
$GPGGA,140905.000,5341.3990,N,01222.1929,E,1,11,0.89,31.7,M,44.4,M,,*55
$GPRMC,140904.000,A,5341.3762,N,01222.2017,E,84.04,348.24,060214,,,A*52
$GPGGA,140910.000,5341.5107,N,01222.1355,E,1,10,0.96,30.6,M,44.4,M,,*5F
$GPRMC,140909.000,A,5341.4886,N,01222.1488,E,84.49,341.36,060214,,,A*5F
$GPGGA,140915.000,5341.6187,N,01222.0519,E,1,10,1.07,29.3,M,44.4,M,,*5A
$GPRMC,140914.000,A,5341.5973,N,01222.0707,E,85.67,333.55,060214,,,A*51
$GPGGA,140920.000,5341.7218,N,01221.9559,E,1,10,1.07,30.4,M,44.4,M,,*59
$GPRMC,140919.000,A,5341.7016,N,01221.9751,E,83.87,330.93,060214,,,A*5C
$GPGGA,140925.000,5341.8235,N,01221.8599,E,1,11,0.89,32.0,M,44.4,M,,*51
$GPRMC,140924.000,A,5341.8032,N,01221.8789,E,83.69,331.94,060214,,,A*59
$GPGGA,140930.000,5341.9244,N,01221.7715,E,1,11,0.89,33.2,M,44.4,M,,*58
$GPRMC,140929.000,A,5341.9041,N,01221.7883,E,81.90,333.73,060214,,,A*54
$GPGGA,140935.000,5342.0283,N,01221.6923,E,1,11,0.89,34.7,M,44.4,M,,*54
$GPRMC,140934.000,A,5342.0072,N,01221.7070,E,82.34,336.78,060214,,,A*55
$GPGGA,140940.000,5342.1350,N,01221.6245,E,1,11,0.89,36.4,M,44.4,M,,*52
$GPRMC,140939.000,A,5342.1137,N,01221.6373,E,81.63,339.87,060214,,,A*56
$GPGGA,140945.000,5342.2430,N,01221.5654,E,1,11,0.89,36.8,M,44.4,M,,*5E
$GPRMC,140944.000,A,5342.2211,N,01221.5765,E,82.05,342.81,060214,,,A*51
$GPGGA,140950.000,5342.3535,N,01221.5153,E,1,11,0.88,36.7,M,44.4,M,,*51
$GPRMC,140949.000,A,5342.3313,N,01221.5243,E,82.16,345.78,060214,,,A*5C
$GPGGA,140955.000,5342.4633,N,01221.4764,E,1,11,0.88,35.8,M,44.4,M,,*59
$GPRMC,140954.000,A,5342.4414,N,01221.4834,E,80.33,348.63,060214,,,A*5E
$GPGGA,141000.000,5342.5738,N,01221.4455,E,1,11,0.88,34.9,M,44.4,M,,*5B
$GPRMC,140959.000,A,5342.5517,N,01221.4511,E,80.65,350.76,060214,,,A*54
$GPGGA,141005.000,5342.6834,N,01221.4242,E,1,11,0.88,34.0,M,44.4,M,,*57
$GPRMC,141004.000,A,5342.6616,N,01221.4274,E,79.28,354.30,060214,,,A*58
$GPGGA,141010.000,5342.7955,N,01221.4167,E,1,11,0.88,33.3,M,44.4,M,,*54
$GPRMC,141009.000,A,5342.7727,N,01221.4172,E,81.65,358.43,060214,,,A*54
$GPGGA,141015.000,5342.9093,N,01221.4189,E,1,11,0.88,33.0,M,44.4,M,,*5F
$GPRMC,141014.000,A,5342.8866,N,01221.4178,E,81.89,1.16,060214,,,A*5A
$GPGGA,141020.000,5343.0224,N,01221.4282,E,1,11,0.88,32.7,M,44.4,M,,*51
$GPRMC,141019.000,A,5343.0000,N,01221.4260,E,81.42,2.94,060214,,,A*52
$GPGGA,141025.000,5343.1324,N,01221.4371,E,1,11,0.88,31.4,M,44.4,M,,*59
$GPRMC,141024.000,A,5343.1107,N,01221.4356,E,78.55,2.40,060214,,,A*56
$GPGGA,141030.000,5343.2404,N,01221.4377,E,1,11,0.88,30.9,M,44.4,M,,*51
$GPRMC,141029.000,A,5343.2189,N,01221.4389,E,77.77,358.64,060214,,,A*59
$GPGGA,141035.000,5343.3490,N,01221.4190,E,1,11,0.88,30.0,M,44.4,M,,*5A
$GPRMC,141034.000,A,5343.3270,N,01221.4248,E,79.71,352.43,060214,,,A*5A
$GPGGA,141040.000,5343.4573,N,01221.3752,E,1,10,0.96,29.5,M,44.4,M,,*5F
$GPRMC,141039.000,A,5343.4359,N,01221.3857,E,80.32,344.86,060214,,,A*56
$GPGGA,141045.000,5343.5624,N,01221.3087,E,1,8,1.34,28.3,M,44.4,M,,*62
$GPRMC,141044.000,A,5343.5418,N,01221.3241,E,80.73,337.22,060214,,,A*5D
$GPGGA,141050.000,5343.6613,N,01221.2177,E,1,11,0.88,28.0,M,44.4,M,,*53
$GPRMC,141049.000,A,5343.6419,N,01221.2379,E,81.98,329.95,060214,,,A*5E
$GPGGA,141055.000,5343.7556,N,01221.1056,E,1,10,1.07,28.0,M,44.4,M,,*53
$GPRMC,141054.000,A,5343.7371,N,01221.1294,E,82.85,324.11,060214,,,A*55
$GPGGA,141100.000,5343.8465,N,01220.9867,E,1,9,1.06,27.4,M,44.4,M,,*6D
$GPRMC,141059.000,A,5343.8281,N,01221.0102,E,82.79,322.67,060214,,,A*50
$GPGGA,141105.000,5343.9374,N,01220.8681,E,1,9,1.12,26.7,M,44.4,M,,*6E
$GPRMC,141104.000,A,5343.9193,N,01220.8925,E,83.33,321.63,060214,,,A*54
$GPGGA,141110.000,5344.0288,N,01220.7479,E,1,10,1.00,27.0,M,44.4,M,,*51
$GPRMC,141109.000,A,5344.0104,N,01220.7716,E,83.32,322.67,060214,,,A*5E
$GPGGA,141115.000,5344.1223,N,01220.6270,E,1,10,1.00,28.3,M,44.4,M,,*56
$GPRMC,141114.000,A,5344.1034,N,01220.6515,E,85.23,322.53,060214,,,A*50
$GPGGA,141120.000,5344.2196,N,01220.5034,E,1,9,1.31,29.5,M,44.4,M,,*62
$GPRMC,141119.000,A,5344.1998,N,01220.5282,E,88.31,323.31,060214,,,A*53
$GPGGA,141125.000,5344.3193,N,01220.3836,E,1,8,1.51,31.7,M,44.4,M,,*63
$GPRMC,141124.000,A,5344.2994,N,01220.4068,E,87.60,324.96,060214,,,A*54
$GPGGA,141130.000,5344.4173,N,01220.2749,E,1,9,1.34,35.2,M,44.4,M,,*6B
$GPRMC,141129.000,A,5344.3974,N,01220.2959,E,84.52,327.17,060214,,,A*53
$GPGGA,141135.000,5344.5197,N,01220.1706,E,1,9,1.34,39.5,M,44.4,M,,*66
$GPRMC,141134.000,A,5344.4987,N,01220.1909,E,86.62,329.60,060214,,,A*5D
$GPGGA,141140.000,5344.6248,N,01220.0747,E,1,9,1.31,42.6,M,44.4,M,,*68
$GPRMC,141139.000,A,5344.6038,N,01220.0929,E,85.47,332.38,060214,,,A*5F
$GPGGA,141145.000,5344.7285,N,01219.9898,E,1,8,1.17,45.3,M,44.4,M,,*64
$GPRMC,141144.000,A,5344.7082,N,01220.0057,E,81.26,334.66,060214,,,A*5B
$GPGGA,141150.000,5344.8291,N,01219.9163,E,1,8,1.17,46.0,M,44.4,M,,*67
$GPRMC,141149.000,A,5344.8084,N,01219.9307,E,80.15,337.12,060214,,,A*5B
$GPGGA,141155.000,5344.9350,N,01219.8472,E,1,8,1.35,46.7,M,44.4,M,,*6C
$GPRMC,141154.000,A,5344.9137,N,01219.8600,E,82.01,339.73,060214,,,A*52
$GPGGA,141200.000,5345.0385,N,01219.7913,E,1,8,1.17,44.9,M,44.3,M,,*61
$GPRMC,141159.000,A,5345.0183,N,01219.8018,E,76.95,342.90,060214,,,A*50
$GPGGA,141206.000,5345.1581,N,01219.7330,E,1,8,1.50,42.9,M,44.3,M,,*6A
$GPRMC,141205.000,A,5345.1380,N,01219.7426,E,74.93,344.11,060214,,,A*57
$GPGGA,141211.000,5345.2626,N,01219.6868,E,1,9,1.22,41.7,M,44.3,M,,*6F
$GPRMC,141210.000,A,5345.2409,N,01219.6960,E,78.94,345.38,060214,,,A*59
$GPGGA,141216.000,5345.3769,N,01219.6453,E,1,10,0.98,39.1,M,44.3,M,,*56
$GPRMC,141215.000,A,5345.3534,N,01219.6530,E,85.14,348.58,060214,,,A*5A
$GPGGA,141221.000,5345.4958,N,01219.6086,E,1,10,0.98,37.1,M,44.3,M,,*5B
$GPRMC,141220.000,A,5345.4721,N,01219.6157,E,87.17,349.80,060214,,,A*5D
$GPGGA,141226.000,5345.6129,N,01219.5750,E,1,11,0.88,34.6,M,44.3,M,,*5B
$GPRMC,141225.000,A,5345.5891,N,01219.5816,E,86.24,350.51,060214,,,A*57
$GPGGA,141231.000,5345.7356,N,01219.5416,E,1,11,0.88,31.0,M,44.3,M,,*54
$GPRMC,141230.000,A,5345.7108,N,01219.5484,E,90.66,350.55,060214,,,A*5A
$GPGGA,141236.000,5345.8591,N,01219.5049,E,1,11,0.88,27.4,M,44.3,M,,*5C
$GPRMC,141235.000,A,5345.8342,N,01219.5125,E,90.48,349.82,060214,,,A*5C
$GPGGA,141241.000,5345.9836,N,01219.4658,E,1,11,0.88,24.3,M,44.3,M,,*5E
$GPRMC,141240.000,A,5345.9587,N,01219.4737,E,91.06,349.43,060214,,,A*52
$GPGGA,141246.000,5346.1079,N,01219.4200,E,1,10,0.96,21.9,M,44.3,M,,*59
$GPRMC,141245.000,A,5346.0831,N,01219.4301,E,91.96,346.78,060214,,,A*52
$GPGGA,141251.000,5346.2323,N,01219.3634,E,1,10,1.06,19.4,M,44.3,M,,*5A
$GPRMC,141250.000,A,5346.2073,N,01219.3755,E,93.54,344.33,060214,,,A*59
$GPGGA,141256.000,5346.3550,N,01219.2981,E,1,10,1.00,17.7,M,44.3,M,,*55
$GPRMC,141255.000,A,5346.3310,N,01219.3118,E,91.99,341.88,060214,,,A*52
$GPGGA,141301.000,5346.4741,N,01219.2273,E,1,10,1.06,14.9,M,44.3,M,,*5E
$GPRMC,141300.000,A,5346.4506,N,01219.2422,E,90.56,339.67,060214,,,A*54
$GPGGA,141306.000,5346.5894,N,01219.1491,E,1,11,0.88,13.1,M,44.3,M,,*5F
$GPRMC,141305.000,A,5346.5667,N,01219.1653,E,89.81,337.54,060214,,,A*5F
$GPGGA,141311.000,5346.7023,N,01219.0633,E,1,10,1.00,12.2,M,44.3,M,,*56
$GPRMC,141310.000,A,5346.6796,N,01219.0810,E,89.66,335.46,060214,,,A*57
$GPGGA,141316.000,5346.8130,N,01218.9709,E,1,10,1.06,11.4,M,44.3,M,,*5E
$GPRMC,141315.000,A,5346.7912,N,01218.9899,E,88.65,332.99,060214,,,A*5F
$GPGGA,141321.000,5346.9190,N,01218.8734,E,1,10,1.06,11.2,M,44.3,M,,*58
$GPRMC,141320.000,A,5346.8979,N,01218.8935,E,87.55,330.87,060214,,,A*5C
$GPGGA,141326.000,5347.0223,N,01218.7709,E,1,11,0.88,11.7,M,44.3,M,,*5E
$GPRMC,141325.000,A,5347.0017,N,01218.7918,E,86.52,329.22,060214,,,A*50
$GPGGA,141331.000,5347.1246,N,01218.6637,E,1,11,0.88,13.4,M,44.3,M,,*56
$GPRMC,141330.000,A,5347.1042,N,01218.6854,E,86.67,328.25,060214,,,A*5D
$GPGGA,141336.000,5347.2270,N,01218.5508,E,1,10,1.06,15.0,M,44.3,M,,*5F
$GPRMC,141335.000,A,5347.2064,N,01218.5733,E,88.35,327.01,060214,,,A*52
$GPGGA,141341.000,5347.3310,N,01218.4398,E,1,10,1.06,17.6,M,44.3,M,,*53
$GPRMC,141340.000,A,5347.3104,N,01218.4619,E,88.32,327.79,060214,,,A*56
$GPGGA,141346.000,5347.4346,N,01218.3335,E,1,11,0.88,18.2,M,44.3,M,,*5D
$GPRMC,141345.000,A,5347.4135,N,01218.3543,E,87.85,329.71,060214,,,A*58
$GPGGA,141351.000,5347.5438,N,01218.2358,E,1,11,0.88,17.1,M,44.3,M,,*52
$GPRMC,141350.000,A,5347.5215,N,01218.2546,E,90.19,332.95,060214,,,A*5B
$GPGGA,141356.000,5347.6593,N,01218.1472,E,1,11,0.88,15.3,M,44.3,M,,*5A
$GPRMC,141355.000,A,5347.6358,N,01218.1642,E,92.22,336.18,060214,,,A*5A
$GPGGA,141401.000,5347.7783,N,01218.0702,E,1,11,0.88,13.0,M,44.3,M,,*5D
$GPRMC,141400.000,A,5347.7544,N,01218.0844,E,91.33,340.07,060214,,,A*52
$GPGGA,141406.000,5347.8979,N,01218.0061,E,1,10,1.00,12.0,M,44.3,M,,*5D
$GPRMC,141405.000,A,5347.8739,N,01218.0179,E,90.32,343.34,060214,,,A*54
$GPGGA,141411.000,5348.0185,N,01217.9551,E,1,10,0.90,10.9,M,44.3,M,,*54
$GPRMC,141410.000,A,5347.9943,N,01217.9644,E,89.28,346.36,060214,,,A*59
$GPGGA,141416.000,5348.1411,N,01217.9164,E,1,11,0.88,9.6,M,44.3,M,,*67
$GPRMC,141415.000,A,5348.1165,N,01217.9229,E,89.47,350.52,060214,,,A*54
$GPGGA,141421.000,5348.2625,N,01217.8902,E,1,11,0.88,8.6,M,44.3,M,,*6D
$GPRMC,141420.000,A,5348.2383,N,01217.8949,E,87.50,353.37,060214,,,A*5F
$GPGGA,141426.000,5348.3828,N,01217.8743,E,1,11,0.88,7.5,M,44.3,M,,*6F
$GPRMC,141425.000,A,5348.3588,N,01217.8766,E,86.58,356.19,060214,,,A*55
$GPGGA,141431.000,5348.5020,N,01217.8695,E,1,10,0.98,8.5,M,44.3,M,,*6A
$GPRMC,141430.000,A,5348.4785,N,01217.8697,E,85.11,359.01,060214,,,A*5E
$GPGGA,141436.000,5348.6173,N,01217.8774,E,1,11,0.88,9.1,M,44.3,M,,*62
$GPRMC,141435.000,A,5348.5944,N,01217.8752,E,83.31,2.71,060214,,,A*5F
$GPGGA,141441.000,5348.7313,N,01217.8942,E,1,11,0.88,9.0,M,44.3,M,,*6D
$GPRMC,141440.000,A,5348.7085,N,01217.8900,E,82.35,5.29,060214,,,A*5D
$GPGGA,141446.000,5348.8447,N,01217.9220,E,1,11,0.88,10.2,M,44.3,M,,*57
$GPRMC,141445.000,A,5348.8221,N,01217.9159,E,82.04,8.48,060214,,,A*56
$GPGGA,141451.000,5348.9569,N,01217.9517,E,1,11,0.88,11.8,M,44.3,M,,*55
$GPRMC,141450.000,A,5348.9346,N,01217.9459,E,80.97,8.48,060214,,,A*5E
$GPGGA,141456.000,5349.0683,N,01217.9798,E,1,10,0.90,14.5,M,44.3,M,,*58
$GPRMC,141455.000,A,5349.0461,N,01217.9744,E,80.79,7.89,060214,,,A*5C
$GPGGA,141501.000,5349.1764,N,01218.0040,E,1,11,0.88,20.1,M,44.3,M,,*5D
$GPRMC,141500.000,A,5349.1548,N,01217.9997,E,78.28,7.03,060214,,,A*57
$GPGGA,141506.000,5349.2847,N,01218.0215,E,1,10,0.90,24.4,M,44.3,M,,*5C
$GPRMC,141505.000,A,5349.2628,N,01218.0187,E,79.09,4.72,060214,,,A*5C
$GPGGA,141511.000,5349.3943,N,01218.0308,E,1,11,0.88,27.1,M,44.3,M,,*5D
$GPRMC,141510.000,A,5349.3724,N,01218.0297,E,79.11,2.29,060214,,,A*57
$GPGGA,141517.000,5349.5227,N,01218.0295,E,1,10,0.90,29.5,M,44.3,M,,*53
$GPRMC,141516.000,A,5349.5015,N,01218.0307,E,76.63,358.66,060214,,,A*57
$GPGGA,141523.000,5349.6513,N,01218.0081,E,1,10,0.97,31.7,M,44.3,M,,*5C
$GPRMC,141522.000,A,5349.6297,N,01218.0134,E,79.14,352.84,060214,,,A*50
$GPGGA,141528.000,5349.7601,N,01217.9739,E,1,11,0.88,33.5,M,44.3,M,,*5B
$GPRMC,141527.000,A,5349.7383,N,01217.9818,E,80.58,348.81,060214,,,A*51
$GPGGA,141533.000,5349.8704,N,01217.9208,E,1,11,0.88,33.1,M,44.3,M,,*59
$GPRMC,141532.000,A,5349.8482,N,01217.9333,E,83.64,342.23,060214,,,A*50
$GPGGA,141538.000,5349.9801,N,01217.8511,E,1,11,0.88,31.0,M,44.3,M,,*54
$GPRMC,141537.000,A,5349.9582,N,01217.8663,E,84.59,338.47,060214,,,A*52
$GPGGA,141543.000,5350.0878,N,01217.7654,E,1,11,0.88,27.1,M,44.3,M,,*5C
$GPRMC,141542.000,A,5350.0665,N,01217.7843,E,86.53,333.68,060214,,,A*56
$GPGGA,141548.000,5350.1914,N,01217.6625,E,1,11,0.88,21.6,M,44.3,M,,*5B
$GPRMC,141547.000,A,5350.1714,N,01217.6840,E,85.42,328.49,060214,,,A*5D
$GPGGA,141553.000,5350.2882,N,01217.5464,E,1,11,0.88,17.8,M,44.3,M,,*53
$GPRMC,141552.000,A,5350.2693,N,01217.5707,E,84.97,323.86,060214,,,A*5A
$GPGGA,141558.000,5350.3823,N,01217.4151,E,1,11,0.88,12.9,M,44.3,M,,*54
$GPRMC,141557.000,A,5350.3635,N,01217.4429,E,89.33,319.71,060214,,,A*5E
$GPGGA,141603.000,5350.4737,N,01217.2711,E,1,11,0.88,8.7,M,44.3,M,,*65
$GPRMC,141602.000,A,5350.4557,N,01217.3005,E,90.03,316.70,060214,,,A*55
$GPGGA,141608.000,5350.5621,N,01217.1185,E,1,10,1.01,4.7,M,44.3,M,,*6C
$GPRMC,141607.000,A,5350.5448,N,01217.1495,E,91.06,314.02,060214,,,A*52
$GPGGA,141613.000,5350.6415,N,01216.9670,E,1,11,0.88,-1.0,M,44.3,M,,*4A
$GPRMC,141612.000,A,5350.6268,N,01216.9966,E,78.12,307.51,060214,,,A*5F
$GPGGA,141618.000,5350.7187,N,01216.8219,E,1,11,0.88,-1.4,M,44.3,M,,*40
$GPRMC,141617.000,A,5350.7038,N,01216.8502,E,80.43,311.66,060214,,,A*53
$GPGGA,141623.000,5350.7933,N,01216.6778,E,1,11,0.88,-0.4,M,44.3,M,,*42
$GPRMC,141622.000,A,5350.7782,N,01216.7067,E,81.10,311.38,060214,,,A*56
$GPGGA,141628.000,5350.8703,N,01216.5334,E,1,9,1.16,-0.2,M,44.3,M,,*7D
$GPRMC,141627.000,A,5350.8547,N,01216.5618,E,82.27,312.27,060214,,,A*51
$GPGGA,141633.000,5350.9515,N,01216.3927,E,1,11,0.88,-0.9,M,44.3,M,,*49
$GPRMC,141632.000,A,5350.9348,N,01216.4207,E,84.24,314.99,060214,,,A*50
$GPGGA,141638.000,5351.0363,N,01216.2573,E,1,11,0.88,-1.3,M,44.3,M,,*4A
$GPRMC,141637.000,A,5351.0192,N,01216.2833,E,83.43,317.32,060214,,,A*57
$GPGGA,141643.000,5351.1236,N,01216.1352,E,1,10,1.00,-1.9,M,44.3,M,,*4A
$GPRMC,141642.000,A,5351.1058,N,01216.1585,E,81.90,321.44,060214,,,A*58
$GPGGA,141648.000,5351.2128,N,01216.0260,E,1,11,0.88,-0.8,M,44.3,M,,*4F
$GPRMC,141647.000,A,5351.1948,N,01216.0468,E,78.43,324.92,060214,,,A*50
$GPGGA,141653.000,5351.3044,N,01215.9297,E,1,11,0.88,0.3,M,44.3,M,,*6B
$GPRMC,141652.000,A,5351.2858,N,01215.9483,E,77.99,328.93,060214,,,A*5D
$GPGGA,141658.000,5351.4003,N,01215.8443,E,1,11,0.88,0.5,M,44.3,M,,*6C
$GPRMC,141657.000,A,5351.3807,N,01215.8605,E,79.02,333.12,060214,,,A*51
$GPGGA,141703.000,5351.5019,N,01215.7692,E,1,11,0.88,1.2,M,44.3,M,,*6E
$GPRMC,141702.000,A,5351.4809,N,01215.7834,E,80.59,337.15,060214,,,A*51
$GPGGA,141708.000,5351.6104,N,01215.7021,E,1,11,0.88,2.2,M,44.3,M,,*66
$GPRMC,141707.000,A,5351.5881,N,01215.7146,E,84.07,340.79,060214,,,A*5C
$GPGGA,141713.000,5351.7230,N,01215.6483,E,1,11,0.88,3.2,M,44.3,M,,*65
$GPRMC,141712.000,A,5351.7004,N,01215.6580,E,84.02,345.12,060214,,,A*5D
$GPGGA,141718.000,5351.8328,N,01215.6095,E,1,11,0.88,4.9,M,44.3,M,,*66
$GPRMC,141717.000,A,5351.8110,N,01215.6162,E,79.89,349.11,060214,,,A*55
$GPGGA,141723.000,5351.9405,N,01215.5801,E,1,11,0.88,7.2,M,44.3,M,,*69
$GPRMC,141722.000,A,5351.9187,N,01215.5856,E,78.82,350.98,060214,,,A*52
$GPGGA,141728.000,5352.0521,N,01215.5595,E,1,11,0.88,9.5,M,44.3,M,,*66
$GPRMC,141727.000,A,5352.0299,N,01215.5627,E,81.03,354.70,060214,,,A*54
$GPGGA,141734.000,5352.1722,N,01215.5463,E,1,11,0.87,13.0,M,44.3,M,,*52
$GPRMC,141733.000,A,5352.1527,N,01215.5478,E,70.50,356.77,060214,,,A*57
$GPGGA,141740.000,5352.2932,N,01215.5418,E,1,11,0.88,17.1,M,44.3,M,,*5B
$GPRMC,141739.000,A,5352.2725,N,01215.5421,E,74.98,359.05,060214,,,A*58
$GPGGA,141746.000,5352.4204,N,01215.5418,E,1,11,0.88,19.5,M,44.3,M,,*5F
$GPRMC,141745.000,A,5352.3989,N,01215.5418,E,77.47,359.85,060214,,,A*59
$GPGGA,141752.000,5352.5494,N,01215.5446,E,1,11,0.88,19.6,M,44.3,M,,*5C
$GPRMC,141751.000,A,5352.5274,N,01215.5440,E,78.78,0.94,060214,,,A*52
$GPGGA,141757.000,5352.6615,N,01215.5473,E,1,11,0.88,18.8,M,44.3,M,,*58
$GPRMC,141756.000,A,5352.6387,N,01215.5467,E,81.77,0.59,060214,,,A*56
$GPGGA,141802.000,5352.7800,N,01215.5487,E,1,11,0.88,17.9,M,44.3,M,,*59
$GPRMC,141801.000,A,5352.7557,N,01215.5485,E,87.11,0.13,060214,,,A*55
$GPGGA,141807.000,5352.9050,N,01215.5466,E,1,11,0.88,17.0,M,44.3,M,,*59
$GPRMC,141806.000,A,5352.8796,N,01215.5477,E,90.82,358.95,060214,,,A*53
$GPGGA,141812.000,5353.0325,N,01215.5359,E,1,11,0.88,14.7,M,44.3,M,,*5B
$GPRMC,141811.000,A,5353.0072,N,01215.5387,E,91.38,356.49,060214,,,A*56
$GPGGA,141817.000,5353.1569,N,01215.5156,E,1,11,0.87,14.6,M,44.3,M,,*52
$GPRMC,141816.000,A,5353.1321,N,01215.5206,E,89.49,353.76,060214,,,A*5B
$GPGGA,141822.000,5353.2808,N,01215.4820,E,1,11,0.88,15.2,M,44.3,M,,*5E
$GPRMC,141821.000,A,5353.2559,N,01215.4894,E,90.43,350.19,060214,,,A*5D
$GPGGA,141827.000,5353.4043,N,01215.4369,E,1,10,1.05,16.4,M,44.3,M,,*5C
$GPRMC,141826.000,A,5353.3797,N,01215.4470,E,90.85,346.87,060214,,,A*57
$GPGGA,141832.000,5353.5256,N,01215.3793,E,1,11,0.87,17.3,M,44.3,M,,*55
$GPRMC,141831.000,A,5353.5015,N,01215.3917,E,90.65,343.69,060214,,,A*5A
$GPGGA,141837.000,5353.6434,N,01215.3106,E,1,10,0.96,18.7,M,44.3,M,,*51
$GPRMC,141836.000,A,5353.6202,N,01215.3252,E,89.13,340.06,060214,,,A*53
$GPGGA,141842.000,5353.7579,N,01215.2321,E,1,10,0.96,19.9,M,44.3,M,,*53
$GPRMC,141841.000,A,5353.7352,N,01215.2487,E,88.99,337.25,060214,,,A*5B
$GPGGA,141847.000,5353.8698,N,01215.1442,E,1,9,1.30,19.9,M,44.3,M,,*61
$GPRMC,141846.000,A,5353.8476,N,01215.1623,E,89.21,334.53,060214,,,A*5D
$GPGGA,141852.000,5353.9798,N,01215.0491,E,1,10,1.05,19.6,M,44.3,M,,*5B
$GPRMC,141851.000,A,5353.9582,N,01215.0686,E,88.75,332.74,060214,,,A*5D
$GPGGA,141857.000,5354.0871,N,01214.9532,E,1,10,1.05,20.2,M,44.3,M,,*56
$GPRMC,141856.000,A,5354.0657,N,01214.9724,E,87.33,332.23,060214,,,A*51
$GPGGA,141902.000,5354.1938,N,01214.8543,E,1,10,1.05,21.6,M,44.3,M,,*58
$GPRMC,141901.000,A,5354.1724,N,01214.8741,E,87.79,331.16,060214,,,A*5F
$GPGGA,141907.000,5354.3018,N,01214.7527,E,1,10,1.05,22.0,M,44.2,M,,*5D
$GPRMC,141906.000,A,5354.2798,N,01214.7735,E,90.08,331.23,060214,,,A*56
$GPGGA,141912.000,5354.4118,N,01214.6464,E,1,10,1.05,23.2,M,44.2,M,,*5B
$GPRMC,141911.000,A,5354.3898,N,01214.6676,E,91.44,330.68,060214,,,A*5E
$GPGGA,141917.000,5354.5220,N,01214.5439,E,1,10,1.05,24.6,M,44.2,M,,*5F
$GPRMC,141916.000,A,5354.4997,N,01214.5641,E,90.77,331.75,060214,,,A*5B
$GPGGA,141922.000,5354.6331,N,01214.4436,E,1,10,1.05,26.2,M,44.2,M,,*53
$GPRMC,141921.000,A,5354.6110,N,01214.4632,E,90.08,332.09,060214,,,A*5F
$GPGGA,141927.000,5354.7448,N,01214.3522,E,1,10,1.05,26.3,M,44.2,M,,*5C
$GPRMC,141926.000,A,5354.7223,N,01214.3695,E,89.26,335.24,060214,,,A*5C
$GPGGA,141932.000,5354.8592,N,01214.2719,E,1,9,1.30,25.4,M,44.2,M,,*60
$GPRMC,141931.000,A,5354.8360,N,01214.2869,E,89.46,338.44,060214,,,A*52
$GPGGA,141937.000,5354.9761,N,01214.2026,E,1,10,0.99,24.6,M,44.2,M,,*58
$GPRMC,141936.000,A,5354.9526,N,01214.2156,E,89.35,341.37,060214,,,A*5B
$GPGGA,141942.000,5355.0959,N,01214.1420,E,1,10,0.88,22.3,M,44.2,M,,*55
$GPRMC,141941.000,A,5355.0717,N,01214.1544,E,90.38,343.33,060214,,,A*54
$GPGGA,141947.000,5355.2157,N,01214.0769,E,1,10,0.88,23.0,M,44.2,M,,*59
$GPRMC,141946.000,A,5355.1921,N,01214.0908,E,90.64,341.39,060214,,,A*5D
$GPGGA,141952.000,5355.3322,N,01214.0004,E,1,10,0.88,24.9,M,44.2,M,,*5E
$GPRMC,141951.000,A,5355.3090,N,01214.0164,E,89.78,337.91,060214,,,A*5E
$GPGGA,141957.000,5355.4465,N,01213.9132,E,1,9,1.18,25.7,M,44.2,M,,*6D
$GPRMC,141956.000,A,5355.4239,N,01213.9317,E,90.12,334.36,060214,,,A*5D
$GPGGA,142002.000,5355.5576,N,01213.8128,E,1,10,0.88,23.8,M,44.2,M,,*56
$GPRMC,142001.000,A,5355.5356,N,01213.8337,E,90.82,331.50,060214,,,A*53
$GPGGA,142007.000,5355.6659,N,01213.7003,E,1,10,0.88,21.2,M,44.2,M,,*51
$GPRMC,142006.000,A,5355.6445,N,01213.7237,E,91.38,327.94,060214,,,A*53
$GPGGA,142012.000,5355.7696,N,01213.5784,E,1,11,0.85,18.4,M,44.2,M,,*5D
$GPRMC,142011.000,A,5355.7494,N,01213.6032,E,90.26,324.59,060214,,,A*52
$GPGGA,142017.000,5355.8659,N,01213.4511,E,1,11,0.84,17.6,M,44.2,M,,*57
$GPRMC,142016.000,A,5355.8475,N,01213.4766,E,86.82,321.11,060214,,,A*51
$GPGGA,142022.000,5355.9519,N,01213.3252,E,1,11,0.84,19.3,M,44.2,M,,*5B
$GPRMC,142021.000,A,5355.9355,N,01213.3503,E,80.32,318.49,060214,,,A*5D
$GPGGA,142028.000,5356.0463,N,01213.1827,E,1,11,0.84,24.9,M,44.2,M,,*59
$GPRMC,142027.000,A,5356.0309,N,01213.2055,E,74.65,319.06,060214,,,A*5C
$GPGGA,142034.000,5356.1389,N,01213.0438,E,1,11,0.84,29.6,M,44.2,M,,*57
$GPRMC,142033.000,A,5356.1234,N,01213.0669,E,75.20,318.55,060214,,,A*5B
$GPGGA,142040.000,5356.2294,N,01212.9081,E,1,10,0.88,31.0,M,44.2,M,,*56
$GPRMC,142039.000,A,5356.2144,N,01212.9304,E,71.44,318.32,060214,,,A*57
$GPGGA,142046.000,5356.3244,N,01212.7738,E,1,11,0.84,29.6,M,44.2,M,,*55
$GPRMC,142045.000,A,5356.3079,N,01212.7962,E,76.54,320.93,060214,,,A*50
$GPGGA,142052.000,5356.4245,N,01212.6398,E,1,11,0.84,24.6,M,44.2,M,,*54
$GPRMC,142051.000,A,5356.4077,N,01212.6617,E,76.46,322.16,060214,,,A*5C
$GPGGA,142057.000,5356.5105,N,01212.5299,E,1,11,0.84,20.8,M,44.2,M,,*5E
$GPRMC,142056.000,A,5356.4929,N,01212.5519,E,78.38,323.24,060214,,,A*50
$GPGGA,142102.000,5356.6012,N,01212.4212,E,1,11,0.84,19.2,M,44.2,M,,*59
$GPRMC,142101.000,A,5356.5830,N,01212.4424,E,79.69,325.28,060214,,,A*5A
$GPGGA,142107.000,5356.6959,N,01212.3192,E,1,11,0.84,20.1,M,44.2,M,,*5F
$GPRMC,142106.000,A,5356.6762,N,01212.3392,E,82.11,328.31,060214,,,A*55
$GPGGA,142112.000,5356.7969,N,01212.2207,E,1,11,0.84,21.2,M,44.2,M,,*55
$GPRMC,142111.000,A,5356.7765,N,01212.2401,E,84.16,330.40,060214,,,A*57
$GPGGA,142117.000,5356.9015,N,01212.1297,E,1,11,0.84,22.4,M,44.2,M,,*53
$GPRMC,142116.000,A,5356.8803,N,01212.1471,E,84.77,333.37,060214,,,A*50
$GPGGA,142122.000,5357.0073,N,01212.0489,E,1,11,0.84,21.8,M,44.2,M,,*5A
$GPRMC,142121.000,A,5356.9861,N,01212.0640,E,83.07,336.64,060214,,,A*53
$GPGGA,142127.000,5357.1146,N,01211.9812,E,1,10,0.85,20.5,M,44.2,M,,*51
$GPRMC,142126.000,A,5357.0930,N,01211.9936,E,82.64,340.30,060214,,,A*59
$GPGGA,142132.000,5357.2227,N,01211.9256,E,1,11,0.84,19.2,M,44.2,M,,*55
$GPRMC,142131.000,A,5357.2012,N,01211.9354,E,80.46,344.26,060214,,,A*5B
$GPGGA,142137.000,5357.3284,N,01211.8848,E,1,11,0.84,17.3,M,44.2,M,,*53
$GPRMC,142136.000,A,5357.3073,N,01211.8920,E,77.17,348.03,060214,,,A*55
$GPGGA,142142.000,5357.4347,N,01211.8564,E,1,11,0.84,17.3,M,44.2,M,,*5B
$GPRMC,142141.000,A,5357.4133,N,01211.8613,E,77.35,351.65,060214,,,A*50
$GPGGA,142147.000,5357.5422,N,01211.8402,E,1,10,0.85,19.8,M,44.2,M,,*5F
$GPRMC,142146.000,A,5357.5207,N,01211.8425,E,77.64,355.86,060214,,,A*58
$GPGGA,142153.000,5357.6705,N,01211.8350,E,1,11,0.84,23.3,M,44.2,M,,*5D
$GPRMC,142152.000,A,5357.6490,N,01211.8349,E,77.44,359.48,060214,,,A*57
$GPGGA,142159.000,5357.7993,N,01211.8398,E,1,11,0.84,26.7,M,44.2,M,,*52
$GPRMC,142158.000,A,5357.7780,N,01211.8384,E,76.79,1.83,060214,,,A*59
$GPGGA,142205.000,5357.9270,N,01211.8498,E,1,11,0.84,29.1,M,44.2,M,,*5E
$GPRMC,142204.000,A,5357.9056,N,01211.8479,E,77.09,2.81,060214,,,A*53
$GPGGA,142210.000,5358.0359,N,01211.8586,E,1,11,0.84,29.9,M,44.2,M,,*50
$GPRMC,142209.000,A,5358.0137,N,01211.8570,E,79.40,2.61,060214,,,A*5B
$GPGGA,142215.000,5358.1501,N,01211.8646,E,1,10,0.88,29.3,M,44.2,M,,*57
$GPRMC,142214.000,A,5358.1270,N,01211.8639,E,83.25,1.30,060214,,,A*59
$GPGGA,142220.000,5358.2649,N,01211.8662,E,1,8,1.17,27.2,M,44.2,M,,*6A
$GPRMC,142219.000,A,5358.2421,N,01211.8665,E,82.43,359.86,060214,,,A*5E
$GPGGA,142225.000,5358.3751,N,01211.8591,E,1,8,1.17,25.2,M,44.2,M,,*6B
$GPRMC,142224.000,A,5358.3535,N,01211.8609,E,78.37,357.50,060214,,,A*5C
$GPGGA,142231.000,5358.5004,N,01211.8446,E,1,9,0.98,23.1,M,44.2,M,,*66
$GPRMC,142230.000,A,5358.4800,N,01211.8472,E,74.08,355.24,060214,,,A*5A
$GPGGA,142237.000,5358.6187,N,01211.8240,E,1,8,1.17,21.6,M,44.2,M,,*6B
$GPRMC,142236.000,A,5358.5993,N,01211.8278,E,70.24,353.03,060214,,,A*53
$GPGGA,142243.000,5358.7352,N,01211.8015,E,1,11,0.84,22.1,M,44.2,M,,*56
$GPRMC,142242.000,A,5358.7156,N,01211.8054,E,71.10,353.50,060214,,,A*5F
$GPGGA,142249.000,5358.8526,N,01211.7807,E,1,9,1.09,23.5,M,44.2,M,,*6A
$GPRMC,142248.000,A,5358.8333,N,01211.7835,E,69.91,354.56,060214,,,A*5A
$GPGGA,142255.000,5358.9709,N,01211.7740,E,1,10,0.85,24.3,M,44.2,M,,*59
$GPRMC,142254.000,A,5358.9504,N,01211.7737,E,73.52,359.44,060214,,,A*53
$GPGGA,142301.000,5359.0972,N,01211.7885,E,1,11,0.84,24.4,M,44.2,M,,*52
$GPRMC,142300.000,A,5359.0759,N,01211.7842,E,76.51,5.86,060214,,,A*5E
$GPGGA,142306.000,5359.2054,N,01211.8199,E,1,11,0.84,23.7,M,44.2,M,,*55
$GPRMC,142305.000,A,5359.1836,N,01211.8129,E,80.07,10.46,060214,,,A*65
$GPGGA,142311.000,5359.3109,N,01211.8566,E,1,11,0.84,22.7,M,44.2,M,,*5E
$GPRMC,142310.000,A,5359.2900,N,01211.8492,E,76.62,11.70,060214,,,A*6D
$GPGGA,142317.000,5359.4345,N,01211.8992,E,1,11,0.84,22.5,M,44.2,M,,*50
$GPRMC,142316.000,A,5359.4143,N,01211.8923,E,74.90,11.16,060214,,,A*6A
$GPGGA,142323.000,5359.5586,N,01211.9428,E,1,10,0.88,22.9,M,44.2,M,,*53
$GPRMC,142322.000,A,5359.5370,N,01211.9352,E,78.97,11.72,060214,,,A*6A
$GPGGA,142328.000,5359.6693,N,01211.9815,E,1,10,0.88,24.2,M,44.2,M,,*53
$GPRMC,142327.000,A,5359.6468,N,01211.9736,E,82.25,11.75,060214,,,A*6F
$GPGGA,142333.000,5359.7830,N,01212.0222,E,1,10,0.88,25.9,M,44.2,M,,*51
$GPRMC,142332.000,A,5359.7600,N,01212.0137,E,83.97,12.06,060214,,,A*64
$GPGGA,142338.000,5359.8968,N,01212.0633,E,1,11,0.84,27.5,M,44.2,M,,*5E
$GPRMC,142337.000,A,5359.8743,N,01212.0555,E,83.53,11.36,060214,,,A*60
$GPGGA,142343.000,5400.0056,N,01212.1018,E,1,11,0.84,29.3,M,44.2,M,,*53
$GPRMC,142342.000,A,5359.9842,N,01212.0942,E,78.80,11.84,060214,,,A*64
$GPGGA,142348.000,5400.1143,N,01212.1382,E,1,11,0.84,31.0,M,44.2,M,,*56
$GPRMC,142347.000,A,5400.0924,N,01212.1315,E,80.50,10.44,060214,,,A*6C
$GPGGA,142353.000,5400.2265,N,01212.1667,E,1,11,0.84,31.8,M,44.2,M,,*5E
$GPRMC,142352.000,A,5400.2041,N,01212.1617,E,82.06,7.64,060214,,,A*52
$GPGGA,142358.000,5400.3366,N,01212.1851,E,1,11,0.84,29.9,M,44.2,M,,*55
$GPRMC,142357.000,A,5400.3143,N,01212.1825,E,79.69,4.62,060214,,,A*52
$GPGGA,142404.000,5400.4621,N,01212.1924,E,1,11,0.84,27.3,M,44.2,M,,*5D
$GPRMC,142403.000,A,5400.4418,N,01212.1920,E,73.17,1.28,060214,,,A*54
$GPGGA,142410.000,5400.5731,N,01212.1888,E,1,11,0.84,25.6,M,44.2,M,,*59
$GPRMC,142409.000,A,5400.5557,N,01212.1899,E,63.37,358.15,060214,,,A*54
$GPGGA,142417.000,5400.6928,N,01212.1740,E,1,10,0.94,24.3,M,44.2,M,,*54
$GPRMC,142416.000,A,5400.6755,N,01212.1766,E,62.59,355.72,060214,,,A*53
$GPGGA,142424.000,5400.8117,N,01212.1556,E,1,10,0.94,23.0,M,44.2,M,,*5F
$GPRMC,142423.000,A,5400.7945,N,01212.1582,E,61.76,355.36,060214,,,A*5D
$GPGGA,142431.000,5400.9330,N,01212.1370,E,1,11,0.84,22.2,M,44.2,M,,*5C
$GPRMC,142430.000,A,5400.9160,N,01212.1394,E,61.68,355.18,060214,,,A*5C
$GPGGA,142437.000,5401.0426,N,01212.1203,E,1,10,0.94,22.3,M,44.2,M,,*56
$GPRMC,142436.000,A,5401.0236,N,01212.1231,E,68.65,354.92,060214,,,A*5B
$GPGGA,142443.000,5401.1592,N,01212.1029,E,1,10,0.94,22.1,M,44.2,M,,*52
$GPRMC,142442.000,A,5401.1397,N,01212.1057,E,70.65,355.28,060214,,,A*58
$GPGGA,142449.000,5401.2743,N,01212.0850,E,1,10,0.94,22.5,M,44.2,M,,*56
$GPRMC,142448.000,A,5401.2549,N,01212.0882,E,69.74,354.90,060214,,,A*5F
$GPGGA,142455.000,5401.3929,N,01212.0665,E,1,9,0.98,22.7,M,44.2,M,,*66
$GPRMC,142454.000,A,5401.3729,N,01212.0695,E,72.03,354.97,060214,,,A*52
$GPGGA,142501.000,5401.5113,N,01212.0501,E,1,10,0.88,23.1,M,44.1,M,,*5D
$GPRMC,142500.000,A,5401.4918,N,01212.0525,E,70.38,355.93,060214,,,A*5E
$GPGGA,142507.000,5401.6248,N,01212.0348,E,1,9,0.98,23.7,M,44.1,M,,*61
$GPRMC,142506.000,A,5401.6064,N,01212.0374,E,66.84,355.16,060214,,,A*57
$GPGGA,142513.000,5401.7332,N,01212.0198,E,1,9,0.97,24.8,M,44.1,M,,*61
$GPRMC,142512.000,A,5401.7149,N,01212.0225,E,66.39,357.20,060214,,,A*59
$GPGGA,142519.000,5401.8445,N,01212.0026,E,1,9,0.98,25.8,M,44.1,M,,*69
$GPRMC,142518.000,A,5401.8259,N,01212.0056,E,67.55,355.07,060214,,,A*54
$GPGGA,142525.000,5401.9566,N,01211.9858,E,1,9,0.98,27.3,M,44.1,M,,*65
$GPRMC,142524.000,A,5401.9378,N,01211.9886,E,67.40,354.97,060214,,,A*5B
$GPGGA,142531.000,5402.0688,N,01211.9688,E,1,11,0.84,29.4,M,44.1,M,,*57
$GPRMC,142530.000,A,5402.0505,N,01211.9716,E,66.78,354.96,060214,,,A*55
$GPGGA,142537.000,5402.1764,N,01211.9525,E,1,10,0.94,31.8,M,44.1,M,,*52
$GPRMC,142536.000,A,5402.1583,N,01211.9551,E,65.60,355.25,060214,,,A*5E
$GPGGA,142543.000,5402.2862,N,01211.9401,E,1,11,0.89,33.5,M,44.1,M,,*5E
$GPRMC,142542.000,A,5402.2677,N,01211.9418,E,66.64,356.90,060214,,,A*50
$GPGGA,142549.000,5402.3968,N,01211.9336,E,1,11,0.83,34.2,M,44.1,M,,*57
$GPRMC,142548.000,A,5402.3781,N,01211.9342,E,67.16,358.88,060214,,,A*58
$GPGGA,142555.000,5402.5075,N,01211.9340,E,1,12,0.79,34.1,M,44.1,M,,*5D
$GPRMC,142554.000,A,5402.4889,N,01211.9334,E,66.86,0.56,060214,,,A*51
$GPGGA,142601.000,5402.6176,N,01211.9417,E,1,11,0.83,32.9,M,44.1,M,,*53
$GPRMC,142600.000,A,5402.5994,N,01211.9402,E,65.78,2.50,060214,,,A*5B
$GPGGA,142607.000,5402.7291,N,01211.9532,E,1,11,0.83,30.3,M,44.1,M,,*50
$GPRMC,142606.000,A,5402.7100,N,01211.9515,E,68.56,3.07,060214,,,A*5F
$GPGGA,142613.000,5402.8430,N,01211.9547,E,1,11,0.83,25.9,M,44.1,M,,*5B
$GPRMC,142612.000,A,5402.8235,N,01211.9556,E,68.97,359.02,060214,,,A*53
$GPGGA,142619.000,5402.9692,N,01211.9436,E,1,11,0.83,20.9,M,44.1,M,,*58
$GPRMC,142618.000,A,5402.9475,N,01211.9460,E,77.85,356.31,060214,,,A*5C
$GPGGA,142624.000,5403.0828,N,01211.9266,E,1,11,0.83,15.0,M,44.1,M,,*5D
$GPRMC,142623.000,A,5403.0597,N,01211.9305,E,83.29,354.61,060214,,,A*5F
$GPGGA,142629.000,5403.2001,N,01211.8985,E,1,9,0.95,8.5,M,44.1,M,,*51
$GPRMC,142628.000,A,5403.1766,N,01211.9053,E,85.36,350.97,060214,,,A*5C
$GPGGA,142634.000,5403.3175,N,01211.8590,E,1,11,0.82,1.9,M,44.1,M,,*6C
$GPRMC,142633.000,A,5403.2938,N,01211.8668,E,86.50,349.23,060214,,,A*5B
$GPGGA,142639.000,5403.4364,N,01211.8199,E,1,11,0.83,-1.8,M,44.1,M,,*44
$GPRMC,142638.000,A,5403.4130,N,01211.8275,E,86.42,349.03,060214,,,A*5F
$GPGGA,142644.000,5403.5500,N,01211.7895,E,1,11,0.83,-1.9,M,44.1,M,,*40
$GPRMC,142643.000,A,5403.5276,N,01211.7949,E,81.61,351.58,060214,,,A*59
$GPGGA,142649.000,5403.6622,N,01211.7673,E,1,10,0.88,1.3,M,44.1,M,,*66
$GPRMC,142648.000,A,5403.6399,N,01211.7709,E,81.20,354.15,060214,,,A*52
$GPGGA,142654.000,5403.7728,N,01211.7478,E,1,10,0.88,7.2,M,44.1,M,,*6E
$GPRMC,142653.000,A,5403.7507,N,01211.7519,E,80.05,353.58,060214,,,A*53
$GPGGA,142659.000,5403.8816,N,01211.7282,E,1,10,0.88,13.3,M,44.1,M,,*59
$GPRMC,142658.000,A,5403.8601,N,01211.7320,E,78.22,353.91,060214,,,A*59
$GPGGA,142705.000,5404.0084,N,01211.7054,E,1,10,0.94,19.3,M,44.1,M,,*53
$GPRMC,142704.000,A,5403.9875,N,01211.7091,E,75.24,353.91,060214,,,A*5F
$GPGGA,142711.000,5404.1313,N,01211.6849,E,1,11,0.83,21.9,M,44.1,M,,*59
$GPRMC,142710.000,A,5404.1111,N,01211.6879,E,73.15,355.00,060214,,,A*5B
$GPGGA,142717.000,5404.2480,N,01211.6724,E,1,11,0.83,21.4,M,44.1,M,,*58
$GPRMC,142716.000,A,5404.2284,N,01211.6739,E,70.46,356.99,060214,,,A*5C
$GPGGA,142723.000,5404.3690,N,01211.6706,E,1,11,0.83,20.4,M,44.1,M,,*5C
$GPRMC,142722.000,A,5404.3483,N,01211.6701,E,74.46,0.27,060214,,,A*51
$GPGGA,142729.000,5404.4906,N,01211.6809,E,1,11,0.83,20.2,M,44.1,M,,*57
$GPRMC,142728.000,A,5404.4709,N,01211.6783,E,71.74,3.68,060214,,,A*5B
$GPGGA,142735.000,5404.6036,N,01211.7011,E,1,11,0.83,20.7,M,44.1,M,,*57
$GPRMC,142734.000,A,5404.5852,N,01211.6971,E,67.46,6.81,060214,,,A*51
$GPGGA,142742.000,5404.7257,N,01211.7342,E,1,11,0.83,22.6,M,44.1,M,,*55
$GPRMC,142741.000,A,5404.7092,N,01211.7292,E,61.91,10.01,060214,,,A*61
$GPGGA,142750.000,5404.8361,N,01211.7747,E,1,11,0.83,23.2,M,44.1,M,,*59
$GPRMC,142749.000,A,5404.8231,N,01211.7695,E,48.21,13.28,060214,,,A*66
$GPGGA,142801.000,5404.9494,N,01211.8196,E,1,10,0.90,21.4,M,44.1,M,,*5C
$GPRMC,142800.000,A,5404.9408,N,01211.8162,E,31.96,13.29,060214,,,A*6A
ping
ping
$GPGGA,142916.000,5404.8595,N,01211.7146,E,1,11,0.83,15.3,M,44.1,M,,*5B
$GPRMC,142915.000,A,5404.8592,N,01211.7258,E,23.45,272.92,060214,,,A*51
$GPGGA,142931.000,5404.8641,N,01211.5291,E,1,11,0.83,15.0,M,44.1,M,,*5C
$GPRMC,142930.000,A,5404.8639,N,01211.5419,E,27.56,271.89,060214,,,A*5A
$GPGGA,142949.000,5404.8673,N,01211.3447,E,1,11,0.83,13.6,M,44.1,M,,*59
$GPRMC,142948.000,A,5404.8672,N,01211.3527,E,16.44,272.12,060214,,,A*50
$GPGGA,143006.000,5404.8711,N,01211.1469,E,1,11,0.83,13.0,M,44.1,M,,*57
$GPRMC,143005.000,A,5404.8707,N,01211.1616,E,30.71,272.46,060214,,,A*52
$GPGGA,143021.000,5404.8758,N,01210.9563,E,1,11,0.83,12.4,M,44.1,M,,*58
$GPRMC,143020.000,A,5404.8755,N,01210.9692,E,26.96,272.31,060214,,,A*59
$GPGGA,143037.000,5404.8800,N,01210.7690,E,1,10,1.17,12.1,M,44.1,M,,*54
$GPRMC,143036.000,A,5404.8798,N,01210.7798,E,22.97,272.39,060214,,,A*57
$GPGGA,143105.000,5404.9307,N,01210.6042,E,1,10,1.20,10.0,M,44.1,M,,*56
$GPRMC,143104.000,A,5404.9272,N,01210.6052,E,11.86,346.79,060214,,,A*55
ping
$DeviceName=pironex_auto
$Software=0.1.3
$Hardware=1
$LastValidPosition=
$IMEI=359193030849087
$LocalIP=10.154.37.122
$CmdVersion=2
$SUCCESS
$<end>
ping
ping
ping
$GPGGA,143628.000,5404.8899,N,01210.7694,E,1,7,1.54,38.8,M,44.1,M,,*68
$GPRMC,143627.000,V,,,,,0.00,150.42,060214,,,N*4B
ping
$GPGGA,143701.000,5404.8823,N,01210.5826,E,1,12,0.81,37.2,M,44.1,M,,*5E
$GPRMC,143700.000,A,5404.8818,N,01210.5983,E,31.86,272.64,060214,,,A*5E
$GPGGA,143712.000,5404.8871,N,01210.3869,E,1,10,0.90,33.4,M,44.1,M,,*56
$GPRMC,143711.000,A,5404.8868,N,01210.4050,E,37.97,271.88,060214,,,A*58
$GPGGA,143723.000,5404.8875,N,01210.1905,E,1,11,0.83,28.8,M,44.1,M,,*5C
$GPRMC,143722.000,A,5404.8881,N,01210.2083,E,37.37,267.30,060214,,,A*59
$GPGGA,143752.000,5404.8844,N,01210.0048,E,1,11,1.06,21.2,M,44.1,M,,*56
$GPRMC,143751.000,A,5404.8845,N,01210.0081,E,4.95,267.99,060214,,,A*6E
$GPGGA,143808.000,5404.8821,N,01209.8192,E,1,11,0.97,13.9,M,44.1,M,,*50
$GPRMC,143807.000,A,5404.8820,N,01209.8346,E,32.35,270.81,060214,,,A*59
$GPGGA,143821.000,5404.8838,N,01209.6318,E,1,12,0.81,12.6,M,44.1,M,,*57
$GPRMC,143820.000,A,5404.8836,N,01209.6436,E,25.61,271.82,060214,,,A*50
ping
$GPGGA,143906.000,5404.9140,N,01209.4557,E,1,11,1.27,17.8,M,44.1,M,,*5E
$GPRMC,143905.000,A,5404.9105,N,01209.4668,E,26.32,298.65,060214,,,A*5E
$GPGGA,143924.000,5404.9694,N,01209.2966,E,1,13,0.80,14.7,M,44.1,M,,*5A
$GPRMC,143923.000,A,5404.9656,N,01209.3056,E,23.33,306.22,060214,,,A*56
$GPGGA,143942.000,5405.0417,N,01209.1530,E,1,12,0.80,11.3,M,44.1,M,,*57
$GPRMC,143941.000,A,5405.0373,N,01209.1630,E,25.96,305.97,060214,,,A*58
$GPGGA,143957.000,5405.1138,N,01209.0028,E,1,10,0.92,9.9,M,44.1,M,,*65
$GPRMC,143956.000,A,5405.1093,N,01209.0119,E,26.48,309.66,060214,,,A*5D
$GPGGA,144027.000,5405.1824,N,01208.8591,E,1,13,0.80,10.2,M,44.1,M,,*55
$GPRMC,144026.000,A,5405.1798,N,01208.8641,E,12.32,309.92,060214,,,A*5A
ping
$GPGGA,144058.000,5405.1898,N,01208.6739,E,1,10,0.92,17.1,M,44.1,M,,*50
$GPRMC,144057.000,A,5405.1912,N,01208.6842,E,21.78,257.75,060214,,,A*5E
ping
ping
$GPGGA,144224.000,5405.1576,N,01208.4974,E,1,13,0.80,23.9,M,44.1,M,,*5E
$GPRMC,144223.000,A,5405.1579,N,01208.5020,E,7.60,259.01,060214,,,A*61
$GPGGA,144254.000,5405.1919,N,01208.3126,E,1,9,1.20,30.5,M,44.1,M,,*6A
$GPRMC,144253.000,A,5405.1922,N,01208.3246,E,25.55,267.34,060214,,,A*5D
ping
ping
$DeviceName=pironex_auto
$Software=0.1.3
$Hardware=1
$LastValidPosition=
$IMEI=359193030849087
$LocalIP=10.157.156.226
$CmdVersion=2
$SUCCESS
$<end>
ping
ping
ping
ping
ping
ping
ping
$DeviceName=pironex_auto
$Software=0.1.3
$Hardware=1
$LastValidPosition=
$IMEI=359193030849087
$LocalIP=10.67.240.25
$CmdVersion=2
$SUCCESS
$<end>
ping
ping
ping
ping
ping
ping
ping
$GPGGA,062443.000,5405.1452,N,01208.6001,E,1,10,0.84,-1.8,M,44.1,M,,*49
$GPRMC,062442.000,V,,,,,11.43,332.93,070214,,,N*74
$GPGGA,062503.000,5405.1947,N,01208.7675,E,1,9,0.88,7.0,M,44.1,M,,*56
$GPRMC,062502.000,A,5405.1836,N,01208.7344,E,25.01,73.08,070214,,,A*60
ping
$GPGGA,062534.000,5405.1422,N,01208.9347,E,1,11,0.79,11.8,M,44.1,M,,*5E
$GPRMC,062533.000,A,5405.1467,N,01208.9251,E,25.67,128.19,070214,,,A*5E
$GPGGA,062549.000,5405.0738,N,01209.0764,E,1,11,0.79,10.3,M,44.1,M,,*5A
$GPRMC,062548.000,A,5405.0784,N,01209.0674,E,25.51,129.92,070214,,,A*51
$GPGGA,062609.000,5405.0035,N,01209.2194,E,1,9,0.94,8.0,M,44.1,M,,*5C
$GPRMC,062608.000,A,5405.0064,N,01209.2128,E,16.93,148.31,070214,,,A*53
$GPGGA,062629.000,5404.9375,N,01209.3675,E,1,11,0.79,7.5,M,44.1,M,,*68
$GPRMC,062628.000,A,5404.9403,N,01209.3598,E,19.29,126.97,070214,,,A*58
$GPGGA,062647.000,5404.8877,N,01209.5302,E,1,12,0.75,7.6,M,44.1,M,,*67
$GPRMC,062646.000,A,5404.8915,N,01209.5190,E,26.88,118.47,070214,,,A*56
$GPGGA,062700.000,5404.8776,N,01209.7130,E,1,12,0.75,8.3,M,44.1,M,,*60
$GPRMC,062659.000,A,5404.8778,N,01209.6974,E,33.39,91.04,070214,,,A*65
$GPGGA,062715.000,5404.8751,N,01209.9025,E,1,12,0.75,15.1,M,44.1,M,,*54
$GPRMC,062714.000,A,5404.8753,N,01209.8898,E,26.11,91.74,070214,,,A*60
$GPGGA,062729.000,5404.8763,N,01210.0988,E,1,12,0.82,21.9,M,44.1,M,,*52
$GPRMC,062728.000,A,5404.8758,N,01210.0843,E,30.71,86.64,070214,,,A*64
$GPGGA,062743.000,5404.8845,N,01210.2835,E,1,12,0.82,22.7,M,44.1,M,,*5D
$GPRMC,062742.000,A,5404.8843,N,01210.2704,E,28.10,89.40,070214,,,A*64
$GPGGA,062757.000,5404.8810,N,01210.4688,E,1,12,0.75,23.5,M,44.1,M,,*5D
$GPRMC,062756.000,A,5404.8814,N,01210.4552,E,29.21,92.42,070214,,,A*6F
$GPGGA,062815.000,5404.8492,N,01210.6464,E,1,12,0.80,24.5,M,44.1,M,,*5D
$GPRMC,062814.000,A,5404.8555,N,01210.6425,E,23.79,159.52,070214,,,A*5D
$GPGGA,062828.000,5404.7385,N,01210.7053,E,1,11,0.84,17.7,M,44.1,M,,*59
$GPRMC,062827.000,A,5404.7466,N,01210.7007,E,30.75,160.73,070214,,,A*51
$GPGGA,062842.000,5404.6252,N,01210.6969,E,1,11,0.84,21.8,M,44.1,M,,*54
$GPRMC,062841.000,A,5404.6340,N,01210.6991,E,31.03,188.02,070214,,,A*54
$GPGGA,062859.000,5404.5178,N,01210.6561,E,1,12,0.82,23.0,M,44.1,M,,*5D
$GPRMC,062858.000,A,5404.5200,N,01210.6594,E,10.37,201.91,070214,,,A*5F
ping
$DeviceName=pironex_auto
$Software=0.1.3
$Hardware=1
$LastValidPosition=
$IMEI=359193030849087
$LocalIP=10.38.24.109
$CmdVersion=2
$SUCCESS
$<end>
ping
ping
$GPGGA,150011.000,5404.9000,N,01210.4194,E,1,8,1.08,7.1,M,44.1,M,,*58
$GPRMC,150010.000,V,,,,,29.19,274.59,070214,,,N*76
$GPGGA,150025.000,5404.8830,N,01210.2361,E,1,7,1.18,46.6,M,44.1,M,,*67
$GPRMC,150024.000,A,5404.8831,N,01210.2538,E,35.77,267.92,070214,,,A*5B
$GPGGA,150037.000,5404.8864,N,01210.0472,E,1,11,0.91,14.4,M,44.1,M,,*50
$GPRMC,150036.000,A,5404.8866,N,01210.0583,E,24.53,269.13,070214,,,A*59
$GPGGA,150100.000,5404.9774,N,01209.9401,E,1,12,0.76,5.4,M,44.1,M,,*65
$GPRMC,150059.000,A,5404.9681,N,01209.9445,E,34.06,343.90,070214,,,A*5F
$GPGGA,150111.000,5405.0824,N,01209.8869,E,1,12,0.76,3.3,M,44.1,M,,*65
$GPRMC,150110.000,A,5405.0736,N,01209.8912,E,33.25,344.04,070214,,,A*54
$GPGGA,150124.000,5405.1891,N,01209.8349,E,1,12,0.75,0.9,M,44.1,M,,*6F
$GPRMC,150123.000,A,5405.1816,N,01209.8388,E,29.80,341.53,070214,,,A*52
$GPGGA,150138.000,5405.2938,N,01209.7850,E,1,12,0.75,0.6,M,44.1,M,,*60
$GPRMC,150137.000,A,5405.2862,N,01209.7886,E,28.36,344.24,070214,,,A*54
$GPGGA,150152.000,5405.4005,N,01209.7321,E,1,12,0.76,-0.5,M,44.1,M,,*4D
$GPRMC,150151.000,A,5405.3931,N,01209.7362,E,28.21,341.79,070214,,,A*58
ping
ping
$GPGGA,150311.000,5405.4296,N,01209.5462,E,1,12,0.81,4.9,M,44.1,M,,*6F
$GPRMC,150310.000,A,5405.4319,N,01209.5631,E,36.09,254.47,070214,,,A*54
$GPGGA,150322.000,5405.4373,N,01209.3452,E,1,12,0.81,6.7,M,44.1,M,,*6C
$GPRMC,150321.000,A,5405.4359,N,01209.3632,E,38.66,276.36,070214,,,A*56
$GPGGA,150334.000,5405.4506,N,01209.1545,E,1,12,0.81,7.4,M,44.1,M,,*68
$GPRMC,150333.000,A,5405.4493,N,01209.1693,E,31.91,277.08,070214,,,A*50
$GPGGA,150347.000,5405.4849,N,01208.9688,E,1,11,0.86,3.8,M,44.1,M,,*6D
$GPRMC,150346.000,A,5405.4813,N,01208.9817,E,30.49,295.22,070214,,,A*5D
ping
$GPGGA,150422.000,5405.5323,N,01208.8037,E,1,11,0.99,3.6,M,44.1,M,,*6C
$GPRMC,150421.000,A,5405.5298,N,01208.8138,E,22.70,293.43,070214,,,A*5E
ping
$GPGGA,150455.000,5405.5453,N,01208.6156,E,1,10,1.03,4.9,M,44.1,M,,*6F
$GPRMC,150454.000,A,5405.5454,N,01208.6253,E,19.78,270.64,070214,,,A*52
$GPGGA,150511.000,5405.5471,N,01208.4245,E,1,13,0.73,7.4,M,44.1,M,,*66
$GPRMC,150510.000,A,5405.5471,N,01208.4373,E,27.10,270.93,070214,,,A*5E
$GPGGA,150528.000,5405.5472,N,01208.2394,E,1,10,1.35,8.2,M,44.1,M,,*6D
$GPRMC,150527.000,A,5405.5472,N,01208.2502,E,22.87,269.70,070214,,,A*51
$GPGGA,150545.000,5405.5320,N,01208.0556,E,1,12,0.79,7.9,M,44.1,M,,*63
$GPRMC,150544.000,A,5405.5332,N,01208.0677,E,26.25,259.69,070214,,,A*53
$GPGGA,150600.000,5405.5242,N,01207.8673,E,1,11,0.83,7.8,M,44.1,M,,*60
$GPRMC,150559.000,A,5405.5241,N,01207.8807,E,28.47,270.93,070214,,,A*50
$GPGGA,150618.000,5405.5215,N,01207.6838,E,1,12,0.81,7.1,M,44.1,M,,*6C
$GPRMC,150617.000,A,5405.5214,N,01207.6850,E,5.08,271.89,070214,,,A*6B
ping
$GPGGA,150659.000,5405.5240,N,01207.4973,E,1,12,0.81,6.9,M,44.2,M,,*6F
$GPRMC,150658.000,A,5405.5237,N,01207.5106,E,28.25,271.02,070214,,,A*5B
$GPGGA,150712.000,5405.5396,N,01207.3142,E,1,13,0.73,6.9,M,44.2,M,,*6A
$GPRMC,150711.000,A,5405.5374,N,01207.3283,E,30.44,283.36,070214,,,A*5D
$GPGGA,150726.000,5405.5794,N,01207.1297,E,1,13,0.73,7.1,M,44.2,M,,*6B
$GPRMC,150725.000,A,5405.5761,N,01207.1427,E,29.75,292.74,070214,,,A*5C
$GPGGA,150741.000,5405.6235,N,01206.9523,E,1,13,0.73,6.9,M,44.2,M,,*6F
$GPRMC,150740.000,A,5405.6212,N,01206.9609,E,21.40,293.72,070214,,,A*53
ping
$GPGGA,150815.000,5405.6291,N,01206.7657,E,1,12,0.81,8.6,M,44.2,M,,*6C
$GPRMC,150814.000,A,5405.6314,N,01206.7761,E,22.73,249.36,070214,,,A*5F
$GPGGA,150830.000,5405.5797,N,01206.5915,E,1,12,0.81,14.3,M,44.2,M,,*58
$GPRMC,150829.000,A,5405.5812,N,01206.6037,E,26.09,256.06,070214,,,A*5E
$GPGGA,150847.000,5405.6157,N,01206.4168,E,1,8,1.43,12.0,M,44.2,M,,*63
$GPRMC,150846.000,A,5405.6119,N,01206.4290,E,28.92,297.51,070214,,,A*58
$GPGGA,150904.000,5405.6671,N,01206.2541,E,1,10,0.89,10.3,M,44.2,M,,*50
$GPRMC,150903.000,A,5405.6643,N,01206.2622,E,19.47,298.15,070214,,,A*5E
$GPGGA,150926.000,5405.7211,N,01206.0864,E,1,13,0.73,0.6,M,44.2,M,,*69
$GPRMC,150925.000,A,5405.7180,N,01206.0973,E,24.59,295.60,070214,,,A*54
$GPGGA,150940.000,5405.7777,N,01205.9191,E,1,13,0.73,3.8,M,44.2,M,,*68
$GPRMC,150939.000,A,5405.7714,N,01205.9244,E,24.21,326.71,070214,,,A*51
$GPGGA,150954.000,5405.8811,N,01205.8401,E,1,10,0.95,3.3,M,44.2,M,,*60
$GPRMC,150953.000,A,5405.8739,N,01205.8464,E,28.55,331.85,070214,,,A*5A
$GPGGA,151008.000,5405.9800,N,01205.7391,E,1,11,0.84,7.4,M,44.2,M,,*63
$GPRMC,151007.000,A,5405.9726,N,01205.7463,E,30.22,329.02,070214,,,A*5B
$GPGGA,151022.000,5406.0769,N,01205.6436,E,1,12,0.77,6.9,M,44.2,M,,*69
$GPRMC,151021.000,A,5406.0701,N,01205.6502,E,28.27,329.78,070214,,,A*56
$GPGGA,151036.000,5406.1750,N,01205.5541,E,1,11,0.84,3.1,M,44.2,M,,*67
$GPRMC,151035.000,A,5406.1678,N,01205.5610,E,29.91,329.64,070214,,,A*5F
$GPGGA,151051.000,5406.2840,N,01205.5010,E,1,12,0.81,0.0,M,44.2,M,,*6E
$GPRMC,151050.000,A,5406.2761,N,01205.5015,E,28.40,357.46,070214,,,A*51
$GPGGA,151108.000,5406.3703,N,01205.3843,E,1,13,0.72,-4.5,M,44.2,M,,*43
$GPRMC,151107.000,A,5406.3689,N,01205.3965,E,26.18,284.51,070214,,,A*56
$GPGGA,151125.000,5406.4407,N,01205.2322,E,1,12,0.81,-7.7,M,44.2,M,,*4D
$GPRMC,151124.000,A,5406.4344,N,01205.2382,E,27.17,330.91,070214,,,A*5A
$GPGGA,151154.000,5406.5389,N,01205.1374,E,1,11,0.82,-1.9,M,44.2,M,,*43
$GPRMC,151153.000,A,5406.5336,N,01205.1425,E,20.87,329.91,070214,,,A*51
$GPGGA,151210.000,5406.6357,N,01205.0350,E,1,10,1.03,-2.3,M,44.2,M,,*47
$GPRMC,151209.000,A,5406.6297,N,01205.0414,E,24.99,328.29,070214,,,A*5E
$GPGGA,151226.000,5406.7347,N,01204.9395,E,1,10,0.88,-1.6,M,44.2,M,,*47
$GPRMC,151225.000,A,5406.7281,N,01204.9461,E,27.18,329.64,070214,,,A*5E
ping
$GPGGA,151316.000,5406.8223,N,01204.8286,E,1,13,0.72,-2.8,M,44.2,M,,*40
$GPRMC,151315.000,A,5406.8209,N,01204.8333,E,11.23,300.11,070214,,,A*56
$GPGGA,151334.000,5406.8912,N,01204.6865,E,1,12,0.74,-3.1,M,44.2,M,,*4F
$GPRMC,151333.000,A,5406.8840,N,01204.6936,E,29.51,328.18,070214,,,A*59
$GPGGA,151347.000,5406.9860,N,01204.5895,E,1,13,0.72,-3.8,M,44.2,M,,*4C
$GPRMC,151346.000,A,5406.9783,N,01204.5955,E,30.62,334.25,070214,,,A*57
$GPGGA,151402.000,5407.0995,N,01204.5770,E,1,12,0.80,-5.8,M,44.2,M,,*47
$GPRMC,151401.000,A,5407.0922,N,01204.5751,E,26.79,7.88,070214,,,A*5D
ping
ping
$GPGGA,151516.000,5407.2067,N,01204.5463,E,1,11,1.01,-8.8,M,44.2,M,,*42
$GPRMC,151515.000,A,5407.2017,N,01204.5533,E,23.07,326.48,070214,,,A*52
ping
$GPGGA,151554.000,5407.2651,N,01204.3917,E,1,11,1.01,-7.9,M,44.2,M,,*41
$GPRMC,151553.000,A,5407.2618,N,01204.4001,E,20.68,302.38,070214,,,A*57
ping
$GPGGA,151626.000,5407.3740,N,01204.3800,E,1,12,0.80,-7.7,M,44.2,M,,*45
$GPRMC,151625.000,A,5407.3715,N,01204.3799,E,7.95,340.49,070214,,,A*6E
ping
$DeviceName=pironex_auto
$Software=0.1.3
$Hardware=1
$LastValidPosition=
$IMEI=359193030849087
$LocalIP=10.69.122.87
$CmdVersion=2
$SUCCESS
$<end>
$GPGGA,160220.000,5407.3394,N,01204.4043,E,1,12,0.79,8.7,M,44.2,M,,*64
$GPRMC,160219.000,A,5407.3439,N,01204.4094,E,17.99,212.52,070214,,,A*56
$GPGGA,160248.000,5407.2360,N,01204.4569,E,1,10,1.01,8.1,M,44.2,M,,*67
$GPRMC,160247.000,A,5407.2403,N,01204.4454,E,28.41,122.73,070214,,,A*57
ping
ping
$GPGGA,160354.000,5407.1485,N,01204.5705,E,1,11,0.87,8.8,M,44.2,M,,*6A
$GPRMC,160353.000,A,5407.1526,N,01204.5686,E,14.76,167.29,070214,,,A*5F
$GPGGA,160410.000,5407.0388,N,01204.5642,E,1,11,0.87,7.9,M,44.2,M,,*6A
$GPRMC,160409.000,A,5407.0473,N,01204.5646,E,30.39,183.51,070214,,,A*53
$GPGGA,160423.000,5406.9315,N,01204.6389,E,1,11,0.87,8.7,M,44.2,M,,*66
$GPRMC,160422.000,A,5406.9394,N,01204.6301,E,33.26,146.29,070214,,,A*52
$GPGGA,160436.000,5406.8379,N,01204.7435,E,1,11,0.87,9.0,M,44.2,M,,*6E
$GPRMC,160435.000,A,5406.8425,N,01204.7355,E,24.86,137.87,070214,,,A*56
$GPGGA,160503.000,5406.7705,N,01204.8916,E,1,11,0.86,8.0,M,44.2,M,,*6A
$GPRMC,160502.000,A,5406.7760,N,01204.8863,E,23.09,150.41,070214,,,A*54
$GPGGA,160520.000,5406.6760,N,01204.9880,E,1,8,1.34,6.5,M,44.2,M,,*5D
$GPRMC,160519.000,A,5406.6818,N,01204.9814,E,25.19,148.12,070214,,,A*56
$GPGGA,160535.000,5406.5804,N,01205.0842,E,1,11,0.86,5.8,M,44.2,M,,*6F
$GPRMC,160534.000,A,5406.5869,N,01205.0778,E,26.45,149.20,070214,,,A*5B
$GPGGA,160550.000,5406.4827,N,01205.1819,E,1,11,0.87,8.1,M,44.2,M,,*66
$GPRMC,160549.000,A,5406.4892,N,01205.1752,E,27.35,149.30,070214,,,A*5A
$GPGGA,160605.000,5406.3849,N,01205.2829,E,1,11,0.87,8.9,M,44.2,M,,*62
$GPRMC,160604.000,A,5406.3901,N,01205.2743,E,25.76,140.79,070214,,,A*5E
$GPGGA,160620.000,5406.3454,N,01205.4564,E,1,11,0.87,10.3,M,44.2,M,,*54
$GPRMC,160619.000,A,5406.3495,N,01205.4469,E,25.04,124.39,070214,,,A*5C
$GPGGA,160637.000,5406.2386,N,01205.5047,E,1,11,0.87,11.0,M,44.2,M,,*5C
$GPRMC,160636.000,A,5406.2462,N,01205.5034,E,27.31,175.33,070214,,,A*5F
$GPGGA,160651.000,5406.1381,N,01205.5829,E,1,11,0.87,15.3,M,44.2,M,,*5F
$GPRMC,160650.000,A,5406.1448,N,01205.5768,E,27.58,151.48,070214,,,A*5F
$GPGGA,160705.000,5406.0424,N,01205.6736,E,1,11,0.87,16.7,M,44.2,M,,*53
$GPRMC,160704.000,A,5406.0499,N,01205.6664,E,30.51,149.84,070214,,,A*5A
$GPGGA,160719.000,5405.9461,N,01205.7690,E,1,9,1.30,16.7,M,44.2,M,,*6D
$GPRMC,160718.000,A,5405.9525,N,01205.7629,E,26.11,149.04,070214,,,A*58
$GPGGA,160734.000,5405.8493,N,01205.8595,E,1,10,0.89,20.1,M,44.2,M,,*5F
$GPRMC,160733.000,A,5405.8555,N,01205.8541,E,25.34,153.22,070214,,,A*5E
$GPGGA,160752.000,5405.7535,N,01205.9457,E,1,11,0.87,19.4,M,44.2,M,,*53
$GPRMC,160751.000,A,5405.7554,N,01205.9402,E,12.85,124.71,070214,,,A*5B
$GPGGA,160816.000,5405.6859,N,01206.0897,E,1,11,0.87,15.6,M,44.2,M,,*5E
$GPRMC,160815.000,A,5405.6912,N,01206.0949,E,21.63,208.31,070214,,,A*52
$GPGGA,160847.000,5405.5795,N,01206.0513,E,1,11,0.87,15.2,M,44.2,M,,*53
$GPRMC,160846.000,A,5405.5822,N,01206.0506,E,9.63,171.08,070214,,,A*6F
ping
$GPGGA,160944.000,5405.6066,N,01205.8733,E,1,10,1.28,21.8,M,44.2,M,,*5A
$GPRMC,160943.000,A,5405.6037,N,01205.8802,E,18.81,305.57,070214,,,A*51
$DeviceName=pironex_auto
$Software=0.1.3
$Hardware=1
$LastValidPosition=
$IMEI=359193030849087
$LocalIP=10.151.21.40
$CmdVersion=2
$SUCCESS
$<end>
ping
$GPGGA,163050.000,5405.5453,N,01205.9871,E,1,8,1.27,4.9,M,44.2,M,,*5C
$GPRMC,163049.000,A,5405.5443,N,01205.9782,E,18.42,80.52,070214,,,A*67
ping
$GPGGA,163126.000,5405.5612,N,01206.1753,E,1,8,1.22,12.1,M,44.2,M,,*65
$GPRMC,163125.000,A,5405.5614,N,01206.1629,E,25.90,90.63,070214,,,A*65
$GPGGA,163140.000,5405.5590,N,01206.3594,E,1,8,1.27,12.5,M,44.2,M,,*66
$GPRMC,163139.000,A,5405.5584,N,01206.3466,E,26.78,85.43,070214,,,A*6A
ping
$GPGGA,163229.000,5405.5728,N,01206.5428,E,1,10,1.21,11.6,M,44.2,M,,*54
$GPRMC,163228.000,A,5405.5721,N,01206.5313,E,24.26,81.80,070214,,,A*65
$GPGGA,163244.000,5405.6086,N,01206.7304,E,1,9,1.18,5.5,M,44.2,M,,*50
$GPRMC,163243.000,A,5405.6046,N,01206.7173,E,30.90,62.46,070214,,,A*64
$GPGGA,163257.000,5405.6241,N,01206.9176,E,1,8,1.21,2.6,M,44.2,M,,*5D
$GPRMC,163256.000,A,5405.6262,N,01206.9025,E,32.57,101.54,070214,,,A*56
$GPGGA,163310.000,5405.5827,N,01207.0992,E,1,8,1.27,3.6,M,44.2,M,,*5B
$GPRMC,163309.000,A,5405.5859,N,01207.0866,E,29.34,112.43,070214,,,A*50
$GPGGA,163324.000,5405.5412,N,01207.2758,E,1,9,1.18,2.0,M,44.2,M,,*56
$GPRMC,163323.000,A,5405.5437,N,01207.2634,E,27.95,108.86,070214,,,A*50
ping
ping
$GPGGA,163427.000,5405.5201,N,01207.4677,E,1,9,1.18,2.8,M,44.2,M,,*54
$GPRMC,163426.000,A,5405.5204,N,01207.4542,E,27.84,92.29,070214,,,A*67
$GPGGA,163443.000,5405.5176,N,01207.6593,E,1,8,1.26,3.7,M,44.1,M,,*5F
$GPRMC,163442.000,A,5405.5178,N,01207.6483,E,22.96,91.29,070214,,,A*66
$GPGGA,163504.000,5405.5151,N,01207.8492,E,1,9,1.17,3.3,M,44.1,M,,*51
$GPRMC,163503.000,A,5405.5151,N,01207.8406,E,18.52,91.02,070214,,,A*62
$GPGGA,163522.000,5405.5247,N,01208.0333,E,1,9,1.18,4.4,M,44.1,M,,*55
$GPRMC,163521.000,A,5405.5235,N,01208.0211,E,26.00,79.58,070214,,,A*67
ping
$GPGGA,163557.000,5405.5350,N,01208.2187,E,1,7,2.51,7.4,M,44.1,M,,*5C
$GPRMC,163556.000,A,5405.5344,N,01208.2114,E,16.02,81.27,070214,,,A*6A
ping
$DeviceName=pironex_auto
$Software=0.1.3
$Hardware=1
$LastValidPosition=
$IMEI=359193030849087
$LocalIP=10.69.223.109
$CmdVersion=2
$SUCCESS
$<end>
$GPGGA,062635.000,5405.4864,N,01208.4373,E,1,5,2.24,1.5,M,44.1,M,,*5E
$GPRMC,062633.296,V,,,,,0.04,0.00,280214,,,N*4B
$DeviceName=pironex_auto
$Software=0.1.3
$Hardware=1
$LastValidPosition=
$IMEI=359193030849087
$LocalIP=10.44.32.3
$CmdVersion=2
$SUCCESS
$<end>
ping
ping
$GPGGA,062807.000,5405.5350,N,01208.2749,E,1,5,2.22,9.0,M,44.1,M,,*5C
$GPRMC,062806.000,A,5405.5347,N,01208.2829,E,15.76,278.96,280214,,,A*55
ping
ping
$GPGGA,062910.000,5405.5425,N,01208.4635,E,1,6,2.68,-3.6,M,44.1,M,,*7E
$GPRMC,062909.000,A,5405.5429,N,01208.4509,E,27.40,92.89,280214,,,A*61
$GPGGA,062941.000,5405.5389,N,01208.6514,E,1,6,2.02,-1.4,M,44.1,M,,*75
$GPRMC,062940.000,A,5405.5390,N,01208.6371,E,30.22,90.27,280214,,,A*66
$GPGGA,062954.000,5405.5169,N,01208.8365,E,1,6,2.02,-3.2,M,44.1,M,,*77
$GPRMC,062953.000,A,5405.5207,N,01208.8231,E,31.40,115.29,280214,,,A*57
$GPGGA,063007.000,5405.4671,N,01209.0088,E,1,6,2.02,-2.6,M,44.1,M,,*7A
$GPRMC,063006.000,A,5405.4709,N,01208.9954,E,31.65,116.69,280214,,,A*5C
$GPGGA,063019.000,5405.4403,N,01209.1877,E,1,6,2.70,-1.7,M,44.1,M,,*7C
$GPRMC,063018.000,A,5405.4413,N,01209.1720,E,33.10,96.49,280214,,,A*64
$GPGGA,063031.000,5405.4271,N,01209.3742,E,1,6,2.70,-3.4,M,44.1,M,,*7F
$GPRMC,063030.000,A,5405.4283,N,01209.3569,E,36.08,96.41,280214,,,A*68
$GPGGA,063042.000,5405.4190,N,01209.5573,E,1,6,2.71,-5.8,M,44.1,M,,*7A
$GPRMC,063041.000,A,5405.4184,N,01209.5430,E,32.11,87.04,280214,